<?xml version="1.0" encoding="UTF-8" standalone="no" ?>
<gpx xmlns="http://www.topografix.com/GPX/1/1" xmlns:xsi="http://www.w3.org/2001/XMLSchema-instance" xsi:schemaLocation="http://www.topografix.com/GPX/1/1 http://www.topografix.com/GPX/1/1/gpx.xsd" version="1.1" creator="VisuGPX - https://www.visugpx.com">
  <metadata>
    <name>2018-03-08 Bike ride-Dombes O-Medium</name>
    <desc><![CDATA[2018-03-08 Bike ride-Dombes O-Medium]]></desc>
  </metadata>
  <wpt lat="45.92452" lon="4.73712">
    <ele>174</ele>
    <name><![CDATA[2018-03-08 10:57 (Start)]]></name>
  </wpt>
  <wpt lat="45.92459" lon="4.73709">
    <ele>174</ele>
    <name><![CDATA[2018-03-08 10:57 (End)]]></name>
  </wpt>
  <trk>
    <name><![CDATA[2018-03-08 10:57]]></name>
    <trkseg>
      <trkpt lat="45.92452" lon="4.73712">
        <ele>174</ele>
        <time>2018-03-08T09:57:21.488Z</time>
      </trkpt>
      <trkpt lat="45.92459" lon="4.73705">
        <ele>174</ele>
        <time>2018-03-08T09:57:42Z</time>
      </trkpt>
      <trkpt lat="45.9246" lon="4.73703">
        <ele>174</ele>
        <time>2018-03-08T09:57:43Z</time>
      </trkpt>
      <trkpt lat="45.92463" lon="4.7369">
        <ele>174</ele>
        <time>2018-03-08T09:57:47Z</time>
      </trkpt>
      <trkpt lat="45.92464" lon="4.73687">
        <ele>174</ele>
        <time>2018-03-08T09:57:48Z</time>
      </trkpt>
      <trkpt lat="45.92465" lon="4.73674">
        <ele>174</ele>
        <time>2018-03-08T09:57:51Z</time>
      </trkpt>
      <trkpt lat="45.92465" lon="4.7367">
        <ele>174</ele>
        <time>2018-03-08T09:57:52Z</time>
      </trkpt>
      <trkpt lat="45.92466" lon="4.7366">
        <ele>174</ele>
        <time>2018-03-08T09:57:54Z</time>
      </trkpt>
      <trkpt lat="45.92467" lon="4.73656">
        <ele>174</ele>
        <time>2018-03-08T09:57:55Z</time>
      </trkpt>
      <trkpt lat="45.92469" lon="4.73648">
        <ele>174</ele>
        <time>2018-03-08T09:57:57Z</time>
      </trkpt>
      <trkpt lat="45.92471" lon="4.73644">
        <ele>174</ele>
        <time>2018-03-08T09:57:58Z</time>
      </trkpt>
      <trkpt lat="45.92476" lon="4.73639">
        <ele>174</ele>
        <time>2018-03-08T09:58:00Z</time>
      </trkpt>
      <trkpt lat="45.92485" lon="4.73636">
        <ele>174</ele>
        <time>2018-03-08T09:58:01Z</time>
      </trkpt>
      <trkpt lat="45.92494" lon="4.73637">
        <ele>174</ele>
        <time>2018-03-08T09:58:03Z</time>
      </trkpt>
      <trkpt lat="45.92498" lon="4.73638">
        <ele>174</ele>
        <time>2018-03-08T09:58:04Z</time>
      </trkpt>
      <trkpt lat="45.92503" lon="4.73638">
        <ele>174</ele>
        <time>2018-03-08T09:58:05Z</time>
      </trkpt>
      <trkpt lat="45.92507" lon="4.73638">
        <ele>174</ele>
        <time>2018-03-08T09:58:06Z</time>
      </trkpt>
      <trkpt lat="45.92513" lon="4.73639">
        <ele>174</ele>
        <time>2018-03-08T09:58:07Z</time>
      </trkpt>
      <trkpt lat="45.92517" lon="4.73639">
        <ele>173</ele>
        <time>2018-03-08T09:58:08Z</time>
      </trkpt>
      <trkpt lat="45.92522" lon="4.73639">
        <ele>173</ele>
        <time>2018-03-08T09:58:09Z</time>
      </trkpt>
      <trkpt lat="45.92527" lon="4.73638">
        <ele>173</ele>
        <time>2018-03-08T09:58:10Z</time>
      </trkpt>
      <trkpt lat="45.92532" lon="4.73637">
        <ele>173</ele>
        <time>2018-03-08T09:58:11Z</time>
      </trkpt>
      <trkpt lat="45.92536" lon="4.73635">
        <ele>173</ele>
        <time>2018-03-08T09:58:12Z</time>
      </trkpt>
      <trkpt lat="45.92541" lon="4.73634">
        <ele>173</ele>
        <time>2018-03-08T09:58:13Z</time>
      </trkpt>
      <trkpt lat="45.92546" lon="4.73633">
        <ele>173</ele>
        <time>2018-03-08T09:58:14Z</time>
      </trkpt>
      <trkpt lat="45.92551" lon="4.73633">
        <ele>173</ele>
        <time>2018-03-08T09:58:15Z</time>
      </trkpt>
      <trkpt lat="45.92557" lon="4.73632">
        <ele>173</ele>
        <time>2018-03-08T09:58:16Z</time>
      </trkpt>
      <trkpt lat="45.92562" lon="4.73631">
        <ele>173</ele>
        <time>2018-03-08T09:58:17Z</time>
      </trkpt>
      <trkpt lat="45.92566" lon="4.73629">
        <ele>173</ele>
        <time>2018-03-08T09:58:18Z</time>
      </trkpt>
      <trkpt lat="45.92575" lon="4.73629">
        <ele>173</ele>
        <time>2018-03-08T09:58:20Z</time>
      </trkpt>
      <trkpt lat="45.9258" lon="4.73626">
        <ele>173</ele>
        <time>2018-03-08T09:58:21Z</time>
      </trkpt>
      <trkpt lat="45.92586" lon="4.73626">
        <ele>172</ele>
        <time>2018-03-08T09:58:22Z</time>
      </trkpt>
      <trkpt lat="45.92592" lon="4.73625">
        <ele>172</ele>
        <time>2018-03-08T09:58:23Z</time>
      </trkpt>
      <trkpt lat="45.92597" lon="4.73623">
        <ele>173</ele>
        <time>2018-03-08T09:58:24Z</time>
      </trkpt>
      <trkpt lat="45.92603" lon="4.73624">
        <ele>173</ele>
        <time>2018-03-08T09:58:25Z</time>
      </trkpt>
      <trkpt lat="45.92609" lon="4.73625">
        <ele>173</ele>
        <time>2018-03-08T09:58:26Z</time>
      </trkpt>
      <trkpt lat="45.92615" lon="4.73626">
        <ele>173</ele>
        <time>2018-03-08T09:58:27Z</time>
      </trkpt>
      <trkpt lat="45.92618" lon="4.73634">
        <ele>173</ele>
        <time>2018-03-08T09:58:28Z</time>
      </trkpt>
      <trkpt lat="45.92621" lon="4.73639">
        <ele>173</ele>
        <time>2018-03-08T09:58:29Z</time>
      </trkpt>
      <trkpt lat="45.92624" lon="4.73647">
        <ele>173</ele>
        <time>2018-03-08T09:58:30Z</time>
      </trkpt>
      <trkpt lat="45.9263" lon="4.73653">
        <ele>173</ele>
        <time>2018-03-08T09:58:31Z</time>
      </trkpt>
      <trkpt lat="45.92634" lon="4.73658">
        <ele>173</ele>
        <time>2018-03-08T09:58:32Z</time>
      </trkpt>
      <trkpt lat="45.92637" lon="4.73664">
        <ele>173</ele>
        <time>2018-03-08T09:58:33Z</time>
      </trkpt>
      <trkpt lat="45.9264" lon="4.73671">
        <ele>173</ele>
        <time>2018-03-08T09:58:34Z</time>
      </trkpt>
      <trkpt lat="45.92644" lon="4.73677">
        <ele>173</ele>
        <time>2018-03-08T09:58:35Z</time>
      </trkpt>
      <trkpt lat="45.92649" lon="4.73681">
        <ele>173</ele>
        <time>2018-03-08T09:58:36Z</time>
      </trkpt>
      <trkpt lat="45.92653" lon="4.73686">
        <ele>173</ele>
        <time>2018-03-08T09:58:37Z</time>
      </trkpt>
      <trkpt lat="45.92658" lon="4.7369">
        <ele>173</ele>
        <time>2018-03-08T09:58:38Z</time>
      </trkpt>
      <trkpt lat="45.92662" lon="4.73694">
        <ele>173</ele>
        <time>2018-03-08T09:58:39Z</time>
      </trkpt>
      <trkpt lat="45.92667" lon="4.73698">
        <ele>174</ele>
        <time>2018-03-08T09:58:40Z</time>
      </trkpt>
      <trkpt lat="45.92674" lon="4.73701">
        <ele>174</ele>
        <time>2018-03-08T09:58:41Z</time>
      </trkpt>
      <trkpt lat="45.9268" lon="4.73704">
        <ele>173</ele>
        <time>2018-03-08T09:58:42Z</time>
      </trkpt>
      <trkpt lat="45.92686" lon="4.73707">
        <ele>173</ele>
        <time>2018-03-08T09:58:43Z</time>
      </trkpt>
      <trkpt lat="45.92692" lon="4.7371">
        <ele>173</ele>
        <time>2018-03-08T09:58:44Z</time>
      </trkpt>
      <trkpt lat="45.92698" lon="4.73712">
        <ele>173</ele>
        <time>2018-03-08T09:58:45Z</time>
      </trkpt>
      <trkpt lat="45.92704" lon="4.73713">
        <ele>173</ele>
        <time>2018-03-08T09:58:46Z</time>
      </trkpt>
      <trkpt lat="45.92709" lon="4.73714">
        <ele>173</ele>
        <time>2018-03-08T09:58:47Z</time>
      </trkpt>
      <trkpt lat="45.92714" lon="4.73716">
        <ele>173</ele>
        <time>2018-03-08T09:58:48Z</time>
      </trkpt>
      <trkpt lat="45.92719" lon="4.73716">
        <ele>173</ele>
        <time>2018-03-08T09:58:49Z</time>
      </trkpt>
      <trkpt lat="45.92726" lon="4.73716">
        <ele>173</ele>
        <time>2018-03-08T09:58:50Z</time>
      </trkpt>
      <trkpt lat="45.92732" lon="4.73718">
        <ele>173</ele>
        <time>2018-03-08T09:58:51Z</time>
      </trkpt>
      <trkpt lat="45.92738" lon="4.73719">
        <ele>173</ele>
        <time>2018-03-08T09:58:52Z</time>
      </trkpt>
      <trkpt lat="45.92743" lon="4.73721">
        <ele>173</ele>
        <time>2018-03-08T09:58:53Z</time>
      </trkpt>
      <trkpt lat="45.92749" lon="4.73723">
        <ele>173</ele>
        <time>2018-03-08T09:58:54Z</time>
      </trkpt>
      <trkpt lat="45.92755" lon="4.73727">
        <ele>172</ele>
        <time>2018-03-08T09:58:55Z</time>
      </trkpt>
      <trkpt lat="45.92761" lon="4.7373">
        <ele>172</ele>
        <time>2018-03-08T09:58:56Z</time>
      </trkpt>
      <trkpt lat="45.92766" lon="4.73731">
        <ele>172</ele>
        <time>2018-03-08T09:58:57Z</time>
      </trkpt>
      <trkpt lat="45.92771" lon="4.73733">
        <ele>172</ele>
        <time>2018-03-08T09:58:58Z</time>
      </trkpt>
      <trkpt lat="45.92775" lon="4.73734">
        <ele>172</ele>
        <time>2018-03-08T09:58:59Z</time>
      </trkpt>
      <trkpt lat="45.92781" lon="4.7374">
        <ele>172</ele>
        <time>2018-03-08T09:59:01Z</time>
      </trkpt>
      <trkpt lat="45.92783" lon="4.73743">
        <ele>172</ele>
        <time>2018-03-08T09:59:02Z</time>
      </trkpt>
      <trkpt lat="45.92783" lon="4.73746">
        <ele>172</ele>
        <time>2018-03-08T09:59:03Z</time>
      </trkpt>
      <trkpt lat="45.92786" lon="4.73757">
        <ele>173</ele>
        <time>2018-03-08T09:59:04Z</time>
      </trkpt>
      <trkpt lat="45.92791" lon="4.73758">
        <ele>173</ele>
        <time>2018-03-08T09:59:05Z</time>
      </trkpt>
      <trkpt lat="45.92796" lon="4.73761">
        <ele>173</ele>
        <time>2018-03-08T09:59:06Z</time>
      </trkpt>
      <trkpt lat="45.928" lon="4.73762">
        <ele>173</ele>
        <time>2018-03-08T09:59:07Z</time>
      </trkpt>
      <trkpt lat="45.92805" lon="4.73765">
        <ele>173</ele>
        <time>2018-03-08T09:59:08Z</time>
      </trkpt>
      <trkpt lat="45.9281" lon="4.73768">
        <ele>173</ele>
        <time>2018-03-08T09:59:09Z</time>
      </trkpt>
      <trkpt lat="45.92816" lon="4.73772">
        <ele>173</ele>
        <time>2018-03-08T09:59:10Z</time>
      </trkpt>
      <trkpt lat="45.9282" lon="4.73777">
        <ele>173</ele>
        <time>2018-03-08T09:59:11Z</time>
      </trkpt>
      <trkpt lat="45.92827" lon="4.73779">
        <ele>173</ele>
        <time>2018-03-08T09:59:12Z</time>
      </trkpt>
      <trkpt lat="45.92832" lon="4.73782">
        <ele>173</ele>
        <time>2018-03-08T09:59:13Z</time>
      </trkpt>
      <trkpt lat="45.92839" lon="4.73786">
        <ele>173</ele>
        <time>2018-03-08T09:59:14Z</time>
      </trkpt>
      <trkpt lat="45.92844" lon="4.7379">
        <ele>173</ele>
        <time>2018-03-08T09:59:15Z</time>
      </trkpt>
      <trkpt lat="45.9285" lon="4.73796">
        <ele>173</ele>
        <time>2018-03-08T09:59:16Z</time>
      </trkpt>
      <trkpt lat="45.92854" lon="4.73802">
        <ele>173</ele>
        <time>2018-03-08T09:59:17Z</time>
      </trkpt>
      <trkpt lat="45.92857" lon="4.7381">
        <ele>173</ele>
        <time>2018-03-08T09:59:18Z</time>
      </trkpt>
      <trkpt lat="45.92859" lon="4.73818">
        <ele>173</ele>
        <time>2018-03-08T09:59:19Z</time>
      </trkpt>
      <trkpt lat="45.92863" lon="4.73826">
        <ele>173</ele>
        <time>2018-03-08T09:59:20Z</time>
      </trkpt>
      <trkpt lat="45.92865" lon="4.73835">
        <ele>173</ele>
        <time>2018-03-08T09:59:21Z</time>
      </trkpt>
      <trkpt lat="45.92867" lon="4.73844">
        <ele>173</ele>
        <time>2018-03-08T09:59:22Z</time>
      </trkpt>
      <trkpt lat="45.92869" lon="4.73852">
        <ele>173</ele>
        <time>2018-03-08T09:59:23Z</time>
      </trkpt>
      <trkpt lat="45.92872" lon="4.73862">
        <ele>173</ele>
        <time>2018-03-08T09:59:24Z</time>
      </trkpt>
      <trkpt lat="45.92874" lon="4.73872">
        <ele>173</ele>
        <time>2018-03-08T09:59:25Z</time>
      </trkpt>
      <trkpt lat="45.92877" lon="4.73881">
        <ele>173</ele>
        <time>2018-03-08T09:59:26Z</time>
      </trkpt>
      <trkpt lat="45.9288" lon="4.73888">
        <ele>173</ele>
        <time>2018-03-08T09:59:27Z</time>
      </trkpt>
      <trkpt lat="45.9288" lon="4.73898">
        <ele>173</ele>
        <time>2018-03-08T09:59:28Z</time>
      </trkpt>
      <trkpt lat="45.92881" lon="4.73907">
        <ele>173</ele>
        <time>2018-03-08T09:59:29Z</time>
      </trkpt>
      <trkpt lat="45.92883" lon="4.73915">
        <ele>173</ele>
        <time>2018-03-08T09:59:30Z</time>
      </trkpt>
      <trkpt lat="45.92882" lon="4.73925">
        <ele>172</ele>
        <time>2018-03-08T09:59:31Z</time>
      </trkpt>
      <trkpt lat="45.92883" lon="4.73933">
        <ele>172</ele>
        <time>2018-03-08T09:59:32Z</time>
      </trkpt>
      <trkpt lat="45.9288" lon="4.73941">
        <ele>172</ele>
        <time>2018-03-08T09:59:33Z</time>
      </trkpt>
      <trkpt lat="45.92881" lon="4.7395">
        <ele>172</ele>
        <time>2018-03-08T09:59:34Z</time>
      </trkpt>
      <trkpt lat="45.92881" lon="4.73958">
        <ele>172</ele>
        <time>2018-03-08T09:59:35Z</time>
      </trkpt>
      <trkpt lat="45.92882" lon="4.73965">
        <ele>172</ele>
        <time>2018-03-08T09:59:36Z</time>
      </trkpt>
      <trkpt lat="45.92882" lon="4.73972">
        <ele>172</ele>
        <time>2018-03-08T09:59:37Z</time>
      </trkpt>
      <trkpt lat="45.92882" lon="4.7398">
        <ele>172</ele>
        <time>2018-03-08T09:59:38Z</time>
      </trkpt>
      <trkpt lat="45.92881" lon="4.73986">
        <ele>172</ele>
        <time>2018-03-08T09:59:39Z</time>
      </trkpt>
      <trkpt lat="45.92879" lon="4.73992">
        <ele>172</ele>
        <time>2018-03-08T09:59:40Z</time>
      </trkpt>
      <trkpt lat="45.92877" lon="4.73998">
        <ele>172</ele>
        <time>2018-03-08T09:59:41Z</time>
      </trkpt>
      <trkpt lat="45.92876" lon="4.74005">
        <ele>172</ele>
        <time>2018-03-08T09:59:42Z</time>
      </trkpt>
      <trkpt lat="45.92875" lon="4.74012">
        <ele>172</ele>
        <time>2018-03-08T09:59:43Z</time>
      </trkpt>
      <trkpt lat="45.92875" lon="4.74019">
        <ele>172</ele>
        <time>2018-03-08T09:59:44Z</time>
      </trkpt>
      <trkpt lat="45.92874" lon="4.74026">
        <ele>172</ele>
        <time>2018-03-08T09:59:45Z</time>
      </trkpt>
      <trkpt lat="45.92872" lon="4.74033">
        <ele>172</ele>
        <time>2018-03-08T09:59:46Z</time>
      </trkpt>
      <trkpt lat="45.9287" lon="4.74039">
        <ele>172</ele>
        <time>2018-03-08T09:59:47Z</time>
      </trkpt>
      <trkpt lat="45.92867" lon="4.74045">
        <ele>172</ele>
        <time>2018-03-08T09:59:48Z</time>
      </trkpt>
      <trkpt lat="45.92862" lon="4.7405">
        <ele>172</ele>
        <time>2018-03-08T09:59:49Z</time>
      </trkpt>
      <trkpt lat="45.92858" lon="4.74055">
        <ele>172</ele>
        <time>2018-03-08T09:59:50Z</time>
      </trkpt>
      <trkpt lat="45.92854" lon="4.7406">
        <ele>172</ele>
        <time>2018-03-08T09:59:51Z</time>
      </trkpt>
      <trkpt lat="45.9285" lon="4.74064">
        <ele>172</ele>
        <time>2018-03-08T09:59:52Z</time>
      </trkpt>
      <trkpt lat="45.92846" lon="4.7407">
        <ele>172</ele>
        <time>2018-03-08T09:59:53Z</time>
      </trkpt>
      <trkpt lat="45.92841" lon="4.74075">
        <ele>172</ele>
        <time>2018-03-08T09:59:54Z</time>
      </trkpt>
      <trkpt lat="45.92837" lon="4.74079">
        <ele>171</ele>
        <time>2018-03-08T09:59:55Z</time>
      </trkpt>
      <trkpt lat="45.92833" lon="4.74084">
        <ele>171</ele>
        <time>2018-03-08T09:59:56Z</time>
      </trkpt>
      <trkpt lat="45.92829" lon="4.74089">
        <ele>171</ele>
        <time>2018-03-08T09:59:57Z</time>
      </trkpt>
      <trkpt lat="45.92824" lon="4.74094">
        <ele>171</ele>
        <time>2018-03-08T09:59:58Z</time>
      </trkpt>
      <trkpt lat="45.92821" lon="4.74099">
        <ele>171</ele>
        <time>2018-03-08T09:59:59Z</time>
      </trkpt>
      <trkpt lat="45.92817" lon="4.74105">
        <ele>172</ele>
        <time>2018-03-08T10:00:00Z</time>
      </trkpt>
      <trkpt lat="45.92812" lon="4.7411">
        <ele>172</ele>
        <time>2018-03-08T10:00:01Z</time>
      </trkpt>
      <trkpt lat="45.92808" lon="4.74114">
        <ele>172</ele>
        <time>2018-03-08T10:00:02Z</time>
      </trkpt>
      <trkpt lat="45.92803" lon="4.74118">
        <ele>172</ele>
        <time>2018-03-08T10:00:03Z</time>
      </trkpt>
      <trkpt lat="45.92798" lon="4.74123">
        <ele>172</ele>
        <time>2018-03-08T10:00:04Z</time>
      </trkpt>
      <trkpt lat="45.92794" lon="4.74127">
        <ele>172</ele>
        <time>2018-03-08T10:00:05Z</time>
      </trkpt>
      <trkpt lat="45.9279" lon="4.74133">
        <ele>172</ele>
        <time>2018-03-08T10:00:06Z</time>
      </trkpt>
      <trkpt lat="45.92786" lon="4.74136">
        <ele>172</ele>
        <time>2018-03-08T10:00:07Z</time>
      </trkpt>
      <trkpt lat="45.92781" lon="4.74141">
        <ele>172</ele>
        <time>2018-03-08T10:00:08Z</time>
      </trkpt>
      <trkpt lat="45.92777" lon="4.74145">
        <ele>172</ele>
        <time>2018-03-08T10:00:09Z</time>
      </trkpt>
      <trkpt lat="45.92773" lon="4.74149">
        <ele>172</ele>
        <time>2018-03-08T10:00:10Z</time>
      </trkpt>
      <trkpt lat="45.92769" lon="4.74154">
        <ele>172</ele>
        <time>2018-03-08T10:00:11Z</time>
      </trkpt>
      <trkpt lat="45.92765" lon="4.74158">
        <ele>172</ele>
        <time>2018-03-08T10:00:12Z</time>
      </trkpt>
      <trkpt lat="45.9276" lon="4.74163">
        <ele>172</ele>
        <time>2018-03-08T10:00:13Z</time>
      </trkpt>
      <trkpt lat="45.92757" lon="4.74168">
        <ele>172</ele>
        <time>2018-03-08T10:00:14Z</time>
      </trkpt>
      <trkpt lat="45.92753" lon="4.74173">
        <ele>172</ele>
        <time>2018-03-08T10:00:15Z</time>
      </trkpt>
      <trkpt lat="45.92749" lon="4.74177">
        <ele>172</ele>
        <time>2018-03-08T10:00:16Z</time>
      </trkpt>
      <trkpt lat="45.92745" lon="4.74182">
        <ele>172</ele>
        <time>2018-03-08T10:00:17Z</time>
      </trkpt>
      <trkpt lat="45.92741" lon="4.74186">
        <ele>172</ele>
        <time>2018-03-08T10:00:18Z</time>
      </trkpt>
      <trkpt lat="45.92739" lon="4.74191">
        <ele>171</ele>
        <time>2018-03-08T10:00:19Z</time>
      </trkpt>
      <trkpt lat="45.92735" lon="4.74196">
        <ele>171</ele>
        <time>2018-03-08T10:00:20Z</time>
      </trkpt>
      <trkpt lat="45.92732" lon="4.742">
        <ele>171</ele>
        <time>2018-03-08T10:00:21Z</time>
      </trkpt>
      <trkpt lat="45.92728" lon="4.74205">
        <ele>171</ele>
        <time>2018-03-08T10:00:22Z</time>
      </trkpt>
      <trkpt lat="45.92725" lon="4.7421">
        <ele>171</ele>
        <time>2018-03-08T10:00:23Z</time>
      </trkpt>
      <trkpt lat="45.92722" lon="4.74215">
        <ele>171</ele>
        <time>2018-03-08T10:00:24Z</time>
      </trkpt>
      <trkpt lat="45.92718" lon="4.7422">
        <ele>171</ele>
        <time>2018-03-08T10:00:25Z</time>
      </trkpt>
      <trkpt lat="45.92716" lon="4.74225">
        <ele>171</ele>
        <time>2018-03-08T10:00:26Z</time>
      </trkpt>
      <trkpt lat="45.92712" lon="4.7423">
        <ele>171</ele>
        <time>2018-03-08T10:00:27Z</time>
      </trkpt>
      <trkpt lat="45.92709" lon="4.74235">
        <ele>171</ele>
        <time>2018-03-08T10:00:28Z</time>
      </trkpt>
      <trkpt lat="45.92705" lon="4.7424">
        <ele>171</ele>
        <time>2018-03-08T10:00:29Z</time>
      </trkpt>
      <trkpt lat="45.92702" lon="4.74245">
        <ele>171</ele>
        <time>2018-03-08T10:00:30Z</time>
      </trkpt>
      <trkpt lat="45.92698" lon="4.7425">
        <ele>171</ele>
        <time>2018-03-08T10:00:31Z</time>
      </trkpt>
      <trkpt lat="45.92694" lon="4.74255">
        <ele>171</ele>
        <time>2018-03-08T10:00:32Z</time>
      </trkpt>
      <trkpt lat="45.92691" lon="4.74261">
        <ele>171</ele>
        <time>2018-03-08T10:00:33Z</time>
      </trkpt>
      <trkpt lat="45.92688" lon="4.74267">
        <ele>171</ele>
        <time>2018-03-08T10:00:34Z</time>
      </trkpt>
      <trkpt lat="45.92685" lon="4.74272">
        <ele>171</ele>
        <time>2018-03-08T10:00:35Z</time>
      </trkpt>
      <trkpt lat="45.92682" lon="4.74277">
        <ele>171</ele>
        <time>2018-03-08T10:00:36Z</time>
      </trkpt>
      <trkpt lat="45.92679" lon="4.74283">
        <ele>171</ele>
        <time>2018-03-08T10:00:37Z</time>
      </trkpt>
      <trkpt lat="45.92676" lon="4.7429">
        <ele>171</ele>
        <time>2018-03-08T10:00:38Z</time>
      </trkpt>
      <trkpt lat="45.92674" lon="4.74295">
        <ele>171</ele>
        <time>2018-03-08T10:00:39Z</time>
      </trkpt>
      <trkpt lat="45.92671" lon="4.74301">
        <ele>171</ele>
        <time>2018-03-08T10:00:40Z</time>
      </trkpt>
      <trkpt lat="45.92667" lon="4.74307">
        <ele>171</ele>
        <time>2018-03-08T10:00:41Z</time>
      </trkpt>
      <trkpt lat="45.92665" lon="4.74313">
        <ele>171</ele>
        <time>2018-03-08T10:00:42Z</time>
      </trkpt>
      <trkpt lat="45.92662" lon="4.74319">
        <ele>171</ele>
        <time>2018-03-08T10:00:43Z</time>
      </trkpt>
      <trkpt lat="45.92659" lon="4.74324">
        <ele>171</ele>
        <time>2018-03-08T10:00:44Z</time>
      </trkpt>
      <trkpt lat="45.92657" lon="4.7433">
        <ele>171</ele>
        <time>2018-03-08T10:00:45Z</time>
      </trkpt>
      <trkpt lat="45.92654" lon="4.74335">
        <ele>171</ele>
        <time>2018-03-08T10:00:46Z</time>
      </trkpt>
      <trkpt lat="45.92651" lon="4.7434">
        <ele>171</ele>
        <time>2018-03-08T10:00:47Z</time>
      </trkpt>
      <trkpt lat="45.92646" lon="4.74345">
        <ele>171</ele>
        <time>2018-03-08T10:00:48Z</time>
      </trkpt>
      <trkpt lat="45.92642" lon="4.74352">
        <ele>171</ele>
        <time>2018-03-08T10:00:49Z</time>
      </trkpt>
      <trkpt lat="45.9264" lon="4.74357">
        <ele>171</ele>
        <time>2018-03-08T10:00:50Z</time>
      </trkpt>
      <trkpt lat="45.92636" lon="4.74363">
        <ele>171</ele>
        <time>2018-03-08T10:00:51Z</time>
      </trkpt>
      <trkpt lat="45.92632" lon="4.7437">
        <ele>171</ele>
        <time>2018-03-08T10:00:52Z</time>
      </trkpt>
      <trkpt lat="45.92628" lon="4.74376">
        <ele>170</ele>
        <time>2018-03-08T10:00:53Z</time>
      </trkpt>
      <trkpt lat="45.92625" lon="4.74382">
        <ele>170</ele>
        <time>2018-03-08T10:00:54Z</time>
      </trkpt>
      <trkpt lat="45.92622" lon="4.74388">
        <ele>170</ele>
        <time>2018-03-08T10:00:55Z</time>
      </trkpt>
      <trkpt lat="45.92619" lon="4.74395">
        <ele>170</ele>
        <time>2018-03-08T10:00:56Z</time>
      </trkpt>
      <trkpt lat="45.92615" lon="4.74401">
        <ele>170</ele>
        <time>2018-03-08T10:00:57Z</time>
      </trkpt>
      <trkpt lat="45.92612" lon="4.74408">
        <ele>170</ele>
        <time>2018-03-08T10:00:58Z</time>
      </trkpt>
      <trkpt lat="45.92609" lon="4.74414">
        <ele>170</ele>
        <time>2018-03-08T10:00:59Z</time>
      </trkpt>
      <trkpt lat="45.92606" lon="4.7442">
        <ele>170</ele>
        <time>2018-03-08T10:01:00Z</time>
      </trkpt>
      <trkpt lat="45.92602" lon="4.74427">
        <ele>170</ele>
        <time>2018-03-08T10:01:01Z</time>
      </trkpt>
      <trkpt lat="45.92599" lon="4.74433">
        <ele>170</ele>
        <time>2018-03-08T10:01:02Z</time>
      </trkpt>
      <trkpt lat="45.92596" lon="4.74439">
        <ele>170</ele>
        <time>2018-03-08T10:01:03Z</time>
      </trkpt>
      <trkpt lat="45.92593" lon="4.74445">
        <ele>170</ele>
        <time>2018-03-08T10:01:04Z</time>
      </trkpt>
      <trkpt lat="45.9259" lon="4.74452">
        <ele>170</ele>
        <time>2018-03-08T10:01:05Z</time>
      </trkpt>
      <trkpt lat="45.92586" lon="4.74457">
        <ele>170</ele>
        <time>2018-03-08T10:01:06Z</time>
      </trkpt>
      <trkpt lat="45.92583" lon="4.74463">
        <ele>170</ele>
        <time>2018-03-08T10:01:07Z</time>
      </trkpt>
      <trkpt lat="45.9258" lon="4.74469">
        <ele>170</ele>
        <time>2018-03-08T10:01:08Z</time>
      </trkpt>
      <trkpt lat="45.92576" lon="4.74475">
        <ele>170</ele>
        <time>2018-03-08T10:01:09Z</time>
      </trkpt>
      <trkpt lat="45.92573" lon="4.7448">
        <ele>170</ele>
        <time>2018-03-08T10:01:10Z</time>
      </trkpt>
      <trkpt lat="45.92569" lon="4.74487">
        <ele>170</ele>
        <time>2018-03-08T10:01:11Z</time>
      </trkpt>
      <trkpt lat="45.92565" lon="4.74492">
        <ele>170</ele>
        <time>2018-03-08T10:01:12Z</time>
      </trkpt>
      <trkpt lat="45.92562" lon="4.74498">
        <ele>170</ele>
        <time>2018-03-08T10:01:13Z</time>
      </trkpt>
      <trkpt lat="45.92558" lon="4.74505">
        <ele>170</ele>
        <time>2018-03-08T10:01:14Z</time>
      </trkpt>
      <trkpt lat="45.92554" lon="4.74511">
        <ele>170</ele>
        <time>2018-03-08T10:01:15Z</time>
      </trkpt>
      <trkpt lat="45.92551" lon="4.74517">
        <ele>170</ele>
        <time>2018-03-08T10:01:16Z</time>
      </trkpt>
      <trkpt lat="45.92547" lon="4.74523">
        <ele>170</ele>
        <time>2018-03-08T10:01:17Z</time>
      </trkpt>
      <trkpt lat="45.92543" lon="4.7453">
        <ele>170</ele>
        <time>2018-03-08T10:01:18Z</time>
      </trkpt>
      <trkpt lat="45.92539" lon="4.74536">
        <ele>171</ele>
        <time>2018-03-08T10:01:19Z</time>
      </trkpt>
      <trkpt lat="45.92535" lon="4.74543">
        <ele>171</ele>
        <time>2018-03-08T10:01:20Z</time>
      </trkpt>
      <trkpt lat="45.92531" lon="4.74548">
        <ele>171</ele>
        <time>2018-03-08T10:01:21Z</time>
      </trkpt>
      <trkpt lat="45.92527" lon="4.74554">
        <ele>171</ele>
        <time>2018-03-08T10:01:22Z</time>
      </trkpt>
      <trkpt lat="45.92524" lon="4.74559">
        <ele>171</ele>
        <time>2018-03-08T10:01:23Z</time>
      </trkpt>
      <trkpt lat="45.92521" lon="4.74564">
        <ele>171</ele>
        <time>2018-03-08T10:01:24Z</time>
      </trkpt>
      <trkpt lat="45.92516" lon="4.74569">
        <ele>171</ele>
        <time>2018-03-08T10:01:25Z</time>
      </trkpt>
      <trkpt lat="45.92512" lon="4.74574">
        <ele>171</ele>
        <time>2018-03-08T10:01:26Z</time>
      </trkpt>
      <trkpt lat="45.92508" lon="4.74579">
        <ele>171</ele>
        <time>2018-03-08T10:01:27Z</time>
      </trkpt>
      <trkpt lat="45.92504" lon="4.74583">
        <ele>171</ele>
        <time>2018-03-08T10:01:28Z</time>
      </trkpt>
      <trkpt lat="45.92499" lon="4.74589">
        <ele>171</ele>
        <time>2018-03-08T10:01:29Z</time>
      </trkpt>
      <trkpt lat="45.92495" lon="4.74594">
        <ele>171</ele>
        <time>2018-03-08T10:01:30Z</time>
      </trkpt>
      <trkpt lat="45.92491" lon="4.74598">
        <ele>171</ele>
        <time>2018-03-08T10:01:31Z</time>
      </trkpt>
      <trkpt lat="45.92487" lon="4.74602">
        <ele>171</ele>
        <time>2018-03-08T10:01:32Z</time>
      </trkpt>
      <trkpt lat="45.92483" lon="4.74608">
        <ele>171</ele>
        <time>2018-03-08T10:01:33Z</time>
      </trkpt>
      <trkpt lat="45.92479" lon="4.74613">
        <ele>171</ele>
        <time>2018-03-08T10:01:34Z</time>
      </trkpt>
      <trkpt lat="45.92476" lon="4.74618">
        <ele>171</ele>
        <time>2018-03-08T10:01:35Z</time>
      </trkpt>
      <trkpt lat="45.92472" lon="4.74624">
        <ele>171</ele>
        <time>2018-03-08T10:01:36Z</time>
      </trkpt>
      <trkpt lat="45.92469" lon="4.7463">
        <ele>171</ele>
        <time>2018-03-08T10:01:37Z</time>
      </trkpt>
      <trkpt lat="45.92466" lon="4.74635">
        <ele>171</ele>
        <time>2018-03-08T10:01:38Z</time>
      </trkpt>
      <trkpt lat="45.92463" lon="4.7464">
        <ele>171</ele>
        <time>2018-03-08T10:01:39Z</time>
      </trkpt>
      <trkpt lat="45.92459" lon="4.74646">
        <ele>171</ele>
        <time>2018-03-08T10:01:40Z</time>
      </trkpt>
      <trkpt lat="45.92456" lon="4.74651">
        <ele>171</ele>
        <time>2018-03-08T10:01:41Z</time>
      </trkpt>
      <trkpt lat="45.92452" lon="4.74657">
        <ele>171</ele>
        <time>2018-03-08T10:01:42Z</time>
      </trkpt>
      <trkpt lat="45.92449" lon="4.74661">
        <ele>171</ele>
        <time>2018-03-08T10:01:43Z</time>
      </trkpt>
      <trkpt lat="45.92446" lon="4.74666">
        <ele>171</ele>
        <time>2018-03-08T10:01:44Z</time>
      </trkpt>
      <trkpt lat="45.92443" lon="4.74673">
        <ele>171</ele>
        <time>2018-03-08T10:01:45Z</time>
      </trkpt>
      <trkpt lat="45.92441" lon="4.74679">
        <ele>171</ele>
        <time>2018-03-08T10:01:46Z</time>
      </trkpt>
      <trkpt lat="45.92438" lon="4.74686">
        <ele>171</ele>
        <time>2018-03-08T10:01:47Z</time>
      </trkpt>
      <trkpt lat="45.92436" lon="4.74692">
        <ele>171</ele>
        <time>2018-03-08T10:01:48Z</time>
      </trkpt>
      <trkpt lat="45.92433" lon="4.74698">
        <ele>171</ele>
        <time>2018-03-08T10:01:49Z</time>
      </trkpt>
      <trkpt lat="45.9243" lon="4.74705">
        <ele>171</ele>
        <time>2018-03-08T10:01:50Z</time>
      </trkpt>
      <trkpt lat="45.92428" lon="4.74714">
        <ele>171</ele>
        <time>2018-03-08T10:01:51Z</time>
      </trkpt>
      <trkpt lat="45.92425" lon="4.74722">
        <ele>171</ele>
        <time>2018-03-08T10:01:52Z</time>
      </trkpt>
      <trkpt lat="45.92422" lon="4.7473">
        <ele>171</ele>
        <time>2018-03-08T10:01:53Z</time>
      </trkpt>
      <trkpt lat="45.9242" lon="4.74737">
        <ele>171</ele>
        <time>2018-03-08T10:01:54Z</time>
      </trkpt>
      <trkpt lat="45.92418" lon="4.74745">
        <ele>172</ele>
        <time>2018-03-08T10:01:55Z</time>
      </trkpt>
      <trkpt lat="45.92416" lon="4.74752">
        <ele>172</ele>
        <time>2018-03-08T10:01:56Z</time>
      </trkpt>
      <trkpt lat="45.92414" lon="4.7476">
        <ele>172</ele>
        <time>2018-03-08T10:01:57Z</time>
      </trkpt>
      <trkpt lat="45.92411" lon="4.74769">
        <ele>172</ele>
        <time>2018-03-08T10:01:58Z</time>
      </trkpt>
      <trkpt lat="45.92409" lon="4.74776">
        <ele>171</ele>
        <time>2018-03-08T10:01:59Z</time>
      </trkpt>
      <trkpt lat="45.92408" lon="4.74785">
        <ele>171</ele>
        <time>2018-03-08T10:02:00Z</time>
      </trkpt>
      <trkpt lat="45.92406" lon="4.74793">
        <ele>171</ele>
        <time>2018-03-08T10:02:01Z</time>
      </trkpt>
      <trkpt lat="45.92405" lon="4.748">
        <ele>171</ele>
        <time>2018-03-08T10:02:02Z</time>
      </trkpt>
      <trkpt lat="45.92403" lon="4.74808">
        <ele>171</ele>
        <time>2018-03-08T10:02:03Z</time>
      </trkpt>
      <trkpt lat="45.92402" lon="4.74817">
        <ele>171</ele>
        <time>2018-03-08T10:02:04Z</time>
      </trkpt>
      <trkpt lat="45.924" lon="4.74825">
        <ele>171</ele>
        <time>2018-03-08T10:02:05Z</time>
      </trkpt>
      <trkpt lat="45.92398" lon="4.74833">
        <ele>171</ele>
        <time>2018-03-08T10:02:06Z</time>
      </trkpt>
      <trkpt lat="45.92395" lon="4.74841">
        <ele>171</ele>
        <time>2018-03-08T10:02:07Z</time>
      </trkpt>
      <trkpt lat="45.92393" lon="4.74849">
        <ele>171</ele>
        <time>2018-03-08T10:02:08Z</time>
      </trkpt>
      <trkpt lat="45.92389" lon="4.74858">
        <ele>171</ele>
        <time>2018-03-08T10:02:09Z</time>
      </trkpt>
      <trkpt lat="45.92387" lon="4.74866">
        <ele>171</ele>
        <time>2018-03-08T10:02:10Z</time>
      </trkpt>
      <trkpt lat="45.92383" lon="4.74874">
        <ele>171</ele>
        <time>2018-03-08T10:02:11Z</time>
      </trkpt>
      <trkpt lat="45.92381" lon="4.74882">
        <ele>171</ele>
        <time>2018-03-08T10:02:12Z</time>
      </trkpt>
      <trkpt lat="45.92379" lon="4.74891">
        <ele>171</ele>
        <time>2018-03-08T10:02:13Z</time>
      </trkpt>
      <trkpt lat="45.92375" lon="4.74899">
        <ele>171</ele>
        <time>2018-03-08T10:02:14Z</time>
      </trkpt>
      <trkpt lat="45.92372" lon="4.74906">
        <ele>171</ele>
        <time>2018-03-08T10:02:15Z</time>
      </trkpt>
      <trkpt lat="45.92369" lon="4.74914">
        <ele>171</ele>
        <time>2018-03-08T10:02:16Z</time>
      </trkpt>
      <trkpt lat="45.92366" lon="4.74923">
        <ele>170</ele>
        <time>2018-03-08T10:02:17Z</time>
      </trkpt>
      <trkpt lat="45.92363" lon="4.74931">
        <ele>170</ele>
        <time>2018-03-08T10:02:18Z</time>
      </trkpt>
      <trkpt lat="45.92361" lon="4.74939">
        <ele>170</ele>
        <time>2018-03-08T10:02:19Z</time>
      </trkpt>
      <trkpt lat="45.92358" lon="4.74947">
        <ele>170</ele>
        <time>2018-03-08T10:02:20Z</time>
      </trkpt>
      <trkpt lat="45.92355" lon="4.74954">
        <ele>170</ele>
        <time>2018-03-08T10:02:21Z</time>
      </trkpt>
      <trkpt lat="45.92351" lon="4.74961">
        <ele>170</ele>
        <time>2018-03-08T10:02:22Z</time>
      </trkpt>
      <trkpt lat="45.92348" lon="4.74969">
        <ele>170</ele>
        <time>2018-03-08T10:02:23Z</time>
      </trkpt>
      <trkpt lat="45.92345" lon="4.74976">
        <ele>170</ele>
        <time>2018-03-08T10:02:24Z</time>
      </trkpt>
      <trkpt lat="45.92342" lon="4.74985">
        <ele>170</ele>
        <time>2018-03-08T10:02:25Z</time>
      </trkpt>
      <trkpt lat="45.92339" lon="4.74991">
        <ele>170</ele>
        <time>2018-03-08T10:02:26Z</time>
      </trkpt>
      <trkpt lat="45.92337" lon="4.74999">
        <ele>170</ele>
        <time>2018-03-08T10:02:27Z</time>
      </trkpt>
      <trkpt lat="45.92334" lon="4.75006">
        <ele>170</ele>
        <time>2018-03-08T10:02:28Z</time>
      </trkpt>
      <trkpt lat="45.92331" lon="4.75013">
        <ele>171</ele>
        <time>2018-03-08T10:02:29Z</time>
      </trkpt>
      <trkpt lat="45.92328" lon="4.7502">
        <ele>171</ele>
        <time>2018-03-08T10:02:30Z</time>
      </trkpt>
      <trkpt lat="45.92325" lon="4.75026">
        <ele>171</ele>
        <time>2018-03-08T10:02:31Z</time>
      </trkpt>
      <trkpt lat="45.92322" lon="4.75033">
        <ele>171</ele>
        <time>2018-03-08T10:02:32Z</time>
      </trkpt>
      <trkpt lat="45.92318" lon="4.75039">
        <ele>172</ele>
        <time>2018-03-08T10:02:33Z</time>
      </trkpt>
      <trkpt lat="45.92314" lon="4.75045">
        <ele>172</ele>
        <time>2018-03-08T10:02:34Z</time>
      </trkpt>
      <trkpt lat="45.92309" lon="4.75051">
        <ele>172</ele>
        <time>2018-03-08T10:02:35Z</time>
      </trkpt>
      <trkpt lat="45.92304" lon="4.75057">
        <ele>172</ele>
        <time>2018-03-08T10:02:36Z</time>
      </trkpt>
      <trkpt lat="45.92299" lon="4.75063">
        <ele>172</ele>
        <time>2018-03-08T10:02:37Z</time>
      </trkpt>
      <trkpt lat="45.92295" lon="4.75068">
        <ele>172</ele>
        <time>2018-03-08T10:02:38Z</time>
      </trkpt>
      <trkpt lat="45.9229" lon="4.75073">
        <ele>172</ele>
        <time>2018-03-08T10:02:39Z</time>
      </trkpt>
      <trkpt lat="45.92286" lon="4.75078">
        <ele>172</ele>
        <time>2018-03-08T10:02:40Z</time>
      </trkpt>
      <trkpt lat="45.92282" lon="4.75082">
        <ele>172</ele>
        <time>2018-03-08T10:02:41Z</time>
      </trkpt>
      <trkpt lat="45.92278" lon="4.75087">
        <ele>173</ele>
        <time>2018-03-08T10:02:42Z</time>
      </trkpt>
      <trkpt lat="45.92274" lon="4.75091">
        <ele>173</ele>
        <time>2018-03-08T10:02:43Z</time>
      </trkpt>
      <trkpt lat="45.92269" lon="4.75096">
        <ele>173</ele>
        <time>2018-03-08T10:02:44Z</time>
      </trkpt>
      <trkpt lat="45.92264" lon="4.751">
        <ele>173</ele>
        <time>2018-03-08T10:02:45Z</time>
      </trkpt>
      <trkpt lat="45.92261" lon="4.75105">
        <ele>173</ele>
        <time>2018-03-08T10:02:46Z</time>
      </trkpt>
      <trkpt lat="45.92257" lon="4.7511">
        <ele>174</ele>
        <time>2018-03-08T10:02:47Z</time>
      </trkpt>
      <trkpt lat="45.92253" lon="4.75114">
        <ele>174</ele>
        <time>2018-03-08T10:02:48Z</time>
      </trkpt>
      <trkpt lat="45.9225" lon="4.75119">
        <ele>174</ele>
        <time>2018-03-08T10:02:49Z</time>
      </trkpt>
      <trkpt lat="45.92245" lon="4.75125">
        <ele>174</ele>
        <time>2018-03-08T10:02:50Z</time>
      </trkpt>
      <trkpt lat="45.92242" lon="4.75129">
        <ele>174</ele>
        <time>2018-03-08T10:02:51Z</time>
      </trkpt>
      <trkpt lat="45.92238" lon="4.75134">
        <ele>174</ele>
        <time>2018-03-08T10:02:52Z</time>
      </trkpt>
      <trkpt lat="45.92235" lon="4.7514">
        <ele>174</ele>
        <time>2018-03-08T10:02:53Z</time>
      </trkpt>
      <trkpt lat="45.92232" lon="4.75147">
        <ele>174</ele>
        <time>2018-03-08T10:02:54Z</time>
      </trkpt>
      <trkpt lat="45.92228" lon="4.75152">
        <ele>174</ele>
        <time>2018-03-08T10:02:55Z</time>
      </trkpt>
      <trkpt lat="45.92225" lon="4.75159">
        <ele>174</ele>
        <time>2018-03-08T10:02:56Z</time>
      </trkpt>
      <trkpt lat="45.92223" lon="4.75165">
        <ele>174</ele>
        <time>2018-03-08T10:02:57Z</time>
      </trkpt>
      <trkpt lat="45.9222" lon="4.75171">
        <ele>175</ele>
        <time>2018-03-08T10:02:58Z</time>
      </trkpt>
      <trkpt lat="45.92217" lon="4.75182">
        <ele>175</ele>
        <time>2018-03-08T10:03:00Z</time>
      </trkpt>
      <trkpt lat="45.92215" lon="4.75189">
        <ele>175</ele>
        <time>2018-03-08T10:03:01Z</time>
      </trkpt>
      <trkpt lat="45.92214" lon="4.75196">
        <ele>175</ele>
        <time>2018-03-08T10:03:02Z</time>
      </trkpt>
      <trkpt lat="45.92212" lon="4.75203">
        <ele>175</ele>
        <time>2018-03-08T10:03:03Z</time>
      </trkpt>
      <trkpt lat="45.92212" lon="4.7521">
        <ele>175</ele>
        <time>2018-03-08T10:03:04Z</time>
      </trkpt>
      <trkpt lat="45.92211" lon="4.75216">
        <ele>175</ele>
        <time>2018-03-08T10:03:05Z</time>
      </trkpt>
      <trkpt lat="45.92211" lon="4.75223">
        <ele>175</ele>
        <time>2018-03-08T10:03:06Z</time>
      </trkpt>
      <trkpt lat="45.92211" lon="4.75229">
        <ele>175</ele>
        <time>2018-03-08T10:03:07Z</time>
      </trkpt>
      <trkpt lat="45.92211" lon="4.75235">
        <ele>175</ele>
        <time>2018-03-08T10:03:08Z</time>
      </trkpt>
      <trkpt lat="45.92212" lon="4.75242">
        <ele>175</ele>
        <time>2018-03-08T10:03:09Z</time>
      </trkpt>
      <trkpt lat="45.92211" lon="4.75249">
        <ele>175</ele>
        <time>2018-03-08T10:03:10Z</time>
      </trkpt>
      <trkpt lat="45.92211" lon="4.75256">
        <ele>175</ele>
        <time>2018-03-08T10:03:11Z</time>
      </trkpt>
      <trkpt lat="45.92211" lon="4.75262">
        <ele>176</ele>
        <time>2018-03-08T10:03:12Z</time>
      </trkpt>
      <trkpt lat="45.92211" lon="4.75269">
        <ele>176</ele>
        <time>2018-03-08T10:03:13Z</time>
      </trkpt>
      <trkpt lat="45.9221" lon="4.75275">
        <ele>176</ele>
        <time>2018-03-08T10:03:14Z</time>
      </trkpt>
      <trkpt lat="45.9221" lon="4.75282">
        <ele>176</ele>
        <time>2018-03-08T10:03:15Z</time>
      </trkpt>
      <trkpt lat="45.9221" lon="4.75294">
        <ele>176</ele>
        <time>2018-03-08T10:03:17Z</time>
      </trkpt>
      <trkpt lat="45.9221" lon="4.75301">
        <ele>176</ele>
        <time>2018-03-08T10:03:18Z</time>
      </trkpt>
      <trkpt lat="45.9221" lon="4.75308">
        <ele>176</ele>
        <time>2018-03-08T10:03:19Z</time>
      </trkpt>
      <trkpt lat="45.92209" lon="4.75314">
        <ele>176</ele>
        <time>2018-03-08T10:03:20Z</time>
      </trkpt>
      <trkpt lat="45.92208" lon="4.75321">
        <ele>176</ele>
        <time>2018-03-08T10:03:21Z</time>
      </trkpt>
      <trkpt lat="45.92208" lon="4.75329">
        <ele>176</ele>
        <time>2018-03-08T10:03:22Z</time>
      </trkpt>
      <trkpt lat="45.92204" lon="4.75341">
        <ele>177</ele>
        <time>2018-03-08T10:03:24Z</time>
      </trkpt>
      <trkpt lat="45.92203" lon="4.75346">
        <ele>177</ele>
        <time>2018-03-08T10:03:25Z</time>
      </trkpt>
      <trkpt lat="45.92199" lon="4.75357">
        <ele>177</ele>
        <time>2018-03-08T10:03:27Z</time>
      </trkpt>
      <trkpt lat="45.92196" lon="4.75362">
        <ele>177</ele>
        <time>2018-03-08T10:03:28Z</time>
      </trkpt>
      <trkpt lat="45.92195" lon="4.75369">
        <ele>177</ele>
        <time>2018-03-08T10:03:29Z</time>
      </trkpt>
      <trkpt lat="45.92192" lon="4.75375">
        <ele>177</ele>
        <time>2018-03-08T10:03:30Z</time>
      </trkpt>
      <trkpt lat="45.9219" lon="4.75381">
        <ele>177</ele>
        <time>2018-03-08T10:03:31Z</time>
      </trkpt>
      <trkpt lat="45.92188" lon="4.75389">
        <ele>177</ele>
        <time>2018-03-08T10:03:32Z</time>
      </trkpt>
      <trkpt lat="45.92185" lon="4.75395">
        <ele>177</ele>
        <time>2018-03-08T10:03:33Z</time>
      </trkpt>
      <trkpt lat="45.92182" lon="4.75401">
        <ele>177</ele>
        <time>2018-03-08T10:03:34Z</time>
      </trkpt>
      <trkpt lat="45.92179" lon="4.75408">
        <ele>177</ele>
        <time>2018-03-08T10:03:35Z</time>
      </trkpt>
      <trkpt lat="45.92177" lon="4.75414">
        <ele>178</ele>
        <time>2018-03-08T10:03:36Z</time>
      </trkpt>
      <trkpt lat="45.92174" lon="4.7542">
        <ele>177</ele>
        <time>2018-03-08T10:03:37Z</time>
      </trkpt>
      <trkpt lat="45.92171" lon="4.75426">
        <ele>177</ele>
        <time>2018-03-08T10:03:38Z</time>
      </trkpt>
      <trkpt lat="45.92169" lon="4.75432">
        <ele>177</ele>
        <time>2018-03-08T10:03:39Z</time>
      </trkpt>
      <trkpt lat="45.92167" lon="4.75439">
        <ele>177</ele>
        <time>2018-03-08T10:03:40Z</time>
      </trkpt>
      <trkpt lat="45.92164" lon="4.75445">
        <ele>177</ele>
        <time>2018-03-08T10:03:41Z</time>
      </trkpt>
      <trkpt lat="45.92162" lon="4.75452">
        <ele>176</ele>
        <time>2018-03-08T10:03:42Z</time>
      </trkpt>
      <trkpt lat="45.9216" lon="4.75458">
        <ele>176</ele>
        <time>2018-03-08T10:03:43Z</time>
      </trkpt>
      <trkpt lat="45.92157" lon="4.75465">
        <ele>176</ele>
        <time>2018-03-08T10:03:44Z</time>
      </trkpt>
      <trkpt lat="45.92153" lon="4.75471">
        <ele>176</ele>
        <time>2018-03-08T10:03:45Z</time>
      </trkpt>
      <trkpt lat="45.92151" lon="4.75477">
        <ele>176</ele>
        <time>2018-03-08T10:03:46Z</time>
      </trkpt>
      <trkpt lat="45.92148" lon="4.75485">
        <ele>176</ele>
        <time>2018-03-08T10:03:47Z</time>
      </trkpt>
      <trkpt lat="45.92145" lon="4.75491">
        <ele>176</ele>
        <time>2018-03-08T10:03:48Z</time>
      </trkpt>
      <trkpt lat="45.92142" lon="4.75497">
        <ele>175</ele>
        <time>2018-03-08T10:03:49Z</time>
      </trkpt>
      <trkpt lat="45.92138" lon="4.75503">
        <ele>174</ele>
        <time>2018-03-08T10:03:50Z</time>
      </trkpt>
      <trkpt lat="45.92135" lon="4.7551">
        <ele>174</ele>
        <time>2018-03-08T10:03:51Z</time>
      </trkpt>
      <trkpt lat="45.92133" lon="4.75517">
        <ele>174</ele>
        <time>2018-03-08T10:03:52Z</time>
      </trkpt>
      <trkpt lat="45.92129" lon="4.75523">
        <ele>174</ele>
        <time>2018-03-08T10:03:53Z</time>
      </trkpt>
      <trkpt lat="45.92126" lon="4.75529">
        <ele>174</ele>
        <time>2018-03-08T10:03:54Z</time>
      </trkpt>
      <trkpt lat="45.92122" lon="4.75537">
        <ele>174</ele>
        <time>2018-03-08T10:03:55Z</time>
      </trkpt>
      <trkpt lat="45.92119" lon="4.75543">
        <ele>174</ele>
        <time>2018-03-08T10:03:56Z</time>
      </trkpt>
      <trkpt lat="45.92117" lon="4.75549">
        <ele>174</ele>
        <time>2018-03-08T10:03:57Z</time>
      </trkpt>
      <trkpt lat="45.92114" lon="4.75556">
        <ele>174</ele>
        <time>2018-03-08T10:03:58Z</time>
      </trkpt>
      <trkpt lat="45.92111" lon="4.75562">
        <ele>174</ele>
        <time>2018-03-08T10:03:59Z</time>
      </trkpt>
      <trkpt lat="45.92108" lon="4.75568">
        <ele>174</ele>
        <time>2018-03-08T10:04:00Z</time>
      </trkpt>
      <trkpt lat="45.92105" lon="4.7558">
        <ele>174</ele>
        <time>2018-03-08T10:04:02Z</time>
      </trkpt>
      <trkpt lat="45.9211" lon="4.75585">
        <ele>174</ele>
        <time>2018-03-08T10:04:03Z</time>
      </trkpt>
      <trkpt lat="45.92114" lon="4.7559">
        <ele>174</ele>
        <time>2018-03-08T10:04:04Z</time>
      </trkpt>
      <trkpt lat="45.92119" lon="4.75592">
        <ele>174</ele>
        <time>2018-03-08T10:04:05Z</time>
      </trkpt>
      <trkpt lat="45.92122" lon="4.75596">
        <ele>174</ele>
        <time>2018-03-08T10:04:06Z</time>
      </trkpt>
      <trkpt lat="45.92126" lon="4.756">
        <ele>174</ele>
        <time>2018-03-08T10:04:07Z</time>
      </trkpt>
      <trkpt lat="45.9213" lon="4.75604">
        <ele>174</ele>
        <time>2018-03-08T10:04:08Z</time>
      </trkpt>
      <trkpt lat="45.92135" lon="4.75609">
        <ele>174</ele>
        <time>2018-03-08T10:04:09Z</time>
      </trkpt>
      <trkpt lat="45.9214" lon="4.75613">
        <ele>174</ele>
        <time>2018-03-08T10:04:10Z</time>
      </trkpt>
      <trkpt lat="45.92145" lon="4.7562">
        <ele>174</ele>
        <time>2018-03-08T10:04:11Z</time>
      </trkpt>
      <trkpt lat="45.92149" lon="4.75623">
        <ele>174</ele>
        <time>2018-03-08T10:04:12Z</time>
      </trkpt>
      <trkpt lat="45.92154" lon="4.75628">
        <ele>174</ele>
        <time>2018-03-08T10:04:13Z</time>
      </trkpt>
      <trkpt lat="45.92159" lon="4.75632">
        <ele>174</ele>
        <time>2018-03-08T10:04:14Z</time>
      </trkpt>
      <trkpt lat="45.92163" lon="4.75637">
        <ele>174</ele>
        <time>2018-03-08T10:04:15Z</time>
      </trkpt>
      <trkpt lat="45.92167" lon="4.75641">
        <ele>174</ele>
        <time>2018-03-08T10:04:16Z</time>
      </trkpt>
      <trkpt lat="45.92172" lon="4.75646">
        <ele>174</ele>
        <time>2018-03-08T10:04:17Z</time>
      </trkpt>
      <trkpt lat="45.92176" lon="4.75651">
        <ele>174</ele>
        <time>2018-03-08T10:04:18Z</time>
      </trkpt>
      <trkpt lat="45.92181" lon="4.75656">
        <ele>174</ele>
        <time>2018-03-08T10:04:19Z</time>
      </trkpt>
      <trkpt lat="45.92185" lon="4.7566">
        <ele>174</ele>
        <time>2018-03-08T10:04:20Z</time>
      </trkpt>
      <trkpt lat="45.9219" lon="4.75666">
        <ele>174</ele>
        <time>2018-03-08T10:04:21Z</time>
      </trkpt>
      <trkpt lat="45.92195" lon="4.7567">
        <ele>174</ele>
        <time>2018-03-08T10:04:22Z</time>
      </trkpt>
      <trkpt lat="45.922" lon="4.75676">
        <ele>174</ele>
        <time>2018-03-08T10:04:23Z</time>
      </trkpt>
      <trkpt lat="45.92203" lon="4.75679">
        <ele>174</ele>
        <time>2018-03-08T10:04:24Z</time>
      </trkpt>
      <trkpt lat="45.92207" lon="4.75682">
        <ele>174</ele>
        <time>2018-03-08T10:04:25Z</time>
      </trkpt>
      <trkpt lat="45.92212" lon="4.75685">
        <ele>174</ele>
        <time>2018-03-08T10:04:26Z</time>
      </trkpt>
      <trkpt lat="45.92217" lon="4.75689">
        <ele>174</ele>
        <time>2018-03-08T10:04:27Z</time>
      </trkpt>
      <trkpt lat="45.92222" lon="4.75693">
        <ele>174</ele>
        <time>2018-03-08T10:04:28Z</time>
      </trkpt>
      <trkpt lat="45.92226" lon="4.75698">
        <ele>174</ele>
        <time>2018-03-08T10:04:29Z</time>
      </trkpt>
      <trkpt lat="45.9223" lon="4.75702">
        <ele>174</ele>
        <time>2018-03-08T10:04:30Z</time>
      </trkpt>
      <trkpt lat="45.92234" lon="4.75707">
        <ele>174</ele>
        <time>2018-03-08T10:04:31Z</time>
      </trkpt>
      <trkpt lat="45.92237" lon="4.75712">
        <ele>174</ele>
        <time>2018-03-08T10:04:32Z</time>
      </trkpt>
      <trkpt lat="45.9224" lon="4.75718">
        <ele>174</ele>
        <time>2018-03-08T10:04:33Z</time>
      </trkpt>
      <trkpt lat="45.92243" lon="4.75725">
        <ele>174</ele>
        <time>2018-03-08T10:04:34Z</time>
      </trkpt>
      <trkpt lat="45.92245" lon="4.75731">
        <ele>174</ele>
        <time>2018-03-08T10:04:35Z</time>
      </trkpt>
      <trkpt lat="45.92247" lon="4.75738">
        <ele>174</ele>
        <time>2018-03-08T10:04:36Z</time>
      </trkpt>
      <trkpt lat="45.92248" lon="4.75744">
        <ele>174</ele>
        <time>2018-03-08T10:04:37Z</time>
      </trkpt>
      <trkpt lat="45.9225" lon="4.75752">
        <ele>174</ele>
        <time>2018-03-08T10:04:38Z</time>
      </trkpt>
      <trkpt lat="45.92251" lon="4.75758">
        <ele>174</ele>
        <time>2018-03-08T10:04:39Z</time>
      </trkpt>
      <trkpt lat="45.92252" lon="4.75766">
        <ele>174</ele>
        <time>2018-03-08T10:04:40Z</time>
      </trkpt>
      <trkpt lat="45.92253" lon="4.75773">
        <ele>174</ele>
        <time>2018-03-08T10:04:41Z</time>
      </trkpt>
      <trkpt lat="45.92255" lon="4.7578">
        <ele>174</ele>
        <time>2018-03-08T10:04:42Z</time>
      </trkpt>
      <trkpt lat="45.92256" lon="4.75786">
        <ele>174</ele>
        <time>2018-03-08T10:04:43Z</time>
      </trkpt>
      <trkpt lat="45.92258" lon="4.75793">
        <ele>174</ele>
        <time>2018-03-08T10:04:44Z</time>
      </trkpt>
      <trkpt lat="45.92259" lon="4.758">
        <ele>174</ele>
        <time>2018-03-08T10:04:45Z</time>
      </trkpt>
      <trkpt lat="45.92261" lon="4.75806">
        <ele>174</ele>
        <time>2018-03-08T10:04:46Z</time>
      </trkpt>
      <trkpt lat="45.92263" lon="4.75813">
        <ele>174</ele>
        <time>2018-03-08T10:04:47Z</time>
      </trkpt>
      <trkpt lat="45.92267" lon="4.75819">
        <ele>174</ele>
        <time>2018-03-08T10:04:48Z</time>
      </trkpt>
      <trkpt lat="45.92271" lon="4.75824">
        <ele>174</ele>
        <time>2018-03-08T10:04:49Z</time>
      </trkpt>
      <trkpt lat="45.92275" lon="4.7583">
        <ele>174</ele>
        <time>2018-03-08T10:04:50Z</time>
      </trkpt>
      <trkpt lat="45.9228" lon="4.75835">
        <ele>173</ele>
        <time>2018-03-08T10:04:51Z</time>
      </trkpt>
      <trkpt lat="45.92286" lon="4.75839">
        <ele>173</ele>
        <time>2018-03-08T10:04:52Z</time>
      </trkpt>
      <trkpt lat="45.92292" lon="4.75843">
        <ele>173</ele>
        <time>2018-03-08T10:04:53Z</time>
      </trkpt>
      <trkpt lat="45.92299" lon="4.75846">
        <ele>173</ele>
        <time>2018-03-08T10:04:54Z</time>
      </trkpt>
      <trkpt lat="45.92305" lon="4.75849">
        <ele>173</ele>
        <time>2018-03-08T10:04:55Z</time>
      </trkpt>
      <trkpt lat="45.92311" lon="4.75853">
        <ele>173</ele>
        <time>2018-03-08T10:04:56Z</time>
      </trkpt>
      <trkpt lat="45.92318" lon="4.75856">
        <ele>173</ele>
        <time>2018-03-08T10:04:57Z</time>
      </trkpt>
      <trkpt lat="45.92323" lon="4.7586">
        <ele>173</ele>
        <time>2018-03-08T10:04:58Z</time>
      </trkpt>
      <trkpt lat="45.92329" lon="4.75865">
        <ele>173</ele>
        <time>2018-03-08T10:04:59Z</time>
      </trkpt>
      <trkpt lat="45.92336" lon="4.75867">
        <ele>173</ele>
        <time>2018-03-08T10:05:00Z</time>
      </trkpt>
      <trkpt lat="45.92342" lon="4.75871">
        <ele>173</ele>
        <time>2018-03-08T10:05:01Z</time>
      </trkpt>
      <trkpt lat="45.92348" lon="4.75875">
        <ele>173</ele>
        <time>2018-03-08T10:05:02Z</time>
      </trkpt>
      <trkpt lat="45.92354" lon="4.75879">
        <ele>173</ele>
        <time>2018-03-08T10:05:03Z</time>
      </trkpt>
      <trkpt lat="45.92361" lon="4.75883">
        <ele>173</ele>
        <time>2018-03-08T10:05:04Z</time>
      </trkpt>
      <trkpt lat="45.92367" lon="4.75887">
        <ele>173</ele>
        <time>2018-03-08T10:05:05Z</time>
      </trkpt>
      <trkpt lat="45.92373" lon="4.7589">
        <ele>173</ele>
        <time>2018-03-08T10:05:06Z</time>
      </trkpt>
      <trkpt lat="45.92378" lon="4.75894">
        <ele>173</ele>
        <time>2018-03-08T10:05:07Z</time>
      </trkpt>
      <trkpt lat="45.92384" lon="4.75897">
        <ele>173</ele>
        <time>2018-03-08T10:05:08Z</time>
      </trkpt>
      <trkpt lat="45.9239" lon="4.75901">
        <ele>173</ele>
        <time>2018-03-08T10:05:09Z</time>
      </trkpt>
      <trkpt lat="45.92395" lon="4.75904">
        <ele>173</ele>
        <time>2018-03-08T10:05:10Z</time>
      </trkpt>
      <trkpt lat="45.924" lon="4.75908">
        <ele>173</ele>
        <time>2018-03-08T10:05:11Z</time>
      </trkpt>
      <trkpt lat="45.92405" lon="4.75911">
        <ele>172</ele>
        <time>2018-03-08T10:05:12Z</time>
      </trkpt>
      <trkpt lat="45.92408" lon="4.75916">
        <ele>172</ele>
        <time>2018-03-08T10:05:13Z</time>
      </trkpt>
      <trkpt lat="45.92412" lon="4.75919">
        <ele>172</ele>
        <time>2018-03-08T10:05:14Z</time>
      </trkpt>
      <trkpt lat="45.92416" lon="4.75922">
        <ele>172</ele>
        <time>2018-03-08T10:05:15Z</time>
      </trkpt>
      <trkpt lat="45.92421" lon="4.75926">
        <ele>172</ele>
        <time>2018-03-08T10:05:16Z</time>
      </trkpt>
      <trkpt lat="45.92425" lon="4.75929">
        <ele>172</ele>
        <time>2018-03-08T10:05:17Z</time>
      </trkpt>
      <trkpt lat="45.9243" lon="4.75934">
        <ele>172</ele>
        <time>2018-03-08T10:05:18Z</time>
      </trkpt>
      <trkpt lat="45.92435" lon="4.75938">
        <ele>172</ele>
        <time>2018-03-08T10:05:19Z</time>
      </trkpt>
      <trkpt lat="45.92439" lon="4.75941">
        <ele>172</ele>
        <time>2018-03-08T10:05:20Z</time>
      </trkpt>
      <trkpt lat="45.92444" lon="4.75945">
        <ele>172</ele>
        <time>2018-03-08T10:05:21Z</time>
      </trkpt>
      <trkpt lat="45.92448" lon="4.75948">
        <ele>172</ele>
        <time>2018-03-08T10:05:22Z</time>
      </trkpt>
      <trkpt lat="45.92452" lon="4.75951">
        <ele>172</ele>
        <time>2018-03-08T10:05:23Z</time>
      </trkpt>
      <trkpt lat="45.92456" lon="4.75954">
        <ele>172</ele>
        <time>2018-03-08T10:05:24Z</time>
      </trkpt>
      <trkpt lat="45.9246" lon="4.75957">
        <ele>172</ele>
        <time>2018-03-08T10:05:25Z</time>
      </trkpt>
      <trkpt lat="45.92464" lon="4.75961">
        <ele>172</ele>
        <time>2018-03-08T10:05:26Z</time>
      </trkpt>
      <trkpt lat="45.92469" lon="4.75963">
        <ele>172</ele>
        <time>2018-03-08T10:05:27Z</time>
      </trkpt>
      <trkpt lat="45.92473" lon="4.75966">
        <ele>172</ele>
        <time>2018-03-08T10:05:28Z</time>
      </trkpt>
      <trkpt lat="45.92477" lon="4.75969">
        <ele>172</ele>
        <time>2018-03-08T10:05:29Z</time>
      </trkpt>
      <trkpt lat="45.92481" lon="4.75973">
        <ele>172</ele>
        <time>2018-03-08T10:05:30Z</time>
      </trkpt>
      <trkpt lat="45.92485" lon="4.75977">
        <ele>172</ele>
        <time>2018-03-08T10:05:31Z</time>
      </trkpt>
      <trkpt lat="45.92489" lon="4.7598">
        <ele>172</ele>
        <time>2018-03-08T10:05:32Z</time>
      </trkpt>
      <trkpt lat="45.92494" lon="4.75983">
        <ele>172</ele>
        <time>2018-03-08T10:05:33Z</time>
      </trkpt>
      <trkpt lat="45.92499" lon="4.75986">
        <ele>172</ele>
        <time>2018-03-08T10:05:34Z</time>
      </trkpt>
      <trkpt lat="45.92503" lon="4.75989">
        <ele>172</ele>
        <time>2018-03-08T10:05:35Z</time>
      </trkpt>
      <trkpt lat="45.92508" lon="4.75993">
        <ele>172</ele>
        <time>2018-03-08T10:05:36Z</time>
      </trkpt>
      <trkpt lat="45.92512" lon="4.75997">
        <ele>172</ele>
        <time>2018-03-08T10:05:37Z</time>
      </trkpt>
      <trkpt lat="45.92516" lon="4.76">
        <ele>172</ele>
        <time>2018-03-08T10:05:38Z</time>
      </trkpt>
      <trkpt lat="45.9252" lon="4.76003">
        <ele>172</ele>
        <time>2018-03-08T10:05:39Z</time>
      </trkpt>
      <trkpt lat="45.92525" lon="4.76006">
        <ele>172</ele>
        <time>2018-03-08T10:05:40Z</time>
      </trkpt>
      <trkpt lat="45.92529" lon="4.76009">
        <ele>172</ele>
        <time>2018-03-08T10:05:41Z</time>
      </trkpt>
      <trkpt lat="45.92534" lon="4.76013">
        <ele>172</ele>
        <time>2018-03-08T10:05:42Z</time>
      </trkpt>
      <trkpt lat="45.92539" lon="4.76016">
        <ele>172</ele>
        <time>2018-03-08T10:05:43Z</time>
      </trkpt>
      <trkpt lat="45.92544" lon="4.76019">
        <ele>172</ele>
        <time>2018-03-08T10:05:44Z</time>
      </trkpt>
      <trkpt lat="45.92549" lon="4.76022">
        <ele>172</ele>
        <time>2018-03-08T10:05:45Z</time>
      </trkpt>
      <trkpt lat="45.92553" lon="4.76025">
        <ele>172</ele>
        <time>2018-03-08T10:05:46Z</time>
      </trkpt>
      <trkpt lat="45.92558" lon="4.76029">
        <ele>172</ele>
        <time>2018-03-08T10:05:47Z</time>
      </trkpt>
      <trkpt lat="45.92563" lon="4.76032">
        <ele>172</ele>
        <time>2018-03-08T10:05:48Z</time>
      </trkpt>
      <trkpt lat="45.92569" lon="4.76036">
        <ele>172</ele>
        <time>2018-03-08T10:05:49Z</time>
      </trkpt>
      <trkpt lat="45.92574" lon="4.76039">
        <ele>172</ele>
        <time>2018-03-08T10:05:50Z</time>
      </trkpt>
      <trkpt lat="45.92579" lon="4.76044">
        <ele>171</ele>
        <time>2018-03-08T10:05:51Z</time>
      </trkpt>
      <trkpt lat="45.92585" lon="4.76047">
        <ele>171</ele>
        <time>2018-03-08T10:05:52Z</time>
      </trkpt>
      <trkpt lat="45.9259" lon="4.76052">
        <ele>171</ele>
        <time>2018-03-08T10:05:53Z</time>
      </trkpt>
      <trkpt lat="45.92595" lon="4.76055">
        <ele>171</ele>
        <time>2018-03-08T10:05:54Z</time>
      </trkpt>
      <trkpt lat="45.926" lon="4.76058">
        <ele>171</ele>
        <time>2018-03-08T10:05:55Z</time>
      </trkpt>
      <trkpt lat="45.92606" lon="4.76062">
        <ele>171</ele>
        <time>2018-03-08T10:05:56Z</time>
      </trkpt>
      <trkpt lat="45.92612" lon="4.76066">
        <ele>171</ele>
        <time>2018-03-08T10:05:57Z</time>
      </trkpt>
      <trkpt lat="45.92617" lon="4.76071">
        <ele>171</ele>
        <time>2018-03-08T10:05:58Z</time>
      </trkpt>
      <trkpt lat="45.92623" lon="4.76075">
        <ele>171</ele>
        <time>2018-03-08T10:05:59Z</time>
      </trkpt>
      <trkpt lat="45.92629" lon="4.76079">
        <ele>170</ele>
        <time>2018-03-08T10:06:00Z</time>
      </trkpt>
      <trkpt lat="45.92635" lon="4.76083">
        <ele>170</ele>
        <time>2018-03-08T10:06:01Z</time>
      </trkpt>
      <trkpt lat="45.92641" lon="4.76087">
        <ele>170</ele>
        <time>2018-03-08T10:06:02Z</time>
      </trkpt>
      <trkpt lat="45.92648" lon="4.76091">
        <ele>170</ele>
        <time>2018-03-08T10:06:03Z</time>
      </trkpt>
      <trkpt lat="45.92654" lon="4.76096">
        <ele>170</ele>
        <time>2018-03-08T10:06:04Z</time>
      </trkpt>
      <trkpt lat="45.92661" lon="4.76101">
        <ele>170</ele>
        <time>2018-03-08T10:06:05Z</time>
      </trkpt>
      <trkpt lat="45.92667" lon="4.76105">
        <ele>169</ele>
        <time>2018-03-08T10:06:06Z</time>
      </trkpt>
      <trkpt lat="45.92674" lon="4.7611">
        <ele>169</ele>
        <time>2018-03-08T10:06:07Z</time>
      </trkpt>
      <trkpt lat="45.92681" lon="4.76115">
        <ele>169</ele>
        <time>2018-03-08T10:06:08Z</time>
      </trkpt>
      <trkpt lat="45.92688" lon="4.76119">
        <ele>169</ele>
        <time>2018-03-08T10:06:09Z</time>
      </trkpt>
      <trkpt lat="45.92694" lon="4.76125">
        <ele>169</ele>
        <time>2018-03-08T10:06:10Z</time>
      </trkpt>
      <trkpt lat="45.92702" lon="4.7613">
        <ele>169</ele>
        <time>2018-03-08T10:06:11Z</time>
      </trkpt>
      <trkpt lat="45.92709" lon="4.76134">
        <ele>168</ele>
        <time>2018-03-08T10:06:12Z</time>
      </trkpt>
      <trkpt lat="45.92716" lon="4.76138">
        <ele>168</ele>
        <time>2018-03-08T10:06:13Z</time>
      </trkpt>
      <trkpt lat="45.92723" lon="4.76144">
        <ele>168</ele>
        <time>2018-03-08T10:06:14Z</time>
      </trkpt>
      <trkpt lat="45.92729" lon="4.76149">
        <ele>168</ele>
        <time>2018-03-08T10:06:15Z</time>
      </trkpt>
      <trkpt lat="45.92737" lon="4.76153">
        <ele>168</ele>
        <time>2018-03-08T10:06:16Z</time>
      </trkpt>
      <trkpt lat="45.92743" lon="4.76159">
        <ele>168</ele>
        <time>2018-03-08T10:06:17Z</time>
      </trkpt>
      <trkpt lat="45.92749" lon="4.76164">
        <ele>167</ele>
        <time>2018-03-08T10:06:18Z</time>
      </trkpt>
      <trkpt lat="45.92754" lon="4.76168">
        <ele>167</ele>
        <time>2018-03-08T10:06:19Z</time>
      </trkpt>
      <trkpt lat="45.92759" lon="4.76172">
        <ele>167</ele>
        <time>2018-03-08T10:06:20Z</time>
      </trkpt>
      <trkpt lat="45.92765" lon="4.76177">
        <ele>167</ele>
        <time>2018-03-08T10:06:21Z</time>
      </trkpt>
      <trkpt lat="45.9277" lon="4.7618">
        <ele>167</ele>
        <time>2018-03-08T10:06:22Z</time>
      </trkpt>
      <trkpt lat="45.92775" lon="4.76185">
        <ele>168</ele>
        <time>2018-03-08T10:06:23Z</time>
      </trkpt>
      <trkpt lat="45.9278" lon="4.76189">
        <ele>168</ele>
        <time>2018-03-08T10:06:24Z</time>
      </trkpt>
      <trkpt lat="45.92785" lon="4.76194">
        <ele>168</ele>
        <time>2018-03-08T10:06:25Z</time>
      </trkpt>
      <trkpt lat="45.9279" lon="4.762">
        <ele>168</ele>
        <time>2018-03-08T10:06:26Z</time>
      </trkpt>
      <trkpt lat="45.92793" lon="4.76205">
        <ele>168</ele>
        <time>2018-03-08T10:06:27Z</time>
      </trkpt>
      <trkpt lat="45.92799" lon="4.76209">
        <ele>168</ele>
        <time>2018-03-08T10:06:28Z</time>
      </trkpt>
      <trkpt lat="45.92804" lon="4.76215">
        <ele>168</ele>
        <time>2018-03-08T10:06:29Z</time>
      </trkpt>
      <trkpt lat="45.9281" lon="4.76219">
        <ele>168</ele>
        <time>2018-03-08T10:06:30Z</time>
      </trkpt>
      <trkpt lat="45.92815" lon="4.76224">
        <ele>168</ele>
        <time>2018-03-08T10:06:31Z</time>
      </trkpt>
      <trkpt lat="45.92821" lon="4.76229">
        <ele>168</ele>
        <time>2018-03-08T10:06:32Z</time>
      </trkpt>
      <trkpt lat="45.92827" lon="4.76234">
        <ele>168</ele>
        <time>2018-03-08T10:06:33Z</time>
      </trkpt>
      <trkpt lat="45.92832" lon="4.76241">
        <ele>169</ele>
        <time>2018-03-08T10:06:34Z</time>
      </trkpt>
      <trkpt lat="45.92837" lon="4.76245">
        <ele>169</ele>
        <time>2018-03-08T10:06:35Z</time>
      </trkpt>
      <trkpt lat="45.92841" lon="4.7625">
        <ele>169</ele>
        <time>2018-03-08T10:06:36Z</time>
      </trkpt>
      <trkpt lat="45.92846" lon="4.76255">
        <ele>169</ele>
        <time>2018-03-08T10:06:37Z</time>
      </trkpt>
      <trkpt lat="45.92851" lon="4.76261">
        <ele>169</ele>
        <time>2018-03-08T10:06:38Z</time>
      </trkpt>
      <trkpt lat="45.92855" lon="4.76265">
        <ele>169</ele>
        <time>2018-03-08T10:06:39Z</time>
      </trkpt>
      <trkpt lat="45.9286" lon="4.7627">
        <ele>169</ele>
        <time>2018-03-08T10:06:40Z</time>
      </trkpt>
      <trkpt lat="45.92865" lon="4.76275">
        <ele>169</ele>
        <time>2018-03-08T10:06:41Z</time>
      </trkpt>
      <trkpt lat="45.9287" lon="4.76279">
        <ele>169</ele>
        <time>2018-03-08T10:06:42Z</time>
      </trkpt>
      <trkpt lat="45.92875" lon="4.76284">
        <ele>169</ele>
        <time>2018-03-08T10:06:43Z</time>
      </trkpt>
      <trkpt lat="45.9288" lon="4.7629">
        <ele>169</ele>
        <time>2018-03-08T10:06:44Z</time>
      </trkpt>
      <trkpt lat="45.92885" lon="4.76295">
        <ele>169</ele>
        <time>2018-03-08T10:06:45Z</time>
      </trkpt>
      <trkpt lat="45.92891" lon="4.763">
        <ele>169</ele>
        <time>2018-03-08T10:06:46Z</time>
      </trkpt>
      <trkpt lat="45.92896" lon="4.76304">
        <ele>169</ele>
        <time>2018-03-08T10:06:47Z</time>
      </trkpt>
      <trkpt lat="45.92901" lon="4.7631">
        <ele>169</ele>
        <time>2018-03-08T10:06:48Z</time>
      </trkpt>
      <trkpt lat="45.92905" lon="4.76316">
        <ele>169</ele>
        <time>2018-03-08T10:06:49Z</time>
      </trkpt>
      <trkpt lat="45.9291" lon="4.76321">
        <ele>169</ele>
        <time>2018-03-08T10:06:50Z</time>
      </trkpt>
      <trkpt lat="45.92916" lon="4.76326">
        <ele>169</ele>
        <time>2018-03-08T10:06:51Z</time>
      </trkpt>
      <trkpt lat="45.92921" lon="4.76331">
        <ele>169</ele>
        <time>2018-03-08T10:06:52Z</time>
      </trkpt>
      <trkpt lat="45.92926" lon="4.76336">
        <ele>169</ele>
        <time>2018-03-08T10:06:53Z</time>
      </trkpt>
      <trkpt lat="45.92932" lon="4.76341">
        <ele>169</ele>
        <time>2018-03-08T10:06:54Z</time>
      </trkpt>
      <trkpt lat="45.92936" lon="4.76347">
        <ele>169</ele>
        <time>2018-03-08T10:06:55Z</time>
      </trkpt>
      <trkpt lat="45.92942" lon="4.76351">
        <ele>169</ele>
        <time>2018-03-08T10:06:56Z</time>
      </trkpt>
      <trkpt lat="45.92947" lon="4.76356">
        <ele>169</ele>
        <time>2018-03-08T10:06:57Z</time>
      </trkpt>
      <trkpt lat="45.92952" lon="4.76361">
        <ele>169</ele>
        <time>2018-03-08T10:06:58Z</time>
      </trkpt>
      <trkpt lat="45.92957" lon="4.76368">
        <ele>169</ele>
        <time>2018-03-08T10:06:59Z</time>
      </trkpt>
      <trkpt lat="45.92962" lon="4.76372">
        <ele>169</ele>
        <time>2018-03-08T10:07:00Z</time>
      </trkpt>
      <trkpt lat="45.92967" lon="4.76377">
        <ele>169</ele>
        <time>2018-03-08T10:07:01Z</time>
      </trkpt>
      <trkpt lat="45.92972" lon="4.76383">
        <ele>169</ele>
        <time>2018-03-08T10:07:02Z</time>
      </trkpt>
      <trkpt lat="45.92977" lon="4.76386">
        <ele>169</ele>
        <time>2018-03-08T10:07:03Z</time>
      </trkpt>
      <trkpt lat="45.92984" lon="4.76388">
        <ele>169</ele>
        <time>2018-03-08T10:07:04Z</time>
      </trkpt>
      <trkpt lat="45.92988" lon="4.76393">
        <ele>169</ele>
        <time>2018-03-08T10:07:05Z</time>
      </trkpt>
      <trkpt lat="45.92993" lon="4.76397">
        <ele>169</ele>
        <time>2018-03-08T10:07:06Z</time>
      </trkpt>
      <trkpt lat="45.92999" lon="4.76402">
        <ele>169</ele>
        <time>2018-03-08T10:07:07Z</time>
      </trkpt>
      <trkpt lat="45.93004" lon="4.76407">
        <ele>169</ele>
        <time>2018-03-08T10:07:08Z</time>
      </trkpt>
      <trkpt lat="45.93008" lon="4.76412">
        <ele>169</ele>
        <time>2018-03-08T10:07:09Z</time>
      </trkpt>
      <trkpt lat="45.93013" lon="4.76417">
        <ele>169</ele>
        <time>2018-03-08T10:07:10Z</time>
      </trkpt>
      <trkpt lat="45.93018" lon="4.76421">
        <ele>169</ele>
        <time>2018-03-08T10:07:11Z</time>
      </trkpt>
      <trkpt lat="45.93022" lon="4.76426">
        <ele>169</ele>
        <time>2018-03-08T10:07:12Z</time>
      </trkpt>
      <trkpt lat="45.93026" lon="4.76431">
        <ele>169</ele>
        <time>2018-03-08T10:07:13Z</time>
      </trkpt>
      <trkpt lat="45.93031" lon="4.76437">
        <ele>169</ele>
        <time>2018-03-08T10:07:14Z</time>
      </trkpt>
      <trkpt lat="45.93036" lon="4.76441">
        <ele>169</ele>
        <time>2018-03-08T10:07:15Z</time>
      </trkpt>
      <trkpt lat="45.93041" lon="4.76446">
        <ele>169</ele>
        <time>2018-03-08T10:07:16Z</time>
      </trkpt>
      <trkpt lat="45.93045" lon="4.7645">
        <ele>169</ele>
        <time>2018-03-08T10:07:17Z</time>
      </trkpt>
      <trkpt lat="45.9305" lon="4.76455">
        <ele>169</ele>
        <time>2018-03-08T10:07:18Z</time>
      </trkpt>
      <trkpt lat="45.93055" lon="4.7646">
        <ele>169</ele>
        <time>2018-03-08T10:07:19Z</time>
      </trkpt>
      <trkpt lat="45.93061" lon="4.76465">
        <ele>169</ele>
        <time>2018-03-08T10:07:20Z</time>
      </trkpt>
      <trkpt lat="45.93065" lon="4.7647">
        <ele>169</ele>
        <time>2018-03-08T10:07:21Z</time>
      </trkpt>
      <trkpt lat="45.9307" lon="4.76475">
        <ele>169</ele>
        <time>2018-03-08T10:07:22Z</time>
      </trkpt>
      <trkpt lat="45.93076" lon="4.7648">
        <ele>169</ele>
        <time>2018-03-08T10:07:23Z</time>
      </trkpt>
      <trkpt lat="45.93081" lon="4.76486">
        <ele>170</ele>
        <time>2018-03-08T10:07:24Z</time>
      </trkpt>
      <trkpt lat="45.93086" lon="4.76491">
        <ele>170</ele>
        <time>2018-03-08T10:07:25Z</time>
      </trkpt>
      <trkpt lat="45.93091" lon="4.76496">
        <ele>170</ele>
        <time>2018-03-08T10:07:26Z</time>
      </trkpt>
      <trkpt lat="45.93096" lon="4.76501">
        <ele>170</ele>
        <time>2018-03-08T10:07:27Z</time>
      </trkpt>
      <trkpt lat="45.93101" lon="4.76506">
        <ele>170</ele>
        <time>2018-03-08T10:07:28Z</time>
      </trkpt>
      <trkpt lat="45.93106" lon="4.76512">
        <ele>170</ele>
        <time>2018-03-08T10:07:29Z</time>
      </trkpt>
      <trkpt lat="45.9311" lon="4.76517">
        <ele>170</ele>
        <time>2018-03-08T10:07:30Z</time>
      </trkpt>
      <trkpt lat="45.93115" lon="4.76522">
        <ele>170</ele>
        <time>2018-03-08T10:07:31Z</time>
      </trkpt>
      <trkpt lat="45.9312" lon="4.76527">
        <ele>170</ele>
        <time>2018-03-08T10:07:32Z</time>
      </trkpt>
      <trkpt lat="45.93124" lon="4.76531">
        <ele>170</ele>
        <time>2018-03-08T10:07:33Z</time>
      </trkpt>
      <trkpt lat="45.93129" lon="4.76536">
        <ele>170</ele>
        <time>2018-03-08T10:07:34Z</time>
      </trkpt>
      <trkpt lat="45.93135" lon="4.7654">
        <ele>170</ele>
        <time>2018-03-08T10:07:35Z</time>
      </trkpt>
      <trkpt lat="45.9314" lon="4.76545">
        <ele>170</ele>
        <time>2018-03-08T10:07:36Z</time>
      </trkpt>
      <trkpt lat="45.93145" lon="4.7655">
        <ele>170</ele>
        <time>2018-03-08T10:07:37Z</time>
      </trkpt>
      <trkpt lat="45.93151" lon="4.76557">
        <ele>170</ele>
        <time>2018-03-08T10:07:39Z</time>
      </trkpt>
      <trkpt lat="45.93157" lon="4.76562">
        <ele>170</ele>
        <time>2018-03-08T10:07:40Z</time>
      </trkpt>
      <trkpt lat="45.93161" lon="4.76566">
        <ele>170</ele>
        <time>2018-03-08T10:07:41Z</time>
      </trkpt>
      <trkpt lat="45.93165" lon="4.76571">
        <ele>170</ele>
        <time>2018-03-08T10:07:42Z</time>
      </trkpt>
      <trkpt lat="45.93168" lon="4.76576">
        <ele>170</ele>
        <time>2018-03-08T10:07:43Z</time>
      </trkpt>
      <trkpt lat="45.93173" lon="4.76582">
        <ele>171</ele>
        <time>2018-03-08T10:07:44Z</time>
      </trkpt>
      <trkpt lat="45.93177" lon="4.76587">
        <ele>171</ele>
        <time>2018-03-08T10:07:45Z</time>
      </trkpt>
      <trkpt lat="45.93182" lon="4.76591">
        <ele>171</ele>
        <time>2018-03-08T10:07:46Z</time>
      </trkpt>
      <trkpt lat="45.93188" lon="4.76596">
        <ele>171</ele>
        <time>2018-03-08T10:07:47Z</time>
      </trkpt>
      <trkpt lat="45.93192" lon="4.766">
        <ele>170</ele>
        <time>2018-03-08T10:07:48Z</time>
      </trkpt>
      <trkpt lat="45.93196" lon="4.76604">
        <ele>170</ele>
        <time>2018-03-08T10:07:49Z</time>
      </trkpt>
      <trkpt lat="45.93201" lon="4.76608">
        <ele>170</ele>
        <time>2018-03-08T10:07:50Z</time>
      </trkpt>
      <trkpt lat="45.93206" lon="4.76612">
        <ele>170</ele>
        <time>2018-03-08T10:07:51Z</time>
      </trkpt>
      <trkpt lat="45.9321" lon="4.76617">
        <ele>170</ele>
        <time>2018-03-08T10:07:52Z</time>
      </trkpt>
      <trkpt lat="45.93215" lon="4.76621">
        <ele>170</ele>
        <time>2018-03-08T10:07:53Z</time>
      </trkpt>
      <trkpt lat="45.93221" lon="4.76625">
        <ele>170</ele>
        <time>2018-03-08T10:07:54Z</time>
      </trkpt>
      <trkpt lat="45.93225" lon="4.7663">
        <ele>170</ele>
        <time>2018-03-08T10:07:55Z</time>
      </trkpt>
      <trkpt lat="45.93231" lon="4.76635">
        <ele>171</ele>
        <time>2018-03-08T10:07:56Z</time>
      </trkpt>
      <trkpt lat="45.93235" lon="4.7664">
        <ele>171</ele>
        <time>2018-03-08T10:07:57Z</time>
      </trkpt>
      <trkpt lat="45.9324" lon="4.76644">
        <ele>171</ele>
        <time>2018-03-08T10:07:58Z</time>
      </trkpt>
      <trkpt lat="45.93244" lon="4.76648">
        <ele>171</ele>
        <time>2018-03-08T10:07:59Z</time>
      </trkpt>
      <trkpt lat="45.93249" lon="4.76654">
        <ele>171</ele>
        <time>2018-03-08T10:08:00Z</time>
      </trkpt>
      <trkpt lat="45.93254" lon="4.76658">
        <ele>171</ele>
        <time>2018-03-08T10:08:01Z</time>
      </trkpt>
      <trkpt lat="45.93259" lon="4.76662">
        <ele>171</ele>
        <time>2018-03-08T10:08:02Z</time>
      </trkpt>
      <trkpt lat="45.93264" lon="4.76667">
        <ele>172</ele>
        <time>2018-03-08T10:08:03Z</time>
      </trkpt>
      <trkpt lat="45.9327" lon="4.76672">
        <ele>172</ele>
        <time>2018-03-08T10:08:04Z</time>
      </trkpt>
      <trkpt lat="45.93274" lon="4.76676">
        <ele>172</ele>
        <time>2018-03-08T10:08:05Z</time>
      </trkpt>
      <trkpt lat="45.93279" lon="4.76681">
        <ele>172</ele>
        <time>2018-03-08T10:08:06Z</time>
      </trkpt>
      <trkpt lat="45.93284" lon="4.76686">
        <ele>172</ele>
        <time>2018-03-08T10:08:07Z</time>
      </trkpt>
      <trkpt lat="45.93288" lon="4.76691">
        <ele>172</ele>
        <time>2018-03-08T10:08:08Z</time>
      </trkpt>
      <trkpt lat="45.93293" lon="4.76696">
        <ele>172</ele>
        <time>2018-03-08T10:08:09Z</time>
      </trkpt>
      <trkpt lat="45.93299" lon="4.76701">
        <ele>172</ele>
        <time>2018-03-08T10:08:10Z</time>
      </trkpt>
      <trkpt lat="45.93304" lon="4.76707">
        <ele>172</ele>
        <time>2018-03-08T10:08:11Z</time>
      </trkpt>
      <trkpt lat="45.9331" lon="4.76714">
        <ele>172</ele>
        <time>2018-03-08T10:08:12Z</time>
      </trkpt>
      <trkpt lat="45.93314" lon="4.76718">
        <ele>172</ele>
        <time>2018-03-08T10:08:13Z</time>
      </trkpt>
      <trkpt lat="45.9332" lon="4.76722">
        <ele>172</ele>
        <time>2018-03-08T10:08:14Z</time>
      </trkpt>
      <trkpt lat="45.93326" lon="4.76728">
        <ele>172</ele>
        <time>2018-03-08T10:08:15Z</time>
      </trkpt>
      <trkpt lat="45.93331" lon="4.76733">
        <ele>172</ele>
        <time>2018-03-08T10:08:16Z</time>
      </trkpt>
      <trkpt lat="45.93335" lon="4.76738">
        <ele>172</ele>
        <time>2018-03-08T10:08:17Z</time>
      </trkpt>
      <trkpt lat="45.9334" lon="4.76743">
        <ele>173</ele>
        <time>2018-03-08T10:08:18Z</time>
      </trkpt>
      <trkpt lat="45.93344" lon="4.76748">
        <ele>173</ele>
        <time>2018-03-08T10:08:19Z</time>
      </trkpt>
      <trkpt lat="45.93352" lon="4.76755">
        <ele>172</ele>
        <time>2018-03-08T10:08:20Z</time>
      </trkpt>
      <trkpt lat="45.93358" lon="4.76759">
        <ele>172</ele>
        <time>2018-03-08T10:08:21Z</time>
      </trkpt>
      <trkpt lat="45.93363" lon="4.76764">
        <ele>172</ele>
        <time>2018-03-08T10:08:22Z</time>
      </trkpt>
      <trkpt lat="45.93368" lon="4.7677">
        <ele>172</ele>
        <time>2018-03-08T10:08:23Z</time>
      </trkpt>
      <trkpt lat="45.93372" lon="4.76775">
        <ele>172</ele>
        <time>2018-03-08T10:08:24Z</time>
      </trkpt>
      <trkpt lat="45.93376" lon="4.7678">
        <ele>172</ele>
        <time>2018-03-08T10:08:25Z</time>
      </trkpt>
      <trkpt lat="45.93381" lon="4.76785">
        <ele>172</ele>
        <time>2018-03-08T10:08:26Z</time>
      </trkpt>
      <trkpt lat="45.93385" lon="4.76789">
        <ele>172</ele>
        <time>2018-03-08T10:08:27Z</time>
      </trkpt>
      <trkpt lat="45.9339" lon="4.76794">
        <ele>172</ele>
        <time>2018-03-08T10:08:28Z</time>
      </trkpt>
      <trkpt lat="45.93394" lon="4.768">
        <ele>172</ele>
        <time>2018-03-08T10:08:29Z</time>
      </trkpt>
      <trkpt lat="45.93399" lon="4.76805">
        <ele>172</ele>
        <time>2018-03-08T10:08:30Z</time>
      </trkpt>
      <trkpt lat="45.93402" lon="4.76811">
        <ele>172</ele>
        <time>2018-03-08T10:08:31Z</time>
      </trkpt>
      <trkpt lat="45.93407" lon="4.76816">
        <ele>172</ele>
        <time>2018-03-08T10:08:32Z</time>
      </trkpt>
      <trkpt lat="45.93411" lon="4.76821">
        <ele>172</ele>
        <time>2018-03-08T10:08:33Z</time>
      </trkpt>
      <trkpt lat="45.93414" lon="4.76827">
        <ele>172</ele>
        <time>2018-03-08T10:08:34Z</time>
      </trkpt>
      <trkpt lat="45.93417" lon="4.76834">
        <ele>172</ele>
        <time>2018-03-08T10:08:35Z</time>
      </trkpt>
      <trkpt lat="45.93421" lon="4.76841">
        <ele>171</ele>
        <time>2018-03-08T10:08:36Z</time>
      </trkpt>
      <trkpt lat="45.93424" lon="4.76848">
        <ele>171</ele>
        <time>2018-03-08T10:08:37Z</time>
      </trkpt>
      <trkpt lat="45.93426" lon="4.76855">
        <ele>171</ele>
        <time>2018-03-08T10:08:38Z</time>
      </trkpt>
      <trkpt lat="45.93429" lon="4.76862">
        <ele>171</ele>
        <time>2018-03-08T10:08:39Z</time>
      </trkpt>
      <trkpt lat="45.93432" lon="4.76868">
        <ele>171</ele>
        <time>2018-03-08T10:08:40Z</time>
      </trkpt>
      <trkpt lat="45.93435" lon="4.76875">
        <ele>171</ele>
        <time>2018-03-08T10:08:41Z</time>
      </trkpt>
      <trkpt lat="45.93437" lon="4.76882">
        <ele>171</ele>
        <time>2018-03-08T10:08:42Z</time>
      </trkpt>
      <trkpt lat="45.9344" lon="4.7689">
        <ele>170</ele>
        <time>2018-03-08T10:08:43Z</time>
      </trkpt>
      <trkpt lat="45.93442" lon="4.76897">
        <ele>170</ele>
        <time>2018-03-08T10:08:44Z</time>
      </trkpt>
      <trkpt lat="45.93445" lon="4.76904">
        <ele>170</ele>
        <time>2018-03-08T10:08:45Z</time>
      </trkpt>
      <trkpt lat="45.93446" lon="4.76912">
        <ele>170</ele>
        <time>2018-03-08T10:08:46Z</time>
      </trkpt>
      <trkpt lat="45.93448" lon="4.7692">
        <ele>170</ele>
        <time>2018-03-08T10:08:47Z</time>
      </trkpt>
      <trkpt lat="45.93449" lon="4.76928">
        <ele>170</ele>
        <time>2018-03-08T10:08:48Z</time>
      </trkpt>
      <trkpt lat="45.9345" lon="4.76936">
        <ele>170</ele>
        <time>2018-03-08T10:08:49Z</time>
      </trkpt>
      <trkpt lat="45.93452" lon="4.76944">
        <ele>170</ele>
        <time>2018-03-08T10:08:50Z</time>
      </trkpt>
      <trkpt lat="45.93452" lon="4.76953">
        <ele>170</ele>
        <time>2018-03-08T10:08:51Z</time>
      </trkpt>
      <trkpt lat="45.93453" lon="4.76961">
        <ele>170</ele>
        <time>2018-03-08T10:08:52Z</time>
      </trkpt>
      <trkpt lat="45.93455" lon="4.76969">
        <ele>170</ele>
        <time>2018-03-08T10:08:53Z</time>
      </trkpt>
      <trkpt lat="45.93457" lon="4.76977">
        <ele>170</ele>
        <time>2018-03-08T10:08:54Z</time>
      </trkpt>
      <trkpt lat="45.93458" lon="4.76986">
        <ele>170</ele>
        <time>2018-03-08T10:08:55Z</time>
      </trkpt>
      <trkpt lat="45.93459" lon="4.76994">
        <ele>170</ele>
        <time>2018-03-08T10:08:56Z</time>
      </trkpt>
      <trkpt lat="45.93461" lon="4.77002">
        <ele>170</ele>
        <time>2018-03-08T10:08:57Z</time>
      </trkpt>
      <trkpt lat="45.93463" lon="4.77011">
        <ele>170</ele>
        <time>2018-03-08T10:08:58Z</time>
      </trkpt>
      <trkpt lat="45.93465" lon="4.77018">
        <ele>170</ele>
        <time>2018-03-08T10:08:59Z</time>
      </trkpt>
      <trkpt lat="45.93465" lon="4.77026">
        <ele>170</ele>
        <time>2018-03-08T10:09:00Z</time>
      </trkpt>
      <trkpt lat="45.93467" lon="4.77034">
        <ele>170</ele>
        <time>2018-03-08T10:09:01Z</time>
      </trkpt>
      <trkpt lat="45.93468" lon="4.77042">
        <ele>170</ele>
        <time>2018-03-08T10:09:02Z</time>
      </trkpt>
      <trkpt lat="45.9347" lon="4.77051">
        <ele>170</ele>
        <time>2018-03-08T10:09:03Z</time>
      </trkpt>
      <trkpt lat="45.93472" lon="4.77059">
        <ele>170</ele>
        <time>2018-03-08T10:09:04Z</time>
      </trkpt>
      <trkpt lat="45.93473" lon="4.77066">
        <ele>170</ele>
        <time>2018-03-08T10:09:05Z</time>
      </trkpt>
      <trkpt lat="45.93474" lon="4.77074">
        <ele>170</ele>
        <time>2018-03-08T10:09:06Z</time>
      </trkpt>
      <trkpt lat="45.93476" lon="4.77081">
        <ele>170</ele>
        <time>2018-03-08T10:09:07Z</time>
      </trkpt>
      <trkpt lat="45.93477" lon="4.77088">
        <ele>169</ele>
        <time>2018-03-08T10:09:08Z</time>
      </trkpt>
      <trkpt lat="45.93479" lon="4.77094">
        <ele>169</ele>
        <time>2018-03-08T10:09:09Z</time>
      </trkpt>
      <trkpt lat="45.93481" lon="4.77101">
        <ele>169</ele>
        <time>2018-03-08T10:09:10Z</time>
      </trkpt>
      <trkpt lat="45.93482" lon="4.77109">
        <ele>169</ele>
        <time>2018-03-08T10:09:11Z</time>
      </trkpt>
      <trkpt lat="45.93484" lon="4.77116">
        <ele>169</ele>
        <time>2018-03-08T10:09:12Z</time>
      </trkpt>
      <trkpt lat="45.93485" lon="4.77123">
        <ele>169</ele>
        <time>2018-03-08T10:09:13Z</time>
      </trkpt>
      <trkpt lat="45.93486" lon="4.77131">
        <ele>169</ele>
        <time>2018-03-08T10:09:14Z</time>
      </trkpt>
      <trkpt lat="45.93487" lon="4.77137">
        <ele>169</ele>
        <time>2018-03-08T10:09:15Z</time>
      </trkpt>
      <trkpt lat="45.93488" lon="4.77144">
        <ele>169</ele>
        <time>2018-03-08T10:09:16Z</time>
      </trkpt>
      <trkpt lat="45.93489" lon="4.77151">
        <ele>169</ele>
        <time>2018-03-08T10:09:17Z</time>
      </trkpt>
      <trkpt lat="45.9349" lon="4.77158">
        <ele>169</ele>
        <time>2018-03-08T10:09:18Z</time>
      </trkpt>
      <trkpt lat="45.93492" lon="4.77163">
        <ele>169</ele>
        <time>2018-03-08T10:09:19Z</time>
      </trkpt>
      <trkpt lat="45.93493" lon="4.77171">
        <ele>169</ele>
        <time>2018-03-08T10:09:20Z</time>
      </trkpt>
      <trkpt lat="45.93495" lon="4.77178">
        <ele>169</ele>
        <time>2018-03-08T10:09:21Z</time>
      </trkpt>
      <trkpt lat="45.93496" lon="4.77186">
        <ele>169</ele>
        <time>2018-03-08T10:09:22Z</time>
      </trkpt>
      <trkpt lat="45.93498" lon="4.77193">
        <ele>169</ele>
        <time>2018-03-08T10:09:23Z</time>
      </trkpt>
      <trkpt lat="45.935" lon="4.772">
        <ele>169</ele>
        <time>2018-03-08T10:09:24Z</time>
      </trkpt>
      <trkpt lat="45.93501" lon="4.77208">
        <ele>169</ele>
        <time>2018-03-08T10:09:25Z</time>
      </trkpt>
      <trkpt lat="45.93503" lon="4.77216">
        <ele>169</ele>
        <time>2018-03-08T10:09:26Z</time>
      </trkpt>
      <trkpt lat="45.93505" lon="4.77223">
        <ele>169</ele>
        <time>2018-03-08T10:09:27Z</time>
      </trkpt>
      <trkpt lat="45.93507" lon="4.77231">
        <ele>169</ele>
        <time>2018-03-08T10:09:28Z</time>
      </trkpt>
      <trkpt lat="45.93508" lon="4.77239">
        <ele>169</ele>
        <time>2018-03-08T10:09:29Z</time>
      </trkpt>
      <trkpt lat="45.9351" lon="4.77246">
        <ele>169</ele>
        <time>2018-03-08T10:09:30Z</time>
      </trkpt>
      <trkpt lat="45.93513" lon="4.77253">
        <ele>170</ele>
        <time>2018-03-08T10:09:31Z</time>
      </trkpt>
      <trkpt lat="45.93514" lon="4.7726">
        <ele>170</ele>
        <time>2018-03-08T10:09:32Z</time>
      </trkpt>
      <trkpt lat="45.93516" lon="4.77267">
        <ele>170</ele>
        <time>2018-03-08T10:09:33Z</time>
      </trkpt>
      <trkpt lat="45.93517" lon="4.77275">
        <ele>170</ele>
        <time>2018-03-08T10:09:34Z</time>
      </trkpt>
      <trkpt lat="45.93518" lon="4.77282">
        <ele>170</ele>
        <time>2018-03-08T10:09:35Z</time>
      </trkpt>
      <trkpt lat="45.9352" lon="4.7729">
        <ele>170</ele>
        <time>2018-03-08T10:09:36Z</time>
      </trkpt>
      <trkpt lat="45.93521" lon="4.77297">
        <ele>170</ele>
        <time>2018-03-08T10:09:37Z</time>
      </trkpt>
      <trkpt lat="45.93521" lon="4.77305">
        <ele>170</ele>
        <time>2018-03-08T10:09:38Z</time>
      </trkpt>
      <trkpt lat="45.93523" lon="4.77312">
        <ele>170</ele>
        <time>2018-03-08T10:09:39Z</time>
      </trkpt>
      <trkpt lat="45.93524" lon="4.77319">
        <ele>170</ele>
        <time>2018-03-08T10:09:40Z</time>
      </trkpt>
      <trkpt lat="45.93525" lon="4.77327">
        <ele>170</ele>
        <time>2018-03-08T10:09:41Z</time>
      </trkpt>
      <trkpt lat="45.93527" lon="4.77334">
        <ele>170</ele>
        <time>2018-03-08T10:09:42Z</time>
      </trkpt>
      <trkpt lat="45.93528" lon="4.77342">
        <ele>170</ele>
        <time>2018-03-08T10:09:43Z</time>
      </trkpt>
      <trkpt lat="45.9353" lon="4.77349">
        <ele>170</ele>
        <time>2018-03-08T10:09:44Z</time>
      </trkpt>
      <trkpt lat="45.93531" lon="4.77356">
        <ele>170</ele>
        <time>2018-03-08T10:09:45Z</time>
      </trkpt>
      <trkpt lat="45.93533" lon="4.77363">
        <ele>170</ele>
        <time>2018-03-08T10:09:46Z</time>
      </trkpt>
      <trkpt lat="45.93535" lon="4.77371">
        <ele>170</ele>
        <time>2018-03-08T10:09:47Z</time>
      </trkpt>
      <trkpt lat="45.93537" lon="4.77378">
        <ele>170</ele>
        <time>2018-03-08T10:09:48Z</time>
      </trkpt>
      <trkpt lat="45.9354" lon="4.77385">
        <ele>170</ele>
        <time>2018-03-08T10:09:49Z</time>
      </trkpt>
      <trkpt lat="45.93541" lon="4.77392">
        <ele>170</ele>
        <time>2018-03-08T10:09:50Z</time>
      </trkpt>
      <trkpt lat="45.93542" lon="4.77399">
        <ele>170</ele>
        <time>2018-03-08T10:09:51Z</time>
      </trkpt>
      <trkpt lat="45.93543" lon="4.77406">
        <ele>170</ele>
        <time>2018-03-08T10:09:52Z</time>
      </trkpt>
      <trkpt lat="45.93544" lon="4.77413">
        <ele>170</ele>
        <time>2018-03-08T10:09:53Z</time>
      </trkpt>
      <trkpt lat="45.93546" lon="4.77421">
        <ele>170</ele>
        <time>2018-03-08T10:09:54Z</time>
      </trkpt>
      <trkpt lat="45.93547" lon="4.77428">
        <ele>170</ele>
        <time>2018-03-08T10:09:55Z</time>
      </trkpt>
      <trkpt lat="45.93549" lon="4.77436">
        <ele>169</ele>
        <time>2018-03-08T10:09:56Z</time>
      </trkpt>
      <trkpt lat="45.93549" lon="4.77442">
        <ele>169</ele>
        <time>2018-03-08T10:09:57Z</time>
      </trkpt>
      <trkpt lat="45.93551" lon="4.77448">
        <ele>169</ele>
        <time>2018-03-08T10:09:58Z</time>
      </trkpt>
      <trkpt lat="45.93553" lon="4.77455">
        <ele>169</ele>
        <time>2018-03-08T10:09:59Z</time>
      </trkpt>
      <trkpt lat="45.93555" lon="4.77463">
        <ele>169</ele>
        <time>2018-03-08T10:10:00Z</time>
      </trkpt>
      <trkpt lat="45.93557" lon="4.77469">
        <ele>169</ele>
        <time>2018-03-08T10:10:01Z</time>
      </trkpt>
      <trkpt lat="45.93559" lon="4.77475">
        <ele>169</ele>
        <time>2018-03-08T10:10:02Z</time>
      </trkpt>
      <trkpt lat="45.9356" lon="4.77482">
        <ele>169</ele>
        <time>2018-03-08T10:10:03Z</time>
      </trkpt>
      <trkpt lat="45.93561" lon="4.7749">
        <ele>169</ele>
        <time>2018-03-08T10:10:04Z</time>
      </trkpt>
      <trkpt lat="45.93563" lon="4.77497">
        <ele>169</ele>
        <time>2018-03-08T10:10:05Z</time>
      </trkpt>
      <trkpt lat="45.93564" lon="4.77504">
        <ele>169</ele>
        <time>2018-03-08T10:10:06Z</time>
      </trkpt>
      <trkpt lat="45.93566" lon="4.77511">
        <ele>169</ele>
        <time>2018-03-08T10:10:07Z</time>
      </trkpt>
      <trkpt lat="45.93568" lon="4.77518">
        <ele>169</ele>
        <time>2018-03-08T10:10:08Z</time>
      </trkpt>
      <trkpt lat="45.93569" lon="4.77526">
        <ele>169</ele>
        <time>2018-03-08T10:10:09Z</time>
      </trkpt>
      <trkpt lat="45.93571" lon="4.77534">
        <ele>169</ele>
        <time>2018-03-08T10:10:10Z</time>
      </trkpt>
      <trkpt lat="45.93574" lon="4.77541">
        <ele>169</ele>
        <time>2018-03-08T10:10:11Z</time>
      </trkpt>
      <trkpt lat="45.93576" lon="4.77548">
        <ele>169</ele>
        <time>2018-03-08T10:10:12Z</time>
      </trkpt>
      <trkpt lat="45.93579" lon="4.77555">
        <ele>169</ele>
        <time>2018-03-08T10:10:13Z</time>
      </trkpt>
      <trkpt lat="45.9358" lon="4.77563">
        <ele>169</ele>
        <time>2018-03-08T10:10:14Z</time>
      </trkpt>
      <trkpt lat="45.93582" lon="4.77571">
        <ele>170</ele>
        <time>2018-03-08T10:10:15Z</time>
      </trkpt>
      <trkpt lat="45.93584" lon="4.77578">
        <ele>170</ele>
        <time>2018-03-08T10:10:16Z</time>
      </trkpt>
      <trkpt lat="45.93587" lon="4.77585">
        <ele>170</ele>
        <time>2018-03-08T10:10:17Z</time>
      </trkpt>
      <trkpt lat="45.93589" lon="4.77592">
        <ele>170</ele>
        <time>2018-03-08T10:10:18Z</time>
      </trkpt>
      <trkpt lat="45.93592" lon="4.77599">
        <ele>170</ele>
        <time>2018-03-08T10:10:19Z</time>
      </trkpt>
      <trkpt lat="45.93594" lon="4.77607">
        <ele>170</ele>
        <time>2018-03-08T10:10:20Z</time>
      </trkpt>
      <trkpt lat="45.93596" lon="4.77615">
        <ele>170</ele>
        <time>2018-03-08T10:10:21Z</time>
      </trkpt>
      <trkpt lat="45.93599" lon="4.77622">
        <ele>170</ele>
        <time>2018-03-08T10:10:22Z</time>
      </trkpt>
      <trkpt lat="45.93602" lon="4.77629">
        <ele>169</ele>
        <time>2018-03-08T10:10:23Z</time>
      </trkpt>
      <trkpt lat="45.93605" lon="4.77635">
        <ele>169</ele>
        <time>2018-03-08T10:10:24Z</time>
      </trkpt>
      <trkpt lat="45.93609" lon="4.77643">
        <ele>169</ele>
        <time>2018-03-08T10:10:25Z</time>
      </trkpt>
      <trkpt lat="45.93611" lon="4.77651">
        <ele>169</ele>
        <time>2018-03-08T10:10:26Z</time>
      </trkpt>
      <trkpt lat="45.93614" lon="4.77658">
        <ele>169</ele>
        <time>2018-03-08T10:10:27Z</time>
      </trkpt>
      <trkpt lat="45.93617" lon="4.77665">
        <ele>169</ele>
        <time>2018-03-08T10:10:28Z</time>
      </trkpt>
      <trkpt lat="45.93619" lon="4.77672">
        <ele>169</ele>
        <time>2018-03-08T10:10:29Z</time>
      </trkpt>
      <trkpt lat="45.93622" lon="4.77679">
        <ele>169</ele>
        <time>2018-03-08T10:10:30Z</time>
      </trkpt>
      <trkpt lat="45.93625" lon="4.77685">
        <ele>169</ele>
        <time>2018-03-08T10:10:31Z</time>
      </trkpt>
      <trkpt lat="45.93628" lon="4.7769">
        <ele>169</ele>
        <time>2018-03-08T10:10:32Z</time>
      </trkpt>
      <trkpt lat="45.93632" lon="4.77696">
        <ele>169</ele>
        <time>2018-03-08T10:10:33Z</time>
      </trkpt>
      <trkpt lat="45.93635" lon="4.77702">
        <ele>170</ele>
        <time>2018-03-08T10:10:34Z</time>
      </trkpt>
      <trkpt lat="45.93638" lon="4.77708">
        <ele>170</ele>
        <time>2018-03-08T10:10:35Z</time>
      </trkpt>
      <trkpt lat="45.93641" lon="4.77712">
        <ele>170</ele>
        <time>2018-03-08T10:10:36Z</time>
      </trkpt>
      <trkpt lat="45.93645" lon="4.77722">
        <ele>170</ele>
        <time>2018-03-08T10:10:38Z</time>
      </trkpt>
      <trkpt lat="45.93648" lon="4.77728">
        <ele>170</ele>
        <time>2018-03-08T10:10:39Z</time>
      </trkpt>
      <trkpt lat="45.93652" lon="4.77737">
        <ele>170</ele>
        <time>2018-03-08T10:10:41Z</time>
      </trkpt>
      <trkpt lat="45.93656" lon="4.7774">
        <ele>170</ele>
        <time>2018-03-08T10:10:42Z</time>
      </trkpt>
      <trkpt lat="45.9366" lon="4.77745">
        <ele>171</ele>
        <time>2018-03-08T10:10:44Z</time>
      </trkpt>
      <trkpt lat="45.93663" lon="4.77751">
        <ele>171</ele>
        <time>2018-03-08T10:10:45Z</time>
      </trkpt>
      <trkpt lat="45.93669" lon="4.7776">
        <ele>170</ele>
        <time>2018-03-08T10:10:48Z</time>
      </trkpt>
      <trkpt lat="45.9367" lon="4.77762">
        <ele>170</ele>
        <time>2018-03-08T10:10:49Z</time>
      </trkpt>
      <trkpt lat="45.93675" lon="4.7777">
        <ele>170</ele>
        <time>2018-03-08T10:10:50Z</time>
      </trkpt>
      <trkpt lat="45.93676" lon="4.77772">
        <ele>170</ele>
        <time>2018-03-08T10:10:51Z</time>
      </trkpt>
      <trkpt lat="45.93681" lon="4.7778">
        <ele>170</ele>
        <time>2018-03-08T10:10:54Z</time>
      </trkpt>
      <trkpt lat="45.93683" lon="4.77783">
        <ele>170</ele>
        <time>2018-03-08T10:10:55Z</time>
      </trkpt>
      <trkpt lat="45.9369" lon="4.77791">
        <ele>170</ele>
        <time>2018-03-08T10:10:56Z</time>
      </trkpt>
      <trkpt lat="45.93692" lon="4.77795">
        <ele>169</ele>
        <time>2018-03-08T10:10:57Z</time>
      </trkpt>
      <trkpt lat="45.93698" lon="4.77802">
        <ele>169</ele>
        <time>2018-03-08T10:11:00Z</time>
      </trkpt>
      <trkpt lat="45.937" lon="4.77805">
        <ele>169</ele>
        <time>2018-03-08T10:11:01Z</time>
      </trkpt>
      <trkpt lat="45.93703" lon="4.77807">
        <ele>169</ele>
        <time>2018-03-08T10:11:02Z</time>
      </trkpt>
      <trkpt lat="45.93708" lon="4.77814">
        <ele>169</ele>
        <time>2018-03-08T10:11:03Z</time>
      </trkpt>
      <trkpt lat="45.93714" lon="4.77822">
        <ele>169</ele>
        <time>2018-03-08T10:11:06Z</time>
      </trkpt>
      <trkpt lat="45.93716" lon="4.77825">
        <ele>169</ele>
        <time>2018-03-08T10:11:07Z</time>
      </trkpt>
      <trkpt lat="45.9372" lon="4.77831">
        <ele>168</ele>
        <time>2018-03-08T10:11:09Z</time>
      </trkpt>
      <trkpt lat="45.93723" lon="4.77834">
        <ele>167</ele>
        <time>2018-03-08T10:11:10Z</time>
      </trkpt>
      <trkpt lat="45.93725" lon="4.77837">
        <ele>167</ele>
        <time>2018-03-08T10:11:11Z</time>
      </trkpt>
      <trkpt lat="45.93731" lon="4.77845">
        <ele>167</ele>
        <time>2018-03-08T10:11:12Z</time>
      </trkpt>
      <trkpt lat="45.93736" lon="4.77853">
        <ele>167</ele>
        <time>2018-03-08T10:11:14Z</time>
      </trkpt>
      <trkpt lat="45.93739" lon="4.77857">
        <ele>167</ele>
        <time>2018-03-08T10:11:15Z</time>
      </trkpt>
      <trkpt lat="45.93745" lon="4.77864">
        <ele>167</ele>
        <time>2018-03-08T10:11:17Z</time>
      </trkpt>
      <trkpt lat="45.93748" lon="4.77868">
        <ele>167</ele>
        <time>2018-03-08T10:11:18Z</time>
      </trkpt>
      <trkpt lat="45.93754" lon="4.77876">
        <ele>166</ele>
        <time>2018-03-08T10:11:20Z</time>
      </trkpt>
      <trkpt lat="45.93757" lon="4.77881">
        <ele>166</ele>
        <time>2018-03-08T10:11:21Z</time>
      </trkpt>
      <trkpt lat="45.93764" lon="4.77889">
        <ele>166</ele>
        <time>2018-03-08T10:11:23Z</time>
      </trkpt>
      <trkpt lat="45.93767" lon="4.77893">
        <ele>166</ele>
        <time>2018-03-08T10:11:24Z</time>
      </trkpt>
      <trkpt lat="45.93771" lon="4.77898">
        <ele>166</ele>
        <time>2018-03-08T10:11:25Z</time>
      </trkpt>
      <trkpt lat="45.93774" lon="4.77902">
        <ele>166</ele>
        <time>2018-03-08T10:11:26Z</time>
      </trkpt>
      <trkpt lat="45.93777" lon="4.77907">
        <ele>166</ele>
        <time>2018-03-08T10:11:27Z</time>
      </trkpt>
      <trkpt lat="45.93781" lon="4.77911">
        <ele>166</ele>
        <time>2018-03-08T10:11:28Z</time>
      </trkpt>
      <trkpt lat="45.93785" lon="4.77915">
        <ele>166</ele>
        <time>2018-03-08T10:11:29Z</time>
      </trkpt>
      <trkpt lat="45.93788" lon="4.7792">
        <ele>168</ele>
        <time>2018-03-08T10:11:30Z</time>
      </trkpt>
      <trkpt lat="45.93792" lon="4.77924">
        <ele>168</ele>
        <time>2018-03-08T10:11:31Z</time>
      </trkpt>
      <trkpt lat="45.93796" lon="4.77929">
        <ele>168</ele>
        <time>2018-03-08T10:11:32Z</time>
      </trkpt>
      <trkpt lat="45.93799" lon="4.77934">
        <ele>168</ele>
        <time>2018-03-08T10:11:33Z</time>
      </trkpt>
      <trkpt lat="45.93803" lon="4.77938">
        <ele>169</ele>
        <time>2018-03-08T10:11:34Z</time>
      </trkpt>
      <trkpt lat="45.93806" lon="4.77943">
        <ele>169</ele>
        <time>2018-03-08T10:11:35Z</time>
      </trkpt>
      <trkpt lat="45.9381" lon="4.77948">
        <ele>169</ele>
        <time>2018-03-08T10:11:36Z</time>
      </trkpt>
      <trkpt lat="45.93814" lon="4.77954">
        <ele>170</ele>
        <time>2018-03-08T10:11:37Z</time>
      </trkpt>
      <trkpt lat="45.93818" lon="4.7796">
        <ele>170</ele>
        <time>2018-03-08T10:11:38Z</time>
      </trkpt>
      <trkpt lat="45.93822" lon="4.77965">
        <ele>171</ele>
        <time>2018-03-08T10:11:39Z</time>
      </trkpt>
      <trkpt lat="45.93826" lon="4.77969">
        <ele>172</ele>
        <time>2018-03-08T10:11:40Z</time>
      </trkpt>
      <trkpt lat="45.93831" lon="4.77976">
        <ele>173</ele>
        <time>2018-03-08T10:11:43Z</time>
      </trkpt>
      <trkpt lat="45.93832" lon="4.77977">
        <ele>173</ele>
        <time>2018-03-08T10:11:44Z</time>
      </trkpt>
      <trkpt lat="45.93838" lon="4.77987">
        <ele>179</ele>
        <time>2018-03-08T10:11:51Z</time>
      </trkpt>
      <trkpt lat="45.93839" lon="4.77989">
        <ele>179</ele>
        <time>2018-03-08T10:11:52Z</time>
      </trkpt>
      <trkpt lat="45.93841" lon="4.77998">
        <ele>179</ele>
        <time>2018-03-08T10:11:55Z</time>
      </trkpt>
      <trkpt lat="45.93841" lon="4.7801">
        <ele>181</ele>
        <time>2018-03-08T10:11:56Z</time>
      </trkpt>
      <trkpt lat="45.93841" lon="4.78023">
        <ele>182</ele>
        <time>2018-03-08T10:11:58Z</time>
      </trkpt>
      <trkpt lat="45.93843" lon="4.78029">
        <ele>182</ele>
        <time>2018-03-08T10:11:59Z</time>
      </trkpt>
      <trkpt lat="45.93847" lon="4.78039">
        <ele>182</ele>
        <time>2018-03-08T10:12:01Z</time>
      </trkpt>
      <trkpt lat="45.93848" lon="4.78045">
        <ele>183</ele>
        <time>2018-03-08T10:12:02Z</time>
      </trkpt>
      <trkpt lat="45.93848" lon="4.78056">
        <ele>182</ele>
        <time>2018-03-08T10:12:05Z</time>
      </trkpt>
      <trkpt lat="45.93847" lon="4.78059">
        <ele>182</ele>
        <time>2018-03-08T10:12:06Z</time>
      </trkpt>
      <trkpt lat="45.93845" lon="4.78067">
        <ele>182</ele>
        <time>2018-03-08T10:12:08Z</time>
      </trkpt>
      <trkpt lat="45.93842" lon="4.78078">
        <ele>181</ele>
        <time>2018-03-08T10:12:09Z</time>
      </trkpt>
      <trkpt lat="45.9384" lon="4.78089">
        <ele>182</ele>
        <time>2018-03-08T10:12:11Z</time>
      </trkpt>
      <trkpt lat="45.93839" lon="4.78095">
        <ele>183</ele>
        <time>2018-03-08T10:12:12Z</time>
      </trkpt>
      <trkpt lat="45.93838" lon="4.78102">
        <ele>183</ele>
        <time>2018-03-08T10:12:13Z</time>
      </trkpt>
      <trkpt lat="45.93837" lon="4.78108">
        <ele>184</ele>
        <time>2018-03-08T10:12:14Z</time>
      </trkpt>
      <trkpt lat="45.93833" lon="4.7812">
        <ele>180</ele>
        <time>2018-03-08T10:12:16Z</time>
      </trkpt>
      <trkpt lat="45.93832" lon="4.78126">
        <ele>180</ele>
        <time>2018-03-08T10:12:17Z</time>
      </trkpt>
      <trkpt lat="45.9383" lon="4.78132">
        <ele>180</ele>
        <time>2018-03-08T10:12:18Z</time>
      </trkpt>
      <trkpt lat="45.93829" lon="4.78139">
        <ele>180</ele>
        <time>2018-03-08T10:12:19Z</time>
      </trkpt>
      <trkpt lat="45.93827" lon="4.78144">
        <ele>180</ele>
        <time>2018-03-08T10:12:20Z</time>
      </trkpt>
      <trkpt lat="45.93826" lon="4.78151">
        <ele>180</ele>
        <time>2018-03-08T10:12:21Z</time>
      </trkpt>
      <trkpt lat="45.93823" lon="4.78163">
        <ele>181</ele>
        <time>2018-03-08T10:12:23Z</time>
      </trkpt>
      <trkpt lat="45.93821" lon="4.78168">
        <ele>182</ele>
        <time>2018-03-08T10:12:24Z</time>
      </trkpt>
      <trkpt lat="45.9382" lon="4.78174">
        <ele>182</ele>
        <time>2018-03-08T10:12:25Z</time>
      </trkpt>
      <trkpt lat="45.93818" lon="4.78181">
        <ele>182</ele>
        <time>2018-03-08T10:12:26Z</time>
      </trkpt>
      <trkpt lat="45.93816" lon="4.78187">
        <ele>182</ele>
        <time>2018-03-08T10:12:27Z</time>
      </trkpt>
      <trkpt lat="45.93815" lon="4.78194">
        <ele>182</ele>
        <time>2018-03-08T10:12:28Z</time>
      </trkpt>
      <trkpt lat="45.93812" lon="4.78205">
        <ele>182</ele>
        <time>2018-03-08T10:12:30Z</time>
      </trkpt>
      <trkpt lat="45.9381" lon="4.7821">
        <ele>182</ele>
        <time>2018-03-08T10:12:31Z</time>
      </trkpt>
      <trkpt lat="45.93807" lon="4.78221">
        <ele>182</ele>
        <time>2018-03-08T10:12:33Z</time>
      </trkpt>
      <trkpt lat="45.93805" lon="4.78226">
        <ele>182</ele>
        <time>2018-03-08T10:12:34Z</time>
      </trkpt>
      <trkpt lat="45.93802" lon="4.78231">
        <ele>182</ele>
        <time>2018-03-08T10:12:35Z</time>
      </trkpt>
      <trkpt lat="45.93798" lon="4.78237">
        <ele>182</ele>
        <time>2018-03-08T10:12:36Z</time>
      </trkpt>
      <trkpt lat="45.93794" lon="4.78247">
        <ele>182</ele>
        <time>2018-03-08T10:12:38Z</time>
      </trkpt>
      <trkpt lat="45.93792" lon="4.78253">
        <ele>183</ele>
        <time>2018-03-08T10:12:39Z</time>
      </trkpt>
      <trkpt lat="45.93792" lon="4.78261">
        <ele>183</ele>
        <time>2018-03-08T10:12:40Z</time>
      </trkpt>
      <trkpt lat="45.93791" lon="4.78268">
        <ele>183</ele>
        <time>2018-03-08T10:12:41Z</time>
      </trkpt>
      <trkpt lat="45.9379" lon="4.78276">
        <ele>183</ele>
        <time>2018-03-08T10:12:42Z</time>
      </trkpt>
      <trkpt lat="45.93788" lon="4.78282">
        <ele>183</ele>
        <time>2018-03-08T10:12:43Z</time>
      </trkpt>
      <trkpt lat="45.93786" lon="4.78289">
        <ele>183</ele>
        <time>2018-03-08T10:12:44Z</time>
      </trkpt>
      <trkpt lat="45.93784" lon="4.78295">
        <ele>183</ele>
        <time>2018-03-08T10:12:45Z</time>
      </trkpt>
      <trkpt lat="45.93781" lon="4.78303">
        <ele>183</ele>
        <time>2018-03-08T10:12:46Z</time>
      </trkpt>
      <trkpt lat="45.9378" lon="4.78312">
        <ele>183</ele>
        <time>2018-03-08T10:12:47Z</time>
      </trkpt>
      <trkpt lat="45.93777" lon="4.7832">
        <ele>183</ele>
        <time>2018-03-08T10:12:48Z</time>
      </trkpt>
      <trkpt lat="45.93775" lon="4.78326">
        <ele>183</ele>
        <time>2018-03-08T10:12:49Z</time>
      </trkpt>
      <trkpt lat="45.93773" lon="4.78335">
        <ele>183</ele>
        <time>2018-03-08T10:12:50Z</time>
      </trkpt>
      <trkpt lat="45.93772" lon="4.78342">
        <ele>183</ele>
        <time>2018-03-08T10:12:51Z</time>
      </trkpt>
      <trkpt lat="45.93769" lon="4.78349">
        <ele>183</ele>
        <time>2018-03-08T10:12:52Z</time>
      </trkpt>
      <trkpt lat="45.93767" lon="4.78357">
        <ele>183</ele>
        <time>2018-03-08T10:12:53Z</time>
      </trkpt>
      <trkpt lat="45.93765" lon="4.78363">
        <ele>183</ele>
        <time>2018-03-08T10:12:54Z</time>
      </trkpt>
      <trkpt lat="45.93764" lon="4.7837">
        <ele>183</ele>
        <time>2018-03-08T10:12:55Z</time>
      </trkpt>
      <trkpt lat="45.93762" lon="4.78377">
        <ele>183</ele>
        <time>2018-03-08T10:12:56Z</time>
      </trkpt>
      <trkpt lat="45.9376" lon="4.78383">
        <ele>183</ele>
        <time>2018-03-08T10:12:57Z</time>
      </trkpt>
      <trkpt lat="45.93759" lon="4.78389">
        <ele>183</ele>
        <time>2018-03-08T10:12:58Z</time>
      </trkpt>
      <trkpt lat="45.93757" lon="4.78395">
        <ele>183</ele>
        <time>2018-03-08T10:12:59Z</time>
      </trkpt>
      <trkpt lat="45.93756" lon="4.78401">
        <ele>182</ele>
        <time>2018-03-08T10:13:00Z</time>
      </trkpt>
      <trkpt lat="45.93753" lon="4.78408">
        <ele>182</ele>
        <time>2018-03-08T10:13:01Z</time>
      </trkpt>
      <trkpt lat="45.93752" lon="4.78415">
        <ele>181</ele>
        <time>2018-03-08T10:13:02Z</time>
      </trkpt>
      <trkpt lat="45.9375" lon="4.78423">
        <ele>181</ele>
        <time>2018-03-08T10:13:03Z</time>
      </trkpt>
      <trkpt lat="45.93748" lon="4.78429">
        <ele>180</ele>
        <time>2018-03-08T10:13:04Z</time>
      </trkpt>
      <trkpt lat="45.93747" lon="4.78438">
        <ele>180</ele>
        <time>2018-03-08T10:13:05Z</time>
      </trkpt>
      <trkpt lat="45.93746" lon="4.78447">
        <ele>180</ele>
        <time>2018-03-08T10:13:06Z</time>
      </trkpt>
      <trkpt lat="45.93744" lon="4.78454">
        <ele>180</ele>
        <time>2018-03-08T10:13:07Z</time>
      </trkpt>
      <trkpt lat="45.93742" lon="4.78461">
        <ele>180</ele>
        <time>2018-03-08T10:13:08Z</time>
      </trkpt>
      <trkpt lat="45.93741" lon="4.78469">
        <ele>180</ele>
        <time>2018-03-08T10:13:09Z</time>
      </trkpt>
      <trkpt lat="45.93739" lon="4.78476">
        <ele>180</ele>
        <time>2018-03-08T10:13:10Z</time>
      </trkpt>
      <trkpt lat="45.93736" lon="4.78484">
        <ele>180</ele>
        <time>2018-03-08T10:13:11Z</time>
      </trkpt>
      <trkpt lat="45.93734" lon="4.78493">
        <ele>180</ele>
        <time>2018-03-08T10:13:12Z</time>
      </trkpt>
      <trkpt lat="45.93732" lon="4.78501">
        <ele>179</ele>
        <time>2018-03-08T10:13:13Z</time>
      </trkpt>
      <trkpt lat="45.93729" lon="4.78509">
        <ele>179</ele>
        <time>2018-03-08T10:13:14Z</time>
      </trkpt>
      <trkpt lat="45.93728" lon="4.78517">
        <ele>179</ele>
        <time>2018-03-08T10:13:15Z</time>
      </trkpt>
      <trkpt lat="45.93725" lon="4.78524">
        <ele>179</ele>
        <time>2018-03-08T10:13:16Z</time>
      </trkpt>
      <trkpt lat="45.93724" lon="4.78531">
        <ele>178</ele>
        <time>2018-03-08T10:13:17Z</time>
      </trkpt>
      <trkpt lat="45.93721" lon="4.7854">
        <ele>178</ele>
        <time>2018-03-08T10:13:18Z</time>
      </trkpt>
      <trkpt lat="45.93719" lon="4.78547">
        <ele>178</ele>
        <time>2018-03-08T10:13:19Z</time>
      </trkpt>
      <trkpt lat="45.93718" lon="4.78555">
        <ele>178</ele>
        <time>2018-03-08T10:13:20Z</time>
      </trkpt>
      <trkpt lat="45.93716" lon="4.78563">
        <ele>178</ele>
        <time>2018-03-08T10:13:21Z</time>
      </trkpt>
      <trkpt lat="45.93714" lon="4.78572">
        <ele>178</ele>
        <time>2018-03-08T10:13:22Z</time>
      </trkpt>
      <trkpt lat="45.93712" lon="4.78578">
        <ele>177</ele>
        <time>2018-03-08T10:13:23Z</time>
      </trkpt>
      <trkpt lat="45.93711" lon="4.78586">
        <ele>176</ele>
        <time>2018-03-08T10:13:24Z</time>
      </trkpt>
      <trkpt lat="45.93709" lon="4.78593">
        <ele>176</ele>
        <time>2018-03-08T10:13:25Z</time>
      </trkpt>
      <trkpt lat="45.93707" lon="4.78601">
        <ele>176</ele>
        <time>2018-03-08T10:13:26Z</time>
      </trkpt>
      <trkpt lat="45.93704" lon="4.78608">
        <ele>176</ele>
        <time>2018-03-08T10:13:27Z</time>
      </trkpt>
      <trkpt lat="45.93702" lon="4.78616">
        <ele>176</ele>
        <time>2018-03-08T10:13:28Z</time>
      </trkpt>
      <trkpt lat="45.937" lon="4.78623">
        <ele>176</ele>
        <time>2018-03-08T10:13:29Z</time>
      </trkpt>
      <trkpt lat="45.93703" lon="4.78628">
        <ele>176</ele>
        <time>2018-03-08T10:13:30Z</time>
      </trkpt>
      <trkpt lat="45.93706" lon="4.78634">
        <ele>176</ele>
        <time>2018-03-08T10:13:31Z</time>
      </trkpt>
      <trkpt lat="45.93712" lon="4.78631">
        <ele>176</ele>
        <time>2018-03-08T10:13:32Z</time>
      </trkpt>
      <trkpt lat="45.93717" lon="4.78628">
        <ele>176</ele>
        <time>2018-03-08T10:13:33Z</time>
      </trkpt>
      <trkpt lat="45.93723" lon="4.78625">
        <ele>177</ele>
        <time>2018-03-08T10:13:35Z</time>
      </trkpt>
      <trkpt lat="45.93728" lon="4.78625">
        <ele>177</ele>
        <time>2018-03-08T10:13:36Z</time>
      </trkpt>
      <trkpt lat="45.93736" lon="4.78622">
        <ele>177</ele>
        <time>2018-03-08T10:13:39Z</time>
      </trkpt>
      <trkpt lat="45.93738" lon="4.78621">
        <ele>177</ele>
        <time>2018-03-08T10:13:40Z</time>
      </trkpt>
      <trkpt lat="45.93746" lon="4.7862">
        <ele>177</ele>
        <time>2018-03-08T10:13:43Z</time>
      </trkpt>
      <trkpt lat="45.93749" lon="4.7862">
        <ele>177</ele>
        <time>2018-03-08T10:13:44Z</time>
      </trkpt>
      <trkpt lat="45.93757" lon="4.78617">
        <ele>181</ele>
        <time>2018-03-08T10:13:47Z</time>
      </trkpt>
      <trkpt lat="45.9376" lon="4.78617">
        <ele>181</ele>
        <time>2018-03-08T10:13:48Z</time>
      </trkpt>
      <trkpt lat="45.93768" lon="4.78616">
        <ele>181</ele>
        <time>2018-03-08T10:13:51Z</time>
      </trkpt>
      <trkpt lat="45.93771" lon="4.78616">
        <ele>181</ele>
        <time>2018-03-08T10:13:52Z</time>
      </trkpt>
      <trkpt lat="45.9378" lon="4.78614">
        <ele>181</ele>
        <time>2018-03-08T10:13:55Z</time>
      </trkpt>
      <trkpt lat="45.93783" lon="4.78613">
        <ele>182</ele>
        <time>2018-03-08T10:13:56Z</time>
      </trkpt>
      <trkpt lat="45.93791" lon="4.78611">
        <ele>182</ele>
        <time>2018-03-08T10:13:59Z</time>
      </trkpt>
      <trkpt lat="45.93794" lon="4.7861">
        <ele>182</ele>
        <time>2018-03-08T10:14:00Z</time>
      </trkpt>
      <trkpt lat="45.93801" lon="4.78609">
        <ele>182</ele>
        <time>2018-03-08T10:14:02Z</time>
      </trkpt>
      <trkpt lat="45.93804" lon="4.78608">
        <ele>183</ele>
        <time>2018-03-08T10:14:03Z</time>
      </trkpt>
      <trkpt lat="45.93811" lon="4.78607">
        <ele>183</ele>
        <time>2018-03-08T10:14:05Z</time>
      </trkpt>
      <trkpt lat="45.93814" lon="4.78606">
        <ele>183</ele>
        <time>2018-03-08T10:14:06Z</time>
      </trkpt>
      <trkpt lat="45.93822" lon="4.78604">
        <ele>184</ele>
        <time>2018-03-08T10:14:09Z</time>
      </trkpt>
      <trkpt lat="45.93825" lon="4.78603">
        <ele>184</ele>
        <time>2018-03-08T10:14:10Z</time>
      </trkpt>
      <trkpt lat="45.93833" lon="4.78601">
        <ele>184</ele>
        <time>2018-03-08T10:14:13Z</time>
      </trkpt>
      <trkpt lat="45.93835" lon="4.78601">
        <ele>187</ele>
        <time>2018-03-08T10:14:14Z</time>
      </trkpt>
      <trkpt lat="45.93843" lon="4.786">
        <ele>188</ele>
        <time>2018-03-08T10:14:18Z</time>
      </trkpt>
      <trkpt lat="45.93845" lon="4.78599">
        <ele>188</ele>
        <time>2018-03-08T10:14:19Z</time>
      </trkpt>
      <trkpt lat="45.93854" lon="4.78598">
        <ele>188</ele>
        <time>2018-03-08T10:14:23Z</time>
      </trkpt>
      <trkpt lat="45.93856" lon="4.78597">
        <ele>188</ele>
        <time>2018-03-08T10:14:24Z</time>
      </trkpt>
      <trkpt lat="45.93864" lon="4.78596">
        <ele>188</ele>
        <time>2018-03-08T10:14:28Z</time>
      </trkpt>
      <trkpt lat="45.93867" lon="4.78595">
        <ele>188</ele>
        <time>2018-03-08T10:14:29Z</time>
      </trkpt>
      <trkpt lat="45.93873" lon="4.78593">
        <ele>189</ele>
        <time>2018-03-08T10:14:32Z</time>
      </trkpt>
      <trkpt lat="45.93875" lon="4.78592">
        <ele>189</ele>
        <time>2018-03-08T10:14:33Z</time>
      </trkpt>
      <trkpt lat="45.93883" lon="4.7859">
        <ele>189</ele>
        <time>2018-03-08T10:14:37Z</time>
      </trkpt>
      <trkpt lat="45.93885" lon="4.78589">
        <ele>189</ele>
        <time>2018-03-08T10:14:38Z</time>
      </trkpt>
      <trkpt lat="45.93893" lon="4.78587">
        <ele>190</ele>
        <time>2018-03-08T10:14:42Z</time>
      </trkpt>
      <trkpt lat="45.93895" lon="4.78586">
        <ele>190</ele>
        <time>2018-03-08T10:14:43Z</time>
      </trkpt>
      <trkpt lat="45.93902" lon="4.78584">
        <ele>191</ele>
        <time>2018-03-08T10:14:47Z</time>
      </trkpt>
      <trkpt lat="45.93904" lon="4.78583">
        <ele>192</ele>
        <time>2018-03-08T10:14:48Z</time>
      </trkpt>
      <trkpt lat="45.93911" lon="4.78581">
        <ele>193</ele>
        <time>2018-03-08T10:14:52Z</time>
      </trkpt>
      <trkpt lat="45.93913" lon="4.78579">
        <ele>193</ele>
        <time>2018-03-08T10:14:53Z</time>
      </trkpt>
      <trkpt lat="45.93919" lon="4.78573">
        <ele>195</ele>
        <time>2018-03-08T10:14:57Z</time>
      </trkpt>
      <trkpt lat="45.93921" lon="4.78571">
        <ele>195</ele>
        <time>2018-03-08T10:14:58Z</time>
      </trkpt>
      <trkpt lat="45.93928" lon="4.78574">
        <ele>195</ele>
        <time>2018-03-08T10:15:03Z</time>
      </trkpt>
      <trkpt lat="45.93929" lon="4.78577">
        <ele>195</ele>
        <time>2018-03-08T10:15:04Z</time>
      </trkpt>
      <trkpt lat="45.93931" lon="4.78588">
        <ele>195</ele>
        <time>2018-03-08T10:15:07Z</time>
      </trkpt>
      <trkpt lat="45.93932" lon="4.78592">
        <ele>195</ele>
        <time>2018-03-08T10:15:08Z</time>
      </trkpt>
      <trkpt lat="45.93933" lon="4.78604">
        <ele>195</ele>
        <time>2018-03-08T10:15:11Z</time>
      </trkpt>
      <trkpt lat="45.93933" lon="4.78608">
        <ele>195</ele>
        <time>2018-03-08T10:15:12Z</time>
      </trkpt>
      <trkpt lat="45.93933" lon="4.78618">
        <ele>195</ele>
        <time>2018-03-08T10:15:14Z</time>
      </trkpt>
      <trkpt lat="45.93933" lon="4.78623">
        <ele>195</ele>
        <time>2018-03-08T10:15:15Z</time>
      </trkpt>
      <trkpt lat="45.93933" lon="4.78632">
        <ele>195</ele>
        <time>2018-03-08T10:15:17Z</time>
      </trkpt>
      <trkpt lat="45.93933" lon="4.78647">
        <ele>194</ele>
        <time>2018-03-08T10:15:18Z</time>
      </trkpt>
      <trkpt lat="45.93934" lon="4.78658">
        <ele>194</ele>
        <time>2018-03-08T10:15:20Z</time>
      </trkpt>
      <trkpt lat="45.93934" lon="4.78661">
        <ele>194</ele>
        <time>2018-03-08T10:15:21Z</time>
      </trkpt>
      <trkpt lat="45.93935" lon="4.78673">
        <ele>193</ele>
        <time>2018-03-08T10:15:24Z</time>
      </trkpt>
      <trkpt lat="45.93936" lon="4.78684">
        <ele>193</ele>
        <time>2018-03-08T10:15:25Z</time>
      </trkpt>
      <trkpt lat="45.93937" lon="4.78695">
        <ele>194</ele>
        <time>2018-03-08T10:15:27Z</time>
      </trkpt>
      <trkpt lat="45.93937" lon="4.78701">
        <ele>194</ele>
        <time>2018-03-08T10:15:28Z</time>
      </trkpt>
      <trkpt lat="45.93937" lon="4.78712">
        <ele>194</ele>
        <time>2018-03-08T10:15:30Z</time>
      </trkpt>
      <trkpt lat="45.93937" lon="4.78718">
        <ele>194</ele>
        <time>2018-03-08T10:15:31Z</time>
      </trkpt>
      <trkpt lat="45.93937" lon="4.7873">
        <ele>194</ele>
        <time>2018-03-08T10:15:33Z</time>
      </trkpt>
      <trkpt lat="45.93937" lon="4.78736">
        <ele>193</ele>
        <time>2018-03-08T10:15:34Z</time>
      </trkpt>
      <trkpt lat="45.93937" lon="4.78749">
        <ele>193</ele>
        <time>2018-03-08T10:15:36Z</time>
      </trkpt>
      <trkpt lat="45.93936" lon="4.78755">
        <ele>193</ele>
        <time>2018-03-08T10:15:37Z</time>
      </trkpt>
      <trkpt lat="45.93936" lon="4.78767">
        <ele>193</ele>
        <time>2018-03-08T10:15:39Z</time>
      </trkpt>
      <trkpt lat="45.93935" lon="4.78772">
        <ele>193</ele>
        <time>2018-03-08T10:15:40Z</time>
      </trkpt>
      <trkpt lat="45.93935" lon="4.78783">
        <ele>194</ele>
        <time>2018-03-08T10:15:42Z</time>
      </trkpt>
      <trkpt lat="45.93935" lon="4.78789">
        <ele>194</ele>
        <time>2018-03-08T10:15:43Z</time>
      </trkpt>
      <trkpt lat="45.93935" lon="4.78795">
        <ele>194</ele>
        <time>2018-03-08T10:15:44Z</time>
      </trkpt>
      <trkpt lat="45.93935" lon="4.78802">
        <ele>194</ele>
        <time>2018-03-08T10:15:45Z</time>
      </trkpt>
      <trkpt lat="45.93936" lon="4.78809">
        <ele>194</ele>
        <time>2018-03-08T10:15:46Z</time>
      </trkpt>
      <trkpt lat="45.93935" lon="4.78815">
        <ele>194</ele>
        <time>2018-03-08T10:15:47Z</time>
      </trkpt>
      <trkpt lat="45.93935" lon="4.78827">
        <ele>193</ele>
        <time>2018-03-08T10:15:49Z</time>
      </trkpt>
      <trkpt lat="45.93935" lon="4.78832">
        <ele>193</ele>
        <time>2018-03-08T10:15:50Z</time>
      </trkpt>
      <trkpt lat="45.93935" lon="4.78844">
        <ele>193</ele>
        <time>2018-03-08T10:15:52Z</time>
      </trkpt>
      <trkpt lat="45.93935" lon="4.78851">
        <ele>193</ele>
        <time>2018-03-08T10:15:53Z</time>
      </trkpt>
      <trkpt lat="45.93936" lon="4.78857">
        <ele>193</ele>
        <time>2018-03-08T10:15:54Z</time>
      </trkpt>
      <trkpt lat="45.93937" lon="4.78863">
        <ele>194</ele>
        <time>2018-03-08T10:15:55Z</time>
      </trkpt>
      <trkpt lat="45.93936" lon="4.78874">
        <ele>194</ele>
        <time>2018-03-08T10:15:57Z</time>
      </trkpt>
      <trkpt lat="45.93936" lon="4.7888">
        <ele>193</ele>
        <time>2018-03-08T10:15:58Z</time>
      </trkpt>
      <trkpt lat="45.93937" lon="4.78889">
        <ele>193</ele>
        <time>2018-03-08T10:15:59Z</time>
      </trkpt>
      <trkpt lat="45.93937" lon="4.78895">
        <ele>193</ele>
        <time>2018-03-08T10:16:00Z</time>
      </trkpt>
      <trkpt lat="45.93937" lon="4.78907">
        <ele>193</ele>
        <time>2018-03-08T10:16:02Z</time>
      </trkpt>
      <trkpt lat="45.93938" lon="4.78913">
        <ele>193</ele>
        <time>2018-03-08T10:16:03Z</time>
      </trkpt>
      <trkpt lat="45.93938" lon="4.78924">
        <ele>193</ele>
        <time>2018-03-08T10:16:05Z</time>
      </trkpt>
      <trkpt lat="45.93938" lon="4.7893">
        <ele>193</ele>
        <time>2018-03-08T10:16:06Z</time>
      </trkpt>
      <trkpt lat="45.93938" lon="4.78942">
        <ele>193</ele>
        <time>2018-03-08T10:16:08Z</time>
      </trkpt>
      <trkpt lat="45.93938" lon="4.78948">
        <ele>194</ele>
        <time>2018-03-08T10:16:09Z</time>
      </trkpt>
      <trkpt lat="45.93939" lon="4.7896">
        <ele>194</ele>
        <time>2018-03-08T10:16:11Z</time>
      </trkpt>
      <trkpt lat="45.93939" lon="4.78966">
        <ele>194</ele>
        <time>2018-03-08T10:16:12Z</time>
      </trkpt>
      <trkpt lat="45.93941" lon="4.78978">
        <ele>194</ele>
        <time>2018-03-08T10:16:14Z</time>
      </trkpt>
      <trkpt lat="45.93942" lon="4.78984">
        <ele>194</ele>
        <time>2018-03-08T10:16:15Z</time>
      </trkpt>
      <trkpt lat="45.93942" lon="4.78996">
        <ele>193</ele>
        <time>2018-03-08T10:16:17Z</time>
      </trkpt>
      <trkpt lat="45.93943" lon="4.78999">
        <ele>194</ele>
        <time>2018-03-08T10:16:18Z</time>
      </trkpt>
      <trkpt lat="45.93943" lon="4.7901">
        <ele>195</ele>
        <time>2018-03-08T10:16:20Z</time>
      </trkpt>
      <trkpt lat="45.93943" lon="4.79018">
        <ele>195</ele>
        <time>2018-03-08T10:16:21Z</time>
      </trkpt>
      <trkpt lat="45.93943" lon="4.7903">
        <ele>195</ele>
        <time>2018-03-08T10:16:23Z</time>
      </trkpt>
      <trkpt lat="45.93943" lon="4.79036">
        <ele>195</ele>
        <time>2018-03-08T10:16:24Z</time>
      </trkpt>
      <trkpt lat="45.93944" lon="4.79047">
        <ele>195</ele>
        <time>2018-03-08T10:16:26Z</time>
      </trkpt>
      <trkpt lat="45.93945" lon="4.79053">
        <ele>195</ele>
        <time>2018-03-08T10:16:27Z</time>
      </trkpt>
      <trkpt lat="45.93946" lon="4.79063">
        <ele>195</ele>
        <time>2018-03-08T10:16:29Z</time>
      </trkpt>
      <trkpt lat="45.93946" lon="4.79069">
        <ele>195</ele>
        <time>2018-03-08T10:16:30Z</time>
      </trkpt>
      <trkpt lat="45.93947" lon="4.79079">
        <ele>195</ele>
        <time>2018-03-08T10:16:32Z</time>
      </trkpt>
      <trkpt lat="45.93947" lon="4.79085">
        <ele>196</ele>
        <time>2018-03-08T10:16:33Z</time>
      </trkpt>
      <trkpt lat="45.93947" lon="4.79097">
        <ele>196</ele>
        <time>2018-03-08T10:16:35Z</time>
      </trkpt>
      <trkpt lat="45.93948" lon="4.79102">
        <ele>196</ele>
        <time>2018-03-08T10:16:36Z</time>
      </trkpt>
      <trkpt lat="45.93948" lon="4.79113">
        <ele>197</ele>
        <time>2018-03-08T10:16:38Z</time>
      </trkpt>
      <trkpt lat="45.93948" lon="4.7912">
        <ele>197</ele>
        <time>2018-03-08T10:16:39Z</time>
      </trkpt>
      <trkpt lat="45.93948" lon="4.79132">
        <ele>197</ele>
        <time>2018-03-08T10:16:41Z</time>
      </trkpt>
      <trkpt lat="45.93948" lon="4.79138">
        <ele>197</ele>
        <time>2018-03-08T10:16:42Z</time>
      </trkpt>
      <trkpt lat="45.93948" lon="4.7915">
        <ele>196</ele>
        <time>2018-03-08T10:16:44Z</time>
      </trkpt>
      <trkpt lat="45.93949" lon="4.79156">
        <ele>196</ele>
        <time>2018-03-08T10:16:45Z</time>
      </trkpt>
      <trkpt lat="45.9395" lon="4.79168">
        <ele>197</ele>
        <time>2018-03-08T10:16:47Z</time>
      </trkpt>
      <trkpt lat="45.9395" lon="4.79174">
        <ele>197</ele>
        <time>2018-03-08T10:16:48Z</time>
      </trkpt>
      <trkpt lat="45.9395" lon="4.79185">
        <ele>197</ele>
        <time>2018-03-08T10:16:50Z</time>
      </trkpt>
      <trkpt lat="45.9395" lon="4.79191">
        <ele>197</ele>
        <time>2018-03-08T10:16:51Z</time>
      </trkpt>
      <trkpt lat="45.9395" lon="4.79197">
        <ele>197</ele>
        <time>2018-03-08T10:16:53Z</time>
      </trkpt>
      <trkpt lat="45.93951" lon="4.79206">
        <ele>197</ele>
        <time>2018-03-08T10:16:54Z</time>
      </trkpt>
      <trkpt lat="45.9395" lon="4.79217">
        <ele>197</ele>
        <time>2018-03-08T10:16:56Z</time>
      </trkpt>
      <trkpt lat="45.93949" lon="4.79223">
        <ele>197</ele>
        <time>2018-03-08T10:16:57Z</time>
      </trkpt>
      <trkpt lat="45.9395" lon="4.79234">
        <ele>197</ele>
        <time>2018-03-08T10:16:59Z</time>
      </trkpt>
      <trkpt lat="45.9395" lon="4.7924">
        <ele>197</ele>
        <time>2018-03-08T10:17:00Z</time>
      </trkpt>
      <trkpt lat="45.9395" lon="4.79252">
        <ele>197</ele>
        <time>2018-03-08T10:17:02Z</time>
      </trkpt>
      <trkpt lat="45.9395" lon="4.79257">
        <ele>197</ele>
        <time>2018-03-08T10:17:03Z</time>
      </trkpt>
      <trkpt lat="45.9395" lon="4.79268">
        <ele>198</ele>
        <time>2018-03-08T10:17:05Z</time>
      </trkpt>
      <trkpt lat="45.9395" lon="4.79274">
        <ele>198</ele>
        <time>2018-03-08T10:17:06Z</time>
      </trkpt>
      <trkpt lat="45.9395" lon="4.79285">
        <ele>198</ele>
        <time>2018-03-08T10:17:08Z</time>
      </trkpt>
      <trkpt lat="45.93951" lon="4.79291">
        <ele>198</ele>
        <time>2018-03-08T10:17:09Z</time>
      </trkpt>
      <trkpt lat="45.93951" lon="4.79302">
        <ele>198</ele>
        <time>2018-03-08T10:17:11Z</time>
      </trkpt>
      <trkpt lat="45.93951" lon="4.79309">
        <ele>198</ele>
        <time>2018-03-08T10:17:12Z</time>
      </trkpt>
      <trkpt lat="45.93951" lon="4.7932">
        <ele>198</ele>
        <time>2018-03-08T10:17:14Z</time>
      </trkpt>
      <trkpt lat="45.93952" lon="4.79326">
        <ele>199</ele>
        <time>2018-03-08T10:17:15Z</time>
      </trkpt>
      <trkpt lat="45.93953" lon="4.79337">
        <ele>200</ele>
        <time>2018-03-08T10:17:17Z</time>
      </trkpt>
      <trkpt lat="45.93953" lon="4.79343">
        <ele>200</ele>
        <time>2018-03-08T10:17:18Z</time>
      </trkpt>
      <trkpt lat="45.93954" lon="4.79354">
        <ele>201</ele>
        <time>2018-03-08T10:17:20Z</time>
      </trkpt>
      <trkpt lat="45.93953" lon="4.7936">
        <ele>201</ele>
        <time>2018-03-08T10:17:21Z</time>
      </trkpt>
      <trkpt lat="45.93953" lon="4.79372">
        <ele>201</ele>
        <time>2018-03-08T10:17:23Z</time>
      </trkpt>
      <trkpt lat="45.93953" lon="4.79377">
        <ele>201</ele>
        <time>2018-03-08T10:17:24Z</time>
      </trkpt>
      <trkpt lat="45.93953" lon="4.79388">
        <ele>201</ele>
        <time>2018-03-08T10:17:26Z</time>
      </trkpt>
      <trkpt lat="45.93953" lon="4.79394">
        <ele>201</ele>
        <time>2018-03-08T10:17:27Z</time>
      </trkpt>
      <trkpt lat="45.93952" lon="4.79405">
        <ele>201</ele>
        <time>2018-03-08T10:17:29Z</time>
      </trkpt>
      <trkpt lat="45.93952" lon="4.79408">
        <ele>201</ele>
        <time>2018-03-08T10:17:30Z</time>
      </trkpt>
      <trkpt lat="45.9395" lon="4.79419">
        <ele>202</ele>
        <time>2018-03-08T10:17:32Z</time>
      </trkpt>
      <trkpt lat="45.9395" lon="4.79422">
        <ele>202</ele>
        <time>2018-03-08T10:17:33Z</time>
      </trkpt>
      <trkpt lat="45.93948" lon="4.79432">
        <ele>202</ele>
        <time>2018-03-08T10:17:37Z</time>
      </trkpt>
      <trkpt lat="45.93948" lon="4.79437">
        <ele>202</ele>
        <time>2018-03-08T10:17:38Z</time>
      </trkpt>
      <trkpt lat="45.93947" lon="4.79448">
        <ele>202</ele>
        <time>2018-03-08T10:17:39Z</time>
      </trkpt>
      <trkpt lat="45.93947" lon="4.79454">
        <ele>202</ele>
        <time>2018-03-08T10:17:40Z</time>
      </trkpt>
      <trkpt lat="45.93947" lon="4.79464">
        <ele>202</ele>
        <time>2018-03-08T10:17:42Z</time>
      </trkpt>
      <trkpt lat="45.93947" lon="4.7947">
        <ele>202</ele>
        <time>2018-03-08T10:17:43Z</time>
      </trkpt>
      <trkpt lat="45.93947" lon="4.7948">
        <ele>202</ele>
        <time>2018-03-08T10:17:45Z</time>
      </trkpt>
      <trkpt lat="45.93947" lon="4.79483">
        <ele>202</ele>
        <time>2018-03-08T10:17:46Z</time>
      </trkpt>
      <trkpt lat="45.93948" lon="4.7949">
        <ele>202</ele>
        <time>2018-03-08T10:17:48Z</time>
      </trkpt>
      <trkpt lat="45.93948" lon="4.79501">
        <ele>203</ele>
        <time>2018-03-08T10:17:49Z</time>
      </trkpt>
      <trkpt lat="45.9395" lon="4.79513">
        <ele>204</ele>
        <time>2018-03-08T10:17:51Z</time>
      </trkpt>
      <trkpt lat="45.93951" lon="4.79518">
        <ele>204</ele>
        <time>2018-03-08T10:17:52Z</time>
      </trkpt>
      <trkpt lat="45.93953" lon="4.79526">
        <ele>204</ele>
        <time>2018-03-08T10:17:53Z</time>
      </trkpt>
      <trkpt lat="45.93954" lon="4.79532">
        <ele>204</ele>
        <time>2018-03-08T10:17:54Z</time>
      </trkpt>
      <trkpt lat="45.93955" lon="4.79541">
        <ele>205</ele>
        <time>2018-03-08T10:17:57Z</time>
      </trkpt>
      <trkpt lat="45.93955" lon="4.79545">
        <ele>205</ele>
        <time>2018-03-08T10:17:58Z</time>
      </trkpt>
      <trkpt lat="45.93956" lon="4.79553">
        <ele>205</ele>
        <time>2018-03-08T10:18:00Z</time>
      </trkpt>
      <trkpt lat="45.93957" lon="4.79558">
        <ele>205</ele>
        <time>2018-03-08T10:18:01Z</time>
      </trkpt>
      <trkpt lat="45.93957" lon="4.79568">
        <ele>205</ele>
        <time>2018-03-08T10:18:03Z</time>
      </trkpt>
      <trkpt lat="45.93958" lon="4.79573">
        <ele>205</ele>
        <time>2018-03-08T10:18:04Z</time>
      </trkpt>
      <trkpt lat="45.93958" lon="4.79582">
        <ele>206</ele>
        <time>2018-03-08T10:18:06Z</time>
      </trkpt>
      <trkpt lat="45.93958" lon="4.79586">
        <ele>207</ele>
        <time>2018-03-08T10:18:07Z</time>
      </trkpt>
      <trkpt lat="45.93959" lon="4.79591">
        <ele>207</ele>
        <time>2018-03-08T10:18:08Z</time>
      </trkpt>
      <trkpt lat="45.93959" lon="4.79605">
        <ele>207</ele>
        <time>2018-03-08T10:18:09Z</time>
      </trkpt>
      <trkpt lat="45.93961" lon="4.79615">
        <ele>207</ele>
        <time>2018-03-08T10:18:11Z</time>
      </trkpt>
      <trkpt lat="45.93961" lon="4.79621">
        <ele>207</ele>
        <time>2018-03-08T10:18:12Z</time>
      </trkpt>
      <trkpt lat="45.93961" lon="4.79632">
        <ele>207</ele>
        <time>2018-03-08T10:18:14Z</time>
      </trkpt>
      <trkpt lat="45.93962" lon="4.79637">
        <ele>207</ele>
        <time>2018-03-08T10:18:15Z</time>
      </trkpt>
      <trkpt lat="45.93963" lon="4.79645">
        <ele>207</ele>
        <time>2018-03-08T10:18:17Z</time>
      </trkpt>
      <trkpt lat="45.93964" lon="4.79653">
        <ele>207</ele>
        <time>2018-03-08T10:18:18Z</time>
      </trkpt>
      <trkpt lat="45.93965" lon="4.79663">
        <ele>207</ele>
        <time>2018-03-08T10:18:20Z</time>
      </trkpt>
      <trkpt lat="45.93965" lon="4.79668">
        <ele>207</ele>
        <time>2018-03-08T10:18:21Z</time>
      </trkpt>
      <trkpt lat="45.93966" lon="4.79678">
        <ele>207</ele>
        <time>2018-03-08T10:18:24Z</time>
      </trkpt>
      <trkpt lat="45.93967" lon="4.79689">
        <ele>207</ele>
        <time>2018-03-08T10:18:25Z</time>
      </trkpt>
      <trkpt lat="45.93968" lon="4.797">
        <ele>207</ele>
        <time>2018-03-08T10:18:27Z</time>
      </trkpt>
      <trkpt lat="45.93968" lon="4.79702">
        <ele>207</ele>
        <time>2018-03-08T10:18:28Z</time>
      </trkpt>
      <trkpt lat="45.93969" lon="4.79715">
        <ele>207</ele>
        <time>2018-03-08T10:18:30Z</time>
      </trkpt>
      <trkpt lat="45.9397" lon="4.79721">
        <ele>207</ele>
        <time>2018-03-08T10:18:31Z</time>
      </trkpt>
      <trkpt lat="45.93971" lon="4.79731">
        <ele>207</ele>
        <time>2018-03-08T10:18:33Z</time>
      </trkpt>
      <trkpt lat="45.93971" lon="4.79736">
        <ele>207</ele>
        <time>2018-03-08T10:18:34Z</time>
      </trkpt>
      <trkpt lat="45.93972" lon="4.79747">
        <ele>207</ele>
        <time>2018-03-08T10:18:36Z</time>
      </trkpt>
      <trkpt lat="45.93972" lon="4.79753">
        <ele>206</ele>
        <time>2018-03-08T10:18:37Z</time>
      </trkpt>
      <trkpt lat="45.93973" lon="4.79765">
        <ele>206</ele>
        <time>2018-03-08T10:18:39Z</time>
      </trkpt>
      <trkpt lat="45.93974" lon="4.79771">
        <ele>206</ele>
        <time>2018-03-08T10:18:40Z</time>
      </trkpt>
      <trkpt lat="45.93974" lon="4.79778">
        <ele>206</ele>
        <time>2018-03-08T10:18:41Z</time>
      </trkpt>
      <trkpt lat="45.93974" lon="4.79785">
        <ele>206</ele>
        <time>2018-03-08T10:18:42Z</time>
      </trkpt>
      <trkpt lat="45.93974" lon="4.79798">
        <ele>207</ele>
        <time>2018-03-08T10:18:44Z</time>
      </trkpt>
      <trkpt lat="45.93972" lon="4.79804">
        <ele>207</ele>
        <time>2018-03-08T10:18:45Z</time>
      </trkpt>
      <trkpt lat="45.93972" lon="4.79812">
        <ele>207</ele>
        <time>2018-03-08T10:18:46Z</time>
      </trkpt>
      <trkpt lat="45.93971" lon="4.79818">
        <ele>207</ele>
        <time>2018-03-08T10:18:47Z</time>
      </trkpt>
      <trkpt lat="45.9397" lon="4.79825">
        <ele>207</ele>
        <time>2018-03-08T10:18:48Z</time>
      </trkpt>
      <trkpt lat="45.93969" lon="4.79831">
        <ele>207</ele>
        <time>2018-03-08T10:18:49Z</time>
      </trkpt>
      <trkpt lat="45.93966" lon="4.79843">
        <ele>206</ele>
        <time>2018-03-08T10:18:51Z</time>
      </trkpt>
      <trkpt lat="45.93966" lon="4.79849">
        <ele>206</ele>
        <time>2018-03-08T10:18:52Z</time>
      </trkpt>
      <trkpt lat="45.93965" lon="4.79856">
        <ele>206</ele>
        <time>2018-03-08T10:18:53Z</time>
      </trkpt>
      <trkpt lat="45.93963" lon="4.79861">
        <ele>206</ele>
        <time>2018-03-08T10:18:54Z</time>
      </trkpt>
      <trkpt lat="45.9396" lon="4.79873">
        <ele>206</ele>
        <time>2018-03-08T10:18:56Z</time>
      </trkpt>
      <trkpt lat="45.93958" lon="4.79879">
        <ele>206</ele>
        <time>2018-03-08T10:18:57Z</time>
      </trkpt>
      <trkpt lat="45.93956" lon="4.7989">
        <ele>206</ele>
        <time>2018-03-08T10:18:59Z</time>
      </trkpt>
      <trkpt lat="45.93955" lon="4.79896">
        <ele>205</ele>
        <time>2018-03-08T10:19:00Z</time>
      </trkpt>
      <trkpt lat="45.93953" lon="4.79908">
        <ele>205</ele>
        <time>2018-03-08T10:19:02Z</time>
      </trkpt>
      <trkpt lat="45.93952" lon="4.79915">
        <ele>205</ele>
        <time>2018-03-08T10:19:03Z</time>
      </trkpt>
      <trkpt lat="45.93951" lon="4.79922">
        <ele>205</ele>
        <time>2018-03-08T10:19:04Z</time>
      </trkpt>
      <trkpt lat="45.9395" lon="4.79929">
        <ele>205</ele>
        <time>2018-03-08T10:19:05Z</time>
      </trkpt>
      <trkpt lat="45.93949" lon="4.79936">
        <ele>205</ele>
        <time>2018-03-08T10:19:06Z</time>
      </trkpt>
      <trkpt lat="45.93948" lon="4.79943">
        <ele>205</ele>
        <time>2018-03-08T10:19:07Z</time>
      </trkpt>
      <trkpt lat="45.93945" lon="4.79952">
        <ele>205</ele>
        <time>2018-03-08T10:19:09Z</time>
      </trkpt>
      <trkpt lat="45.93943" lon="4.79959">
        <ele>205</ele>
        <time>2018-03-08T10:19:10Z</time>
      </trkpt>
      <trkpt lat="45.93941" lon="4.79971">
        <ele>205</ele>
        <time>2018-03-08T10:19:12Z</time>
      </trkpt>
      <trkpt lat="45.9394" lon="4.79977">
        <ele>204</ele>
        <time>2018-03-08T10:19:13Z</time>
      </trkpt>
      <trkpt lat="45.93939" lon="4.79984">
        <ele>204</ele>
        <time>2018-03-08T10:19:14Z</time>
      </trkpt>
      <trkpt lat="45.93939" lon="4.7999">
        <ele>204</ele>
        <time>2018-03-08T10:19:15Z</time>
      </trkpt>
      <trkpt lat="45.93938" lon="4.79997">
        <ele>204</ele>
        <time>2018-03-08T10:19:16Z</time>
      </trkpt>
      <trkpt lat="45.93937" lon="4.80003">
        <ele>205</ele>
        <time>2018-03-08T10:19:17Z</time>
      </trkpt>
      <trkpt lat="45.93936" lon="4.8001">
        <ele>205</ele>
        <time>2018-03-08T10:19:18Z</time>
      </trkpt>
      <trkpt lat="45.93935" lon="4.80017">
        <ele>206</ele>
        <time>2018-03-08T10:19:19Z</time>
      </trkpt>
      <trkpt lat="45.93935" lon="4.80023">
        <ele>206</ele>
        <time>2018-03-08T10:19:20Z</time>
      </trkpt>
      <trkpt lat="45.93934" lon="4.80031">
        <ele>206</ele>
        <time>2018-03-08T10:19:21Z</time>
      </trkpt>
      <trkpt lat="45.93933" lon="4.80044">
        <ele>207</ele>
        <time>2018-03-08T10:19:23Z</time>
      </trkpt>
      <trkpt lat="45.93933" lon="4.80051">
        <ele>207</ele>
        <time>2018-03-08T10:19:24Z</time>
      </trkpt>
      <trkpt lat="45.93933" lon="4.80063">
        <ele>207</ele>
        <time>2018-03-08T10:19:26Z</time>
      </trkpt>
      <trkpt lat="45.93933" lon="4.80071">
        <ele>207</ele>
        <time>2018-03-08T10:19:27Z</time>
      </trkpt>
      <trkpt lat="45.93933" lon="4.80077">
        <ele>207</ele>
        <time>2018-03-08T10:19:28Z</time>
      </trkpt>
      <trkpt lat="45.93934" lon="4.80084">
        <ele>207</ele>
        <time>2018-03-08T10:19:29Z</time>
      </trkpt>
      <trkpt lat="45.93935" lon="4.80093">
        <ele>208</ele>
        <time>2018-03-08T10:19:30Z</time>
      </trkpt>
      <trkpt lat="45.93936" lon="4.801">
        <ele>208</ele>
        <time>2018-03-08T10:19:31Z</time>
      </trkpt>
      <trkpt lat="45.93936" lon="4.80107">
        <ele>208</ele>
        <time>2018-03-08T10:19:32Z</time>
      </trkpt>
      <trkpt lat="45.93937" lon="4.80115">
        <ele>208</ele>
        <time>2018-03-08T10:19:33Z</time>
      </trkpt>
      <trkpt lat="45.93939" lon="4.80125">
        <ele>208</ele>
        <time>2018-03-08T10:19:35Z</time>
      </trkpt>
      <trkpt lat="45.93941" lon="4.80135">
        <ele>208</ele>
        <time>2018-03-08T10:19:36Z</time>
      </trkpt>
      <trkpt lat="45.93941" lon="4.80142">
        <ele>208</ele>
        <time>2018-03-08T10:19:37Z</time>
      </trkpt>
      <trkpt lat="45.93939" lon="4.80148">
        <ele>208</ele>
        <time>2018-03-08T10:19:38Z</time>
      </trkpt>
      <trkpt lat="45.93938" lon="4.80154">
        <ele>208</ele>
        <time>2018-03-08T10:19:39Z</time>
      </trkpt>
      <trkpt lat="45.9394" lon="4.80161">
        <ele>207</ele>
        <time>2018-03-08T10:19:40Z</time>
      </trkpt>
      <trkpt lat="45.93941" lon="4.80168">
        <ele>205</ele>
        <time>2018-03-08T10:19:41Z</time>
      </trkpt>
      <trkpt lat="45.93942" lon="4.80175">
        <ele>205</ele>
        <time>2018-03-08T10:19:42Z</time>
      </trkpt>
      <trkpt lat="45.93942" lon="4.80181">
        <ele>205</ele>
        <time>2018-03-08T10:19:43Z</time>
      </trkpt>
      <trkpt lat="45.93945" lon="4.80187">
        <ele>205</ele>
        <time>2018-03-08T10:19:44Z</time>
      </trkpt>
      <trkpt lat="45.93947" lon="4.80193">
        <ele>205</ele>
        <time>2018-03-08T10:19:45Z</time>
      </trkpt>
      <trkpt lat="45.93949" lon="4.80201">
        <ele>205</ele>
        <time>2018-03-08T10:19:46Z</time>
      </trkpt>
      <trkpt lat="45.93952" lon="4.80208">
        <ele>205</ele>
        <time>2018-03-08T10:19:47Z</time>
      </trkpt>
      <trkpt lat="45.93954" lon="4.80215">
        <ele>205</ele>
        <time>2018-03-08T10:19:48Z</time>
      </trkpt>
      <trkpt lat="45.93955" lon="4.80221">
        <ele>205</ele>
        <time>2018-03-08T10:19:49Z</time>
      </trkpt>
      <trkpt lat="45.93956" lon="4.80227">
        <ele>204</ele>
        <time>2018-03-08T10:19:50Z</time>
      </trkpt>
      <trkpt lat="45.93958" lon="4.80234">
        <ele>204</ele>
        <time>2018-03-08T10:19:51Z</time>
      </trkpt>
      <trkpt lat="45.93961" lon="4.80241">
        <ele>204</ele>
        <time>2018-03-08T10:19:52Z</time>
      </trkpt>
      <trkpt lat="45.93963" lon="4.80247">
        <ele>204</ele>
        <time>2018-03-08T10:19:53Z</time>
      </trkpt>
      <trkpt lat="45.93965" lon="4.80253">
        <ele>202</ele>
        <time>2018-03-08T10:19:54Z</time>
      </trkpt>
      <trkpt lat="45.93967" lon="4.8026">
        <ele>202</ele>
        <time>2018-03-08T10:19:55Z</time>
      </trkpt>
      <trkpt lat="45.9397" lon="4.80267">
        <ele>202</ele>
        <time>2018-03-08T10:19:56Z</time>
      </trkpt>
      <trkpt lat="45.93972" lon="4.80274">
        <ele>202</ele>
        <time>2018-03-08T10:19:57Z</time>
      </trkpt>
      <trkpt lat="45.93973" lon="4.80279">
        <ele>202</ele>
        <time>2018-03-08T10:19:58Z</time>
      </trkpt>
      <trkpt lat="45.93977" lon="4.80289">
        <ele>203</ele>
        <time>2018-03-08T10:20:00Z</time>
      </trkpt>
      <trkpt lat="45.9398" lon="4.80294">
        <ele>203</ele>
        <time>2018-03-08T10:20:01Z</time>
      </trkpt>
      <trkpt lat="45.93981" lon="4.80305">
        <ele>203</ele>
        <time>2018-03-08T10:20:05Z</time>
      </trkpt>
      <trkpt lat="45.93982" lon="4.80308">
        <ele>203</ele>
        <time>2018-03-08T10:20:06Z</time>
      </trkpt>
      <trkpt lat="45.93986" lon="4.80319">
        <ele>204</ele>
        <time>2018-03-08T10:20:09Z</time>
      </trkpt>
      <trkpt lat="45.93987" lon="4.80323">
        <ele>204</ele>
        <time>2018-03-08T10:20:10Z</time>
      </trkpt>
      <trkpt lat="45.9399" lon="4.80335">
        <ele>206</ele>
        <time>2018-03-08T10:20:13Z</time>
      </trkpt>
      <trkpt lat="45.93991" lon="4.80338">
        <ele>206</ele>
        <time>2018-03-08T10:20:14Z</time>
      </trkpt>
      <trkpt lat="45.93994" lon="4.8035">
        <ele>206</ele>
        <time>2018-03-08T10:20:17Z</time>
      </trkpt>
      <trkpt lat="45.93995" lon="4.80354">
        <ele>206</ele>
        <time>2018-03-08T10:20:18Z</time>
      </trkpt>
      <trkpt lat="45.93998" lon="4.80363">
        <ele>207</ele>
        <time>2018-03-08T10:20:21Z</time>
      </trkpt>
      <trkpt lat="45.93999" lon="4.80367">
        <ele>207</ele>
        <time>2018-03-08T10:20:22Z</time>
      </trkpt>
      <trkpt lat="45.94001" lon="4.80376">
        <ele>216</ele>
        <time>2018-03-08T10:20:25Z</time>
      </trkpt>
      <trkpt lat="45.94002" lon="4.80379">
        <ele>216</ele>
        <time>2018-03-08T10:20:26Z</time>
      </trkpt>
      <trkpt lat="45.94004" lon="4.8039">
        <ele>217</ele>
        <time>2018-03-08T10:20:29Z</time>
      </trkpt>
      <trkpt lat="45.94005" lon="4.80393">
        <ele>217</ele>
        <time>2018-03-08T10:20:30Z</time>
      </trkpt>
      <trkpt lat="45.94007" lon="4.80405">
        <ele>217</ele>
        <time>2018-03-08T10:20:34Z</time>
      </trkpt>
      <trkpt lat="45.94008" lon="4.80408">
        <ele>217</ele>
        <time>2018-03-08T10:20:35Z</time>
      </trkpt>
      <trkpt lat="45.94009" lon="4.80418">
        <ele>219</ele>
        <time>2018-03-08T10:20:38Z</time>
      </trkpt>
      <trkpt lat="45.9401" lon="4.80422">
        <ele>219</ele>
        <time>2018-03-08T10:20:39Z</time>
      </trkpt>
      <trkpt lat="45.94012" lon="4.80434">
        <ele>221</ele>
        <time>2018-03-08T10:20:42Z</time>
      </trkpt>
      <trkpt lat="45.94012" lon="4.80438">
        <ele>222</ele>
        <time>2018-03-08T10:20:43Z</time>
      </trkpt>
      <trkpt lat="45.94013" lon="4.8045">
        <ele>222</ele>
        <time>2018-03-08T10:20:46Z</time>
      </trkpt>
      <trkpt lat="45.94014" lon="4.80454">
        <ele>223</ele>
        <time>2018-03-08T10:20:47Z</time>
      </trkpt>
      <trkpt lat="45.94014" lon="4.80465">
        <ele>223</ele>
        <time>2018-03-08T10:20:50Z</time>
      </trkpt>
      <trkpt lat="45.94014" lon="4.80469">
        <ele>223</ele>
        <time>2018-03-08T10:20:51Z</time>
      </trkpt>
      <trkpt lat="45.94015" lon="4.80482">
        <ele>222</ele>
        <time>2018-03-08T10:20:55Z</time>
      </trkpt>
      <trkpt lat="45.94015" lon="4.80484">
        <ele>222</ele>
        <time>2018-03-08T10:20:56Z</time>
      </trkpt>
      <trkpt lat="45.94015" lon="4.80495">
        <ele>222</ele>
        <time>2018-03-08T10:20:59Z</time>
      </trkpt>
      <trkpt lat="45.94015" lon="4.80499">
        <ele>221</ele>
        <time>2018-03-08T10:21:00Z</time>
      </trkpt>
      <trkpt lat="45.94014" lon="4.80511">
        <ele>223</ele>
        <time>2018-03-08T10:21:04Z</time>
      </trkpt>
      <trkpt lat="45.94015" lon="4.80514">
        <ele>223</ele>
        <time>2018-03-08T10:21:05Z</time>
      </trkpt>
      <trkpt lat="45.94015" lon="4.80517">
        <ele>223</ele>
        <time>2018-03-08T10:21:07Z</time>
      </trkpt>
      <trkpt lat="45.94017" lon="4.80528">
        <ele>224</ele>
        <time>2018-03-08T10:21:08Z</time>
      </trkpt>
      <trkpt lat="45.94017" lon="4.8054">
        <ele>224</ele>
        <time>2018-03-08T10:21:14Z</time>
      </trkpt>
      <trkpt lat="45.94018" lon="4.80543">
        <ele>224</ele>
        <time>2018-03-08T10:21:15Z</time>
      </trkpt>
      <trkpt lat="45.94018" lon="4.80555">
        <ele>224</ele>
        <time>2018-03-08T10:21:19Z</time>
      </trkpt>
      <trkpt lat="45.94018" lon="4.80558">
        <ele>224</ele>
        <time>2018-03-08T10:21:20Z</time>
      </trkpt>
      <trkpt lat="45.94017" lon="4.8057">
        <ele>223</ele>
        <time>2018-03-08T10:21:24Z</time>
      </trkpt>
      <trkpt lat="45.94017" lon="4.80572">
        <ele>223</ele>
        <time>2018-03-08T10:21:25Z</time>
      </trkpt>
      <trkpt lat="45.94016" lon="4.80585">
        <ele>222</ele>
        <time>2018-03-08T10:21:29Z</time>
      </trkpt>
      <trkpt lat="45.94015" lon="4.80588">
        <ele>222</ele>
        <time>2018-03-08T10:21:30Z</time>
      </trkpt>
      <trkpt lat="45.94018" lon="4.80599">
        <ele>223</ele>
        <time>2018-03-08T10:21:38Z</time>
      </trkpt>
      <trkpt lat="45.94019" lon="4.80601">
        <ele>223</ele>
        <time>2018-03-08T10:21:39Z</time>
      </trkpt>
      <trkpt lat="45.9402" lon="4.80613">
        <ele>224</ele>
        <time>2018-03-08T10:21:43Z</time>
      </trkpt>
      <trkpt lat="45.94021" lon="4.80617">
        <ele>224</ele>
        <time>2018-03-08T10:21:44Z</time>
      </trkpt>
      <trkpt lat="45.94023" lon="4.80626">
        <ele>225</ele>
        <time>2018-03-08T10:21:46Z</time>
      </trkpt>
      <trkpt lat="45.94023" lon="4.80631">
        <ele>224</ele>
        <time>2018-03-08T10:21:47Z</time>
      </trkpt>
      <trkpt lat="45.94025" lon="4.80643">
        <ele>224</ele>
        <time>2018-03-08T10:21:49Z</time>
      </trkpt>
      <trkpt lat="45.94026" lon="4.80648">
        <ele>224</ele>
        <time>2018-03-08T10:21:50Z</time>
      </trkpt>
      <trkpt lat="45.94027" lon="4.80656">
        <ele>224</ele>
        <time>2018-03-08T10:21:52Z</time>
      </trkpt>
      <trkpt lat="45.94027" lon="4.80661">
        <ele>224</ele>
        <time>2018-03-08T10:21:53Z</time>
      </trkpt>
      <trkpt lat="45.94028" lon="4.80673">
        <ele>224</ele>
        <time>2018-03-08T10:21:56Z</time>
      </trkpt>
      <trkpt lat="45.94029" lon="4.80677">
        <ele>224</ele>
        <time>2018-03-08T10:21:57Z</time>
      </trkpt>
      <trkpt lat="45.94031" lon="4.80689">
        <ele>225</ele>
        <time>2018-03-08T10:22:00Z</time>
      </trkpt>
      <trkpt lat="45.94032" lon="4.80693">
        <ele>225</ele>
        <time>2018-03-08T10:22:01Z</time>
      </trkpt>
      <trkpt lat="45.94033" lon="4.80702">
        <ele>226</ele>
        <time>2018-03-08T10:22:03Z</time>
      </trkpt>
      <trkpt lat="45.94034" lon="4.80706">
        <ele>226</ele>
        <time>2018-03-08T10:22:04Z</time>
      </trkpt>
      <trkpt lat="45.94036" lon="4.80715">
        <ele>226</ele>
        <time>2018-03-08T10:22:06Z</time>
      </trkpt>
      <trkpt lat="45.94037" lon="4.80719">
        <ele>226</ele>
        <time>2018-03-08T10:22:07Z</time>
      </trkpt>
      <trkpt lat="45.94039" lon="4.80731">
        <ele>227</ele>
        <time>2018-03-08T10:22:10Z</time>
      </trkpt>
      <trkpt lat="45.9404" lon="4.80735">
        <ele>227</ele>
        <time>2018-03-08T10:22:11Z</time>
      </trkpt>
      <trkpt lat="45.94041" lon="4.80747">
        <ele>227</ele>
        <time>2018-03-08T10:22:15Z</time>
      </trkpt>
      <trkpt lat="45.94042" lon="4.80751">
        <ele>228</ele>
        <time>2018-03-08T10:22:16Z</time>
      </trkpt>
      <trkpt lat="45.94043" lon="4.80762">
        <ele>228</ele>
        <time>2018-03-08T10:22:19Z</time>
      </trkpt>
      <trkpt lat="45.94043" lon="4.80766">
        <ele>228</ele>
        <time>2018-03-08T10:22:20Z</time>
      </trkpt>
      <trkpt lat="45.94044" lon="4.80777">
        <ele>228</ele>
        <time>2018-03-08T10:22:23Z</time>
      </trkpt>
      <trkpt lat="45.94045" lon="4.80781">
        <ele>228</ele>
        <time>2018-03-08T10:22:24Z</time>
      </trkpt>
      <trkpt lat="45.94046" lon="4.80793">
        <ele>229</ele>
        <time>2018-03-08T10:22:27Z</time>
      </trkpt>
      <trkpt lat="45.94047" lon="4.80797">
        <ele>229</ele>
        <time>2018-03-08T10:22:28Z</time>
      </trkpt>
      <trkpt lat="45.94049" lon="4.80809">
        <ele>229</ele>
        <time>2018-03-08T10:22:31Z</time>
      </trkpt>
      <trkpt lat="45.94049" lon="4.80812">
        <ele>229</ele>
        <time>2018-03-08T10:22:32Z</time>
      </trkpt>
      <trkpt lat="45.94051" lon="4.80824">
        <ele>230</ele>
        <time>2018-03-08T10:22:35Z</time>
      </trkpt>
      <trkpt lat="45.94052" lon="4.80827">
        <ele>230</ele>
        <time>2018-03-08T10:22:36Z</time>
      </trkpt>
      <trkpt lat="45.94053" lon="4.80838">
        <ele>231</ele>
        <time>2018-03-08T10:22:39Z</time>
      </trkpt>
      <trkpt lat="45.94053" lon="4.80842">
        <ele>231</ele>
        <time>2018-03-08T10:22:40Z</time>
      </trkpt>
      <trkpt lat="45.94054" lon="4.80853">
        <ele>231</ele>
        <time>2018-03-08T10:22:43Z</time>
      </trkpt>
      <trkpt lat="45.94054" lon="4.80857">
        <ele>230</ele>
        <time>2018-03-08T10:22:44Z</time>
      </trkpt>
      <trkpt lat="45.94056" lon="4.80868">
        <ele>230</ele>
        <time>2018-03-08T10:22:47Z</time>
      </trkpt>
      <trkpt lat="45.94056" lon="4.80872">
        <ele>230</ele>
        <time>2018-03-08T10:22:48Z</time>
      </trkpt>
      <trkpt lat="45.94057" lon="4.80882">
        <ele>231</ele>
        <time>2018-03-08T10:22:51Z</time>
      </trkpt>
      <trkpt lat="45.94058" lon="4.80885">
        <ele>231</ele>
        <time>2018-03-08T10:22:52Z</time>
      </trkpt>
      <trkpt lat="45.94059" lon="4.80895">
        <ele>231</ele>
        <time>2018-03-08T10:22:55Z</time>
      </trkpt>
      <trkpt lat="45.94059" lon="4.80898">
        <ele>231</ele>
        <time>2018-03-08T10:22:56Z</time>
      </trkpt>
      <trkpt lat="45.94061" lon="4.80908">
        <ele>232</ele>
        <time>2018-03-08T10:22:59Z</time>
      </trkpt>
      <trkpt lat="45.94061" lon="4.80911">
        <ele>232</ele>
        <time>2018-03-08T10:23:00Z</time>
      </trkpt>
      <trkpt lat="45.94062" lon="4.80921">
        <ele>233</ele>
        <time>2018-03-08T10:23:03Z</time>
      </trkpt>
      <trkpt lat="45.94062" lon="4.80924">
        <ele>233</ele>
        <time>2018-03-08T10:23:04Z</time>
      </trkpt>
      <trkpt lat="45.94063" lon="4.80935">
        <ele>233</ele>
        <time>2018-03-08T10:23:07Z</time>
      </trkpt>
      <trkpt lat="45.94064" lon="4.80938">
        <ele>232</ele>
        <time>2018-03-08T10:23:08Z</time>
      </trkpt>
      <trkpt lat="45.94065" lon="4.80949">
        <ele>232</ele>
        <time>2018-03-08T10:23:11Z</time>
      </trkpt>
      <trkpt lat="45.94065" lon="4.80952">
        <ele>232</ele>
        <time>2018-03-08T10:23:12Z</time>
      </trkpt>
      <trkpt lat="45.94067" lon="4.80962">
        <ele>232</ele>
        <time>2018-03-08T10:23:15Z</time>
      </trkpt>
      <trkpt lat="45.94067" lon="4.80965">
        <ele>232</ele>
        <time>2018-03-08T10:23:16Z</time>
      </trkpt>
      <trkpt lat="45.94069" lon="4.80974">
        <ele>233</ele>
        <time>2018-03-08T10:23:19Z</time>
      </trkpt>
      <trkpt lat="45.94069" lon="4.80978">
        <ele>233</ele>
        <time>2018-03-08T10:23:20Z</time>
      </trkpt>
      <trkpt lat="45.9407" lon="4.80987">
        <ele>235</ele>
        <time>2018-03-08T10:23:23Z</time>
      </trkpt>
      <trkpt lat="45.94071" lon="4.80991">
        <ele>235</ele>
        <time>2018-03-08T10:23:24Z</time>
      </trkpt>
      <trkpt lat="45.94073" lon="4.81">
        <ele>237</ele>
        <time>2018-03-08T10:23:27Z</time>
      </trkpt>
      <trkpt lat="45.94074" lon="4.81003">
        <ele>237</ele>
        <time>2018-03-08T10:23:28Z</time>
      </trkpt>
      <trkpt lat="45.94076" lon="4.81015">
        <ele>235</ele>
        <time>2018-03-08T10:23:32Z</time>
      </trkpt>
      <trkpt lat="45.94077" lon="4.81018">
        <ele>235</ele>
        <time>2018-03-08T10:23:33Z</time>
      </trkpt>
      <trkpt lat="45.94079" lon="4.8103">
        <ele>234</ele>
        <time>2018-03-08T10:23:37Z</time>
      </trkpt>
      <trkpt lat="45.9408" lon="4.81033">
        <ele>234</ele>
        <time>2018-03-08T10:23:38Z</time>
      </trkpt>
      <trkpt lat="45.94082" lon="4.81043">
        <ele>233</ele>
        <time>2018-03-08T10:23:41Z</time>
      </trkpt>
      <trkpt lat="45.94083" lon="4.81046">
        <ele>233</ele>
        <time>2018-03-08T10:23:42Z</time>
      </trkpt>
      <trkpt lat="45.94086" lon="4.81054">
        <ele>243</ele>
        <time>2018-03-08T10:23:45Z</time>
      </trkpt>
      <trkpt lat="45.94088" lon="4.81057">
        <ele>243</ele>
        <time>2018-03-08T10:23:46Z</time>
      </trkpt>
      <trkpt lat="45.94091" lon="4.81065">
        <ele>242</ele>
        <time>2018-03-08T10:23:49Z</time>
      </trkpt>
      <trkpt lat="45.94092" lon="4.81068">
        <ele>242</ele>
        <time>2018-03-08T10:23:50Z</time>
      </trkpt>
      <trkpt lat="45.94097" lon="4.81079">
        <ele>241</ele>
        <time>2018-03-08T10:23:54Z</time>
      </trkpt>
      <trkpt lat="45.94099" lon="4.81081">
        <ele>241</ele>
        <time>2018-03-08T10:23:55Z</time>
      </trkpt>
      <trkpt lat="45.94103" lon="4.81089">
        <ele>241</ele>
        <time>2018-03-08T10:23:58Z</time>
      </trkpt>
      <trkpt lat="45.94105" lon="4.81091">
        <ele>241</ele>
        <time>2018-03-08T10:23:59Z</time>
      </trkpt>
      <trkpt lat="45.9411" lon="4.81101">
        <ele>242</ele>
        <time>2018-03-08T10:24:03Z</time>
      </trkpt>
      <trkpt lat="45.94111" lon="4.81104">
        <ele>242</ele>
        <time>2018-03-08T10:24:04Z</time>
      </trkpt>
      <trkpt lat="45.94116" lon="4.81111">
        <ele>243</ele>
        <time>2018-03-08T10:24:07Z</time>
      </trkpt>
      <trkpt lat="45.94118" lon="4.81113">
        <ele>243</ele>
        <time>2018-03-08T10:24:08Z</time>
      </trkpt>
      <trkpt lat="45.94122" lon="4.81121">
        <ele>243</ele>
        <time>2018-03-08T10:24:11Z</time>
      </trkpt>
      <trkpt lat="45.94123" lon="4.81124">
        <ele>243</ele>
        <time>2018-03-08T10:24:12Z</time>
      </trkpt>
      <trkpt lat="45.94127" lon="4.81132">
        <ele>243</ele>
        <time>2018-03-08T10:24:15Z</time>
      </trkpt>
      <trkpt lat="45.94128" lon="4.81135">
        <ele>243</ele>
        <time>2018-03-08T10:24:16Z</time>
      </trkpt>
      <trkpt lat="45.94132" lon="4.81144">
        <ele>244</ele>
        <time>2018-03-08T10:24:19Z</time>
      </trkpt>
      <trkpt lat="45.94133" lon="4.81147">
        <ele>244</ele>
        <time>2018-03-08T10:24:20Z</time>
      </trkpt>
      <trkpt lat="45.94137" lon="4.81157">
        <ele>244</ele>
        <time>2018-03-08T10:24:23Z</time>
      </trkpt>
      <trkpt lat="45.94139" lon="4.8116">
        <ele>244</ele>
        <time>2018-03-08T10:24:24Z</time>
      </trkpt>
      <trkpt lat="45.94143" lon="4.81169">
        <ele>244</ele>
        <time>2018-03-08T10:24:27Z</time>
      </trkpt>
      <trkpt lat="45.94144" lon="4.81173">
        <ele>244</ele>
        <time>2018-03-08T10:24:28Z</time>
      </trkpt>
      <trkpt lat="45.94147" lon="4.81182">
        <ele>244</ele>
        <time>2018-03-08T10:24:31Z</time>
      </trkpt>
      <trkpt lat="45.94148" lon="4.81185">
        <ele>244</ele>
        <time>2018-03-08T10:24:32Z</time>
      </trkpt>
      <trkpt lat="45.9415" lon="4.81195">
        <ele>244</ele>
        <time>2018-03-08T10:24:35Z</time>
      </trkpt>
      <trkpt lat="45.94151" lon="4.81198">
        <ele>244</ele>
        <time>2018-03-08T10:24:36Z</time>
      </trkpt>
      <trkpt lat="45.94153" lon="4.81209">
        <ele>244</ele>
        <time>2018-03-08T10:24:39Z</time>
      </trkpt>
      <trkpt lat="45.94154" lon="4.81212">
        <ele>245</ele>
        <time>2018-03-08T10:24:40Z</time>
      </trkpt>
      <trkpt lat="45.94156" lon="4.81222">
        <ele>245</ele>
        <time>2018-03-08T10:24:44Z</time>
      </trkpt>
      <trkpt lat="45.94157" lon="4.81224">
        <ele>245</ele>
        <time>2018-03-08T10:24:45Z</time>
      </trkpt>
      <trkpt lat="45.94159" lon="4.81236">
        <ele>247</ele>
        <time>2018-03-08T10:24:49Z</time>
      </trkpt>
      <trkpt lat="45.94159" lon="4.81239">
        <ele>247</ele>
        <time>2018-03-08T10:24:50Z</time>
      </trkpt>
      <trkpt lat="45.94161" lon="4.81249">
        <ele>249</ele>
        <time>2018-03-08T10:24:55Z</time>
      </trkpt>
      <trkpt lat="45.94162" lon="4.81251">
        <ele>249</ele>
        <time>2018-03-08T10:24:56Z</time>
      </trkpt>
      <trkpt lat="45.94163" lon="4.81261">
        <ele>248</ele>
        <time>2018-03-08T10:24:59Z</time>
      </trkpt>
      <trkpt lat="45.94163" lon="4.81265">
        <ele>248</ele>
        <time>2018-03-08T10:25:00Z</time>
      </trkpt>
      <trkpt lat="45.94164" lon="4.81278">
        <ele>247</ele>
        <time>2018-03-08T10:25:03Z</time>
      </trkpt>
      <trkpt lat="45.94165" lon="4.81282">
        <ele>247</ele>
        <time>2018-03-08T10:25:04Z</time>
      </trkpt>
      <trkpt lat="45.94166" lon="4.81293">
        <ele>247</ele>
        <time>2018-03-08T10:25:07Z</time>
      </trkpt>
      <trkpt lat="45.94166" lon="4.81296">
        <ele>247</ele>
        <time>2018-03-08T10:25:08Z</time>
      </trkpt>
      <trkpt lat="45.94166" lon="4.81298">
        <ele>247</ele>
        <time>2018-03-08T10:25:09Z</time>
      </trkpt>
      <trkpt lat="45.94166" lon="4.81301">
        <ele>248</ele>
        <time>2018-03-08T10:25:10Z</time>
      </trkpt>
      <trkpt lat="45.94165" lon="4.81313">
        <ele>248</ele>
        <time>2018-03-08T10:25:16Z</time>
      </trkpt>
      <trkpt lat="45.94164" lon="4.81314">
        <ele>248</ele>
        <time>2018-03-08T10:25:17Z</time>
      </trkpt>
      <trkpt lat="45.94163" lon="4.81323">
        <ele>250</ele>
        <time>2018-03-08T10:25:21Z</time>
      </trkpt>
      <trkpt lat="45.94163" lon="4.81327">
        <ele>250</ele>
        <time>2018-03-08T10:25:22Z</time>
      </trkpt>
      <trkpt lat="45.94162" lon="4.81337">
        <ele>251</ele>
        <time>2018-03-08T10:25:25Z</time>
      </trkpt>
      <trkpt lat="45.94162" lon="4.81341">
        <ele>251</ele>
        <time>2018-03-08T10:25:26Z</time>
      </trkpt>
      <trkpt lat="45.94162" lon="4.81351">
        <ele>251</ele>
        <time>2018-03-08T10:25:29Z</time>
      </trkpt>
      <trkpt lat="45.94162" lon="4.81354">
        <ele>251</ele>
        <time>2018-03-08T10:25:30Z</time>
      </trkpt>
      <trkpt lat="45.9416" lon="4.81365">
        <ele>250</ele>
        <time>2018-03-08T10:25:35Z</time>
      </trkpt>
      <trkpt lat="45.94159" lon="4.81367">
        <ele>251</ele>
        <time>2018-03-08T10:25:36Z</time>
      </trkpt>
      <trkpt lat="45.94158" lon="4.81379">
        <ele>251</ele>
        <time>2018-03-08T10:25:40Z</time>
      </trkpt>
      <trkpt lat="45.94158" lon="4.81381">
        <ele>251</ele>
        <time>2018-03-08T10:25:41Z</time>
      </trkpt>
      <trkpt lat="45.94157" lon="4.81394">
        <ele>252</ele>
        <time>2018-03-08T10:25:45Z</time>
      </trkpt>
      <trkpt lat="45.94157" lon="4.81397">
        <ele>252</ele>
        <time>2018-03-08T10:25:46Z</time>
      </trkpt>
      <trkpt lat="45.94157" lon="4.81407">
        <ele>253</ele>
        <time>2018-03-08T10:25:49Z</time>
      </trkpt>
      <trkpt lat="45.94157" lon="4.8141">
        <ele>253</ele>
        <time>2018-03-08T10:25:50Z</time>
      </trkpt>
      <trkpt lat="45.94155" lon="4.81422">
        <ele>256</ele>
        <time>2018-03-08T10:25:54Z</time>
      </trkpt>
      <trkpt lat="45.94154" lon="4.81426">
        <ele>256</ele>
        <time>2018-03-08T10:25:55Z</time>
      </trkpt>
      <trkpt lat="45.94153" lon="4.81435">
        <ele>256</ele>
        <time>2018-03-08T10:25:58Z</time>
      </trkpt>
      <trkpt lat="45.94152" lon="4.81439">
        <ele>256</ele>
        <time>2018-03-08T10:25:59Z</time>
      </trkpt>
      <trkpt lat="45.94152" lon="4.81448">
        <ele>256</ele>
        <time>2018-03-08T10:26:01Z</time>
      </trkpt>
      <trkpt lat="45.94152" lon="4.81452">
        <ele>257</ele>
        <time>2018-03-08T10:26:02Z</time>
      </trkpt>
      <trkpt lat="45.94153" lon="4.81461">
        <ele>257</ele>
        <time>2018-03-08T10:26:04Z</time>
      </trkpt>
      <trkpt lat="45.94153" lon="4.81465">
        <ele>257</ele>
        <time>2018-03-08T10:26:05Z</time>
      </trkpt>
      <trkpt lat="45.94153" lon="4.81478">
        <ele>259</ele>
        <time>2018-03-08T10:26:08Z</time>
      </trkpt>
      <trkpt lat="45.94153" lon="4.81481">
        <ele>259</ele>
        <time>2018-03-08T10:26:09Z</time>
      </trkpt>
      <trkpt lat="45.94152" lon="4.81494">
        <ele>260</ele>
        <time>2018-03-08T10:26:12Z</time>
      </trkpt>
      <trkpt lat="45.94152" lon="4.81498">
        <ele>260</ele>
        <time>2018-03-08T10:26:13Z</time>
      </trkpt>
      <trkpt lat="45.94152" lon="4.81507">
        <ele>263</ele>
        <time>2018-03-08T10:26:15Z</time>
      </trkpt>
      <trkpt lat="45.94152" lon="4.81512">
        <ele>263</ele>
        <time>2018-03-08T10:26:16Z</time>
      </trkpt>
      <trkpt lat="45.94153" lon="4.81521">
        <ele>263</ele>
        <time>2018-03-08T10:26:18Z</time>
      </trkpt>
      <trkpt lat="45.94153" lon="4.81525">
        <ele>263</ele>
        <time>2018-03-08T10:26:19Z</time>
      </trkpt>
      <trkpt lat="45.94153" lon="4.81536">
        <ele>264</ele>
        <time>2018-03-08T10:26:22Z</time>
      </trkpt>
      <trkpt lat="45.94153" lon="4.81538">
        <ele>264</ele>
        <time>2018-03-08T10:26:23Z</time>
      </trkpt>
      <trkpt lat="45.94151" lon="4.8155">
        <ele>264</ele>
        <time>2018-03-08T10:26:28Z</time>
      </trkpt>
      <trkpt lat="45.94151" lon="4.81553">
        <ele>264</ele>
        <time>2018-03-08T10:26:29Z</time>
      </trkpt>
      <trkpt lat="45.94149" lon="4.81562">
        <ele>265</ele>
        <time>2018-03-08T10:26:33Z</time>
      </trkpt>
      <trkpt lat="45.94149" lon="4.81566">
        <ele>265</ele>
        <time>2018-03-08T10:26:34Z</time>
      </trkpt>
      <trkpt lat="45.94151" lon="4.81578">
        <ele>265</ele>
        <time>2018-03-08T10:26:37Z</time>
      </trkpt>
      <trkpt lat="45.94152" lon="4.81582">
        <ele>266</ele>
        <time>2018-03-08T10:26:38Z</time>
      </trkpt>
      <trkpt lat="45.94154" lon="4.81594">
        <ele>267</ele>
        <time>2018-03-08T10:26:41Z</time>
      </trkpt>
      <trkpt lat="45.94155" lon="4.81598">
        <ele>267</ele>
        <time>2018-03-08T10:26:42Z</time>
      </trkpt>
      <trkpt lat="45.94157" lon="4.8161">
        <ele>267</ele>
        <time>2018-03-08T10:26:45Z</time>
      </trkpt>
      <trkpt lat="45.94158" lon="4.81615">
        <ele>267</ele>
        <time>2018-03-08T10:26:46Z</time>
      </trkpt>
      <trkpt lat="45.9416" lon="4.81623">
        <ele>268</ele>
        <time>2018-03-08T10:26:48Z</time>
      </trkpt>
      <trkpt lat="45.94162" lon="4.81626">
        <ele>268</ele>
        <time>2018-03-08T10:26:49Z</time>
      </trkpt>
      <trkpt lat="45.94165" lon="4.81636">
        <ele>268</ele>
        <time>2018-03-08T10:26:52Z</time>
      </trkpt>
      <trkpt lat="45.94166" lon="4.8164">
        <ele>268</ele>
        <time>2018-03-08T10:26:53Z</time>
      </trkpt>
      <trkpt lat="45.94168" lon="4.81651">
        <ele>268</ele>
        <time>2018-03-08T10:26:56Z</time>
      </trkpt>
      <trkpt lat="45.94168" lon="4.81655">
        <ele>268</ele>
        <time>2018-03-08T10:26:57Z</time>
      </trkpt>
      <trkpt lat="45.9417" lon="4.81665">
        <ele>269</ele>
        <time>2018-03-08T10:27:00Z</time>
      </trkpt>
      <trkpt lat="45.94171" lon="4.81668">
        <ele>269</ele>
        <time>2018-03-08T10:27:01Z</time>
      </trkpt>
      <trkpt lat="45.94173" lon="4.81678">
        <ele>268</ele>
        <time>2018-03-08T10:27:04Z</time>
      </trkpt>
      <trkpt lat="45.94174" lon="4.81682">
        <ele>268</ele>
        <time>2018-03-08T10:27:05Z</time>
      </trkpt>
      <trkpt lat="45.94177" lon="4.81691">
        <ele>267</ele>
        <time>2018-03-08T10:27:08Z</time>
      </trkpt>
      <trkpt lat="45.94178" lon="4.81694">
        <ele>267</ele>
        <time>2018-03-08T10:27:09Z</time>
      </trkpt>
      <trkpt lat="45.94182" lon="4.81705">
        <ele>267</ele>
        <time>2018-03-08T10:27:12Z</time>
      </trkpt>
      <trkpt lat="45.94183" lon="4.81709">
        <ele>267</ele>
        <time>2018-03-08T10:27:13Z</time>
      </trkpt>
      <trkpt lat="45.94185" lon="4.81718">
        <ele>267</ele>
        <time>2018-03-08T10:27:15Z</time>
      </trkpt>
      <trkpt lat="45.94185" lon="4.81723">
        <ele>267</ele>
        <time>2018-03-08T10:27:16Z</time>
      </trkpt>
      <trkpt lat="45.94186" lon="4.81732">
        <ele>267</ele>
        <time>2018-03-08T10:27:18Z</time>
      </trkpt>
      <trkpt lat="45.94186" lon="4.81737">
        <ele>267</ele>
        <time>2018-03-08T10:27:19Z</time>
      </trkpt>
      <trkpt lat="45.94189" lon="4.81746">
        <ele>267</ele>
        <time>2018-03-08T10:27:21Z</time>
      </trkpt>
      <trkpt lat="45.9419" lon="4.81751">
        <ele>266</ele>
        <time>2018-03-08T10:27:22Z</time>
      </trkpt>
      <trkpt lat="45.94194" lon="4.81765">
        <ele>266</ele>
        <time>2018-03-08T10:27:23Z</time>
      </trkpt>
      <trkpt lat="45.94196" lon="4.8177">
        <ele>266</ele>
        <time>2018-03-08T10:27:25Z</time>
      </trkpt>
      <trkpt lat="45.94197" lon="4.81779">
        <ele>266</ele>
        <time>2018-03-08T10:27:26Z</time>
      </trkpt>
      <trkpt lat="45.94197" lon="4.81792">
        <ele>266</ele>
        <time>2018-03-08T10:27:29Z</time>
      </trkpt>
      <trkpt lat="45.94197" lon="4.81794">
        <ele>266</ele>
        <time>2018-03-08T10:27:30Z</time>
      </trkpt>
      <trkpt lat="45.94198" lon="4.81804">
        <ele>266</ele>
        <time>2018-03-08T10:27:33Z</time>
      </trkpt>
      <trkpt lat="45.94198" lon="4.81807">
        <ele>266</ele>
        <time>2018-03-08T10:27:34Z</time>
      </trkpt>
      <trkpt lat="45.942" lon="4.81818">
        <ele>266</ele>
        <time>2018-03-08T10:27:35Z</time>
      </trkpt>
      <trkpt lat="45.94201" lon="4.81821">
        <ele>266</ele>
        <time>2018-03-08T10:27:36Z</time>
      </trkpt>
      <trkpt lat="45.94203" lon="4.81832">
        <ele>266</ele>
        <time>2018-03-08T10:27:39Z</time>
      </trkpt>
      <trkpt lat="45.94205" lon="4.81844">
        <ele>266</ele>
        <time>2018-03-08T10:27:40Z</time>
      </trkpt>
      <trkpt lat="45.94207" lon="4.81855">
        <ele>265</ele>
        <time>2018-03-08T10:27:42Z</time>
      </trkpt>
      <trkpt lat="45.94207" lon="4.81861">
        <ele>265</ele>
        <time>2018-03-08T10:27:43Z</time>
      </trkpt>
      <trkpt lat="45.94209" lon="4.81872">
        <ele>265</ele>
        <time>2018-03-08T10:27:45Z</time>
      </trkpt>
      <trkpt lat="45.9421" lon="4.81877">
        <ele>265</ele>
        <time>2018-03-08T10:27:46Z</time>
      </trkpt>
      <trkpt lat="45.94212" lon="4.81888">
        <ele>265</ele>
        <time>2018-03-08T10:27:48Z</time>
      </trkpt>
      <trkpt lat="45.94213" lon="4.81894">
        <ele>265</ele>
        <time>2018-03-08T10:27:49Z</time>
      </trkpt>
      <trkpt lat="45.94215" lon="4.819">
        <ele>265</ele>
        <time>2018-03-08T10:27:50Z</time>
      </trkpt>
      <trkpt lat="45.94216" lon="4.81907">
        <ele>265</ele>
        <time>2018-03-08T10:27:51Z</time>
      </trkpt>
      <trkpt lat="45.94217" lon="4.81913">
        <ele>265</ele>
        <time>2018-03-08T10:27:52Z</time>
      </trkpt>
      <trkpt lat="45.94219" lon="4.8192">
        <ele>264</ele>
        <time>2018-03-08T10:27:53Z</time>
      </trkpt>
      <trkpt lat="45.94222" lon="4.81932">
        <ele>264</ele>
        <time>2018-03-08T10:27:55Z</time>
      </trkpt>
      <trkpt lat="45.94224" lon="4.81939">
        <ele>264</ele>
        <time>2018-03-08T10:27:56Z</time>
      </trkpt>
      <trkpt lat="45.94226" lon="4.81945">
        <ele>264</ele>
        <time>2018-03-08T10:27:57Z</time>
      </trkpt>
      <trkpt lat="45.94226" lon="4.81954">
        <ele>264</ele>
        <time>2018-03-08T10:27:58Z</time>
      </trkpt>
      <trkpt lat="45.94227" lon="4.8196">
        <ele>264</ele>
        <time>2018-03-08T10:27:59Z</time>
      </trkpt>
      <trkpt lat="45.94229" lon="4.81967">
        <ele>264</ele>
        <time>2018-03-08T10:28:00Z</time>
      </trkpt>
      <trkpt lat="45.94231" lon="4.81978">
        <ele>264</ele>
        <time>2018-03-08T10:28:02Z</time>
      </trkpt>
      <trkpt lat="45.94233" lon="4.81983">
        <ele>263</ele>
        <time>2018-03-08T10:28:03Z</time>
      </trkpt>
      <trkpt lat="45.94234" lon="4.81995">
        <ele>263</ele>
        <time>2018-03-08T10:28:05Z</time>
      </trkpt>
      <trkpt lat="45.94235" lon="4.82">
        <ele>263</ele>
        <time>2018-03-08T10:28:06Z</time>
      </trkpt>
      <trkpt lat="45.94235" lon="4.82008">
        <ele>263</ele>
        <time>2018-03-08T10:28:07Z</time>
      </trkpt>
      <trkpt lat="45.94237" lon="4.82013">
        <ele>263</ele>
        <time>2018-03-08T10:28:08Z</time>
      </trkpt>
      <trkpt lat="45.94237" lon="4.82024">
        <ele>263</ele>
        <time>2018-03-08T10:28:10Z</time>
      </trkpt>
      <trkpt lat="45.94237" lon="4.82027">
        <ele>263</ele>
        <time>2018-03-08T10:28:11Z</time>
      </trkpt>
      <trkpt lat="45.9424" lon="4.82039">
        <ele>263</ele>
        <time>2018-03-08T10:28:12Z</time>
      </trkpt>
      <trkpt lat="45.94242" lon="4.82043">
        <ele>263</ele>
        <time>2018-03-08T10:28:13Z</time>
      </trkpt>
      <trkpt lat="45.94243" lon="4.82051">
        <ele>263</ele>
        <time>2018-03-08T10:28:14Z</time>
      </trkpt>
      <trkpt lat="45.94243" lon="4.82057">
        <ele>263</ele>
        <time>2018-03-08T10:28:15Z</time>
      </trkpt>
      <trkpt lat="45.94245" lon="4.82068">
        <ele>263</ele>
        <time>2018-03-08T10:28:17Z</time>
      </trkpt>
      <trkpt lat="45.94247" lon="4.82073">
        <ele>263</ele>
        <time>2018-03-08T10:28:18Z</time>
      </trkpt>
      <trkpt lat="45.94247" lon="4.8208">
        <ele>262</ele>
        <time>2018-03-08T10:28:20Z</time>
      </trkpt>
      <trkpt lat="45.94249" lon="4.82091">
        <ele>263</ele>
        <time>2018-03-08T10:28:21Z</time>
      </trkpt>
      <trkpt lat="45.94251" lon="4.82095">
        <ele>262</ele>
        <time>2018-03-08T10:28:22Z</time>
      </trkpt>
      <trkpt lat="45.94253" lon="4.82103">
        <ele>262</ele>
        <time>2018-03-08T10:28:23Z</time>
      </trkpt>
      <trkpt lat="45.94254" lon="4.82109">
        <ele>263</ele>
        <time>2018-03-08T10:28:24Z</time>
      </trkpt>
      <trkpt lat="45.94256" lon="4.82116">
        <ele>263</ele>
        <time>2018-03-08T10:28:25Z</time>
      </trkpt>
      <trkpt lat="45.94257" lon="4.82122">
        <ele>263</ele>
        <time>2018-03-08T10:28:26Z</time>
      </trkpt>
      <trkpt lat="45.94259" lon="4.82128">
        <ele>263</ele>
        <time>2018-03-08T10:28:27Z</time>
      </trkpt>
      <trkpt lat="45.94261" lon="4.82135">
        <ele>263</ele>
        <time>2018-03-08T10:28:28Z</time>
      </trkpt>
      <trkpt lat="45.94262" lon="4.82141">
        <ele>263</ele>
        <time>2018-03-08T10:28:29Z</time>
      </trkpt>
      <trkpt lat="45.94263" lon="4.82149">
        <ele>263</ele>
        <time>2018-03-08T10:28:30Z</time>
      </trkpt>
      <trkpt lat="45.94267" lon="4.82157">
        <ele>263</ele>
        <time>2018-03-08T10:28:31Z</time>
      </trkpt>
      <trkpt lat="45.94268" lon="4.82164">
        <ele>263</ele>
        <time>2018-03-08T10:28:32Z</time>
      </trkpt>
      <trkpt lat="45.9427" lon="4.8217">
        <ele>264</ele>
        <time>2018-03-08T10:28:33Z</time>
      </trkpt>
      <trkpt lat="45.94272" lon="4.82181">
        <ele>264</ele>
        <time>2018-03-08T10:28:35Z</time>
      </trkpt>
      <trkpt lat="45.94273" lon="4.82188">
        <ele>264</ele>
        <time>2018-03-08T10:28:36Z</time>
      </trkpt>
      <trkpt lat="45.94274" lon="4.82195">
        <ele>264</ele>
        <time>2018-03-08T10:28:37Z</time>
      </trkpt>
      <trkpt lat="45.94275" lon="4.82201">
        <ele>264</ele>
        <time>2018-03-08T10:28:38Z</time>
      </trkpt>
      <trkpt lat="45.94274" lon="4.82207">
        <ele>264</ele>
        <time>2018-03-08T10:28:40Z</time>
      </trkpt>
      <trkpt lat="45.94273" lon="4.82214">
        <ele>264</ele>
        <time>2018-03-08T10:28:41Z</time>
      </trkpt>
      <trkpt lat="45.94274" lon="4.82221">
        <ele>264</ele>
        <time>2018-03-08T10:28:42Z</time>
      </trkpt>
      <trkpt lat="45.94273" lon="4.82228">
        <ele>264</ele>
        <time>2018-03-08T10:28:43Z</time>
      </trkpt>
      <trkpt lat="45.94275" lon="4.82238">
        <ele>264</ele>
        <time>2018-03-08T10:28:44Z</time>
      </trkpt>
      <trkpt lat="45.94276" lon="4.82244">
        <ele>264</ele>
        <time>2018-03-08T10:28:45Z</time>
      </trkpt>
      <trkpt lat="45.94277" lon="4.82256">
        <ele>265</ele>
        <time>2018-03-08T10:28:47Z</time>
      </trkpt>
      <trkpt lat="45.94277" lon="4.82264">
        <ele>265</ele>
        <time>2018-03-08T10:28:48Z</time>
      </trkpt>
      <trkpt lat="45.94277" lon="4.82271">
        <ele>265</ele>
        <time>2018-03-08T10:28:49Z</time>
      </trkpt>
      <trkpt lat="45.9428" lon="4.82279">
        <ele>265</ele>
        <time>2018-03-08T10:28:50Z</time>
      </trkpt>
      <trkpt lat="45.9428" lon="4.82285">
        <ele>265</ele>
        <time>2018-03-08T10:28:51Z</time>
      </trkpt>
      <trkpt lat="45.9428" lon="4.82293">
        <ele>265</ele>
        <time>2018-03-08T10:28:52Z</time>
      </trkpt>
      <trkpt lat="45.9428" lon="4.82299">
        <ele>265</ele>
        <time>2018-03-08T10:28:53Z</time>
      </trkpt>
      <trkpt lat="45.94278" lon="4.82305">
        <ele>265</ele>
        <time>2018-03-08T10:28:54Z</time>
      </trkpt>
      <trkpt lat="45.94279" lon="4.82316">
        <ele>265</ele>
        <time>2018-03-08T10:28:56Z</time>
      </trkpt>
      <trkpt lat="45.94279" lon="4.82323">
        <ele>265</ele>
        <time>2018-03-08T10:28:57Z</time>
      </trkpt>
      <trkpt lat="45.9428" lon="4.82334">
        <ele>264</ele>
        <time>2018-03-08T10:28:59Z</time>
      </trkpt>
      <trkpt lat="45.94281" lon="4.8234">
        <ele>264</ele>
        <time>2018-03-08T10:29:00Z</time>
      </trkpt>
      <trkpt lat="45.9428" lon="4.82352">
        <ele>264</ele>
        <time>2018-03-08T10:29:02Z</time>
      </trkpt>
      <trkpt lat="45.9428" lon="4.82357">
        <ele>264</ele>
        <time>2018-03-08T10:29:03Z</time>
      </trkpt>
      <trkpt lat="45.9428" lon="4.82369">
        <ele>264</ele>
        <time>2018-03-08T10:29:05Z</time>
      </trkpt>
      <trkpt lat="45.9428" lon="4.82374">
        <ele>264</ele>
        <time>2018-03-08T10:29:06Z</time>
      </trkpt>
      <trkpt lat="45.94281" lon="4.82386">
        <ele>264</ele>
        <time>2018-03-08T10:29:08Z</time>
      </trkpt>
      <trkpt lat="45.94281" lon="4.82391">
        <ele>264</ele>
        <time>2018-03-08T10:29:09Z</time>
      </trkpt>
      <trkpt lat="45.94282" lon="4.82403">
        <ele>264</ele>
        <time>2018-03-08T10:29:11Z</time>
      </trkpt>
      <trkpt lat="45.94283" lon="4.82409">
        <ele>264</ele>
        <time>2018-03-08T10:29:12Z</time>
      </trkpt>
      <trkpt lat="45.94284" lon="4.8242">
        <ele>264</ele>
        <time>2018-03-08T10:29:14Z</time>
      </trkpt>
      <trkpt lat="45.94285" lon="4.82426">
        <ele>264</ele>
        <time>2018-03-08T10:29:15Z</time>
      </trkpt>
      <trkpt lat="45.94286" lon="4.82437">
        <ele>264</ele>
        <time>2018-03-08T10:29:17Z</time>
      </trkpt>
      <trkpt lat="45.94286" lon="4.82442">
        <ele>264</ele>
        <time>2018-03-08T10:29:18Z</time>
      </trkpt>
      <trkpt lat="45.94287" lon="4.82453">
        <ele>264</ele>
        <time>2018-03-08T10:29:20Z</time>
      </trkpt>
      <trkpt lat="45.94287" lon="4.82459">
        <ele>264</ele>
        <time>2018-03-08T10:29:21Z</time>
      </trkpt>
      <trkpt lat="45.94288" lon="4.82471">
        <ele>264</ele>
        <time>2018-03-08T10:29:23Z</time>
      </trkpt>
      <trkpt lat="45.94289" lon="4.82478">
        <ele>264</ele>
        <time>2018-03-08T10:29:24Z</time>
      </trkpt>
      <trkpt lat="45.9429" lon="4.8249">
        <ele>264</ele>
        <time>2018-03-08T10:29:26Z</time>
      </trkpt>
      <trkpt lat="45.9429" lon="4.82496">
        <ele>264</ele>
        <time>2018-03-08T10:29:27Z</time>
      </trkpt>
      <trkpt lat="45.94291" lon="4.82508">
        <ele>264</ele>
        <time>2018-03-08T10:29:29Z</time>
      </trkpt>
      <trkpt lat="45.94291" lon="4.82514">
        <ele>264</ele>
        <time>2018-03-08T10:29:30Z</time>
      </trkpt>
      <trkpt lat="45.94291" lon="4.82526">
        <ele>264</ele>
        <time>2018-03-08T10:29:32Z</time>
      </trkpt>
      <trkpt lat="45.94291" lon="4.82533">
        <ele>264</ele>
        <time>2018-03-08T10:29:33Z</time>
      </trkpt>
      <trkpt lat="45.9429" lon="4.82544">
        <ele>264</ele>
        <time>2018-03-08T10:29:35Z</time>
      </trkpt>
      <trkpt lat="45.9429" lon="4.8255">
        <ele>264</ele>
        <time>2018-03-08T10:29:36Z</time>
      </trkpt>
      <trkpt lat="45.94291" lon="4.82562">
        <ele>264</ele>
        <time>2018-03-08T10:29:38Z</time>
      </trkpt>
      <trkpt lat="45.94291" lon="4.82569">
        <ele>264</ele>
        <time>2018-03-08T10:29:39Z</time>
      </trkpt>
      <trkpt lat="45.94291" lon="4.82581">
        <ele>265</ele>
        <time>2018-03-08T10:29:41Z</time>
      </trkpt>
      <trkpt lat="45.94291" lon="4.82587">
        <ele>265</ele>
        <time>2018-03-08T10:29:42Z</time>
      </trkpt>
      <trkpt lat="45.94291" lon="4.826">
        <ele>265</ele>
        <time>2018-03-08T10:29:44Z</time>
      </trkpt>
      <trkpt lat="45.94291" lon="4.82606">
        <ele>265</ele>
        <time>2018-03-08T10:29:45Z</time>
      </trkpt>
      <trkpt lat="45.94291" lon="4.82618">
        <ele>265</ele>
        <time>2018-03-08T10:29:47Z</time>
      </trkpt>
      <trkpt lat="45.9429" lon="4.82624">
        <ele>265</ele>
        <time>2018-03-08T10:29:48Z</time>
      </trkpt>
      <trkpt lat="45.9429" lon="4.82635">
        <ele>265</ele>
        <time>2018-03-08T10:29:50Z</time>
      </trkpt>
      <trkpt lat="45.9429" lon="4.82641">
        <ele>265</ele>
        <time>2018-03-08T10:29:51Z</time>
      </trkpt>
      <trkpt lat="45.94288" lon="4.82653">
        <ele>265</ele>
        <time>2018-03-08T10:29:53Z</time>
      </trkpt>
      <trkpt lat="45.94288" lon="4.82659">
        <ele>265</ele>
        <time>2018-03-08T10:29:54Z</time>
      </trkpt>
      <trkpt lat="45.94288" lon="4.82667">
        <ele>265</ele>
        <time>2018-03-08T10:29:55Z</time>
      </trkpt>
      <trkpt lat="45.94289" lon="4.82673">
        <ele>265</ele>
        <time>2018-03-08T10:29:56Z</time>
      </trkpt>
      <trkpt lat="45.9429" lon="4.82685">
        <ele>265</ele>
        <time>2018-03-08T10:29:58Z</time>
      </trkpt>
      <trkpt lat="45.9429" lon="4.82693">
        <ele>265</ele>
        <time>2018-03-08T10:29:59Z</time>
      </trkpt>
      <trkpt lat="45.94289" lon="4.82699">
        <ele>265</ele>
        <time>2018-03-08T10:30:00Z</time>
      </trkpt>
      <trkpt lat="45.94289" lon="4.82706">
        <ele>265</ele>
        <time>2018-03-08T10:30:01Z</time>
      </trkpt>
      <trkpt lat="45.94289" lon="4.82717">
        <ele>265</ele>
        <time>2018-03-08T10:30:03Z</time>
      </trkpt>
      <trkpt lat="45.94289" lon="4.82724">
        <ele>265</ele>
        <time>2018-03-08T10:30:04Z</time>
      </trkpt>
      <trkpt lat="45.94287" lon="4.82737">
        <ele>265</ele>
        <time>2018-03-08T10:30:06Z</time>
      </trkpt>
      <trkpt lat="45.94288" lon="4.82743">
        <ele>265</ele>
        <time>2018-03-08T10:30:07Z</time>
      </trkpt>
      <trkpt lat="45.94288" lon="4.82749">
        <ele>265</ele>
        <time>2018-03-08T10:30:08Z</time>
      </trkpt>
      <trkpt lat="45.94288" lon="4.82756">
        <ele>265</ele>
        <time>2018-03-08T10:30:09Z</time>
      </trkpt>
      <trkpt lat="45.94287" lon="4.82768">
        <ele>265</ele>
        <time>2018-03-08T10:30:11Z</time>
      </trkpt>
      <trkpt lat="45.94287" lon="4.82774">
        <ele>265</ele>
        <time>2018-03-08T10:30:12Z</time>
      </trkpt>
      <trkpt lat="45.94287" lon="4.82787">
        <ele>265</ele>
        <time>2018-03-08T10:30:14Z</time>
      </trkpt>
      <trkpt lat="45.94287" lon="4.82793">
        <ele>265</ele>
        <time>2018-03-08T10:30:15Z</time>
      </trkpt>
      <trkpt lat="45.94287" lon="4.82799">
        <ele>265</ele>
        <time>2018-03-08T10:30:16Z</time>
      </trkpt>
      <trkpt lat="45.94287" lon="4.82806">
        <ele>265</ele>
        <time>2018-03-08T10:30:17Z</time>
      </trkpt>
      <trkpt lat="45.94287" lon="4.82812">
        <ele>265</ele>
        <time>2018-03-08T10:30:18Z</time>
      </trkpt>
      <trkpt lat="45.94287" lon="4.8282">
        <ele>265</ele>
        <time>2018-03-08T10:30:19Z</time>
      </trkpt>
      <trkpt lat="45.94288" lon="4.82832">
        <ele>265</ele>
        <time>2018-03-08T10:30:21Z</time>
      </trkpt>
      <trkpt lat="45.94287" lon="4.82838">
        <ele>265</ele>
        <time>2018-03-08T10:30:22Z</time>
      </trkpt>
      <trkpt lat="45.94287" lon="4.8285">
        <ele>265</ele>
        <time>2018-03-08T10:30:24Z</time>
      </trkpt>
      <trkpt lat="45.94287" lon="4.82857">
        <ele>265</ele>
        <time>2018-03-08T10:30:25Z</time>
      </trkpt>
      <trkpt lat="45.94286" lon="4.82869">
        <ele>265</ele>
        <time>2018-03-08T10:30:27Z</time>
      </trkpt>
      <trkpt lat="45.94285" lon="4.82876">
        <ele>265</ele>
        <time>2018-03-08T10:30:28Z</time>
      </trkpt>
      <trkpt lat="45.94286" lon="4.82889">
        <ele>265</ele>
        <time>2018-03-08T10:30:30Z</time>
      </trkpt>
      <trkpt lat="45.94286" lon="4.82897">
        <ele>265</ele>
        <time>2018-03-08T10:30:31Z</time>
      </trkpt>
      <trkpt lat="45.94286" lon="4.82909">
        <ele>265</ele>
        <time>2018-03-08T10:30:33Z</time>
      </trkpt>
      <trkpt lat="45.94285" lon="4.82917">
        <ele>265</ele>
        <time>2018-03-08T10:30:34Z</time>
      </trkpt>
      <trkpt lat="45.94284" lon="4.82923">
        <ele>265</ele>
        <time>2018-03-08T10:30:35Z</time>
      </trkpt>
      <trkpt lat="45.94282" lon="4.82929">
        <ele>265</ele>
        <time>2018-03-08T10:30:36Z</time>
      </trkpt>
      <trkpt lat="45.94281" lon="4.82936">
        <ele>265</ele>
        <time>2018-03-08T10:30:37Z</time>
      </trkpt>
      <trkpt lat="45.94281" lon="4.82943">
        <ele>265</ele>
        <time>2018-03-08T10:30:38Z</time>
      </trkpt>
      <trkpt lat="45.94281" lon="4.8295">
        <ele>265</ele>
        <time>2018-03-08T10:30:39Z</time>
      </trkpt>
      <trkpt lat="45.94282" lon="4.82958">
        <ele>265</ele>
        <time>2018-03-08T10:30:40Z</time>
      </trkpt>
      <trkpt lat="45.94284" lon="4.82965">
        <ele>265</ele>
        <time>2018-03-08T10:30:41Z</time>
      </trkpt>
      <trkpt lat="45.94285" lon="4.82972">
        <ele>265</ele>
        <time>2018-03-08T10:30:42Z</time>
      </trkpt>
      <trkpt lat="45.94288" lon="4.82978">
        <ele>265</ele>
        <time>2018-03-08T10:30:43Z</time>
      </trkpt>
      <trkpt lat="45.94291" lon="4.82985">
        <ele>265</ele>
        <time>2018-03-08T10:30:44Z</time>
      </trkpt>
      <trkpt lat="45.94292" lon="4.82992">
        <ele>265</ele>
        <time>2018-03-08T10:30:45Z</time>
      </trkpt>
      <trkpt lat="45.94294" lon="4.82999">
        <ele>265</ele>
        <time>2018-03-08T10:30:46Z</time>
      </trkpt>
      <trkpt lat="45.94296" lon="4.83006">
        <ele>266</ele>
        <time>2018-03-08T10:30:47Z</time>
      </trkpt>
      <trkpt lat="45.94297" lon="4.83011">
        <ele>266</ele>
        <time>2018-03-08T10:30:48Z</time>
      </trkpt>
      <trkpt lat="45.943" lon="4.83023">
        <ele>266</ele>
        <time>2018-03-08T10:30:50Z</time>
      </trkpt>
      <trkpt lat="45.943" lon="4.8303">
        <ele>266</ele>
        <time>2018-03-08T10:30:51Z</time>
      </trkpt>
      <trkpt lat="45.94301" lon="4.83036">
        <ele>266</ele>
        <time>2018-03-08T10:30:52Z</time>
      </trkpt>
      <trkpt lat="45.94303" lon="4.83043">
        <ele>266</ele>
        <time>2018-03-08T10:30:53Z</time>
      </trkpt>
      <trkpt lat="45.94304" lon="4.8305">
        <ele>266</ele>
        <time>2018-03-08T10:30:54Z</time>
      </trkpt>
      <trkpt lat="45.94306" lon="4.83056">
        <ele>266</ele>
        <time>2018-03-08T10:30:55Z</time>
      </trkpt>
      <trkpt lat="45.94308" lon="4.83063">
        <ele>266</ele>
        <time>2018-03-08T10:30:56Z</time>
      </trkpt>
      <trkpt lat="45.94309" lon="4.83069">
        <ele>266</ele>
        <time>2018-03-08T10:30:57Z</time>
      </trkpt>
      <trkpt lat="45.9431" lon="4.83081">
        <ele>266</ele>
        <time>2018-03-08T10:30:59Z</time>
      </trkpt>
      <trkpt lat="45.94312" lon="4.83087">
        <ele>266</ele>
        <time>2018-03-08T10:31:00Z</time>
      </trkpt>
      <trkpt lat="45.94315" lon="4.83093">
        <ele>266</ele>
        <time>2018-03-08T10:31:01Z</time>
      </trkpt>
      <trkpt lat="45.94317" lon="4.83099">
        <ele>266</ele>
        <time>2018-03-08T10:31:02Z</time>
      </trkpt>
      <trkpt lat="45.94318" lon="4.83105">
        <ele>266</ele>
        <time>2018-03-08T10:31:03Z</time>
      </trkpt>
      <trkpt lat="45.9432" lon="4.83111">
        <ele>266</ele>
        <time>2018-03-08T10:31:04Z</time>
      </trkpt>
      <trkpt lat="45.94322" lon="4.83117">
        <ele>266</ele>
        <time>2018-03-08T10:31:05Z</time>
      </trkpt>
      <trkpt lat="45.94325" lon="4.83124">
        <ele>266</ele>
        <time>2018-03-08T10:31:06Z</time>
      </trkpt>
      <trkpt lat="45.94327" lon="4.8313">
        <ele>266</ele>
        <time>2018-03-08T10:31:07Z</time>
      </trkpt>
      <trkpt lat="45.9433" lon="4.83137">
        <ele>266</ele>
        <time>2018-03-08T10:31:08Z</time>
      </trkpt>
      <trkpt lat="45.94332" lon="4.83143">
        <ele>266</ele>
        <time>2018-03-08T10:31:09Z</time>
      </trkpt>
      <trkpt lat="45.94333" lon="4.83149">
        <ele>266</ele>
        <time>2018-03-08T10:31:10Z</time>
      </trkpt>
      <trkpt lat="45.94337" lon="4.83157">
        <ele>266</ele>
        <time>2018-03-08T10:31:11Z</time>
      </trkpt>
      <trkpt lat="45.94339" lon="4.83163">
        <ele>266</ele>
        <time>2018-03-08T10:31:12Z</time>
      </trkpt>
      <trkpt lat="45.94341" lon="4.8317">
        <ele>266</ele>
        <time>2018-03-08T10:31:13Z</time>
      </trkpt>
      <trkpt lat="45.94344" lon="4.83177">
        <ele>266</ele>
        <time>2018-03-08T10:31:14Z</time>
      </trkpt>
      <trkpt lat="45.94346" lon="4.83184">
        <ele>266</ele>
        <time>2018-03-08T10:31:15Z</time>
      </trkpt>
      <trkpt lat="45.94349" lon="4.8319">
        <ele>266</ele>
        <time>2018-03-08T10:31:16Z</time>
      </trkpt>
      <trkpt lat="45.94351" lon="4.83197">
        <ele>266</ele>
        <time>2018-03-08T10:31:17Z</time>
      </trkpt>
      <trkpt lat="45.94353" lon="4.83203">
        <ele>266</ele>
        <time>2018-03-08T10:31:18Z</time>
      </trkpt>
      <trkpt lat="45.94356" lon="4.8321">
        <ele>266</ele>
        <time>2018-03-08T10:31:19Z</time>
      </trkpt>
      <trkpt lat="45.94358" lon="4.83216">
        <ele>266</ele>
        <time>2018-03-08T10:31:20Z</time>
      </trkpt>
      <trkpt lat="45.9436" lon="4.83222">
        <ele>266</ele>
        <time>2018-03-08T10:31:21Z</time>
      </trkpt>
      <trkpt lat="45.94363" lon="4.83227">
        <ele>266</ele>
        <time>2018-03-08T10:31:22Z</time>
      </trkpt>
      <trkpt lat="45.94365" lon="4.83233">
        <ele>266</ele>
        <time>2018-03-08T10:31:23Z</time>
      </trkpt>
      <trkpt lat="45.94367" lon="4.8324">
        <ele>265</ele>
        <time>2018-03-08T10:31:24Z</time>
      </trkpt>
      <trkpt lat="45.94368" lon="4.83245">
        <ele>265</ele>
        <time>2018-03-08T10:31:25Z</time>
      </trkpt>
      <trkpt lat="45.9437" lon="4.83252">
        <ele>265</ele>
        <time>2018-03-08T10:31:26Z</time>
      </trkpt>
      <trkpt lat="45.94372" lon="4.83259">
        <ele>265</ele>
        <time>2018-03-08T10:31:27Z</time>
      </trkpt>
      <trkpt lat="45.94374" lon="4.83266">
        <ele>264</ele>
        <time>2018-03-08T10:31:28Z</time>
      </trkpt>
      <trkpt lat="45.94376" lon="4.83273">
        <ele>264</ele>
        <time>2018-03-08T10:31:29Z</time>
      </trkpt>
      <trkpt lat="45.94378" lon="4.83279">
        <ele>264</ele>
        <time>2018-03-08T10:31:30Z</time>
      </trkpt>
      <trkpt lat="45.94381" lon="4.83286">
        <ele>264</ele>
        <time>2018-03-08T10:31:31Z</time>
      </trkpt>
      <trkpt lat="45.94383" lon="4.83294">
        <ele>264</ele>
        <time>2018-03-08T10:31:32Z</time>
      </trkpt>
      <trkpt lat="45.94385" lon="4.83301">
        <ele>264</ele>
        <time>2018-03-08T10:31:33Z</time>
      </trkpt>
      <trkpt lat="45.94388" lon="4.83308">
        <ele>264</ele>
        <time>2018-03-08T10:31:34Z</time>
      </trkpt>
      <trkpt lat="45.9439" lon="4.83317">
        <ele>264</ele>
        <time>2018-03-08T10:31:35Z</time>
      </trkpt>
      <trkpt lat="45.94393" lon="4.83324">
        <ele>264</ele>
        <time>2018-03-08T10:31:36Z</time>
      </trkpt>
      <trkpt lat="45.94396" lon="4.83332">
        <ele>264</ele>
        <time>2018-03-08T10:31:37Z</time>
      </trkpt>
      <trkpt lat="45.94398" lon="4.83338">
        <ele>263</ele>
        <time>2018-03-08T10:31:38Z</time>
      </trkpt>
      <trkpt lat="45.94402" lon="4.83344">
        <ele>263</ele>
        <time>2018-03-08T10:31:39Z</time>
      </trkpt>
      <trkpt lat="45.94404" lon="4.83351">
        <ele>263</ele>
        <time>2018-03-08T10:31:40Z</time>
      </trkpt>
      <trkpt lat="45.94408" lon="4.83356">
        <ele>263</ele>
        <time>2018-03-08T10:31:41Z</time>
      </trkpt>
      <trkpt lat="45.9441" lon="4.83362">
        <ele>264</ele>
        <time>2018-03-08T10:31:42Z</time>
      </trkpt>
      <trkpt lat="45.94413" lon="4.83369">
        <ele>264</ele>
        <time>2018-03-08T10:31:43Z</time>
      </trkpt>
      <trkpt lat="45.94415" lon="4.83375">
        <ele>264</ele>
        <time>2018-03-08T10:31:44Z</time>
      </trkpt>
      <trkpt lat="45.94419" lon="4.83383">
        <ele>264</ele>
        <time>2018-03-08T10:31:45Z</time>
      </trkpt>
      <trkpt lat="45.94422" lon="4.83389">
        <ele>264</ele>
        <time>2018-03-08T10:31:46Z</time>
      </trkpt>
      <trkpt lat="45.94425" lon="4.83396">
        <ele>264</ele>
        <time>2018-03-08T10:31:47Z</time>
      </trkpt>
      <trkpt lat="45.94428" lon="4.83403">
        <ele>264</ele>
        <time>2018-03-08T10:31:48Z</time>
      </trkpt>
      <trkpt lat="45.94431" lon="4.8341">
        <ele>264</ele>
        <time>2018-03-08T10:31:49Z</time>
      </trkpt>
      <trkpt lat="45.94434" lon="4.83416">
        <ele>264</ele>
        <time>2018-03-08T10:31:50Z</time>
      </trkpt>
      <trkpt lat="45.94438" lon="4.83422">
        <ele>264</ele>
        <time>2018-03-08T10:31:51Z</time>
      </trkpt>
      <trkpt lat="45.94441" lon="4.83427">
        <ele>264</ele>
        <time>2018-03-08T10:31:52Z</time>
      </trkpt>
      <trkpt lat="45.94444" lon="4.83432">
        <ele>263</ele>
        <time>2018-03-08T10:31:53Z</time>
      </trkpt>
      <trkpt lat="45.94447" lon="4.83439">
        <ele>263</ele>
        <time>2018-03-08T10:31:54Z</time>
      </trkpt>
      <trkpt lat="45.94451" lon="4.83445">
        <ele>263</ele>
        <time>2018-03-08T10:31:55Z</time>
      </trkpt>
      <trkpt lat="45.94454" lon="4.83451">
        <ele>263</ele>
        <time>2018-03-08T10:31:56Z</time>
      </trkpt>
      <trkpt lat="45.94458" lon="4.83457">
        <ele>263</ele>
        <time>2018-03-08T10:31:57Z</time>
      </trkpt>
      <trkpt lat="45.94462" lon="4.83464">
        <ele>263</ele>
        <time>2018-03-08T10:31:58Z</time>
      </trkpt>
      <trkpt lat="45.94467" lon="4.83471">
        <ele>263</ele>
        <time>2018-03-08T10:31:59Z</time>
      </trkpt>
      <trkpt lat="45.94471" lon="4.83477">
        <ele>263</ele>
        <time>2018-03-08T10:32:00Z</time>
      </trkpt>
      <trkpt lat="45.94475" lon="4.83485">
        <ele>263</ele>
        <time>2018-03-08T10:32:01Z</time>
      </trkpt>
      <trkpt lat="45.94479" lon="4.83491">
        <ele>263</ele>
        <time>2018-03-08T10:32:02Z</time>
      </trkpt>
      <trkpt lat="45.94482" lon="4.83498">
        <ele>263</ele>
        <time>2018-03-08T10:32:03Z</time>
      </trkpt>
      <trkpt lat="45.94486" lon="4.83504">
        <ele>262</ele>
        <time>2018-03-08T10:32:04Z</time>
      </trkpt>
      <trkpt lat="45.9449" lon="4.8351">
        <ele>262</ele>
        <time>2018-03-08T10:32:05Z</time>
      </trkpt>
      <trkpt lat="45.94494" lon="4.83516">
        <ele>262</ele>
        <time>2018-03-08T10:32:06Z</time>
      </trkpt>
      <trkpt lat="45.94497" lon="4.83522">
        <ele>262</ele>
        <time>2018-03-08T10:32:07Z</time>
      </trkpt>
      <trkpt lat="45.94499" lon="4.83528">
        <ele>262</ele>
        <time>2018-03-08T10:32:08Z</time>
      </trkpt>
      <trkpt lat="45.94503" lon="4.83533">
        <ele>262</ele>
        <time>2018-03-08T10:32:09Z</time>
      </trkpt>
      <trkpt lat="45.94505" lon="4.8354">
        <ele>262</ele>
        <time>2018-03-08T10:32:10Z</time>
      </trkpt>
      <trkpt lat="45.94508" lon="4.83546">
        <ele>261</ele>
        <time>2018-03-08T10:32:11Z</time>
      </trkpt>
      <trkpt lat="45.94511" lon="4.83552">
        <ele>261</ele>
        <time>2018-03-08T10:32:12Z</time>
      </trkpt>
      <trkpt lat="45.94514" lon="4.83558">
        <ele>261</ele>
        <time>2018-03-08T10:32:13Z</time>
      </trkpt>
      <trkpt lat="45.94516" lon="4.83566">
        <ele>261</ele>
        <time>2018-03-08T10:32:14Z</time>
      </trkpt>
      <trkpt lat="45.94518" lon="4.83573">
        <ele>261</ele>
        <time>2018-03-08T10:32:15Z</time>
      </trkpt>
      <trkpt lat="45.94522" lon="4.8358">
        <ele>261</ele>
        <time>2018-03-08T10:32:16Z</time>
      </trkpt>
      <trkpt lat="45.94524" lon="4.83587">
        <ele>261</ele>
        <time>2018-03-08T10:32:17Z</time>
      </trkpt>
      <trkpt lat="45.94527" lon="4.83597">
        <ele>261</ele>
        <time>2018-03-08T10:32:18Z</time>
      </trkpt>
      <trkpt lat="45.94529" lon="4.83604">
        <ele>261</ele>
        <time>2018-03-08T10:32:19Z</time>
      </trkpt>
      <trkpt lat="45.94531" lon="4.83612">
        <ele>261</ele>
        <time>2018-03-08T10:32:20Z</time>
      </trkpt>
      <trkpt lat="45.94532" lon="4.8362">
        <ele>261</ele>
        <time>2018-03-08T10:32:21Z</time>
      </trkpt>
      <trkpt lat="45.94533" lon="4.83628">
        <ele>261</ele>
        <time>2018-03-08T10:32:22Z</time>
      </trkpt>
      <trkpt lat="45.94534" lon="4.83636">
        <ele>261</ele>
        <time>2018-03-08T10:32:23Z</time>
      </trkpt>
      <trkpt lat="45.94535" lon="4.83645">
        <ele>261</ele>
        <time>2018-03-08T10:32:24Z</time>
      </trkpt>
      <trkpt lat="45.94537" lon="4.83653">
        <ele>261</ele>
        <time>2018-03-08T10:32:25Z</time>
      </trkpt>
      <trkpt lat="45.94539" lon="4.83662">
        <ele>261</ele>
        <time>2018-03-08T10:32:26Z</time>
      </trkpt>
      <trkpt lat="45.9454" lon="4.83669">
        <ele>262</ele>
        <time>2018-03-08T10:32:27Z</time>
      </trkpt>
      <trkpt lat="45.94542" lon="4.83677">
        <ele>262</ele>
        <time>2018-03-08T10:32:28Z</time>
      </trkpt>
      <trkpt lat="45.94543" lon="4.83685">
        <ele>262</ele>
        <time>2018-03-08T10:32:29Z</time>
      </trkpt>
      <trkpt lat="45.94543" lon="4.83694">
        <ele>262</ele>
        <time>2018-03-08T10:32:30Z</time>
      </trkpt>
      <trkpt lat="45.94545" lon="4.83702">
        <ele>262</ele>
        <time>2018-03-08T10:32:31Z</time>
      </trkpt>
      <trkpt lat="45.94546" lon="4.8371">
        <ele>262</ele>
        <time>2018-03-08T10:32:32Z</time>
      </trkpt>
      <trkpt lat="45.94547" lon="4.83716">
        <ele>262</ele>
        <time>2018-03-08T10:32:33Z</time>
      </trkpt>
      <trkpt lat="45.94548" lon="4.83724">
        <ele>262</ele>
        <time>2018-03-08T10:32:34Z</time>
      </trkpt>
      <trkpt lat="45.9455" lon="4.8373">
        <ele>262</ele>
        <time>2018-03-08T10:32:35Z</time>
      </trkpt>
      <trkpt lat="45.9455" lon="4.83737">
        <ele>262</ele>
        <time>2018-03-08T10:32:36Z</time>
      </trkpt>
      <trkpt lat="45.94552" lon="4.83744">
        <ele>262</ele>
        <time>2018-03-08T10:32:37Z</time>
      </trkpt>
      <trkpt lat="45.94552" lon="4.83751">
        <ele>263</ele>
        <time>2018-03-08T10:32:38Z</time>
      </trkpt>
      <trkpt lat="45.94553" lon="4.83758">
        <ele>263</ele>
        <time>2018-03-08T10:32:39Z</time>
      </trkpt>
      <trkpt lat="45.94554" lon="4.83765">
        <ele>263</ele>
        <time>2018-03-08T10:32:40Z</time>
      </trkpt>
      <trkpt lat="45.94556" lon="4.83772">
        <ele>264</ele>
        <time>2018-03-08T10:32:41Z</time>
      </trkpt>
      <trkpt lat="45.94557" lon="4.83779">
        <ele>264</ele>
        <time>2018-03-08T10:32:42Z</time>
      </trkpt>
      <trkpt lat="45.94558" lon="4.83785">
        <ele>264</ele>
        <time>2018-03-08T10:32:43Z</time>
      </trkpt>
      <trkpt lat="45.94559" lon="4.83791">
        <ele>264</ele>
        <time>2018-03-08T10:32:44Z</time>
      </trkpt>
      <trkpt lat="45.9456" lon="4.83799">
        <ele>264</ele>
        <time>2018-03-08T10:32:45Z</time>
      </trkpt>
      <trkpt lat="45.94561" lon="4.83805">
        <ele>264</ele>
        <time>2018-03-08T10:32:46Z</time>
      </trkpt>
      <trkpt lat="45.94562" lon="4.83812">
        <ele>264</ele>
        <time>2018-03-08T10:32:47Z</time>
      </trkpt>
      <trkpt lat="45.94563" lon="4.83819">
        <ele>264</ele>
        <time>2018-03-08T10:32:48Z</time>
      </trkpt>
      <trkpt lat="45.94565" lon="4.83825">
        <ele>265</ele>
        <time>2018-03-08T10:32:49Z</time>
      </trkpt>
      <trkpt lat="45.94565" lon="4.83832">
        <ele>265</ele>
        <time>2018-03-08T10:32:50Z</time>
      </trkpt>
      <trkpt lat="45.94566" lon="4.83839">
        <ele>266</ele>
        <time>2018-03-08T10:32:51Z</time>
      </trkpt>
      <trkpt lat="45.94567" lon="4.83845">
        <ele>266</ele>
        <time>2018-03-08T10:32:52Z</time>
      </trkpt>
      <trkpt lat="45.94569" lon="4.83853">
        <ele>266</ele>
        <time>2018-03-08T10:32:53Z</time>
      </trkpt>
      <trkpt lat="45.94569" lon="4.83859">
        <ele>267</ele>
        <time>2018-03-08T10:32:54Z</time>
      </trkpt>
      <trkpt lat="45.94571" lon="4.83872">
        <ele>267</ele>
        <time>2018-03-08T10:32:56Z</time>
      </trkpt>
      <trkpt lat="45.94572" lon="4.83878">
        <ele>267</ele>
        <time>2018-03-08T10:32:57Z</time>
      </trkpt>
      <trkpt lat="45.94574" lon="4.8389">
        <ele>267</ele>
        <time>2018-03-08T10:32:59Z</time>
      </trkpt>
      <trkpt lat="45.94575" lon="4.83896">
        <ele>267</ele>
        <time>2018-03-08T10:33:00Z</time>
      </trkpt>
      <trkpt lat="45.94576" lon="4.83907">
        <ele>268</ele>
        <time>2018-03-08T10:33:02Z</time>
      </trkpt>
      <trkpt lat="45.94577" lon="4.83912">
        <ele>268</ele>
        <time>2018-03-08T10:33:03Z</time>
      </trkpt>
      <trkpt lat="45.9458" lon="4.83924">
        <ele>268</ele>
        <time>2018-03-08T10:33:05Z</time>
      </trkpt>
      <trkpt lat="45.94581" lon="4.8393">
        <ele>268</ele>
        <time>2018-03-08T10:33:06Z</time>
      </trkpt>
      <trkpt lat="45.94583" lon="4.83941">
        <ele>269</ele>
        <time>2018-03-08T10:33:08Z</time>
      </trkpt>
      <trkpt lat="45.94584" lon="4.83947">
        <ele>268</ele>
        <time>2018-03-08T10:33:09Z</time>
      </trkpt>
      <trkpt lat="45.94585" lon="4.83959">
        <ele>268</ele>
        <time>2018-03-08T10:33:11Z</time>
      </trkpt>
      <trkpt lat="45.94585" lon="4.83964">
        <ele>268</ele>
        <time>2018-03-08T10:33:12Z</time>
      </trkpt>
      <trkpt lat="45.94586" lon="4.83975">
        <ele>268</ele>
        <time>2018-03-08T10:33:14Z</time>
      </trkpt>
      <trkpt lat="45.94587" lon="4.83977">
        <ele>268</ele>
        <time>2018-03-08T10:33:15Z</time>
      </trkpt>
      <trkpt lat="45.94589" lon="4.8399">
        <ele>269</ele>
        <time>2018-03-08T10:33:17Z</time>
      </trkpt>
      <trkpt lat="45.9459" lon="4.83995">
        <ele>269</ele>
        <time>2018-03-08T10:33:18Z</time>
      </trkpt>
      <trkpt lat="45.94591" lon="4.84005">
        <ele>269</ele>
        <time>2018-03-08T10:33:20Z</time>
      </trkpt>
      <trkpt lat="45.94592" lon="4.84011">
        <ele>269</ele>
        <time>2018-03-08T10:33:21Z</time>
      </trkpt>
      <trkpt lat="45.94593" lon="4.84023">
        <ele>269</ele>
        <time>2018-03-08T10:33:23Z</time>
      </trkpt>
      <trkpt lat="45.94594" lon="4.8403">
        <ele>269</ele>
        <time>2018-03-08T10:33:24Z</time>
      </trkpt>
      <trkpt lat="45.94594" lon="4.84037">
        <ele>269</ele>
        <time>2018-03-08T10:33:25Z</time>
      </trkpt>
      <trkpt lat="45.94596" lon="4.84043">
        <ele>269</ele>
        <time>2018-03-08T10:33:26Z</time>
      </trkpt>
      <trkpt lat="45.94598" lon="4.84054">
        <ele>269</ele>
        <time>2018-03-08T10:33:28Z</time>
      </trkpt>
      <trkpt lat="45.94599" lon="4.8406">
        <ele>269</ele>
        <time>2018-03-08T10:33:29Z</time>
      </trkpt>
      <trkpt lat="45.94601" lon="4.84072">
        <ele>269</ele>
        <time>2018-03-08T10:33:31Z</time>
      </trkpt>
      <trkpt lat="45.94602" lon="4.84078">
        <ele>269</ele>
        <time>2018-03-08T10:33:32Z</time>
      </trkpt>
      <trkpt lat="45.94603" lon="4.84084">
        <ele>269</ele>
        <time>2018-03-08T10:33:33Z</time>
      </trkpt>
      <trkpt lat="45.94604" lon="4.84091">
        <ele>269</ele>
        <time>2018-03-08T10:33:34Z</time>
      </trkpt>
      <trkpt lat="45.94605" lon="4.84097">
        <ele>269</ele>
        <time>2018-03-08T10:33:35Z</time>
      </trkpt>
      <trkpt lat="45.94606" lon="4.84104">
        <ele>269</ele>
        <time>2018-03-08T10:33:36Z</time>
      </trkpt>
      <trkpt lat="45.94608" lon="4.84116">
        <ele>269</ele>
        <time>2018-03-08T10:33:38Z</time>
      </trkpt>
      <trkpt lat="45.94609" lon="4.84121">
        <ele>269</ele>
        <time>2018-03-08T10:33:39Z</time>
      </trkpt>
      <trkpt lat="45.94612" lon="4.84133">
        <ele>269</ele>
        <time>2018-03-08T10:33:41Z</time>
      </trkpt>
      <trkpt lat="45.94613" lon="4.84139">
        <ele>269</ele>
        <time>2018-03-08T10:33:42Z</time>
      </trkpt>
      <trkpt lat="45.94614" lon="4.84145">
        <ele>269</ele>
        <time>2018-03-08T10:33:43Z</time>
      </trkpt>
      <trkpt lat="45.94615" lon="4.84152">
        <ele>269</ele>
        <time>2018-03-08T10:33:44Z</time>
      </trkpt>
      <trkpt lat="45.94616" lon="4.84159">
        <ele>269</ele>
        <time>2018-03-08T10:33:45Z</time>
      </trkpt>
      <trkpt lat="45.94617" lon="4.84165">
        <ele>269</ele>
        <time>2018-03-08T10:33:46Z</time>
      </trkpt>
      <trkpt lat="45.94617" lon="4.84172">
        <ele>269</ele>
        <time>2018-03-08T10:33:47Z</time>
      </trkpt>
      <trkpt lat="45.94619" lon="4.84179">
        <ele>269</ele>
        <time>2018-03-08T10:33:48Z</time>
      </trkpt>
      <trkpt lat="45.94622" lon="4.84186">
        <ele>269</ele>
        <time>2018-03-08T10:33:49Z</time>
      </trkpt>
      <trkpt lat="45.94622" lon="4.84192">
        <ele>269</ele>
        <time>2018-03-08T10:33:50Z</time>
      </trkpt>
      <trkpt lat="45.94625" lon="4.84199">
        <ele>269</ele>
        <time>2018-03-08T10:33:51Z</time>
      </trkpt>
      <trkpt lat="45.94625" lon="4.84205">
        <ele>269</ele>
        <time>2018-03-08T10:33:52Z</time>
      </trkpt>
      <trkpt lat="45.94627" lon="4.84217">
        <ele>269</ele>
        <time>2018-03-08T10:33:54Z</time>
      </trkpt>
      <trkpt lat="45.94628" lon="4.84223">
        <ele>269</ele>
        <time>2018-03-08T10:33:55Z</time>
      </trkpt>
      <trkpt lat="45.94628" lon="4.84234">
        <ele>269</ele>
        <time>2018-03-08T10:33:57Z</time>
      </trkpt>
      <trkpt lat="45.94629" lon="4.84241">
        <ele>269</ele>
        <time>2018-03-08T10:33:58Z</time>
      </trkpt>
      <trkpt lat="45.9463" lon="4.84247">
        <ele>269</ele>
        <time>2018-03-08T10:33:59Z</time>
      </trkpt>
      <trkpt lat="45.94631" lon="4.84254">
        <ele>269</ele>
        <time>2018-03-08T10:34:00Z</time>
      </trkpt>
      <trkpt lat="45.94633" lon="4.84266">
        <ele>269</ele>
        <time>2018-03-08T10:34:02Z</time>
      </trkpt>
      <trkpt lat="45.94633" lon="4.84272">
        <ele>269</ele>
        <time>2018-03-08T10:34:03Z</time>
      </trkpt>
      <trkpt lat="45.94634" lon="4.84279">
        <ele>269</ele>
        <time>2018-03-08T10:34:04Z</time>
      </trkpt>
      <trkpt lat="45.94635" lon="4.84285">
        <ele>269</ele>
        <time>2018-03-08T10:34:05Z</time>
      </trkpt>
      <trkpt lat="45.94636" lon="4.84297">
        <ele>269</ele>
        <time>2018-03-08T10:34:07Z</time>
      </trkpt>
      <trkpt lat="45.94637" lon="4.84303">
        <ele>269</ele>
        <time>2018-03-08T10:34:08Z</time>
      </trkpt>
      <trkpt lat="45.94638" lon="4.84316">
        <ele>269</ele>
        <time>2018-03-08T10:34:10Z</time>
      </trkpt>
      <trkpt lat="45.94639" lon="4.84321">
        <ele>269</ele>
        <time>2018-03-08T10:34:11Z</time>
      </trkpt>
      <trkpt lat="45.9464" lon="4.84327">
        <ele>269</ele>
        <time>2018-03-08T10:34:12Z</time>
      </trkpt>
      <trkpt lat="45.94641" lon="4.84334">
        <ele>268</ele>
        <time>2018-03-08T10:34:13Z</time>
      </trkpt>
      <trkpt lat="45.94642" lon="4.84341">
        <ele>268</ele>
        <time>2018-03-08T10:34:14Z</time>
      </trkpt>
      <trkpt lat="45.94643" lon="4.84347">
        <ele>268</ele>
        <time>2018-03-08T10:34:15Z</time>
      </trkpt>
      <trkpt lat="45.94644" lon="4.84359">
        <ele>268</ele>
        <time>2018-03-08T10:34:17Z</time>
      </trkpt>
      <trkpt lat="45.94645" lon="4.84366">
        <ele>268</ele>
        <time>2018-03-08T10:34:18Z</time>
      </trkpt>
      <trkpt lat="45.94646" lon="4.84373">
        <ele>268</ele>
        <time>2018-03-08T10:34:19Z</time>
      </trkpt>
      <trkpt lat="45.94646" lon="4.8438">
        <ele>268</ele>
        <time>2018-03-08T10:34:20Z</time>
      </trkpt>
      <trkpt lat="45.94647" lon="4.84388">
        <ele>268</ele>
        <time>2018-03-08T10:34:21Z</time>
      </trkpt>
      <trkpt lat="45.94648" lon="4.84394">
        <ele>268</ele>
        <time>2018-03-08T10:34:22Z</time>
      </trkpt>
      <trkpt lat="45.94649" lon="4.84402">
        <ele>268</ele>
        <time>2018-03-08T10:34:23Z</time>
      </trkpt>
      <trkpt lat="45.9465" lon="4.84409">
        <ele>268</ele>
        <time>2018-03-08T10:34:24Z</time>
      </trkpt>
      <trkpt lat="45.94651" lon="4.84416">
        <ele>268</ele>
        <time>2018-03-08T10:34:25Z</time>
      </trkpt>
      <trkpt lat="45.94652" lon="4.84424">
        <ele>268</ele>
        <time>2018-03-08T10:34:26Z</time>
      </trkpt>
      <trkpt lat="45.94652" lon="4.84431">
        <ele>268</ele>
        <time>2018-03-08T10:34:27Z</time>
      </trkpt>
      <trkpt lat="45.94652" lon="4.84439">
        <ele>268</ele>
        <time>2018-03-08T10:34:28Z</time>
      </trkpt>
      <trkpt lat="45.94653" lon="4.84451">
        <ele>268</ele>
        <time>2018-03-08T10:34:30Z</time>
      </trkpt>
      <trkpt lat="45.94653" lon="4.84456">
        <ele>268</ele>
        <time>2018-03-08T10:34:31Z</time>
      </trkpt>
      <trkpt lat="45.94654" lon="4.84462">
        <ele>268</ele>
        <time>2018-03-08T10:34:32Z</time>
      </trkpt>
      <trkpt lat="45.94655" lon="4.84469">
        <ele>268</ele>
        <time>2018-03-08T10:34:33Z</time>
      </trkpt>
      <trkpt lat="45.94656" lon="4.84476">
        <ele>268</ele>
        <time>2018-03-08T10:34:34Z</time>
      </trkpt>
      <trkpt lat="45.94657" lon="4.84483">
        <ele>268</ele>
        <time>2018-03-08T10:34:35Z</time>
      </trkpt>
      <trkpt lat="45.94657" lon="4.84489">
        <ele>268</ele>
        <time>2018-03-08T10:34:36Z</time>
      </trkpt>
      <trkpt lat="45.94658" lon="4.84496">
        <ele>268</ele>
        <time>2018-03-08T10:34:37Z</time>
      </trkpt>
      <trkpt lat="45.9466" lon="4.84503">
        <ele>268</ele>
        <time>2018-03-08T10:34:38Z</time>
      </trkpt>
      <trkpt lat="45.9466" lon="4.8451">
        <ele>268</ele>
        <time>2018-03-08T10:34:39Z</time>
      </trkpt>
      <trkpt lat="45.94661" lon="4.84516">
        <ele>268</ele>
        <time>2018-03-08T10:34:40Z</time>
      </trkpt>
      <trkpt lat="45.94662" lon="4.84524">
        <ele>268</ele>
        <time>2018-03-08T10:34:41Z</time>
      </trkpt>
      <trkpt lat="45.94664" lon="4.84536">
        <ele>268</ele>
        <time>2018-03-08T10:34:43Z</time>
      </trkpt>
      <trkpt lat="45.94664" lon="4.84542">
        <ele>268</ele>
        <time>2018-03-08T10:34:44Z</time>
      </trkpt>
      <trkpt lat="45.94666" lon="4.84555">
        <ele>268</ele>
        <time>2018-03-08T10:34:46Z</time>
      </trkpt>
      <trkpt lat="45.94666" lon="4.84562">
        <ele>268</ele>
        <time>2018-03-08T10:34:47Z</time>
      </trkpt>
      <trkpt lat="45.94667" lon="4.84569">
        <ele>268</ele>
        <time>2018-03-08T10:34:48Z</time>
      </trkpt>
      <trkpt lat="45.94667" lon="4.84575">
        <ele>268</ele>
        <time>2018-03-08T10:34:49Z</time>
      </trkpt>
      <trkpt lat="45.94667" lon="4.84582">
        <ele>268</ele>
        <time>2018-03-08T10:34:50Z</time>
      </trkpt>
      <trkpt lat="45.94668" lon="4.84589">
        <ele>268</ele>
        <time>2018-03-08T10:34:51Z</time>
      </trkpt>
      <trkpt lat="45.94669" lon="4.84596">
        <ele>268</ele>
        <time>2018-03-08T10:34:52Z</time>
      </trkpt>
      <trkpt lat="45.94669" lon="4.84603">
        <ele>268</ele>
        <time>2018-03-08T10:34:53Z</time>
      </trkpt>
      <trkpt lat="45.94668" lon="4.84612">
        <ele>268</ele>
        <time>2018-03-08T10:34:54Z</time>
      </trkpt>
      <trkpt lat="45.94669" lon="4.84619">
        <ele>268</ele>
        <time>2018-03-08T10:34:55Z</time>
      </trkpt>
      <trkpt lat="45.94669" lon="4.84627">
        <ele>268</ele>
        <time>2018-03-08T10:34:56Z</time>
      </trkpt>
      <trkpt lat="45.94669" lon="4.84634">
        <ele>268</ele>
        <time>2018-03-08T10:34:57Z</time>
      </trkpt>
      <trkpt lat="45.94669" lon="4.84642">
        <ele>268</ele>
        <time>2018-03-08T10:34:58Z</time>
      </trkpt>
      <trkpt lat="45.94669" lon="4.84649">
        <ele>268</ele>
        <time>2018-03-08T10:34:59Z</time>
      </trkpt>
      <trkpt lat="45.94669" lon="4.84657">
        <ele>268</ele>
        <time>2018-03-08T10:35:00Z</time>
      </trkpt>
      <trkpt lat="45.94668" lon="4.84666">
        <ele>269</ele>
        <time>2018-03-08T10:35:01Z</time>
      </trkpt>
      <trkpt lat="45.94669" lon="4.84674">
        <ele>269</ele>
        <time>2018-03-08T10:35:02Z</time>
      </trkpt>
      <trkpt lat="45.94669" lon="4.84681">
        <ele>269</ele>
        <time>2018-03-08T10:35:03Z</time>
      </trkpt>
      <trkpt lat="45.9467" lon="4.84689">
        <ele>269</ele>
        <time>2018-03-08T10:35:04Z</time>
      </trkpt>
      <trkpt lat="45.9467" lon="4.84697">
        <ele>269</ele>
        <time>2018-03-08T10:35:05Z</time>
      </trkpt>
      <trkpt lat="45.9467" lon="4.84705">
        <ele>269</ele>
        <time>2018-03-08T10:35:06Z</time>
      </trkpt>
      <trkpt lat="45.9467" lon="4.84712">
        <ele>269</ele>
        <time>2018-03-08T10:35:07Z</time>
      </trkpt>
      <trkpt lat="45.94671" lon="4.84719">
        <ele>269</ele>
        <time>2018-03-08T10:35:08Z</time>
      </trkpt>
      <trkpt lat="45.94671" lon="4.84726">
        <ele>269</ele>
        <time>2018-03-08T10:35:09Z</time>
      </trkpt>
      <trkpt lat="45.94671" lon="4.84735">
        <ele>269</ele>
        <time>2018-03-08T10:35:10Z</time>
      </trkpt>
      <trkpt lat="45.94672" lon="4.84743">
        <ele>269</ele>
        <time>2018-03-08T10:35:11Z</time>
      </trkpt>
      <trkpt lat="45.94674" lon="4.84752">
        <ele>269</ele>
        <time>2018-03-08T10:35:12Z</time>
      </trkpt>
      <trkpt lat="45.94675" lon="4.84759">
        <ele>269</ele>
        <time>2018-03-08T10:35:13Z</time>
      </trkpt>
      <trkpt lat="45.94675" lon="4.84766">
        <ele>269</ele>
        <time>2018-03-08T10:35:14Z</time>
      </trkpt>
      <trkpt lat="45.94675" lon="4.84775">
        <ele>269</ele>
        <time>2018-03-08T10:35:15Z</time>
      </trkpt>
      <trkpt lat="45.94674" lon="4.84782">
        <ele>269</ele>
        <time>2018-03-08T10:35:16Z</time>
      </trkpt>
      <trkpt lat="45.94674" lon="4.84791">
        <ele>269</ele>
        <time>2018-03-08T10:35:17Z</time>
      </trkpt>
      <trkpt lat="45.94677" lon="4.848">
        <ele>268</ele>
        <time>2018-03-08T10:35:18Z</time>
      </trkpt>
      <trkpt lat="45.94677" lon="4.84808">
        <ele>268</ele>
        <time>2018-03-08T10:35:19Z</time>
      </trkpt>
      <trkpt lat="45.94678" lon="4.84817">
        <ele>268</ele>
        <time>2018-03-08T10:35:20Z</time>
      </trkpt>
      <trkpt lat="45.94678" lon="4.84825">
        <ele>268</ele>
        <time>2018-03-08T10:35:21Z</time>
      </trkpt>
      <trkpt lat="45.94679" lon="4.84834">
        <ele>268</ele>
        <time>2018-03-08T10:35:22Z</time>
      </trkpt>
      <trkpt lat="45.9468" lon="4.84842">
        <ele>268</ele>
        <time>2018-03-08T10:35:23Z</time>
      </trkpt>
      <trkpt lat="45.94681" lon="4.8485">
        <ele>268</ele>
        <time>2018-03-08T10:35:24Z</time>
      </trkpt>
      <trkpt lat="45.94682" lon="4.84859">
        <ele>268</ele>
        <time>2018-03-08T10:35:25Z</time>
      </trkpt>
      <trkpt lat="45.94683" lon="4.84868">
        <ele>268</ele>
        <time>2018-03-08T10:35:26Z</time>
      </trkpt>
      <trkpt lat="45.94684" lon="4.84875">
        <ele>268</ele>
        <time>2018-03-08T10:35:27Z</time>
      </trkpt>
      <trkpt lat="45.94685" lon="4.84883">
        <ele>268</ele>
        <time>2018-03-08T10:35:28Z</time>
      </trkpt>
      <trkpt lat="45.94686" lon="4.84892">
        <ele>268</ele>
        <time>2018-03-08T10:35:29Z</time>
      </trkpt>
      <trkpt lat="45.94687" lon="4.84901">
        <ele>268</ele>
        <time>2018-03-08T10:35:30Z</time>
      </trkpt>
      <trkpt lat="45.94687" lon="4.84909">
        <ele>269</ele>
        <time>2018-03-08T10:35:31Z</time>
      </trkpt>
      <trkpt lat="45.94688" lon="4.84917">
        <ele>269</ele>
        <time>2018-03-08T10:35:32Z</time>
      </trkpt>
      <trkpt lat="45.94689" lon="4.84925">
        <ele>269</ele>
        <time>2018-03-08T10:35:33Z</time>
      </trkpt>
      <trkpt lat="45.9469" lon="4.84932">
        <ele>269</ele>
        <time>2018-03-08T10:35:34Z</time>
      </trkpt>
      <trkpt lat="45.94691" lon="4.8494">
        <ele>269</ele>
        <time>2018-03-08T10:35:35Z</time>
      </trkpt>
      <trkpt lat="45.94692" lon="4.84947">
        <ele>269</ele>
        <time>2018-03-08T10:35:36Z</time>
      </trkpt>
      <trkpt lat="45.94692" lon="4.84954">
        <ele>269</ele>
        <time>2018-03-08T10:35:37Z</time>
      </trkpt>
      <trkpt lat="45.94692" lon="4.84961">
        <ele>269</ele>
        <time>2018-03-08T10:35:38Z</time>
      </trkpt>
      <trkpt lat="45.94692" lon="4.84969">
        <ele>269</ele>
        <time>2018-03-08T10:35:39Z</time>
      </trkpt>
      <trkpt lat="45.94694" lon="4.84976">
        <ele>269</ele>
        <time>2018-03-08T10:35:40Z</time>
      </trkpt>
      <trkpt lat="45.94694" lon="4.84984">
        <ele>269</ele>
        <time>2018-03-08T10:35:41Z</time>
      </trkpt>
      <trkpt lat="45.94695" lon="4.84991">
        <ele>269</ele>
        <time>2018-03-08T10:35:42Z</time>
      </trkpt>
      <trkpt lat="45.94696" lon="4.84998">
        <ele>269</ele>
        <time>2018-03-08T10:35:43Z</time>
      </trkpt>
      <trkpt lat="45.94697" lon="4.85006">
        <ele>269</ele>
        <time>2018-03-08T10:35:44Z</time>
      </trkpt>
      <trkpt lat="45.94698" lon="4.85012">
        <ele>269</ele>
        <time>2018-03-08T10:35:45Z</time>
      </trkpt>
      <trkpt lat="45.94699" lon="4.8502">
        <ele>269</ele>
        <time>2018-03-08T10:35:46Z</time>
      </trkpt>
      <trkpt lat="45.947" lon="4.85027">
        <ele>269</ele>
        <time>2018-03-08T10:35:47Z</time>
      </trkpt>
      <trkpt lat="45.94701" lon="4.85035">
        <ele>269</ele>
        <time>2018-03-08T10:35:48Z</time>
      </trkpt>
      <trkpt lat="45.94701" lon="4.85041">
        <ele>269</ele>
        <time>2018-03-08T10:35:49Z</time>
      </trkpt>
      <trkpt lat="45.94702" lon="4.85049">
        <ele>269</ele>
        <time>2018-03-08T10:35:50Z</time>
      </trkpt>
      <trkpt lat="45.94703" lon="4.85057">
        <ele>269</ele>
        <time>2018-03-08T10:35:51Z</time>
      </trkpt>
      <trkpt lat="45.94704" lon="4.85065">
        <ele>269</ele>
        <time>2018-03-08T10:35:52Z</time>
      </trkpt>
      <trkpt lat="45.94704" lon="4.85072">
        <ele>269</ele>
        <time>2018-03-08T10:35:53Z</time>
      </trkpt>
      <trkpt lat="45.94705" lon="4.85079">
        <ele>269</ele>
        <time>2018-03-08T10:35:54Z</time>
      </trkpt>
      <trkpt lat="45.94705" lon="4.85086">
        <ele>269</ele>
        <time>2018-03-08T10:35:55Z</time>
      </trkpt>
      <trkpt lat="45.94707" lon="4.85093">
        <ele>269</ele>
        <time>2018-03-08T10:35:56Z</time>
      </trkpt>
      <trkpt lat="45.94707" lon="4.85101">
        <ele>269</ele>
        <time>2018-03-08T10:35:57Z</time>
      </trkpt>
      <trkpt lat="45.94708" lon="4.85108">
        <ele>269</ele>
        <time>2018-03-08T10:35:58Z</time>
      </trkpt>
      <trkpt lat="45.94709" lon="4.85116">
        <ele>269</ele>
        <time>2018-03-08T10:35:59Z</time>
      </trkpt>
      <trkpt lat="45.9471" lon="4.85123">
        <ele>269</ele>
        <time>2018-03-08T10:36:00Z</time>
      </trkpt>
      <trkpt lat="45.9471" lon="4.8513">
        <ele>269</ele>
        <time>2018-03-08T10:36:01Z</time>
      </trkpt>
      <trkpt lat="45.94711" lon="4.85137">
        <ele>269</ele>
        <time>2018-03-08T10:36:02Z</time>
      </trkpt>
      <trkpt lat="45.94712" lon="4.85144">
        <ele>269</ele>
        <time>2018-03-08T10:36:03Z</time>
      </trkpt>
      <trkpt lat="45.94712" lon="4.85151">
        <ele>269</ele>
        <time>2018-03-08T10:36:04Z</time>
      </trkpt>
      <trkpt lat="45.94713" lon="4.85158">
        <ele>269</ele>
        <time>2018-03-08T10:36:05Z</time>
      </trkpt>
      <trkpt lat="45.94713" lon="4.85166">
        <ele>269</ele>
        <time>2018-03-08T10:36:06Z</time>
      </trkpt>
      <trkpt lat="45.94714" lon="4.85173">
        <ele>269</ele>
        <time>2018-03-08T10:36:07Z</time>
      </trkpt>
      <trkpt lat="45.94714" lon="4.85181">
        <ele>269</ele>
        <time>2018-03-08T10:36:08Z</time>
      </trkpt>
      <trkpt lat="45.94715" lon="4.85188">
        <ele>269</ele>
        <time>2018-03-08T10:36:09Z</time>
      </trkpt>
      <trkpt lat="45.94715" lon="4.85195">
        <ele>269</ele>
        <time>2018-03-08T10:36:10Z</time>
      </trkpt>
      <trkpt lat="45.94716" lon="4.85202">
        <ele>269</ele>
        <time>2018-03-08T10:36:11Z</time>
      </trkpt>
      <trkpt lat="45.94716" lon="4.8521">
        <ele>269</ele>
        <time>2018-03-08T10:36:12Z</time>
      </trkpt>
      <trkpt lat="45.94717" lon="4.85218">
        <ele>269</ele>
        <time>2018-03-08T10:36:13Z</time>
      </trkpt>
      <trkpt lat="45.94718" lon="4.85225">
        <ele>269</ele>
        <time>2018-03-08T10:36:14Z</time>
      </trkpt>
      <trkpt lat="45.94719" lon="4.85233">
        <ele>269</ele>
        <time>2018-03-08T10:36:15Z</time>
      </trkpt>
      <trkpt lat="45.9472" lon="4.8524">
        <ele>269</ele>
        <time>2018-03-08T10:36:16Z</time>
      </trkpt>
      <trkpt lat="45.94721" lon="4.85249">
        <ele>269</ele>
        <time>2018-03-08T10:36:17Z</time>
      </trkpt>
      <trkpt lat="45.94722" lon="4.85257">
        <ele>269</ele>
        <time>2018-03-08T10:36:18Z</time>
      </trkpt>
      <trkpt lat="45.94723" lon="4.85264">
        <ele>269</ele>
        <time>2018-03-08T10:36:19Z</time>
      </trkpt>
      <trkpt lat="45.94724" lon="4.85273">
        <ele>269</ele>
        <time>2018-03-08T10:36:20Z</time>
      </trkpt>
      <trkpt lat="45.94725" lon="4.8528">
        <ele>269</ele>
        <time>2018-03-08T10:36:21Z</time>
      </trkpt>
      <trkpt lat="45.94727" lon="4.85289">
        <ele>269</ele>
        <time>2018-03-08T10:36:22Z</time>
      </trkpt>
      <trkpt lat="45.94728" lon="4.85296">
        <ele>270</ele>
        <time>2018-03-08T10:36:23Z</time>
      </trkpt>
      <trkpt lat="45.9473" lon="4.85304">
        <ele>270</ele>
        <time>2018-03-08T10:36:24Z</time>
      </trkpt>
      <trkpt lat="45.9473" lon="4.85311">
        <ele>270</ele>
        <time>2018-03-08T10:36:25Z</time>
      </trkpt>
      <trkpt lat="45.94731" lon="4.85319">
        <ele>270</ele>
        <time>2018-03-08T10:36:26Z</time>
      </trkpt>
      <trkpt lat="45.94732" lon="4.85326">
        <ele>270</ele>
        <time>2018-03-08T10:36:27Z</time>
      </trkpt>
      <trkpt lat="45.94732" lon="4.85333">
        <ele>270</ele>
        <time>2018-03-08T10:36:28Z</time>
      </trkpt>
      <trkpt lat="45.94733" lon="4.85341">
        <ele>271</ele>
        <time>2018-03-08T10:36:29Z</time>
      </trkpt>
      <trkpt lat="45.94734" lon="4.85348">
        <ele>271</ele>
        <time>2018-03-08T10:36:30Z</time>
      </trkpt>
      <trkpt lat="45.94735" lon="4.85356">
        <ele>271</ele>
        <time>2018-03-08T10:36:31Z</time>
      </trkpt>
      <trkpt lat="45.94735" lon="4.85363">
        <ele>271</ele>
        <time>2018-03-08T10:36:32Z</time>
      </trkpt>
      <trkpt lat="45.94736" lon="4.85371">
        <ele>271</ele>
        <time>2018-03-08T10:36:33Z</time>
      </trkpt>
      <trkpt lat="45.94737" lon="4.85378">
        <ele>271</ele>
        <time>2018-03-08T10:36:34Z</time>
      </trkpt>
      <trkpt lat="45.94738" lon="4.85386">
        <ele>272</ele>
        <time>2018-03-08T10:36:35Z</time>
      </trkpt>
      <trkpt lat="45.94738" lon="4.85394">
        <ele>272</ele>
        <time>2018-03-08T10:36:36Z</time>
      </trkpt>
      <trkpt lat="45.94738" lon="4.85401">
        <ele>272</ele>
        <time>2018-03-08T10:36:37Z</time>
      </trkpt>
      <trkpt lat="45.94739" lon="4.8541">
        <ele>272</ele>
        <time>2018-03-08T10:36:38Z</time>
      </trkpt>
      <trkpt lat="45.94739" lon="4.85416">
        <ele>272</ele>
        <time>2018-03-08T10:36:39Z</time>
      </trkpt>
      <trkpt lat="45.94741" lon="4.85423">
        <ele>273</ele>
        <time>2018-03-08T10:36:40Z</time>
      </trkpt>
      <trkpt lat="45.94741" lon="4.85429">
        <ele>273</ele>
        <time>2018-03-08T10:36:41Z</time>
      </trkpt>
      <trkpt lat="45.94741" lon="4.85436">
        <ele>274</ele>
        <time>2018-03-08T10:36:42Z</time>
      </trkpt>
      <trkpt lat="45.94741" lon="4.85442">
        <ele>274</ele>
        <time>2018-03-08T10:36:43Z</time>
      </trkpt>
      <trkpt lat="45.94743" lon="4.85454">
        <ele>274</ele>
        <time>2018-03-08T10:36:45Z</time>
      </trkpt>
      <trkpt lat="45.94744" lon="4.85459">
        <ele>274</ele>
        <time>2018-03-08T10:36:46Z</time>
      </trkpt>
      <trkpt lat="45.94744" lon="4.85471">
        <ele>274</ele>
        <time>2018-03-08T10:36:48Z</time>
      </trkpt>
      <trkpt lat="45.94745" lon="4.85476">
        <ele>275</ele>
        <time>2018-03-08T10:36:49Z</time>
      </trkpt>
      <trkpt lat="45.94747" lon="4.85485">
        <ele>275</ele>
        <time>2018-03-08T10:36:52Z</time>
      </trkpt>
      <trkpt lat="45.94747" lon="4.85489">
        <ele>275</ele>
        <time>2018-03-08T10:36:53Z</time>
      </trkpt>
      <trkpt lat="45.94748" lon="4.85497">
        <ele>276</ele>
        <time>2018-03-08T10:36:55Z</time>
      </trkpt>
      <trkpt lat="45.94748" lon="4.85502">
        <ele>276</ele>
        <time>2018-03-08T10:36:56Z</time>
      </trkpt>
      <trkpt lat="45.94749" lon="4.85511">
        <ele>276</ele>
        <time>2018-03-08T10:36:58Z</time>
      </trkpt>
      <trkpt lat="45.9475" lon="4.85516">
        <ele>277</ele>
        <time>2018-03-08T10:36:59Z</time>
      </trkpt>
      <trkpt lat="45.94752" lon="4.85525">
        <ele>277</ele>
        <time>2018-03-08T10:37:01Z</time>
      </trkpt>
      <trkpt lat="45.94753" lon="4.8553">
        <ele>278</ele>
        <time>2018-03-08T10:37:02Z</time>
      </trkpt>
      <trkpt lat="45.94754" lon="4.85539">
        <ele>278</ele>
        <time>2018-03-08T10:37:04Z</time>
      </trkpt>
      <trkpt lat="45.94755" lon="4.85543">
        <ele>278</ele>
        <time>2018-03-08T10:37:05Z</time>
      </trkpt>
      <trkpt lat="45.94757" lon="4.85555">
        <ele>278</ele>
        <time>2018-03-08T10:37:08Z</time>
      </trkpt>
      <trkpt lat="45.94758" lon="4.85559">
        <ele>278</ele>
        <time>2018-03-08T10:37:09Z</time>
      </trkpt>
      <trkpt lat="45.94761" lon="4.85571">
        <ele>279</ele>
        <time>2018-03-08T10:37:12Z</time>
      </trkpt>
      <trkpt lat="45.94762" lon="4.85574">
        <ele>279</ele>
        <time>2018-03-08T10:37:13Z</time>
      </trkpt>
      <trkpt lat="45.94763" lon="4.85585">
        <ele>280</ele>
        <time>2018-03-08T10:37:16Z</time>
      </trkpt>
      <trkpt lat="45.94764" lon="4.85589">
        <ele>280</ele>
        <time>2018-03-08T10:37:17Z</time>
      </trkpt>
      <trkpt lat="45.94766" lon="4.85601">
        <ele>280</ele>
        <time>2018-03-08T10:37:20Z</time>
      </trkpt>
      <trkpt lat="45.94767" lon="4.85605">
        <ele>280</ele>
        <time>2018-03-08T10:37:21Z</time>
      </trkpt>
      <trkpt lat="45.94769" lon="4.85613">
        <ele>280</ele>
        <time>2018-03-08T10:37:23Z</time>
      </trkpt>
      <trkpt lat="45.9477" lon="4.85617">
        <ele>280</ele>
        <time>2018-03-08T10:37:24Z</time>
      </trkpt>
      <trkpt lat="45.94772" lon="4.85629">
        <ele>280</ele>
        <time>2018-03-08T10:37:27Z</time>
      </trkpt>
      <trkpt lat="45.94773" lon="4.85633">
        <ele>280</ele>
        <time>2018-03-08T10:37:28Z</time>
      </trkpt>
      <trkpt lat="45.94777" lon="4.85644">
        <ele>281</ele>
        <time>2018-03-08T10:37:31Z</time>
      </trkpt>
      <trkpt lat="45.94778" lon="4.85648">
        <ele>281</ele>
        <time>2018-03-08T10:37:32Z</time>
      </trkpt>
      <trkpt lat="45.94781" lon="4.8566">
        <ele>281</ele>
        <time>2018-03-08T10:37:35Z</time>
      </trkpt>
      <trkpt lat="45.94782" lon="4.85664">
        <ele>281</ele>
        <time>2018-03-08T10:37:36Z</time>
      </trkpt>
      <trkpt lat="45.94784" lon="4.85672">
        <ele>280</ele>
        <time>2018-03-08T10:37:38Z</time>
      </trkpt>
      <trkpt lat="45.94785" lon="4.85676">
        <ele>280</ele>
        <time>2018-03-08T10:37:39Z</time>
      </trkpt>
      <trkpt lat="45.94788" lon="4.85688">
        <ele>280</ele>
        <time>2018-03-08T10:37:40Z</time>
      </trkpt>
      <trkpt lat="45.9479" lon="4.85693">
        <ele>280</ele>
        <time>2018-03-08T10:37:41Z</time>
      </trkpt>
      <trkpt lat="45.94793" lon="4.85704">
        <ele>280</ele>
        <time>2018-03-08T10:37:43Z</time>
      </trkpt>
      <trkpt lat="45.94794" lon="4.8571">
        <ele>280</ele>
        <time>2018-03-08T10:37:44Z</time>
      </trkpt>
      <trkpt lat="45.94798" lon="4.85721">
        <ele>280</ele>
        <time>2018-03-08T10:37:46Z</time>
      </trkpt>
      <trkpt lat="45.948" lon="4.85727">
        <ele>280</ele>
        <time>2018-03-08T10:37:47Z</time>
      </trkpt>
      <trkpt lat="45.94801" lon="4.85733">
        <ele>280</ele>
        <time>2018-03-08T10:37:48Z</time>
      </trkpt>
      <trkpt lat="45.94803" lon="4.85739">
        <ele>279</ele>
        <time>2018-03-08T10:37:49Z</time>
      </trkpt>
      <trkpt lat="45.94804" lon="4.85746">
        <ele>279</ele>
        <time>2018-03-08T10:37:50Z</time>
      </trkpt>
      <trkpt lat="45.94806" lon="4.85752">
        <ele>278</ele>
        <time>2018-03-08T10:37:51Z</time>
      </trkpt>
      <trkpt lat="45.94807" lon="4.85759">
        <ele>278</ele>
        <time>2018-03-08T10:37:52Z</time>
      </trkpt>
      <trkpt lat="45.94809" lon="4.85765">
        <ele>278</ele>
        <time>2018-03-08T10:37:53Z</time>
      </trkpt>
      <trkpt lat="45.94812" lon="4.85771">
        <ele>278</ele>
        <time>2018-03-08T10:37:54Z</time>
      </trkpt>
      <trkpt lat="45.94813" lon="4.85778">
        <ele>278</ele>
        <time>2018-03-08T10:37:55Z</time>
      </trkpt>
      <trkpt lat="45.94814" lon="4.85785">
        <ele>278</ele>
        <time>2018-03-08T10:37:56Z</time>
      </trkpt>
      <trkpt lat="45.94816" lon="4.85791">
        <ele>278</ele>
        <time>2018-03-08T10:37:57Z</time>
      </trkpt>
      <trkpt lat="45.94818" lon="4.85797">
        <ele>278</ele>
        <time>2018-03-08T10:37:58Z</time>
      </trkpt>
      <trkpt lat="45.9482" lon="4.85803">
        <ele>278</ele>
        <time>2018-03-08T10:37:59Z</time>
      </trkpt>
      <trkpt lat="45.94821" lon="4.8581">
        <ele>278</ele>
        <time>2018-03-08T10:38:00Z</time>
      </trkpt>
      <trkpt lat="45.94824" lon="4.85816">
        <ele>278</ele>
        <time>2018-03-08T10:38:01Z</time>
      </trkpt>
      <trkpt lat="45.94825" lon="4.85823">
        <ele>277</ele>
        <time>2018-03-08T10:38:02Z</time>
      </trkpt>
      <trkpt lat="45.94828" lon="4.85829">
        <ele>277</ele>
        <time>2018-03-08T10:38:03Z</time>
      </trkpt>
      <trkpt lat="45.9483" lon="4.85837">
        <ele>277</ele>
        <time>2018-03-08T10:38:04Z</time>
      </trkpt>
      <trkpt lat="45.94832" lon="4.85844">
        <ele>277</ele>
        <time>2018-03-08T10:38:05Z</time>
      </trkpt>
      <trkpt lat="45.94833" lon="4.85851">
        <ele>277</ele>
        <time>2018-03-08T10:38:06Z</time>
      </trkpt>
      <trkpt lat="45.94835" lon="4.85857">
        <ele>276</ele>
        <time>2018-03-08T10:38:07Z</time>
      </trkpt>
      <trkpt lat="45.94837" lon="4.85864">
        <ele>276</ele>
        <time>2018-03-08T10:38:08Z</time>
      </trkpt>
      <trkpt lat="45.94839" lon="4.85873">
        <ele>276</ele>
        <time>2018-03-08T10:38:09Z</time>
      </trkpt>
      <trkpt lat="45.9484" lon="4.85879">
        <ele>276</ele>
        <time>2018-03-08T10:38:10Z</time>
      </trkpt>
      <trkpt lat="45.94842" lon="4.85887">
        <ele>276</ele>
        <time>2018-03-08T10:38:11Z</time>
      </trkpt>
      <trkpt lat="45.94844" lon="4.85895">
        <ele>276</ele>
        <time>2018-03-08T10:38:12Z</time>
      </trkpt>
      <trkpt lat="45.94846" lon="4.85904">
        <ele>276</ele>
        <time>2018-03-08T10:38:13Z</time>
      </trkpt>
      <trkpt lat="45.94848" lon="4.85912">
        <ele>275</ele>
        <time>2018-03-08T10:38:14Z</time>
      </trkpt>
      <trkpt lat="45.9485" lon="4.8592">
        <ele>275</ele>
        <time>2018-03-08T10:38:15Z</time>
      </trkpt>
      <trkpt lat="45.94852" lon="4.85928">
        <ele>275</ele>
        <time>2018-03-08T10:38:16Z</time>
      </trkpt>
      <trkpt lat="45.94854" lon="4.85935">
        <ele>275</ele>
        <time>2018-03-08T10:38:17Z</time>
      </trkpt>
      <trkpt lat="45.94856" lon="4.85942">
        <ele>275</ele>
        <time>2018-03-08T10:38:18Z</time>
      </trkpt>
      <trkpt lat="45.94857" lon="4.85949">
        <ele>275</ele>
        <time>2018-03-08T10:38:19Z</time>
      </trkpt>
      <trkpt lat="45.94859" lon="4.85956">
        <ele>275</ele>
        <time>2018-03-08T10:38:20Z</time>
      </trkpt>
      <trkpt lat="45.94861" lon="4.85962">
        <ele>275</ele>
        <time>2018-03-08T10:38:21Z</time>
      </trkpt>
      <trkpt lat="45.94863" lon="4.8597">
        <ele>275</ele>
        <time>2018-03-08T10:38:22Z</time>
      </trkpt>
      <trkpt lat="45.94864" lon="4.85976">
        <ele>275</ele>
        <time>2018-03-08T10:38:23Z</time>
      </trkpt>
      <trkpt lat="45.94866" lon="4.85983">
        <ele>275</ele>
        <time>2018-03-08T10:38:24Z</time>
      </trkpt>
      <trkpt lat="45.94868" lon="4.85989">
        <ele>275</ele>
        <time>2018-03-08T10:38:25Z</time>
      </trkpt>
      <trkpt lat="45.9487" lon="4.85996">
        <ele>275</ele>
        <time>2018-03-08T10:38:26Z</time>
      </trkpt>
      <trkpt lat="45.94872" lon="4.86003">
        <ele>274</ele>
        <time>2018-03-08T10:38:27Z</time>
      </trkpt>
      <trkpt lat="45.94873" lon="4.86011">
        <ele>274</ele>
        <time>2018-03-08T10:38:28Z</time>
      </trkpt>
      <trkpt lat="45.94874" lon="4.86017">
        <ele>274</ele>
        <time>2018-03-08T10:38:29Z</time>
      </trkpt>
      <trkpt lat="45.94876" lon="4.86026">
        <ele>274</ele>
        <time>2018-03-08T10:38:30Z</time>
      </trkpt>
      <trkpt lat="45.94878" lon="4.86033">
        <ele>274</ele>
        <time>2018-03-08T10:38:31Z</time>
      </trkpt>
      <trkpt lat="45.9488" lon="4.86042">
        <ele>274</ele>
        <time>2018-03-08T10:38:32Z</time>
      </trkpt>
      <trkpt lat="45.94882" lon="4.86049">
        <ele>274</ele>
        <time>2018-03-08T10:38:33Z</time>
      </trkpt>
      <trkpt lat="45.94884" lon="4.86057">
        <ele>274</ele>
        <time>2018-03-08T10:38:34Z</time>
      </trkpt>
      <trkpt lat="45.94885" lon="4.86064">
        <ele>274</ele>
        <time>2018-03-08T10:38:35Z</time>
      </trkpt>
      <trkpt lat="45.94888" lon="4.8607">
        <ele>274</ele>
        <time>2018-03-08T10:38:36Z</time>
      </trkpt>
      <trkpt lat="45.9489" lon="4.86077">
        <ele>274</ele>
        <time>2018-03-08T10:38:37Z</time>
      </trkpt>
      <trkpt lat="45.94892" lon="4.86083">
        <ele>274</ele>
        <time>2018-03-08T10:38:38Z</time>
      </trkpt>
      <trkpt lat="45.94895" lon="4.8609">
        <ele>274</ele>
        <time>2018-03-08T10:38:39Z</time>
      </trkpt>
      <trkpt lat="45.94897" lon="4.86098">
        <ele>274</ele>
        <time>2018-03-08T10:38:40Z</time>
      </trkpt>
      <trkpt lat="45.949" lon="4.86105">
        <ele>274</ele>
        <time>2018-03-08T10:38:41Z</time>
      </trkpt>
      <trkpt lat="45.94903" lon="4.86113">
        <ele>274</ele>
        <time>2018-03-08T10:38:42Z</time>
      </trkpt>
      <trkpt lat="45.94906" lon="4.86119">
        <ele>274</ele>
        <time>2018-03-08T10:38:43Z</time>
      </trkpt>
      <trkpt lat="45.94909" lon="4.86126">
        <ele>274</ele>
        <time>2018-03-08T10:38:44Z</time>
      </trkpt>
      <trkpt lat="45.94912" lon="4.86132">
        <ele>274</ele>
        <time>2018-03-08T10:38:45Z</time>
      </trkpt>
      <trkpt lat="45.94917" lon="4.86138">
        <ele>274</ele>
        <time>2018-03-08T10:38:46Z</time>
      </trkpt>
      <trkpt lat="45.94921" lon="4.86144">
        <ele>273</ele>
        <time>2018-03-08T10:38:47Z</time>
      </trkpt>
      <trkpt lat="45.94924" lon="4.86149">
        <ele>273</ele>
        <time>2018-03-08T10:38:48Z</time>
      </trkpt>
      <trkpt lat="45.94929" lon="4.86154">
        <ele>273</ele>
        <time>2018-03-08T10:38:49Z</time>
      </trkpt>
      <trkpt lat="45.94933" lon="4.8616">
        <ele>273</ele>
        <time>2018-03-08T10:38:50Z</time>
      </trkpt>
      <trkpt lat="45.94938" lon="4.86165">
        <ele>273</ele>
        <time>2018-03-08T10:38:51Z</time>
      </trkpt>
      <trkpt lat="45.94942" lon="4.86171">
        <ele>273</ele>
        <time>2018-03-08T10:38:52Z</time>
      </trkpt>
      <trkpt lat="45.94947" lon="4.86176">
        <ele>273</ele>
        <time>2018-03-08T10:38:53Z</time>
      </trkpt>
      <trkpt lat="45.94952" lon="4.86182">
        <ele>273</ele>
        <time>2018-03-08T10:38:54Z</time>
      </trkpt>
      <trkpt lat="45.94956" lon="4.86188">
        <ele>273</ele>
        <time>2018-03-08T10:38:55Z</time>
      </trkpt>
      <trkpt lat="45.94961" lon="4.86194">
        <ele>272</ele>
        <time>2018-03-08T10:38:56Z</time>
      </trkpt>
      <trkpt lat="45.94966" lon="4.86199">
        <ele>272</ele>
        <time>2018-03-08T10:38:57Z</time>
      </trkpt>
      <trkpt lat="45.9497" lon="4.86205">
        <ele>272</ele>
        <time>2018-03-08T10:38:58Z</time>
      </trkpt>
      <trkpt lat="45.94975" lon="4.8621">
        <ele>272</ele>
        <time>2018-03-08T10:38:59Z</time>
      </trkpt>
      <trkpt lat="45.94979" lon="4.86216">
        <ele>272</ele>
        <time>2018-03-08T10:39:00Z</time>
      </trkpt>
      <trkpt lat="45.94985" lon="4.86222">
        <ele>272</ele>
        <time>2018-03-08T10:39:01Z</time>
      </trkpt>
      <trkpt lat="45.9499" lon="4.86228">
        <ele>272</ele>
        <time>2018-03-08T10:39:02Z</time>
      </trkpt>
      <trkpt lat="45.94995" lon="4.86235">
        <ele>272</ele>
        <time>2018-03-08T10:39:03Z</time>
      </trkpt>
      <trkpt lat="45.95001" lon="4.86241">
        <ele>272</ele>
        <time>2018-03-08T10:39:04Z</time>
      </trkpt>
      <trkpt lat="45.95005" lon="4.86247">
        <ele>272</ele>
        <time>2018-03-08T10:39:05Z</time>
      </trkpt>
      <trkpt lat="45.9501" lon="4.86253">
        <ele>272</ele>
        <time>2018-03-08T10:39:06Z</time>
      </trkpt>
      <trkpt lat="45.95014" lon="4.8626">
        <ele>272</ele>
        <time>2018-03-08T10:39:07Z</time>
      </trkpt>
      <trkpt lat="45.9502" lon="4.86266">
        <ele>271</ele>
        <time>2018-03-08T10:39:08Z</time>
      </trkpt>
      <trkpt lat="45.95025" lon="4.86272">
        <ele>271</ele>
        <time>2018-03-08T10:39:09Z</time>
      </trkpt>
      <trkpt lat="45.95031" lon="4.86279">
        <ele>271</ele>
        <time>2018-03-08T10:39:10Z</time>
      </trkpt>
      <trkpt lat="45.95036" lon="4.86286">
        <ele>271</ele>
        <time>2018-03-08T10:39:11Z</time>
      </trkpt>
      <trkpt lat="45.95041" lon="4.86293">
        <ele>271</ele>
        <time>2018-03-08T10:39:12Z</time>
      </trkpt>
      <trkpt lat="45.95047" lon="4.863">
        <ele>271</ele>
        <time>2018-03-08T10:39:13Z</time>
      </trkpt>
      <trkpt lat="45.95053" lon="4.86307">
        <ele>271</ele>
        <time>2018-03-08T10:39:14Z</time>
      </trkpt>
      <trkpt lat="45.95059" lon="4.86313">
        <ele>271</ele>
        <time>2018-03-08T10:39:15Z</time>
      </trkpt>
      <trkpt lat="45.95065" lon="4.8632">
        <ele>270</ele>
        <time>2018-03-08T10:39:16Z</time>
      </trkpt>
      <trkpt lat="45.95069" lon="4.86327">
        <ele>270</ele>
        <time>2018-03-08T10:39:17Z</time>
      </trkpt>
      <trkpt lat="45.95075" lon="4.86334">
        <ele>270</ele>
        <time>2018-03-08T10:39:18Z</time>
      </trkpt>
      <trkpt lat="45.9508" lon="4.8634">
        <ele>270</ele>
        <time>2018-03-08T10:39:19Z</time>
      </trkpt>
      <trkpt lat="45.95085" lon="4.86348">
        <ele>269</ele>
        <time>2018-03-08T10:39:20Z</time>
      </trkpt>
      <trkpt lat="45.9509" lon="4.86354">
        <ele>269</ele>
        <time>2018-03-08T10:39:21Z</time>
      </trkpt>
      <trkpt lat="45.95095" lon="4.86361">
        <ele>269</ele>
        <time>2018-03-08T10:39:22Z</time>
      </trkpt>
      <trkpt lat="45.95101" lon="4.86368">
        <ele>269</ele>
        <time>2018-03-08T10:39:23Z</time>
      </trkpt>
      <trkpt lat="45.95106" lon="4.86374">
        <ele>269</ele>
        <time>2018-03-08T10:39:24Z</time>
      </trkpt>
      <trkpt lat="45.95111" lon="4.8638">
        <ele>269</ele>
        <time>2018-03-08T10:39:25Z</time>
      </trkpt>
      <trkpt lat="45.95116" lon="4.86386">
        <ele>269</ele>
        <time>2018-03-08T10:39:26Z</time>
      </trkpt>
      <trkpt lat="45.95121" lon="4.86392">
        <ele>269</ele>
        <time>2018-03-08T10:39:27Z</time>
      </trkpt>
      <trkpt lat="45.95126" lon="4.86398">
        <ele>268</ele>
        <time>2018-03-08T10:39:28Z</time>
      </trkpt>
      <trkpt lat="45.95131" lon="4.86404">
        <ele>268</ele>
        <time>2018-03-08T10:39:29Z</time>
      </trkpt>
      <trkpt lat="45.95136" lon="4.86409">
        <ele>268</ele>
        <time>2018-03-08T10:39:30Z</time>
      </trkpt>
      <trkpt lat="45.95141" lon="4.86415">
        <ele>268</ele>
        <time>2018-03-08T10:39:31Z</time>
      </trkpt>
      <trkpt lat="45.95145" lon="4.86421">
        <ele>268</ele>
        <time>2018-03-08T10:39:32Z</time>
      </trkpt>
      <trkpt lat="45.9515" lon="4.86427">
        <ele>268</ele>
        <time>2018-03-08T10:39:33Z</time>
      </trkpt>
      <trkpt lat="45.95155" lon="4.86433">
        <ele>268</ele>
        <time>2018-03-08T10:39:34Z</time>
      </trkpt>
      <trkpt lat="45.9516" lon="4.8644">
        <ele>268</ele>
        <time>2018-03-08T10:39:35Z</time>
      </trkpt>
      <trkpt lat="45.95164" lon="4.86444">
        <ele>268</ele>
        <time>2018-03-08T10:39:36Z</time>
      </trkpt>
      <trkpt lat="45.95169" lon="4.86451">
        <ele>268</ele>
        <time>2018-03-08T10:39:37Z</time>
      </trkpt>
      <trkpt lat="45.95175" lon="4.86458">
        <ele>268</ele>
        <time>2018-03-08T10:39:38Z</time>
      </trkpt>
      <trkpt lat="45.9518" lon="4.86464">
        <ele>268</ele>
        <time>2018-03-08T10:39:39Z</time>
      </trkpt>
      <trkpt lat="45.95186" lon="4.8647">
        <ele>268</ele>
        <time>2018-03-08T10:39:40Z</time>
      </trkpt>
      <trkpt lat="45.95191" lon="4.86477">
        <ele>268</ele>
        <time>2018-03-08T10:39:41Z</time>
      </trkpt>
      <trkpt lat="45.95197" lon="4.86484">
        <ele>268</ele>
        <time>2018-03-08T10:39:42Z</time>
      </trkpt>
      <trkpt lat="45.95203" lon="4.86491">
        <ele>268</ele>
        <time>2018-03-08T10:39:43Z</time>
      </trkpt>
      <trkpt lat="45.95209" lon="4.86499">
        <ele>268</ele>
        <time>2018-03-08T10:39:44Z</time>
      </trkpt>
      <trkpt lat="45.95215" lon="4.86505">
        <ele>268</ele>
        <time>2018-03-08T10:39:45Z</time>
      </trkpt>
      <trkpt lat="45.95221" lon="4.86513">
        <ele>268</ele>
        <time>2018-03-08T10:39:46Z</time>
      </trkpt>
      <trkpt lat="45.95228" lon="4.8652">
        <ele>268</ele>
        <time>2018-03-08T10:39:47Z</time>
      </trkpt>
      <trkpt lat="45.95234" lon="4.86527">
        <ele>268</ele>
        <time>2018-03-08T10:39:48Z</time>
      </trkpt>
      <trkpt lat="45.9524" lon="4.86534">
        <ele>268</ele>
        <time>2018-03-08T10:39:49Z</time>
      </trkpt>
      <trkpt lat="45.95246" lon="4.86539">
        <ele>268</ele>
        <time>2018-03-08T10:39:50Z</time>
      </trkpt>
      <trkpt lat="45.95253" lon="4.86546">
        <ele>267</ele>
        <time>2018-03-08T10:39:51Z</time>
      </trkpt>
      <trkpt lat="45.95257" lon="4.86556">
        <ele>267</ele>
        <time>2018-03-08T10:39:52Z</time>
      </trkpt>
      <trkpt lat="45.95263" lon="4.86562">
        <ele>267</ele>
        <time>2018-03-08T10:39:53Z</time>
      </trkpt>
      <trkpt lat="45.95269" lon="4.86568">
        <ele>267</ele>
        <time>2018-03-08T10:39:54Z</time>
      </trkpt>
      <trkpt lat="45.95273" lon="4.86575">
        <ele>267</ele>
        <time>2018-03-08T10:39:55Z</time>
      </trkpt>
      <trkpt lat="45.95277" lon="4.86582">
        <ele>267</ele>
        <time>2018-03-08T10:39:56Z</time>
      </trkpt>
      <trkpt lat="45.95281" lon="4.86588">
        <ele>268</ele>
        <time>2018-03-08T10:39:57Z</time>
      </trkpt>
      <trkpt lat="45.95285" lon="4.86594">
        <ele>268</ele>
        <time>2018-03-08T10:39:58Z</time>
      </trkpt>
      <trkpt lat="45.95289" lon="4.86601">
        <ele>268</ele>
        <time>2018-03-08T10:39:59Z</time>
      </trkpt>
      <trkpt lat="45.95292" lon="4.86608">
        <ele>268</ele>
        <time>2018-03-08T10:40:00Z</time>
      </trkpt>
      <trkpt lat="45.95296" lon="4.86613">
        <ele>268</ele>
        <time>2018-03-08T10:40:01Z</time>
      </trkpt>
      <trkpt lat="45.95298" lon="4.86619">
        <ele>268</ele>
        <time>2018-03-08T10:40:02Z</time>
      </trkpt>
      <trkpt lat="45.953" lon="4.86625">
        <ele>268</ele>
        <time>2018-03-08T10:40:03Z</time>
      </trkpt>
      <trkpt lat="45.95302" lon="4.86632">
        <ele>268</ele>
        <time>2018-03-08T10:40:04Z</time>
      </trkpt>
      <trkpt lat="45.95305" lon="4.86637">
        <ele>268</ele>
        <time>2018-03-08T10:40:05Z</time>
      </trkpt>
      <trkpt lat="45.9531" lon="4.86647">
        <ele>268</ele>
        <time>2018-03-08T10:40:07Z</time>
      </trkpt>
      <trkpt lat="45.95313" lon="4.86652">
        <ele>268</ele>
        <time>2018-03-08T10:40:08Z</time>
      </trkpt>
      <trkpt lat="45.95317" lon="4.86662">
        <ele>268</ele>
        <time>2018-03-08T10:40:10Z</time>
      </trkpt>
      <trkpt lat="45.9532" lon="4.86668">
        <ele>268</ele>
        <time>2018-03-08T10:40:11Z</time>
      </trkpt>
      <trkpt lat="45.95323" lon="4.86675">
        <ele>268</ele>
        <time>2018-03-08T10:40:12Z</time>
      </trkpt>
      <trkpt lat="45.95326" lon="4.86681">
        <ele>269</ele>
        <time>2018-03-08T10:40:13Z</time>
      </trkpt>
      <trkpt lat="45.95328" lon="4.86687">
        <ele>269</ele>
        <time>2018-03-08T10:40:14Z</time>
      </trkpt>
      <trkpt lat="45.95331" lon="4.86693">
        <ele>269</ele>
        <time>2018-03-08T10:40:15Z</time>
      </trkpt>
      <trkpt lat="45.95334" lon="4.86699">
        <ele>268</ele>
        <time>2018-03-08T10:40:16Z</time>
      </trkpt>
      <trkpt lat="45.95337" lon="4.86705">
        <ele>268</ele>
        <time>2018-03-08T10:40:17Z</time>
      </trkpt>
      <trkpt lat="45.9534" lon="4.86712">
        <ele>268</ele>
        <time>2018-03-08T10:40:18Z</time>
      </trkpt>
      <trkpt lat="45.95344" lon="4.86718">
        <ele>268</ele>
        <time>2018-03-08T10:40:19Z</time>
      </trkpt>
      <trkpt lat="45.95346" lon="4.86725">
        <ele>268</ele>
        <time>2018-03-08T10:40:20Z</time>
      </trkpt>
      <trkpt lat="45.9535" lon="4.86731">
        <ele>268</ele>
        <time>2018-03-08T10:40:21Z</time>
      </trkpt>
      <trkpt lat="45.95352" lon="4.86737">
        <ele>268</ele>
        <time>2018-03-08T10:40:22Z</time>
      </trkpt>
      <trkpt lat="45.95356" lon="4.86744">
        <ele>268</ele>
        <time>2018-03-08T10:40:23Z</time>
      </trkpt>
      <trkpt lat="45.95359" lon="4.8675">
        <ele>268</ele>
        <time>2018-03-08T10:40:24Z</time>
      </trkpt>
      <trkpt lat="45.95362" lon="4.86757">
        <ele>268</ele>
        <time>2018-03-08T10:40:25Z</time>
      </trkpt>
      <trkpt lat="45.95365" lon="4.86763">
        <ele>268</ele>
        <time>2018-03-08T10:40:26Z</time>
      </trkpt>
      <trkpt lat="45.95368" lon="4.86769">
        <ele>268</ele>
        <time>2018-03-08T10:40:27Z</time>
      </trkpt>
      <trkpt lat="45.95372" lon="4.86774">
        <ele>268</ele>
        <time>2018-03-08T10:40:28Z</time>
      </trkpt>
      <trkpt lat="45.95375" lon="4.86781">
        <ele>268</ele>
        <time>2018-03-08T10:40:29Z</time>
      </trkpt>
      <trkpt lat="45.95378" lon="4.86788">
        <ele>268</ele>
        <time>2018-03-08T10:40:30Z</time>
      </trkpt>
      <trkpt lat="45.95381" lon="4.86796">
        <ele>268</ele>
        <time>2018-03-08T10:40:31Z</time>
      </trkpt>
      <trkpt lat="45.95384" lon="4.86802">
        <ele>268</ele>
        <time>2018-03-08T10:40:32Z</time>
      </trkpt>
      <trkpt lat="45.95387" lon="4.86808">
        <ele>268</ele>
        <time>2018-03-08T10:40:33Z</time>
      </trkpt>
      <trkpt lat="45.9539" lon="4.86815">
        <ele>268</ele>
        <time>2018-03-08T10:40:34Z</time>
      </trkpt>
      <trkpt lat="45.95393" lon="4.86822">
        <ele>268</ele>
        <time>2018-03-08T10:40:35Z</time>
      </trkpt>
      <trkpt lat="45.95395" lon="4.86829">
        <ele>268</ele>
        <time>2018-03-08T10:40:36Z</time>
      </trkpt>
      <trkpt lat="45.95399" lon="4.86835">
        <ele>268</ele>
        <time>2018-03-08T10:40:37Z</time>
      </trkpt>
      <trkpt lat="45.95403" lon="4.86842">
        <ele>268</ele>
        <time>2018-03-08T10:40:38Z</time>
      </trkpt>
      <trkpt lat="45.95407" lon="4.86847">
        <ele>268</ele>
        <time>2018-03-08T10:40:39Z</time>
      </trkpt>
      <trkpt lat="45.9541" lon="4.86854">
        <ele>269</ele>
        <time>2018-03-08T10:40:40Z</time>
      </trkpt>
      <trkpt lat="45.95412" lon="4.86859">
        <ele>269</ele>
        <time>2018-03-08T10:40:41Z</time>
      </trkpt>
      <trkpt lat="45.95415" lon="4.86866">
        <ele>269</ele>
        <time>2018-03-08T10:40:42Z</time>
      </trkpt>
      <trkpt lat="45.95418" lon="4.86873">
        <ele>268</ele>
        <time>2018-03-08T10:40:43Z</time>
      </trkpt>
      <trkpt lat="45.95421" lon="4.8688">
        <ele>268</ele>
        <time>2018-03-08T10:40:44Z</time>
      </trkpt>
      <trkpt lat="45.95425" lon="4.86885">
        <ele>268</ele>
        <time>2018-03-08T10:40:45Z</time>
      </trkpt>
      <trkpt lat="45.95428" lon="4.86892">
        <ele>268</ele>
        <time>2018-03-08T10:40:46Z</time>
      </trkpt>
      <trkpt lat="45.9543" lon="4.86897">
        <ele>268</ele>
        <time>2018-03-08T10:40:47Z</time>
      </trkpt>
      <trkpt lat="45.95434" lon="4.86903">
        <ele>268</ele>
        <time>2018-03-08T10:40:48Z</time>
      </trkpt>
      <trkpt lat="45.95437" lon="4.86909">
        <ele>268</ele>
        <time>2018-03-08T10:40:49Z</time>
      </trkpt>
      <trkpt lat="45.95441" lon="4.86915">
        <ele>268</ele>
        <time>2018-03-08T10:40:50Z</time>
      </trkpt>
      <trkpt lat="45.95444" lon="4.86921">
        <ele>269</ele>
        <time>2018-03-08T10:40:51Z</time>
      </trkpt>
      <trkpt lat="45.95447" lon="4.86928">
        <ele>269</ele>
        <time>2018-03-08T10:40:52Z</time>
      </trkpt>
      <trkpt lat="45.95451" lon="4.86934">
        <ele>268</ele>
        <time>2018-03-08T10:40:53Z</time>
      </trkpt>
      <trkpt lat="45.95454" lon="4.8694">
        <ele>268</ele>
        <time>2018-03-08T10:40:54Z</time>
      </trkpt>
      <trkpt lat="45.95457" lon="4.86945">
        <ele>268</ele>
        <time>2018-03-08T10:40:55Z</time>
      </trkpt>
      <trkpt lat="45.95459" lon="4.86952">
        <ele>268</ele>
        <time>2018-03-08T10:40:56Z</time>
      </trkpt>
      <trkpt lat="45.95462" lon="4.86958">
        <ele>268</ele>
        <time>2018-03-08T10:40:57Z</time>
      </trkpt>
      <trkpt lat="45.95464" lon="4.86965">
        <ele>268</ele>
        <time>2018-03-08T10:40:58Z</time>
      </trkpt>
      <trkpt lat="45.95466" lon="4.86971">
        <ele>268</ele>
        <time>2018-03-08T10:40:59Z</time>
      </trkpt>
      <trkpt lat="45.95469" lon="4.86977">
        <ele>268</ele>
        <time>2018-03-08T10:41:00Z</time>
      </trkpt>
      <trkpt lat="45.95471" lon="4.86982">
        <ele>268</ele>
        <time>2018-03-08T10:41:01Z</time>
      </trkpt>
      <trkpt lat="45.95474" lon="4.86988">
        <ele>268</ele>
        <time>2018-03-08T10:41:02Z</time>
      </trkpt>
      <trkpt lat="45.95477" lon="4.86994">
        <ele>268</ele>
        <time>2018-03-08T10:41:03Z</time>
      </trkpt>
      <trkpt lat="45.9548" lon="4.87">
        <ele>269</ele>
        <time>2018-03-08T10:41:04Z</time>
      </trkpt>
      <trkpt lat="45.95483" lon="4.87005">
        <ele>269</ele>
        <time>2018-03-08T10:41:05Z</time>
      </trkpt>
      <trkpt lat="45.95487" lon="4.87013">
        <ele>269</ele>
        <time>2018-03-08T10:41:06Z</time>
      </trkpt>
      <trkpt lat="45.9549" lon="4.87019">
        <ele>269</ele>
        <time>2018-03-08T10:41:07Z</time>
      </trkpt>
      <trkpt lat="45.95492" lon="4.87025">
        <ele>269</ele>
        <time>2018-03-08T10:41:08Z</time>
      </trkpt>
      <trkpt lat="45.95495" lon="4.87031">
        <ele>269</ele>
        <time>2018-03-08T10:41:09Z</time>
      </trkpt>
      <trkpt lat="45.95498" lon="4.87037">
        <ele>269</ele>
        <time>2018-03-08T10:41:10Z</time>
      </trkpt>
      <trkpt lat="45.95501" lon="4.87043">
        <ele>268</ele>
        <time>2018-03-08T10:41:11Z</time>
      </trkpt>
      <trkpt lat="45.95504" lon="4.87048">
        <ele>268</ele>
        <time>2018-03-08T10:41:12Z</time>
      </trkpt>
      <trkpt lat="45.95508" lon="4.87055">
        <ele>268</ele>
        <time>2018-03-08T10:41:13Z</time>
      </trkpt>
      <trkpt lat="45.95512" lon="4.87062">
        <ele>268</ele>
        <time>2018-03-08T10:41:14Z</time>
      </trkpt>
      <trkpt lat="45.95515" lon="4.87068">
        <ele>268</ele>
        <time>2018-03-08T10:41:15Z</time>
      </trkpt>
      <trkpt lat="45.95518" lon="4.87074">
        <ele>268</ele>
        <time>2018-03-08T10:41:16Z</time>
      </trkpt>
      <trkpt lat="45.95522" lon="4.8708">
        <ele>268</ele>
        <time>2018-03-08T10:41:17Z</time>
      </trkpt>
      <trkpt lat="45.95525" lon="4.87087">
        <ele>269</ele>
        <time>2018-03-08T10:41:18Z</time>
      </trkpt>
      <trkpt lat="45.95529" lon="4.87092">
        <ele>269</ele>
        <time>2018-03-08T10:41:19Z</time>
      </trkpt>
      <trkpt lat="45.95532" lon="4.87099">
        <ele>269</ele>
        <time>2018-03-08T10:41:20Z</time>
      </trkpt>
      <trkpt lat="45.95535" lon="4.87105">
        <ele>269</ele>
        <time>2018-03-08T10:41:21Z</time>
      </trkpt>
      <trkpt lat="45.95539" lon="4.87111">
        <ele>269</ele>
        <time>2018-03-08T10:41:22Z</time>
      </trkpt>
      <trkpt lat="45.95542" lon="4.87117">
        <ele>269</ele>
        <time>2018-03-08T10:41:23Z</time>
      </trkpt>
      <trkpt lat="45.95544" lon="4.87123">
        <ele>270</ele>
        <time>2018-03-08T10:41:24Z</time>
      </trkpt>
      <trkpt lat="45.95547" lon="4.87129">
        <ele>270</ele>
        <time>2018-03-08T10:41:25Z</time>
      </trkpt>
      <trkpt lat="45.9555" lon="4.87135">
        <ele>270</ele>
        <time>2018-03-08T10:41:26Z</time>
      </trkpt>
      <trkpt lat="45.95552" lon="4.8714">
        <ele>270</ele>
        <time>2018-03-08T10:41:27Z</time>
      </trkpt>
      <trkpt lat="45.95554" lon="4.87146">
        <ele>270</ele>
        <time>2018-03-08T10:41:28Z</time>
      </trkpt>
      <trkpt lat="45.95557" lon="4.87153">
        <ele>270</ele>
        <time>2018-03-08T10:41:29Z</time>
      </trkpt>
      <trkpt lat="45.9556" lon="4.87159">
        <ele>270</ele>
        <time>2018-03-08T10:41:30Z</time>
      </trkpt>
      <trkpt lat="45.95563" lon="4.87164">
        <ele>270</ele>
        <time>2018-03-08T10:41:31Z</time>
      </trkpt>
      <trkpt lat="45.95566" lon="4.87171">
        <ele>270</ele>
        <time>2018-03-08T10:41:32Z</time>
      </trkpt>
      <trkpt lat="45.95569" lon="4.87177">
        <ele>270</ele>
        <time>2018-03-08T10:41:33Z</time>
      </trkpt>
      <trkpt lat="45.95571" lon="4.87183">
        <ele>270</ele>
        <time>2018-03-08T10:41:34Z</time>
      </trkpt>
      <trkpt lat="45.95574" lon="4.8719">
        <ele>270</ele>
        <time>2018-03-08T10:41:35Z</time>
      </trkpt>
      <trkpt lat="45.95576" lon="4.87196">
        <ele>270</ele>
        <time>2018-03-08T10:41:36Z</time>
      </trkpt>
      <trkpt lat="45.95579" lon="4.87202">
        <ele>270</ele>
        <time>2018-03-08T10:41:37Z</time>
      </trkpt>
      <trkpt lat="45.95583" lon="4.87208">
        <ele>270</ele>
        <time>2018-03-08T10:41:38Z</time>
      </trkpt>
      <trkpt lat="45.95586" lon="4.87214">
        <ele>272</ele>
        <time>2018-03-08T10:41:39Z</time>
      </trkpt>
      <trkpt lat="45.95589" lon="4.87222">
        <ele>272</ele>
        <time>2018-03-08T10:41:41Z</time>
      </trkpt>
      <trkpt lat="45.95592" lon="4.87227">
        <ele>272</ele>
        <time>2018-03-08T10:41:42Z</time>
      </trkpt>
      <trkpt lat="45.95595" lon="4.87232">
        <ele>272</ele>
        <time>2018-03-08T10:41:43Z</time>
      </trkpt>
      <trkpt lat="45.95597" lon="4.87239">
        <ele>272</ele>
        <time>2018-03-08T10:41:44Z</time>
      </trkpt>
      <trkpt lat="45.95602" lon="4.87248">
        <ele>272</ele>
        <time>2018-03-08T10:41:46Z</time>
      </trkpt>
      <trkpt lat="45.95604" lon="4.87252">
        <ele>271</ele>
        <time>2018-03-08T10:41:47Z</time>
      </trkpt>
      <trkpt lat="45.95608" lon="4.87261">
        <ele>272</ele>
        <time>2018-03-08T10:41:49Z</time>
      </trkpt>
      <trkpt lat="45.95609" lon="4.87263">
        <ele>272</ele>
        <time>2018-03-08T10:41:50Z</time>
      </trkpt>
      <trkpt lat="45.95613" lon="4.87271">
        <ele>272</ele>
        <time>2018-03-08T10:41:53Z</time>
      </trkpt>
      <trkpt lat="45.95614" lon="4.87274">
        <ele>272</ele>
        <time>2018-03-08T10:41:54Z</time>
      </trkpt>
      <trkpt lat="45.9562" lon="4.87284">
        <ele>272</ele>
        <time>2018-03-08T10:41:57Z</time>
      </trkpt>
      <trkpt lat="45.95625" lon="4.87296">
        <ele>272</ele>
        <time>2018-03-08T10:41:58Z</time>
      </trkpt>
      <trkpt lat="45.95629" lon="4.87306">
        <ele>272</ele>
        <time>2018-03-08T10:42:01Z</time>
      </trkpt>
      <trkpt lat="45.95631" lon="4.87309">
        <ele>272</ele>
        <time>2018-03-08T10:42:02Z</time>
      </trkpt>
      <trkpt lat="45.95636" lon="4.87318">
        <ele>272</ele>
        <time>2018-03-08T10:42:03Z</time>
      </trkpt>
      <trkpt lat="45.95638" lon="4.87323">
        <ele>272</ele>
        <time>2018-03-08T10:42:04Z</time>
      </trkpt>
      <trkpt lat="45.95643" lon="4.87332">
        <ele>272</ele>
        <time>2018-03-08T10:42:06Z</time>
      </trkpt>
      <trkpt lat="45.95645" lon="4.87337">
        <ele>272</ele>
        <time>2018-03-08T10:42:07Z</time>
      </trkpt>
      <trkpt lat="45.95649" lon="4.87346">
        <ele>272</ele>
        <time>2018-03-08T10:42:09Z</time>
      </trkpt>
      <trkpt lat="45.95651" lon="4.8735">
        <ele>272</ele>
        <time>2018-03-08T10:42:10Z</time>
      </trkpt>
      <trkpt lat="45.95656" lon="4.87359">
        <ele>272</ele>
        <time>2018-03-08T10:42:12Z</time>
      </trkpt>
      <trkpt lat="45.95658" lon="4.87364">
        <ele>272</ele>
        <time>2018-03-08T10:42:13Z</time>
      </trkpt>
      <trkpt lat="45.95663" lon="4.87373">
        <ele>272</ele>
        <time>2018-03-08T10:42:15Z</time>
      </trkpt>
      <trkpt lat="45.95665" lon="4.87377">
        <ele>272</ele>
        <time>2018-03-08T10:42:16Z</time>
      </trkpt>
      <trkpt lat="45.9567" lon="4.87387">
        <ele>274</ele>
        <time>2018-03-08T10:42:18Z</time>
      </trkpt>
      <trkpt lat="45.95672" lon="4.87391">
        <ele>274</ele>
        <time>2018-03-08T10:42:19Z</time>
      </trkpt>
      <trkpt lat="45.95677" lon="4.87399">
        <ele>274</ele>
        <time>2018-03-08T10:42:21Z</time>
      </trkpt>
      <trkpt lat="45.9568" lon="4.87404">
        <ele>274</ele>
        <time>2018-03-08T10:42:22Z</time>
      </trkpt>
      <trkpt lat="45.95684" lon="4.87413">
        <ele>274</ele>
        <time>2018-03-08T10:42:24Z</time>
      </trkpt>
      <trkpt lat="45.95686" lon="4.87418">
        <ele>274</ele>
        <time>2018-03-08T10:42:25Z</time>
      </trkpt>
      <trkpt lat="45.95691" lon="4.87427">
        <ele>275</ele>
        <time>2018-03-08T10:42:27Z</time>
      </trkpt>
      <trkpt lat="45.95693" lon="4.87432">
        <ele>275</ele>
        <time>2018-03-08T10:42:28Z</time>
      </trkpt>
      <trkpt lat="45.95698" lon="4.87441">
        <ele>275</ele>
        <time>2018-03-08T10:42:30Z</time>
      </trkpt>
      <trkpt lat="45.957" lon="4.87445">
        <ele>275</ele>
        <time>2018-03-08T10:42:31Z</time>
      </trkpt>
      <trkpt lat="45.95704" lon="4.87454">
        <ele>275</ele>
        <time>2018-03-08T10:42:33Z</time>
      </trkpt>
      <trkpt lat="45.95707" lon="4.87459">
        <ele>275</ele>
        <time>2018-03-08T10:42:34Z</time>
      </trkpt>
      <trkpt lat="45.95711" lon="4.87468">
        <ele>276</ele>
        <time>2018-03-08T10:42:36Z</time>
      </trkpt>
      <trkpt lat="45.95713" lon="4.87472">
        <ele>276</ele>
        <time>2018-03-08T10:42:37Z</time>
      </trkpt>
      <trkpt lat="45.95718" lon="4.87481">
        <ele>276</ele>
        <time>2018-03-08T10:42:39Z</time>
      </trkpt>
      <trkpt lat="45.95721" lon="4.87486">
        <ele>276</ele>
        <time>2018-03-08T10:42:40Z</time>
      </trkpt>
      <trkpt lat="45.95726" lon="4.87496">
        <ele>277</ele>
        <time>2018-03-08T10:42:42Z</time>
      </trkpt>
      <trkpt lat="45.95728" lon="4.87501">
        <ele>277</ele>
        <time>2018-03-08T10:42:43Z</time>
      </trkpt>
      <trkpt lat="45.95733" lon="4.8751">
        <ele>277</ele>
        <time>2018-03-08T10:42:45Z</time>
      </trkpt>
      <trkpt lat="45.95735" lon="4.87514">
        <ele>277</ele>
        <time>2018-03-08T10:42:46Z</time>
      </trkpt>
      <trkpt lat="45.95739" lon="4.87523">
        <ele>277</ele>
        <time>2018-03-08T10:42:48Z</time>
      </trkpt>
      <trkpt lat="45.95742" lon="4.87528">
        <ele>277</ele>
        <time>2018-03-08T10:42:49Z</time>
      </trkpt>
      <trkpt lat="45.95746" lon="4.87536">
        <ele>277</ele>
        <time>2018-03-08T10:42:51Z</time>
      </trkpt>
      <trkpt lat="45.95749" lon="4.8754">
        <ele>277</ele>
        <time>2018-03-08T10:42:52Z</time>
      </trkpt>
      <trkpt lat="45.95752" lon="4.87548">
        <ele>281</ele>
        <time>2018-03-08T10:42:55Z</time>
      </trkpt>
      <trkpt lat="45.95754" lon="4.87551">
        <ele>281</ele>
        <time>2018-03-08T10:42:56Z</time>
      </trkpt>
      <trkpt lat="45.95758" lon="4.87558">
        <ele>281</ele>
        <time>2018-03-08T10:42:58Z</time>
      </trkpt>
      <trkpt lat="45.9576" lon="4.87561">
        <ele>281</ele>
        <time>2018-03-08T10:42:59Z</time>
      </trkpt>
      <trkpt lat="45.95763" lon="4.87569">
        <ele>281</ele>
        <time>2018-03-08T10:43:01Z</time>
      </trkpt>
      <trkpt lat="45.95765" lon="4.87572">
        <ele>280</ele>
        <time>2018-03-08T10:43:02Z</time>
      </trkpt>
      <trkpt lat="45.95769" lon="4.87579">
        <ele>281</ele>
        <time>2018-03-08T10:43:04Z</time>
      </trkpt>
      <trkpt lat="45.9577" lon="4.87583">
        <ele>281</ele>
        <time>2018-03-08T10:43:05Z</time>
      </trkpt>
      <trkpt lat="45.95774" lon="4.8759">
        <ele>281</ele>
        <time>2018-03-08T10:43:07Z</time>
      </trkpt>
      <trkpt lat="45.95776" lon="4.87594">
        <ele>281</ele>
        <time>2018-03-08T10:43:08Z</time>
      </trkpt>
      <trkpt lat="45.95779" lon="4.87601">
        <ele>282</ele>
        <time>2018-03-08T10:43:10Z</time>
      </trkpt>
      <trkpt lat="45.9578" lon="4.87605">
        <ele>282</ele>
        <time>2018-03-08T10:43:11Z</time>
      </trkpt>
      <trkpt lat="45.95784" lon="4.87613">
        <ele>282</ele>
        <time>2018-03-08T10:43:13Z</time>
      </trkpt>
      <trkpt lat="45.95786" lon="4.87616">
        <ele>282</ele>
        <time>2018-03-08T10:43:14Z</time>
      </trkpt>
      <trkpt lat="45.95789" lon="4.87624">
        <ele>282</ele>
        <time>2018-03-08T10:43:16Z</time>
      </trkpt>
      <trkpt lat="45.95791" lon="4.87627">
        <ele>282</ele>
        <time>2018-03-08T10:43:17Z</time>
      </trkpt>
      <trkpt lat="45.95795" lon="4.87637">
        <ele>282</ele>
        <time>2018-03-08T10:43:20Z</time>
      </trkpt>
      <trkpt lat="45.95797" lon="4.87641">
        <ele>282</ele>
        <time>2018-03-08T10:43:21Z</time>
      </trkpt>
      <trkpt lat="45.95801" lon="4.87651">
        <ele>283</ele>
        <time>2018-03-08T10:43:24Z</time>
      </trkpt>
      <trkpt lat="45.95802" lon="4.87654">
        <ele>283</ele>
        <time>2018-03-08T10:43:25Z</time>
      </trkpt>
      <trkpt lat="45.95807" lon="4.87665">
        <ele>283</ele>
        <time>2018-03-08T10:43:28Z</time>
      </trkpt>
      <trkpt lat="45.95808" lon="4.87668">
        <ele>283</ele>
        <time>2018-03-08T10:43:29Z</time>
      </trkpt>
      <trkpt lat="45.95811" lon="4.87679">
        <ele>283</ele>
        <time>2018-03-08T10:43:32Z</time>
      </trkpt>
      <trkpt lat="45.95813" lon="4.87683">
        <ele>283</ele>
        <time>2018-03-08T10:43:33Z</time>
      </trkpt>
      <trkpt lat="45.95816" lon="4.87694">
        <ele>283</ele>
        <time>2018-03-08T10:43:36Z</time>
      </trkpt>
      <trkpt lat="45.95817" lon="4.87698">
        <ele>283</ele>
        <time>2018-03-08T10:43:37Z</time>
      </trkpt>
      <trkpt lat="45.95819" lon="4.87711">
        <ele>283</ele>
        <time>2018-03-08T10:43:40Z</time>
      </trkpt>
      <trkpt lat="45.9582" lon="4.87715">
        <ele>283</ele>
        <time>2018-03-08T10:43:41Z</time>
      </trkpt>
      <trkpt lat="45.95821" lon="4.87724">
        <ele>284</ele>
        <time>2018-03-08T10:43:43Z</time>
      </trkpt>
      <trkpt lat="45.95822" lon="4.87728">
        <ele>284</ele>
        <time>2018-03-08T10:43:44Z</time>
      </trkpt>
      <trkpt lat="45.95824" lon="4.87741">
        <ele>284</ele>
        <time>2018-03-08T10:43:47Z</time>
      </trkpt>
      <trkpt lat="45.95825" lon="4.87745">
        <ele>284</ele>
        <time>2018-03-08T10:43:48Z</time>
      </trkpt>
      <trkpt lat="45.95826" lon="4.87753">
        <ele>285</ele>
        <time>2018-03-08T10:43:50Z</time>
      </trkpt>
      <trkpt lat="45.95827" lon="4.87757">
        <ele>285</ele>
        <time>2018-03-08T10:43:51Z</time>
      </trkpt>
      <trkpt lat="45.95828" lon="4.87767">
        <ele>285</ele>
        <time>2018-03-08T10:43:53Z</time>
      </trkpt>
      <trkpt lat="45.95829" lon="4.87771">
        <ele>285</ele>
        <time>2018-03-08T10:43:54Z</time>
      </trkpt>
      <trkpt lat="45.9583" lon="4.87781">
        <ele>285</ele>
        <time>2018-03-08T10:43:56Z</time>
      </trkpt>
      <trkpt lat="45.9583" lon="4.87785">
        <ele>285</ele>
        <time>2018-03-08T10:43:57Z</time>
      </trkpt>
      <trkpt lat="45.95831" lon="4.87797">
        <ele>285</ele>
        <time>2018-03-08T10:44:00Z</time>
      </trkpt>
      <trkpt lat="45.95831" lon="4.87801">
        <ele>285</ele>
        <time>2018-03-08T10:44:01Z</time>
      </trkpt>
      <trkpt lat="45.95833" lon="4.87812">
        <ele>286</ele>
        <time>2018-03-08T10:44:04Z</time>
      </trkpt>
      <trkpt lat="45.95833" lon="4.87816">
        <ele>286</ele>
        <time>2018-03-08T10:44:05Z</time>
      </trkpt>
      <trkpt lat="45.95833" lon="4.87828">
        <ele>288</ele>
        <time>2018-03-08T10:44:08Z</time>
      </trkpt>
      <trkpt lat="45.95834" lon="4.87832">
        <ele>288</ele>
        <time>2018-03-08T10:44:09Z</time>
      </trkpt>
      <trkpt lat="45.95834" lon="4.87841">
        <ele>288</ele>
        <time>2018-03-08T10:44:11Z</time>
      </trkpt>
      <trkpt lat="45.95834" lon="4.87846">
        <ele>288</ele>
        <time>2018-03-08T10:44:12Z</time>
      </trkpt>
      <trkpt lat="45.95834" lon="4.87855">
        <ele>289</ele>
        <time>2018-03-08T10:44:14Z</time>
      </trkpt>
      <trkpt lat="45.95835" lon="4.8786">
        <ele>289</ele>
        <time>2018-03-08T10:44:15Z</time>
      </trkpt>
      <trkpt lat="45.95836" lon="4.87869">
        <ele>289</ele>
        <time>2018-03-08T10:44:17Z</time>
      </trkpt>
      <trkpt lat="45.95836" lon="4.87873">
        <ele>289</ele>
        <time>2018-03-08T10:44:18Z</time>
      </trkpt>
      <trkpt lat="45.95837" lon="4.87882">
        <ele>289</ele>
        <time>2018-03-08T10:44:20Z</time>
      </trkpt>
      <trkpt lat="45.95837" lon="4.87887">
        <ele>289</ele>
        <time>2018-03-08T10:44:21Z</time>
      </trkpt>
      <trkpt lat="45.95838" lon="4.87895">
        <ele>289</ele>
        <time>2018-03-08T10:44:23Z</time>
      </trkpt>
      <trkpt lat="45.95838" lon="4.879">
        <ele>289</ele>
        <time>2018-03-08T10:44:24Z</time>
      </trkpt>
      <trkpt lat="45.95838" lon="4.87909">
        <ele>289</ele>
        <time>2018-03-08T10:44:26Z</time>
      </trkpt>
      <trkpt lat="45.95839" lon="4.87914">
        <ele>289</ele>
        <time>2018-03-08T10:44:27Z</time>
      </trkpt>
      <trkpt lat="45.95839" lon="4.87927">
        <ele>289</ele>
        <time>2018-03-08T10:44:30Z</time>
      </trkpt>
      <trkpt lat="45.9584" lon="4.87931">
        <ele>289</ele>
        <time>2018-03-08T10:44:31Z</time>
      </trkpt>
      <trkpt lat="45.9584" lon="4.87936">
        <ele>289</ele>
        <time>2018-03-08T10:44:32Z</time>
      </trkpt>
      <trkpt lat="45.9584" lon="4.87949">
        <ele>289</ele>
        <time>2018-03-08T10:44:33Z</time>
      </trkpt>
      <trkpt lat="45.95841" lon="4.87958">
        <ele>289</ele>
        <time>2018-03-08T10:44:35Z</time>
      </trkpt>
      <trkpt lat="45.95841" lon="4.87965">
        <ele>289</ele>
        <time>2018-03-08T10:44:36Z</time>
      </trkpt>
      <trkpt lat="45.95842" lon="4.87976">
        <ele>289</ele>
        <time>2018-03-08T10:44:38Z</time>
      </trkpt>
      <trkpt lat="45.95842" lon="4.87981">
        <ele>289</ele>
        <time>2018-03-08T10:44:39Z</time>
      </trkpt>
      <trkpt lat="45.95843" lon="4.87992">
        <ele>289</ele>
        <time>2018-03-08T10:44:41Z</time>
      </trkpt>
      <trkpt lat="45.95843" lon="4.87998">
        <ele>288</ele>
        <time>2018-03-08T10:44:42Z</time>
      </trkpt>
      <trkpt lat="45.95843" lon="4.88009">
        <ele>288</ele>
        <time>2018-03-08T10:44:44Z</time>
      </trkpt>
      <trkpt lat="45.95843" lon="4.88014">
        <ele>288</ele>
        <time>2018-03-08T10:44:45Z</time>
      </trkpt>
      <trkpt lat="45.95844" lon="4.88026">
        <ele>289</ele>
        <time>2018-03-08T10:44:47Z</time>
      </trkpt>
      <trkpt lat="45.95844" lon="4.88032">
        <ele>289</ele>
        <time>2018-03-08T10:44:48Z</time>
      </trkpt>
      <trkpt lat="45.95845" lon="4.88044">
        <ele>289</ele>
        <time>2018-03-08T10:44:50Z</time>
      </trkpt>
      <trkpt lat="45.95845" lon="4.8805">
        <ele>289</ele>
        <time>2018-03-08T10:44:51Z</time>
      </trkpt>
      <trkpt lat="45.95846" lon="4.88062">
        <ele>289</ele>
        <time>2018-03-08T10:44:53Z</time>
      </trkpt>
      <trkpt lat="45.95846" lon="4.88068">
        <ele>289</ele>
        <time>2018-03-08T10:44:54Z</time>
      </trkpt>
      <trkpt lat="45.95846" lon="4.8808">
        <ele>288</ele>
        <time>2018-03-08T10:44:56Z</time>
      </trkpt>
      <trkpt lat="45.95847" lon="4.88085">
        <ele>288</ele>
        <time>2018-03-08T10:44:57Z</time>
      </trkpt>
      <trkpt lat="45.95847" lon="4.88091">
        <ele>288</ele>
        <time>2018-03-08T10:44:58Z</time>
      </trkpt>
      <trkpt lat="45.95847" lon="4.88098">
        <ele>288</ele>
        <time>2018-03-08T10:44:59Z</time>
      </trkpt>
      <trkpt lat="45.95847" lon="4.88105">
        <ele>288</ele>
        <time>2018-03-08T10:45:00Z</time>
      </trkpt>
      <trkpt lat="45.95848" lon="4.88112">
        <ele>289</ele>
        <time>2018-03-08T10:45:01Z</time>
      </trkpt>
      <trkpt lat="45.95847" lon="4.88124">
        <ele>289</ele>
        <time>2018-03-08T10:45:03Z</time>
      </trkpt>
      <trkpt lat="45.95847" lon="4.88131">
        <ele>289</ele>
        <time>2018-03-08T10:45:04Z</time>
      </trkpt>
      <trkpt lat="45.95847" lon="4.88144">
        <ele>288</ele>
        <time>2018-03-08T10:45:06Z</time>
      </trkpt>
      <trkpt lat="45.95848" lon="4.88153">
        <ele>288</ele>
        <time>2018-03-08T10:45:07Z</time>
      </trkpt>
      <trkpt lat="45.95849" lon="4.88159">
        <ele>288</ele>
        <time>2018-03-08T10:45:08Z</time>
      </trkpt>
      <trkpt lat="45.9585" lon="4.88166">
        <ele>288</ele>
        <time>2018-03-08T10:45:09Z</time>
      </trkpt>
      <trkpt lat="45.9585" lon="4.88173">
        <ele>288</ele>
        <time>2018-03-08T10:45:10Z</time>
      </trkpt>
      <trkpt lat="45.9585" lon="4.8818">
        <ele>288</ele>
        <time>2018-03-08T10:45:11Z</time>
      </trkpt>
      <trkpt lat="45.95851" lon="4.88192">
        <ele>288</ele>
        <time>2018-03-08T10:45:13Z</time>
      </trkpt>
      <trkpt lat="45.95851" lon="4.88199">
        <ele>288</ele>
        <time>2018-03-08T10:45:14Z</time>
      </trkpt>
      <trkpt lat="45.95853" lon="4.8821">
        <ele>288</ele>
        <time>2018-03-08T10:45:16Z</time>
      </trkpt>
      <trkpt lat="45.95853" lon="4.88216">
        <ele>288</ele>
        <time>2018-03-08T10:45:17Z</time>
      </trkpt>
      <trkpt lat="45.95853" lon="4.88224">
        <ele>288</ele>
        <time>2018-03-08T10:45:18Z</time>
      </trkpt>
      <trkpt lat="45.95854" lon="4.88231">
        <ele>288</ele>
        <time>2018-03-08T10:45:19Z</time>
      </trkpt>
      <trkpt lat="45.95854" lon="4.88238">
        <ele>288</ele>
        <time>2018-03-08T10:45:20Z</time>
      </trkpt>
      <trkpt lat="45.95854" lon="4.88246">
        <ele>288</ele>
        <time>2018-03-08T10:45:21Z</time>
      </trkpt>
      <trkpt lat="45.95855" lon="4.88253">
        <ele>287</ele>
        <time>2018-03-08T10:45:22Z</time>
      </trkpt>
      <trkpt lat="45.95855" lon="4.88261">
        <ele>287</ele>
        <time>2018-03-08T10:45:23Z</time>
      </trkpt>
      <trkpt lat="45.95856" lon="4.88269">
        <ele>288</ele>
        <time>2018-03-08T10:45:24Z</time>
      </trkpt>
      <trkpt lat="45.95856" lon="4.88275">
        <ele>288</ele>
        <time>2018-03-08T10:45:25Z</time>
      </trkpt>
      <trkpt lat="45.95856" lon="4.88282">
        <ele>288</ele>
        <time>2018-03-08T10:45:26Z</time>
      </trkpt>
      <trkpt lat="45.95856" lon="4.88288">
        <ele>288</ele>
        <time>2018-03-08T10:45:27Z</time>
      </trkpt>
      <trkpt lat="45.95856" lon="4.88295">
        <ele>288</ele>
        <time>2018-03-08T10:45:28Z</time>
      </trkpt>
      <trkpt lat="45.95856" lon="4.88302">
        <ele>288</ele>
        <time>2018-03-08T10:45:29Z</time>
      </trkpt>
      <trkpt lat="45.95856" lon="4.88311">
        <ele>288</ele>
        <time>2018-03-08T10:45:30Z</time>
      </trkpt>
      <trkpt lat="45.95856" lon="4.88318">
        <ele>288</ele>
        <time>2018-03-08T10:45:31Z</time>
      </trkpt>
      <trkpt lat="45.95857" lon="4.88326">
        <ele>288</ele>
        <time>2018-03-08T10:45:32Z</time>
      </trkpt>
      <trkpt lat="45.95858" lon="4.88333">
        <ele>288</ele>
        <time>2018-03-08T10:45:33Z</time>
      </trkpt>
      <trkpt lat="45.95858" lon="4.8834">
        <ele>287</ele>
        <time>2018-03-08T10:45:34Z</time>
      </trkpt>
      <trkpt lat="45.95858" lon="4.88346">
        <ele>287</ele>
        <time>2018-03-08T10:45:35Z</time>
      </trkpt>
      <trkpt lat="45.95858" lon="4.88354">
        <ele>287</ele>
        <time>2018-03-08T10:45:36Z</time>
      </trkpt>
      <trkpt lat="45.95858" lon="4.88361">
        <ele>287</ele>
        <time>2018-03-08T10:45:37Z</time>
      </trkpt>
      <trkpt lat="45.95859" lon="4.88368">
        <ele>287</ele>
        <time>2018-03-08T10:45:38Z</time>
      </trkpt>
      <trkpt lat="45.95859" lon="4.88375">
        <ele>287</ele>
        <time>2018-03-08T10:45:39Z</time>
      </trkpt>
      <trkpt lat="45.95859" lon="4.88383">
        <ele>287</ele>
        <time>2018-03-08T10:45:40Z</time>
      </trkpt>
      <trkpt lat="45.9586" lon="4.8839">
        <ele>287</ele>
        <time>2018-03-08T10:45:41Z</time>
      </trkpt>
      <trkpt lat="45.9586" lon="4.88398">
        <ele>287</ele>
        <time>2018-03-08T10:45:42Z</time>
      </trkpt>
      <trkpt lat="45.9586" lon="4.88406">
        <ele>287</ele>
        <time>2018-03-08T10:45:43Z</time>
      </trkpt>
      <trkpt lat="45.95861" lon="4.88412">
        <ele>287</ele>
        <time>2018-03-08T10:45:44Z</time>
      </trkpt>
      <trkpt lat="45.95861" lon="4.88421">
        <ele>287</ele>
        <time>2018-03-08T10:45:45Z</time>
      </trkpt>
      <trkpt lat="45.95861" lon="4.88428">
        <ele>287</ele>
        <time>2018-03-08T10:45:46Z</time>
      </trkpt>
      <trkpt lat="45.95862" lon="4.88435">
        <ele>287</ele>
        <time>2018-03-08T10:45:47Z</time>
      </trkpt>
      <trkpt lat="45.95862" lon="4.88441">
        <ele>287</ele>
        <time>2018-03-08T10:45:48Z</time>
      </trkpt>
      <trkpt lat="45.95863" lon="4.88448">
        <ele>287</ele>
        <time>2018-03-08T10:45:49Z</time>
      </trkpt>
      <trkpt lat="45.95862" lon="4.88456">
        <ele>287</ele>
        <time>2018-03-08T10:45:50Z</time>
      </trkpt>
      <trkpt lat="45.95862" lon="4.88463">
        <ele>287</ele>
        <time>2018-03-08T10:45:51Z</time>
      </trkpt>
      <trkpt lat="45.95863" lon="4.8847">
        <ele>287</ele>
        <time>2018-03-08T10:45:52Z</time>
      </trkpt>
      <trkpt lat="45.95864" lon="4.88477">
        <ele>287</ele>
        <time>2018-03-08T10:45:53Z</time>
      </trkpt>
      <trkpt lat="45.95864" lon="4.88486">
        <ele>287</ele>
        <time>2018-03-08T10:45:54Z</time>
      </trkpt>
      <trkpt lat="45.95865" lon="4.88493">
        <ele>288</ele>
        <time>2018-03-08T10:45:55Z</time>
      </trkpt>
      <trkpt lat="45.95865" lon="4.88505">
        <ele>288</ele>
        <time>2018-03-08T10:45:57Z</time>
      </trkpt>
      <trkpt lat="45.95865" lon="4.88513">
        <ele>288</ele>
        <time>2018-03-08T10:45:58Z</time>
      </trkpt>
      <trkpt lat="45.95865" lon="4.88519">
        <ele>288</ele>
        <time>2018-03-08T10:45:59Z</time>
      </trkpt>
      <trkpt lat="45.95866" lon="4.88526">
        <ele>288</ele>
        <time>2018-03-08T10:46:00Z</time>
      </trkpt>
      <trkpt lat="45.95867" lon="4.88532">
        <ele>288</ele>
        <time>2018-03-08T10:46:01Z</time>
      </trkpt>
      <trkpt lat="45.95868" lon="4.88539">
        <ele>288</ele>
        <time>2018-03-08T10:46:02Z</time>
      </trkpt>
      <trkpt lat="45.95868" lon="4.88546">
        <ele>288</ele>
        <time>2018-03-08T10:46:03Z</time>
      </trkpt>
      <trkpt lat="45.95868" lon="4.88553">
        <ele>288</ele>
        <time>2018-03-08T10:46:04Z</time>
      </trkpt>
      <trkpt lat="45.95868" lon="4.88562">
        <ele>288</ele>
        <time>2018-03-08T10:46:05Z</time>
      </trkpt>
      <trkpt lat="45.95869" lon="4.88568">
        <ele>288</ele>
        <time>2018-03-08T10:46:06Z</time>
      </trkpt>
      <trkpt lat="45.9587" lon="4.8858">
        <ele>288</ele>
        <time>2018-03-08T10:46:08Z</time>
      </trkpt>
      <trkpt lat="45.9587" lon="4.88587">
        <ele>288</ele>
        <time>2018-03-08T10:46:09Z</time>
      </trkpt>
      <trkpt lat="45.95871" lon="4.88599">
        <ele>288</ele>
        <time>2018-03-08T10:46:11Z</time>
      </trkpt>
      <trkpt lat="45.95871" lon="4.88606">
        <ele>288</ele>
        <time>2018-03-08T10:46:12Z</time>
      </trkpt>
      <trkpt lat="45.95872" lon="4.88613">
        <ele>288</ele>
        <time>2018-03-08T10:46:13Z</time>
      </trkpt>
      <trkpt lat="45.95872" lon="4.88619">
        <ele>288</ele>
        <time>2018-03-08T10:46:14Z</time>
      </trkpt>
      <trkpt lat="45.95872" lon="4.88626">
        <ele>288</ele>
        <time>2018-03-08T10:46:15Z</time>
      </trkpt>
      <trkpt lat="45.95872" lon="4.88634">
        <ele>288</ele>
        <time>2018-03-08T10:46:16Z</time>
      </trkpt>
      <trkpt lat="45.95872" lon="4.88641">
        <ele>288</ele>
        <time>2018-03-08T10:46:17Z</time>
      </trkpt>
      <trkpt lat="45.95872" lon="4.88647">
        <ele>288</ele>
        <time>2018-03-08T10:46:18Z</time>
      </trkpt>
      <trkpt lat="45.95873" lon="4.88654">
        <ele>288</ele>
        <time>2018-03-08T10:46:19Z</time>
      </trkpt>
      <trkpt lat="45.95873" lon="4.8866">
        <ele>288</ele>
        <time>2018-03-08T10:46:20Z</time>
      </trkpt>
      <trkpt lat="45.95874" lon="4.88668">
        <ele>288</ele>
        <time>2018-03-08T10:46:21Z</time>
      </trkpt>
      <trkpt lat="45.95874" lon="4.88675">
        <ele>288</ele>
        <time>2018-03-08T10:46:22Z</time>
      </trkpt>
      <trkpt lat="45.95874" lon="4.88682">
        <ele>288</ele>
        <time>2018-03-08T10:46:23Z</time>
      </trkpt>
      <trkpt lat="45.95875" lon="4.88689">
        <ele>288</ele>
        <time>2018-03-08T10:46:24Z</time>
      </trkpt>
      <trkpt lat="45.95875" lon="4.88696">
        <ele>288</ele>
        <time>2018-03-08T10:46:25Z</time>
      </trkpt>
      <trkpt lat="45.95875" lon="4.88705">
        <ele>288</ele>
        <time>2018-03-08T10:46:26Z</time>
      </trkpt>
      <trkpt lat="45.95876" lon="4.88713">
        <ele>288</ele>
        <time>2018-03-08T10:46:27Z</time>
      </trkpt>
      <trkpt lat="45.95876" lon="4.8872">
        <ele>288</ele>
        <time>2018-03-08T10:46:28Z</time>
      </trkpt>
      <trkpt lat="45.95876" lon="4.88728">
        <ele>288</ele>
        <time>2018-03-08T10:46:29Z</time>
      </trkpt>
      <trkpt lat="45.95876" lon="4.88735">
        <ele>288</ele>
        <time>2018-03-08T10:46:30Z</time>
      </trkpt>
      <trkpt lat="45.95876" lon="4.88747">
        <ele>288</ele>
        <time>2018-03-08T10:46:32Z</time>
      </trkpt>
      <trkpt lat="45.95877" lon="4.88754">
        <ele>288</ele>
        <time>2018-03-08T10:46:33Z</time>
      </trkpt>
      <trkpt lat="45.95878" lon="4.88761">
        <ele>288</ele>
        <time>2018-03-08T10:46:34Z</time>
      </trkpt>
      <trkpt lat="45.95877" lon="4.88767">
        <ele>288</ele>
        <time>2018-03-08T10:46:35Z</time>
      </trkpt>
      <trkpt lat="45.95878" lon="4.88779">
        <ele>288</ele>
        <time>2018-03-08T10:46:37Z</time>
      </trkpt>
      <trkpt lat="45.95878" lon="4.88786">
        <ele>288</ele>
        <time>2018-03-08T10:46:38Z</time>
      </trkpt>
      <trkpt lat="45.95878" lon="4.88799">
        <ele>288</ele>
        <time>2018-03-08T10:46:40Z</time>
      </trkpt>
      <trkpt lat="45.95879" lon="4.88805">
        <ele>288</ele>
        <time>2018-03-08T10:46:41Z</time>
      </trkpt>
      <trkpt lat="45.95877" lon="4.88816">
        <ele>288</ele>
        <time>2018-03-08T10:46:43Z</time>
      </trkpt>
      <trkpt lat="45.95877" lon="4.88822">
        <ele>288</ele>
        <time>2018-03-08T10:46:44Z</time>
      </trkpt>
      <trkpt lat="45.95877" lon="4.88829">
        <ele>288</ele>
        <time>2018-03-08T10:46:45Z</time>
      </trkpt>
      <trkpt lat="45.95877" lon="4.88835">
        <ele>289</ele>
        <time>2018-03-08T10:46:46Z</time>
      </trkpt>
      <trkpt lat="45.95877" lon="4.88848">
        <ele>289</ele>
        <time>2018-03-08T10:46:48Z</time>
      </trkpt>
      <trkpt lat="45.95877" lon="4.88854">
        <ele>289</ele>
        <time>2018-03-08T10:46:49Z</time>
      </trkpt>
      <trkpt lat="45.95877" lon="4.88862">
        <ele>289</ele>
        <time>2018-03-08T10:46:50Z</time>
      </trkpt>
      <trkpt lat="45.95877" lon="4.88869">
        <ele>289</ele>
        <time>2018-03-08T10:46:51Z</time>
      </trkpt>
      <trkpt lat="45.95878" lon="4.88881">
        <ele>289</ele>
        <time>2018-03-08T10:46:53Z</time>
      </trkpt>
      <trkpt lat="45.95878" lon="4.88887">
        <ele>289</ele>
        <time>2018-03-08T10:46:54Z</time>
      </trkpt>
      <trkpt lat="45.95876" lon="4.88894">
        <ele>289</ele>
        <time>2018-03-08T10:46:55Z</time>
      </trkpt>
      <trkpt lat="45.95876" lon="4.88902">
        <ele>289</ele>
        <time>2018-03-08T10:46:56Z</time>
      </trkpt>
      <trkpt lat="45.95876" lon="4.8891">
        <ele>289</ele>
        <time>2018-03-08T10:46:57Z</time>
      </trkpt>
      <trkpt lat="45.95878" lon="4.88919">
        <ele>289</ele>
        <time>2018-03-08T10:46:58Z</time>
      </trkpt>
      <trkpt lat="45.95878" lon="4.88926">
        <ele>289</ele>
        <time>2018-03-08T10:46:59Z</time>
      </trkpt>
      <trkpt lat="45.95878" lon="4.88933">
        <ele>289</ele>
        <time>2018-03-08T10:47:00Z</time>
      </trkpt>
      <trkpt lat="45.95879" lon="4.88945">
        <ele>289</ele>
        <time>2018-03-08T10:47:02Z</time>
      </trkpt>
      <trkpt lat="45.95879" lon="4.88951">
        <ele>289</ele>
        <time>2018-03-08T10:47:03Z</time>
      </trkpt>
      <trkpt lat="45.95879" lon="4.88962">
        <ele>289</ele>
        <time>2018-03-08T10:47:05Z</time>
      </trkpt>
      <trkpt lat="45.9588" lon="4.8897">
        <ele>289</ele>
        <time>2018-03-08T10:47:06Z</time>
      </trkpt>
      <trkpt lat="45.9588" lon="4.88978">
        <ele>289</ele>
        <time>2018-03-08T10:47:07Z</time>
      </trkpt>
      <trkpt lat="45.95881" lon="4.88985">
        <ele>289</ele>
        <time>2018-03-08T10:47:08Z</time>
      </trkpt>
      <trkpt lat="45.95884" lon="4.88997">
        <ele>289</ele>
        <time>2018-03-08T10:47:10Z</time>
      </trkpt>
      <trkpt lat="45.95886" lon="4.89003">
        <ele>289</ele>
        <time>2018-03-08T10:47:11Z</time>
      </trkpt>
      <trkpt lat="45.95889" lon="4.89014">
        <ele>289</ele>
        <time>2018-03-08T10:47:13Z</time>
      </trkpt>
      <trkpt lat="45.95892" lon="4.8902">
        <ele>289</ele>
        <time>2018-03-08T10:47:14Z</time>
      </trkpt>
      <trkpt lat="45.95893" lon="4.89025">
        <ele>289</ele>
        <time>2018-03-08T10:47:15Z</time>
      </trkpt>
      <trkpt lat="45.95895" lon="4.89032">
        <ele>289</ele>
        <time>2018-03-08T10:47:16Z</time>
      </trkpt>
      <trkpt lat="45.95896" lon="4.89039">
        <ele>289</ele>
        <time>2018-03-08T10:47:17Z</time>
      </trkpt>
      <trkpt lat="45.95897" lon="4.89046">
        <ele>289</ele>
        <time>2018-03-08T10:47:18Z</time>
      </trkpt>
      <trkpt lat="45.95897" lon="4.89052">
        <ele>289</ele>
        <time>2018-03-08T10:47:19Z</time>
      </trkpt>
      <trkpt lat="45.95895" lon="4.89058">
        <ele>289</ele>
        <time>2018-03-08T10:47:20Z</time>
      </trkpt>
      <trkpt lat="45.95894" lon="4.89065">
        <ele>289</ele>
        <time>2018-03-08T10:47:21Z</time>
      </trkpt>
      <trkpt lat="45.95892" lon="4.89073">
        <ele>289</ele>
        <time>2018-03-08T10:47:22Z</time>
      </trkpt>
      <trkpt lat="45.95887" lon="4.89081">
        <ele>289</ele>
        <time>2018-03-08T10:47:26Z</time>
      </trkpt>
      <trkpt lat="45.95885" lon="4.89083">
        <ele>289</ele>
        <time>2018-03-08T10:47:27Z</time>
      </trkpt>
      <trkpt lat="45.9588" lon="4.89091">
        <ele>288</ele>
        <time>2018-03-08T10:47:28Z</time>
      </trkpt>
      <trkpt lat="45.95878" lon="4.89096">
        <ele>288</ele>
        <time>2018-03-08T10:47:29Z</time>
      </trkpt>
      <trkpt lat="45.95875" lon="4.89102">
        <ele>288</ele>
        <time>2018-03-08T10:47:30Z</time>
      </trkpt>
      <trkpt lat="45.95873" lon="4.89108">
        <ele>288</ele>
        <time>2018-03-08T10:47:31Z</time>
      </trkpt>
      <trkpt lat="45.95872" lon="4.89115">
        <ele>288</ele>
        <time>2018-03-08T10:47:32Z</time>
      </trkpt>
      <trkpt lat="45.95873" lon="4.89121">
        <ele>288</ele>
        <time>2018-03-08T10:47:33Z</time>
      </trkpt>
      <trkpt lat="45.95873" lon="4.89134">
        <ele>288</ele>
        <time>2018-03-08T10:47:35Z</time>
      </trkpt>
      <trkpt lat="45.95873" lon="4.89142">
        <ele>288</ele>
        <time>2018-03-08T10:47:36Z</time>
      </trkpt>
      <trkpt lat="45.95874" lon="4.89148">
        <ele>288</ele>
        <time>2018-03-08T10:47:37Z</time>
      </trkpt>
      <trkpt lat="45.95874" lon="4.89155">
        <ele>288</ele>
        <time>2018-03-08T10:47:38Z</time>
      </trkpt>
      <trkpt lat="45.95875" lon="4.89162">
        <ele>288</ele>
        <time>2018-03-08T10:47:39Z</time>
      </trkpt>
      <trkpt lat="45.95876" lon="4.89168">
        <ele>288</ele>
        <time>2018-03-08T10:47:40Z</time>
      </trkpt>
      <trkpt lat="45.95877" lon="4.89175">
        <ele>288</ele>
        <time>2018-03-08T10:47:41Z</time>
      </trkpt>
      <trkpt lat="45.95878" lon="4.89181">
        <ele>288</ele>
        <time>2018-03-08T10:47:42Z</time>
      </trkpt>
      <trkpt lat="45.95879" lon="4.89194">
        <ele>288</ele>
        <time>2018-03-08T10:47:44Z</time>
      </trkpt>
      <trkpt lat="45.95879" lon="4.892">
        <ele>288</ele>
        <time>2018-03-08T10:47:45Z</time>
      </trkpt>
      <trkpt lat="45.95881" lon="4.89212">
        <ele>288</ele>
        <time>2018-03-08T10:47:47Z</time>
      </trkpt>
      <trkpt lat="45.95881" lon="4.89219">
        <ele>288</ele>
        <time>2018-03-08T10:47:48Z</time>
      </trkpt>
      <trkpt lat="45.95881" lon="4.89227">
        <ele>288</ele>
        <time>2018-03-08T10:47:49Z</time>
      </trkpt>
      <trkpt lat="45.9588" lon="4.89235">
        <ele>288</ele>
        <time>2018-03-08T10:47:50Z</time>
      </trkpt>
      <trkpt lat="45.95881" lon="4.89241">
        <ele>288</ele>
        <time>2018-03-08T10:47:51Z</time>
      </trkpt>
      <trkpt lat="45.9588" lon="4.89248">
        <ele>288</ele>
        <time>2018-03-08T10:47:52Z</time>
      </trkpt>
      <trkpt lat="45.95881" lon="4.89256">
        <ele>289</ele>
        <time>2018-03-08T10:47:53Z</time>
      </trkpt>
      <trkpt lat="45.95882" lon="4.89263">
        <ele>289</ele>
        <time>2018-03-08T10:47:54Z</time>
      </trkpt>
      <trkpt lat="45.95882" lon="4.89268">
        <ele>289</ele>
        <time>2018-03-08T10:47:55Z</time>
      </trkpt>
      <trkpt lat="45.95882" lon="4.89277">
        <ele>289</ele>
        <time>2018-03-08T10:47:56Z</time>
      </trkpt>
      <trkpt lat="45.95882" lon="4.89284">
        <ele>289</ele>
        <time>2018-03-08T10:47:57Z</time>
      </trkpt>
      <trkpt lat="45.95882" lon="4.89291">
        <ele>289</ele>
        <time>2018-03-08T10:47:58Z</time>
      </trkpt>
      <trkpt lat="45.95881" lon="4.89299">
        <ele>289</ele>
        <time>2018-03-08T10:47:59Z</time>
      </trkpt>
      <trkpt lat="45.95881" lon="4.89305">
        <ele>289</ele>
        <time>2018-03-08T10:48:00Z</time>
      </trkpt>
      <trkpt lat="45.95882" lon="4.89313">
        <ele>289</ele>
        <time>2018-03-08T10:48:01Z</time>
      </trkpt>
      <trkpt lat="45.95881" lon="4.89319">
        <ele>289</ele>
        <time>2018-03-08T10:48:02Z</time>
      </trkpt>
      <trkpt lat="45.95881" lon="4.89326">
        <ele>289</ele>
        <time>2018-03-08T10:48:03Z</time>
      </trkpt>
      <trkpt lat="45.95881" lon="4.89332">
        <ele>289</ele>
        <time>2018-03-08T10:48:04Z</time>
      </trkpt>
      <trkpt lat="45.95882" lon="4.8934">
        <ele>289</ele>
        <time>2018-03-08T10:48:05Z</time>
      </trkpt>
      <trkpt lat="45.95882" lon="4.89349">
        <ele>289</ele>
        <time>2018-03-08T10:48:06Z</time>
      </trkpt>
      <trkpt lat="45.95882" lon="4.89356">
        <ele>289</ele>
        <time>2018-03-08T10:48:07Z</time>
      </trkpt>
      <trkpt lat="45.95882" lon="4.89362">
        <ele>289</ele>
        <time>2018-03-08T10:48:08Z</time>
      </trkpt>
      <trkpt lat="45.95882" lon="4.89369">
        <ele>289</ele>
        <time>2018-03-08T10:48:09Z</time>
      </trkpt>
      <trkpt lat="45.95882" lon="4.89377">
        <ele>289</ele>
        <time>2018-03-08T10:48:10Z</time>
      </trkpt>
      <trkpt lat="45.95883" lon="4.89385">
        <ele>289</ele>
        <time>2018-03-08T10:48:11Z</time>
      </trkpt>
      <trkpt lat="45.95883" lon="4.89392">
        <ele>289</ele>
        <time>2018-03-08T10:48:12Z</time>
      </trkpt>
      <trkpt lat="45.95881" lon="4.89403">
        <ele>289</ele>
        <time>2018-03-08T10:48:14Z</time>
      </trkpt>
      <trkpt lat="45.95881" lon="4.89411">
        <ele>289</ele>
        <time>2018-03-08T10:48:15Z</time>
      </trkpt>
      <trkpt lat="45.95881" lon="4.89418">
        <ele>289</ele>
        <time>2018-03-08T10:48:16Z</time>
      </trkpt>
      <trkpt lat="45.95881" lon="4.89427">
        <ele>289</ele>
        <time>2018-03-08T10:48:17Z</time>
      </trkpt>
      <trkpt lat="45.95881" lon="4.89436">
        <ele>289</ele>
        <time>2018-03-08T10:48:18Z</time>
      </trkpt>
      <trkpt lat="45.95882" lon="4.89443">
        <ele>289</ele>
        <time>2018-03-08T10:48:19Z</time>
      </trkpt>
      <trkpt lat="45.95883" lon="4.8945">
        <ele>289</ele>
        <time>2018-03-08T10:48:20Z</time>
      </trkpt>
      <trkpt lat="45.95883" lon="4.8946">
        <ele>289</ele>
        <time>2018-03-08T10:48:21Z</time>
      </trkpt>
      <trkpt lat="45.95882" lon="4.89468">
        <ele>289</ele>
        <time>2018-03-08T10:48:22Z</time>
      </trkpt>
      <trkpt lat="45.95882" lon="4.89475">
        <ele>289</ele>
        <time>2018-03-08T10:48:23Z</time>
      </trkpt>
      <trkpt lat="45.95882" lon="4.89481">
        <ele>289</ele>
        <time>2018-03-08T10:48:24Z</time>
      </trkpt>
      <trkpt lat="45.95883" lon="4.89488">
        <ele>288</ele>
        <time>2018-03-08T10:48:25Z</time>
      </trkpt>
      <trkpt lat="45.95884" lon="4.89499">
        <ele>288</ele>
        <time>2018-03-08T10:48:27Z</time>
      </trkpt>
      <trkpt lat="45.95884" lon="4.89506">
        <ele>288</ele>
        <time>2018-03-08T10:48:28Z</time>
      </trkpt>
      <trkpt lat="45.95884" lon="4.89512">
        <ele>288</ele>
        <time>2018-03-08T10:48:29Z</time>
      </trkpt>
      <trkpt lat="45.95885" lon="4.8952">
        <ele>288</ele>
        <time>2018-03-08T10:48:30Z</time>
      </trkpt>
      <trkpt lat="45.95885" lon="4.89527">
        <ele>288</ele>
        <time>2018-03-08T10:48:31Z</time>
      </trkpt>
      <trkpt lat="45.95885" lon="4.89535">
        <ele>288</ele>
        <time>2018-03-08T10:48:32Z</time>
      </trkpt>
      <trkpt lat="45.95886" lon="4.89542">
        <ele>288</ele>
        <time>2018-03-08T10:48:33Z</time>
      </trkpt>
      <trkpt lat="45.95886" lon="4.89551">
        <ele>288</ele>
        <time>2018-03-08T10:48:34Z</time>
      </trkpt>
      <trkpt lat="45.95886" lon="4.89558">
        <ele>288</ele>
        <time>2018-03-08T10:48:35Z</time>
      </trkpt>
      <trkpt lat="45.95887" lon="4.89565">
        <ele>288</ele>
        <time>2018-03-08T10:48:36Z</time>
      </trkpt>
      <trkpt lat="45.95887" lon="4.89572">
        <ele>288</ele>
        <time>2018-03-08T10:48:37Z</time>
      </trkpt>
      <trkpt lat="45.95887" lon="4.89579">
        <ele>288</ele>
        <time>2018-03-08T10:48:38Z</time>
      </trkpt>
      <trkpt lat="45.95885" lon="4.89584">
        <ele>289</ele>
        <time>2018-03-08T10:48:39Z</time>
      </trkpt>
      <trkpt lat="45.95886" lon="4.89592">
        <ele>289</ele>
        <time>2018-03-08T10:48:40Z</time>
      </trkpt>
      <trkpt lat="45.95886" lon="4.89599">
        <ele>289</ele>
        <time>2018-03-08T10:48:41Z</time>
      </trkpt>
      <trkpt lat="45.95885" lon="4.89606">
        <ele>289</ele>
        <time>2018-03-08T10:48:42Z</time>
      </trkpt>
      <trkpt lat="45.95885" lon="4.89613">
        <ele>289</ele>
        <time>2018-03-08T10:48:43Z</time>
      </trkpt>
      <trkpt lat="45.95885" lon="4.8962">
        <ele>289</ele>
        <time>2018-03-08T10:48:44Z</time>
      </trkpt>
      <trkpt lat="45.95885" lon="4.89627">
        <ele>289</ele>
        <time>2018-03-08T10:48:45Z</time>
      </trkpt>
      <trkpt lat="45.95886" lon="4.89634">
        <ele>289</ele>
        <time>2018-03-08T10:48:46Z</time>
      </trkpt>
      <trkpt lat="45.95886" lon="4.89641">
        <ele>289</ele>
        <time>2018-03-08T10:48:47Z</time>
      </trkpt>
      <trkpt lat="45.95886" lon="4.89647">
        <ele>289</ele>
        <time>2018-03-08T10:48:48Z</time>
      </trkpt>
      <trkpt lat="45.95886" lon="4.89654">
        <ele>289</ele>
        <time>2018-03-08T10:48:49Z</time>
      </trkpt>
      <trkpt lat="45.95886" lon="4.89661">
        <ele>289</ele>
        <time>2018-03-08T10:48:50Z</time>
      </trkpt>
      <trkpt lat="45.95886" lon="4.89673">
        <ele>289</ele>
        <time>2018-03-08T10:48:52Z</time>
      </trkpt>
      <trkpt lat="45.95887" lon="4.89679">
        <ele>289</ele>
        <time>2018-03-08T10:48:53Z</time>
      </trkpt>
      <trkpt lat="45.95887" lon="4.89686">
        <ele>289</ele>
        <time>2018-03-08T10:48:54Z</time>
      </trkpt>
      <trkpt lat="45.95887" lon="4.89692">
        <ele>289</ele>
        <time>2018-03-08T10:48:55Z</time>
      </trkpt>
      <trkpt lat="45.95887" lon="4.89704">
        <ele>289</ele>
        <time>2018-03-08T10:48:57Z</time>
      </trkpt>
      <trkpt lat="45.95887" lon="4.8971">
        <ele>289</ele>
        <time>2018-03-08T10:48:58Z</time>
      </trkpt>
      <trkpt lat="45.95887" lon="4.89723">
        <ele>289</ele>
        <time>2018-03-08T10:49:00Z</time>
      </trkpt>
      <trkpt lat="45.95888" lon="4.89729">
        <ele>289</ele>
        <time>2018-03-08T10:49:01Z</time>
      </trkpt>
      <trkpt lat="45.95887" lon="4.89741">
        <ele>289</ele>
        <time>2018-03-08T10:49:03Z</time>
      </trkpt>
      <trkpt lat="45.95887" lon="4.89748">
        <ele>289</ele>
        <time>2018-03-08T10:49:04Z</time>
      </trkpt>
      <trkpt lat="45.95887" lon="4.8976">
        <ele>289</ele>
        <time>2018-03-08T10:49:06Z</time>
      </trkpt>
      <trkpt lat="45.95885" lon="4.89767">
        <ele>289</ele>
        <time>2018-03-08T10:49:07Z</time>
      </trkpt>
      <trkpt lat="45.95886" lon="4.89779">
        <ele>289</ele>
        <time>2018-03-08T10:49:09Z</time>
      </trkpt>
      <trkpt lat="45.95886" lon="4.89786">
        <ele>289</ele>
        <time>2018-03-08T10:49:10Z</time>
      </trkpt>
      <trkpt lat="45.95886" lon="4.89798">
        <ele>289</ele>
        <time>2018-03-08T10:49:12Z</time>
      </trkpt>
      <trkpt lat="45.95887" lon="4.89805">
        <ele>289</ele>
        <time>2018-03-08T10:49:13Z</time>
      </trkpt>
      <trkpt lat="45.95887" lon="4.89811">
        <ele>289</ele>
        <time>2018-03-08T10:49:14Z</time>
      </trkpt>
      <trkpt lat="45.95887" lon="4.89817">
        <ele>289</ele>
        <time>2018-03-08T10:49:15Z</time>
      </trkpt>
      <trkpt lat="45.95888" lon="4.89829">
        <ele>289</ele>
        <time>2018-03-08T10:49:17Z</time>
      </trkpt>
      <trkpt lat="45.95887" lon="4.89834">
        <ele>290</ele>
        <time>2018-03-08T10:49:18Z</time>
      </trkpt>
      <trkpt lat="45.95887" lon="4.89847">
        <ele>290</ele>
        <time>2018-03-08T10:49:20Z</time>
      </trkpt>
      <trkpt lat="45.95888" lon="4.89853">
        <ele>290</ele>
        <time>2018-03-08T10:49:21Z</time>
      </trkpt>
      <trkpt lat="45.95889" lon="4.89865">
        <ele>290</ele>
        <time>2018-03-08T10:49:23Z</time>
      </trkpt>
      <trkpt lat="45.95889" lon="4.89872">
        <ele>290</ele>
        <time>2018-03-08T10:49:24Z</time>
      </trkpt>
      <trkpt lat="45.95889" lon="4.89884">
        <ele>290</ele>
        <time>2018-03-08T10:49:26Z</time>
      </trkpt>
      <trkpt lat="45.95889" lon="4.89891">
        <ele>290</ele>
        <time>2018-03-08T10:49:27Z</time>
      </trkpt>
      <trkpt lat="45.9589" lon="4.89898">
        <ele>290</ele>
        <time>2018-03-08T10:49:28Z</time>
      </trkpt>
      <trkpt lat="45.95889" lon="4.89906">
        <ele>290</ele>
        <time>2018-03-08T10:49:29Z</time>
      </trkpt>
      <trkpt lat="45.95889" lon="4.89914">
        <ele>290</ele>
        <time>2018-03-08T10:49:30Z</time>
      </trkpt>
      <trkpt lat="45.95889" lon="4.8992">
        <ele>290</ele>
        <time>2018-03-08T10:49:31Z</time>
      </trkpt>
      <trkpt lat="45.95891" lon="4.89932">
        <ele>290</ele>
        <time>2018-03-08T10:49:33Z</time>
      </trkpt>
      <trkpt lat="45.95891" lon="4.89939">
        <ele>290</ele>
        <time>2018-03-08T10:49:34Z</time>
      </trkpt>
      <trkpt lat="45.95892" lon="4.89945">
        <ele>290</ele>
        <time>2018-03-08T10:49:35Z</time>
      </trkpt>
      <trkpt lat="45.95892" lon="4.89952">
        <ele>290</ele>
        <time>2018-03-08T10:49:36Z</time>
      </trkpt>
      <trkpt lat="45.95892" lon="4.89959">
        <ele>290</ele>
        <time>2018-03-08T10:49:37Z</time>
      </trkpt>
      <trkpt lat="45.95892" lon="4.89966">
        <ele>290</ele>
        <time>2018-03-08T10:49:38Z</time>
      </trkpt>
      <trkpt lat="45.95892" lon="4.89978">
        <ele>290</ele>
        <time>2018-03-08T10:49:40Z</time>
      </trkpt>
      <trkpt lat="45.95892" lon="4.89986">
        <ele>290</ele>
        <time>2018-03-08T10:49:41Z</time>
      </trkpt>
      <trkpt lat="45.95892" lon="4.89993">
        <ele>290</ele>
        <time>2018-03-08T10:49:42Z</time>
      </trkpt>
      <trkpt lat="45.95893" lon="4.9">
        <ele>290</ele>
        <time>2018-03-08T10:49:43Z</time>
      </trkpt>
      <trkpt lat="45.95893" lon="4.90007">
        <ele>290</ele>
        <time>2018-03-08T10:49:44Z</time>
      </trkpt>
      <trkpt lat="45.95893" lon="4.90015">
        <ele>290</ele>
        <time>2018-03-08T10:49:45Z</time>
      </trkpt>
      <trkpt lat="45.95893" lon="4.90022">
        <ele>290</ele>
        <time>2018-03-08T10:49:46Z</time>
      </trkpt>
      <trkpt lat="45.95893" lon="4.9003">
        <ele>290</ele>
        <time>2018-03-08T10:49:47Z</time>
      </trkpt>
      <trkpt lat="45.95893" lon="4.90038">
        <ele>290</ele>
        <time>2018-03-08T10:49:48Z</time>
      </trkpt>
      <trkpt lat="45.95893" lon="4.90046">
        <ele>290</ele>
        <time>2018-03-08T10:49:49Z</time>
      </trkpt>
      <trkpt lat="45.95894" lon="4.90051">
        <ele>290</ele>
        <time>2018-03-08T10:49:50Z</time>
      </trkpt>
      <trkpt lat="45.95893" lon="4.9006">
        <ele>290</ele>
        <time>2018-03-08T10:49:51Z</time>
      </trkpt>
      <trkpt lat="45.95894" lon="4.90066">
        <ele>290</ele>
        <time>2018-03-08T10:49:52Z</time>
      </trkpt>
      <trkpt lat="45.95892" lon="4.90073">
        <ele>290</ele>
        <time>2018-03-08T10:49:53Z</time>
      </trkpt>
      <trkpt lat="45.95892" lon="4.90081">
        <ele>290</ele>
        <time>2018-03-08T10:49:54Z</time>
      </trkpt>
      <trkpt lat="45.95891" lon="4.90088">
        <ele>290</ele>
        <time>2018-03-08T10:49:55Z</time>
      </trkpt>
      <trkpt lat="45.95891" lon="4.90095">
        <ele>290</ele>
        <time>2018-03-08T10:49:56Z</time>
      </trkpt>
      <trkpt lat="45.95891" lon="4.90102">
        <ele>290</ele>
        <time>2018-03-08T10:49:57Z</time>
      </trkpt>
      <trkpt lat="45.95891" lon="4.90109">
        <ele>290</ele>
        <time>2018-03-08T10:49:58Z</time>
      </trkpt>
      <trkpt lat="45.95892" lon="4.90115">
        <ele>290</ele>
        <time>2018-03-08T10:49:59Z</time>
      </trkpt>
      <trkpt lat="45.95892" lon="4.90121">
        <ele>290</ele>
        <time>2018-03-08T10:50:00Z</time>
      </trkpt>
      <trkpt lat="45.95893" lon="4.9013">
        <ele>290</ele>
        <time>2018-03-08T10:50:01Z</time>
      </trkpt>
      <trkpt lat="45.95894" lon="4.90136">
        <ele>290</ele>
        <time>2018-03-08T10:50:02Z</time>
      </trkpt>
      <trkpt lat="45.95892" lon="4.90144">
        <ele>290</ele>
        <time>2018-03-08T10:50:03Z</time>
      </trkpt>
      <trkpt lat="45.95893" lon="4.9015">
        <ele>290</ele>
        <time>2018-03-08T10:50:04Z</time>
      </trkpt>
      <trkpt lat="45.95892" lon="4.90157">
        <ele>290</ele>
        <time>2018-03-08T10:50:05Z</time>
      </trkpt>
      <trkpt lat="45.95892" lon="4.90164">
        <ele>290</ele>
        <time>2018-03-08T10:50:06Z</time>
      </trkpt>
      <trkpt lat="45.95892" lon="4.90171">
        <ele>291</ele>
        <time>2018-03-08T10:50:07Z</time>
      </trkpt>
      <trkpt lat="45.95891" lon="4.90178">
        <ele>291</ele>
        <time>2018-03-08T10:50:08Z</time>
      </trkpt>
      <trkpt lat="45.95891" lon="4.90184">
        <ele>291</ele>
        <time>2018-03-08T10:50:09Z</time>
      </trkpt>
      <trkpt lat="45.95889" lon="4.90191">
        <ele>291</ele>
        <time>2018-03-08T10:50:10Z</time>
      </trkpt>
      <trkpt lat="45.95889" lon="4.902">
        <ele>291</ele>
        <time>2018-03-08T10:50:11Z</time>
      </trkpt>
      <trkpt lat="45.95891" lon="4.90209">
        <ele>291</ele>
        <time>2018-03-08T10:50:12Z</time>
      </trkpt>
      <trkpt lat="45.95888" lon="4.90215">
        <ele>291</ele>
        <time>2018-03-08T10:50:13Z</time>
      </trkpt>
      <trkpt lat="45.95889" lon="4.90221">
        <ele>292</ele>
        <time>2018-03-08T10:50:14Z</time>
      </trkpt>
      <trkpt lat="45.9589" lon="4.90229">
        <ele>292</ele>
        <time>2018-03-08T10:50:15Z</time>
      </trkpt>
      <trkpt lat="45.95889" lon="4.90232">
        <ele>292</ele>
        <time>2018-03-08T10:50:16Z</time>
      </trkpt>
      <trkpt lat="45.95889" lon="4.90242">
        <ele>292</ele>
        <time>2018-03-08T10:50:17Z</time>
      </trkpt>
      <trkpt lat="45.95889" lon="4.90255">
        <ele>292</ele>
        <time>2018-03-08T10:50:19Z</time>
      </trkpt>
      <trkpt lat="45.95888" lon="4.90262">
        <ele>292</ele>
        <time>2018-03-08T10:50:20Z</time>
      </trkpt>
      <trkpt lat="45.95887" lon="4.90272">
        <ele>292</ele>
        <time>2018-03-08T10:50:22Z</time>
      </trkpt>
      <trkpt lat="45.95888" lon="4.9028">
        <ele>292</ele>
        <time>2018-03-08T10:50:23Z</time>
      </trkpt>
      <trkpt lat="45.95888" lon="4.90287">
        <ele>292</ele>
        <time>2018-03-08T10:50:24Z</time>
      </trkpt>
      <trkpt lat="45.95889" lon="4.90293">
        <ele>292</ele>
        <time>2018-03-08T10:50:25Z</time>
      </trkpt>
      <trkpt lat="45.95888" lon="4.90305">
        <ele>292</ele>
        <time>2018-03-08T10:50:27Z</time>
      </trkpt>
      <trkpt lat="45.95889" lon="4.90312">
        <ele>292</ele>
        <time>2018-03-08T10:50:28Z</time>
      </trkpt>
      <trkpt lat="45.95887" lon="4.90324">
        <ele>292</ele>
        <time>2018-03-08T10:50:30Z</time>
      </trkpt>
      <trkpt lat="45.95886" lon="4.9033">
        <ele>292</ele>
        <time>2018-03-08T10:50:31Z</time>
      </trkpt>
      <trkpt lat="45.95887" lon="4.90337">
        <ele>292</ele>
        <time>2018-03-08T10:50:32Z</time>
      </trkpt>
      <trkpt lat="45.95886" lon="4.90343">
        <ele>292</ele>
        <time>2018-03-08T10:50:33Z</time>
      </trkpt>
      <trkpt lat="45.95887" lon="4.90351">
        <ele>292</ele>
        <time>2018-03-08T10:50:34Z</time>
      </trkpt>
      <trkpt lat="45.95887" lon="4.90357">
        <ele>292</ele>
        <time>2018-03-08T10:50:35Z</time>
      </trkpt>
      <trkpt lat="45.95886" lon="4.90366">
        <ele>292</ele>
        <time>2018-03-08T10:50:36Z</time>
      </trkpt>
      <trkpt lat="45.95884" lon="4.90372">
        <ele>292</ele>
        <time>2018-03-08T10:50:37Z</time>
      </trkpt>
      <trkpt lat="45.95884" lon="4.90385">
        <ele>292</ele>
        <time>2018-03-08T10:50:39Z</time>
      </trkpt>
      <trkpt lat="45.95884" lon="4.9039">
        <ele>292</ele>
        <time>2018-03-08T10:50:40Z</time>
      </trkpt>
      <trkpt lat="45.95884" lon="4.90402">
        <ele>292</ele>
        <time>2018-03-08T10:50:42Z</time>
      </trkpt>
      <trkpt lat="45.95883" lon="4.90409">
        <ele>292</ele>
        <time>2018-03-08T10:50:43Z</time>
      </trkpt>
      <trkpt lat="45.95881" lon="4.90419">
        <ele>292</ele>
        <time>2018-03-08T10:50:45Z</time>
      </trkpt>
      <trkpt lat="45.95881" lon="4.90424">
        <ele>292</ele>
        <time>2018-03-08T10:50:46Z</time>
      </trkpt>
      <trkpt lat="45.95881" lon="4.90437">
        <ele>292</ele>
        <time>2018-03-08T10:50:48Z</time>
      </trkpt>
      <trkpt lat="45.95881" lon="4.90444">
        <ele>292</ele>
        <time>2018-03-08T10:50:49Z</time>
      </trkpt>
      <trkpt lat="45.95881" lon="4.9045">
        <ele>292</ele>
        <time>2018-03-08T10:50:50Z</time>
      </trkpt>
      <trkpt lat="45.95881" lon="4.90457">
        <ele>292</ele>
        <time>2018-03-08T10:50:51Z</time>
      </trkpt>
      <trkpt lat="45.9588" lon="4.90469">
        <ele>292</ele>
        <time>2018-03-08T10:50:53Z</time>
      </trkpt>
      <trkpt lat="45.9588" lon="4.90475">
        <ele>292</ele>
        <time>2018-03-08T10:50:54Z</time>
      </trkpt>
      <trkpt lat="45.9588" lon="4.90482">
        <ele>292</ele>
        <time>2018-03-08T10:50:55Z</time>
      </trkpt>
      <trkpt lat="45.95879" lon="4.90491">
        <ele>292</ele>
        <time>2018-03-08T10:50:56Z</time>
      </trkpt>
      <trkpt lat="45.95879" lon="4.90497">
        <ele>292</ele>
        <time>2018-03-08T10:50:57Z</time>
      </trkpt>
      <trkpt lat="45.95879" lon="4.90505">
        <ele>292</ele>
        <time>2018-03-08T10:50:58Z</time>
      </trkpt>
      <trkpt lat="45.95879" lon="4.90517">
        <ele>292</ele>
        <time>2018-03-08T10:51:00Z</time>
      </trkpt>
      <trkpt lat="45.95879" lon="4.90523">
        <ele>292</ele>
        <time>2018-03-08T10:51:01Z</time>
      </trkpt>
      <trkpt lat="45.95877" lon="4.90536">
        <ele>292</ele>
        <time>2018-03-08T10:51:03Z</time>
      </trkpt>
      <trkpt lat="45.95877" lon="4.90541">
        <ele>292</ele>
        <time>2018-03-08T10:51:04Z</time>
      </trkpt>
      <trkpt lat="45.95876" lon="4.90548">
        <ele>292</ele>
        <time>2018-03-08T10:51:05Z</time>
      </trkpt>
      <trkpt lat="45.95875" lon="4.90555">
        <ele>292</ele>
        <time>2018-03-08T10:51:06Z</time>
      </trkpt>
      <trkpt lat="45.95875" lon="4.90567">
        <ele>293</ele>
        <time>2018-03-08T10:51:08Z</time>
      </trkpt>
      <trkpt lat="45.95874" lon="4.90573">
        <ele>293</ele>
        <time>2018-03-08T10:51:09Z</time>
      </trkpt>
      <trkpt lat="45.95873" lon="4.90585">
        <ele>293</ele>
        <time>2018-03-08T10:51:11Z</time>
      </trkpt>
      <trkpt lat="45.95873" lon="4.90591">
        <ele>293</ele>
        <time>2018-03-08T10:51:12Z</time>
      </trkpt>
      <trkpt lat="45.95873" lon="4.90597">
        <ele>293</ele>
        <time>2018-03-08T10:51:13Z</time>
      </trkpt>
      <trkpt lat="45.95873" lon="4.90604">
        <ele>293</ele>
        <time>2018-03-08T10:51:14Z</time>
      </trkpt>
      <trkpt lat="45.95873" lon="4.90617">
        <ele>293</ele>
        <time>2018-03-08T10:51:16Z</time>
      </trkpt>
      <trkpt lat="45.95873" lon="4.90623">
        <ele>293</ele>
        <time>2018-03-08T10:51:17Z</time>
      </trkpt>
      <trkpt lat="45.95873" lon="4.90636">
        <ele>293</ele>
        <time>2018-03-08T10:51:19Z</time>
      </trkpt>
      <trkpt lat="45.95873" lon="4.90642">
        <ele>293</ele>
        <time>2018-03-08T10:51:20Z</time>
      </trkpt>
      <trkpt lat="45.95873" lon="4.90649">
        <ele>293</ele>
        <time>2018-03-08T10:51:21Z</time>
      </trkpt>
      <trkpt lat="45.95873" lon="4.90656">
        <ele>293</ele>
        <time>2018-03-08T10:51:22Z</time>
      </trkpt>
      <trkpt lat="45.95871" lon="4.90668">
        <ele>292</ele>
        <time>2018-03-08T10:51:24Z</time>
      </trkpt>
      <trkpt lat="45.95871" lon="4.90674">
        <ele>292</ele>
        <time>2018-03-08T10:51:25Z</time>
      </trkpt>
      <trkpt lat="45.9587" lon="4.90686">
        <ele>292</ele>
        <time>2018-03-08T10:51:27Z</time>
      </trkpt>
      <trkpt lat="45.9587" lon="4.90692">
        <ele>292</ele>
        <time>2018-03-08T10:51:28Z</time>
      </trkpt>
      <trkpt lat="45.9587" lon="4.90698">
        <ele>292</ele>
        <time>2018-03-08T10:51:29Z</time>
      </trkpt>
      <trkpt lat="45.9587" lon="4.90705">
        <ele>292</ele>
        <time>2018-03-08T10:51:30Z</time>
      </trkpt>
      <trkpt lat="45.9587" lon="4.90718">
        <ele>292</ele>
        <time>2018-03-08T10:51:32Z</time>
      </trkpt>
      <trkpt lat="45.9587" lon="4.90725">
        <ele>292</ele>
        <time>2018-03-08T10:51:33Z</time>
      </trkpt>
      <trkpt lat="45.9587" lon="4.90737">
        <ele>292</ele>
        <time>2018-03-08T10:51:35Z</time>
      </trkpt>
      <trkpt lat="45.9587" lon="4.90744">
        <ele>292</ele>
        <time>2018-03-08T10:51:36Z</time>
      </trkpt>
      <trkpt lat="45.95869" lon="4.90751">
        <ele>291</ele>
        <time>2018-03-08T10:51:37Z</time>
      </trkpt>
      <trkpt lat="45.95869" lon="4.90759">
        <ele>291</ele>
        <time>2018-03-08T10:51:38Z</time>
      </trkpt>
      <trkpt lat="45.95869" lon="4.90765">
        <ele>291</ele>
        <time>2018-03-08T10:51:39Z</time>
      </trkpt>
      <trkpt lat="45.95868" lon="4.90771">
        <ele>291</ele>
        <time>2018-03-08T10:51:40Z</time>
      </trkpt>
      <trkpt lat="45.95868" lon="4.90778">
        <ele>291</ele>
        <time>2018-03-08T10:51:41Z</time>
      </trkpt>
      <trkpt lat="45.95868" lon="4.90784">
        <ele>291</ele>
        <time>2018-03-08T10:51:42Z</time>
      </trkpt>
      <trkpt lat="45.95867" lon="4.90797">
        <ele>291</ele>
        <time>2018-03-08T10:51:44Z</time>
      </trkpt>
      <trkpt lat="45.95867" lon="4.90803">
        <ele>291</ele>
        <time>2018-03-08T10:51:45Z</time>
      </trkpt>
      <trkpt lat="45.95866" lon="4.90815">
        <ele>292</ele>
        <time>2018-03-08T10:51:47Z</time>
      </trkpt>
      <trkpt lat="45.95866" lon="4.90821">
        <ele>292</ele>
        <time>2018-03-08T10:51:48Z</time>
      </trkpt>
      <trkpt lat="45.95864" lon="4.90828">
        <ele>292</ele>
        <time>2018-03-08T10:51:49Z</time>
      </trkpt>
      <trkpt lat="45.95864" lon="4.90835">
        <ele>292</ele>
        <time>2018-03-08T10:51:50Z</time>
      </trkpt>
      <trkpt lat="45.95863" lon="4.90842">
        <ele>292</ele>
        <time>2018-03-08T10:51:51Z</time>
      </trkpt>
      <trkpt lat="45.95863" lon="4.90849">
        <ele>292</ele>
        <time>2018-03-08T10:51:52Z</time>
      </trkpt>
      <trkpt lat="45.95862" lon="4.90857">
        <ele>292</ele>
        <time>2018-03-08T10:51:53Z</time>
      </trkpt>
      <trkpt lat="45.95863" lon="4.90864">
        <ele>292</ele>
        <time>2018-03-08T10:51:54Z</time>
      </trkpt>
      <trkpt lat="45.95863" lon="4.9087">
        <ele>292</ele>
        <time>2018-03-08T10:51:55Z</time>
      </trkpt>
      <trkpt lat="45.95863" lon="4.90877">
        <ele>292</ele>
        <time>2018-03-08T10:51:56Z</time>
      </trkpt>
      <trkpt lat="45.95862" lon="4.90884">
        <ele>292</ele>
        <time>2018-03-08T10:51:57Z</time>
      </trkpt>
      <trkpt lat="45.95862" lon="4.90891">
        <ele>292</ele>
        <time>2018-03-08T10:51:58Z</time>
      </trkpt>
      <trkpt lat="45.95862" lon="4.90898">
        <ele>292</ele>
        <time>2018-03-08T10:51:59Z</time>
      </trkpt>
      <trkpt lat="45.95862" lon="4.90906">
        <ele>292</ele>
        <time>2018-03-08T10:52:00Z</time>
      </trkpt>
      <trkpt lat="45.95861" lon="4.90913">
        <ele>292</ele>
        <time>2018-03-08T10:52:01Z</time>
      </trkpt>
      <trkpt lat="45.9586" lon="4.90921">
        <ele>293</ele>
        <time>2018-03-08T10:52:02Z</time>
      </trkpt>
      <trkpt lat="45.9586" lon="4.90928">
        <ele>293</ele>
        <time>2018-03-08T10:52:03Z</time>
      </trkpt>
      <trkpt lat="45.9586" lon="4.90935">
        <ele>293</ele>
        <time>2018-03-08T10:52:04Z</time>
      </trkpt>
      <trkpt lat="45.95861" lon="4.90941">
        <ele>294</ele>
        <time>2018-03-08T10:52:05Z</time>
      </trkpt>
      <trkpt lat="45.95861" lon="4.9095">
        <ele>294</ele>
        <time>2018-03-08T10:52:06Z</time>
      </trkpt>
      <trkpt lat="45.95861" lon="4.90957">
        <ele>294</ele>
        <time>2018-03-08T10:52:07Z</time>
      </trkpt>
      <trkpt lat="45.9586" lon="4.90965">
        <ele>294</ele>
        <time>2018-03-08T10:52:08Z</time>
      </trkpt>
      <trkpt lat="45.95861" lon="4.90973">
        <ele>294</ele>
        <time>2018-03-08T10:52:09Z</time>
      </trkpt>
      <trkpt lat="45.95861" lon="4.90981">
        <ele>294</ele>
        <time>2018-03-08T10:52:10Z</time>
      </trkpt>
      <trkpt lat="45.9586" lon="4.90993">
        <ele>294</ele>
        <time>2018-03-08T10:52:12Z</time>
      </trkpt>
      <trkpt lat="45.95857" lon="4.90998">
        <ele>295</ele>
        <time>2018-03-08T10:52:13Z</time>
      </trkpt>
      <trkpt lat="45.95855" lon="4.91005">
        <ele>296</ele>
        <time>2018-03-08T10:52:14Z</time>
      </trkpt>
      <trkpt lat="45.95855" lon="4.91012">
        <ele>296</ele>
        <time>2018-03-08T10:52:15Z</time>
      </trkpt>
      <trkpt lat="45.95855" lon="4.9102">
        <ele>296</ele>
        <time>2018-03-08T10:52:16Z</time>
      </trkpt>
      <trkpt lat="45.95854" lon="4.91028">
        <ele>296</ele>
        <time>2018-03-08T10:52:17Z</time>
      </trkpt>
      <trkpt lat="45.95853" lon="4.91037">
        <ele>297</ele>
        <time>2018-03-08T10:52:18Z</time>
      </trkpt>
      <trkpt lat="45.95853" lon="4.91046">
        <ele>297</ele>
        <time>2018-03-08T10:52:19Z</time>
      </trkpt>
      <trkpt lat="45.95853" lon="4.91054">
        <ele>297</ele>
        <time>2018-03-08T10:52:20Z</time>
      </trkpt>
      <trkpt lat="45.95853" lon="4.91061">
        <ele>297</ele>
        <time>2018-03-08T10:52:21Z</time>
      </trkpt>
      <trkpt lat="45.95855" lon="4.91074">
        <ele>297</ele>
        <time>2018-03-08T10:52:23Z</time>
      </trkpt>
      <trkpt lat="45.95855" lon="4.91081">
        <ele>297</ele>
        <time>2018-03-08T10:52:24Z</time>
      </trkpt>
      <trkpt lat="45.95855" lon="4.91088">
        <ele>297</ele>
        <time>2018-03-08T10:52:25Z</time>
      </trkpt>
      <trkpt lat="45.95856" lon="4.91095">
        <ele>297</ele>
        <time>2018-03-08T10:52:26Z</time>
      </trkpt>
      <trkpt lat="45.95856" lon="4.91101">
        <ele>297</ele>
        <time>2018-03-08T10:52:27Z</time>
      </trkpt>
      <trkpt lat="45.95856" lon="4.91109">
        <ele>297</ele>
        <time>2018-03-08T10:52:28Z</time>
      </trkpt>
      <trkpt lat="45.95855" lon="4.91116">
        <ele>297</ele>
        <time>2018-03-08T10:52:29Z</time>
      </trkpt>
      <trkpt lat="45.95855" lon="4.91124">
        <ele>297</ele>
        <time>2018-03-08T10:52:30Z</time>
      </trkpt>
      <trkpt lat="45.95853" lon="4.91133">
        <ele>297</ele>
        <time>2018-03-08T10:52:32Z</time>
      </trkpt>
      <trkpt lat="45.95853" lon="4.9114">
        <ele>297</ele>
        <time>2018-03-08T10:52:33Z</time>
      </trkpt>
      <trkpt lat="45.95853" lon="4.91147">
        <ele>297</ele>
        <time>2018-03-08T10:52:34Z</time>
      </trkpt>
      <trkpt lat="45.95853" lon="4.91154">
        <ele>297</ele>
        <time>2018-03-08T10:52:35Z</time>
      </trkpt>
      <trkpt lat="45.95853" lon="4.91161">
        <ele>297</ele>
        <time>2018-03-08T10:52:36Z</time>
      </trkpt>
      <trkpt lat="45.95853" lon="4.91168">
        <ele>296</ele>
        <time>2018-03-08T10:52:37Z</time>
      </trkpt>
      <trkpt lat="45.95853" lon="4.91175">
        <ele>296</ele>
        <time>2018-03-08T10:52:38Z</time>
      </trkpt>
      <trkpt lat="45.95854" lon="4.91183">
        <ele>296</ele>
        <time>2018-03-08T10:52:39Z</time>
      </trkpt>
      <trkpt lat="45.95854" lon="4.9119">
        <ele>296</ele>
        <time>2018-03-08T10:52:40Z</time>
      </trkpt>
      <trkpt lat="45.95853" lon="4.91197">
        <ele>297</ele>
        <time>2018-03-08T10:52:41Z</time>
      </trkpt>
      <trkpt lat="45.95851" lon="4.91206">
        <ele>297</ele>
        <time>2018-03-08T10:52:43Z</time>
      </trkpt>
      <trkpt lat="45.95851" lon="4.91212">
        <ele>297</ele>
        <time>2018-03-08T10:52:44Z</time>
      </trkpt>
      <trkpt lat="45.95851" lon="4.91219">
        <ele>297</ele>
        <time>2018-03-08T10:52:45Z</time>
      </trkpt>
      <trkpt lat="45.95852" lon="4.91228">
        <ele>297</ele>
        <time>2018-03-08T10:52:46Z</time>
      </trkpt>
      <trkpt lat="45.95852" lon="4.91235">
        <ele>297</ele>
        <time>2018-03-08T10:52:47Z</time>
      </trkpt>
      <trkpt lat="45.95851" lon="4.91241">
        <ele>297</ele>
        <time>2018-03-08T10:52:48Z</time>
      </trkpt>
      <trkpt lat="45.95851" lon="4.91248">
        <ele>296</ele>
        <time>2018-03-08T10:52:49Z</time>
      </trkpt>
      <trkpt lat="45.95851" lon="4.91257">
        <ele>297</ele>
        <time>2018-03-08T10:52:50Z</time>
      </trkpt>
      <trkpt lat="45.95851" lon="4.9127">
        <ele>297</ele>
        <time>2018-03-08T10:52:52Z</time>
      </trkpt>
      <trkpt lat="45.95851" lon="4.91276">
        <ele>297</ele>
        <time>2018-03-08T10:52:53Z</time>
      </trkpt>
      <trkpt lat="45.95851" lon="4.91288">
        <ele>298</ele>
        <time>2018-03-08T10:52:55Z</time>
      </trkpt>
      <trkpt lat="45.95852" lon="4.91298">
        <ele>298</ele>
        <time>2018-03-08T10:52:56Z</time>
      </trkpt>
      <trkpt lat="45.95853" lon="4.91306">
        <ele>298</ele>
        <time>2018-03-08T10:52:57Z</time>
      </trkpt>
      <trkpt lat="45.95852" lon="4.91313">
        <ele>298</ele>
        <time>2018-03-08T10:52:58Z</time>
      </trkpt>
      <trkpt lat="45.95851" lon="4.91324">
        <ele>298</ele>
        <time>2018-03-08T10:52:59Z</time>
      </trkpt>
      <trkpt lat="45.9585" lon="4.91335">
        <ele>298</ele>
        <time>2018-03-08T10:53:00Z</time>
      </trkpt>
      <trkpt lat="45.9585" lon="4.91342">
        <ele>298</ele>
        <time>2018-03-08T10:53:01Z</time>
      </trkpt>
      <trkpt lat="45.9585" lon="4.9135">
        <ele>298</ele>
        <time>2018-03-08T10:53:02Z</time>
      </trkpt>
      <trkpt lat="45.9585" lon="4.91362">
        <ele>298</ele>
        <time>2018-03-08T10:53:04Z</time>
      </trkpt>
      <trkpt lat="45.9585" lon="4.91369">
        <ele>298</ele>
        <time>2018-03-08T10:53:05Z</time>
      </trkpt>
      <trkpt lat="45.9585" lon="4.91374">
        <ele>298</ele>
        <time>2018-03-08T10:53:06Z</time>
      </trkpt>
      <trkpt lat="45.9585" lon="4.91382">
        <ele>298</ele>
        <time>2018-03-08T10:53:07Z</time>
      </trkpt>
      <trkpt lat="45.9585" lon="4.91395">
        <ele>298</ele>
        <time>2018-03-08T10:53:09Z</time>
      </trkpt>
      <trkpt lat="45.95849" lon="4.91401">
        <ele>298</ele>
        <time>2018-03-08T10:53:10Z</time>
      </trkpt>
      <trkpt lat="45.95848" lon="4.91412">
        <ele>297</ele>
        <time>2018-03-08T10:53:12Z</time>
      </trkpt>
      <trkpt lat="45.95848" lon="4.91418">
        <ele>297</ele>
        <time>2018-03-08T10:53:13Z</time>
      </trkpt>
      <trkpt lat="45.95847" lon="4.91429">
        <ele>298</ele>
        <time>2018-03-08T10:53:15Z</time>
      </trkpt>
      <trkpt lat="45.95846" lon="4.91436">
        <ele>298</ele>
        <time>2018-03-08T10:53:16Z</time>
      </trkpt>
      <trkpt lat="45.95846" lon="4.91448">
        <ele>298</ele>
        <time>2018-03-08T10:53:18Z</time>
      </trkpt>
      <trkpt lat="45.95847" lon="4.91455">
        <ele>299</ele>
        <time>2018-03-08T10:53:19Z</time>
      </trkpt>
      <trkpt lat="45.95847" lon="4.91463">
        <ele>299</ele>
        <time>2018-03-08T10:53:20Z</time>
      </trkpt>
      <trkpt lat="45.95847" lon="4.91471">
        <ele>299</ele>
        <time>2018-03-08T10:53:21Z</time>
      </trkpt>
      <trkpt lat="45.95846" lon="4.91477">
        <ele>299</ele>
        <time>2018-03-08T10:53:22Z</time>
      </trkpt>
      <trkpt lat="45.95846" lon="4.91484">
        <ele>299</ele>
        <time>2018-03-08T10:53:23Z</time>
      </trkpt>
      <trkpt lat="45.95845" lon="4.91496">
        <ele>299</ele>
        <time>2018-03-08T10:53:25Z</time>
      </trkpt>
      <trkpt lat="45.95845" lon="4.91504">
        <ele>299</ele>
        <time>2018-03-08T10:53:26Z</time>
      </trkpt>
      <trkpt lat="45.95845" lon="4.91512">
        <ele>299</ele>
        <time>2018-03-08T10:53:27Z</time>
      </trkpt>
      <trkpt lat="45.95845" lon="4.91519">
        <ele>299</ele>
        <time>2018-03-08T10:53:28Z</time>
      </trkpt>
      <trkpt lat="45.95845" lon="4.91526">
        <ele>300</ele>
        <time>2018-03-08T10:53:29Z</time>
      </trkpt>
      <trkpt lat="45.95845" lon="4.91532">
        <ele>300</ele>
        <time>2018-03-08T10:53:30Z</time>
      </trkpt>
      <trkpt lat="45.95845" lon="4.9154">
        <ele>300</ele>
        <time>2018-03-08T10:53:31Z</time>
      </trkpt>
      <trkpt lat="45.95844" lon="4.91546">
        <ele>300</ele>
        <time>2018-03-08T10:53:32Z</time>
      </trkpt>
      <trkpt lat="45.95843" lon="4.91559">
        <ele>300</ele>
        <time>2018-03-08T10:53:34Z</time>
      </trkpt>
      <trkpt lat="45.95842" lon="4.91566">
        <ele>300</ele>
        <time>2018-03-08T10:53:35Z</time>
      </trkpt>
      <trkpt lat="45.95842" lon="4.91574">
        <ele>300</ele>
        <time>2018-03-08T10:53:36Z</time>
      </trkpt>
      <trkpt lat="45.95841" lon="4.91582">
        <ele>300</ele>
        <time>2018-03-08T10:53:37Z</time>
      </trkpt>
      <trkpt lat="45.95841" lon="4.91589">
        <ele>300</ele>
        <time>2018-03-08T10:53:38Z</time>
      </trkpt>
      <trkpt lat="45.95841" lon="4.91597">
        <ele>300</ele>
        <time>2018-03-08T10:53:39Z</time>
      </trkpt>
      <trkpt lat="45.95841" lon="4.91603">
        <ele>301</ele>
        <time>2018-03-08T10:53:40Z</time>
      </trkpt>
      <trkpt lat="45.95841" lon="4.91611">
        <ele>301</ele>
        <time>2018-03-08T10:53:41Z</time>
      </trkpt>
      <trkpt lat="45.95841" lon="4.91618">
        <ele>301</ele>
        <time>2018-03-08T10:53:42Z</time>
      </trkpt>
      <trkpt lat="45.95841" lon="4.91624">
        <ele>301</ele>
        <time>2018-03-08T10:53:43Z</time>
      </trkpt>
      <trkpt lat="45.95842" lon="4.91634">
        <ele>301</ele>
        <time>2018-03-08T10:53:44Z</time>
      </trkpt>
      <trkpt lat="45.95842" lon="4.91641">
        <ele>301</ele>
        <time>2018-03-08T10:53:45Z</time>
      </trkpt>
      <trkpt lat="45.95842" lon="4.9165">
        <ele>301</ele>
        <time>2018-03-08T10:53:46Z</time>
      </trkpt>
      <trkpt lat="45.95842" lon="4.91657">
        <ele>301</ele>
        <time>2018-03-08T10:53:47Z</time>
      </trkpt>
      <trkpt lat="45.95842" lon="4.91668">
        <ele>301</ele>
        <time>2018-03-08T10:53:49Z</time>
      </trkpt>
      <trkpt lat="45.95842" lon="4.91674">
        <ele>302</ele>
        <time>2018-03-08T10:53:50Z</time>
      </trkpt>
      <trkpt lat="45.95843" lon="4.91686">
        <ele>302</ele>
        <time>2018-03-08T10:53:52Z</time>
      </trkpt>
      <trkpt lat="45.95843" lon="4.91691">
        <ele>302</ele>
        <time>2018-03-08T10:53:53Z</time>
      </trkpt>
      <trkpt lat="45.95841" lon="4.91704">
        <ele>302</ele>
        <time>2018-03-08T10:53:56Z</time>
      </trkpt>
      <trkpt lat="45.95841" lon="4.91709">
        <ele>302</ele>
        <time>2018-03-08T10:53:57Z</time>
      </trkpt>
      <trkpt lat="45.95838" lon="4.91718">
        <ele>302</ele>
        <time>2018-03-08T10:53:59Z</time>
      </trkpt>
      <trkpt lat="45.95836" lon="4.91723">
        <ele>303</ele>
        <time>2018-03-08T10:54:00Z</time>
      </trkpt>
      <trkpt lat="45.95832" lon="4.91727">
        <ele>301</ele>
        <time>2018-03-08T10:54:01Z</time>
      </trkpt>
      <trkpt lat="45.95829" lon="4.91733">
        <ele>301</ele>
        <time>2018-03-08T10:54:02Z</time>
      </trkpt>
      <trkpt lat="45.95827" lon="4.91738">
        <ele>302</ele>
        <time>2018-03-08T10:54:03Z</time>
      </trkpt>
      <trkpt lat="45.95824" lon="4.91744">
        <ele>302</ele>
        <time>2018-03-08T10:54:04Z</time>
      </trkpt>
      <trkpt lat="45.95821" lon="4.91751">
        <ele>302</ele>
        <time>2018-03-08T10:54:05Z</time>
      </trkpt>
      <trkpt lat="45.95818" lon="4.91756">
        <ele>302</ele>
        <time>2018-03-08T10:54:06Z</time>
      </trkpt>
      <trkpt lat="45.95817" lon="4.91765">
        <ele>301</ele>
        <time>2018-03-08T10:54:07Z</time>
      </trkpt>
      <trkpt lat="45.95814" lon="4.91771">
        <ele>301</ele>
        <time>2018-03-08T10:54:08Z</time>
      </trkpt>
      <trkpt lat="45.95811" lon="4.91776">
        <ele>301</ele>
        <time>2018-03-08T10:54:09Z</time>
      </trkpt>
      <trkpt lat="45.95808" lon="4.91782">
        <ele>301</ele>
        <time>2018-03-08T10:54:10Z</time>
      </trkpt>
      <trkpt lat="45.95805" lon="4.91789">
        <ele>301</ele>
        <time>2018-03-08T10:54:11Z</time>
      </trkpt>
      <trkpt lat="45.95802" lon="4.91795">
        <ele>301</ele>
        <time>2018-03-08T10:54:12Z</time>
      </trkpt>
      <trkpt lat="45.95799" lon="4.91801">
        <ele>301</ele>
        <time>2018-03-08T10:54:13Z</time>
      </trkpt>
      <trkpt lat="45.95795" lon="4.91805">
        <ele>300</ele>
        <time>2018-03-08T10:54:14Z</time>
      </trkpt>
      <trkpt lat="45.95793" lon="4.91811">
        <ele>300</ele>
        <time>2018-03-08T10:54:15Z</time>
      </trkpt>
      <trkpt lat="45.9579" lon="4.91817">
        <ele>300</ele>
        <time>2018-03-08T10:54:16Z</time>
      </trkpt>
      <trkpt lat="45.95786" lon="4.91822">
        <ele>300</ele>
        <time>2018-03-08T10:54:17Z</time>
      </trkpt>
      <trkpt lat="45.95782" lon="4.91829">
        <ele>300</ele>
        <time>2018-03-08T10:54:18Z</time>
      </trkpt>
      <trkpt lat="45.95779" lon="4.91834">
        <ele>300</ele>
        <time>2018-03-08T10:54:19Z</time>
      </trkpt>
      <trkpt lat="45.95776" lon="4.9184">
        <ele>300</ele>
        <time>2018-03-08T10:54:20Z</time>
      </trkpt>
      <trkpt lat="45.95772" lon="4.91845">
        <ele>300</ele>
        <time>2018-03-08T10:54:21Z</time>
      </trkpt>
      <trkpt lat="45.95768" lon="4.91851">
        <ele>300</ele>
        <time>2018-03-08T10:54:22Z</time>
      </trkpt>
      <trkpt lat="45.95765" lon="4.91857">
        <ele>300</ele>
        <time>2018-03-08T10:54:23Z</time>
      </trkpt>
      <trkpt lat="45.95763" lon="4.91862">
        <ele>300</ele>
        <time>2018-03-08T10:54:24Z</time>
      </trkpt>
      <trkpt lat="45.95758" lon="4.91871">
        <ele>300</ele>
        <time>2018-03-08T10:54:26Z</time>
      </trkpt>
      <trkpt lat="45.95756" lon="4.91878">
        <ele>300</ele>
        <time>2018-03-08T10:54:27Z</time>
      </trkpt>
      <trkpt lat="45.95754" lon="4.91883">
        <ele>300</ele>
        <time>2018-03-08T10:54:28Z</time>
      </trkpt>
      <trkpt lat="45.95753" lon="4.91901">
        <ele>301</ele>
        <time>2018-03-08T10:54:29Z</time>
      </trkpt>
      <trkpt lat="45.95747" lon="4.9191">
        <ele>300</ele>
        <time>2018-03-08T10:54:31Z</time>
      </trkpt>
      <trkpt lat="45.95744" lon="4.91914">
        <ele>300</ele>
        <time>2018-03-08T10:54:32Z</time>
      </trkpt>
      <trkpt lat="45.95739" lon="4.91921">
        <ele>300</ele>
        <time>2018-03-08T10:54:33Z</time>
      </trkpt>
      <trkpt lat="45.95737" lon="4.91927">
        <ele>300</ele>
        <time>2018-03-08T10:54:34Z</time>
      </trkpt>
      <trkpt lat="45.95733" lon="4.91932">
        <ele>300</ele>
        <time>2018-03-08T10:54:35Z</time>
      </trkpt>
      <trkpt lat="45.9573" lon="4.91936">
        <ele>300</ele>
        <time>2018-03-08T10:54:36Z</time>
      </trkpt>
      <trkpt lat="45.95723" lon="4.91943">
        <ele>300</ele>
        <time>2018-03-08T10:54:38Z</time>
      </trkpt>
      <trkpt lat="45.9572" lon="4.91947">
        <ele>300</ele>
        <time>2018-03-08T10:54:39Z</time>
      </trkpt>
      <trkpt lat="45.95717" lon="4.91954">
        <ele>300</ele>
        <time>2018-03-08T10:54:40Z</time>
      </trkpt>
      <trkpt lat="45.95714" lon="4.91961">
        <ele>300</ele>
        <time>2018-03-08T10:54:41Z</time>
      </trkpt>
      <trkpt lat="45.95711" lon="4.91964">
        <ele>300</ele>
        <time>2018-03-08T10:54:42Z</time>
      </trkpt>
      <trkpt lat="45.95708" lon="4.9197">
        <ele>300</ele>
        <time>2018-03-08T10:54:43Z</time>
      </trkpt>
      <trkpt lat="45.95702" lon="4.91967">
        <ele>299</ele>
        <time>2018-03-08T10:54:44Z</time>
      </trkpt>
      <trkpt lat="45.95698" lon="4.91972">
        <ele>299</ele>
        <time>2018-03-08T10:54:45Z</time>
      </trkpt>
      <trkpt lat="45.95696" lon="4.91978">
        <ele>299</ele>
        <time>2018-03-08T10:54:46Z</time>
      </trkpt>
      <trkpt lat="45.95693" lon="4.91982">
        <ele>299</ele>
        <time>2018-03-08T10:54:47Z</time>
      </trkpt>
      <trkpt lat="45.9569" lon="4.91988">
        <ele>299</ele>
        <time>2018-03-08T10:54:48Z</time>
      </trkpt>
      <trkpt lat="45.95688" lon="4.91994">
        <ele>299</ele>
        <time>2018-03-08T10:54:49Z</time>
      </trkpt>
      <trkpt lat="45.95685" lon="4.92">
        <ele>299</ele>
        <time>2018-03-08T10:54:50Z</time>
      </trkpt>
      <trkpt lat="45.95682" lon="4.92005">
        <ele>300</ele>
        <time>2018-03-08T10:54:51Z</time>
      </trkpt>
      <trkpt lat="45.95676" lon="4.92015">
        <ele>300</ele>
        <time>2018-03-08T10:54:54Z</time>
      </trkpt>
      <trkpt lat="45.95675" lon="4.92029">
        <ele>300</ele>
        <time>2018-03-08T10:54:55Z</time>
      </trkpt>
      <trkpt lat="45.95675" lon="4.92037">
        <ele>300</ele>
        <time>2018-03-08T10:54:56Z</time>
      </trkpt>
      <trkpt lat="45.95675" lon="4.92048">
        <ele>300</ele>
        <time>2018-03-08T10:54:57Z</time>
      </trkpt>
      <trkpt lat="45.95674" lon="4.92057">
        <ele>300</ele>
        <time>2018-03-08T10:54:58Z</time>
      </trkpt>
      <trkpt lat="45.95674" lon="4.92065">
        <ele>300</ele>
        <time>2018-03-08T10:54:59Z</time>
      </trkpt>
      <trkpt lat="45.95671" lon="4.92077">
        <ele>300</ele>
        <time>2018-03-08T10:55:01Z</time>
      </trkpt>
      <trkpt lat="45.95671" lon="4.92084">
        <ele>299</ele>
        <time>2018-03-08T10:55:02Z</time>
      </trkpt>
      <trkpt lat="45.9567" lon="4.92095">
        <ele>299</ele>
        <time>2018-03-08T10:55:04Z</time>
      </trkpt>
      <trkpt lat="45.9567" lon="4.92104">
        <ele>300</ele>
        <time>2018-03-08T10:55:05Z</time>
      </trkpt>
      <trkpt lat="45.9567" lon="4.92111">
        <ele>300</ele>
        <time>2018-03-08T10:55:06Z</time>
      </trkpt>
      <trkpt lat="45.95669" lon="4.92117">
        <ele>300</ele>
        <time>2018-03-08T10:55:07Z</time>
      </trkpt>
      <trkpt lat="45.95668" lon="4.92124">
        <ele>299</ele>
        <time>2018-03-08T10:55:08Z</time>
      </trkpt>
      <trkpt lat="45.95669" lon="4.92131">
        <ele>299</ele>
        <time>2018-03-08T10:55:09Z</time>
      </trkpt>
      <trkpt lat="45.95666" lon="4.92142">
        <ele>296</ele>
        <time>2018-03-08T10:55:11Z</time>
      </trkpt>
      <trkpt lat="45.95666" lon="4.92149">
        <ele>296</ele>
        <time>2018-03-08T10:55:12Z</time>
      </trkpt>
      <trkpt lat="45.95663" lon="4.92157">
        <ele>296</ele>
        <time>2018-03-08T10:55:14Z</time>
      </trkpt>
      <trkpt lat="45.95663" lon="4.92164">
        <ele>297</ele>
        <time>2018-03-08T10:55:15Z</time>
      </trkpt>
      <trkpt lat="45.95662" lon="4.92175">
        <ele>296</ele>
        <time>2018-03-08T10:55:17Z</time>
      </trkpt>
      <trkpt lat="45.95661" lon="4.9218">
        <ele>295</ele>
        <time>2018-03-08T10:55:18Z</time>
      </trkpt>
      <trkpt lat="45.95661" lon="4.92193">
        <ele>295</ele>
        <time>2018-03-08T10:55:20Z</time>
      </trkpt>
      <trkpt lat="45.95661" lon="4.92201">
        <ele>295</ele>
        <time>2018-03-08T10:55:21Z</time>
      </trkpt>
      <trkpt lat="45.95661" lon="4.9221">
        <ele>294</ele>
        <time>2018-03-08T10:55:22Z</time>
      </trkpt>
      <trkpt lat="45.95661" lon="4.92217">
        <ele>294</ele>
        <time>2018-03-08T10:55:23Z</time>
      </trkpt>
      <trkpt lat="45.95661" lon="4.92226">
        <ele>294</ele>
        <time>2018-03-08T10:55:24Z</time>
      </trkpt>
      <trkpt lat="45.9566" lon="4.92232">
        <ele>294</ele>
        <time>2018-03-08T10:55:25Z</time>
      </trkpt>
      <trkpt lat="45.95659" lon="4.92239">
        <ele>294</ele>
        <time>2018-03-08T10:55:26Z</time>
      </trkpt>
      <trkpt lat="45.95658" lon="4.92246">
        <ele>294</ele>
        <time>2018-03-08T10:55:27Z</time>
      </trkpt>
      <trkpt lat="45.95657" lon="4.92252">
        <ele>294</ele>
        <time>2018-03-08T10:55:28Z</time>
      </trkpt>
      <trkpt lat="45.95657" lon="4.9226">
        <ele>294</ele>
        <time>2018-03-08T10:55:29Z</time>
      </trkpt>
      <trkpt lat="45.95657" lon="4.92267">
        <ele>294</ele>
        <time>2018-03-08T10:55:30Z</time>
      </trkpt>
      <trkpt lat="45.95657" lon="4.92274">
        <ele>293</ele>
        <time>2018-03-08T10:55:31Z</time>
      </trkpt>
      <trkpt lat="45.95656" lon="4.92282">
        <ele>293</ele>
        <time>2018-03-08T10:55:32Z</time>
      </trkpt>
      <trkpt lat="45.95655" lon="4.9229">
        <ele>293</ele>
        <time>2018-03-08T10:55:33Z</time>
      </trkpt>
      <trkpt lat="45.95654" lon="4.92297">
        <ele>293</ele>
        <time>2018-03-08T10:55:34Z</time>
      </trkpt>
      <trkpt lat="45.95654" lon="4.92304">
        <ele>293</ele>
        <time>2018-03-08T10:55:35Z</time>
      </trkpt>
      <trkpt lat="45.95653" lon="4.92311">
        <ele>293</ele>
        <time>2018-03-08T10:55:36Z</time>
      </trkpt>
      <trkpt lat="45.95653" lon="4.9232">
        <ele>293</ele>
        <time>2018-03-08T10:55:37Z</time>
      </trkpt>
      <trkpt lat="45.95652" lon="4.92327">
        <ele>293</ele>
        <time>2018-03-08T10:55:38Z</time>
      </trkpt>
      <trkpt lat="45.95652" lon="4.92335">
        <ele>293</ele>
        <time>2018-03-08T10:55:39Z</time>
      </trkpt>
      <trkpt lat="45.9565" lon="4.92343">
        <ele>293</ele>
        <time>2018-03-08T10:55:40Z</time>
      </trkpt>
      <trkpt lat="45.95649" lon="4.92352">
        <ele>293</ele>
        <time>2018-03-08T10:55:41Z</time>
      </trkpt>
      <trkpt lat="45.95648" lon="4.9236">
        <ele>293</ele>
        <time>2018-03-08T10:55:42Z</time>
      </trkpt>
      <trkpt lat="45.95647" lon="4.92368">
        <ele>293</ele>
        <time>2018-03-08T10:55:43Z</time>
      </trkpt>
      <trkpt lat="45.95646" lon="4.92377">
        <ele>293</ele>
        <time>2018-03-08T10:55:44Z</time>
      </trkpt>
      <trkpt lat="45.95646" lon="4.92386">
        <ele>293</ele>
        <time>2018-03-08T10:55:45Z</time>
      </trkpt>
      <trkpt lat="45.95644" lon="4.92395">
        <ele>293</ele>
        <time>2018-03-08T10:55:46Z</time>
      </trkpt>
      <trkpt lat="45.95644" lon="4.92403">
        <ele>293</ele>
        <time>2018-03-08T10:55:47Z</time>
      </trkpt>
      <trkpt lat="45.95643" lon="4.92413">
        <ele>293</ele>
        <time>2018-03-08T10:55:48Z</time>
      </trkpt>
      <trkpt lat="45.95642" lon="4.92422">
        <ele>293</ele>
        <time>2018-03-08T10:55:49Z</time>
      </trkpt>
      <trkpt lat="45.9564" lon="4.92429">
        <ele>293</ele>
        <time>2018-03-08T10:55:50Z</time>
      </trkpt>
      <trkpt lat="45.95639" lon="4.92438">
        <ele>293</ele>
        <time>2018-03-08T10:55:51Z</time>
      </trkpt>
      <trkpt lat="45.95638" lon="4.92448">
        <ele>293</ele>
        <time>2018-03-08T10:55:52Z</time>
      </trkpt>
      <trkpt lat="45.95636" lon="4.92456">
        <ele>293</ele>
        <time>2018-03-08T10:55:53Z</time>
      </trkpt>
      <trkpt lat="45.95635" lon="4.92464">
        <ele>293</ele>
        <time>2018-03-08T10:55:54Z</time>
      </trkpt>
      <trkpt lat="45.95633" lon="4.92472">
        <ele>293</ele>
        <time>2018-03-08T10:55:55Z</time>
      </trkpt>
      <trkpt lat="45.95632" lon="4.9248">
        <ele>293</ele>
        <time>2018-03-08T10:55:56Z</time>
      </trkpt>
      <trkpt lat="45.9563" lon="4.9249">
        <ele>293</ele>
        <time>2018-03-08T10:55:57Z</time>
      </trkpt>
      <trkpt lat="45.95629" lon="4.92497">
        <ele>293</ele>
        <time>2018-03-08T10:55:58Z</time>
      </trkpt>
      <trkpt lat="45.95628" lon="4.92505">
        <ele>294</ele>
        <time>2018-03-08T10:55:59Z</time>
      </trkpt>
      <trkpt lat="45.95628" lon="4.92514">
        <ele>294</ele>
        <time>2018-03-08T10:56:00Z</time>
      </trkpt>
      <trkpt lat="45.95627" lon="4.92521">
        <ele>294</ele>
        <time>2018-03-08T10:56:01Z</time>
      </trkpt>
      <trkpt lat="45.95626" lon="4.92528">
        <ele>294</ele>
        <time>2018-03-08T10:56:02Z</time>
      </trkpt>
      <trkpt lat="45.95625" lon="4.92534">
        <ele>294</ele>
        <time>2018-03-08T10:56:03Z</time>
      </trkpt>
      <trkpt lat="45.95625" lon="4.92543">
        <ele>294</ele>
        <time>2018-03-08T10:56:04Z</time>
      </trkpt>
      <trkpt lat="45.95624" lon="4.92552">
        <ele>294</ele>
        <time>2018-03-08T10:56:05Z</time>
      </trkpt>
      <trkpt lat="45.95623" lon="4.92562">
        <ele>294</ele>
        <time>2018-03-08T10:56:06Z</time>
      </trkpt>
      <trkpt lat="45.95621" lon="4.92571">
        <ele>294</ele>
        <time>2018-03-08T10:56:07Z</time>
      </trkpt>
      <trkpt lat="45.95621" lon="4.92579">
        <ele>294</ele>
        <time>2018-03-08T10:56:08Z</time>
      </trkpt>
      <trkpt lat="45.9562" lon="4.92588">
        <ele>294</ele>
        <time>2018-03-08T10:56:09Z</time>
      </trkpt>
      <trkpt lat="45.95619" lon="4.92596">
        <ele>294</ele>
        <time>2018-03-08T10:56:10Z</time>
      </trkpt>
      <trkpt lat="45.95618" lon="4.92605">
        <ele>294</ele>
        <time>2018-03-08T10:56:11Z</time>
      </trkpt>
      <trkpt lat="45.95617" lon="4.92613">
        <ele>294</ele>
        <time>2018-03-08T10:56:12Z</time>
      </trkpt>
      <trkpt lat="45.95616" lon="4.92621">
        <ele>294</ele>
        <time>2018-03-08T10:56:13Z</time>
      </trkpt>
      <trkpt lat="45.95613" lon="4.92627">
        <ele>294</ele>
        <time>2018-03-08T10:56:14Z</time>
      </trkpt>
      <trkpt lat="45.95612" lon="4.92635">
        <ele>294</ele>
        <time>2018-03-08T10:56:15Z</time>
      </trkpt>
      <trkpt lat="45.95611" lon="4.92643">
        <ele>294</ele>
        <time>2018-03-08T10:56:16Z</time>
      </trkpt>
      <trkpt lat="45.9561" lon="4.92651">
        <ele>294</ele>
        <time>2018-03-08T10:56:17Z</time>
      </trkpt>
      <trkpt lat="45.95609" lon="4.92658">
        <ele>294</ele>
        <time>2018-03-08T10:56:18Z</time>
      </trkpt>
      <trkpt lat="45.95608" lon="4.92667">
        <ele>294</ele>
        <time>2018-03-08T10:56:19Z</time>
      </trkpt>
      <trkpt lat="45.95607" lon="4.92675">
        <ele>294</ele>
        <time>2018-03-08T10:56:20Z</time>
      </trkpt>
      <trkpt lat="45.95606" lon="4.92683">
        <ele>295</ele>
        <time>2018-03-08T10:56:21Z</time>
      </trkpt>
      <trkpt lat="45.95604" lon="4.9269">
        <ele>295</ele>
        <time>2018-03-08T10:56:22Z</time>
      </trkpt>
      <trkpt lat="45.95603" lon="4.92697">
        <ele>295</ele>
        <time>2018-03-08T10:56:23Z</time>
      </trkpt>
      <trkpt lat="45.95602" lon="4.92706">
        <ele>295</ele>
        <time>2018-03-08T10:56:24Z</time>
      </trkpt>
      <trkpt lat="45.956" lon="4.92714">
        <ele>295</ele>
        <time>2018-03-08T10:56:25Z</time>
      </trkpt>
      <trkpt lat="45.95599" lon="4.92721">
        <ele>295</ele>
        <time>2018-03-08T10:56:26Z</time>
      </trkpt>
      <trkpt lat="45.95598" lon="4.92729">
        <ele>295</ele>
        <time>2018-03-08T10:56:27Z</time>
      </trkpt>
      <trkpt lat="45.95597" lon="4.92737">
        <ele>295</ele>
        <time>2018-03-08T10:56:28Z</time>
      </trkpt>
      <trkpt lat="45.95595" lon="4.92744">
        <ele>295</ele>
        <time>2018-03-08T10:56:29Z</time>
      </trkpt>
      <trkpt lat="45.95594" lon="4.9275">
        <ele>295</ele>
        <time>2018-03-08T10:56:30Z</time>
      </trkpt>
      <trkpt lat="45.95593" lon="4.92758">
        <ele>295</ele>
        <time>2018-03-08T10:56:31Z</time>
      </trkpt>
      <trkpt lat="45.95591" lon="4.92764">
        <ele>295</ele>
        <time>2018-03-08T10:56:32Z</time>
      </trkpt>
      <trkpt lat="45.9559" lon="4.9277">
        <ele>295</ele>
        <time>2018-03-08T10:56:33Z</time>
      </trkpt>
      <trkpt lat="45.95587" lon="4.92782">
        <ele>295</ele>
        <time>2018-03-08T10:56:35Z</time>
      </trkpt>
      <trkpt lat="45.95586" lon="4.92787">
        <ele>295</ele>
        <time>2018-03-08T10:56:36Z</time>
      </trkpt>
      <trkpt lat="45.95585" lon="4.92793">
        <ele>295</ele>
        <time>2018-03-08T10:56:37Z</time>
      </trkpt>
      <trkpt lat="45.95584" lon="4.928">
        <ele>295</ele>
        <time>2018-03-08T10:56:38Z</time>
      </trkpt>
      <trkpt lat="45.95583" lon="4.92808">
        <ele>295</ele>
        <time>2018-03-08T10:56:39Z</time>
      </trkpt>
      <trkpt lat="45.95582" lon="4.92817">
        <ele>295</ele>
        <time>2018-03-08T10:56:40Z</time>
      </trkpt>
      <trkpt lat="45.95581" lon="4.92823">
        <ele>295</ele>
        <time>2018-03-08T10:56:41Z</time>
      </trkpt>
      <trkpt lat="45.95579" lon="4.9283">
        <ele>295</ele>
        <time>2018-03-08T10:56:42Z</time>
      </trkpt>
      <trkpt lat="45.95578" lon="4.92837">
        <ele>295</ele>
        <time>2018-03-08T10:56:43Z</time>
      </trkpt>
      <trkpt lat="45.95575" lon="4.92843">
        <ele>294</ele>
        <time>2018-03-08T10:56:44Z</time>
      </trkpt>
      <trkpt lat="45.95575" lon="4.92851">
        <ele>294</ele>
        <time>2018-03-08T10:56:45Z</time>
      </trkpt>
      <trkpt lat="45.95573" lon="4.92859">
        <ele>294</ele>
        <time>2018-03-08T10:56:46Z</time>
      </trkpt>
      <trkpt lat="45.95572" lon="4.92868">
        <ele>294</ele>
        <time>2018-03-08T10:56:47Z</time>
      </trkpt>
      <trkpt lat="45.95571" lon="4.92877">
        <ele>294</ele>
        <time>2018-03-08T10:56:48Z</time>
      </trkpt>
      <trkpt lat="45.9557" lon="4.92884">
        <ele>294</ele>
        <time>2018-03-08T10:56:49Z</time>
      </trkpt>
      <trkpt lat="45.95569" lon="4.92891">
        <ele>294</ele>
        <time>2018-03-08T10:56:50Z</time>
      </trkpt>
      <trkpt lat="45.95568" lon="4.92898">
        <ele>294</ele>
        <time>2018-03-08T10:56:51Z</time>
      </trkpt>
      <trkpt lat="45.95567" lon="4.92906">
        <ele>294</ele>
        <time>2018-03-08T10:56:52Z</time>
      </trkpt>
      <trkpt lat="45.95566" lon="4.92914">
        <ele>294</ele>
        <time>2018-03-08T10:56:53Z</time>
      </trkpt>
      <trkpt lat="45.95564" lon="4.92922">
        <ele>293</ele>
        <time>2018-03-08T10:56:54Z</time>
      </trkpt>
      <trkpt lat="45.95563" lon="4.92929">
        <ele>293</ele>
        <time>2018-03-08T10:56:55Z</time>
      </trkpt>
      <trkpt lat="45.95561" lon="4.92936">
        <ele>292</ele>
        <time>2018-03-08T10:56:56Z</time>
      </trkpt>
      <trkpt lat="45.9556" lon="4.92943">
        <ele>292</ele>
        <time>2018-03-08T10:56:57Z</time>
      </trkpt>
      <trkpt lat="45.95559" lon="4.9295">
        <ele>292</ele>
        <time>2018-03-08T10:56:58Z</time>
      </trkpt>
      <trkpt lat="45.95557" lon="4.92962">
        <ele>292</ele>
        <time>2018-03-08T10:57:00Z</time>
      </trkpt>
      <trkpt lat="45.95556" lon="4.92969">
        <ele>292</ele>
        <time>2018-03-08T10:57:01Z</time>
      </trkpt>
      <trkpt lat="45.95555" lon="4.92976">
        <ele>292</ele>
        <time>2018-03-08T10:57:02Z</time>
      </trkpt>
      <trkpt lat="45.95555" lon="4.92983">
        <ele>292</ele>
        <time>2018-03-08T10:57:03Z</time>
      </trkpt>
      <trkpt lat="45.95554" lon="4.92993">
        <ele>292</ele>
        <time>2018-03-08T10:57:04Z</time>
      </trkpt>
      <trkpt lat="45.95553" lon="4.92999">
        <ele>292</ele>
        <time>2018-03-08T10:57:05Z</time>
      </trkpt>
      <trkpt lat="45.95552" lon="4.93005">
        <ele>291</ele>
        <time>2018-03-08T10:57:06Z</time>
      </trkpt>
      <trkpt lat="45.95551" lon="4.93012">
        <ele>291</ele>
        <time>2018-03-08T10:57:07Z</time>
      </trkpt>
      <trkpt lat="45.95551" lon="4.93018">
        <ele>291</ele>
        <time>2018-03-08T10:57:08Z</time>
      </trkpt>
      <trkpt lat="45.9555" lon="4.93025">
        <ele>291</ele>
        <time>2018-03-08T10:57:09Z</time>
      </trkpt>
      <trkpt lat="45.95549" lon="4.93038">
        <ele>291</ele>
        <time>2018-03-08T10:57:11Z</time>
      </trkpt>
      <trkpt lat="45.95549" lon="4.93045">
        <ele>291</ele>
        <time>2018-03-08T10:57:12Z</time>
      </trkpt>
      <trkpt lat="45.95548" lon="4.9305">
        <ele>290</ele>
        <time>2018-03-08T10:57:13Z</time>
      </trkpt>
      <trkpt lat="45.95547" lon="4.93058">
        <ele>290</ele>
        <time>2018-03-08T10:57:14Z</time>
      </trkpt>
      <trkpt lat="45.95545" lon="4.93069">
        <ele>290</ele>
        <time>2018-03-08T10:57:16Z</time>
      </trkpt>
      <trkpt lat="45.95543" lon="4.93074">
        <ele>290</ele>
        <time>2018-03-08T10:57:17Z</time>
      </trkpt>
      <trkpt lat="45.95541" lon="4.93081">
        <ele>290</ele>
        <time>2018-03-08T10:57:18Z</time>
      </trkpt>
      <trkpt lat="45.9554" lon="4.93088">
        <ele>290</ele>
        <time>2018-03-08T10:57:19Z</time>
      </trkpt>
      <trkpt lat="45.95538" lon="4.93095">
        <ele>289</ele>
        <time>2018-03-08T10:57:20Z</time>
      </trkpt>
      <trkpt lat="45.95535" lon="4.93102">
        <ele>289</ele>
        <time>2018-03-08T10:57:21Z</time>
      </trkpt>
      <trkpt lat="45.95529" lon="4.93109">
        <ele>289</ele>
        <time>2018-03-08T10:57:23Z</time>
      </trkpt>
      <trkpt lat="45.95525" lon="4.93113">
        <ele>289</ele>
        <time>2018-03-08T10:57:24Z</time>
      </trkpt>
      <trkpt lat="45.9552" lon="4.93115">
        <ele>289</ele>
        <time>2018-03-08T10:57:25Z</time>
      </trkpt>
      <trkpt lat="45.95515" lon="4.93116">
        <ele>289</ele>
        <time>2018-03-08T10:57:26Z</time>
      </trkpt>
      <trkpt lat="45.95511" lon="4.93121">
        <ele>289</ele>
        <time>2018-03-08T10:57:27Z</time>
      </trkpt>
      <trkpt lat="45.95508" lon="4.93125">
        <ele>289</ele>
        <time>2018-03-08T10:57:28Z</time>
      </trkpt>
      <trkpt lat="45.95504" lon="4.93129">
        <ele>289</ele>
        <time>2018-03-08T10:57:29Z</time>
      </trkpt>
      <trkpt lat="45.955" lon="4.93132">
        <ele>289</ele>
        <time>2018-03-08T10:57:30Z</time>
      </trkpt>
      <trkpt lat="45.95493" lon="4.93138">
        <ele>290</ele>
        <time>2018-03-08T10:57:32Z</time>
      </trkpt>
      <trkpt lat="45.95489" lon="4.93141">
        <ele>290</ele>
        <time>2018-03-08T10:57:33Z</time>
      </trkpt>
      <trkpt lat="45.95485" lon="4.93145">
        <ele>290</ele>
        <time>2018-03-08T10:57:34Z</time>
      </trkpt>
      <trkpt lat="45.9548" lon="4.93149">
        <ele>290</ele>
        <time>2018-03-08T10:57:35Z</time>
      </trkpt>
      <trkpt lat="45.95476" lon="4.93152">
        <ele>290</ele>
        <time>2018-03-08T10:57:36Z</time>
      </trkpt>
      <trkpt lat="45.95472" lon="4.93155">
        <ele>290</ele>
        <time>2018-03-08T10:57:37Z</time>
      </trkpt>
      <trkpt lat="45.95467" lon="4.93158">
        <ele>290</ele>
        <time>2018-03-08T10:57:38Z</time>
      </trkpt>
      <trkpt lat="45.95462" lon="4.93162">
        <ele>290</ele>
        <time>2018-03-08T10:57:39Z</time>
      </trkpt>
      <trkpt lat="45.95458" lon="4.93166">
        <ele>291</ele>
        <time>2018-03-08T10:57:40Z</time>
      </trkpt>
      <trkpt lat="45.95455" lon="4.93172">
        <ele>291</ele>
        <time>2018-03-08T10:57:41Z</time>
      </trkpt>
      <trkpt lat="45.95453" lon="4.93177">
        <ele>291</ele>
        <time>2018-03-08T10:57:42Z</time>
      </trkpt>
      <trkpt lat="45.9545" lon="4.93183">
        <ele>291</ele>
        <time>2018-03-08T10:57:43Z</time>
      </trkpt>
      <trkpt lat="45.95447" lon="4.9319">
        <ele>291</ele>
        <time>2018-03-08T10:57:44Z</time>
      </trkpt>
      <trkpt lat="45.95445" lon="4.93199">
        <ele>291</ele>
        <time>2018-03-08T10:57:45Z</time>
      </trkpt>
      <trkpt lat="45.95446" lon="4.93206">
        <ele>291</ele>
        <time>2018-03-08T10:57:46Z</time>
      </trkpt>
      <trkpt lat="45.95447" lon="4.93213">
        <ele>291</ele>
        <time>2018-03-08T10:57:47Z</time>
      </trkpt>
      <trkpt lat="45.9545" lon="4.93219">
        <ele>291</ele>
        <time>2018-03-08T10:57:48Z</time>
      </trkpt>
      <trkpt lat="45.95453" lon="4.93226">
        <ele>291</ele>
        <time>2018-03-08T10:57:49Z</time>
      </trkpt>
      <trkpt lat="45.95456" lon="4.93232">
        <ele>291</ele>
        <time>2018-03-08T10:57:50Z</time>
      </trkpt>
      <trkpt lat="45.95459" lon="4.93239">
        <ele>290</ele>
        <time>2018-03-08T10:57:51Z</time>
      </trkpt>
      <trkpt lat="45.95461" lon="4.93246">
        <ele>290</ele>
        <time>2018-03-08T10:57:52Z</time>
      </trkpt>
      <trkpt lat="45.95464" lon="4.93254">
        <ele>290</ele>
        <time>2018-03-08T10:57:53Z</time>
      </trkpt>
      <trkpt lat="45.95467" lon="4.9326">
        <ele>290</ele>
        <time>2018-03-08T10:57:54Z</time>
      </trkpt>
      <trkpt lat="45.95469" lon="4.93268">
        <ele>290</ele>
        <time>2018-03-08T10:57:55Z</time>
      </trkpt>
      <trkpt lat="45.95474" lon="4.93275">
        <ele>290</ele>
        <time>2018-03-08T10:57:56Z</time>
      </trkpt>
      <trkpt lat="45.95477" lon="4.93283">
        <ele>290</ele>
        <time>2018-03-08T10:57:57Z</time>
      </trkpt>
      <trkpt lat="45.95479" lon="4.9329">
        <ele>290</ele>
        <time>2018-03-08T10:57:58Z</time>
      </trkpt>
      <trkpt lat="45.95483" lon="4.93298">
        <ele>290</ele>
        <time>2018-03-08T10:57:59Z</time>
      </trkpt>
      <trkpt lat="45.95486" lon="4.93305">
        <ele>290</ele>
        <time>2018-03-08T10:58:00Z</time>
      </trkpt>
      <trkpt lat="45.95489" lon="4.93312">
        <ele>290</ele>
        <time>2018-03-08T10:58:01Z</time>
      </trkpt>
      <trkpt lat="45.95492" lon="4.93319">
        <ele>290</ele>
        <time>2018-03-08T10:58:02Z</time>
      </trkpt>
      <trkpt lat="45.95495" lon="4.93326">
        <ele>289</ele>
        <time>2018-03-08T10:58:03Z</time>
      </trkpt>
      <trkpt lat="45.95499" lon="4.93333">
        <ele>289</ele>
        <time>2018-03-08T10:58:04Z</time>
      </trkpt>
      <trkpt lat="45.95502" lon="4.93341">
        <ele>289</ele>
        <time>2018-03-08T10:58:05Z</time>
      </trkpt>
      <trkpt lat="45.95505" lon="4.93347">
        <ele>289</ele>
        <time>2018-03-08T10:58:06Z</time>
      </trkpt>
      <trkpt lat="45.95509" lon="4.93355">
        <ele>289</ele>
        <time>2018-03-08T10:58:07Z</time>
      </trkpt>
      <trkpt lat="45.9551" lon="4.93363">
        <ele>289</ele>
        <time>2018-03-08T10:58:08Z</time>
      </trkpt>
      <trkpt lat="45.95512" lon="4.93367">
        <ele>289</ele>
        <time>2018-03-08T10:58:09Z</time>
      </trkpt>
      <trkpt lat="45.95514" lon="4.93374">
        <ele>289</ele>
        <time>2018-03-08T10:58:10Z</time>
      </trkpt>
      <trkpt lat="45.95517" lon="4.93381">
        <ele>289</ele>
        <time>2018-03-08T10:58:11Z</time>
      </trkpt>
      <trkpt lat="45.95519" lon="4.93389">
        <ele>289</ele>
        <time>2018-03-08T10:58:12Z</time>
      </trkpt>
      <trkpt lat="45.95522" lon="4.93394">
        <ele>289</ele>
        <time>2018-03-08T10:58:13Z</time>
      </trkpt>
      <trkpt lat="45.95525" lon="4.93401">
        <ele>289</ele>
        <time>2018-03-08T10:58:14Z</time>
      </trkpt>
      <trkpt lat="45.95527" lon="4.93408">
        <ele>289</ele>
        <time>2018-03-08T10:58:15Z</time>
      </trkpt>
      <trkpt lat="45.9553" lon="4.93415">
        <ele>289</ele>
        <time>2018-03-08T10:58:16Z</time>
      </trkpt>
      <trkpt lat="45.95533" lon="4.93424">
        <ele>289</ele>
        <time>2018-03-08T10:58:17Z</time>
      </trkpt>
      <trkpt lat="45.95536" lon="4.93432">
        <ele>289</ele>
        <time>2018-03-08T10:58:18Z</time>
      </trkpt>
      <trkpt lat="45.9554" lon="4.93438">
        <ele>289</ele>
        <time>2018-03-08T10:58:19Z</time>
      </trkpt>
      <trkpt lat="45.95544" lon="4.93447">
        <ele>289</ele>
        <time>2018-03-08T10:58:20Z</time>
      </trkpt>
      <trkpt lat="45.95548" lon="4.93454">
        <ele>289</ele>
        <time>2018-03-08T10:58:21Z</time>
      </trkpt>
      <trkpt lat="45.95551" lon="4.93461">
        <ele>289</ele>
        <time>2018-03-08T10:58:22Z</time>
      </trkpt>
      <trkpt lat="45.95554" lon="4.93468">
        <ele>289</ele>
        <time>2018-03-08T10:58:23Z</time>
      </trkpt>
      <trkpt lat="45.95557" lon="4.93476">
        <ele>289</ele>
        <time>2018-03-08T10:58:24Z</time>
      </trkpt>
      <trkpt lat="45.9556" lon="4.93483">
        <ele>289</ele>
        <time>2018-03-08T10:58:25Z</time>
      </trkpt>
      <trkpt lat="45.95562" lon="4.9349">
        <ele>290</ele>
        <time>2018-03-08T10:58:26Z</time>
      </trkpt>
      <trkpt lat="45.95564" lon="4.93495">
        <ele>290</ele>
        <time>2018-03-08T10:58:27Z</time>
      </trkpt>
      <trkpt lat="45.95566" lon="4.93503">
        <ele>290</ele>
        <time>2018-03-08T10:58:28Z</time>
      </trkpt>
      <trkpt lat="45.95569" lon="4.93509">
        <ele>290</ele>
        <time>2018-03-08T10:58:29Z</time>
      </trkpt>
      <trkpt lat="45.95571" lon="4.93517">
        <ele>290</ele>
        <time>2018-03-08T10:58:30Z</time>
      </trkpt>
      <trkpt lat="45.95572" lon="4.93525">
        <ele>290</ele>
        <time>2018-03-08T10:58:31Z</time>
      </trkpt>
      <trkpt lat="45.95572" lon="4.93533">
        <ele>290</ele>
        <time>2018-03-08T10:58:32Z</time>
      </trkpt>
      <trkpt lat="45.95571" lon="4.93543">
        <ele>289</ele>
        <time>2018-03-08T10:58:33Z</time>
      </trkpt>
      <trkpt lat="45.9557" lon="4.93551">
        <ele>289</ele>
        <time>2018-03-08T10:58:34Z</time>
      </trkpt>
      <trkpt lat="45.95568" lon="4.93559">
        <ele>289</ele>
        <time>2018-03-08T10:58:35Z</time>
      </trkpt>
      <trkpt lat="45.95567" lon="4.93568">
        <ele>289</ele>
        <time>2018-03-08T10:58:36Z</time>
      </trkpt>
      <trkpt lat="45.95566" lon="4.93576">
        <ele>289</ele>
        <time>2018-03-08T10:58:37Z</time>
      </trkpt>
      <trkpt lat="45.95565" lon="4.93585">
        <ele>289</ele>
        <time>2018-03-08T10:58:38Z</time>
      </trkpt>
      <trkpt lat="45.95564" lon="4.93593">
        <ele>289</ele>
        <time>2018-03-08T10:58:39Z</time>
      </trkpt>
      <trkpt lat="45.95564" lon="4.93602">
        <ele>289</ele>
        <time>2018-03-08T10:58:40Z</time>
      </trkpt>
      <trkpt lat="45.95563" lon="4.93611">
        <ele>289</ele>
        <time>2018-03-08T10:58:41Z</time>
      </trkpt>
      <trkpt lat="45.95562" lon="4.9362">
        <ele>289</ele>
        <time>2018-03-08T10:58:42Z</time>
      </trkpt>
      <trkpt lat="45.95562" lon="4.93628">
        <ele>289</ele>
        <time>2018-03-08T10:58:43Z</time>
      </trkpt>
      <trkpt lat="45.95561" lon="4.93634">
        <ele>289</ele>
        <time>2018-03-08T10:58:44Z</time>
      </trkpt>
      <trkpt lat="45.9556" lon="4.93643">
        <ele>289</ele>
        <time>2018-03-08T10:58:45Z</time>
      </trkpt>
      <trkpt lat="45.9556" lon="4.93651">
        <ele>289</ele>
        <time>2018-03-08T10:58:46Z</time>
      </trkpt>
      <trkpt lat="45.95559" lon="4.93662">
        <ele>289</ele>
        <time>2018-03-08T10:58:47Z</time>
      </trkpt>
      <trkpt lat="45.95558" lon="4.9367">
        <ele>290</ele>
        <time>2018-03-08T10:58:48Z</time>
      </trkpt>
      <trkpt lat="45.95561" lon="4.93683">
        <ele>290</ele>
        <time>2018-03-08T10:58:49Z</time>
      </trkpt>
      <trkpt lat="45.95561" lon="4.93691">
        <ele>290</ele>
        <time>2018-03-08T10:58:50Z</time>
      </trkpt>
      <trkpt lat="45.9556" lon="4.93697">
        <ele>290</ele>
        <time>2018-03-08T10:58:51Z</time>
      </trkpt>
      <trkpt lat="45.95559" lon="4.93705">
        <ele>290</ele>
        <time>2018-03-08T10:58:52Z</time>
      </trkpt>
      <trkpt lat="45.95557" lon="4.9371">
        <ele>290</ele>
        <time>2018-03-08T10:58:53Z</time>
      </trkpt>
      <trkpt lat="45.95555" lon="4.93723">
        <ele>290</ele>
        <time>2018-03-08T10:58:55Z</time>
      </trkpt>
      <trkpt lat="45.95556" lon="4.9373">
        <ele>290</ele>
        <time>2018-03-08T10:58:56Z</time>
      </trkpt>
      <trkpt lat="45.95557" lon="4.93738">
        <ele>290</ele>
        <time>2018-03-08T10:58:57Z</time>
      </trkpt>
      <trkpt lat="45.95558" lon="4.93747">
        <ele>290</ele>
        <time>2018-03-08T10:58:58Z</time>
      </trkpt>
      <trkpt lat="45.95558" lon="4.93755">
        <ele>290</ele>
        <time>2018-03-08T10:58:59Z</time>
      </trkpt>
      <trkpt lat="45.95558" lon="4.93764">
        <ele>290</ele>
        <time>2018-03-08T10:59:00Z</time>
      </trkpt>
      <trkpt lat="45.95558" lon="4.93771">
        <ele>290</ele>
        <time>2018-03-08T10:59:01Z</time>
      </trkpt>
      <trkpt lat="45.95559" lon="4.9378">
        <ele>290</ele>
        <time>2018-03-08T10:59:02Z</time>
      </trkpt>
      <trkpt lat="45.95557" lon="4.93791">
        <ele>290</ele>
        <time>2018-03-08T10:59:04Z</time>
      </trkpt>
      <trkpt lat="45.95555" lon="4.93799">
        <ele>290</ele>
        <time>2018-03-08T10:59:05Z</time>
      </trkpt>
      <trkpt lat="45.95552" lon="4.93805">
        <ele>290</ele>
        <time>2018-03-08T10:59:06Z</time>
      </trkpt>
      <trkpt lat="45.95551" lon="4.93811">
        <ele>290</ele>
        <time>2018-03-08T10:59:07Z</time>
      </trkpt>
      <trkpt lat="45.95544" lon="4.93815">
        <ele>290</ele>
        <time>2018-03-08T10:59:09Z</time>
      </trkpt>
      <trkpt lat="45.9554" lon="4.93818">
        <ele>291</ele>
        <time>2018-03-08T10:59:10Z</time>
      </trkpt>
      <trkpt lat="45.95535" lon="4.93827">
        <ele>291</ele>
        <time>2018-03-08T10:59:12Z</time>
      </trkpt>
      <trkpt lat="45.95532" lon="4.93833">
        <ele>291</ele>
        <time>2018-03-08T10:59:13Z</time>
      </trkpt>
      <trkpt lat="45.95529" lon="4.93839">
        <ele>290</ele>
        <time>2018-03-08T10:59:14Z</time>
      </trkpt>
      <trkpt lat="45.95529" lon="4.93845">
        <ele>290</ele>
        <time>2018-03-08T10:59:15Z</time>
      </trkpt>
      <trkpt lat="45.95528" lon="4.93853">
        <ele>290</ele>
        <time>2018-03-08T10:59:16Z</time>
      </trkpt>
      <trkpt lat="45.95527" lon="4.93862">
        <ele>290</ele>
        <time>2018-03-08T10:59:17Z</time>
      </trkpt>
      <trkpt lat="45.95528" lon="4.93872">
        <ele>290</ele>
        <time>2018-03-08T10:59:18Z</time>
      </trkpt>
      <trkpt lat="45.9553" lon="4.93882">
        <ele>290</ele>
        <time>2018-03-08T10:59:19Z</time>
      </trkpt>
      <trkpt lat="45.9553" lon="4.93887">
        <ele>290</ele>
        <time>2018-03-08T10:59:20Z</time>
      </trkpt>
      <trkpt lat="45.95531" lon="4.93896">
        <ele>290</ele>
        <time>2018-03-08T10:59:21Z</time>
      </trkpt>
      <trkpt lat="45.9553" lon="4.93904">
        <ele>290</ele>
        <time>2018-03-08T10:59:22Z</time>
      </trkpt>
      <trkpt lat="45.95529" lon="4.9391">
        <ele>290</ele>
        <time>2018-03-08T10:59:23Z</time>
      </trkpt>
      <trkpt lat="45.95529" lon="4.93919">
        <ele>290</ele>
        <time>2018-03-08T10:59:24Z</time>
      </trkpt>
      <trkpt lat="45.95528" lon="4.93929">
        <ele>290</ele>
        <time>2018-03-08T10:59:25Z</time>
      </trkpt>
      <trkpt lat="45.95528" lon="4.93937">
        <ele>290</ele>
        <time>2018-03-08T10:59:26Z</time>
      </trkpt>
      <trkpt lat="45.95528" lon="4.93946">
        <ele>290</ele>
        <time>2018-03-08T10:59:27Z</time>
      </trkpt>
      <trkpt lat="45.95527" lon="4.93954">
        <ele>290</ele>
        <time>2018-03-08T10:59:28Z</time>
      </trkpt>
      <trkpt lat="45.95527" lon="4.93962">
        <ele>290</ele>
        <time>2018-03-08T10:59:29Z</time>
      </trkpt>
      <trkpt lat="45.95527" lon="4.93969">
        <ele>290</ele>
        <time>2018-03-08T10:59:30Z</time>
      </trkpt>
      <trkpt lat="45.95527" lon="4.93978">
        <ele>290</ele>
        <time>2018-03-08T10:59:31Z</time>
      </trkpt>
      <trkpt lat="45.95527" lon="4.9399">
        <ele>290</ele>
        <time>2018-03-08T10:59:33Z</time>
      </trkpt>
      <trkpt lat="45.95525" lon="4.93996">
        <ele>290</ele>
        <time>2018-03-08T10:59:34Z</time>
      </trkpt>
      <trkpt lat="45.95519" lon="4.93998">
        <ele>290</ele>
        <time>2018-03-08T10:59:37Z</time>
      </trkpt>
      <trkpt lat="45.95511" lon="4.93998">
        <ele>290</ele>
        <time>2018-03-08T10:59:38Z</time>
      </trkpt>
      <trkpt lat="45.95502" lon="4.93995">
        <ele>289</ele>
        <time>2018-03-08T10:59:40Z</time>
      </trkpt>
      <trkpt lat="45.95498" lon="4.93994">
        <ele>289</ele>
        <time>2018-03-08T10:59:41Z</time>
      </trkpt>
      <trkpt lat="45.9549" lon="4.93993">
        <ele>289</ele>
        <time>2018-03-08T10:59:43Z</time>
      </trkpt>
      <trkpt lat="45.95485" lon="4.93992">
        <ele>289</ele>
        <time>2018-03-08T10:59:44Z</time>
      </trkpt>
      <trkpt lat="45.95481" lon="4.93991">
        <ele>289</ele>
        <time>2018-03-08T10:59:45Z</time>
      </trkpt>
      <trkpt lat="45.95476" lon="4.93991">
        <ele>289</ele>
        <time>2018-03-08T10:59:46Z</time>
      </trkpt>
      <trkpt lat="45.95467" lon="4.9399">
        <ele>289</ele>
        <time>2018-03-08T10:59:48Z</time>
      </trkpt>
      <trkpt lat="45.95461" lon="4.93991">
        <ele>289</ele>
        <time>2018-03-08T10:59:49Z</time>
      </trkpt>
      <trkpt lat="45.95452" lon="4.9399">
        <ele>289</ele>
        <time>2018-03-08T10:59:52Z</time>
      </trkpt>
      <trkpt lat="45.95448" lon="4.93991">
        <ele>289</ele>
        <time>2018-03-08T10:59:53Z</time>
      </trkpt>
      <trkpt lat="45.95443" lon="4.93992">
        <ele>289</ele>
        <time>2018-03-08T10:59:54Z</time>
      </trkpt>
      <trkpt lat="45.95438" lon="4.93994">
        <ele>289</ele>
        <time>2018-03-08T10:59:55Z</time>
      </trkpt>
      <trkpt lat="45.95434" lon="4.93996">
        <ele>289</ele>
        <time>2018-03-08T10:59:56Z</time>
      </trkpt>
      <trkpt lat="45.95429" lon="4.93997">
        <ele>290</ele>
        <time>2018-03-08T10:59:57Z</time>
      </trkpt>
      <trkpt lat="45.95424" lon="4.93999">
        <ele>290</ele>
        <time>2018-03-08T10:59:58Z</time>
      </trkpt>
      <trkpt lat="45.9542" lon="4.94001">
        <ele>290</ele>
        <time>2018-03-08T10:59:59Z</time>
      </trkpt>
      <trkpt lat="45.95415" lon="4.94002">
        <ele>290</ele>
        <time>2018-03-08T11:00:00Z</time>
      </trkpt>
      <trkpt lat="45.9541" lon="4.94005">
        <ele>289</ele>
        <time>2018-03-08T11:00:01Z</time>
      </trkpt>
      <trkpt lat="45.95405" lon="4.94006">
        <ele>289</ele>
        <time>2018-03-08T11:00:02Z</time>
      </trkpt>
      <trkpt lat="45.954" lon="4.94007">
        <ele>289</ele>
        <time>2018-03-08T11:00:03Z</time>
      </trkpt>
      <trkpt lat="45.95392" lon="4.9401">
        <ele>289</ele>
        <time>2018-03-08T11:00:05Z</time>
      </trkpt>
      <trkpt lat="45.95387" lon="4.94012">
        <ele>289</ele>
        <time>2018-03-08T11:00:06Z</time>
      </trkpt>
      <trkpt lat="45.95381" lon="4.94015">
        <ele>289</ele>
        <time>2018-03-08T11:00:08Z</time>
      </trkpt>
      <trkpt lat="45.95377" lon="4.94016">
        <ele>288</ele>
        <time>2018-03-08T11:00:09Z</time>
      </trkpt>
      <trkpt lat="45.95371" lon="4.94017">
        <ele>288</ele>
        <time>2018-03-08T11:00:11Z</time>
      </trkpt>
      <trkpt lat="45.95366" lon="4.94018">
        <ele>288</ele>
        <time>2018-03-08T11:00:12Z</time>
      </trkpt>
      <trkpt lat="45.95359" lon="4.9402">
        <ele>288</ele>
        <time>2018-03-08T11:00:14Z</time>
      </trkpt>
      <trkpt lat="45.95354" lon="4.94021">
        <ele>288</ele>
        <time>2018-03-08T11:00:15Z</time>
      </trkpt>
      <trkpt lat="45.95345" lon="4.94022">
        <ele>288</ele>
        <time>2018-03-08T11:00:17Z</time>
      </trkpt>
      <trkpt lat="45.95341" lon="4.94022">
        <ele>288</ele>
        <time>2018-03-08T11:00:18Z</time>
      </trkpt>
      <trkpt lat="45.95332" lon="4.94024">
        <ele>288</ele>
        <time>2018-03-08T11:00:20Z</time>
      </trkpt>
      <trkpt lat="45.95327" lon="4.94024">
        <ele>288</ele>
        <time>2018-03-08T11:00:21Z</time>
      </trkpt>
      <trkpt lat="45.95322" lon="4.94024">
        <ele>288</ele>
        <time>2018-03-08T11:00:22Z</time>
      </trkpt>
      <trkpt lat="45.95317" lon="4.94022">
        <ele>288</ele>
        <time>2018-03-08T11:00:23Z</time>
      </trkpt>
      <trkpt lat="45.95309" lon="4.94022">
        <ele>288</ele>
        <time>2018-03-08T11:00:25Z</time>
      </trkpt>
      <trkpt lat="45.95306" lon="4.94025">
        <ele>288</ele>
        <time>2018-03-08T11:00:26Z</time>
      </trkpt>
      <trkpt lat="45.95301" lon="4.9403">
        <ele>288</ele>
        <time>2018-03-08T11:00:27Z</time>
      </trkpt>
      <trkpt lat="45.95298" lon="4.94034">
        <ele>288</ele>
        <time>2018-03-08T11:00:28Z</time>
      </trkpt>
      <trkpt lat="45.95293" lon="4.94044">
        <ele>288</ele>
        <time>2018-03-08T11:00:30Z</time>
      </trkpt>
      <trkpt lat="45.95291" lon="4.9405">
        <ele>288</ele>
        <time>2018-03-08T11:00:31Z</time>
      </trkpt>
      <trkpt lat="45.95288" lon="4.94061">
        <ele>288</ele>
        <time>2018-03-08T11:00:33Z</time>
      </trkpt>
      <trkpt lat="45.95286" lon="4.94066">
        <ele>288</ele>
        <time>2018-03-08T11:00:34Z</time>
      </trkpt>
      <trkpt lat="45.95282" lon="4.94077">
        <ele>288</ele>
        <time>2018-03-08T11:00:36Z</time>
      </trkpt>
      <trkpt lat="45.9528" lon="4.94082">
        <ele>288</ele>
        <time>2018-03-08T11:00:37Z</time>
      </trkpt>
      <trkpt lat="45.95276" lon="4.94093">
        <ele>288</ele>
        <time>2018-03-08T11:00:39Z</time>
      </trkpt>
      <trkpt lat="45.95273" lon="4.94098">
        <ele>288</ele>
        <time>2018-03-08T11:00:40Z</time>
      </trkpt>
      <trkpt lat="45.9527" lon="4.94108">
        <ele>288</ele>
        <time>2018-03-08T11:00:42Z</time>
      </trkpt>
      <trkpt lat="45.95269" lon="4.94114">
        <ele>288</ele>
        <time>2018-03-08T11:00:43Z</time>
      </trkpt>
      <trkpt lat="45.95266" lon="4.94125">
        <ele>288</ele>
        <time>2018-03-08T11:00:45Z</time>
      </trkpt>
      <trkpt lat="45.95264" lon="4.9413">
        <ele>288</ele>
        <time>2018-03-08T11:00:46Z</time>
      </trkpt>
      <trkpt lat="45.95259" lon="4.94139">
        <ele>288</ele>
        <time>2018-03-08T11:00:48Z</time>
      </trkpt>
      <trkpt lat="45.95257" lon="4.94145">
        <ele>288</ele>
        <time>2018-03-08T11:00:49Z</time>
      </trkpt>
      <trkpt lat="45.95253" lon="4.94156">
        <ele>289</ele>
        <time>2018-03-08T11:00:51Z</time>
      </trkpt>
      <trkpt lat="45.95252" lon="4.94161">
        <ele>289</ele>
        <time>2018-03-08T11:00:52Z</time>
      </trkpt>
      <trkpt lat="45.95248" lon="4.94172">
        <ele>289</ele>
        <time>2018-03-08T11:00:54Z</time>
      </trkpt>
      <trkpt lat="45.95244" lon="4.94177">
        <ele>289</ele>
        <time>2018-03-08T11:00:55Z</time>
      </trkpt>
      <trkpt lat="45.9524" lon="4.94188">
        <ele>289</ele>
        <time>2018-03-08T11:00:57Z</time>
      </trkpt>
      <trkpt lat="45.95238" lon="4.94194">
        <ele>289</ele>
        <time>2018-03-08T11:00:58Z</time>
      </trkpt>
      <trkpt lat="45.95236" lon="4.94205">
        <ele>289</ele>
        <time>2018-03-08T11:01:00Z</time>
      </trkpt>
      <trkpt lat="45.95235" lon="4.94211">
        <ele>289</ele>
        <time>2018-03-08T11:01:01Z</time>
      </trkpt>
      <trkpt lat="45.95233" lon="4.94222">
        <ele>289</ele>
        <time>2018-03-08T11:01:03Z</time>
      </trkpt>
      <trkpt lat="45.95232" lon="4.94228">
        <ele>289</ele>
        <time>2018-03-08T11:01:04Z</time>
      </trkpt>
      <trkpt lat="45.95231" lon="4.94235">
        <ele>289</ele>
        <time>2018-03-08T11:01:05Z</time>
      </trkpt>
      <trkpt lat="45.9523" lon="4.94241">
        <ele>289</ele>
        <time>2018-03-08T11:01:06Z</time>
      </trkpt>
      <trkpt lat="45.9523" lon="4.94248">
        <ele>289</ele>
        <time>2018-03-08T11:01:07Z</time>
      </trkpt>
      <trkpt lat="45.9523" lon="4.94256">
        <ele>288</ele>
        <time>2018-03-08T11:01:08Z</time>
      </trkpt>
      <trkpt lat="45.9523" lon="4.94262">
        <ele>289</ele>
        <time>2018-03-08T11:01:09Z</time>
      </trkpt>
      <trkpt lat="45.9523" lon="4.94269">
        <ele>289</ele>
        <time>2018-03-08T11:01:10Z</time>
      </trkpt>
      <trkpt lat="45.9523" lon="4.94276">
        <ele>289</ele>
        <time>2018-03-08T11:01:11Z</time>
      </trkpt>
      <trkpt lat="45.95229" lon="4.94282">
        <ele>289</ele>
        <time>2018-03-08T11:01:12Z</time>
      </trkpt>
      <trkpt lat="45.95229" lon="4.94289">
        <ele>289</ele>
        <time>2018-03-08T11:01:13Z</time>
      </trkpt>
      <trkpt lat="45.95228" lon="4.94296">
        <ele>289</ele>
        <time>2018-03-08T11:01:14Z</time>
      </trkpt>
      <trkpt lat="45.95227" lon="4.94308">
        <ele>289</ele>
        <time>2018-03-08T11:01:16Z</time>
      </trkpt>
      <trkpt lat="45.95226" lon="4.94313">
        <ele>289</ele>
        <time>2018-03-08T11:01:17Z</time>
      </trkpt>
      <trkpt lat="45.95226" lon="4.94325">
        <ele>288</ele>
        <time>2018-03-08T11:01:19Z</time>
      </trkpt>
      <trkpt lat="45.95225" lon="4.9433">
        <ele>288</ele>
        <time>2018-03-08T11:01:20Z</time>
      </trkpt>
      <trkpt lat="45.95224" lon="4.94338">
        <ele>289</ele>
        <time>2018-03-08T11:01:21Z</time>
      </trkpt>
      <trkpt lat="45.95222" lon="4.94346">
        <ele>289</ele>
        <time>2018-03-08T11:01:22Z</time>
      </trkpt>
      <trkpt lat="45.9522" lon="4.94358">
        <ele>289</ele>
        <time>2018-03-08T11:01:24Z</time>
      </trkpt>
      <trkpt lat="45.95218" lon="4.94364">
        <ele>289</ele>
        <time>2018-03-08T11:01:25Z</time>
      </trkpt>
      <trkpt lat="45.95213" lon="4.94374">
        <ele>289</ele>
        <time>2018-03-08T11:01:27Z</time>
      </trkpt>
      <trkpt lat="45.9521" lon="4.9438">
        <ele>289</ele>
        <time>2018-03-08T11:01:28Z</time>
      </trkpt>
      <trkpt lat="45.95206" lon="4.94391">
        <ele>289</ele>
        <time>2018-03-08T11:01:30Z</time>
      </trkpt>
      <trkpt lat="45.95204" lon="4.94397">
        <ele>289</ele>
        <time>2018-03-08T11:01:31Z</time>
      </trkpt>
      <trkpt lat="45.95203" lon="4.94406">
        <ele>289</ele>
        <time>2018-03-08T11:01:32Z</time>
      </trkpt>
      <trkpt lat="45.952" lon="4.94411">
        <ele>289</ele>
        <time>2018-03-08T11:01:33Z</time>
      </trkpt>
      <trkpt lat="45.95198" lon="4.94416">
        <ele>289</ele>
        <time>2018-03-08T11:01:34Z</time>
      </trkpt>
      <trkpt lat="45.95195" lon="4.94423">
        <ele>290</ele>
        <time>2018-03-08T11:01:35Z</time>
      </trkpt>
      <trkpt lat="45.95192" lon="4.94434">
        <ele>290</ele>
        <time>2018-03-08T11:01:37Z</time>
      </trkpt>
      <trkpt lat="45.9519" lon="4.94441">
        <ele>290</ele>
        <time>2018-03-08T11:01:38Z</time>
      </trkpt>
      <trkpt lat="45.95188" lon="4.94452">
        <ele>290</ele>
        <time>2018-03-08T11:01:41Z</time>
      </trkpt>
      <trkpt lat="45.95187" lon="4.94463">
        <ele>289</ele>
        <time>2018-03-08T11:01:42Z</time>
      </trkpt>
      <trkpt lat="45.95186" lon="4.94474">
        <ele>289</ele>
        <time>2018-03-08T11:01:44Z</time>
      </trkpt>
      <trkpt lat="45.95186" lon="4.94482">
        <ele>289</ele>
        <time>2018-03-08T11:01:45Z</time>
      </trkpt>
      <trkpt lat="45.95186" lon="4.9449">
        <ele>289</ele>
        <time>2018-03-08T11:01:46Z</time>
      </trkpt>
      <trkpt lat="45.95185" lon="4.94497">
        <ele>289</ele>
        <time>2018-03-08T11:01:47Z</time>
      </trkpt>
      <trkpt lat="45.95185" lon="4.94504">
        <ele>289</ele>
        <time>2018-03-08T11:01:48Z</time>
      </trkpt>
      <trkpt lat="45.95184" lon="4.94511">
        <ele>289</ele>
        <time>2018-03-08T11:01:49Z</time>
      </trkpt>
      <trkpt lat="45.95182" lon="4.94523">
        <ele>289</ele>
        <time>2018-03-08T11:01:51Z</time>
      </trkpt>
      <trkpt lat="45.95181" lon="4.94528">
        <ele>289</ele>
        <time>2018-03-08T11:01:52Z</time>
      </trkpt>
      <trkpt lat="45.9518" lon="4.94536">
        <ele>289</ele>
        <time>2018-03-08T11:01:53Z</time>
      </trkpt>
      <trkpt lat="45.9518" lon="4.94543">
        <ele>289</ele>
        <time>2018-03-08T11:01:54Z</time>
      </trkpt>
      <trkpt lat="45.9518" lon="4.94551">
        <ele>289</ele>
        <time>2018-03-08T11:01:55Z</time>
      </trkpt>
      <trkpt lat="45.9518" lon="4.94561">
        <ele>289</ele>
        <time>2018-03-08T11:01:56Z</time>
      </trkpt>
      <trkpt lat="45.95179" lon="4.94569">
        <ele>289</ele>
        <time>2018-03-08T11:01:57Z</time>
      </trkpt>
      <trkpt lat="45.95179" lon="4.94577">
        <ele>289</ele>
        <time>2018-03-08T11:01:58Z</time>
      </trkpt>
      <trkpt lat="45.95178" lon="4.94584">
        <ele>289</ele>
        <time>2018-03-08T11:01:59Z</time>
      </trkpt>
      <trkpt lat="45.95177" lon="4.94592">
        <ele>289</ele>
        <time>2018-03-08T11:02:00Z</time>
      </trkpt>
      <trkpt lat="45.95176" lon="4.94599">
        <ele>289</ele>
        <time>2018-03-08T11:02:01Z</time>
      </trkpt>
      <trkpt lat="45.95175" lon="4.94609">
        <ele>289</ele>
        <time>2018-03-08T11:02:02Z</time>
      </trkpt>
      <trkpt lat="45.95172" lon="4.94613">
        <ele>289</ele>
        <time>2018-03-08T11:02:03Z</time>
      </trkpt>
      <trkpt lat="45.95169" lon="4.9462">
        <ele>289</ele>
        <time>2018-03-08T11:02:04Z</time>
      </trkpt>
      <trkpt lat="45.95165" lon="4.94625">
        <ele>290</ele>
        <time>2018-03-08T11:02:05Z</time>
      </trkpt>
      <trkpt lat="45.95162" lon="4.94635">
        <ele>290</ele>
        <time>2018-03-08T11:02:06Z</time>
      </trkpt>
      <trkpt lat="45.95159" lon="4.94641">
        <ele>290</ele>
        <time>2018-03-08T11:02:07Z</time>
      </trkpt>
      <trkpt lat="45.95156" lon="4.94647">
        <ele>290</ele>
        <time>2018-03-08T11:02:08Z</time>
      </trkpt>
      <trkpt lat="45.95153" lon="4.94652">
        <ele>290</ele>
        <time>2018-03-08T11:02:09Z</time>
      </trkpt>
      <trkpt lat="45.9515" lon="4.94658">
        <ele>290</ele>
        <time>2018-03-08T11:02:10Z</time>
      </trkpt>
      <trkpt lat="45.95147" lon="4.94663">
        <ele>290</ele>
        <time>2018-03-08T11:02:11Z</time>
      </trkpt>
      <trkpt lat="45.95144" lon="4.94668">
        <ele>290</ele>
        <time>2018-03-08T11:02:12Z</time>
      </trkpt>
      <trkpt lat="45.95143" lon="4.9468">
        <ele>290</ele>
        <time>2018-03-08T11:02:14Z</time>
      </trkpt>
      <trkpt lat="45.95146" lon="4.94687">
        <ele>290</ele>
        <time>2018-03-08T11:02:15Z</time>
      </trkpt>
      <trkpt lat="45.95149" lon="4.94694">
        <ele>290</ele>
        <time>2018-03-08T11:02:16Z</time>
      </trkpt>
      <trkpt lat="45.95154" lon="4.94699">
        <ele>290</ele>
        <time>2018-03-08T11:02:17Z</time>
      </trkpt>
      <trkpt lat="45.95159" lon="4.94705">
        <ele>290</ele>
        <time>2018-03-08T11:02:18Z</time>
      </trkpt>
      <trkpt lat="45.95162" lon="4.9471">
        <ele>290</ele>
        <time>2018-03-08T11:02:19Z</time>
      </trkpt>
      <trkpt lat="45.95166" lon="4.94711">
        <ele>290</ele>
        <time>2018-03-08T11:02:20Z</time>
      </trkpt>
      <trkpt lat="45.95169" lon="4.94719">
        <ele>288</ele>
        <time>2018-03-08T11:02:21Z</time>
      </trkpt>
      <trkpt lat="45.95173" lon="4.94725">
        <ele>288</ele>
        <time>2018-03-08T11:02:22Z</time>
      </trkpt>
      <trkpt lat="45.95177" lon="4.94729">
        <ele>288</ele>
        <time>2018-03-08T11:02:23Z</time>
      </trkpt>
      <trkpt lat="45.95181" lon="4.94734">
        <ele>288</ele>
        <time>2018-03-08T11:02:24Z</time>
      </trkpt>
      <trkpt lat="45.95187" lon="4.94738">
        <ele>288</ele>
        <time>2018-03-08T11:02:25Z</time>
      </trkpt>
      <trkpt lat="45.95191" lon="4.94742">
        <ele>288</ele>
        <time>2018-03-08T11:02:26Z</time>
      </trkpt>
      <trkpt lat="45.95194" lon="4.94748">
        <ele>288</ele>
        <time>2018-03-08T11:02:27Z</time>
      </trkpt>
      <trkpt lat="45.95197" lon="4.94753">
        <ele>287</ele>
        <time>2018-03-08T11:02:28Z</time>
      </trkpt>
      <trkpt lat="45.952" lon="4.9476">
        <ele>287</ele>
        <time>2018-03-08T11:02:29Z</time>
      </trkpt>
      <trkpt lat="45.952" lon="4.94768">
        <ele>287</ele>
        <time>2018-03-08T11:02:30Z</time>
      </trkpt>
      <trkpt lat="45.95198" lon="4.94774">
        <ele>287</ele>
        <time>2018-03-08T11:02:31Z</time>
      </trkpt>
      <trkpt lat="45.95195" lon="4.94778">
        <ele>287</ele>
        <time>2018-03-08T11:02:32Z</time>
      </trkpt>
      <trkpt lat="45.95189" lon="4.9478">
        <ele>287</ele>
        <time>2018-03-08T11:02:33Z</time>
      </trkpt>
      <trkpt lat="45.95185" lon="4.94781">
        <ele>287</ele>
        <time>2018-03-08T11:02:34Z</time>
      </trkpt>
      <trkpt lat="45.9518" lon="4.94781">
        <ele>287</ele>
        <time>2018-03-08T11:02:35Z</time>
      </trkpt>
      <trkpt lat="45.95176" lon="4.94782">
        <ele>287</ele>
        <time>2018-03-08T11:02:36Z</time>
      </trkpt>
      <trkpt lat="45.95171" lon="4.94785">
        <ele>287</ele>
        <time>2018-03-08T11:02:37Z</time>
      </trkpt>
      <trkpt lat="45.95163" lon="4.9479">
        <ele>289</ele>
        <time>2018-03-08T11:02:39Z</time>
      </trkpt>
      <trkpt lat="45.95158" lon="4.94792">
        <ele>289</ele>
        <time>2018-03-08T11:02:40Z</time>
      </trkpt>
      <trkpt lat="45.95154" lon="4.94796">
        <ele>289</ele>
        <time>2018-03-08T11:02:41Z</time>
      </trkpt>
      <trkpt lat="45.95149" lon="4.94798">
        <ele>289</ele>
        <time>2018-03-08T11:02:42Z</time>
      </trkpt>
      <trkpt lat="45.95145" lon="4.94801">
        <ele>289</ele>
        <time>2018-03-08T11:02:43Z</time>
      </trkpt>
      <trkpt lat="45.95139" lon="4.94804">
        <ele>289</ele>
        <time>2018-03-08T11:02:44Z</time>
      </trkpt>
      <trkpt lat="45.95135" lon="4.94808">
        <ele>289</ele>
        <time>2018-03-08T11:02:45Z</time>
      </trkpt>
      <trkpt lat="45.9513" lon="4.94811">
        <ele>289</ele>
        <time>2018-03-08T11:02:46Z</time>
      </trkpt>
      <trkpt lat="45.95124" lon="4.94816">
        <ele>289</ele>
        <time>2018-03-08T11:02:48Z</time>
      </trkpt>
      <trkpt lat="45.95121" lon="4.94819">
        <ele>289</ele>
        <time>2018-03-08T11:02:49Z</time>
      </trkpt>
      <trkpt lat="45.95114" lon="4.94825">
        <ele>289</ele>
        <time>2018-03-08T11:02:51Z</time>
      </trkpt>
      <trkpt lat="45.9511" lon="4.94827">
        <ele>289</ele>
        <time>2018-03-08T11:02:52Z</time>
      </trkpt>
      <trkpt lat="45.95105" lon="4.94828">
        <ele>289</ele>
        <time>2018-03-08T11:02:53Z</time>
      </trkpt>
      <trkpt lat="45.951" lon="4.94834">
        <ele>289</ele>
        <time>2018-03-08T11:02:54Z</time>
      </trkpt>
      <trkpt lat="45.95097" lon="4.94838">
        <ele>289</ele>
        <time>2018-03-08T11:02:55Z</time>
      </trkpt>
      <trkpt lat="45.95094" lon="4.94842">
        <ele>289</ele>
        <time>2018-03-08T11:02:56Z</time>
      </trkpt>
      <trkpt lat="45.95087" lon="4.94849">
        <ele>289</ele>
        <time>2018-03-08T11:02:58Z</time>
      </trkpt>
      <trkpt lat="45.95084" lon="4.94852">
        <ele>289</ele>
        <time>2018-03-08T11:02:59Z</time>
      </trkpt>
      <trkpt lat="45.95077" lon="4.94859">
        <ele>290</ele>
        <time>2018-03-08T11:03:01Z</time>
      </trkpt>
      <trkpt lat="45.95074" lon="4.94862">
        <ele>289</ele>
        <time>2018-03-08T11:03:02Z</time>
      </trkpt>
      <trkpt lat="45.95067" lon="4.94869">
        <ele>289</ele>
        <time>2018-03-08T11:03:04Z</time>
      </trkpt>
      <trkpt lat="45.95064" lon="4.94873">
        <ele>289</ele>
        <time>2018-03-08T11:03:05Z</time>
      </trkpt>
      <trkpt lat="45.95059" lon="4.94882">
        <ele>289</ele>
        <time>2018-03-08T11:03:07Z</time>
      </trkpt>
      <trkpt lat="45.95055" lon="4.94885">
        <ele>289</ele>
        <time>2018-03-08T11:03:08Z</time>
      </trkpt>
      <trkpt lat="45.95049" lon="4.94893">
        <ele>289</ele>
        <time>2018-03-08T11:03:10Z</time>
      </trkpt>
      <trkpt lat="45.95046" lon="4.94897">
        <ele>289</ele>
        <time>2018-03-08T11:03:11Z</time>
      </trkpt>
      <trkpt lat="45.9504" lon="4.94905">
        <ele>289</ele>
        <time>2018-03-08T11:03:13Z</time>
      </trkpt>
      <trkpt lat="45.95037" lon="4.94909">
        <ele>289</ele>
        <time>2018-03-08T11:03:14Z</time>
      </trkpt>
      <trkpt lat="45.95031" lon="4.94917">
        <ele>289</ele>
        <time>2018-03-08T11:03:16Z</time>
      </trkpt>
      <trkpt lat="45.95027" lon="4.94922">
        <ele>289</ele>
        <time>2018-03-08T11:03:17Z</time>
      </trkpt>
      <trkpt lat="45.95021" lon="4.94929">
        <ele>288</ele>
        <time>2018-03-08T11:03:19Z</time>
      </trkpt>
      <trkpt lat="45.95017" lon="4.94933">
        <ele>288</ele>
        <time>2018-03-08T11:03:20Z</time>
      </trkpt>
      <trkpt lat="45.95011" lon="4.94941">
        <ele>289</ele>
        <time>2018-03-08T11:03:22Z</time>
      </trkpt>
      <trkpt lat="45.95008" lon="4.94945">
        <ele>289</ele>
        <time>2018-03-08T11:03:23Z</time>
      </trkpt>
      <trkpt lat="45.95002" lon="4.94954">
        <ele>289</ele>
        <time>2018-03-08T11:03:25Z</time>
      </trkpt>
      <trkpt lat="45.94999" lon="4.94959">
        <ele>289</ele>
        <time>2018-03-08T11:03:26Z</time>
      </trkpt>
      <trkpt lat="45.94996" lon="4.94964">
        <ele>289</ele>
        <time>2018-03-08T11:03:27Z</time>
      </trkpt>
      <trkpt lat="45.94994" lon="4.9497">
        <ele>289</ele>
        <time>2018-03-08T11:03:28Z</time>
      </trkpt>
      <trkpt lat="45.94994" lon="4.94981">
        <ele>289</ele>
        <time>2018-03-08T11:03:29Z</time>
      </trkpt>
      <trkpt lat="45.94994" lon="4.94991">
        <ele>289</ele>
        <time>2018-03-08T11:03:30Z</time>
      </trkpt>
      <trkpt lat="45.94994" lon="4.94998">
        <ele>289</ele>
        <time>2018-03-08T11:03:31Z</time>
      </trkpt>
      <trkpt lat="45.94996" lon="4.95005">
        <ele>289</ele>
        <time>2018-03-08T11:03:32Z</time>
      </trkpt>
      <trkpt lat="45.94999" lon="4.95016">
        <ele>289</ele>
        <time>2018-03-08T11:03:34Z</time>
      </trkpt>
      <trkpt lat="45.95001" lon="4.95022">
        <ele>289</ele>
        <time>2018-03-08T11:03:35Z</time>
      </trkpt>
      <trkpt lat="45.95002" lon="4.95027">
        <ele>290</ele>
        <time>2018-03-08T11:03:36Z</time>
      </trkpt>
      <trkpt lat="45.95003" lon="4.95035">
        <ele>290</ele>
        <time>2018-03-08T11:03:37Z</time>
      </trkpt>
      <trkpt lat="45.95003" lon="4.95047">
        <ele>290</ele>
        <time>2018-03-08T11:03:39Z</time>
      </trkpt>
      <trkpt lat="45.95004" lon="4.95053">
        <ele>290</ele>
        <time>2018-03-08T11:03:40Z</time>
      </trkpt>
      <trkpt lat="45.95004" lon="4.95065">
        <ele>290</ele>
        <time>2018-03-08T11:03:42Z</time>
      </trkpt>
      <trkpt lat="45.95004" lon="4.95071">
        <ele>290</ele>
        <time>2018-03-08T11:03:43Z</time>
      </trkpt>
      <trkpt lat="45.95004" lon="4.95078">
        <ele>290</ele>
        <time>2018-03-08T11:03:44Z</time>
      </trkpt>
      <trkpt lat="45.95005" lon="4.95089">
        <ele>290</ele>
        <time>2018-03-08T11:03:45Z</time>
      </trkpt>
      <trkpt lat="45.95003" lon="4.951">
        <ele>290</ele>
        <time>2018-03-08T11:03:47Z</time>
      </trkpt>
      <trkpt lat="45.95003" lon="4.95106">
        <ele>290</ele>
        <time>2018-03-08T11:03:48Z</time>
      </trkpt>
      <trkpt lat="45.95003" lon="4.95112">
        <ele>290</ele>
        <time>2018-03-08T11:03:49Z</time>
      </trkpt>
      <trkpt lat="45.95004" lon="4.9512">
        <ele>290</ele>
        <time>2018-03-08T11:03:50Z</time>
      </trkpt>
      <trkpt lat="45.95003" lon="4.95126">
        <ele>290</ele>
        <time>2018-03-08T11:03:51Z</time>
      </trkpt>
      <trkpt lat="45.95005" lon="4.95135">
        <ele>290</ele>
        <time>2018-03-08T11:03:52Z</time>
      </trkpt>
      <trkpt lat="45.95004" lon="4.95147">
        <ele>290</ele>
        <time>2018-03-08T11:03:54Z</time>
      </trkpt>
      <trkpt lat="45.95004" lon="4.95153">
        <ele>290</ele>
        <time>2018-03-08T11:03:55Z</time>
      </trkpt>
      <trkpt lat="45.95004" lon="4.95166">
        <ele>290</ele>
        <time>2018-03-08T11:03:57Z</time>
      </trkpt>
      <trkpt lat="45.95004" lon="4.95173">
        <ele>290</ele>
        <time>2018-03-08T11:03:58Z</time>
      </trkpt>
      <trkpt lat="45.95003" lon="4.95183">
        <ele>290</ele>
        <time>2018-03-08T11:04:00Z</time>
      </trkpt>
      <trkpt lat="45.95002" lon="4.95189">
        <ele>290</ele>
        <time>2018-03-08T11:04:01Z</time>
      </trkpt>
      <trkpt lat="45.95003" lon="4.952">
        <ele>290</ele>
        <time>2018-03-08T11:04:03Z</time>
      </trkpt>
      <trkpt lat="45.95004" lon="4.95207">
        <ele>290</ele>
        <time>2018-03-08T11:04:04Z</time>
      </trkpt>
      <trkpt lat="45.95006" lon="4.95214">
        <ele>290</ele>
        <time>2018-03-08T11:04:05Z</time>
      </trkpt>
      <trkpt lat="45.95007" lon="4.95221">
        <ele>290</ele>
        <time>2018-03-08T11:04:06Z</time>
      </trkpt>
      <trkpt lat="45.95008" lon="4.95234">
        <ele>290</ele>
        <time>2018-03-08T11:04:08Z</time>
      </trkpt>
      <trkpt lat="45.95009" lon="4.95238">
        <ele>290</ele>
        <time>2018-03-08T11:04:09Z</time>
      </trkpt>
      <trkpt lat="45.95011" lon="4.95243">
        <ele>290</ele>
        <time>2018-03-08T11:04:10Z</time>
      </trkpt>
      <trkpt lat="45.95012" lon="4.95252">
        <ele>289</ele>
        <time>2018-03-08T11:04:11Z</time>
      </trkpt>
      <trkpt lat="45.95013" lon="4.95258">
        <ele>289</ele>
        <time>2018-03-08T11:04:12Z</time>
      </trkpt>
      <trkpt lat="45.95014" lon="4.95265">
        <ele>289</ele>
        <time>2018-03-08T11:04:13Z</time>
      </trkpt>
      <trkpt lat="45.95015" lon="4.95272">
        <ele>289</ele>
        <time>2018-03-08T11:04:14Z</time>
      </trkpt>
      <trkpt lat="45.95015" lon="4.9528">
        <ele>289</ele>
        <time>2018-03-08T11:04:15Z</time>
      </trkpt>
      <trkpt lat="45.95016" lon="4.95286">
        <ele>289</ele>
        <time>2018-03-08T11:04:16Z</time>
      </trkpt>
      <trkpt lat="45.95014" lon="4.95293">
        <ele>289</ele>
        <time>2018-03-08T11:04:17Z</time>
      </trkpt>
      <trkpt lat="45.95015" lon="4.953">
        <ele>289</ele>
        <time>2018-03-08T11:04:18Z</time>
      </trkpt>
      <trkpt lat="45.95015" lon="4.95307">
        <ele>289</ele>
        <time>2018-03-08T11:04:19Z</time>
      </trkpt>
      <trkpt lat="45.95014" lon="4.95314">
        <ele>289</ele>
        <time>2018-03-08T11:04:21Z</time>
      </trkpt>
      <trkpt lat="45.95015" lon="4.95322">
        <ele>289</ele>
        <time>2018-03-08T11:04:22Z</time>
      </trkpt>
      <trkpt lat="45.95017" lon="4.95334">
        <ele>289</ele>
        <time>2018-03-08T11:04:24Z</time>
      </trkpt>
      <trkpt lat="45.95017" lon="4.95341">
        <ele>289</ele>
        <time>2018-03-08T11:04:25Z</time>
      </trkpt>
      <trkpt lat="45.95019" lon="4.95348">
        <ele>289</ele>
        <time>2018-03-08T11:04:26Z</time>
      </trkpt>
      <trkpt lat="45.95019" lon="4.95354">
        <ele>289</ele>
        <time>2018-03-08T11:04:27Z</time>
      </trkpt>
      <trkpt lat="45.95018" lon="4.95361">
        <ele>289</ele>
        <time>2018-03-08T11:04:28Z</time>
      </trkpt>
      <trkpt lat="45.95018" lon="4.95367">
        <ele>288</ele>
        <time>2018-03-08T11:04:29Z</time>
      </trkpt>
      <trkpt lat="45.95018" lon="4.95378">
        <ele>288</ele>
        <time>2018-03-08T11:04:31Z</time>
      </trkpt>
      <trkpt lat="45.95019" lon="4.95385">
        <ele>288</ele>
        <time>2018-03-08T11:04:32Z</time>
      </trkpt>
      <trkpt lat="45.95019" lon="4.95397">
        <ele>288</ele>
        <time>2018-03-08T11:04:34Z</time>
      </trkpt>
      <trkpt lat="45.95019" lon="4.95402">
        <ele>288</ele>
        <time>2018-03-08T11:04:35Z</time>
      </trkpt>
      <trkpt lat="45.95018" lon="4.95414">
        <ele>288</ele>
        <time>2018-03-08T11:04:37Z</time>
      </trkpt>
      <trkpt lat="45.95018" lon="4.95422">
        <ele>288</ele>
        <time>2018-03-08T11:04:38Z</time>
      </trkpt>
      <trkpt lat="45.95017" lon="4.9543">
        <ele>288</ele>
        <time>2018-03-08T11:04:39Z</time>
      </trkpt>
      <trkpt lat="45.95016" lon="4.95438">
        <ele>288</ele>
        <time>2018-03-08T11:04:40Z</time>
      </trkpt>
      <trkpt lat="45.95017" lon="4.95444">
        <ele>288</ele>
        <time>2018-03-08T11:04:41Z</time>
      </trkpt>
      <trkpt lat="45.95017" lon="4.95452">
        <ele>288</ele>
        <time>2018-03-08T11:04:42Z</time>
      </trkpt>
      <trkpt lat="45.95018" lon="4.95461">
        <ele>288</ele>
        <time>2018-03-08T11:04:43Z</time>
      </trkpt>
      <trkpt lat="45.95017" lon="4.95468">
        <ele>288</ele>
        <time>2018-03-08T11:04:44Z</time>
      </trkpt>
      <trkpt lat="45.95016" lon="4.95475">
        <ele>288</ele>
        <time>2018-03-08T11:04:45Z</time>
      </trkpt>
      <trkpt lat="45.95017" lon="4.95482">
        <ele>288</ele>
        <time>2018-03-08T11:04:46Z</time>
      </trkpt>
      <trkpt lat="45.95017" lon="4.95491">
        <ele>288</ele>
        <time>2018-03-08T11:04:47Z</time>
      </trkpt>
      <trkpt lat="45.95017" lon="4.95497">
        <ele>288</ele>
        <time>2018-03-08T11:04:48Z</time>
      </trkpt>
      <trkpt lat="45.95018" lon="4.95506">
        <ele>287</ele>
        <time>2018-03-08T11:04:49Z</time>
      </trkpt>
      <trkpt lat="45.95019" lon="4.95513">
        <ele>287</ele>
        <time>2018-03-08T11:04:50Z</time>
      </trkpt>
      <trkpt lat="45.95019" lon="4.95521">
        <ele>287</ele>
        <time>2018-03-08T11:04:51Z</time>
      </trkpt>
      <trkpt lat="45.95019" lon="4.95529">
        <ele>287</ele>
        <time>2018-03-08T11:04:52Z</time>
      </trkpt>
      <trkpt lat="45.95022" lon="4.95539">
        <ele>287</ele>
        <time>2018-03-08T11:04:53Z</time>
      </trkpt>
      <trkpt lat="45.95023" lon="4.95546">
        <ele>287</ele>
        <time>2018-03-08T11:04:54Z</time>
      </trkpt>
      <trkpt lat="45.95028" lon="4.95558">
        <ele>287</ele>
        <time>2018-03-08T11:04:56Z</time>
      </trkpt>
      <trkpt lat="45.95029" lon="4.95567">
        <ele>287</ele>
        <time>2018-03-08T11:04:57Z</time>
      </trkpt>
      <trkpt lat="45.95032" lon="4.95575">
        <ele>286</ele>
        <time>2018-03-08T11:04:58Z</time>
      </trkpt>
      <trkpt lat="45.95034" lon="4.9558">
        <ele>286</ele>
        <time>2018-03-08T11:04:59Z</time>
      </trkpt>
      <trkpt lat="45.95036" lon="4.95588">
        <ele>286</ele>
        <time>2018-03-08T11:05:00Z</time>
      </trkpt>
      <trkpt lat="45.95039" lon="4.95595">
        <ele>286</ele>
        <time>2018-03-08T11:05:01Z</time>
      </trkpt>
      <trkpt lat="45.95041" lon="4.95605">
        <ele>286</ele>
        <time>2018-03-08T11:05:02Z</time>
      </trkpt>
      <trkpt lat="45.95044" lon="4.95613">
        <ele>286</ele>
        <time>2018-03-08T11:05:03Z</time>
      </trkpt>
      <trkpt lat="45.95046" lon="4.95621">
        <ele>286</ele>
        <time>2018-03-08T11:05:04Z</time>
      </trkpt>
      <trkpt lat="45.95048" lon="4.95629">
        <ele>286</ele>
        <time>2018-03-08T11:05:05Z</time>
      </trkpt>
      <trkpt lat="45.9505" lon="4.95638">
        <ele>286</ele>
        <time>2018-03-08T11:05:06Z</time>
      </trkpt>
      <trkpt lat="45.95054" lon="4.95645">
        <ele>286</ele>
        <time>2018-03-08T11:05:07Z</time>
      </trkpt>
      <trkpt lat="45.95055" lon="4.95655">
        <ele>286</ele>
        <time>2018-03-08T11:05:08Z</time>
      </trkpt>
      <trkpt lat="45.95058" lon="4.95662">
        <ele>286</ele>
        <time>2018-03-08T11:05:09Z</time>
      </trkpt>
      <trkpt lat="45.95061" lon="4.9567">
        <ele>286</ele>
        <time>2018-03-08T11:05:10Z</time>
      </trkpt>
      <trkpt lat="45.95063" lon="4.95675">
        <ele>286</ele>
        <time>2018-03-08T11:05:11Z</time>
      </trkpt>
      <trkpt lat="45.95065" lon="4.95683">
        <ele>286</ele>
        <time>2018-03-08T11:05:12Z</time>
      </trkpt>
      <trkpt lat="45.95069" lon="4.95689">
        <ele>286</ele>
        <time>2018-03-08T11:05:13Z</time>
      </trkpt>
      <trkpt lat="45.95071" lon="4.95698">
        <ele>286</ele>
        <time>2018-03-08T11:05:14Z</time>
      </trkpt>
      <trkpt lat="45.95073" lon="4.95703">
        <ele>286</ele>
        <time>2018-03-08T11:05:15Z</time>
      </trkpt>
      <trkpt lat="45.95076" lon="4.95713">
        <ele>286</ele>
        <time>2018-03-08T11:05:16Z</time>
      </trkpt>
      <trkpt lat="45.95079" lon="4.95721">
        <ele>286</ele>
        <time>2018-03-08T11:05:17Z</time>
      </trkpt>
      <trkpt lat="45.9508" lon="4.9573">
        <ele>286</ele>
        <time>2018-03-08T11:05:18Z</time>
      </trkpt>
      <trkpt lat="45.95083" lon="4.95736">
        <ele>286</ele>
        <time>2018-03-08T11:05:19Z</time>
      </trkpt>
      <trkpt lat="45.95085" lon="4.95745">
        <ele>286</ele>
        <time>2018-03-08T11:05:20Z</time>
      </trkpt>
      <trkpt lat="45.95088" lon="4.95753">
        <ele>286</ele>
        <time>2018-03-08T11:05:21Z</time>
      </trkpt>
      <trkpt lat="45.9509" lon="4.95761">
        <ele>285</ele>
        <time>2018-03-08T11:05:22Z</time>
      </trkpt>
      <trkpt lat="45.95092" lon="4.9577">
        <ele>285</ele>
        <time>2018-03-08T11:05:23Z</time>
      </trkpt>
      <trkpt lat="45.95094" lon="4.95777">
        <ele>285</ele>
        <time>2018-03-08T11:05:24Z</time>
      </trkpt>
      <trkpt lat="45.95096" lon="4.95785">
        <ele>285</ele>
        <time>2018-03-08T11:05:25Z</time>
      </trkpt>
      <trkpt lat="45.95098" lon="4.95793">
        <ele>285</ele>
        <time>2018-03-08T11:05:26Z</time>
      </trkpt>
      <trkpt lat="45.951" lon="4.95801">
        <ele>285</ele>
        <time>2018-03-08T11:05:27Z</time>
      </trkpt>
      <trkpt lat="45.95101" lon="4.95808">
        <ele>285</ele>
        <time>2018-03-08T11:05:28Z</time>
      </trkpt>
      <trkpt lat="45.95103" lon="4.95815">
        <ele>285</ele>
        <time>2018-03-08T11:05:29Z</time>
      </trkpt>
      <trkpt lat="45.95105" lon="4.95824">
        <ele>285</ele>
        <time>2018-03-08T11:05:30Z</time>
      </trkpt>
      <trkpt lat="45.95106" lon="4.9583">
        <ele>285</ele>
        <time>2018-03-08T11:05:31Z</time>
      </trkpt>
      <trkpt lat="45.95107" lon="4.95838">
        <ele>285</ele>
        <time>2018-03-08T11:05:32Z</time>
      </trkpt>
      <trkpt lat="45.95109" lon="4.95845">
        <ele>285</ele>
        <time>2018-03-08T11:05:33Z</time>
      </trkpt>
      <trkpt lat="45.9511" lon="4.95852">
        <ele>285</ele>
        <time>2018-03-08T11:05:34Z</time>
      </trkpt>
      <trkpt lat="45.95112" lon="4.95859">
        <ele>285</ele>
        <time>2018-03-08T11:05:35Z</time>
      </trkpt>
      <trkpt lat="45.95113" lon="4.95868">
        <ele>285</ele>
        <time>2018-03-08T11:05:36Z</time>
      </trkpt>
      <trkpt lat="45.95115" lon="4.95877">
        <ele>285</ele>
        <time>2018-03-08T11:05:37Z</time>
      </trkpt>
      <trkpt lat="45.95117" lon="4.95886">
        <ele>285</ele>
        <time>2018-03-08T11:05:38Z</time>
      </trkpt>
      <trkpt lat="45.9512" lon="4.95893">
        <ele>285</ele>
        <time>2018-03-08T11:05:39Z</time>
      </trkpt>
      <trkpt lat="45.95122" lon="4.95902">
        <ele>285</ele>
        <time>2018-03-08T11:05:40Z</time>
      </trkpt>
      <trkpt lat="45.95123" lon="4.95911">
        <ele>285</ele>
        <time>2018-03-08T11:05:41Z</time>
      </trkpt>
      <trkpt lat="45.95126" lon="4.95918">
        <ele>284</ele>
        <time>2018-03-08T11:05:42Z</time>
      </trkpt>
      <trkpt lat="45.95128" lon="4.95927">
        <ele>284</ele>
        <time>2018-03-08T11:05:43Z</time>
      </trkpt>
      <trkpt lat="45.9513" lon="4.95935">
        <ele>284</ele>
        <time>2018-03-08T11:05:44Z</time>
      </trkpt>
      <trkpt lat="45.95131" lon="4.95943">
        <ele>284</ele>
        <time>2018-03-08T11:05:45Z</time>
      </trkpt>
      <trkpt lat="45.95133" lon="4.95952">
        <ele>284</ele>
        <time>2018-03-08T11:05:46Z</time>
      </trkpt>
      <trkpt lat="45.95134" lon="4.95959">
        <ele>285</ele>
        <time>2018-03-08T11:05:47Z</time>
      </trkpt>
      <trkpt lat="45.95135" lon="4.95966">
        <ele>285</ele>
        <time>2018-03-08T11:05:48Z</time>
      </trkpt>
      <trkpt lat="45.95138" lon="4.95975">
        <ele>285</ele>
        <time>2018-03-08T11:05:49Z</time>
      </trkpt>
      <trkpt lat="45.95141" lon="4.95982">
        <ele>285</ele>
        <time>2018-03-08T11:05:50Z</time>
      </trkpt>
      <trkpt lat="45.95142" lon="4.95989">
        <ele>285</ele>
        <time>2018-03-08T11:05:51Z</time>
      </trkpt>
      <trkpt lat="45.95144" lon="4.95998">
        <ele>285</ele>
        <time>2018-03-08T11:05:52Z</time>
      </trkpt>
      <trkpt lat="45.95147" lon="4.96007">
        <ele>285</ele>
        <time>2018-03-08T11:05:53Z</time>
      </trkpt>
      <trkpt lat="45.9515" lon="4.96019">
        <ele>285</ele>
        <time>2018-03-08T11:05:55Z</time>
      </trkpt>
      <trkpt lat="45.95152" lon="4.96024">
        <ele>285</ele>
        <time>2018-03-08T11:05:56Z</time>
      </trkpt>
      <trkpt lat="45.95154" lon="4.96032">
        <ele>285</ele>
        <time>2018-03-08T11:05:57Z</time>
      </trkpt>
      <trkpt lat="45.95155" lon="4.9604">
        <ele>285</ele>
        <time>2018-03-08T11:05:58Z</time>
      </trkpt>
      <trkpt lat="45.95158" lon="4.96049">
        <ele>285</ele>
        <time>2018-03-08T11:06:00Z</time>
      </trkpt>
      <trkpt lat="45.9516" lon="4.96056">
        <ele>285</ele>
        <time>2018-03-08T11:06:01Z</time>
      </trkpt>
      <trkpt lat="45.95161" lon="4.96067">
        <ele>286</ele>
        <time>2018-03-08T11:06:02Z</time>
      </trkpt>
      <trkpt lat="45.95162" lon="4.96076">
        <ele>286</ele>
        <time>2018-03-08T11:06:03Z</time>
      </trkpt>
      <trkpt lat="45.95163" lon="4.96083">
        <ele>286</ele>
        <time>2018-03-08T11:06:04Z</time>
      </trkpt>
      <trkpt lat="45.95164" lon="4.96091">
        <ele>286</ele>
        <time>2018-03-08T11:06:05Z</time>
      </trkpt>
      <trkpt lat="45.95165" lon="4.96097">
        <ele>286</ele>
        <time>2018-03-08T11:06:06Z</time>
      </trkpt>
      <trkpt lat="45.95167" lon="4.96107">
        <ele>286</ele>
        <time>2018-03-08T11:06:07Z</time>
      </trkpt>
      <trkpt lat="45.95168" lon="4.96116">
        <ele>286</ele>
        <time>2018-03-08T11:06:08Z</time>
      </trkpt>
      <trkpt lat="45.95168" lon="4.96123">
        <ele>286</ele>
        <time>2018-03-08T11:06:09Z</time>
      </trkpt>
      <trkpt lat="45.95168" lon="4.96132">
        <ele>286</ele>
        <time>2018-03-08T11:06:10Z</time>
      </trkpt>
      <trkpt lat="45.95167" lon="4.9614">
        <ele>286</ele>
        <time>2018-03-08T11:06:11Z</time>
      </trkpt>
      <trkpt lat="45.95167" lon="4.96148">
        <ele>286</ele>
        <time>2018-03-08T11:06:12Z</time>
      </trkpt>
      <trkpt lat="45.95167" lon="4.96157">
        <ele>286</ele>
        <time>2018-03-08T11:06:13Z</time>
      </trkpt>
      <trkpt lat="45.95166" lon="4.96164">
        <ele>286</ele>
        <time>2018-03-08T11:06:14Z</time>
      </trkpt>
      <trkpt lat="45.95167" lon="4.96172">
        <ele>286</ele>
        <time>2018-03-08T11:06:15Z</time>
      </trkpt>
      <trkpt lat="45.95167" lon="4.96179">
        <ele>286</ele>
        <time>2018-03-08T11:06:16Z</time>
      </trkpt>
      <trkpt lat="45.95166" lon="4.96186">
        <ele>286</ele>
        <time>2018-03-08T11:06:17Z</time>
      </trkpt>
      <trkpt lat="45.95166" lon="4.96195">
        <ele>286</ele>
        <time>2018-03-08T11:06:18Z</time>
      </trkpt>
      <trkpt lat="45.95166" lon="4.96203">
        <ele>286</ele>
        <time>2018-03-08T11:06:19Z</time>
      </trkpt>
      <trkpt lat="45.95165" lon="4.96215">
        <ele>286</ele>
        <time>2018-03-08T11:06:21Z</time>
      </trkpt>
      <trkpt lat="45.95164" lon="4.96223">
        <ele>286</ele>
        <time>2018-03-08T11:06:22Z</time>
      </trkpt>
      <trkpt lat="45.95164" lon="4.96231">
        <ele>286</ele>
        <time>2018-03-08T11:06:23Z</time>
      </trkpt>
      <trkpt lat="45.95164" lon="4.96239">
        <ele>286</ele>
        <time>2018-03-08T11:06:24Z</time>
      </trkpt>
      <trkpt lat="45.95164" lon="4.96246">
        <ele>286</ele>
        <time>2018-03-08T11:06:25Z</time>
      </trkpt>
      <trkpt lat="45.95162" lon="4.96253">
        <ele>286</ele>
        <time>2018-03-08T11:06:26Z</time>
      </trkpt>
      <trkpt lat="45.95161" lon="4.9626">
        <ele>286</ele>
        <time>2018-03-08T11:06:27Z</time>
      </trkpt>
      <trkpt lat="45.95158" lon="4.96265">
        <ele>286</ele>
        <time>2018-03-08T11:06:28Z</time>
      </trkpt>
      <trkpt lat="45.95156" lon="4.96271">
        <ele>285</ele>
        <time>2018-03-08T11:06:29Z</time>
      </trkpt>
      <trkpt lat="45.95153" lon="4.96277">
        <ele>285</ele>
        <time>2018-03-08T11:06:30Z</time>
      </trkpt>
      <trkpt lat="45.95149" lon="4.96284">
        <ele>285</ele>
        <time>2018-03-08T11:06:31Z</time>
      </trkpt>
      <trkpt lat="45.95146" lon="4.96291">
        <ele>285</ele>
        <time>2018-03-08T11:06:32Z</time>
      </trkpt>
      <trkpt lat="45.95144" lon="4.96297">
        <ele>285</ele>
        <time>2018-03-08T11:06:33Z</time>
      </trkpt>
      <trkpt lat="45.95142" lon="4.96303">
        <ele>285</ele>
        <time>2018-03-08T11:06:34Z</time>
      </trkpt>
      <trkpt lat="45.9514" lon="4.9631">
        <ele>285</ele>
        <time>2018-03-08T11:06:35Z</time>
      </trkpt>
      <trkpt lat="45.95137" lon="4.96316">
        <ele>285</ele>
        <time>2018-03-08T11:06:36Z</time>
      </trkpt>
      <trkpt lat="45.95132" lon="4.96326">
        <ele>285</ele>
        <time>2018-03-08T11:06:38Z</time>
      </trkpt>
      <trkpt lat="45.95131" lon="4.96334">
        <ele>286</ele>
        <time>2018-03-08T11:06:39Z</time>
      </trkpt>
      <trkpt lat="45.95129" lon="4.9634">
        <ele>286</ele>
        <time>2018-03-08T11:06:40Z</time>
      </trkpt>
      <trkpt lat="45.95128" lon="4.96346">
        <ele>286</ele>
        <time>2018-03-08T11:06:41Z</time>
      </trkpt>
      <trkpt lat="45.95126" lon="4.96352">
        <ele>286</ele>
        <time>2018-03-08T11:06:42Z</time>
      </trkpt>
      <trkpt lat="45.95123" lon="4.96359">
        <ele>286</ele>
        <time>2018-03-08T11:06:43Z</time>
      </trkpt>
      <trkpt lat="45.95121" lon="4.96365">
        <ele>286</ele>
        <time>2018-03-08T11:06:44Z</time>
      </trkpt>
      <trkpt lat="45.95118" lon="4.96371">
        <ele>286</ele>
        <time>2018-03-08T11:06:45Z</time>
      </trkpt>
      <trkpt lat="45.95114" lon="4.96376">
        <ele>286</ele>
        <time>2018-03-08T11:06:46Z</time>
      </trkpt>
      <trkpt lat="45.95112" lon="4.96383">
        <ele>286</ele>
        <time>2018-03-08T11:06:47Z</time>
      </trkpt>
      <trkpt lat="45.95108" lon="4.96389">
        <ele>286</ele>
        <time>2018-03-08T11:06:49Z</time>
      </trkpt>
      <trkpt lat="45.95107" lon="4.96395">
        <ele>286</ele>
        <time>2018-03-08T11:06:50Z</time>
      </trkpt>
      <trkpt lat="45.95105" lon="4.96401">
        <ele>286</ele>
        <time>2018-03-08T11:06:51Z</time>
      </trkpt>
      <trkpt lat="45.95102" lon="4.96409">
        <ele>286</ele>
        <time>2018-03-08T11:06:52Z</time>
      </trkpt>
      <trkpt lat="45.951" lon="4.96416">
        <ele>286</ele>
        <time>2018-03-08T11:06:53Z</time>
      </trkpt>
      <trkpt lat="45.95098" lon="4.96422">
        <ele>286</ele>
        <time>2018-03-08T11:06:54Z</time>
      </trkpt>
      <trkpt lat="45.95094" lon="4.96433">
        <ele>286</ele>
        <time>2018-03-08T11:06:56Z</time>
      </trkpt>
      <trkpt lat="45.95092" lon="4.9644">
        <ele>287</ele>
        <time>2018-03-08T11:06:57Z</time>
      </trkpt>
      <trkpt lat="45.9509" lon="4.96448">
        <ele>287</ele>
        <time>2018-03-08T11:07:00Z</time>
      </trkpt>
      <trkpt lat="45.95085" lon="4.96455">
        <ele>287</ele>
        <time>2018-03-08T11:07:01Z</time>
      </trkpt>
      <trkpt lat="45.95083" lon="4.96462">
        <ele>287</ele>
        <time>2018-03-08T11:07:02Z</time>
      </trkpt>
      <trkpt lat="45.95081" lon="4.96469">
        <ele>287</ele>
        <time>2018-03-08T11:07:03Z</time>
      </trkpt>
      <trkpt lat="45.95075" lon="4.96475">
        <ele>287</ele>
        <time>2018-03-08T11:07:04Z</time>
      </trkpt>
      <trkpt lat="45.95073" lon="4.9648">
        <ele>287</ele>
        <time>2018-03-08T11:07:05Z</time>
      </trkpt>
      <trkpt lat="45.9507" lon="4.96491">
        <ele>287</ele>
        <time>2018-03-08T11:07:07Z</time>
      </trkpt>
      <trkpt lat="45.95069" lon="4.96496">
        <ele>287</ele>
        <time>2018-03-08T11:07:08Z</time>
      </trkpt>
      <trkpt lat="45.95067" lon="4.96502">
        <ele>288</ele>
        <time>2018-03-08T11:07:09Z</time>
      </trkpt>
      <trkpt lat="45.95065" lon="4.96507">
        <ele>288</ele>
        <time>2018-03-08T11:07:10Z</time>
      </trkpt>
      <trkpt lat="45.95063" lon="4.96514">
        <ele>287</ele>
        <time>2018-03-08T11:07:11Z</time>
      </trkpt>
      <trkpt lat="45.95062" lon="4.96522">
        <ele>287</ele>
        <time>2018-03-08T11:07:12Z</time>
      </trkpt>
      <trkpt lat="45.9506" lon="4.96528">
        <ele>287</ele>
        <time>2018-03-08T11:07:13Z</time>
      </trkpt>
      <trkpt lat="45.95059" lon="4.96535">
        <ele>287</ele>
        <time>2018-03-08T11:07:14Z</time>
      </trkpt>
      <trkpt lat="45.95057" lon="4.96543">
        <ele>287</ele>
        <time>2018-03-08T11:07:15Z</time>
      </trkpt>
      <trkpt lat="45.95054" lon="4.96549">
        <ele>287</ele>
        <time>2018-03-08T11:07:16Z</time>
      </trkpt>
      <trkpt lat="45.95051" lon="4.9656">
        <ele>287</ele>
        <time>2018-03-08T11:07:18Z</time>
      </trkpt>
      <trkpt lat="45.9505" lon="4.96569">
        <ele>287</ele>
        <time>2018-03-08T11:07:19Z</time>
      </trkpt>
      <trkpt lat="45.95047" lon="4.96575">
        <ele>287</ele>
        <time>2018-03-08T11:07:20Z</time>
      </trkpt>
      <trkpt lat="45.95048" lon="4.96585">
        <ele>288</ele>
        <time>2018-03-08T11:07:21Z</time>
      </trkpt>
      <trkpt lat="45.95046" lon="4.96593">
        <ele>288</ele>
        <time>2018-03-08T11:07:22Z</time>
      </trkpt>
      <trkpt lat="45.95045" lon="4.96599">
        <ele>288</ele>
        <time>2018-03-08T11:07:23Z</time>
      </trkpt>
      <trkpt lat="45.95044" lon="4.96607">
        <ele>288</ele>
        <time>2018-03-08T11:07:24Z</time>
      </trkpt>
      <trkpt lat="45.95042" lon="4.96615">
        <ele>288</ele>
        <time>2018-03-08T11:07:25Z</time>
      </trkpt>
      <trkpt lat="45.95039" lon="4.96623">
        <ele>287</ele>
        <time>2018-03-08T11:07:26Z</time>
      </trkpt>
      <trkpt lat="45.9504" lon="4.96629">
        <ele>288</ele>
        <time>2018-03-08T11:07:27Z</time>
      </trkpt>
      <trkpt lat="45.9504" lon="4.96636">
        <ele>288</ele>
        <time>2018-03-08T11:07:28Z</time>
      </trkpt>
      <trkpt lat="45.95038" lon="4.96646">
        <ele>288</ele>
        <time>2018-03-08T11:07:29Z</time>
      </trkpt>
      <trkpt lat="45.95038" lon="4.96653">
        <ele>288</ele>
        <time>2018-03-08T11:07:30Z</time>
      </trkpt>
      <trkpt lat="45.95037" lon="4.9666">
        <ele>288</ele>
        <time>2018-03-08T11:07:31Z</time>
      </trkpt>
      <trkpt lat="45.95037" lon="4.96669">
        <ele>287</ele>
        <time>2018-03-08T11:07:32Z</time>
      </trkpt>
      <trkpt lat="45.95037" lon="4.96675">
        <ele>287</ele>
        <time>2018-03-08T11:07:33Z</time>
      </trkpt>
      <trkpt lat="45.95039" lon="4.96687">
        <ele>287</ele>
        <time>2018-03-08T11:07:35Z</time>
      </trkpt>
      <trkpt lat="45.95039" lon="4.96694">
        <ele>287</ele>
        <time>2018-03-08T11:07:36Z</time>
      </trkpt>
      <trkpt lat="45.9504" lon="4.96702">
        <ele>287</ele>
        <time>2018-03-08T11:07:37Z</time>
      </trkpt>
      <trkpt lat="45.95039" lon="4.96708">
        <ele>287</ele>
        <time>2018-03-08T11:07:38Z</time>
      </trkpt>
      <trkpt lat="45.95041" lon="4.96714">
        <ele>287</ele>
        <time>2018-03-08T11:07:39Z</time>
      </trkpt>
      <trkpt lat="45.95042" lon="4.96721">
        <ele>287</ele>
        <time>2018-03-08T11:07:40Z</time>
      </trkpt>
      <trkpt lat="45.95042" lon="4.96729">
        <ele>287</ele>
        <time>2018-03-08T11:07:41Z</time>
      </trkpt>
      <trkpt lat="45.95043" lon="4.96735">
        <ele>287</ele>
        <time>2018-03-08T11:07:42Z</time>
      </trkpt>
      <trkpt lat="45.95044" lon="4.96743">
        <ele>287</ele>
        <time>2018-03-08T11:07:43Z</time>
      </trkpt>
      <trkpt lat="45.95044" lon="4.96751">
        <ele>287</ele>
        <time>2018-03-08T11:07:44Z</time>
      </trkpt>
      <trkpt lat="45.95045" lon="4.96758">
        <ele>287</ele>
        <time>2018-03-08T11:07:45Z</time>
      </trkpt>
      <trkpt lat="45.95045" lon="4.96766">
        <ele>287</ele>
        <time>2018-03-08T11:07:46Z</time>
      </trkpt>
      <trkpt lat="45.95045" lon="4.96774">
        <ele>287</ele>
        <time>2018-03-08T11:07:47Z</time>
      </trkpt>
      <trkpt lat="45.95045" lon="4.96782">
        <ele>287</ele>
        <time>2018-03-08T11:07:48Z</time>
      </trkpt>
      <trkpt lat="45.95046" lon="4.96794">
        <ele>286</ele>
        <time>2018-03-08T11:07:50Z</time>
      </trkpt>
      <trkpt lat="45.95047" lon="4.96801">
        <ele>286</ele>
        <time>2018-03-08T11:07:51Z</time>
      </trkpt>
      <trkpt lat="45.95048" lon="4.96807">
        <ele>286</ele>
        <time>2018-03-08T11:07:52Z</time>
      </trkpt>
      <trkpt lat="45.95047" lon="4.96815">
        <ele>286</ele>
        <time>2018-03-08T11:07:53Z</time>
      </trkpt>
      <trkpt lat="45.95047" lon="4.96822">
        <ele>286</ele>
        <time>2018-03-08T11:07:54Z</time>
      </trkpt>
      <trkpt lat="45.95047" lon="4.96828">
        <ele>286</ele>
        <time>2018-03-08T11:07:55Z</time>
      </trkpt>
      <trkpt lat="45.95048" lon="4.96837">
        <ele>286</ele>
        <time>2018-03-08T11:07:56Z</time>
      </trkpt>
      <trkpt lat="45.95048" lon="4.96843">
        <ele>286</ele>
        <time>2018-03-08T11:07:57Z</time>
      </trkpt>
      <trkpt lat="45.95049" lon="4.9685">
        <ele>286</ele>
        <time>2018-03-08T11:07:58Z</time>
      </trkpt>
      <trkpt lat="45.95049" lon="4.96857">
        <ele>286</ele>
        <time>2018-03-08T11:07:59Z</time>
      </trkpt>
      <trkpt lat="45.95049" lon="4.96865">
        <ele>286</ele>
        <time>2018-03-08T11:08:00Z</time>
      </trkpt>
      <trkpt lat="45.9505" lon="4.96873">
        <ele>286</ele>
        <time>2018-03-08T11:08:01Z</time>
      </trkpt>
      <trkpt lat="45.9505" lon="4.96881">
        <ele>286</ele>
        <time>2018-03-08T11:08:02Z</time>
      </trkpt>
      <trkpt lat="45.95051" lon="4.96887">
        <ele>286</ele>
        <time>2018-03-08T11:08:03Z</time>
      </trkpt>
      <trkpt lat="45.95051" lon="4.96895">
        <ele>285</ele>
        <time>2018-03-08T11:08:04Z</time>
      </trkpt>
      <trkpt lat="45.95051" lon="4.96903">
        <ele>285</ele>
        <time>2018-03-08T11:08:05Z</time>
      </trkpt>
      <trkpt lat="45.95051" lon="4.9691">
        <ele>285</ele>
        <time>2018-03-08T11:08:06Z</time>
      </trkpt>
      <trkpt lat="45.95051" lon="4.96918">
        <ele>285</ele>
        <time>2018-03-08T11:08:07Z</time>
      </trkpt>
      <trkpt lat="45.95052" lon="4.96926">
        <ele>285</ele>
        <time>2018-03-08T11:08:08Z</time>
      </trkpt>
      <trkpt lat="45.95052" lon="4.96934">
        <ele>285</ele>
        <time>2018-03-08T11:08:09Z</time>
      </trkpt>
      <trkpt lat="45.95052" lon="4.96942">
        <ele>285</ele>
        <time>2018-03-08T11:08:10Z</time>
      </trkpt>
      <trkpt lat="45.95052" lon="4.9695">
        <ele>285</ele>
        <time>2018-03-08T11:08:11Z</time>
      </trkpt>
      <trkpt lat="45.95052" lon="4.96959">
        <ele>285</ele>
        <time>2018-03-08T11:08:12Z</time>
      </trkpt>
      <trkpt lat="45.95053" lon="4.96967">
        <ele>285</ele>
        <time>2018-03-08T11:08:13Z</time>
      </trkpt>
      <trkpt lat="45.95054" lon="4.96974">
        <ele>285</ele>
        <time>2018-03-08T11:08:14Z</time>
      </trkpt>
      <trkpt lat="45.95054" lon="4.96981">
        <ele>285</ele>
        <time>2018-03-08T11:08:15Z</time>
      </trkpt>
      <trkpt lat="45.95054" lon="4.96988">
        <ele>285</ele>
        <time>2018-03-08T11:08:16Z</time>
      </trkpt>
      <trkpt lat="45.95054" lon="4.96996">
        <ele>285</ele>
        <time>2018-03-08T11:08:17Z</time>
      </trkpt>
      <trkpt lat="45.95055" lon="4.97003">
        <ele>285</ele>
        <time>2018-03-08T11:08:18Z</time>
      </trkpt>
      <trkpt lat="45.95055" lon="4.97009">
        <ele>285</ele>
        <time>2018-03-08T11:08:19Z</time>
      </trkpt>
      <trkpt lat="45.95055" lon="4.97017">
        <ele>285</ele>
        <time>2018-03-08T11:08:20Z</time>
      </trkpt>
      <trkpt lat="45.95055" lon="4.97025">
        <ele>285</ele>
        <time>2018-03-08T11:08:21Z</time>
      </trkpt>
      <trkpt lat="45.95055" lon="4.97031">
        <ele>285</ele>
        <time>2018-03-08T11:08:22Z</time>
      </trkpt>
      <trkpt lat="45.95055" lon="4.97038">
        <ele>285</ele>
        <time>2018-03-08T11:08:23Z</time>
      </trkpt>
      <trkpt lat="45.95055" lon="4.9705">
        <ele>285</ele>
        <time>2018-03-08T11:08:25Z</time>
      </trkpt>
      <trkpt lat="45.95056" lon="4.97059">
        <ele>285</ele>
        <time>2018-03-08T11:08:26Z</time>
      </trkpt>
      <trkpt lat="45.95056" lon="4.97067">
        <ele>285</ele>
        <time>2018-03-08T11:08:27Z</time>
      </trkpt>
      <trkpt lat="45.95057" lon="4.97076">
        <ele>285</ele>
        <time>2018-03-08T11:08:28Z</time>
      </trkpt>
      <trkpt lat="45.95058" lon="4.97084">
        <ele>285</ele>
        <time>2018-03-08T11:08:29Z</time>
      </trkpt>
      <trkpt lat="45.95058" lon="4.9709">
        <ele>285</ele>
        <time>2018-03-08T11:08:30Z</time>
      </trkpt>
      <trkpt lat="45.95058" lon="4.97099">
        <ele>285</ele>
        <time>2018-03-08T11:08:31Z</time>
      </trkpt>
      <trkpt lat="45.95058" lon="4.97106">
        <ele>285</ele>
        <time>2018-03-08T11:08:32Z</time>
      </trkpt>
      <trkpt lat="45.95058" lon="4.97118">
        <ele>285</ele>
        <time>2018-03-08T11:08:34Z</time>
      </trkpt>
      <trkpt lat="45.95059" lon="4.97126">
        <ele>285</ele>
        <time>2018-03-08T11:08:35Z</time>
      </trkpt>
      <trkpt lat="45.9506" lon="4.97134">
        <ele>285</ele>
        <time>2018-03-08T11:08:36Z</time>
      </trkpt>
      <trkpt lat="45.95061" lon="4.97141">
        <ele>285</ele>
        <time>2018-03-08T11:08:37Z</time>
      </trkpt>
      <trkpt lat="45.9506" lon="4.97146">
        <ele>285</ele>
        <time>2018-03-08T11:08:38Z</time>
      </trkpt>
      <trkpt lat="45.95061" lon="4.97154">
        <ele>285</ele>
        <time>2018-03-08T11:08:39Z</time>
      </trkpt>
      <trkpt lat="45.95061" lon="4.97161">
        <ele>285</ele>
        <time>2018-03-08T11:08:40Z</time>
      </trkpt>
      <trkpt lat="45.95062" lon="4.97168">
        <ele>285</ele>
        <time>2018-03-08T11:08:41Z</time>
      </trkpt>
      <trkpt lat="45.95062" lon="4.97176">
        <ele>285</ele>
        <time>2018-03-08T11:08:42Z</time>
      </trkpt>
      <trkpt lat="45.95063" lon="4.97184">
        <ele>285</ele>
        <time>2018-03-08T11:08:43Z</time>
      </trkpt>
      <trkpt lat="45.95063" lon="4.97191">
        <ele>285</ele>
        <time>2018-03-08T11:08:44Z</time>
      </trkpt>
      <trkpt lat="45.95061" lon="4.97197">
        <ele>285</ele>
        <time>2018-03-08T11:08:45Z</time>
      </trkpt>
      <trkpt lat="45.95061" lon="4.97205">
        <ele>285</ele>
        <time>2018-03-08T11:08:46Z</time>
      </trkpt>
      <trkpt lat="45.95061" lon="4.97211">
        <ele>285</ele>
        <time>2018-03-08T11:08:47Z</time>
      </trkpt>
      <trkpt lat="45.95061" lon="4.97218">
        <ele>285</ele>
        <time>2018-03-08T11:08:48Z</time>
      </trkpt>
      <trkpt lat="45.95061" lon="4.97226">
        <ele>285</ele>
        <time>2018-03-08T11:08:49Z</time>
      </trkpt>
      <trkpt lat="45.95061" lon="4.97233">
        <ele>285</ele>
        <time>2018-03-08T11:08:50Z</time>
      </trkpt>
      <trkpt lat="45.95061" lon="4.9724">
        <ele>285</ele>
        <time>2018-03-08T11:08:51Z</time>
      </trkpt>
      <trkpt lat="45.95062" lon="4.97248">
        <ele>285</ele>
        <time>2018-03-08T11:08:52Z</time>
      </trkpt>
      <trkpt lat="45.95063" lon="4.97255">
        <ele>286</ele>
        <time>2018-03-08T11:08:53Z</time>
      </trkpt>
      <trkpt lat="45.95064" lon="4.97262">
        <ele>286</ele>
        <time>2018-03-08T11:08:54Z</time>
      </trkpt>
      <trkpt lat="45.95064" lon="4.9727">
        <ele>285</ele>
        <time>2018-03-08T11:08:55Z</time>
      </trkpt>
      <trkpt lat="45.95063" lon="4.97282">
        <ele>285</ele>
        <time>2018-03-08T11:08:57Z</time>
      </trkpt>
      <trkpt lat="45.95064" lon="4.97289">
        <ele>285</ele>
        <time>2018-03-08T11:08:58Z</time>
      </trkpt>
      <trkpt lat="45.95065" lon="4.97296">
        <ele>285</ele>
        <time>2018-03-08T11:08:59Z</time>
      </trkpt>
      <trkpt lat="45.95065" lon="4.97304">
        <ele>285</ele>
        <time>2018-03-08T11:09:00Z</time>
      </trkpt>
      <trkpt lat="45.95066" lon="4.97311">
        <ele>286</ele>
        <time>2018-03-08T11:09:01Z</time>
      </trkpt>
      <trkpt lat="45.95066" lon="4.97319">
        <ele>286</ele>
        <time>2018-03-08T11:09:02Z</time>
      </trkpt>
      <trkpt lat="45.95066" lon="4.97326">
        <ele>286</ele>
        <time>2018-03-08T11:09:03Z</time>
      </trkpt>
      <trkpt lat="45.95066" lon="4.97334">
        <ele>286</ele>
        <time>2018-03-08T11:09:04Z</time>
      </trkpt>
      <trkpt lat="45.95067" lon="4.97346">
        <ele>286</ele>
        <time>2018-03-08T11:09:06Z</time>
      </trkpt>
      <trkpt lat="45.95068" lon="4.97353">
        <ele>286</ele>
        <time>2018-03-08T11:09:07Z</time>
      </trkpt>
      <trkpt lat="45.95068" lon="4.9736">
        <ele>286</ele>
        <time>2018-03-08T11:09:08Z</time>
      </trkpt>
      <trkpt lat="45.95069" lon="4.97367">
        <ele>286</ele>
        <time>2018-03-08T11:09:09Z</time>
      </trkpt>
      <trkpt lat="45.9507" lon="4.97374">
        <ele>286</ele>
        <time>2018-03-08T11:09:10Z</time>
      </trkpt>
      <trkpt lat="45.9507" lon="4.97382">
        <ele>287</ele>
        <time>2018-03-08T11:09:11Z</time>
      </trkpt>
      <trkpt lat="45.95071" lon="4.97394">
        <ele>287</ele>
        <time>2018-03-08T11:09:13Z</time>
      </trkpt>
      <trkpt lat="45.95071" lon="4.97402">
        <ele>287</ele>
        <time>2018-03-08T11:09:14Z</time>
      </trkpt>
      <trkpt lat="45.95073" lon="4.97414">
        <ele>287</ele>
        <time>2018-03-08T11:09:16Z</time>
      </trkpt>
      <trkpt lat="45.95073" lon="4.9742">
        <ele>287</ele>
        <time>2018-03-08T11:09:17Z</time>
      </trkpt>
      <trkpt lat="45.95074" lon="4.97426">
        <ele>287</ele>
        <time>2018-03-08T11:09:18Z</time>
      </trkpt>
      <trkpt lat="45.95074" lon="4.97434">
        <ele>287</ele>
        <time>2018-03-08T11:09:19Z</time>
      </trkpt>
      <trkpt lat="45.95074" lon="4.9744">
        <ele>287</ele>
        <time>2018-03-08T11:09:20Z</time>
      </trkpt>
      <trkpt lat="45.95075" lon="4.97447">
        <ele>287</ele>
        <time>2018-03-08T11:09:21Z</time>
      </trkpt>
      <trkpt lat="45.95076" lon="4.97453">
        <ele>287</ele>
        <time>2018-03-08T11:09:22Z</time>
      </trkpt>
      <trkpt lat="45.95077" lon="4.97461">
        <ele>287</ele>
        <time>2018-03-08T11:09:23Z</time>
      </trkpt>
      <trkpt lat="45.95077" lon="4.97467">
        <ele>287</ele>
        <time>2018-03-08T11:09:24Z</time>
      </trkpt>
      <trkpt lat="45.95078" lon="4.97474">
        <ele>287</ele>
        <time>2018-03-08T11:09:25Z</time>
      </trkpt>
      <trkpt lat="45.95079" lon="4.97481">
        <ele>287</ele>
        <time>2018-03-08T11:09:26Z</time>
      </trkpt>
      <trkpt lat="45.95078" lon="4.97488">
        <ele>286</ele>
        <time>2018-03-08T11:09:27Z</time>
      </trkpt>
      <trkpt lat="45.95078" lon="4.97496">
        <ele>286</ele>
        <time>2018-03-08T11:09:28Z</time>
      </trkpt>
      <trkpt lat="45.95078" lon="4.97504">
        <ele>286</ele>
        <time>2018-03-08T11:09:29Z</time>
      </trkpt>
      <trkpt lat="45.95078" lon="4.97511">
        <ele>286</ele>
        <time>2018-03-08T11:09:30Z</time>
      </trkpt>
      <trkpt lat="45.95077" lon="4.97518">
        <ele>286</ele>
        <time>2018-03-08T11:09:31Z</time>
      </trkpt>
      <trkpt lat="45.95076" lon="4.97531">
        <ele>286</ele>
        <time>2018-03-08T11:09:33Z</time>
      </trkpt>
      <trkpt lat="45.95076" lon="4.97538">
        <ele>286</ele>
        <time>2018-03-08T11:09:34Z</time>
      </trkpt>
      <trkpt lat="45.95077" lon="4.97545">
        <ele>285</ele>
        <time>2018-03-08T11:09:35Z</time>
      </trkpt>
      <trkpt lat="45.95076" lon="4.97553">
        <ele>285</ele>
        <time>2018-03-08T11:09:36Z</time>
      </trkpt>
      <trkpt lat="45.95076" lon="4.97561">
        <ele>285</ele>
        <time>2018-03-08T11:09:37Z</time>
      </trkpt>
      <trkpt lat="45.95075" lon="4.97568">
        <ele>285</ele>
        <time>2018-03-08T11:09:38Z</time>
      </trkpt>
      <trkpt lat="45.95075" lon="4.97576">
        <ele>285</ele>
        <time>2018-03-08T11:09:39Z</time>
      </trkpt>
      <trkpt lat="45.95075" lon="4.97583">
        <ele>285</ele>
        <time>2018-03-08T11:09:40Z</time>
      </trkpt>
      <trkpt lat="45.95075" lon="4.97589">
        <ele>285</ele>
        <time>2018-03-08T11:09:41Z</time>
      </trkpt>
      <trkpt lat="45.95075" lon="4.97597">
        <ele>285</ele>
        <time>2018-03-08T11:09:42Z</time>
      </trkpt>
      <trkpt lat="45.95075" lon="4.97604">
        <ele>285</ele>
        <time>2018-03-08T11:09:43Z</time>
      </trkpt>
      <trkpt lat="45.95073" lon="4.9761">
        <ele>285</ele>
        <time>2018-03-08T11:09:44Z</time>
      </trkpt>
      <trkpt lat="45.95072" lon="4.97622">
        <ele>285</ele>
        <time>2018-03-08T11:09:46Z</time>
      </trkpt>
      <trkpt lat="45.95072" lon="4.97629">
        <ele>285</ele>
        <time>2018-03-08T11:09:47Z</time>
      </trkpt>
      <trkpt lat="45.95071" lon="4.97636">
        <ele>285</ele>
        <time>2018-03-08T11:09:48Z</time>
      </trkpt>
      <trkpt lat="45.95073" lon="4.97642">
        <ele>286</ele>
        <time>2018-03-08T11:09:49Z</time>
      </trkpt>
      <trkpt lat="45.95073" lon="4.97649">
        <ele>286</ele>
        <time>2018-03-08T11:09:50Z</time>
      </trkpt>
      <trkpt lat="45.95073" lon="4.97656">
        <ele>286</ele>
        <time>2018-03-08T11:09:51Z</time>
      </trkpt>
      <trkpt lat="45.95072" lon="4.97669">
        <ele>286</ele>
        <time>2018-03-08T11:09:53Z</time>
      </trkpt>
      <trkpt lat="45.95071" lon="4.97675">
        <ele>286</ele>
        <time>2018-03-08T11:09:54Z</time>
      </trkpt>
      <trkpt lat="45.95071" lon="4.97684">
        <ele>286</ele>
        <time>2018-03-08T11:09:55Z</time>
      </trkpt>
      <trkpt lat="45.95071" lon="4.97691">
        <ele>286</ele>
        <time>2018-03-08T11:09:56Z</time>
      </trkpt>
      <trkpt lat="45.9507" lon="4.97703">
        <ele>286</ele>
        <time>2018-03-08T11:09:58Z</time>
      </trkpt>
      <trkpt lat="45.95069" lon="4.9771">
        <ele>287</ele>
        <time>2018-03-08T11:09:59Z</time>
      </trkpt>
      <trkpt lat="45.95068" lon="4.97722">
        <ele>287</ele>
        <time>2018-03-08T11:10:01Z</time>
      </trkpt>
      <trkpt lat="45.95068" lon="4.97729">
        <ele>287</ele>
        <time>2018-03-08T11:10:02Z</time>
      </trkpt>
      <trkpt lat="45.95068" lon="4.97741">
        <ele>287</ele>
        <time>2018-03-08T11:10:04Z</time>
      </trkpt>
      <trkpt lat="45.95068" lon="4.97747">
        <ele>287</ele>
        <time>2018-03-08T11:10:05Z</time>
      </trkpt>
      <trkpt lat="45.95067" lon="4.97754">
        <ele>287</ele>
        <time>2018-03-08T11:10:06Z</time>
      </trkpt>
      <trkpt lat="45.95066" lon="4.9776">
        <ele>287</ele>
        <time>2018-03-08T11:10:07Z</time>
      </trkpt>
      <trkpt lat="45.95066" lon="4.97767">
        <ele>287</ele>
        <time>2018-03-08T11:10:08Z</time>
      </trkpt>
      <trkpt lat="45.95066" lon="4.97776">
        <ele>287</ele>
        <time>2018-03-08T11:10:09Z</time>
      </trkpt>
      <trkpt lat="45.95066" lon="4.97783">
        <ele>287</ele>
        <time>2018-03-08T11:10:10Z</time>
      </trkpt>
      <trkpt lat="45.95067" lon="4.9779">
        <ele>287</ele>
        <time>2018-03-08T11:10:11Z</time>
      </trkpt>
      <trkpt lat="45.95067" lon="4.97797">
        <ele>287</ele>
        <time>2018-03-08T11:10:12Z</time>
      </trkpt>
      <trkpt lat="45.95067" lon="4.97804">
        <ele>287</ele>
        <time>2018-03-08T11:10:13Z</time>
      </trkpt>
      <trkpt lat="45.95067" lon="4.97817">
        <ele>287</ele>
        <time>2018-03-08T11:10:15Z</time>
      </trkpt>
      <trkpt lat="45.95067" lon="4.97822">
        <ele>287</ele>
        <time>2018-03-08T11:10:16Z</time>
      </trkpt>
      <trkpt lat="45.95068" lon="4.97832">
        <ele>287</ele>
        <time>2018-03-08T11:10:18Z</time>
      </trkpt>
      <trkpt lat="45.95069" lon="4.97837">
        <ele>287</ele>
        <time>2018-03-08T11:10:19Z</time>
      </trkpt>
      <trkpt lat="45.95072" lon="4.97844">
        <ele>287</ele>
        <time>2018-03-08T11:10:21Z</time>
      </trkpt>
      <trkpt lat="45.95074" lon="4.97849">
        <ele>287</ele>
        <time>2018-03-08T11:10:22Z</time>
      </trkpt>
      <trkpt lat="45.95076" lon="4.97861">
        <ele>287</ele>
        <time>2018-03-08T11:10:24Z</time>
      </trkpt>
      <trkpt lat="45.95078" lon="4.97866">
        <ele>287</ele>
        <time>2018-03-08T11:10:25Z</time>
      </trkpt>
      <trkpt lat="45.95081" lon="4.97878">
        <ele>287</ele>
        <time>2018-03-08T11:10:27Z</time>
      </trkpt>
      <trkpt lat="45.95082" lon="4.97884">
        <ele>287</ele>
        <time>2018-03-08T11:10:28Z</time>
      </trkpt>
      <trkpt lat="45.95085" lon="4.97895">
        <ele>287</ele>
        <time>2018-03-08T11:10:30Z</time>
      </trkpt>
      <trkpt lat="45.95088" lon="4.979">
        <ele>287</ele>
        <time>2018-03-08T11:10:31Z</time>
      </trkpt>
      <trkpt lat="45.9509" lon="4.97906">
        <ele>287</ele>
        <time>2018-03-08T11:10:32Z</time>
      </trkpt>
      <trkpt lat="45.95091" lon="4.97913">
        <ele>287</ele>
        <time>2018-03-08T11:10:33Z</time>
      </trkpt>
      <trkpt lat="45.95093" lon="4.9792">
        <ele>288</ele>
        <time>2018-03-08T11:10:34Z</time>
      </trkpt>
      <trkpt lat="45.95095" lon="4.97927">
        <ele>288</ele>
        <time>2018-03-08T11:10:35Z</time>
      </trkpt>
      <trkpt lat="45.95096" lon="4.97934">
        <ele>287</ele>
        <time>2018-03-08T11:10:36Z</time>
      </trkpt>
      <trkpt lat="45.95096" lon="4.97941">
        <ele>287</ele>
        <time>2018-03-08T11:10:37Z</time>
      </trkpt>
      <trkpt lat="45.95096" lon="4.97948">
        <ele>287</ele>
        <time>2018-03-08T11:10:38Z</time>
      </trkpt>
      <trkpt lat="45.95097" lon="4.97956">
        <ele>287</ele>
        <time>2018-03-08T11:10:39Z</time>
      </trkpt>
      <trkpt lat="45.95096" lon="4.97963">
        <ele>288</ele>
        <time>2018-03-08T11:10:40Z</time>
      </trkpt>
      <trkpt lat="45.95096" lon="4.9797">
        <ele>288</ele>
        <time>2018-03-08T11:10:41Z</time>
      </trkpt>
      <trkpt lat="45.95098" lon="4.97982">
        <ele>288</ele>
        <time>2018-03-08T11:10:43Z</time>
      </trkpt>
      <trkpt lat="45.95098" lon="4.9799">
        <ele>288</ele>
        <time>2018-03-08T11:10:44Z</time>
      </trkpt>
      <trkpt lat="45.95099" lon="4.97997">
        <ele>288</ele>
        <time>2018-03-08T11:10:45Z</time>
      </trkpt>
      <trkpt lat="45.951" lon="4.98005">
        <ele>288</ele>
        <time>2018-03-08T11:10:46Z</time>
      </trkpt>
      <trkpt lat="45.951" lon="4.98013">
        <ele>288</ele>
        <time>2018-03-08T11:10:47Z</time>
      </trkpt>
      <trkpt lat="45.951" lon="4.9802">
        <ele>288</ele>
        <time>2018-03-08T11:10:48Z</time>
      </trkpt>
      <trkpt lat="45.95101" lon="4.98026">
        <ele>288</ele>
        <time>2018-03-08T11:10:49Z</time>
      </trkpt>
      <trkpt lat="45.95101" lon="4.98032">
        <ele>287</ele>
        <time>2018-03-08T11:10:50Z</time>
      </trkpt>
      <trkpt lat="45.951" lon="4.9804">
        <ele>287</ele>
        <time>2018-03-08T11:10:51Z</time>
      </trkpt>
      <trkpt lat="45.951" lon="4.98047">
        <ele>287</ele>
        <time>2018-03-08T11:10:52Z</time>
      </trkpt>
      <trkpt lat="45.951" lon="4.98054">
        <ele>287</ele>
        <time>2018-03-08T11:10:53Z</time>
      </trkpt>
      <trkpt lat="45.951" lon="4.98061">
        <ele>287</ele>
        <time>2018-03-08T11:10:54Z</time>
      </trkpt>
      <trkpt lat="45.951" lon="4.98069">
        <ele>287</ele>
        <time>2018-03-08T11:10:55Z</time>
      </trkpt>
      <trkpt lat="45.951" lon="4.98075">
        <ele>287</ele>
        <time>2018-03-08T11:10:56Z</time>
      </trkpt>
      <trkpt lat="45.95098" lon="4.98087">
        <ele>287</ele>
        <time>2018-03-08T11:10:58Z</time>
      </trkpt>
      <trkpt lat="45.95098" lon="4.98094">
        <ele>287</ele>
        <time>2018-03-08T11:10:59Z</time>
      </trkpt>
      <trkpt lat="45.95098" lon="4.98101">
        <ele>287</ele>
        <time>2018-03-08T11:11:00Z</time>
      </trkpt>
      <trkpt lat="45.95096" lon="4.98107">
        <ele>287</ele>
        <time>2018-03-08T11:11:01Z</time>
      </trkpt>
      <trkpt lat="45.95095" lon="4.98114">
        <ele>287</ele>
        <time>2018-03-08T11:11:02Z</time>
      </trkpt>
      <trkpt lat="45.95095" lon="4.98121">
        <ele>287</ele>
        <time>2018-03-08T11:11:03Z</time>
      </trkpt>
      <trkpt lat="45.95094" lon="4.98133">
        <ele>287</ele>
        <time>2018-03-08T11:11:05Z</time>
      </trkpt>
      <trkpt lat="45.95093" lon="4.98139">
        <ele>287</ele>
        <time>2018-03-08T11:11:06Z</time>
      </trkpt>
      <trkpt lat="45.95091" lon="4.98151">
        <ele>287</ele>
        <time>2018-03-08T11:11:08Z</time>
      </trkpt>
      <trkpt lat="45.9509" lon="4.98157">
        <ele>287</ele>
        <time>2018-03-08T11:11:09Z</time>
      </trkpt>
      <trkpt lat="45.95086" lon="4.98167">
        <ele>288</ele>
        <time>2018-03-08T11:11:11Z</time>
      </trkpt>
      <trkpt lat="45.95084" lon="4.98173">
        <ele>288</ele>
        <time>2018-03-08T11:11:12Z</time>
      </trkpt>
      <trkpt lat="45.95083" lon="4.9818">
        <ele>288</ele>
        <time>2018-03-08T11:11:13Z</time>
      </trkpt>
      <trkpt lat="45.95082" lon="4.98185">
        <ele>288</ele>
        <time>2018-03-08T11:11:14Z</time>
      </trkpt>
      <trkpt lat="45.9508" lon="4.98194">
        <ele>288</ele>
        <time>2018-03-08T11:11:15Z</time>
      </trkpt>
      <trkpt lat="45.95078" lon="4.98198">
        <ele>288</ele>
        <time>2018-03-08T11:11:16Z</time>
      </trkpt>
      <trkpt lat="45.95075" lon="4.9821">
        <ele>287</ele>
        <time>2018-03-08T11:11:18Z</time>
      </trkpt>
      <trkpt lat="45.95073" lon="4.98216">
        <ele>287</ele>
        <time>2018-03-08T11:11:19Z</time>
      </trkpt>
      <trkpt lat="45.95073" lon="4.98222">
        <ele>287</ele>
        <time>2018-03-08T11:11:20Z</time>
      </trkpt>
      <trkpt lat="45.95071" lon="4.98229">
        <ele>287</ele>
        <time>2018-03-08T11:11:21Z</time>
      </trkpt>
      <trkpt lat="45.95068" lon="4.9824">
        <ele>287</ele>
        <time>2018-03-08T11:11:23Z</time>
      </trkpt>
      <trkpt lat="45.95066" lon="4.98246">
        <ele>287</ele>
        <time>2018-03-08T11:11:24Z</time>
      </trkpt>
      <trkpt lat="45.95063" lon="4.98252">
        <ele>287</ele>
        <time>2018-03-08T11:11:25Z</time>
      </trkpt>
      <trkpt lat="45.95061" lon="4.98258">
        <ele>287</ele>
        <time>2018-03-08T11:11:26Z</time>
      </trkpt>
      <trkpt lat="45.95059" lon="4.98263">
        <ele>287</ele>
        <time>2018-03-08T11:11:27Z</time>
      </trkpt>
      <trkpt lat="45.95056" lon="4.9827">
        <ele>287</ele>
        <time>2018-03-08T11:11:28Z</time>
      </trkpt>
      <trkpt lat="45.95052" lon="4.9828">
        <ele>287</ele>
        <time>2018-03-08T11:11:30Z</time>
      </trkpt>
      <trkpt lat="45.9505" lon="4.98287">
        <ele>287</ele>
        <time>2018-03-08T11:11:31Z</time>
      </trkpt>
      <trkpt lat="45.95047" lon="4.98299">
        <ele>287</ele>
        <time>2018-03-08T11:11:33Z</time>
      </trkpt>
      <trkpt lat="45.95044" lon="4.98305">
        <ele>287</ele>
        <time>2018-03-08T11:11:34Z</time>
      </trkpt>
      <trkpt lat="45.95041" lon="4.98309">
        <ele>287</ele>
        <time>2018-03-08T11:11:35Z</time>
      </trkpt>
      <trkpt lat="45.95038" lon="4.98314">
        <ele>287</ele>
        <time>2018-03-08T11:11:36Z</time>
      </trkpt>
      <trkpt lat="45.95035" lon="4.98319">
        <ele>287</ele>
        <time>2018-03-08T11:11:37Z</time>
      </trkpt>
      <trkpt lat="45.95032" lon="4.98324">
        <ele>287</ele>
        <time>2018-03-08T11:11:38Z</time>
      </trkpt>
      <trkpt lat="45.95028" lon="4.98329">
        <ele>287</ele>
        <time>2018-03-08T11:11:39Z</time>
      </trkpt>
      <trkpt lat="45.95026" lon="4.98335">
        <ele>287</ele>
        <time>2018-03-08T11:11:40Z</time>
      </trkpt>
      <trkpt lat="45.95023" lon="4.98341">
        <ele>287</ele>
        <time>2018-03-08T11:11:41Z</time>
      </trkpt>
      <trkpt lat="45.95021" lon="4.98346">
        <ele>287</ele>
        <time>2018-03-08T11:11:42Z</time>
      </trkpt>
      <trkpt lat="45.95016" lon="4.98357">
        <ele>287</ele>
        <time>2018-03-08T11:11:44Z</time>
      </trkpt>
      <trkpt lat="45.95014" lon="4.98362">
        <ele>287</ele>
        <time>2018-03-08T11:11:45Z</time>
      </trkpt>
      <trkpt lat="45.9501" lon="4.98367">
        <ele>287</ele>
        <time>2018-03-08T11:11:46Z</time>
      </trkpt>
      <trkpt lat="45.95007" lon="4.98372">
        <ele>287</ele>
        <time>2018-03-08T11:11:47Z</time>
      </trkpt>
      <trkpt lat="45.95005" lon="4.98377">
        <ele>287</ele>
        <time>2018-03-08T11:11:48Z</time>
      </trkpt>
      <trkpt lat="45.95002" lon="4.98383">
        <ele>287</ele>
        <time>2018-03-08T11:11:49Z</time>
      </trkpt>
      <trkpt lat="45.94997" lon="4.98392">
        <ele>288</ele>
        <time>2018-03-08T11:11:51Z</time>
      </trkpt>
      <trkpt lat="45.94994" lon="4.98397">
        <ele>288</ele>
        <time>2018-03-08T11:11:52Z</time>
      </trkpt>
      <trkpt lat="45.94989" lon="4.98407">
        <ele>288</ele>
        <time>2018-03-08T11:11:54Z</time>
      </trkpt>
      <trkpt lat="45.94987" lon="4.98411">
        <ele>288</ele>
        <time>2018-03-08T11:11:55Z</time>
      </trkpt>
      <trkpt lat="45.9498" lon="4.98417">
        <ele>288</ele>
        <time>2018-03-08T11:11:57Z</time>
      </trkpt>
      <trkpt lat="45.94977" lon="4.98422">
        <ele>288</ele>
        <time>2018-03-08T11:11:58Z</time>
      </trkpt>
      <trkpt lat="45.94972" lon="4.9843">
        <ele>288</ele>
        <time>2018-03-08T11:12:00Z</time>
      </trkpt>
      <trkpt lat="45.9497" lon="4.98434">
        <ele>288</ele>
        <time>2018-03-08T11:12:01Z</time>
      </trkpt>
      <trkpt lat="45.94965" lon="4.98444">
        <ele>288</ele>
        <time>2018-03-08T11:12:03Z</time>
      </trkpt>
      <trkpt lat="45.94963" lon="4.98449">
        <ele>288</ele>
        <time>2018-03-08T11:12:04Z</time>
      </trkpt>
      <trkpt lat="45.94961" lon="4.98455">
        <ele>288</ele>
        <time>2018-03-08T11:12:05Z</time>
      </trkpt>
      <trkpt lat="45.94959" lon="4.98461">
        <ele>289</ele>
        <time>2018-03-08T11:12:06Z</time>
      </trkpt>
      <trkpt lat="45.94954" lon="4.98471">
        <ele>289</ele>
        <time>2018-03-08T11:12:08Z</time>
      </trkpt>
      <trkpt lat="45.94952" lon="4.98476">
        <ele>289</ele>
        <time>2018-03-08T11:12:09Z</time>
      </trkpt>
      <trkpt lat="45.94948" lon="4.98485">
        <ele>289</ele>
        <time>2018-03-08T11:12:11Z</time>
      </trkpt>
      <trkpt lat="45.94946" lon="4.9849">
        <ele>289</ele>
        <time>2018-03-08T11:12:12Z</time>
      </trkpt>
      <trkpt lat="45.94942" lon="4.98499">
        <ele>289</ele>
        <time>2018-03-08T11:12:14Z</time>
      </trkpt>
      <trkpt lat="45.94939" lon="4.98503">
        <ele>290</ele>
        <time>2018-03-08T11:12:15Z</time>
      </trkpt>
      <trkpt lat="45.94935" lon="4.98513">
        <ele>290</ele>
        <time>2018-03-08T11:12:17Z</time>
      </trkpt>
      <trkpt lat="45.94933" lon="4.98518">
        <ele>290</ele>
        <time>2018-03-08T11:12:18Z</time>
      </trkpt>
      <trkpt lat="45.94928" lon="4.98527">
        <ele>290</ele>
        <time>2018-03-08T11:12:20Z</time>
      </trkpt>
      <trkpt lat="45.94926" lon="4.98532">
        <ele>290</ele>
        <time>2018-03-08T11:12:21Z</time>
      </trkpt>
      <trkpt lat="45.94921" lon="4.9854">
        <ele>290</ele>
        <time>2018-03-08T11:12:23Z</time>
      </trkpt>
      <trkpt lat="45.94918" lon="4.98544">
        <ele>290</ele>
        <time>2018-03-08T11:12:24Z</time>
      </trkpt>
      <trkpt lat="45.94913" lon="4.98553">
        <ele>292</ele>
        <time>2018-03-08T11:12:26Z</time>
      </trkpt>
      <trkpt lat="45.9491" lon="4.98558">
        <ele>292</ele>
        <time>2018-03-08T11:12:27Z</time>
      </trkpt>
      <trkpt lat="45.94906" lon="4.98567">
        <ele>292</ele>
        <time>2018-03-08T11:12:29Z</time>
      </trkpt>
      <trkpt lat="45.94905" lon="4.98569">
        <ele>292</ele>
        <time>2018-03-08T11:12:30Z</time>
      </trkpt>
      <trkpt lat="45.949" lon="4.98579">
        <ele>292</ele>
        <time>2018-03-08T11:12:32Z</time>
      </trkpt>
      <trkpt lat="45.94898" lon="4.98582">
        <ele>292</ele>
        <time>2018-03-08T11:12:33Z</time>
      </trkpt>
      <trkpt lat="45.94893" lon="4.98593">
        <ele>292</ele>
        <time>2018-03-08T11:12:37Z</time>
      </trkpt>
      <trkpt lat="45.94892" lon="4.98596">
        <ele>292</ele>
        <time>2018-03-08T11:12:38Z</time>
      </trkpt>
      <trkpt lat="45.94887" lon="4.98606">
        <ele>293</ele>
        <time>2018-03-08T11:12:42Z</time>
      </trkpt>
      <trkpt lat="45.94886" lon="4.98607">
        <ele>293</ele>
        <time>2018-03-08T11:12:43Z</time>
      </trkpt>
      <trkpt lat="45.94877" lon="4.98608">
        <ele>293</ele>
        <time>2018-03-08T11:12:52Z</time>
      </trkpt>
      <trkpt lat="45.94876" lon="4.98609">
        <ele>293</ele>
        <time>2018-03-08T11:12:53Z</time>
      </trkpt>
      <trkpt lat="45.9487" lon="4.98614">
        <ele>293</ele>
        <time>2018-03-08T11:12:56Z</time>
      </trkpt>
      <trkpt lat="45.94868" lon="4.98616">
        <ele>293</ele>
        <time>2018-03-08T11:12:57Z</time>
      </trkpt>
      <trkpt lat="45.94862" lon="4.98622">
        <ele>293</ele>
        <time>2018-03-08T11:13:00Z</time>
      </trkpt>
      <trkpt lat="45.9486" lon="4.98624">
        <ele>293</ele>
        <time>2018-03-08T11:13:01Z</time>
      </trkpt>
      <trkpt lat="45.94852" lon="4.98629">
        <ele>293</ele>
        <time>2018-03-08T11:13:05Z</time>
      </trkpt>
      <trkpt lat="45.94851" lon="4.98629">
        <ele>293</ele>
        <time>2018-03-08T11:13:06Z</time>
      </trkpt>
      <trkpt lat="45.94844" lon="4.98632">
        <ele>293</ele>
        <time>2018-03-08T11:13:09Z</time>
      </trkpt>
      <trkpt lat="45.94841" lon="4.98633">
        <ele>293</ele>
        <time>2018-03-08T11:13:10Z</time>
      </trkpt>
      <trkpt lat="45.94837" lon="4.98637">
        <ele>293</ele>
        <time>2018-03-08T11:13:12Z</time>
      </trkpt>
      <trkpt lat="45.94833" lon="4.98647">
        <ele>294</ele>
        <time>2018-03-08T11:13:13Z</time>
      </trkpt>
      <trkpt lat="45.94832" lon="4.98655">
        <ele>294</ele>
        <time>2018-03-08T11:13:15Z</time>
      </trkpt>
      <trkpt lat="45.94832" lon="4.98663">
        <ele>294</ele>
        <time>2018-03-08T11:13:16Z</time>
      </trkpt>
      <trkpt lat="45.94832" lon="4.98675">
        <ele>294</ele>
        <time>2018-03-08T11:13:18Z</time>
      </trkpt>
      <trkpt lat="45.94832" lon="4.98681">
        <ele>294</ele>
        <time>2018-03-08T11:13:19Z</time>
      </trkpt>
      <trkpt lat="45.94832" lon="4.98694">
        <ele>294</ele>
        <time>2018-03-08T11:13:21Z</time>
      </trkpt>
      <trkpt lat="45.9483" lon="4.98702">
        <ele>294</ele>
        <time>2018-03-08T11:13:22Z</time>
      </trkpt>
      <trkpt lat="45.94827" lon="4.98707">
        <ele>294</ele>
        <time>2018-03-08T11:13:23Z</time>
      </trkpt>
      <trkpt lat="45.94824" lon="4.98713">
        <ele>294</ele>
        <time>2018-03-08T11:13:24Z</time>
      </trkpt>
      <trkpt lat="45.94822" lon="4.9872">
        <ele>294</ele>
        <time>2018-03-08T11:13:25Z</time>
      </trkpt>
      <trkpt lat="45.94819" lon="4.98727">
        <ele>294</ele>
        <time>2018-03-08T11:13:26Z</time>
      </trkpt>
      <trkpt lat="45.94817" lon="4.98739">
        <ele>294</ele>
        <time>2018-03-08T11:13:28Z</time>
      </trkpt>
      <trkpt lat="45.94818" lon="4.98747">
        <ele>294</ele>
        <time>2018-03-08T11:13:29Z</time>
      </trkpt>
      <trkpt lat="45.94817" lon="4.98754">
        <ele>294</ele>
        <time>2018-03-08T11:13:30Z</time>
      </trkpt>
      <trkpt lat="45.94817" lon="4.98761">
        <ele>294</ele>
        <time>2018-03-08T11:13:31Z</time>
      </trkpt>
      <trkpt lat="45.94816" lon="4.98767">
        <ele>294</ele>
        <time>2018-03-08T11:13:32Z</time>
      </trkpt>
      <trkpt lat="45.94816" lon="4.98774">
        <ele>294</ele>
        <time>2018-03-08T11:13:33Z</time>
      </trkpt>
      <trkpt lat="45.94815" lon="4.98782">
        <ele>294</ele>
        <time>2018-03-08T11:13:34Z</time>
      </trkpt>
      <trkpt lat="45.94814" lon="4.98788">
        <ele>294</ele>
        <time>2018-03-08T11:13:35Z</time>
      </trkpt>
      <trkpt lat="45.94812" lon="4.98795">
        <ele>294</ele>
        <time>2018-03-08T11:13:36Z</time>
      </trkpt>
      <trkpt lat="45.9481" lon="4.98801">
        <ele>294</ele>
        <time>2018-03-08T11:13:37Z</time>
      </trkpt>
      <trkpt lat="45.94808" lon="4.98812">
        <ele>294</ele>
        <time>2018-03-08T11:13:39Z</time>
      </trkpt>
      <trkpt lat="45.94807" lon="4.98819">
        <ele>294</ele>
        <time>2018-03-08T11:13:40Z</time>
      </trkpt>
      <trkpt lat="45.94805" lon="4.98832">
        <ele>294</ele>
        <time>2018-03-08T11:13:42Z</time>
      </trkpt>
      <trkpt lat="45.94805" lon="4.98838">
        <ele>293</ele>
        <time>2018-03-08T11:13:43Z</time>
      </trkpt>
      <trkpt lat="45.94805" lon="4.9885">
        <ele>293</ele>
        <time>2018-03-08T11:13:45Z</time>
      </trkpt>
      <trkpt lat="45.94808" lon="4.98863">
        <ele>293</ele>
        <time>2018-03-08T11:13:46Z</time>
      </trkpt>
      <trkpt lat="45.94807" lon="4.98874">
        <ele>293</ele>
        <time>2018-03-08T11:13:48Z</time>
      </trkpt>
      <trkpt lat="45.94806" lon="4.9888">
        <ele>293</ele>
        <time>2018-03-08T11:13:49Z</time>
      </trkpt>
      <trkpt lat="45.94805" lon="4.98886">
        <ele>293</ele>
        <time>2018-03-08T11:13:50Z</time>
      </trkpt>
      <trkpt lat="45.94805" lon="4.98893">
        <ele>293</ele>
        <time>2018-03-08T11:13:51Z</time>
      </trkpt>
      <trkpt lat="45.94804" lon="4.98906">
        <ele>293</ele>
        <time>2018-03-08T11:13:53Z</time>
      </trkpt>
      <trkpt lat="45.94803" lon="4.98912">
        <ele>293</ele>
        <time>2018-03-08T11:13:54Z</time>
      </trkpt>
      <trkpt lat="45.94802" lon="4.9892">
        <ele>292</ele>
        <time>2018-03-08T11:13:55Z</time>
      </trkpt>
      <trkpt lat="45.94802" lon="4.98926">
        <ele>292</ele>
        <time>2018-03-08T11:13:56Z</time>
      </trkpt>
      <trkpt lat="45.94802" lon="4.98933">
        <ele>292</ele>
        <time>2018-03-08T11:13:57Z</time>
      </trkpt>
      <trkpt lat="45.94801" lon="4.98939">
        <ele>292</ele>
        <time>2018-03-08T11:13:58Z</time>
      </trkpt>
      <trkpt lat="45.94801" lon="4.98946">
        <ele>292</ele>
        <time>2018-03-08T11:13:59Z</time>
      </trkpt>
      <trkpt lat="45.94801" lon="4.98954">
        <ele>292</ele>
        <time>2018-03-08T11:14:00Z</time>
      </trkpt>
      <trkpt lat="45.948" lon="4.98961">
        <ele>292</ele>
        <time>2018-03-08T11:14:01Z</time>
      </trkpt>
      <trkpt lat="45.948" lon="4.98968">
        <ele>291</ele>
        <time>2018-03-08T11:14:02Z</time>
      </trkpt>
      <trkpt lat="45.94799" lon="4.9898">
        <ele>291</ele>
        <time>2018-03-08T11:14:04Z</time>
      </trkpt>
      <trkpt lat="45.94797" lon="4.98986">
        <ele>291</ele>
        <time>2018-03-08T11:14:05Z</time>
      </trkpt>
      <trkpt lat="45.94797" lon="4.98993">
        <ele>291</ele>
        <time>2018-03-08T11:14:06Z</time>
      </trkpt>
      <trkpt lat="45.94797" lon="4.99">
        <ele>291</ele>
        <time>2018-03-08T11:14:07Z</time>
      </trkpt>
      <trkpt lat="45.94797" lon="4.99007">
        <ele>291</ele>
        <time>2018-03-08T11:14:08Z</time>
      </trkpt>
      <trkpt lat="45.94797" lon="4.99015">
        <ele>291</ele>
        <time>2018-03-08T11:14:09Z</time>
      </trkpt>
      <trkpt lat="45.94797" lon="4.99021">
        <ele>291</ele>
        <time>2018-03-08T11:14:10Z</time>
      </trkpt>
      <trkpt lat="45.94796" lon="4.99028">
        <ele>291</ele>
        <time>2018-03-08T11:14:11Z</time>
      </trkpt>
      <trkpt lat="45.94793" lon="4.9904">
        <ele>291</ele>
        <time>2018-03-08T11:14:13Z</time>
      </trkpt>
      <trkpt lat="45.94791" lon="4.99046">
        <ele>290</ele>
        <time>2018-03-08T11:14:14Z</time>
      </trkpt>
      <trkpt lat="45.94788" lon="4.99052">
        <ele>290</ele>
        <time>2018-03-08T11:14:15Z</time>
      </trkpt>
      <trkpt lat="45.94785" lon="4.99059">
        <ele>290</ele>
        <time>2018-03-08T11:14:16Z</time>
      </trkpt>
      <trkpt lat="45.94782" lon="4.99063">
        <ele>290</ele>
        <time>2018-03-08T11:14:17Z</time>
      </trkpt>
      <trkpt lat="45.94778" lon="4.99068">
        <ele>291</ele>
        <time>2018-03-08T11:14:18Z</time>
      </trkpt>
      <trkpt lat="45.94774" lon="4.99073">
        <ele>291</ele>
        <time>2018-03-08T11:14:19Z</time>
      </trkpt>
      <trkpt lat="45.94771" lon="4.99077">
        <ele>291</ele>
        <time>2018-03-08T11:14:20Z</time>
      </trkpt>
      <trkpt lat="45.94765" lon="4.99086">
        <ele>290</ele>
        <time>2018-03-08T11:14:22Z</time>
      </trkpt>
      <trkpt lat="45.94763" lon="4.99089">
        <ele>290</ele>
        <time>2018-03-08T11:14:23Z</time>
      </trkpt>
      <trkpt lat="45.94759" lon="4.99094">
        <ele>290</ele>
        <time>2018-03-08T11:14:24Z</time>
      </trkpt>
      <trkpt lat="45.94755" lon="4.991">
        <ele>290</ele>
        <time>2018-03-08T11:14:25Z</time>
      </trkpt>
      <trkpt lat="45.94749" lon="4.99109">
        <ele>290</ele>
        <time>2018-03-08T11:14:27Z</time>
      </trkpt>
      <trkpt lat="45.94745" lon="4.99113">
        <ele>290</ele>
        <time>2018-03-08T11:14:28Z</time>
      </trkpt>
      <trkpt lat="45.94741" lon="4.99118">
        <ele>290</ele>
        <time>2018-03-08T11:14:29Z</time>
      </trkpt>
      <trkpt lat="45.94738" lon="4.99125">
        <ele>290</ele>
        <time>2018-03-08T11:14:30Z</time>
      </trkpt>
      <trkpt lat="45.94734" lon="4.99129">
        <ele>289</ele>
        <time>2018-03-08T11:14:31Z</time>
      </trkpt>
      <trkpt lat="45.94731" lon="4.99134">
        <ele>289</ele>
        <time>2018-03-08T11:14:32Z</time>
      </trkpt>
      <trkpt lat="45.94727" lon="4.99137">
        <ele>289</ele>
        <time>2018-03-08T11:14:33Z</time>
      </trkpt>
      <trkpt lat="45.94723" lon="4.99141">
        <ele>289</ele>
        <time>2018-03-08T11:14:34Z</time>
      </trkpt>
      <trkpt lat="45.94719" lon="4.99146">
        <ele>289</ele>
        <time>2018-03-08T11:14:35Z</time>
      </trkpt>
      <trkpt lat="45.94715" lon="4.99151">
        <ele>289</ele>
        <time>2018-03-08T11:14:36Z</time>
      </trkpt>
      <trkpt lat="45.9471" lon="4.99155">
        <ele>289</ele>
        <time>2018-03-08T11:14:37Z</time>
      </trkpt>
      <trkpt lat="45.94705" lon="4.99159">
        <ele>289</ele>
        <time>2018-03-08T11:14:38Z</time>
      </trkpt>
      <trkpt lat="45.947" lon="4.99162">
        <ele>289</ele>
        <time>2018-03-08T11:14:39Z</time>
      </trkpt>
      <trkpt lat="45.94696" lon="4.99166">
        <ele>289</ele>
        <time>2018-03-08T11:14:40Z</time>
      </trkpt>
      <trkpt lat="45.94691" lon="4.99171">
        <ele>289</ele>
        <time>2018-03-08T11:14:41Z</time>
      </trkpt>
      <trkpt lat="45.94687" lon="4.99177">
        <ele>289</ele>
        <time>2018-03-08T11:14:42Z</time>
      </trkpt>
      <trkpt lat="45.94681" lon="4.99181">
        <ele>289</ele>
        <time>2018-03-08T11:14:43Z</time>
      </trkpt>
      <trkpt lat="45.94676" lon="4.99186">
        <ele>289</ele>
        <time>2018-03-08T11:14:44Z</time>
      </trkpt>
      <trkpt lat="45.94672" lon="4.99192">
        <ele>288</ele>
        <time>2018-03-08T11:14:45Z</time>
      </trkpt>
      <trkpt lat="45.94667" lon="4.99197">
        <ele>288</ele>
        <time>2018-03-08T11:14:46Z</time>
      </trkpt>
      <trkpt lat="45.94663" lon="4.99201">
        <ele>288</ele>
        <time>2018-03-08T11:14:47Z</time>
      </trkpt>
      <trkpt lat="45.94659" lon="4.99206">
        <ele>288</ele>
        <time>2018-03-08T11:14:48Z</time>
      </trkpt>
      <trkpt lat="45.94656" lon="4.9921">
        <ele>288</ele>
        <time>2018-03-08T11:14:49Z</time>
      </trkpt>
      <trkpt lat="45.94652" lon="4.99215">
        <ele>288</ele>
        <time>2018-03-08T11:14:50Z</time>
      </trkpt>
      <trkpt lat="45.94648" lon="4.99219">
        <ele>288</ele>
        <time>2018-03-08T11:14:51Z</time>
      </trkpt>
      <trkpt lat="45.94644" lon="4.99224">
        <ele>288</ele>
        <time>2018-03-08T11:14:52Z</time>
      </trkpt>
      <trkpt lat="45.9464" lon="4.99229">
        <ele>288</ele>
        <time>2018-03-08T11:14:53Z</time>
      </trkpt>
      <trkpt lat="45.94636" lon="4.99233">
        <ele>288</ele>
        <time>2018-03-08T11:14:54Z</time>
      </trkpt>
      <trkpt lat="45.94633" lon="4.99238">
        <ele>288</ele>
        <time>2018-03-08T11:14:55Z</time>
      </trkpt>
      <trkpt lat="45.94628" lon="4.99244">
        <ele>288</ele>
        <time>2018-03-08T11:14:56Z</time>
      </trkpt>
      <trkpt lat="45.94624" lon="4.99249">
        <ele>288</ele>
        <time>2018-03-08T11:14:57Z</time>
      </trkpt>
      <trkpt lat="45.9462" lon="4.99253">
        <ele>287</ele>
        <time>2018-03-08T11:14:58Z</time>
      </trkpt>
      <trkpt lat="45.94616" lon="4.9926">
        <ele>287</ele>
        <time>2018-03-08T11:14:59Z</time>
      </trkpt>
      <trkpt lat="45.94612" lon="4.99264">
        <ele>287</ele>
        <time>2018-03-08T11:15:00Z</time>
      </trkpt>
      <trkpt lat="45.94608" lon="4.99269">
        <ele>287</ele>
        <time>2018-03-08T11:15:01Z</time>
      </trkpt>
      <trkpt lat="45.94603" lon="4.99274">
        <ele>287</ele>
        <time>2018-03-08T11:15:02Z</time>
      </trkpt>
      <trkpt lat="45.94599" lon="4.99279">
        <ele>287</ele>
        <time>2018-03-08T11:15:03Z</time>
      </trkpt>
      <trkpt lat="45.94595" lon="4.99284">
        <ele>287</ele>
        <time>2018-03-08T11:15:04Z</time>
      </trkpt>
      <trkpt lat="45.94592" lon="4.99292">
        <ele>287</ele>
        <time>2018-03-08T11:15:05Z</time>
      </trkpt>
      <trkpt lat="45.94589" lon="4.99298">
        <ele>287</ele>
        <time>2018-03-08T11:15:06Z</time>
      </trkpt>
      <trkpt lat="45.94585" lon="4.99305">
        <ele>287</ele>
        <time>2018-03-08T11:15:07Z</time>
      </trkpt>
      <trkpt lat="45.94581" lon="4.9931">
        <ele>287</ele>
        <time>2018-03-08T11:15:08Z</time>
      </trkpt>
      <trkpt lat="45.94578" lon="4.99316">
        <ele>287</ele>
        <time>2018-03-08T11:15:09Z</time>
      </trkpt>
      <trkpt lat="45.94574" lon="4.99321">
        <ele>287</ele>
        <time>2018-03-08T11:15:10Z</time>
      </trkpt>
      <trkpt lat="45.9457" lon="4.99326">
        <ele>287</ele>
        <time>2018-03-08T11:15:11Z</time>
      </trkpt>
      <trkpt lat="45.94567" lon="4.99332">
        <ele>287</ele>
        <time>2018-03-08T11:15:12Z</time>
      </trkpt>
      <trkpt lat="45.94564" lon="4.99336">
        <ele>287</ele>
        <time>2018-03-08T11:15:13Z</time>
      </trkpt>
      <trkpt lat="45.94561" lon="4.99341">
        <ele>287</ele>
        <time>2018-03-08T11:15:14Z</time>
      </trkpt>
      <trkpt lat="45.94557" lon="4.99347">
        <ele>288</ele>
        <time>2018-03-08T11:15:15Z</time>
      </trkpt>
      <trkpt lat="45.94554" lon="4.99353">
        <ele>288</ele>
        <time>2018-03-08T11:15:16Z</time>
      </trkpt>
      <trkpt lat="45.94552" lon="4.9936">
        <ele>288</ele>
        <time>2018-03-08T11:15:17Z</time>
      </trkpt>
      <trkpt lat="45.94549" lon="4.99367">
        <ele>288</ele>
        <time>2018-03-08T11:15:18Z</time>
      </trkpt>
      <trkpt lat="45.94546" lon="4.99374">
        <ele>288</ele>
        <time>2018-03-08T11:15:19Z</time>
      </trkpt>
      <trkpt lat="45.94543" lon="4.9938">
        <ele>288</ele>
        <time>2018-03-08T11:15:20Z</time>
      </trkpt>
      <trkpt lat="45.94542" lon="4.99387">
        <ele>288</ele>
        <time>2018-03-08T11:15:21Z</time>
      </trkpt>
      <trkpt lat="45.94541" lon="4.99394">
        <ele>288</ele>
        <time>2018-03-08T11:15:22Z</time>
      </trkpt>
      <trkpt lat="45.94538" lon="4.99401">
        <ele>288</ele>
        <time>2018-03-08T11:15:23Z</time>
      </trkpt>
      <trkpt lat="45.94536" lon="4.99407">
        <ele>288</ele>
        <time>2018-03-08T11:15:24Z</time>
      </trkpt>
      <trkpt lat="45.94534" lon="4.99415">
        <ele>288</ele>
        <time>2018-03-08T11:15:25Z</time>
      </trkpt>
      <trkpt lat="45.94532" lon="4.99423">
        <ele>288</ele>
        <time>2018-03-08T11:15:26Z</time>
      </trkpt>
      <trkpt lat="45.9453" lon="4.99428">
        <ele>288</ele>
        <time>2018-03-08T11:15:27Z</time>
      </trkpt>
      <trkpt lat="45.9453" lon="4.99436">
        <ele>288</ele>
        <time>2018-03-08T11:15:28Z</time>
      </trkpt>
      <trkpt lat="45.94528" lon="4.99442">
        <ele>288</ele>
        <time>2018-03-08T11:15:29Z</time>
      </trkpt>
      <trkpt lat="45.94526" lon="4.99448">
        <ele>288</ele>
        <time>2018-03-08T11:15:30Z</time>
      </trkpt>
      <trkpt lat="45.94524" lon="4.99453">
        <ele>288</ele>
        <time>2018-03-08T11:15:31Z</time>
      </trkpt>
      <trkpt lat="45.94521" lon="4.9946">
        <ele>288</ele>
        <time>2018-03-08T11:15:32Z</time>
      </trkpt>
      <trkpt lat="45.94519" lon="4.99467">
        <ele>288</ele>
        <time>2018-03-08T11:15:33Z</time>
      </trkpt>
      <trkpt lat="45.94516" lon="4.99473">
        <ele>288</ele>
        <time>2018-03-08T11:15:34Z</time>
      </trkpt>
      <trkpt lat="45.94514" lon="4.99485">
        <ele>288</ele>
        <time>2018-03-08T11:15:36Z</time>
      </trkpt>
      <trkpt lat="45.94512" lon="4.99492">
        <ele>288</ele>
        <time>2018-03-08T11:15:37Z</time>
      </trkpt>
      <trkpt lat="45.94511" lon="4.99498">
        <ele>288</ele>
        <time>2018-03-08T11:15:38Z</time>
      </trkpt>
      <trkpt lat="45.94509" lon="4.99506">
        <ele>288</ele>
        <time>2018-03-08T11:15:39Z</time>
      </trkpt>
      <trkpt lat="45.94508" lon="4.99512">
        <ele>288</ele>
        <time>2018-03-08T11:15:40Z</time>
      </trkpt>
      <trkpt lat="45.94506" lon="4.99518">
        <ele>288</ele>
        <time>2018-03-08T11:15:41Z</time>
      </trkpt>
      <trkpt lat="45.94504" lon="4.99524">
        <ele>287</ele>
        <time>2018-03-08T11:15:42Z</time>
      </trkpt>
      <trkpt lat="45.94503" lon="4.99531">
        <ele>287</ele>
        <time>2018-03-08T11:15:43Z</time>
      </trkpt>
      <trkpt lat="45.94499" lon="4.99542">
        <ele>288</ele>
        <time>2018-03-08T11:15:45Z</time>
      </trkpt>
      <trkpt lat="45.94497" lon="4.99548">
        <ele>288</ele>
        <time>2018-03-08T11:15:46Z</time>
      </trkpt>
      <trkpt lat="45.94493" lon="4.99558">
        <ele>288</ele>
        <time>2018-03-08T11:15:48Z</time>
      </trkpt>
      <trkpt lat="45.94491" lon="4.99563">
        <ele>288</ele>
        <time>2018-03-08T11:15:49Z</time>
      </trkpt>
      <trkpt lat="45.94487" lon="4.99574">
        <ele>288</ele>
        <time>2018-03-08T11:15:51Z</time>
      </trkpt>
      <trkpt lat="45.94486" lon="4.99583">
        <ele>288</ele>
        <time>2018-03-08T11:15:52Z</time>
      </trkpt>
      <trkpt lat="45.94484" lon="4.9959">
        <ele>289</ele>
        <time>2018-03-08T11:15:53Z</time>
      </trkpt>
      <trkpt lat="45.94482" lon="4.99596">
        <ele>289</ele>
        <time>2018-03-08T11:15:54Z</time>
      </trkpt>
      <trkpt lat="45.9448" lon="4.99603">
        <ele>289</ele>
        <time>2018-03-08T11:15:55Z</time>
      </trkpt>
      <trkpt lat="45.94477" lon="4.99608">
        <ele>289</ele>
        <time>2018-03-08T11:15:56Z</time>
      </trkpt>
      <trkpt lat="45.94476" lon="4.99615">
        <ele>289</ele>
        <time>2018-03-08T11:15:57Z</time>
      </trkpt>
      <trkpt lat="45.94473" lon="4.99621">
        <ele>289</ele>
        <time>2018-03-08T11:15:58Z</time>
      </trkpt>
      <trkpt lat="45.9447" lon="4.99632">
        <ele>289</ele>
        <time>2018-03-08T11:16:00Z</time>
      </trkpt>
      <trkpt lat="45.94468" lon="4.99638">
        <ele>289</ele>
        <time>2018-03-08T11:16:01Z</time>
      </trkpt>
      <trkpt lat="45.94465" lon="4.99649">
        <ele>289</ele>
        <time>2018-03-08T11:16:03Z</time>
      </trkpt>
      <trkpt lat="45.94465" lon="4.99656">
        <ele>289</ele>
        <time>2018-03-08T11:16:04Z</time>
      </trkpt>
      <trkpt lat="45.94461" lon="4.99667">
        <ele>289</ele>
        <time>2018-03-08T11:16:06Z</time>
      </trkpt>
      <trkpt lat="45.94459" lon="4.99673">
        <ele>289</ele>
        <time>2018-03-08T11:16:07Z</time>
      </trkpt>
      <trkpt lat="45.94456" lon="4.99683">
        <ele>289</ele>
        <time>2018-03-08T11:16:09Z</time>
      </trkpt>
      <trkpt lat="45.94453" lon="4.99688">
        <ele>289</ele>
        <time>2018-03-08T11:16:10Z</time>
      </trkpt>
      <trkpt lat="45.94451" lon="4.99694">
        <ele>289</ele>
        <time>2018-03-08T11:16:11Z</time>
      </trkpt>
      <trkpt lat="45.94449" lon="4.997">
        <ele>289</ele>
        <time>2018-03-08T11:16:12Z</time>
      </trkpt>
      <trkpt lat="45.94446" lon="4.99711">
        <ele>289</ele>
        <time>2018-03-08T11:16:14Z</time>
      </trkpt>
      <trkpt lat="45.94443" lon="4.99716">
        <ele>289</ele>
        <time>2018-03-08T11:16:15Z</time>
      </trkpt>
      <trkpt lat="45.94438" lon="4.99726">
        <ele>289</ele>
        <time>2018-03-08T11:16:17Z</time>
      </trkpt>
      <trkpt lat="45.94435" lon="4.99733">
        <ele>289</ele>
        <time>2018-03-08T11:16:18Z</time>
      </trkpt>
      <trkpt lat="45.94432" lon="4.99739">
        <ele>289</ele>
        <time>2018-03-08T11:16:19Z</time>
      </trkpt>
      <trkpt lat="45.94431" lon="4.99745">
        <ele>289</ele>
        <time>2018-03-08T11:16:20Z</time>
      </trkpt>
      <trkpt lat="45.94427" lon="4.99757">
        <ele>289</ele>
        <time>2018-03-08T11:16:22Z</time>
      </trkpt>
      <trkpt lat="45.94425" lon="4.99757">
        <ele>289</ele>
        <time>2018-03-08T11:16:23Z</time>
      </trkpt>
      <trkpt lat="45.94421" lon="4.99765">
        <ele>289</ele>
        <time>2018-03-08T11:16:25Z</time>
      </trkpt>
      <trkpt lat="45.94418" lon="4.99769">
        <ele>289</ele>
        <time>2018-03-08T11:16:26Z</time>
      </trkpt>
      <trkpt lat="45.94416" lon="4.99772">
        <ele>290</ele>
        <time>2018-03-08T11:16:27Z</time>
      </trkpt>
      <trkpt lat="45.94416" lon="4.99785">
        <ele>290</ele>
        <time>2018-03-08T11:16:28Z</time>
      </trkpt>
      <trkpt lat="45.94414" lon="4.99791">
        <ele>290</ele>
        <time>2018-03-08T11:16:30Z</time>
      </trkpt>
      <trkpt lat="45.94412" lon="4.99799">
        <ele>290</ele>
        <time>2018-03-08T11:16:31Z</time>
      </trkpt>
      <trkpt lat="45.94407" lon="4.99808">
        <ele>290</ele>
        <time>2018-03-08T11:16:33Z</time>
      </trkpt>
      <trkpt lat="45.94406" lon="4.99815">
        <ele>290</ele>
        <time>2018-03-08T11:16:34Z</time>
      </trkpt>
      <trkpt lat="45.94402" lon="4.99826">
        <ele>290</ele>
        <time>2018-03-08T11:16:36Z</time>
      </trkpt>
      <trkpt lat="45.94399" lon="4.99831">
        <ele>290</ele>
        <time>2018-03-08T11:16:37Z</time>
      </trkpt>
      <trkpt lat="45.94396" lon="4.99836">
        <ele>289</ele>
        <time>2018-03-08T11:16:38Z</time>
      </trkpt>
      <trkpt lat="45.94393" lon="4.99842">
        <ele>290</ele>
        <time>2018-03-08T11:16:39Z</time>
      </trkpt>
      <trkpt lat="45.94388" lon="4.99852">
        <ele>290</ele>
        <time>2018-03-08T11:16:41Z</time>
      </trkpt>
      <trkpt lat="45.94386" lon="4.99857">
        <ele>290</ele>
        <time>2018-03-08T11:16:42Z</time>
      </trkpt>
      <trkpt lat="45.94383" lon="4.99862">
        <ele>290</ele>
        <time>2018-03-08T11:16:43Z</time>
      </trkpt>
      <trkpt lat="45.94381" lon="4.99868">
        <ele>290</ele>
        <time>2018-03-08T11:16:44Z</time>
      </trkpt>
      <trkpt lat="45.9438" lon="4.99878">
        <ele>290</ele>
        <time>2018-03-08T11:16:45Z</time>
      </trkpt>
      <trkpt lat="45.94378" lon="4.99883">
        <ele>290</ele>
        <time>2018-03-08T11:16:46Z</time>
      </trkpt>
      <trkpt lat="45.94374" lon="4.99893">
        <ele>290</ele>
        <time>2018-03-08T11:16:48Z</time>
      </trkpt>
      <trkpt lat="45.94372" lon="4.99898">
        <ele>290</ele>
        <time>2018-03-08T11:16:49Z</time>
      </trkpt>
      <trkpt lat="45.94367" lon="4.99908">
        <ele>290</ele>
        <time>2018-03-08T11:16:51Z</time>
      </trkpt>
      <trkpt lat="45.94365" lon="4.99913">
        <ele>290</ele>
        <time>2018-03-08T11:16:52Z</time>
      </trkpt>
      <trkpt lat="45.9436" lon="4.99924">
        <ele>290</ele>
        <time>2018-03-08T11:16:54Z</time>
      </trkpt>
      <trkpt lat="45.94357" lon="4.99929">
        <ele>290</ele>
        <time>2018-03-08T11:16:55Z</time>
      </trkpt>
      <trkpt lat="45.94353" lon="4.99939">
        <ele>290</ele>
        <time>2018-03-08T11:16:57Z</time>
      </trkpt>
      <trkpt lat="45.94351" lon="4.99944">
        <ele>290</ele>
        <time>2018-03-08T11:16:58Z</time>
      </trkpt>
      <trkpt lat="45.94347" lon="4.99955">
        <ele>290</ele>
        <time>2018-03-08T11:17:00Z</time>
      </trkpt>
      <trkpt lat="45.94344" lon="4.9996">
        <ele>290</ele>
        <time>2018-03-08T11:17:01Z</time>
      </trkpt>
      <trkpt lat="45.94339" lon="4.99969">
        <ele>290</ele>
        <time>2018-03-08T11:17:03Z</time>
      </trkpt>
      <trkpt lat="45.94337" lon="4.99973">
        <ele>290</ele>
        <time>2018-03-08T11:17:04Z</time>
      </trkpt>
      <trkpt lat="45.94333" lon="4.99984">
        <ele>291</ele>
        <time>2018-03-08T11:17:06Z</time>
      </trkpt>
      <trkpt lat="45.9433" lon="4.99989">
        <ele>291</ele>
        <time>2018-03-08T11:17:07Z</time>
      </trkpt>
      <trkpt lat="45.94325" lon="4.99999">
        <ele>291</ele>
        <time>2018-03-08T11:17:09Z</time>
      </trkpt>
      <trkpt lat="45.94323" lon="5.00004">
        <ele>291</ele>
        <time>2018-03-08T11:17:10Z</time>
      </trkpt>
      <trkpt lat="45.9432" lon="5.00011">
        <ele>291</ele>
        <time>2018-03-08T11:17:11Z</time>
      </trkpt>
      <trkpt lat="45.94318" lon="5.00015">
        <ele>291</ele>
        <time>2018-03-08T11:17:12Z</time>
      </trkpt>
      <trkpt lat="45.94313" lon="5.00025">
        <ele>290</ele>
        <time>2018-03-08T11:17:14Z</time>
      </trkpt>
      <trkpt lat="45.94311" lon="5.0003">
        <ele>290</ele>
        <time>2018-03-08T11:17:15Z</time>
      </trkpt>
      <trkpt lat="45.94307" lon="5.00038">
        <ele>290</ele>
        <time>2018-03-08T11:17:17Z</time>
      </trkpt>
      <trkpt lat="45.94304" lon="5.00043">
        <ele>290</ele>
        <time>2018-03-08T11:17:18Z</time>
      </trkpt>
      <trkpt lat="45.943" lon="5.00051">
        <ele>290</ele>
        <time>2018-03-08T11:17:20Z</time>
      </trkpt>
      <trkpt lat="45.94297" lon="5.00055">
        <ele>290</ele>
        <time>2018-03-08T11:17:21Z</time>
      </trkpt>
      <trkpt lat="45.94293" lon="5.00063">
        <ele>290</ele>
        <time>2018-03-08T11:17:23Z</time>
      </trkpt>
      <trkpt lat="45.9429" lon="5.00067">
        <ele>290</ele>
        <time>2018-03-08T11:17:24Z</time>
      </trkpt>
      <trkpt lat="45.94285" lon="5.00076">
        <ele>290</ele>
        <time>2018-03-08T11:17:26Z</time>
      </trkpt>
      <trkpt lat="45.94282" lon="5.0008">
        <ele>290</ele>
        <time>2018-03-08T11:17:27Z</time>
      </trkpt>
      <trkpt lat="45.94277" lon="5.00089">
        <ele>289</ele>
        <time>2018-03-08T11:17:29Z</time>
      </trkpt>
      <trkpt lat="45.94274" lon="5.00094">
        <ele>289</ele>
        <time>2018-03-08T11:17:30Z</time>
      </trkpt>
      <trkpt lat="45.94268" lon="5.00102">
        <ele>289</ele>
        <time>2018-03-08T11:17:32Z</time>
      </trkpt>
      <trkpt lat="45.94264" lon="5.00106">
        <ele>289</ele>
        <time>2018-03-08T11:17:33Z</time>
      </trkpt>
      <trkpt lat="45.94258" lon="5.00115">
        <ele>289</ele>
        <time>2018-03-08T11:17:35Z</time>
      </trkpt>
      <trkpt lat="45.94255" lon="5.00119">
        <ele>289</ele>
        <time>2018-03-08T11:17:36Z</time>
      </trkpt>
      <trkpt lat="45.94249" lon="5.00129">
        <ele>288</ele>
        <time>2018-03-08T11:17:38Z</time>
      </trkpt>
      <trkpt lat="45.94246" lon="5.00134">
        <ele>288</ele>
        <time>2018-03-08T11:17:39Z</time>
      </trkpt>
      <trkpt lat="45.94242" lon="5.0014">
        <ele>288</ele>
        <time>2018-03-08T11:17:40Z</time>
      </trkpt>
      <trkpt lat="45.94238" lon="5.00143">
        <ele>288</ele>
        <time>2018-03-08T11:17:41Z</time>
      </trkpt>
      <trkpt lat="45.94235" lon="5.00148">
        <ele>288</ele>
        <time>2018-03-08T11:17:42Z</time>
      </trkpt>
      <trkpt lat="45.94231" lon="5.00153">
        <ele>288</ele>
        <time>2018-03-08T11:17:43Z</time>
      </trkpt>
      <trkpt lat="45.94225" lon="5.00162">
        <ele>287</ele>
        <time>2018-03-08T11:17:45Z</time>
      </trkpt>
      <trkpt lat="45.94222" lon="5.00167">
        <ele>287</ele>
        <time>2018-03-08T11:17:46Z</time>
      </trkpt>
      <trkpt lat="45.94218" lon="5.00174">
        <ele>287</ele>
        <time>2018-03-08T11:17:47Z</time>
      </trkpt>
      <trkpt lat="45.94215" lon="5.0018">
        <ele>287</ele>
        <time>2018-03-08T11:17:48Z</time>
      </trkpt>
      <trkpt lat="45.94212" lon="5.00184">
        <ele>287</ele>
        <time>2018-03-08T11:17:49Z</time>
      </trkpt>
      <trkpt lat="45.94209" lon="5.0019">
        <ele>287</ele>
        <time>2018-03-08T11:17:50Z</time>
      </trkpt>
      <trkpt lat="45.94205" lon="5.00195">
        <ele>287</ele>
        <time>2018-03-08T11:17:51Z</time>
      </trkpt>
      <trkpt lat="45.94202" lon="5.002">
        <ele>287</ele>
        <time>2018-03-08T11:17:52Z</time>
      </trkpt>
      <trkpt lat="45.94198" lon="5.00203">
        <ele>287</ele>
        <time>2018-03-08T11:17:53Z</time>
      </trkpt>
      <trkpt lat="45.94194" lon="5.00207">
        <ele>287</ele>
        <time>2018-03-08T11:17:54Z</time>
      </trkpt>
      <trkpt lat="45.94188" lon="5.00215">
        <ele>286</ele>
        <time>2018-03-08T11:17:56Z</time>
      </trkpt>
      <trkpt lat="45.94185" lon="5.0022">
        <ele>286</ele>
        <time>2018-03-08T11:17:57Z</time>
      </trkpt>
      <trkpt lat="45.94182" lon="5.00223">
        <ele>286</ele>
        <time>2018-03-08T11:17:58Z</time>
      </trkpt>
      <trkpt lat="45.94178" lon="5.00228">
        <ele>286</ele>
        <time>2018-03-08T11:17:59Z</time>
      </trkpt>
      <trkpt lat="45.94172" lon="5.00237">
        <ele>286</ele>
        <time>2018-03-08T11:18:01Z</time>
      </trkpt>
      <trkpt lat="45.94169" lon="5.00241">
        <ele>286</ele>
        <time>2018-03-08T11:18:02Z</time>
      </trkpt>
      <trkpt lat="45.94166" lon="5.00246">
        <ele>285</ele>
        <time>2018-03-08T11:18:03Z</time>
      </trkpt>
      <trkpt lat="45.94162" lon="5.00251">
        <ele>285</ele>
        <time>2018-03-08T11:18:04Z</time>
      </trkpt>
      <trkpt lat="45.9416" lon="5.00257">
        <ele>285</ele>
        <time>2018-03-08T11:18:05Z</time>
      </trkpt>
      <trkpt lat="45.94157" lon="5.00262">
        <ele>285</ele>
        <time>2018-03-08T11:18:06Z</time>
      </trkpt>
      <trkpt lat="45.94154" lon="5.00267">
        <ele>285</ele>
        <time>2018-03-08T11:18:07Z</time>
      </trkpt>
      <trkpt lat="45.94151" lon="5.00273">
        <ele>285</ele>
        <time>2018-03-08T11:18:08Z</time>
      </trkpt>
      <trkpt lat="45.94148" lon="5.00278">
        <ele>285</ele>
        <time>2018-03-08T11:18:09Z</time>
      </trkpt>
      <trkpt lat="45.94144" lon="5.00282">
        <ele>285</ele>
        <time>2018-03-08T11:18:10Z</time>
      </trkpt>
      <trkpt lat="45.94141" lon="5.00287">
        <ele>285</ele>
        <time>2018-03-08T11:18:11Z</time>
      </trkpt>
      <trkpt lat="45.94137" lon="5.00291">
        <ele>285</ele>
        <time>2018-03-08T11:18:12Z</time>
      </trkpt>
      <trkpt lat="45.94132" lon="5.00301">
        <ele>285</ele>
        <time>2018-03-08T11:18:14Z</time>
      </trkpt>
      <trkpt lat="45.9413" lon="5.00304">
        <ele>285</ele>
        <time>2018-03-08T11:18:15Z</time>
      </trkpt>
      <trkpt lat="45.94123" lon="5.00313">
        <ele>285</ele>
        <time>2018-03-08T11:18:17Z</time>
      </trkpt>
      <trkpt lat="45.9412" lon="5.00317">
        <ele>285</ele>
        <time>2018-03-08T11:18:18Z</time>
      </trkpt>
      <trkpt lat="45.94114" lon="5.00326">
        <ele>285</ele>
        <time>2018-03-08T11:18:20Z</time>
      </trkpt>
      <trkpt lat="45.94111" lon="5.00332">
        <ele>285</ele>
        <time>2018-03-08T11:18:21Z</time>
      </trkpt>
      <trkpt lat="45.94106" lon="5.00341">
        <ele>286</ele>
        <time>2018-03-08T11:18:23Z</time>
      </trkpt>
      <trkpt lat="45.94102" lon="5.00345">
        <ele>286</ele>
        <time>2018-03-08T11:18:24Z</time>
      </trkpt>
      <trkpt lat="45.94098" lon="5.00348">
        <ele>286</ele>
        <time>2018-03-08T11:18:25Z</time>
      </trkpt>
      <trkpt lat="45.94094" lon="5.00351">
        <ele>286</ele>
        <time>2018-03-08T11:18:26Z</time>
      </trkpt>
      <trkpt lat="45.9409" lon="5.00355">
        <ele>286</ele>
        <time>2018-03-08T11:18:27Z</time>
      </trkpt>
      <trkpt lat="45.94086" lon="5.00358">
        <ele>286</ele>
        <time>2018-03-08T11:18:28Z</time>
      </trkpt>
      <trkpt lat="45.94081" lon="5.00361">
        <ele>285</ele>
        <time>2018-03-08T11:18:29Z</time>
      </trkpt>
      <trkpt lat="45.94077" lon="5.00362">
        <ele>285</ele>
        <time>2018-03-08T11:18:30Z</time>
      </trkpt>
      <trkpt lat="45.94072" lon="5.00363">
        <ele>285</ele>
        <time>2018-03-08T11:18:31Z</time>
      </trkpt>
      <trkpt lat="45.94066" lon="5.00362">
        <ele>285</ele>
        <time>2018-03-08T11:18:32Z</time>
      </trkpt>
      <trkpt lat="45.94059" lon="5.00362">
        <ele>285</ele>
        <time>2018-03-08T11:18:34Z</time>
      </trkpt>
      <trkpt lat="45.94054" lon="5.00362">
        <ele>285</ele>
        <time>2018-03-08T11:18:35Z</time>
      </trkpt>
      <trkpt lat="45.94049" lon="5.0036">
        <ele>285</ele>
        <time>2018-03-08T11:18:36Z</time>
      </trkpt>
      <trkpt lat="45.94045" lon="5.00363">
        <ele>285</ele>
        <time>2018-03-08T11:18:37Z</time>
      </trkpt>
      <trkpt lat="45.94037" lon="5.00363">
        <ele>285</ele>
        <time>2018-03-08T11:18:39Z</time>
      </trkpt>
      <trkpt lat="45.94033" lon="5.00362">
        <ele>285</ele>
        <time>2018-03-08T11:18:40Z</time>
      </trkpt>
      <trkpt lat="45.94028" lon="5.00361">
        <ele>285</ele>
        <time>2018-03-08T11:18:41Z</time>
      </trkpt>
      <trkpt lat="45.94024" lon="5.0036">
        <ele>285</ele>
        <time>2018-03-08T11:18:42Z</time>
      </trkpt>
      <trkpt lat="45.9402" lon="5.00361">
        <ele>285</ele>
        <time>2018-03-08T11:18:43Z</time>
      </trkpt>
      <trkpt lat="45.94014" lon="5.00362">
        <ele>285</ele>
        <time>2018-03-08T11:18:44Z</time>
      </trkpt>
      <trkpt lat="45.94005" lon="5.00361">
        <ele>285</ele>
        <time>2018-03-08T11:18:46Z</time>
      </trkpt>
      <trkpt lat="45.93999" lon="5.00359">
        <ele>286</ele>
        <time>2018-03-08T11:18:47Z</time>
      </trkpt>
      <trkpt lat="45.93991" lon="5.00357">
        <ele>286</ele>
        <time>2018-03-08T11:18:49Z</time>
      </trkpt>
      <trkpt lat="45.93985" lon="5.00356">
        <ele>286</ele>
        <time>2018-03-08T11:18:50Z</time>
      </trkpt>
      <trkpt lat="45.93978" lon="5.00353">
        <ele>286</ele>
        <time>2018-03-08T11:18:53Z</time>
      </trkpt>
      <trkpt lat="45.93968" lon="5.00348">
        <ele>286</ele>
        <time>2018-03-08T11:18:54Z</time>
      </trkpt>
      <trkpt lat="45.9396" lon="5.00344">
        <ele>286</ele>
        <time>2018-03-08T11:18:56Z</time>
      </trkpt>
      <trkpt lat="45.93958" lon="5.00343">
        <ele>286</ele>
        <time>2018-03-08T11:18:57Z</time>
      </trkpt>
      <trkpt lat="45.93953" lon="5.00341">
        <ele>286</ele>
        <time>2018-03-08T11:18:58Z</time>
      </trkpt>
      <trkpt lat="45.93949" lon="5.0034">
        <ele>286</ele>
        <time>2018-03-08T11:18:59Z</time>
      </trkpt>
      <trkpt lat="45.93942" lon="5.00337">
        <ele>286</ele>
        <time>2018-03-08T11:19:01Z</time>
      </trkpt>
      <trkpt lat="45.93937" lon="5.00335">
        <ele>286</ele>
        <time>2018-03-08T11:19:02Z</time>
      </trkpt>
      <trkpt lat="45.9393" lon="5.00332">
        <ele>286</ele>
        <time>2018-03-08T11:19:04Z</time>
      </trkpt>
      <trkpt lat="45.93927" lon="5.00331">
        <ele>286</ele>
        <time>2018-03-08T11:19:05Z</time>
      </trkpt>
      <trkpt lat="45.93919" lon="5.00328">
        <ele>286</ele>
        <time>2018-03-08T11:19:08Z</time>
      </trkpt>
      <trkpt lat="45.93913" lon="5.00326">
        <ele>287</ele>
        <time>2018-03-08T11:19:09Z</time>
      </trkpt>
      <trkpt lat="45.93904" lon="5.00324">
        <ele>287</ele>
        <time>2018-03-08T11:19:12Z</time>
      </trkpt>
      <trkpt lat="45.93902" lon="5.00323">
        <ele>287</ele>
        <time>2018-03-08T11:19:13Z</time>
      </trkpt>
      <trkpt lat="45.93899" lon="5.00322">
        <ele>287</ele>
        <time>2018-03-08T11:19:14Z</time>
      </trkpt>
      <trkpt lat="45.93893" lon="5.00318">
        <ele>287</ele>
        <time>2018-03-08T11:19:15Z</time>
      </trkpt>
      <trkpt lat="45.93884" lon="5.00316">
        <ele>288</ele>
        <time>2018-03-08T11:19:19Z</time>
      </trkpt>
      <trkpt lat="45.93881" lon="5.00314">
        <ele>288</ele>
        <time>2018-03-08T11:19:20Z</time>
      </trkpt>
      <trkpt lat="45.93875" lon="5.00312">
        <ele>288</ele>
        <time>2018-03-08T11:19:22Z</time>
      </trkpt>
      <trkpt lat="45.93872" lon="5.00311">
        <ele>288</ele>
        <time>2018-03-08T11:19:23Z</time>
      </trkpt>
      <trkpt lat="45.93863" lon="5.00309">
        <ele>288</ele>
        <time>2018-03-08T11:19:24Z</time>
      </trkpt>
      <trkpt lat="45.93854" lon="5.00306">
        <ele>288</ele>
        <time>2018-03-08T11:19:27Z</time>
      </trkpt>
      <trkpt lat="45.93852" lon="5.00305">
        <ele>288</ele>
        <time>2018-03-08T11:19:28Z</time>
      </trkpt>
      <trkpt lat="45.93845" lon="5.00304">
        <ele>288</ele>
        <time>2018-03-08T11:19:31Z</time>
      </trkpt>
      <trkpt lat="45.93842" lon="5.00303">
        <ele>288</ele>
        <time>2018-03-08T11:19:32Z</time>
      </trkpt>
      <trkpt lat="45.93833" lon="5.003">
        <ele>289</ele>
        <time>2018-03-08T11:19:35Z</time>
      </trkpt>
      <trkpt lat="45.9383" lon="5.003">
        <ele>289</ele>
        <time>2018-03-08T11:19:36Z</time>
      </trkpt>
      <trkpt lat="45.93822" lon="5.00298">
        <ele>289</ele>
        <time>2018-03-08T11:19:39Z</time>
      </trkpt>
      <trkpt lat="45.93812" lon="5.00297">
        <ele>289</ele>
        <time>2018-03-08T11:19:40Z</time>
      </trkpt>
      <trkpt lat="45.93805" lon="5.00294">
        <ele>289</ele>
        <time>2018-03-08T11:19:42Z</time>
      </trkpt>
      <trkpt lat="45.938" lon="5.00294">
        <ele>289</ele>
        <time>2018-03-08T11:19:43Z</time>
      </trkpt>
      <trkpt lat="45.93792" lon="5.00292">
        <ele>289</ele>
        <time>2018-03-08T11:19:45Z</time>
      </trkpt>
      <trkpt lat="45.93787" lon="5.0029">
        <ele>289</ele>
        <time>2018-03-08T11:19:46Z</time>
      </trkpt>
      <trkpt lat="45.93782" lon="5.0029">
        <ele>289</ele>
        <time>2018-03-08T11:19:47Z</time>
      </trkpt>
      <trkpt lat="45.93777" lon="5.00289">
        <ele>289</ele>
        <time>2018-03-08T11:19:48Z</time>
      </trkpt>
      <trkpt lat="45.93772" lon="5.00289">
        <ele>289</ele>
        <time>2018-03-08T11:19:49Z</time>
      </trkpt>
      <trkpt lat="45.93767" lon="5.00288">
        <ele>289</ele>
        <time>2018-03-08T11:19:50Z</time>
      </trkpt>
      <trkpt lat="45.93762" lon="5.00287">
        <ele>289</ele>
        <time>2018-03-08T11:19:51Z</time>
      </trkpt>
      <trkpt lat="45.93758" lon="5.00286">
        <ele>289</ele>
        <time>2018-03-08T11:19:52Z</time>
      </trkpt>
      <trkpt lat="45.93752" lon="5.00285">
        <ele>289</ele>
        <time>2018-03-08T11:19:53Z</time>
      </trkpt>
      <trkpt lat="45.93748" lon="5.00284">
        <ele>289</ele>
        <time>2018-03-08T11:19:54Z</time>
      </trkpt>
      <trkpt lat="45.93742" lon="5.00283">
        <ele>289</ele>
        <time>2018-03-08T11:19:55Z</time>
      </trkpt>
      <trkpt lat="45.93738" lon="5.00283">
        <ele>289</ele>
        <time>2018-03-08T11:19:56Z</time>
      </trkpt>
      <trkpt lat="45.93733" lon="5.00282">
        <ele>289</ele>
        <time>2018-03-08T11:19:57Z</time>
      </trkpt>
      <trkpt lat="45.93729" lon="5.00282">
        <ele>289</ele>
        <time>2018-03-08T11:19:58Z</time>
      </trkpt>
      <trkpt lat="45.93724" lon="5.00282">
        <ele>289</ele>
        <time>2018-03-08T11:19:59Z</time>
      </trkpt>
      <trkpt lat="45.93717" lon="5.00282">
        <ele>289</ele>
        <time>2018-03-08T11:20:00Z</time>
      </trkpt>
      <trkpt lat="45.93711" lon="5.00282">
        <ele>289</ele>
        <time>2018-03-08T11:20:01Z</time>
      </trkpt>
      <trkpt lat="45.93708" lon="5.00282">
        <ele>289</ele>
        <time>2018-03-08T11:20:02Z</time>
      </trkpt>
      <trkpt lat="45.93702" lon="5.0028">
        <ele>289</ele>
        <time>2018-03-08T11:20:03Z</time>
      </trkpt>
      <trkpt lat="45.93697" lon="5.00279">
        <ele>289</ele>
        <time>2018-03-08T11:20:04Z</time>
      </trkpt>
      <trkpt lat="45.93689" lon="5.00278">
        <ele>289</ele>
        <time>2018-03-08T11:20:05Z</time>
      </trkpt>
      <trkpt lat="45.93683" lon="5.00278">
        <ele>289</ele>
        <time>2018-03-08T11:20:06Z</time>
      </trkpt>
      <trkpt lat="45.93677" lon="5.00277">
        <ele>289</ele>
        <time>2018-03-08T11:20:07Z</time>
      </trkpt>
      <trkpt lat="45.93672" lon="5.00277">
        <ele>289</ele>
        <time>2018-03-08T11:20:08Z</time>
      </trkpt>
      <trkpt lat="45.93667" lon="5.00276">
        <ele>289</ele>
        <time>2018-03-08T11:20:09Z</time>
      </trkpt>
      <trkpt lat="45.93663" lon="5.00276">
        <ele>290</ele>
        <time>2018-03-08T11:20:10Z</time>
      </trkpt>
      <trkpt lat="45.93658" lon="5.00277">
        <ele>290</ele>
        <time>2018-03-08T11:20:11Z</time>
      </trkpt>
      <trkpt lat="45.93653" lon="5.00278">
        <ele>290</ele>
        <time>2018-03-08T11:20:12Z</time>
      </trkpt>
      <trkpt lat="45.93645" lon="5.00275">
        <ele>290</ele>
        <time>2018-03-08T11:20:13Z</time>
      </trkpt>
      <trkpt lat="45.93642" lon="5.00277">
        <ele>290</ele>
        <time>2018-03-08T11:20:14Z</time>
      </trkpt>
      <trkpt lat="45.93635" lon="5.00284">
        <ele>290</ele>
        <time>2018-03-08T11:20:17Z</time>
      </trkpt>
      <trkpt lat="45.93631" lon="5.00285">
        <ele>290</ele>
        <time>2018-03-08T11:20:18Z</time>
      </trkpt>
      <trkpt lat="45.93624" lon="5.00284">
        <ele>291</ele>
        <time>2018-03-08T11:20:19Z</time>
      </trkpt>
      <trkpt lat="45.93618" lon="5.00285">
        <ele>291</ele>
        <time>2018-03-08T11:20:20Z</time>
      </trkpt>
      <trkpt lat="45.93613" lon="5.00286">
        <ele>291</ele>
        <time>2018-03-08T11:20:21Z</time>
      </trkpt>
      <trkpt lat="45.93608" lon="5.00287">
        <ele>291</ele>
        <time>2018-03-08T11:20:22Z</time>
      </trkpt>
      <trkpt lat="45.93599" lon="5.00291">
        <ele>291</ele>
        <time>2018-03-08T11:20:24Z</time>
      </trkpt>
      <trkpt lat="45.93594" lon="5.00292">
        <ele>291</ele>
        <time>2018-03-08T11:20:25Z</time>
      </trkpt>
      <trkpt lat="45.93587" lon="5.00294">
        <ele>291</ele>
        <time>2018-03-08T11:20:27Z</time>
      </trkpt>
      <trkpt lat="45.9358" lon="5.00295">
        <ele>292</ele>
        <time>2018-03-08T11:20:28Z</time>
      </trkpt>
      <trkpt lat="45.93576" lon="5.00296">
        <ele>292</ele>
        <time>2018-03-08T11:20:29Z</time>
      </trkpt>
      <trkpt lat="45.93571" lon="5.00298">
        <ele>292</ele>
        <time>2018-03-08T11:20:30Z</time>
      </trkpt>
      <trkpt lat="45.93566" lon="5.00299">
        <ele>292</ele>
        <time>2018-03-08T11:20:31Z</time>
      </trkpt>
      <trkpt lat="45.9356" lon="5.003">
        <ele>292</ele>
        <time>2018-03-08T11:20:32Z</time>
      </trkpt>
      <trkpt lat="45.93552" lon="5.00304">
        <ele>292</ele>
        <time>2018-03-08T11:20:34Z</time>
      </trkpt>
      <trkpt lat="45.93546" lon="5.00305">
        <ele>292</ele>
        <time>2018-03-08T11:20:35Z</time>
      </trkpt>
      <trkpt lat="45.93542" lon="5.00307">
        <ele>292</ele>
        <time>2018-03-08T11:20:36Z</time>
      </trkpt>
      <trkpt lat="45.93536" lon="5.00308">
        <ele>292</ele>
        <time>2018-03-08T11:20:37Z</time>
      </trkpt>
      <trkpt lat="45.93528" lon="5.0031">
        <ele>292</ele>
        <time>2018-03-08T11:20:39Z</time>
      </trkpt>
      <trkpt lat="45.93523" lon="5.00312">
        <ele>292</ele>
        <time>2018-03-08T11:20:40Z</time>
      </trkpt>
      <trkpt lat="45.93518" lon="5.00315">
        <ele>292</ele>
        <time>2018-03-08T11:20:41Z</time>
      </trkpt>
      <trkpt lat="45.93514" lon="5.00317">
        <ele>292</ele>
        <time>2018-03-08T11:20:42Z</time>
      </trkpt>
      <trkpt lat="45.9351" lon="5.00319">
        <ele>292</ele>
        <time>2018-03-08T11:20:43Z</time>
      </trkpt>
      <trkpt lat="45.93505" lon="5.00322">
        <ele>292</ele>
        <time>2018-03-08T11:20:44Z</time>
      </trkpt>
      <trkpt lat="45.93497" lon="5.00325">
        <ele>293</ele>
        <time>2018-03-08T11:20:46Z</time>
      </trkpt>
      <trkpt lat="45.93493" lon="5.00327">
        <ele>293</ele>
        <time>2018-03-08T11:20:47Z</time>
      </trkpt>
      <trkpt lat="45.93485" lon="5.00331">
        <ele>293</ele>
        <time>2018-03-08T11:20:49Z</time>
      </trkpt>
      <trkpt lat="45.93481" lon="5.00332">
        <ele>293</ele>
        <time>2018-03-08T11:20:50Z</time>
      </trkpt>
      <trkpt lat="45.93475" lon="5.00338">
        <ele>295</ele>
        <time>2018-03-08T11:20:52Z</time>
      </trkpt>
      <trkpt lat="45.93471" lon="5.00341">
        <ele>295</ele>
        <time>2018-03-08T11:20:53Z</time>
      </trkpt>
      <trkpt lat="45.93465" lon="5.00346">
        <ele>295</ele>
        <time>2018-03-08T11:20:55Z</time>
      </trkpt>
      <trkpt lat="45.93461" lon="5.00349">
        <ele>295</ele>
        <time>2018-03-08T11:20:56Z</time>
      </trkpt>
      <trkpt lat="45.93455" lon="5.00356">
        <ele>295</ele>
        <time>2018-03-08T11:20:58Z</time>
      </trkpt>
      <trkpt lat="45.93452" lon="5.00358">
        <ele>295</ele>
        <time>2018-03-08T11:20:59Z</time>
      </trkpt>
      <trkpt lat="45.93445" lon="5.00359">
        <ele>296</ele>
        <time>2018-03-08T11:21:00Z</time>
      </trkpt>
      <trkpt lat="45.93441" lon="5.00363">
        <ele>296</ele>
        <time>2018-03-08T11:21:01Z</time>
      </trkpt>
      <trkpt lat="45.93434" lon="5.00364">
        <ele>296</ele>
        <time>2018-03-08T11:21:02Z</time>
      </trkpt>
      <trkpt lat="45.9343" lon="5.00367">
        <ele>296</ele>
        <time>2018-03-08T11:21:03Z</time>
      </trkpt>
      <trkpt lat="45.93426" lon="5.0037">
        <ele>296</ele>
        <time>2018-03-08T11:21:04Z</time>
      </trkpt>
      <trkpt lat="45.93419" lon="5.00371">
        <ele>296</ele>
        <time>2018-03-08T11:21:05Z</time>
      </trkpt>
      <trkpt lat="45.93414" lon="5.00373">
        <ele>297</ele>
        <time>2018-03-08T11:21:06Z</time>
      </trkpt>
      <trkpt lat="45.9341" lon="5.00375">
        <ele>297</ele>
        <time>2018-03-08T11:21:07Z</time>
      </trkpt>
      <trkpt lat="45.93406" lon="5.00378">
        <ele>297</ele>
        <time>2018-03-08T11:21:09Z</time>
      </trkpt>
      <trkpt lat="45.93402" lon="5.00382">
        <ele>297</ele>
        <time>2018-03-08T11:21:10Z</time>
      </trkpt>
      <trkpt lat="45.93396" lon="5.0039">
        <ele>297</ele>
        <time>2018-03-08T11:21:12Z</time>
      </trkpt>
      <trkpt lat="45.93391" lon="5.00393">
        <ele>297</ele>
        <time>2018-03-08T11:21:13Z</time>
      </trkpt>
      <trkpt lat="45.93387" lon="5.00397">
        <ele>297</ele>
        <time>2018-03-08T11:21:14Z</time>
      </trkpt>
      <trkpt lat="45.93383" lon="5.00401">
        <ele>297</ele>
        <time>2018-03-08T11:21:15Z</time>
      </trkpt>
      <trkpt lat="45.93379" lon="5.00404">
        <ele>297</ele>
        <time>2018-03-08T11:21:16Z</time>
      </trkpt>
      <trkpt lat="45.93375" lon="5.00408">
        <ele>297</ele>
        <time>2018-03-08T11:21:17Z</time>
      </trkpt>
      <trkpt lat="45.9337" lon="5.00413">
        <ele>297</ele>
        <time>2018-03-08T11:21:18Z</time>
      </trkpt>
      <trkpt lat="45.93366" lon="5.00417">
        <ele>297</ele>
        <time>2018-03-08T11:21:19Z</time>
      </trkpt>
      <trkpt lat="45.93362" lon="5.00422">
        <ele>297</ele>
        <time>2018-03-08T11:21:20Z</time>
      </trkpt>
      <trkpt lat="45.93358" lon="5.00426">
        <ele>297</ele>
        <time>2018-03-08T11:21:21Z</time>
      </trkpt>
      <trkpt lat="45.93354" lon="5.00431">
        <ele>297</ele>
        <time>2018-03-08T11:21:22Z</time>
      </trkpt>
      <trkpt lat="45.9335" lon="5.00435">
        <ele>297</ele>
        <time>2018-03-08T11:21:23Z</time>
      </trkpt>
      <trkpt lat="45.93344" lon="5.0044">
        <ele>297</ele>
        <time>2018-03-08T11:21:24Z</time>
      </trkpt>
      <trkpt lat="45.9334" lon="5.00444">
        <ele>297</ele>
        <time>2018-03-08T11:21:25Z</time>
      </trkpt>
      <trkpt lat="45.93336" lon="5.00449">
        <ele>297</ele>
        <time>2018-03-08T11:21:26Z</time>
      </trkpt>
      <trkpt lat="45.93331" lon="5.00453">
        <ele>295</ele>
        <time>2018-03-08T11:21:27Z</time>
      </trkpt>
      <trkpt lat="45.93329" lon="5.00457">
        <ele>295</ele>
        <time>2018-03-08T11:21:28Z</time>
      </trkpt>
      <trkpt lat="45.93324" lon="5.00462">
        <ele>295</ele>
        <time>2018-03-08T11:21:29Z</time>
      </trkpt>
      <trkpt lat="45.93319" lon="5.0047">
        <ele>295</ele>
        <time>2018-03-08T11:21:31Z</time>
      </trkpt>
      <trkpt lat="45.93316" lon="5.00475">
        <ele>295</ele>
        <time>2018-03-08T11:21:32Z</time>
      </trkpt>
      <trkpt lat="45.93313" lon="5.0048">
        <ele>295</ele>
        <time>2018-03-08T11:21:33Z</time>
      </trkpt>
      <trkpt lat="45.9331" lon="5.00487">
        <ele>295</ele>
        <time>2018-03-08T11:21:34Z</time>
      </trkpt>
      <trkpt lat="45.93307" lon="5.00493">
        <ele>295</ele>
        <time>2018-03-08T11:21:35Z</time>
      </trkpt>
      <trkpt lat="45.93304" lon="5.00497">
        <ele>295</ele>
        <time>2018-03-08T11:21:36Z</time>
      </trkpt>
      <trkpt lat="45.933" lon="5.00505">
        <ele>296</ele>
        <time>2018-03-08T11:21:37Z</time>
      </trkpt>
      <trkpt lat="45.933" lon="5.00513">
        <ele>296</ele>
        <time>2018-03-08T11:21:38Z</time>
      </trkpt>
      <trkpt lat="45.93297" lon="5.00519">
        <ele>296</ele>
        <time>2018-03-08T11:21:39Z</time>
      </trkpt>
      <trkpt lat="45.93294" lon="5.00525">
        <ele>296</ele>
        <time>2018-03-08T11:21:40Z</time>
      </trkpt>
      <trkpt lat="45.93289" lon="5.00536">
        <ele>296</ele>
        <time>2018-03-08T11:21:42Z</time>
      </trkpt>
      <trkpt lat="45.93287" lon="5.00539">
        <ele>296</ele>
        <time>2018-03-08T11:21:43Z</time>
      </trkpt>
      <trkpt lat="45.93283" lon="5.00547">
        <ele>296</ele>
        <time>2018-03-08T11:21:44Z</time>
      </trkpt>
      <trkpt lat="45.93279" lon="5.00551">
        <ele>295</ele>
        <time>2018-03-08T11:21:45Z</time>
      </trkpt>
      <trkpt lat="45.93275" lon="5.00557">
        <ele>295</ele>
        <time>2018-03-08T11:21:46Z</time>
      </trkpt>
      <trkpt lat="45.93269" lon="5.00562">
        <ele>295</ele>
        <time>2018-03-08T11:21:47Z</time>
      </trkpt>
      <trkpt lat="45.93265" lon="5.00566">
        <ele>295</ele>
        <time>2018-03-08T11:21:48Z</time>
      </trkpt>
      <trkpt lat="45.93261" lon="5.00572">
        <ele>295</ele>
        <time>2018-03-08T11:21:49Z</time>
      </trkpt>
      <trkpt lat="45.93257" lon="5.00575">
        <ele>295</ele>
        <time>2018-03-08T11:21:50Z</time>
      </trkpt>
      <trkpt lat="45.93253" lon="5.00581">
        <ele>294</ele>
        <time>2018-03-08T11:21:51Z</time>
      </trkpt>
      <trkpt lat="45.93247" lon="5.00584">
        <ele>294</ele>
        <time>2018-03-08T11:21:52Z</time>
      </trkpt>
      <trkpt lat="45.93244" lon="5.0059">
        <ele>293</ele>
        <time>2018-03-08T11:21:53Z</time>
      </trkpt>
      <trkpt lat="45.93239" lon="5.00593">
        <ele>293</ele>
        <time>2018-03-08T11:21:54Z</time>
      </trkpt>
      <trkpt lat="45.93234" lon="5.00598">
        <ele>292</ele>
        <time>2018-03-08T11:21:55Z</time>
      </trkpt>
      <trkpt lat="45.93229" lon="5.00602">
        <ele>292</ele>
        <time>2018-03-08T11:21:56Z</time>
      </trkpt>
      <trkpt lat="45.93223" lon="5.00605">
        <ele>292</ele>
        <time>2018-03-08T11:21:57Z</time>
      </trkpt>
      <trkpt lat="45.93219" lon="5.00607">
        <ele>292</ele>
        <time>2018-03-08T11:21:58Z</time>
      </trkpt>
      <trkpt lat="45.93214" lon="5.00611">
        <ele>291</ele>
        <time>2018-03-08T11:21:59Z</time>
      </trkpt>
      <trkpt lat="45.93208" lon="5.00615">
        <ele>291</ele>
        <time>2018-03-08T11:22:00Z</time>
      </trkpt>
      <trkpt lat="45.93204" lon="5.00621">
        <ele>291</ele>
        <time>2018-03-08T11:22:01Z</time>
      </trkpt>
      <trkpt lat="45.93197" lon="5.00622">
        <ele>291</ele>
        <time>2018-03-08T11:22:03Z</time>
      </trkpt>
      <trkpt lat="45.93195" lon="5.00624">
        <ele>291</ele>
        <time>2018-03-08T11:22:04Z</time>
      </trkpt>
      <trkpt lat="45.93193" lon="5.00625">
        <ele>291</ele>
        <time>2018-03-08T11:22:05Z</time>
      </trkpt>
      <trkpt lat="45.93183" lon="5.00628">
        <ele>290</ele>
        <time>2018-03-08T11:22:06Z</time>
      </trkpt>
      <trkpt lat="45.93179" lon="5.00631">
        <ele>290</ele>
        <time>2018-03-08T11:22:07Z</time>
      </trkpt>
      <trkpt lat="45.93172" lon="5.00633">
        <ele>290</ele>
        <time>2018-03-08T11:22:08Z</time>
      </trkpt>
      <trkpt lat="45.93166" lon="5.00635">
        <ele>287</ele>
        <time>2018-03-08T11:22:09Z</time>
      </trkpt>
      <trkpt lat="45.93161" lon="5.00634">
        <ele>287</ele>
        <time>2018-03-08T11:22:10Z</time>
      </trkpt>
      <trkpt lat="45.93152" lon="5.00633">
        <ele>287</ele>
        <time>2018-03-08T11:22:12Z</time>
      </trkpt>
      <trkpt lat="45.93147" lon="5.00634">
        <ele>287</ele>
        <time>2018-03-08T11:22:13Z</time>
      </trkpt>
      <trkpt lat="45.9314" lon="5.00632">
        <ele>287</ele>
        <time>2018-03-08T11:22:14Z</time>
      </trkpt>
      <trkpt lat="45.93136" lon="5.00632">
        <ele>287</ele>
        <time>2018-03-08T11:22:15Z</time>
      </trkpt>
      <trkpt lat="45.93131" lon="5.00633">
        <ele>287</ele>
        <time>2018-03-08T11:22:16Z</time>
      </trkpt>
      <trkpt lat="45.93126" lon="5.00634">
        <ele>287</ele>
        <time>2018-03-08T11:22:17Z</time>
      </trkpt>
      <trkpt lat="45.93122" lon="5.00634">
        <ele>286</ele>
        <time>2018-03-08T11:22:18Z</time>
      </trkpt>
      <trkpt lat="45.93117" lon="5.00635">
        <ele>286</ele>
        <time>2018-03-08T11:22:19Z</time>
      </trkpt>
      <trkpt lat="45.9311" lon="5.00638">
        <ele>286</ele>
        <time>2018-03-08T11:22:21Z</time>
      </trkpt>
      <trkpt lat="45.93104" lon="5.00639">
        <ele>286</ele>
        <time>2018-03-08T11:22:22Z</time>
      </trkpt>
      <trkpt lat="45.93098" lon="5.0064">
        <ele>286</ele>
        <time>2018-03-08T11:22:23Z</time>
      </trkpt>
      <trkpt lat="45.93092" lon="5.0064">
        <ele>286</ele>
        <time>2018-03-08T11:22:24Z</time>
      </trkpt>
      <trkpt lat="45.93087" lon="5.0064">
        <ele>286</ele>
        <time>2018-03-08T11:22:25Z</time>
      </trkpt>
      <trkpt lat="45.93081" lon="5.00639">
        <ele>286</ele>
        <time>2018-03-08T11:22:26Z</time>
      </trkpt>
      <trkpt lat="45.93076" lon="5.0064">
        <ele>286</ele>
        <time>2018-03-08T11:22:27Z</time>
      </trkpt>
      <trkpt lat="45.93072" lon="5.00641">
        <ele>286</ele>
        <time>2018-03-08T11:22:28Z</time>
      </trkpt>
      <trkpt lat="45.93067" lon="5.00641">
        <ele>286</ele>
        <time>2018-03-08T11:22:29Z</time>
      </trkpt>
      <trkpt lat="45.9306" lon="5.00643">
        <ele>286</ele>
        <time>2018-03-08T11:22:30Z</time>
      </trkpt>
      <trkpt lat="45.93056" lon="5.00644">
        <ele>286</ele>
        <time>2018-03-08T11:22:31Z</time>
      </trkpt>
      <trkpt lat="45.93051" lon="5.00644">
        <ele>286</ele>
        <time>2018-03-08T11:22:32Z</time>
      </trkpt>
      <trkpt lat="45.93042" lon="5.00646">
        <ele>286</ele>
        <time>2018-03-08T11:22:34Z</time>
      </trkpt>
      <trkpt lat="45.93041" lon="5.00646">
        <ele>286</ele>
        <time>2018-03-08T11:22:35Z</time>
      </trkpt>
      <trkpt lat="45.93035" lon="5.00647">
        <ele>286</ele>
        <time>2018-03-08T11:22:36Z</time>
      </trkpt>
      <trkpt lat="45.93031" lon="5.00646">
        <ele>286</ele>
        <time>2018-03-08T11:22:37Z</time>
      </trkpt>
      <trkpt lat="45.93028" lon="5.00646">
        <ele>286</ele>
        <time>2018-03-08T11:22:38Z</time>
      </trkpt>
      <trkpt lat="45.93021" lon="5.00647">
        <ele>286</ele>
        <time>2018-03-08T11:22:39Z</time>
      </trkpt>
      <trkpt lat="45.93013" lon="5.00649">
        <ele>286</ele>
        <time>2018-03-08T11:22:41Z</time>
      </trkpt>
      <trkpt lat="45.93008" lon="5.00649">
        <ele>286</ele>
        <time>2018-03-08T11:22:42Z</time>
      </trkpt>
      <trkpt lat="45.93004" lon="5.00655">
        <ele>287</ele>
        <time>2018-03-08T11:22:44Z</time>
      </trkpt>
      <trkpt lat="45.93001" lon="5.00658">
        <ele>287</ele>
        <time>2018-03-08T11:22:45Z</time>
      </trkpt>
      <trkpt lat="45.92994" lon="5.00662">
        <ele>287</ele>
        <time>2018-03-08T11:22:47Z</time>
      </trkpt>
      <trkpt lat="45.9299" lon="5.00664">
        <ele>287</ele>
        <time>2018-03-08T11:22:48Z</time>
      </trkpt>
      <trkpt lat="45.92982" lon="5.00669">
        <ele>287</ele>
        <time>2018-03-08T11:22:50Z</time>
      </trkpt>
      <trkpt lat="45.92979" lon="5.0067">
        <ele>287</ele>
        <time>2018-03-08T11:22:51Z</time>
      </trkpt>
      <trkpt lat="45.92971" lon="5.00673">
        <ele>287</ele>
        <time>2018-03-08T11:22:53Z</time>
      </trkpt>
      <trkpt lat="45.92968" lon="5.00676">
        <ele>287</ele>
        <time>2018-03-08T11:22:54Z</time>
      </trkpt>
      <trkpt lat="45.9296" lon="5.00681">
        <ele>287</ele>
        <time>2018-03-08T11:22:57Z</time>
      </trkpt>
      <trkpt lat="45.92954" lon="5.00684">
        <ele>287</ele>
        <time>2018-03-08T11:22:58Z</time>
      </trkpt>
      <trkpt lat="45.92947" lon="5.00688">
        <ele>287</ele>
        <time>2018-03-08T11:23:00Z</time>
      </trkpt>
      <trkpt lat="45.92944" lon="5.00691">
        <ele>287</ele>
        <time>2018-03-08T11:23:01Z</time>
      </trkpt>
      <trkpt lat="45.92937" lon="5.00697">
        <ele>287</ele>
        <time>2018-03-08T11:23:03Z</time>
      </trkpt>
      <trkpt lat="45.92934" lon="5.007">
        <ele>287</ele>
        <time>2018-03-08T11:23:04Z</time>
      </trkpt>
      <trkpt lat="45.92926" lon="5.00705">
        <ele>287</ele>
        <time>2018-03-08T11:23:07Z</time>
      </trkpt>
      <trkpt lat="45.9292" lon="5.00709">
        <ele>287</ele>
        <time>2018-03-08T11:23:08Z</time>
      </trkpt>
      <trkpt lat="45.92913" lon="5.00713">
        <ele>288</ele>
        <time>2018-03-08T11:23:10Z</time>
      </trkpt>
      <trkpt lat="45.92909" lon="5.00716">
        <ele>288</ele>
        <time>2018-03-08T11:23:11Z</time>
      </trkpt>
      <trkpt lat="45.92903" lon="5.0072">
        <ele>288</ele>
        <time>2018-03-08T11:23:13Z</time>
      </trkpt>
      <trkpt lat="45.929" lon="5.00723">
        <ele>288</ele>
        <time>2018-03-08T11:23:14Z</time>
      </trkpt>
      <trkpt lat="45.92892" lon="5.00727">
        <ele>288</ele>
        <time>2018-03-08T11:23:16Z</time>
      </trkpt>
      <trkpt lat="45.9289" lon="5.00728">
        <ele>288</ele>
        <time>2018-03-08T11:23:17Z</time>
      </trkpt>
      <trkpt lat="45.92883" lon="5.00733">
        <ele>288</ele>
        <time>2018-03-08T11:23:20Z</time>
      </trkpt>
      <trkpt lat="45.92878" lon="5.00738">
        <ele>288</ele>
        <time>2018-03-08T11:23:21Z</time>
      </trkpt>
      <trkpt lat="45.92871" lon="5.00746">
        <ele>287</ele>
        <time>2018-03-08T11:23:24Z</time>
      </trkpt>
      <trkpt lat="45.92867" lon="5.00752">
        <ele>287</ele>
        <time>2018-03-08T11:23:25Z</time>
      </trkpt>
      <trkpt lat="45.92862" lon="5.00761">
        <ele>287</ele>
        <time>2018-03-08T11:23:28Z</time>
      </trkpt>
      <trkpt lat="45.9286" lon="5.00764">
        <ele>287</ele>
        <time>2018-03-08T11:23:29Z</time>
      </trkpt>
      <trkpt lat="45.92856" lon="5.00772">
        <ele>287</ele>
        <time>2018-03-08T11:23:30Z</time>
      </trkpt>
      <trkpt lat="45.92854" lon="5.00777">
        <ele>287</ele>
        <time>2018-03-08T11:23:31Z</time>
      </trkpt>
      <trkpt lat="45.9285" lon="5.00784">
        <ele>287</ele>
        <time>2018-03-08T11:23:33Z</time>
      </trkpt>
      <trkpt lat="45.92845" lon="5.00793">
        <ele>287</ele>
        <time>2018-03-08T11:23:34Z</time>
      </trkpt>
      <trkpt lat="45.92841" lon="5.00798">
        <ele>287</ele>
        <time>2018-03-08T11:23:35Z</time>
      </trkpt>
      <trkpt lat="45.92838" lon="5.00805">
        <ele>287</ele>
        <time>2018-03-08T11:23:36Z</time>
      </trkpt>
      <trkpt lat="45.92834" lon="5.00811">
        <ele>287</ele>
        <time>2018-03-08T11:23:37Z</time>
      </trkpt>
      <trkpt lat="45.92832" lon="5.00816">
        <ele>287</ele>
        <time>2018-03-08T11:23:38Z</time>
      </trkpt>
      <trkpt lat="45.92827" lon="5.00825">
        <ele>287</ele>
        <time>2018-03-08T11:23:40Z</time>
      </trkpt>
      <trkpt lat="45.92825" lon="5.0083">
        <ele>287</ele>
        <time>2018-03-08T11:23:41Z</time>
      </trkpt>
      <trkpt lat="45.92821" lon="5.00836">
        <ele>287</ele>
        <time>2018-03-08T11:23:42Z</time>
      </trkpt>
      <trkpt lat="45.92819" lon="5.00841">
        <ele>287</ele>
        <time>2018-03-08T11:23:43Z</time>
      </trkpt>
      <trkpt lat="45.92816" lon="5.00846">
        <ele>287</ele>
        <time>2018-03-08T11:23:44Z</time>
      </trkpt>
      <trkpt lat="45.92812" lon="5.0085">
        <ele>287</ele>
        <time>2018-03-08T11:23:45Z</time>
      </trkpt>
      <trkpt lat="45.92809" lon="5.00856">
        <ele>287</ele>
        <time>2018-03-08T11:23:46Z</time>
      </trkpt>
      <trkpt lat="45.92805" lon="5.00861">
        <ele>287</ele>
        <time>2018-03-08T11:23:47Z</time>
      </trkpt>
      <trkpt lat="45.92801" lon="5.00866">
        <ele>287</ele>
        <time>2018-03-08T11:23:48Z</time>
      </trkpt>
      <trkpt lat="45.92797" lon="5.00871">
        <ele>287</ele>
        <time>2018-03-08T11:23:49Z</time>
      </trkpt>
      <trkpt lat="45.92793" lon="5.00874">
        <ele>287</ele>
        <time>2018-03-08T11:23:50Z</time>
      </trkpt>
      <trkpt lat="45.92789" lon="5.0088">
        <ele>287</ele>
        <time>2018-03-08T11:23:51Z</time>
      </trkpt>
      <trkpt lat="45.92787" lon="5.00888">
        <ele>287</ele>
        <time>2018-03-08T11:23:52Z</time>
      </trkpt>
      <trkpt lat="45.92783" lon="5.00893">
        <ele>287</ele>
        <time>2018-03-08T11:23:53Z</time>
      </trkpt>
      <trkpt lat="45.92777" lon="5.00897">
        <ele>287</ele>
        <time>2018-03-08T11:23:54Z</time>
      </trkpt>
      <trkpt lat="45.92773" lon="5.00902">
        <ele>287</ele>
        <time>2018-03-08T11:23:55Z</time>
      </trkpt>
      <trkpt lat="45.92768" lon="5.00904">
        <ele>287</ele>
        <time>2018-03-08T11:23:56Z</time>
      </trkpt>
      <trkpt lat="45.92765" lon="5.0091">
        <ele>287</ele>
        <time>2018-03-08T11:23:57Z</time>
      </trkpt>
      <trkpt lat="45.92761" lon="5.00914">
        <ele>287</ele>
        <time>2018-03-08T11:23:58Z</time>
      </trkpt>
      <trkpt lat="45.92758" lon="5.00919">
        <ele>287</ele>
        <time>2018-03-08T11:23:59Z</time>
      </trkpt>
      <trkpt lat="45.92753" lon="5.00923">
        <ele>287</ele>
        <time>2018-03-08T11:24:00Z</time>
      </trkpt>
      <trkpt lat="45.92749" lon="5.00927">
        <ele>287</ele>
        <time>2018-03-08T11:24:01Z</time>
      </trkpt>
      <trkpt lat="45.92743" lon="5.00935">
        <ele>287</ele>
        <time>2018-03-08T11:24:03Z</time>
      </trkpt>
      <trkpt lat="45.92739" lon="5.00938">
        <ele>287</ele>
        <time>2018-03-08T11:24:04Z</time>
      </trkpt>
      <trkpt lat="45.92736" lon="5.00943">
        <ele>287</ele>
        <time>2018-03-08T11:24:05Z</time>
      </trkpt>
      <trkpt lat="45.92731" lon="5.00945">
        <ele>287</ele>
        <time>2018-03-08T11:24:06Z</time>
      </trkpt>
      <trkpt lat="45.92727" lon="5.00952">
        <ele>287</ele>
        <time>2018-03-08T11:24:07Z</time>
      </trkpt>
      <trkpt lat="45.92723" lon="5.00955">
        <ele>287</ele>
        <time>2018-03-08T11:24:08Z</time>
      </trkpt>
      <trkpt lat="45.92719" lon="5.0096">
        <ele>287</ele>
        <time>2018-03-08T11:24:09Z</time>
      </trkpt>
      <trkpt lat="45.92716" lon="5.00966">
        <ele>287</ele>
        <time>2018-03-08T11:24:10Z</time>
      </trkpt>
      <trkpt lat="45.92711" lon="5.00973">
        <ele>287</ele>
        <time>2018-03-08T11:24:12Z</time>
      </trkpt>
      <trkpt lat="45.92706" lon="5.00981">
        <ele>287</ele>
        <time>2018-03-08T11:24:13Z</time>
      </trkpt>
      <trkpt lat="45.92699" lon="5.00986">
        <ele>287</ele>
        <time>2018-03-08T11:24:15Z</time>
      </trkpt>
      <trkpt lat="45.92695" lon="5.00991">
        <ele>287</ele>
        <time>2018-03-08T11:24:16Z</time>
      </trkpt>
      <trkpt lat="45.92691" lon="5.00995">
        <ele>288</ele>
        <time>2018-03-08T11:24:17Z</time>
      </trkpt>
      <trkpt lat="45.92687" lon="5.00998">
        <ele>288</ele>
        <time>2018-03-08T11:24:18Z</time>
      </trkpt>
      <trkpt lat="45.92679" lon="5.01004">
        <ele>288</ele>
        <time>2018-03-08T11:24:20Z</time>
      </trkpt>
      <trkpt lat="45.92674" lon="5.01005">
        <ele>289</ele>
        <time>2018-03-08T11:24:21Z</time>
      </trkpt>
      <trkpt lat="45.92666" lon="5.01009">
        <ele>289</ele>
        <time>2018-03-08T11:24:24Z</time>
      </trkpt>
      <trkpt lat="45.92659" lon="5.01011">
        <ele>289</ele>
        <time>2018-03-08T11:24:25Z</time>
      </trkpt>
      <trkpt lat="45.92651" lon="5.01018">
        <ele>289</ele>
        <time>2018-03-08T11:24:26Z</time>
      </trkpt>
      <trkpt lat="45.92643" lon="5.01021">
        <ele>289</ele>
        <time>2018-03-08T11:24:32Z</time>
      </trkpt>
      <trkpt lat="45.92642" lon="5.01021">
        <ele>289</ele>
        <time>2018-03-08T11:24:33Z</time>
      </trkpt>
      <trkpt lat="45.92633" lon="5.01024">
        <ele>288</ele>
        <time>2018-03-08T11:24:36Z</time>
      </trkpt>
      <trkpt lat="45.92622" lon="5.01028">
        <ele>288</ele>
        <time>2018-03-08T11:24:37Z</time>
      </trkpt>
      <trkpt lat="45.92616" lon="5.01028">
        <ele>288</ele>
        <time>2018-03-08T11:24:38Z</time>
      </trkpt>
      <trkpt lat="45.92612" lon="5.01029">
        <ele>288</ele>
        <time>2018-03-08T11:24:39Z</time>
      </trkpt>
      <trkpt lat="45.92605" lon="5.0103">
        <ele>288</ele>
        <time>2018-03-08T11:24:41Z</time>
      </trkpt>
      <trkpt lat="45.926" lon="5.01033">
        <ele>288</ele>
        <time>2018-03-08T11:24:42Z</time>
      </trkpt>
      <trkpt lat="45.92592" lon="5.01035">
        <ele>288</ele>
        <time>2018-03-08T11:24:46Z</time>
      </trkpt>
      <trkpt lat="45.92589" lon="5.01036">
        <ele>288</ele>
        <time>2018-03-08T11:24:47Z</time>
      </trkpt>
      <trkpt lat="45.92583" lon="5.01039">
        <ele>288</ele>
        <time>2018-03-08T11:24:49Z</time>
      </trkpt>
      <trkpt lat="45.92579" lon="5.0104">
        <ele>288</ele>
        <time>2018-03-08T11:24:50Z</time>
      </trkpt>
      <trkpt lat="45.92571" lon="5.01042">
        <ele>288</ele>
        <time>2018-03-08T11:24:52Z</time>
      </trkpt>
      <trkpt lat="45.92567" lon="5.01043">
        <ele>288</ele>
        <time>2018-03-08T11:24:53Z</time>
      </trkpt>
      <trkpt lat="45.9256" lon="5.01045">
        <ele>288</ele>
        <time>2018-03-08T11:24:55Z</time>
      </trkpt>
      <trkpt lat="45.92557" lon="5.01047">
        <ele>288</ele>
        <time>2018-03-08T11:24:56Z</time>
      </trkpt>
      <trkpt lat="45.9255" lon="5.01049">
        <ele>288</ele>
        <time>2018-03-08T11:24:58Z</time>
      </trkpt>
      <trkpt lat="45.92546" lon="5.0105">
        <ele>288</ele>
        <time>2018-03-08T11:24:59Z</time>
      </trkpt>
      <trkpt lat="45.9254" lon="5.01052">
        <ele>288</ele>
        <time>2018-03-08T11:25:01Z</time>
      </trkpt>
      <trkpt lat="45.92537" lon="5.01053">
        <ele>288</ele>
        <time>2018-03-08T11:25:02Z</time>
      </trkpt>
      <trkpt lat="45.92531" lon="5.01055">
        <ele>288</ele>
        <time>2018-03-08T11:25:04Z</time>
      </trkpt>
      <trkpt lat="45.92527" lon="5.01056">
        <ele>288</ele>
        <time>2018-03-08T11:25:05Z</time>
      </trkpt>
      <trkpt lat="45.92521" lon="5.01057">
        <ele>288</ele>
        <time>2018-03-08T11:25:07Z</time>
      </trkpt>
      <trkpt lat="45.92518" lon="5.01058">
        <ele>288</ele>
        <time>2018-03-08T11:25:08Z</time>
      </trkpt>
      <trkpt lat="45.92515" lon="5.01058">
        <ele>288</ele>
        <time>2018-03-08T11:25:09Z</time>
      </trkpt>
      <trkpt lat="45.92505" lon="5.01059">
        <ele>288</ele>
        <time>2018-03-08T11:25:10Z</time>
      </trkpt>
      <trkpt lat="45.92498" lon="5.01059">
        <ele>288</ele>
        <time>2018-03-08T11:25:13Z</time>
      </trkpt>
      <trkpt lat="45.92496" lon="5.01059">
        <ele>288</ele>
        <time>2018-03-08T11:25:14Z</time>
      </trkpt>
      <trkpt lat="45.92487" lon="5.0106">
        <ele>288</ele>
        <time>2018-03-08T11:25:17Z</time>
      </trkpt>
      <trkpt lat="45.92484" lon="5.0106">
        <ele>288</ele>
        <time>2018-03-08T11:25:18Z</time>
      </trkpt>
      <trkpt lat="45.92478" lon="5.01061">
        <ele>288</ele>
        <time>2018-03-08T11:25:20Z</time>
      </trkpt>
      <trkpt lat="45.92475" lon="5.01061">
        <ele>288</ele>
        <time>2018-03-08T11:25:21Z</time>
      </trkpt>
      <trkpt lat="45.92468" lon="5.01062">
        <ele>288</ele>
        <time>2018-03-08T11:25:23Z</time>
      </trkpt>
      <trkpt lat="45.92458" lon="5.01063">
        <ele>288</ele>
        <time>2018-03-08T11:25:24Z</time>
      </trkpt>
      <trkpt lat="45.92451" lon="5.01064">
        <ele>288</ele>
        <time>2018-03-08T11:25:27Z</time>
      </trkpt>
      <trkpt lat="45.92448" lon="5.01065">
        <ele>288</ele>
        <time>2018-03-08T11:25:28Z</time>
      </trkpt>
      <trkpt lat="45.9244" lon="5.01066">
        <ele>288</ele>
        <time>2018-03-08T11:25:31Z</time>
      </trkpt>
      <trkpt lat="45.92437" lon="5.01067">
        <ele>288</ele>
        <time>2018-03-08T11:25:32Z</time>
      </trkpt>
      <trkpt lat="45.9243" lon="5.01068">
        <ele>289</ele>
        <time>2018-03-08T11:25:34Z</time>
      </trkpt>
      <trkpt lat="45.92427" lon="5.01069">
        <ele>289</ele>
        <time>2018-03-08T11:25:35Z</time>
      </trkpt>
      <trkpt lat="45.92421" lon="5.0107">
        <ele>289</ele>
        <time>2018-03-08T11:25:37Z</time>
      </trkpt>
      <trkpt lat="45.92418" lon="5.01071">
        <ele>289</ele>
        <time>2018-03-08T11:25:38Z</time>
      </trkpt>
      <trkpt lat="45.92412" lon="5.01073">
        <ele>288</ele>
        <time>2018-03-08T11:25:40Z</time>
      </trkpt>
      <trkpt lat="45.92409" lon="5.01075">
        <ele>288</ele>
        <time>2018-03-08T11:25:41Z</time>
      </trkpt>
      <trkpt lat="45.92402" lon="5.01079">
        <ele>288</ele>
        <time>2018-03-08T11:25:43Z</time>
      </trkpt>
      <trkpt lat="45.92399" lon="5.01081">
        <ele>288</ele>
        <time>2018-03-08T11:25:44Z</time>
      </trkpt>
      <trkpt lat="45.92393" lon="5.01085">
        <ele>288</ele>
        <time>2018-03-08T11:25:46Z</time>
      </trkpt>
      <trkpt lat="45.92391" lon="5.01088">
        <ele>288</ele>
        <time>2018-03-08T11:25:47Z</time>
      </trkpt>
      <trkpt lat="45.92385" lon="5.01094">
        <ele>288</ele>
        <time>2018-03-08T11:25:49Z</time>
      </trkpt>
      <trkpt lat="45.92383" lon="5.01096">
        <ele>288</ele>
        <time>2018-03-08T11:25:50Z</time>
      </trkpt>
      <trkpt lat="45.92376" lon="5.01104">
        <ele>288</ele>
        <time>2018-03-08T11:25:51Z</time>
      </trkpt>
      <trkpt lat="45.92369" lon="5.01111">
        <ele>288</ele>
        <time>2018-03-08T11:25:53Z</time>
      </trkpt>
      <trkpt lat="45.92366" lon="5.01114">
        <ele>288</ele>
        <time>2018-03-08T11:25:54Z</time>
      </trkpt>
      <trkpt lat="45.9236" lon="5.01119">
        <ele>288</ele>
        <time>2018-03-08T11:25:56Z</time>
      </trkpt>
      <trkpt lat="45.92353" lon="5.01122">
        <ele>288</ele>
        <time>2018-03-08T11:25:57Z</time>
      </trkpt>
      <trkpt lat="45.92349" lon="5.01124">
        <ele>288</ele>
        <time>2018-03-08T11:25:58Z</time>
      </trkpt>
      <trkpt lat="45.92343" lon="5.01126">
        <ele>288</ele>
        <time>2018-03-08T11:25:59Z</time>
      </trkpt>
      <trkpt lat="45.92338" lon="5.01128">
        <ele>288</ele>
        <time>2018-03-08T11:26:00Z</time>
      </trkpt>
      <trkpt lat="45.92332" lon="5.0113">
        <ele>286</ele>
        <time>2018-03-08T11:26:01Z</time>
      </trkpt>
      <trkpt lat="45.92327" lon="5.01131">
        <ele>286</ele>
        <time>2018-03-08T11:26:02Z</time>
      </trkpt>
      <trkpt lat="45.92321" lon="5.01133">
        <ele>286</ele>
        <time>2018-03-08T11:26:03Z</time>
      </trkpt>
      <trkpt lat="45.92316" lon="5.01135">
        <ele>286</ele>
        <time>2018-03-08T11:26:04Z</time>
      </trkpt>
      <trkpt lat="45.9231" lon="5.01137">
        <ele>286</ele>
        <time>2018-03-08T11:26:05Z</time>
      </trkpt>
      <trkpt lat="45.92305" lon="5.01139">
        <ele>286</ele>
        <time>2018-03-08T11:26:06Z</time>
      </trkpt>
      <trkpt lat="45.923" lon="5.0114">
        <ele>286</ele>
        <time>2018-03-08T11:26:07Z</time>
      </trkpt>
      <trkpt lat="45.92294" lon="5.01142">
        <ele>286</ele>
        <time>2018-03-08T11:26:08Z</time>
      </trkpt>
      <trkpt lat="45.92289" lon="5.01145">
        <ele>286</ele>
        <time>2018-03-08T11:26:09Z</time>
      </trkpt>
      <trkpt lat="45.92284" lon="5.01146">
        <ele>286</ele>
        <time>2018-03-08T11:26:10Z</time>
      </trkpt>
      <trkpt lat="45.92279" lon="5.01148">
        <ele>286</ele>
        <time>2018-03-08T11:26:11Z</time>
      </trkpt>
      <trkpt lat="45.92274" lon="5.01151">
        <ele>286</ele>
        <time>2018-03-08T11:26:12Z</time>
      </trkpt>
      <trkpt lat="45.92268" lon="5.01154">
        <ele>286</ele>
        <time>2018-03-08T11:26:13Z</time>
      </trkpt>
      <trkpt lat="45.92263" lon="5.01157">
        <ele>286</ele>
        <time>2018-03-08T11:26:14Z</time>
      </trkpt>
      <trkpt lat="45.92258" lon="5.01156">
        <ele>285</ele>
        <time>2018-03-08T11:26:15Z</time>
      </trkpt>
      <trkpt lat="45.92253" lon="5.01158">
        <ele>285</ele>
        <time>2018-03-08T11:26:16Z</time>
      </trkpt>
      <trkpt lat="45.92247" lon="5.0116">
        <ele>285</ele>
        <time>2018-03-08T11:26:17Z</time>
      </trkpt>
      <trkpt lat="45.92242" lon="5.01158">
        <ele>284</ele>
        <time>2018-03-08T11:26:18Z</time>
      </trkpt>
      <trkpt lat="45.92237" lon="5.0116">
        <ele>284</ele>
        <time>2018-03-08T11:26:19Z</time>
      </trkpt>
      <trkpt lat="45.92233" lon="5.01162">
        <ele>284</ele>
        <time>2018-03-08T11:26:20Z</time>
      </trkpt>
      <trkpt lat="45.92228" lon="5.01163">
        <ele>284</ele>
        <time>2018-03-08T11:26:21Z</time>
      </trkpt>
      <trkpt lat="45.92219" lon="5.01166">
        <ele>284</ele>
        <time>2018-03-08T11:26:23Z</time>
      </trkpt>
      <trkpt lat="45.92215" lon="5.01165">
        <ele>284</ele>
        <time>2018-03-08T11:26:24Z</time>
      </trkpt>
      <trkpt lat="45.9221" lon="5.01165">
        <ele>284</ele>
        <time>2018-03-08T11:26:25Z</time>
      </trkpt>
      <trkpt lat="45.92205" lon="5.01165">
        <ele>283</ele>
        <time>2018-03-08T11:26:26Z</time>
      </trkpt>
      <trkpt lat="45.922" lon="5.01165">
        <ele>283</ele>
        <time>2018-03-08T11:26:27Z</time>
      </trkpt>
      <trkpt lat="45.92195" lon="5.01166">
        <ele>283</ele>
        <time>2018-03-08T11:26:28Z</time>
      </trkpt>
      <trkpt lat="45.92191" lon="5.01167">
        <ele>283</ele>
        <time>2018-03-08T11:26:29Z</time>
      </trkpt>
      <trkpt lat="45.92185" lon="5.01168">
        <ele>283</ele>
        <time>2018-03-08T11:26:30Z</time>
      </trkpt>
      <trkpt lat="45.92181" lon="5.01169">
        <ele>283</ele>
        <time>2018-03-08T11:26:31Z</time>
      </trkpt>
      <trkpt lat="45.92176" lon="5.0117">
        <ele>283</ele>
        <time>2018-03-08T11:26:32Z</time>
      </trkpt>
      <trkpt lat="45.92167" lon="5.01173">
        <ele>282</ele>
        <time>2018-03-08T11:26:34Z</time>
      </trkpt>
      <trkpt lat="45.92163" lon="5.01174">
        <ele>282</ele>
        <time>2018-03-08T11:26:35Z</time>
      </trkpt>
      <trkpt lat="45.92158" lon="5.01176">
        <ele>282</ele>
        <time>2018-03-08T11:26:36Z</time>
      </trkpt>
      <trkpt lat="45.92154" lon="5.0118">
        <ele>282</ele>
        <time>2018-03-08T11:26:37Z</time>
      </trkpt>
      <trkpt lat="45.92147" lon="5.01186">
        <ele>282</ele>
        <time>2018-03-08T11:26:39Z</time>
      </trkpt>
      <trkpt lat="45.92143" lon="5.01188">
        <ele>282</ele>
        <time>2018-03-08T11:26:40Z</time>
      </trkpt>
      <trkpt lat="45.92135" lon="5.01194">
        <ele>282</ele>
        <time>2018-03-08T11:26:42Z</time>
      </trkpt>
      <trkpt lat="45.92132" lon="5.01198">
        <ele>282</ele>
        <time>2018-03-08T11:26:43Z</time>
      </trkpt>
      <trkpt lat="45.92127" lon="5.01201">
        <ele>282</ele>
        <time>2018-03-08T11:26:44Z</time>
      </trkpt>
      <trkpt lat="45.92123" lon="5.01204">
        <ele>282</ele>
        <time>2018-03-08T11:26:45Z</time>
      </trkpt>
      <trkpt lat="45.92117" lon="5.01208">
        <ele>282</ele>
        <time>2018-03-08T11:26:47Z</time>
      </trkpt>
      <trkpt lat="45.92112" lon="5.01214">
        <ele>282</ele>
        <time>2018-03-08T11:26:48Z</time>
      </trkpt>
      <trkpt lat="45.92103" lon="5.01218">
        <ele>282</ele>
        <time>2018-03-08T11:26:50Z</time>
      </trkpt>
      <trkpt lat="45.921" lon="5.0122">
        <ele>282</ele>
        <time>2018-03-08T11:26:51Z</time>
      </trkpt>
      <trkpt lat="45.92093" lon="5.01224">
        <ele>282</ele>
        <time>2018-03-08T11:26:53Z</time>
      </trkpt>
      <trkpt lat="45.92089" lon="5.01226">
        <ele>282</ele>
        <time>2018-03-08T11:26:54Z</time>
      </trkpt>
      <trkpt lat="45.92083" lon="5.01231">
        <ele>283</ele>
        <time>2018-03-08T11:26:56Z</time>
      </trkpt>
      <trkpt lat="45.9208" lon="5.01233">
        <ele>283</ele>
        <time>2018-03-08T11:26:57Z</time>
      </trkpt>
      <trkpt lat="45.92074" lon="5.01237">
        <ele>283</ele>
        <time>2018-03-08T11:26:59Z</time>
      </trkpt>
      <trkpt lat="45.92071" lon="5.01239">
        <ele>283</ele>
        <time>2018-03-08T11:27:00Z</time>
      </trkpt>
      <trkpt lat="45.92063" lon="5.01245">
        <ele>283</ele>
        <time>2018-03-08T11:27:04Z</time>
      </trkpt>
      <trkpt lat="45.92061" lon="5.01245">
        <ele>283</ele>
        <time>2018-03-08T11:27:05Z</time>
      </trkpt>
      <trkpt lat="45.92056" lon="5.01242">
        <ele>283</ele>
        <time>2018-03-08T11:28:02Z</time>
      </trkpt>
      <trkpt lat="45.92056" lon="5.01241">
        <ele>283</ele>
        <time>2018-03-08T11:28:03Z</time>
      </trkpt>
      <trkpt lat="45.92056" lon="5.01238">
        <ele>283</ele>
        <time>2018-03-08T11:28:13Z</time>
      </trkpt>
      <trkpt lat="45.92056" lon="5.01238">
        <ele>283</ele>
        <time>2018-03-08T11:28:14Z</time>
      </trkpt>
      <trkpt lat="45.92057" lon="5.0125">
        <ele>283</ele>
        <time>2018-03-08T11:42:11Z</time>
      </trkpt>
      <trkpt lat="45.92057" lon="5.01251">
        <ele>283</ele>
        <time>2018-03-08T11:42:12Z</time>
      </trkpt>
      <trkpt lat="45.9205" lon="5.01258">
        <ele>283</ele>
        <time>2018-03-08T11:42:19Z</time>
      </trkpt>
      <trkpt lat="45.92048" lon="5.01259">
        <ele>283</ele>
        <time>2018-03-08T11:42:20Z</time>
      </trkpt>
      <trkpt lat="45.92042" lon="5.01263">
        <ele>283</ele>
        <time>2018-03-08T11:42:23Z</time>
      </trkpt>
      <trkpt lat="45.9204" lon="5.01264">
        <ele>283</ele>
        <time>2018-03-08T11:42:24Z</time>
      </trkpt>
      <trkpt lat="45.92033" lon="5.01269">
        <ele>284</ele>
        <time>2018-03-08T11:42:27Z</time>
      </trkpt>
      <trkpt lat="45.9203" lon="5.01271">
        <ele>284</ele>
        <time>2018-03-08T11:42:28Z</time>
      </trkpt>
      <trkpt lat="45.92022" lon="5.01275">
        <ele>284</ele>
        <time>2018-03-08T11:42:31Z</time>
      </trkpt>
      <trkpt lat="45.92019" lon="5.01276">
        <ele>284</ele>
        <time>2018-03-08T11:42:32Z</time>
      </trkpt>
      <trkpt lat="45.92012" lon="5.01277">
        <ele>284</ele>
        <time>2018-03-08T11:42:34Z</time>
      </trkpt>
      <trkpt lat="45.92003" lon="5.01279">
        <ele>284</ele>
        <time>2018-03-08T11:42:35Z</time>
      </trkpt>
      <trkpt lat="45.91996" lon="5.0128">
        <ele>285</ele>
        <time>2018-03-08T11:42:38Z</time>
      </trkpt>
      <trkpt lat="45.91993" lon="5.0128">
        <ele>285</ele>
        <time>2018-03-08T11:42:39Z</time>
      </trkpt>
      <trkpt lat="45.91987" lon="5.01281">
        <ele>285</ele>
        <time>2018-03-08T11:42:41Z</time>
      </trkpt>
      <trkpt lat="45.91983" lon="5.01282">
        <ele>285</ele>
        <time>2018-03-08T11:42:42Z</time>
      </trkpt>
      <trkpt lat="45.91976" lon="5.01283">
        <ele>286</ele>
        <time>2018-03-08T11:42:44Z</time>
      </trkpt>
      <trkpt lat="45.91972" lon="5.01283">
        <ele>286</ele>
        <time>2018-03-08T11:42:45Z</time>
      </trkpt>
      <trkpt lat="45.91965" lon="5.01284">
        <ele>286</ele>
        <time>2018-03-08T11:42:47Z</time>
      </trkpt>
      <trkpt lat="45.91961" lon="5.01285">
        <ele>286</ele>
        <time>2018-03-08T11:42:48Z</time>
      </trkpt>
      <trkpt lat="45.91954" lon="5.01285">
        <ele>286</ele>
        <time>2018-03-08T11:42:50Z</time>
      </trkpt>
      <trkpt lat="45.9195" lon="5.01285">
        <ele>286</ele>
        <time>2018-03-08T11:42:51Z</time>
      </trkpt>
      <trkpt lat="45.91941" lon="5.01286">
        <ele>286</ele>
        <time>2018-03-08T11:42:54Z</time>
      </trkpt>
      <trkpt lat="45.91939" lon="5.01287">
        <ele>286</ele>
        <time>2018-03-08T11:42:55Z</time>
      </trkpt>
      <trkpt lat="45.91933" lon="5.01288">
        <ele>286</ele>
        <time>2018-03-08T11:42:57Z</time>
      </trkpt>
      <trkpt lat="45.91929" lon="5.01288">
        <ele>286</ele>
        <time>2018-03-08T11:42:58Z</time>
      </trkpt>
      <trkpt lat="45.91923" lon="5.01289">
        <ele>286</ele>
        <time>2018-03-08T11:43:00Z</time>
      </trkpt>
      <trkpt lat="45.91913" lon="5.01292">
        <ele>286</ele>
        <time>2018-03-08T11:43:01Z</time>
      </trkpt>
      <trkpt lat="45.91906" lon="5.01294">
        <ele>286</ele>
        <time>2018-03-08T11:43:04Z</time>
      </trkpt>
      <trkpt lat="45.91901" lon="5.01295">
        <ele>286</ele>
        <time>2018-03-08T11:43:05Z</time>
      </trkpt>
      <trkpt lat="45.91893" lon="5.01296">
        <ele>286</ele>
        <time>2018-03-08T11:43:07Z</time>
      </trkpt>
      <trkpt lat="45.91889" lon="5.01297">
        <ele>286</ele>
        <time>2018-03-08T11:43:08Z</time>
      </trkpt>
      <trkpt lat="45.91884" lon="5.01299">
        <ele>285</ele>
        <time>2018-03-08T11:43:09Z</time>
      </trkpt>
      <trkpt lat="45.91878" lon="5.013">
        <ele>285</ele>
        <time>2018-03-08T11:43:10Z</time>
      </trkpt>
      <trkpt lat="45.91872" lon="5.013">
        <ele>285</ele>
        <time>2018-03-08T11:43:11Z</time>
      </trkpt>
      <trkpt lat="45.91867" lon="5.013">
        <ele>285</ele>
        <time>2018-03-08T11:43:12Z</time>
      </trkpt>
      <trkpt lat="45.91862" lon="5.01303">
        <ele>285</ele>
        <time>2018-03-08T11:43:13Z</time>
      </trkpt>
      <trkpt lat="45.91856" lon="5.01304">
        <ele>285</ele>
        <time>2018-03-08T11:43:14Z</time>
      </trkpt>
      <trkpt lat="45.91847" lon="5.01305">
        <ele>285</ele>
        <time>2018-03-08T11:43:15Z</time>
      </trkpt>
      <trkpt lat="45.91841" lon="5.01306">
        <ele>284</ele>
        <time>2018-03-08T11:43:16Z</time>
      </trkpt>
      <trkpt lat="45.91835" lon="5.01307">
        <ele>284</ele>
        <time>2018-03-08T11:43:17Z</time>
      </trkpt>
      <trkpt lat="45.9183" lon="5.01308">
        <ele>283</ele>
        <time>2018-03-08T11:43:18Z</time>
      </trkpt>
      <trkpt lat="45.91824" lon="5.01308">
        <ele>283</ele>
        <time>2018-03-08T11:43:19Z</time>
      </trkpt>
      <trkpt lat="45.91819" lon="5.01309">
        <ele>283</ele>
        <time>2018-03-08T11:43:20Z</time>
      </trkpt>
      <trkpt lat="45.91815" lon="5.01309">
        <ele>283</ele>
        <time>2018-03-08T11:43:21Z</time>
      </trkpt>
      <trkpt lat="45.91808" lon="5.0131">
        <ele>283</ele>
        <time>2018-03-08T11:43:22Z</time>
      </trkpt>
      <trkpt lat="45.91802" lon="5.01312">
        <ele>283</ele>
        <time>2018-03-08T11:43:23Z</time>
      </trkpt>
      <trkpt lat="45.91794" lon="5.01312">
        <ele>283</ele>
        <time>2018-03-08T11:43:24Z</time>
      </trkpt>
      <trkpt lat="45.91789" lon="5.01314">
        <ele>283</ele>
        <time>2018-03-08T11:43:25Z</time>
      </trkpt>
      <trkpt lat="45.91784" lon="5.01316">
        <ele>283</ele>
        <time>2018-03-08T11:43:26Z</time>
      </trkpt>
      <trkpt lat="45.91776" lon="5.0132">
        <ele>282</ele>
        <time>2018-03-08T11:43:28Z</time>
      </trkpt>
      <trkpt lat="45.91772" lon="5.0132">
        <ele>282</ele>
        <time>2018-03-08T11:43:29Z</time>
      </trkpt>
      <trkpt lat="45.91767" lon="5.01324">
        <ele>282</ele>
        <time>2018-03-08T11:43:30Z</time>
      </trkpt>
      <trkpt lat="45.91764" lon="5.01328">
        <ele>282</ele>
        <time>2018-03-08T11:43:31Z</time>
      </trkpt>
      <trkpt lat="45.91759" lon="5.01331">
        <ele>282</ele>
        <time>2018-03-08T11:43:32Z</time>
      </trkpt>
      <trkpt lat="45.91754" lon="5.01333">
        <ele>281</ele>
        <time>2018-03-08T11:43:33Z</time>
      </trkpt>
      <trkpt lat="45.91747" lon="5.01337">
        <ele>281</ele>
        <time>2018-03-08T11:43:35Z</time>
      </trkpt>
      <trkpt lat="45.91742" lon="5.01339">
        <ele>281</ele>
        <time>2018-03-08T11:43:36Z</time>
      </trkpt>
      <trkpt lat="45.91737" lon="5.01342">
        <ele>281</ele>
        <time>2018-03-08T11:43:37Z</time>
      </trkpt>
      <trkpt lat="45.91733" lon="5.01344">
        <ele>281</ele>
        <time>2018-03-08T11:43:38Z</time>
      </trkpt>
      <trkpt lat="45.91728" lon="5.01348">
        <ele>280</ele>
        <time>2018-03-08T11:43:39Z</time>
      </trkpt>
      <trkpt lat="45.91724" lon="5.01352">
        <ele>280</ele>
        <time>2018-03-08T11:43:40Z</time>
      </trkpt>
      <trkpt lat="45.91719" lon="5.01354">
        <ele>280</ele>
        <time>2018-03-08T11:43:41Z</time>
      </trkpt>
      <trkpt lat="45.91715" lon="5.01356">
        <ele>280</ele>
        <time>2018-03-08T11:43:42Z</time>
      </trkpt>
      <trkpt lat="45.9171" lon="5.01359">
        <ele>280</ele>
        <time>2018-03-08T11:43:43Z</time>
      </trkpt>
      <trkpt lat="45.91705" lon="5.01362">
        <ele>280</ele>
        <time>2018-03-08T11:43:44Z</time>
      </trkpt>
      <trkpt lat="45.917" lon="5.01365">
        <ele>280</ele>
        <time>2018-03-08T11:43:45Z</time>
      </trkpt>
      <trkpt lat="45.91695" lon="5.01366">
        <ele>280</ele>
        <time>2018-03-08T11:43:46Z</time>
      </trkpt>
      <trkpt lat="45.91691" lon="5.01369">
        <ele>280</ele>
        <time>2018-03-08T11:43:47Z</time>
      </trkpt>
      <trkpt lat="45.91687" lon="5.01371">
        <ele>280</ele>
        <time>2018-03-08T11:43:48Z</time>
      </trkpt>
      <trkpt lat="45.91683" lon="5.01373">
        <ele>280</ele>
        <time>2018-03-08T11:43:49Z</time>
      </trkpt>
      <trkpt lat="45.91679" lon="5.01376">
        <ele>280</ele>
        <time>2018-03-08T11:43:50Z</time>
      </trkpt>
      <trkpt lat="45.91674" lon="5.01378">
        <ele>280</ele>
        <time>2018-03-08T11:43:51Z</time>
      </trkpt>
      <trkpt lat="45.91669" lon="5.01381">
        <ele>280</ele>
        <time>2018-03-08T11:43:52Z</time>
      </trkpt>
      <trkpt lat="45.91664" lon="5.01384">
        <ele>280</ele>
        <time>2018-03-08T11:43:53Z</time>
      </trkpt>
      <trkpt lat="45.91659" lon="5.01387">
        <ele>280</ele>
        <time>2018-03-08T11:43:54Z</time>
      </trkpt>
      <trkpt lat="45.91654" lon="5.0139">
        <ele>280</ele>
        <time>2018-03-08T11:43:55Z</time>
      </trkpt>
      <trkpt lat="45.9165" lon="5.01393">
        <ele>280</ele>
        <time>2018-03-08T11:43:56Z</time>
      </trkpt>
      <trkpt lat="45.91645" lon="5.01395">
        <ele>280</ele>
        <time>2018-03-08T11:43:57Z</time>
      </trkpt>
      <trkpt lat="45.91639" lon="5.01397">
        <ele>280</ele>
        <time>2018-03-08T11:43:58Z</time>
      </trkpt>
      <trkpt lat="45.91635" lon="5.01401">
        <ele>280</ele>
        <time>2018-03-08T11:43:59Z</time>
      </trkpt>
      <trkpt lat="45.91631" lon="5.01405">
        <ele>280</ele>
        <time>2018-03-08T11:44:00Z</time>
      </trkpt>
      <trkpt lat="45.91626" lon="5.01408">
        <ele>280</ele>
        <time>2018-03-08T11:44:01Z</time>
      </trkpt>
      <trkpt lat="45.91622" lon="5.01412">
        <ele>280</ele>
        <time>2018-03-08T11:44:02Z</time>
      </trkpt>
      <trkpt lat="45.91617" lon="5.01416">
        <ele>280</ele>
        <time>2018-03-08T11:44:03Z</time>
      </trkpt>
      <trkpt lat="45.91612" lon="5.0142">
        <ele>280</ele>
        <time>2018-03-08T11:44:04Z</time>
      </trkpt>
      <trkpt lat="45.91607" lon="5.01426">
        <ele>280</ele>
        <time>2018-03-08T11:44:05Z</time>
      </trkpt>
      <trkpt lat="45.91601" lon="5.01431">
        <ele>280</ele>
        <time>2018-03-08T11:44:06Z</time>
      </trkpt>
      <trkpt lat="45.91598" lon="5.01436">
        <ele>280</ele>
        <time>2018-03-08T11:44:07Z</time>
      </trkpt>
      <trkpt lat="45.91593" lon="5.01441">
        <ele>280</ele>
        <time>2018-03-08T11:44:08Z</time>
      </trkpt>
      <trkpt lat="45.91588" lon="5.01446">
        <ele>280</ele>
        <time>2018-03-08T11:44:09Z</time>
      </trkpt>
      <trkpt lat="45.91584" lon="5.01451">
        <ele>280</ele>
        <time>2018-03-08T11:44:10Z</time>
      </trkpt>
      <trkpt lat="45.9158" lon="5.01455">
        <ele>282</ele>
        <time>2018-03-08T11:44:11Z</time>
      </trkpt>
      <trkpt lat="45.91576" lon="5.0146">
        <ele>282</ele>
        <time>2018-03-08T11:44:12Z</time>
      </trkpt>
      <trkpt lat="45.91572" lon="5.01464">
        <ele>282</ele>
        <time>2018-03-08T11:44:13Z</time>
      </trkpt>
      <trkpt lat="45.91568" lon="5.01469">
        <ele>282</ele>
        <time>2018-03-08T11:44:14Z</time>
      </trkpt>
      <trkpt lat="45.91563" lon="5.01473">
        <ele>282</ele>
        <time>2018-03-08T11:44:15Z</time>
      </trkpt>
      <trkpt lat="45.91559" lon="5.01477">
        <ele>282</ele>
        <time>2018-03-08T11:44:16Z</time>
      </trkpt>
      <trkpt lat="45.91555" lon="5.01482">
        <ele>282</ele>
        <time>2018-03-08T11:44:17Z</time>
      </trkpt>
      <trkpt lat="45.91551" lon="5.01487">
        <ele>282</ele>
        <time>2018-03-08T11:44:18Z</time>
      </trkpt>
      <trkpt lat="45.91545" lon="5.01496">
        <ele>282</ele>
        <time>2018-03-08T11:44:20Z</time>
      </trkpt>
      <trkpt lat="45.91542" lon="5.015">
        <ele>281</ele>
        <time>2018-03-08T11:44:21Z</time>
      </trkpt>
      <trkpt lat="45.91534" lon="5.01508">
        <ele>281</ele>
        <time>2018-03-08T11:44:23Z</time>
      </trkpt>
      <trkpt lat="45.91531" lon="5.01513">
        <ele>281</ele>
        <time>2018-03-08T11:44:24Z</time>
      </trkpt>
      <trkpt lat="45.91525" lon="5.01521">
        <ele>281</ele>
        <time>2018-03-08T11:44:26Z</time>
      </trkpt>
      <trkpt lat="45.91522" lon="5.01524">
        <ele>281</ele>
        <time>2018-03-08T11:44:27Z</time>
      </trkpt>
      <trkpt lat="45.91516" lon="5.01532">
        <ele>281</ele>
        <time>2018-03-08T11:44:29Z</time>
      </trkpt>
      <trkpt lat="45.91512" lon="5.01536">
        <ele>281</ele>
        <time>2018-03-08T11:44:30Z</time>
      </trkpt>
      <trkpt lat="45.91505" lon="5.01544">
        <ele>281</ele>
        <time>2018-03-08T11:44:32Z</time>
      </trkpt>
      <trkpt lat="45.91504" lon="5.01546">
        <ele>281</ele>
        <time>2018-03-08T11:44:33Z</time>
      </trkpt>
      <trkpt lat="45.91498" lon="5.01556">
        <ele>283</ele>
        <time>2018-03-08T11:44:35Z</time>
      </trkpt>
      <trkpt lat="45.91496" lon="5.01559">
        <ele>283</ele>
        <time>2018-03-08T11:44:36Z</time>
      </trkpt>
      <trkpt lat="45.91491" lon="5.01567">
        <ele>283</ele>
        <time>2018-03-08T11:44:38Z</time>
      </trkpt>
      <trkpt lat="45.91488" lon="5.01571">
        <ele>283</ele>
        <time>2018-03-08T11:44:39Z</time>
      </trkpt>
      <trkpt lat="45.91484" lon="5.01579">
        <ele>283</ele>
        <time>2018-03-08T11:44:41Z</time>
      </trkpt>
      <trkpt lat="45.91481" lon="5.01583">
        <ele>281</ele>
        <time>2018-03-08T11:44:42Z</time>
      </trkpt>
      <trkpt lat="45.91475" lon="5.01592">
        <ele>281</ele>
        <time>2018-03-08T11:44:44Z</time>
      </trkpt>
      <trkpt lat="45.91471" lon="5.01596">
        <ele>281</ele>
        <time>2018-03-08T11:44:45Z</time>
      </trkpt>
      <trkpt lat="45.91465" lon="5.01605">
        <ele>281</ele>
        <time>2018-03-08T11:44:47Z</time>
      </trkpt>
      <trkpt lat="45.91462" lon="5.01609">
        <ele>281</ele>
        <time>2018-03-08T11:44:48Z</time>
      </trkpt>
      <trkpt lat="45.91454" lon="5.01615">
        <ele>281</ele>
        <time>2018-03-08T11:44:50Z</time>
      </trkpt>
      <trkpt lat="45.9145" lon="5.01617">
        <ele>281</ele>
        <time>2018-03-08T11:44:51Z</time>
      </trkpt>
      <trkpt lat="45.91442" lon="5.0162">
        <ele>281</ele>
        <time>2018-03-08T11:44:53Z</time>
      </trkpt>
      <trkpt lat="45.91438" lon="5.01619">
        <ele>281</ele>
        <time>2018-03-08T11:44:54Z</time>
      </trkpt>
      <trkpt lat="45.91433" lon="5.01619">
        <ele>281</ele>
        <time>2018-03-08T11:44:55Z</time>
      </trkpt>
      <trkpt lat="45.91428" lon="5.01619">
        <ele>281</ele>
        <time>2018-03-08T11:44:56Z</time>
      </trkpt>
      <trkpt lat="45.91424" lon="5.01617">
        <ele>281</ele>
        <time>2018-03-08T11:44:57Z</time>
      </trkpt>
      <trkpt lat="45.91418" lon="5.01616">
        <ele>281</ele>
        <time>2018-03-08T11:44:58Z</time>
      </trkpt>
      <trkpt lat="45.91413" lon="5.01614">
        <ele>280</ele>
        <time>2018-03-08T11:44:59Z</time>
      </trkpt>
      <trkpt lat="45.91409" lon="5.01611">
        <ele>280</ele>
        <time>2018-03-08T11:45:00Z</time>
      </trkpt>
      <trkpt lat="45.91404" lon="5.0161">
        <ele>280</ele>
        <time>2018-03-08T11:45:01Z</time>
      </trkpt>
      <trkpt lat="45.91399" lon="5.01608">
        <ele>280</ele>
        <time>2018-03-08T11:45:02Z</time>
      </trkpt>
      <trkpt lat="45.91394" lon="5.01606">
        <ele>280</ele>
        <time>2018-03-08T11:45:03Z</time>
      </trkpt>
      <trkpt lat="45.9139" lon="5.01604">
        <ele>280</ele>
        <time>2018-03-08T11:45:04Z</time>
      </trkpt>
      <trkpt lat="45.91385" lon="5.01602">
        <ele>279</ele>
        <time>2018-03-08T11:45:05Z</time>
      </trkpt>
      <trkpt lat="45.9138" lon="5.016">
        <ele>279</ele>
        <time>2018-03-08T11:45:06Z</time>
      </trkpt>
      <trkpt lat="45.91375" lon="5.01599">
        <ele>279</ele>
        <time>2018-03-08T11:45:07Z</time>
      </trkpt>
      <trkpt lat="45.9137" lon="5.01597">
        <ele>279</ele>
        <time>2018-03-08T11:45:08Z</time>
      </trkpt>
      <trkpt lat="45.91366" lon="5.01595">
        <ele>279</ele>
        <time>2018-03-08T11:45:09Z</time>
      </trkpt>
      <trkpt lat="45.91361" lon="5.01593">
        <ele>279</ele>
        <time>2018-03-08T11:45:10Z</time>
      </trkpt>
      <trkpt lat="45.91352" lon="5.0159">
        <ele>278</ele>
        <time>2018-03-08T11:45:12Z</time>
      </trkpt>
      <trkpt lat="45.91348" lon="5.01588">
        <ele>278</ele>
        <time>2018-03-08T11:45:13Z</time>
      </trkpt>
      <trkpt lat="45.91343" lon="5.01587">
        <ele>278</ele>
        <time>2018-03-08T11:45:14Z</time>
      </trkpt>
      <trkpt lat="45.91338" lon="5.01586">
        <ele>278</ele>
        <time>2018-03-08T11:45:15Z</time>
      </trkpt>
      <trkpt lat="45.91333" lon="5.01585">
        <ele>278</ele>
        <time>2018-03-08T11:45:16Z</time>
      </trkpt>
      <trkpt lat="45.91328" lon="5.01584">
        <ele>277</ele>
        <time>2018-03-08T11:45:17Z</time>
      </trkpt>
      <trkpt lat="45.91323" lon="5.01584">
        <ele>277</ele>
        <time>2018-03-08T11:45:18Z</time>
      </trkpt>
      <trkpt lat="45.91317" lon="5.01583">
        <ele>277</ele>
        <time>2018-03-08T11:45:19Z</time>
      </trkpt>
      <trkpt lat="45.91312" lon="5.01582">
        <ele>277</ele>
        <time>2018-03-08T11:45:20Z</time>
      </trkpt>
      <trkpt lat="45.91308" lon="5.01582">
        <ele>277</ele>
        <time>2018-03-08T11:45:21Z</time>
      </trkpt>
      <trkpt lat="45.91302" lon="5.01582">
        <ele>277</ele>
        <time>2018-03-08T11:45:22Z</time>
      </trkpt>
      <trkpt lat="45.91297" lon="5.01581">
        <ele>277</ele>
        <time>2018-03-08T11:45:23Z</time>
      </trkpt>
      <trkpt lat="45.91292" lon="5.01581">
        <ele>277</ele>
        <time>2018-03-08T11:45:24Z</time>
      </trkpt>
      <trkpt lat="45.91287" lon="5.0158">
        <ele>276</ele>
        <time>2018-03-08T11:45:25Z</time>
      </trkpt>
      <trkpt lat="45.91281" lon="5.0158">
        <ele>276</ele>
        <time>2018-03-08T11:45:26Z</time>
      </trkpt>
      <trkpt lat="45.91276" lon="5.0158">
        <ele>276</ele>
        <time>2018-03-08T11:45:27Z</time>
      </trkpt>
      <trkpt lat="45.9127" lon="5.0158">
        <ele>276</ele>
        <time>2018-03-08T11:45:28Z</time>
      </trkpt>
      <trkpt lat="45.91267" lon="5.01581">
        <ele>275</ele>
        <time>2018-03-08T11:45:29Z</time>
      </trkpt>
      <trkpt lat="45.91262" lon="5.01582">
        <ele>275</ele>
        <time>2018-03-08T11:45:30Z</time>
      </trkpt>
      <trkpt lat="45.91257" lon="5.01583">
        <ele>275</ele>
        <time>2018-03-08T11:45:31Z</time>
      </trkpt>
      <trkpt lat="45.91251" lon="5.01585">
        <ele>274</ele>
        <time>2018-03-08T11:45:32Z</time>
      </trkpt>
      <trkpt lat="45.91246" lon="5.01587">
        <ele>274</ele>
        <time>2018-03-08T11:45:33Z</time>
      </trkpt>
      <trkpt lat="45.91242" lon="5.01588">
        <ele>274</ele>
        <time>2018-03-08T11:45:34Z</time>
      </trkpt>
      <trkpt lat="45.91236" lon="5.01589">
        <ele>274</ele>
        <time>2018-03-08T11:45:35Z</time>
      </trkpt>
      <trkpt lat="45.9123" lon="5.01592">
        <ele>273</ele>
        <time>2018-03-08T11:45:36Z</time>
      </trkpt>
      <trkpt lat="45.91225" lon="5.01593">
        <ele>273</ele>
        <time>2018-03-08T11:45:37Z</time>
      </trkpt>
      <trkpt lat="45.9122" lon="5.01596">
        <ele>273</ele>
        <time>2018-03-08T11:45:38Z</time>
      </trkpt>
      <trkpt lat="45.91214" lon="5.01598">
        <ele>273</ele>
        <time>2018-03-08T11:45:39Z</time>
      </trkpt>
      <trkpt lat="45.91209" lon="5.016">
        <ele>273</ele>
        <time>2018-03-08T11:45:40Z</time>
      </trkpt>
      <trkpt lat="45.91204" lon="5.01602">
        <ele>273</ele>
        <time>2018-03-08T11:45:41Z</time>
      </trkpt>
      <trkpt lat="45.91196" lon="5.01605">
        <ele>273</ele>
        <time>2018-03-08T11:45:43Z</time>
      </trkpt>
      <trkpt lat="45.91192" lon="5.01606">
        <ele>273</ele>
        <time>2018-03-08T11:45:44Z</time>
      </trkpt>
      <trkpt lat="45.91185" lon="5.0161">
        <ele>273</ele>
        <time>2018-03-08T11:45:46Z</time>
      </trkpt>
      <trkpt lat="45.91182" lon="5.01611">
        <ele>273</ele>
        <time>2018-03-08T11:45:47Z</time>
      </trkpt>
      <trkpt lat="45.91177" lon="5.01612">
        <ele>273</ele>
        <time>2018-03-08T11:45:48Z</time>
      </trkpt>
      <trkpt lat="45.91173" lon="5.01613">
        <ele>273</ele>
        <time>2018-03-08T11:45:49Z</time>
      </trkpt>
      <trkpt lat="45.91165" lon="5.01614">
        <ele>274</ele>
        <time>2018-03-08T11:45:52Z</time>
      </trkpt>
      <trkpt lat="45.91163" lon="5.01615">
        <ele>274</ele>
        <time>2018-03-08T11:45:53Z</time>
      </trkpt>
      <trkpt lat="45.91157" lon="5.01617">
        <ele>274</ele>
        <time>2018-03-08T11:45:54Z</time>
      </trkpt>
      <trkpt lat="45.91153" lon="5.01618">
        <ele>274</ele>
        <time>2018-03-08T11:45:55Z</time>
      </trkpt>
      <trkpt lat="45.91145" lon="5.01621">
        <ele>274</ele>
        <time>2018-03-08T11:45:57Z</time>
      </trkpt>
      <trkpt lat="45.91141" lon="5.01623">
        <ele>274</ele>
        <time>2018-03-08T11:45:58Z</time>
      </trkpt>
      <trkpt lat="45.91133" lon="5.01625">
        <ele>274</ele>
        <time>2018-03-08T11:46:00Z</time>
      </trkpt>
      <trkpt lat="45.91129" lon="5.01627">
        <ele>274</ele>
        <time>2018-03-08T11:46:01Z</time>
      </trkpt>
      <trkpt lat="45.91121" lon="5.0163">
        <ele>274</ele>
        <time>2018-03-08T11:46:04Z</time>
      </trkpt>
      <trkpt lat="45.91118" lon="5.01632">
        <ele>274</ele>
        <time>2018-03-08T11:46:05Z</time>
      </trkpt>
      <trkpt lat="45.91112" lon="5.01634">
        <ele>274</ele>
        <time>2018-03-08T11:46:07Z</time>
      </trkpt>
      <trkpt lat="45.91108" lon="5.01635">
        <ele>274</ele>
        <time>2018-03-08T11:46:08Z</time>
      </trkpt>
      <trkpt lat="45.91102" lon="5.01638">
        <ele>274</ele>
        <time>2018-03-08T11:46:10Z</time>
      </trkpt>
      <trkpt lat="45.91098" lon="5.01639">
        <ele>274</ele>
        <time>2018-03-08T11:46:11Z</time>
      </trkpt>
      <trkpt lat="45.91092" lon="5.01641">
        <ele>274</ele>
        <time>2018-03-08T11:46:13Z</time>
      </trkpt>
      <trkpt lat="45.91089" lon="5.01641">
        <ele>274</ele>
        <time>2018-03-08T11:46:14Z</time>
      </trkpt>
      <trkpt lat="45.91081" lon="5.01644">
        <ele>277</ele>
        <time>2018-03-08T11:46:17Z</time>
      </trkpt>
      <trkpt lat="45.91078" lon="5.01645">
        <ele>277</ele>
        <time>2018-03-08T11:46:18Z</time>
      </trkpt>
      <trkpt lat="45.91069" lon="5.01648">
        <ele>277</ele>
        <time>2018-03-08T11:46:21Z</time>
      </trkpt>
      <trkpt lat="45.91067" lon="5.01648">
        <ele>277</ele>
        <time>2018-03-08T11:46:22Z</time>
      </trkpt>
      <trkpt lat="45.91059" lon="5.01651">
        <ele>277</ele>
        <time>2018-03-08T11:46:25Z</time>
      </trkpt>
      <trkpt lat="45.91056" lon="5.01652">
        <ele>278</ele>
        <time>2018-03-08T11:46:26Z</time>
      </trkpt>
      <trkpt lat="45.91048" lon="5.01655">
        <ele>278</ele>
        <time>2018-03-08T11:46:29Z</time>
      </trkpt>
      <trkpt lat="45.91045" lon="5.01656">
        <ele>278</ele>
        <time>2018-03-08T11:46:30Z</time>
      </trkpt>
      <trkpt lat="45.91037" lon="5.01659">
        <ele>278</ele>
        <time>2018-03-08T11:46:33Z</time>
      </trkpt>
      <trkpt lat="45.91034" lon="5.0166">
        <ele>278</ele>
        <time>2018-03-08T11:46:34Z</time>
      </trkpt>
      <trkpt lat="45.91025" lon="5.01663">
        <ele>279</ele>
        <time>2018-03-08T11:46:37Z</time>
      </trkpt>
      <trkpt lat="45.91023" lon="5.01665">
        <ele>279</ele>
        <time>2018-03-08T11:46:38Z</time>
      </trkpt>
      <trkpt lat="45.91015" lon="5.01669">
        <ele>277</ele>
        <time>2018-03-08T11:46:41Z</time>
      </trkpt>
      <trkpt lat="45.91012" lon="5.01671">
        <ele>277</ele>
        <time>2018-03-08T11:46:42Z</time>
      </trkpt>
      <trkpt lat="45.91005" lon="5.01673">
        <ele>277</ele>
        <time>2018-03-08T11:46:45Z</time>
      </trkpt>
      <trkpt lat="45.91002" lon="5.01674">
        <ele>277</ele>
        <time>2018-03-08T11:46:46Z</time>
      </trkpt>
      <trkpt lat="45.90995" lon="5.01677">
        <ele>278</ele>
        <time>2018-03-08T11:46:49Z</time>
      </trkpt>
      <trkpt lat="45.90993" lon="5.01678">
        <ele>278</ele>
        <time>2018-03-08T11:46:50Z</time>
      </trkpt>
      <trkpt lat="45.90986" lon="5.01681">
        <ele>278</ele>
        <time>2018-03-08T11:46:53Z</time>
      </trkpt>
      <trkpt lat="45.90983" lon="5.01682">
        <ele>278</ele>
        <time>2018-03-08T11:46:54Z</time>
      </trkpt>
      <trkpt lat="45.90976" lon="5.01685">
        <ele>278</ele>
        <time>2018-03-08T11:46:57Z</time>
      </trkpt>
      <trkpt lat="45.90974" lon="5.01686">
        <ele>278</ele>
        <time>2018-03-08T11:46:58Z</time>
      </trkpt>
      <trkpt lat="45.90967" lon="5.01688">
        <ele>278</ele>
        <time>2018-03-08T11:47:01Z</time>
      </trkpt>
      <trkpt lat="45.90964" lon="5.01688">
        <ele>278</ele>
        <time>2018-03-08T11:47:02Z</time>
      </trkpt>
      <trkpt lat="45.90957" lon="5.01691">
        <ele>279</ele>
        <time>2018-03-08T11:47:05Z</time>
      </trkpt>
      <trkpt lat="45.90955" lon="5.01692">
        <ele>279</ele>
        <time>2018-03-08T11:47:06Z</time>
      </trkpt>
      <trkpt lat="45.90947" lon="5.01695">
        <ele>279</ele>
        <time>2018-03-08T11:47:09Z</time>
      </trkpt>
      <trkpt lat="45.90945" lon="5.01696">
        <ele>279</ele>
        <time>2018-03-08T11:47:10Z</time>
      </trkpt>
      <trkpt lat="45.90937" lon="5.01699">
        <ele>279</ele>
        <time>2018-03-08T11:47:13Z</time>
      </trkpt>
      <trkpt lat="45.90935" lon="5.017">
        <ele>279</ele>
        <time>2018-03-08T11:47:14Z</time>
      </trkpt>
      <trkpt lat="45.90926" lon="5.01702">
        <ele>279</ele>
        <time>2018-03-08T11:47:17Z</time>
      </trkpt>
      <trkpt lat="45.90923" lon="5.01702">
        <ele>279</ele>
        <time>2018-03-08T11:47:18Z</time>
      </trkpt>
      <trkpt lat="45.90917" lon="5.01702">
        <ele>279</ele>
        <time>2018-03-08T11:47:20Z</time>
      </trkpt>
      <trkpt lat="45.90914" lon="5.01702">
        <ele>279</ele>
        <time>2018-03-08T11:47:21Z</time>
      </trkpt>
      <trkpt lat="45.90905" lon="5.01701">
        <ele>279</ele>
        <time>2018-03-08T11:47:24Z</time>
      </trkpt>
      <trkpt lat="45.90902" lon="5.017">
        <ele>279</ele>
        <time>2018-03-08T11:47:25Z</time>
      </trkpt>
      <trkpt lat="45.90894" lon="5.01698">
        <ele>279</ele>
        <time>2018-03-08T11:47:28Z</time>
      </trkpt>
      <trkpt lat="45.90891" lon="5.01697">
        <ele>279</ele>
        <time>2018-03-08T11:47:29Z</time>
      </trkpt>
      <trkpt lat="45.90884" lon="5.01694">
        <ele>280</ele>
        <time>2018-03-08T11:47:32Z</time>
      </trkpt>
      <trkpt lat="45.90881" lon="5.01693">
        <ele>280</ele>
        <time>2018-03-08T11:47:33Z</time>
      </trkpt>
      <trkpt lat="45.90872" lon="5.0169">
        <ele>280</ele>
        <time>2018-03-08T11:47:36Z</time>
      </trkpt>
      <trkpt lat="45.90869" lon="5.01689">
        <ele>280</ele>
        <time>2018-03-08T11:47:37Z</time>
      </trkpt>
      <trkpt lat="45.90861" lon="5.01685">
        <ele>280</ele>
        <time>2018-03-08T11:47:40Z</time>
      </trkpt>
      <trkpt lat="45.90858" lon="5.01684">
        <ele>280</ele>
        <time>2018-03-08T11:47:41Z</time>
      </trkpt>
      <trkpt lat="45.90852" lon="5.01682">
        <ele>280</ele>
        <time>2018-03-08T11:47:43Z</time>
      </trkpt>
      <trkpt lat="45.90849" lon="5.01681">
        <ele>280</ele>
        <time>2018-03-08T11:47:44Z</time>
      </trkpt>
      <trkpt lat="45.90843" lon="5.01679">
        <ele>280</ele>
        <time>2018-03-08T11:47:46Z</time>
      </trkpt>
      <trkpt lat="45.9084" lon="5.01678">
        <ele>280</ele>
        <time>2018-03-08T11:47:47Z</time>
      </trkpt>
      <trkpt lat="45.90833" lon="5.01676">
        <ele>280</ele>
        <time>2018-03-08T11:47:49Z</time>
      </trkpt>
      <trkpt lat="45.9083" lon="5.01675">
        <ele>280</ele>
        <time>2018-03-08T11:47:50Z</time>
      </trkpt>
      <trkpt lat="45.90824" lon="5.01672">
        <ele>280</ele>
        <time>2018-03-08T11:47:52Z</time>
      </trkpt>
      <trkpt lat="45.90821" lon="5.01671">
        <ele>280</ele>
        <time>2018-03-08T11:47:53Z</time>
      </trkpt>
      <trkpt lat="45.90814" lon="5.01669">
        <ele>280</ele>
        <time>2018-03-08T11:47:55Z</time>
      </trkpt>
      <trkpt lat="45.90811" lon="5.01667">
        <ele>280</ele>
        <time>2018-03-08T11:47:56Z</time>
      </trkpt>
      <trkpt lat="45.90805" lon="5.01665">
        <ele>281</ele>
        <time>2018-03-08T11:47:58Z</time>
      </trkpt>
      <trkpt lat="45.90801" lon="5.01665">
        <ele>281</ele>
        <time>2018-03-08T11:47:59Z</time>
      </trkpt>
      <trkpt lat="45.90795" lon="5.01663">
        <ele>281</ele>
        <time>2018-03-08T11:48:01Z</time>
      </trkpt>
      <trkpt lat="45.90792" lon="5.01662">
        <ele>281</ele>
        <time>2018-03-08T11:48:02Z</time>
      </trkpt>
      <trkpt lat="45.90785" lon="5.0166">
        <ele>281</ele>
        <time>2018-03-08T11:48:04Z</time>
      </trkpt>
      <trkpt lat="45.90781" lon="5.01659">
        <ele>280</ele>
        <time>2018-03-08T11:48:05Z</time>
      </trkpt>
      <trkpt lat="45.90775" lon="5.01657">
        <ele>280</ele>
        <time>2018-03-08T11:48:07Z</time>
      </trkpt>
      <trkpt lat="45.90771" lon="5.01655">
        <ele>280</ele>
        <time>2018-03-08T11:48:08Z</time>
      </trkpt>
      <trkpt lat="45.90764" lon="5.01653">
        <ele>280</ele>
        <time>2018-03-08T11:48:10Z</time>
      </trkpt>
      <trkpt lat="45.90754" lon="5.01648">
        <ele>280</ele>
        <time>2018-03-08T11:48:11Z</time>
      </trkpt>
      <trkpt lat="45.90748" lon="5.01647">
        <ele>280</ele>
        <time>2018-03-08T11:48:13Z</time>
      </trkpt>
      <trkpt lat="45.90743" lon="5.01645">
        <ele>280</ele>
        <time>2018-03-08T11:48:14Z</time>
      </trkpt>
      <trkpt lat="45.90736" lon="5.01644">
        <ele>280</ele>
        <time>2018-03-08T11:48:17Z</time>
      </trkpt>
      <trkpt lat="45.90733" lon="5.01643">
        <ele>280</ele>
        <time>2018-03-08T11:48:18Z</time>
      </trkpt>
      <trkpt lat="45.90727" lon="5.01641">
        <ele>280</ele>
        <time>2018-03-08T11:48:20Z</time>
      </trkpt>
      <trkpt lat="45.90724" lon="5.0164">
        <ele>280</ele>
        <time>2018-03-08T11:48:21Z</time>
      </trkpt>
      <trkpt lat="45.90714" lon="5.01636">
        <ele>280</ele>
        <time>2018-03-08T11:48:22Z</time>
      </trkpt>
      <trkpt lat="45.90706" lon="5.01632">
        <ele>280</ele>
        <time>2018-03-08T11:48:26Z</time>
      </trkpt>
      <trkpt lat="45.90703" lon="5.0163">
        <ele>281</ele>
        <time>2018-03-08T11:48:27Z</time>
      </trkpt>
      <trkpt lat="45.90695" lon="5.01627">
        <ele>281</ele>
        <time>2018-03-08T11:48:30Z</time>
      </trkpt>
      <trkpt lat="45.90692" lon="5.01626">
        <ele>281</ele>
        <time>2018-03-08T11:48:31Z</time>
      </trkpt>
      <trkpt lat="45.90685" lon="5.01625">
        <ele>281</ele>
        <time>2018-03-08T11:48:33Z</time>
      </trkpt>
      <trkpt lat="45.90682" lon="5.01624">
        <ele>281</ele>
        <time>2018-03-08T11:48:34Z</time>
      </trkpt>
      <trkpt lat="45.90676" lon="5.01623">
        <ele>281</ele>
        <time>2018-03-08T11:48:36Z</time>
      </trkpt>
      <trkpt lat="45.90672" lon="5.01622">
        <ele>281</ele>
        <time>2018-03-08T11:48:37Z</time>
      </trkpt>
      <trkpt lat="45.90666" lon="5.0162">
        <ele>283</ele>
        <time>2018-03-08T11:48:39Z</time>
      </trkpt>
      <trkpt lat="45.90662" lon="5.01619">
        <ele>283</ele>
        <time>2018-03-08T11:48:40Z</time>
      </trkpt>
      <trkpt lat="45.90656" lon="5.01618">
        <ele>283</ele>
        <time>2018-03-08T11:48:42Z</time>
      </trkpt>
      <trkpt lat="45.90652" lon="5.01617">
        <ele>283</ele>
        <time>2018-03-08T11:48:43Z</time>
      </trkpt>
      <trkpt lat="45.90645" lon="5.01614">
        <ele>283</ele>
        <time>2018-03-08T11:48:45Z</time>
      </trkpt>
      <trkpt lat="45.90642" lon="5.01613">
        <ele>283</ele>
        <time>2018-03-08T11:48:46Z</time>
      </trkpt>
      <trkpt lat="45.90636" lon="5.01611">
        <ele>283</ele>
        <time>2018-03-08T11:48:48Z</time>
      </trkpt>
      <trkpt lat="45.90633" lon="5.0161">
        <ele>283</ele>
        <time>2018-03-08T11:48:49Z</time>
      </trkpt>
      <trkpt lat="45.90627" lon="5.01608">
        <ele>283</ele>
        <time>2018-03-08T11:48:51Z</time>
      </trkpt>
      <trkpt lat="45.90623" lon="5.01607">
        <ele>283</ele>
        <time>2018-03-08T11:48:52Z</time>
      </trkpt>
      <trkpt lat="45.90617" lon="5.01605">
        <ele>283</ele>
        <time>2018-03-08T11:48:54Z</time>
      </trkpt>
      <trkpt lat="45.90614" lon="5.01605">
        <ele>283</ele>
        <time>2018-03-08T11:48:55Z</time>
      </trkpt>
      <trkpt lat="45.90605" lon="5.01602">
        <ele>284</ele>
        <time>2018-03-08T11:48:58Z</time>
      </trkpt>
      <trkpt lat="45.90602" lon="5.01601">
        <ele>284</ele>
        <time>2018-03-08T11:48:59Z</time>
      </trkpt>
      <trkpt lat="45.90594" lon="5.01597">
        <ele>284</ele>
        <time>2018-03-08T11:49:02Z</time>
      </trkpt>
      <trkpt lat="45.90592" lon="5.01597">
        <ele>284</ele>
        <time>2018-03-08T11:49:03Z</time>
      </trkpt>
      <trkpt lat="45.90584" lon="5.01595">
        <ele>284</ele>
        <time>2018-03-08T11:49:06Z</time>
      </trkpt>
      <trkpt lat="45.90581" lon="5.01594">
        <ele>285</ele>
        <time>2018-03-08T11:49:07Z</time>
      </trkpt>
      <trkpt lat="45.90574" lon="5.01591">
        <ele>285</ele>
        <time>2018-03-08T11:49:10Z</time>
      </trkpt>
      <trkpt lat="45.90572" lon="5.01591">
        <ele>285</ele>
        <time>2018-03-08T11:49:11Z</time>
      </trkpt>
      <trkpt lat="45.90564" lon="5.01589">
        <ele>285</ele>
        <time>2018-03-08T11:49:14Z</time>
      </trkpt>
      <trkpt lat="45.90562" lon="5.01588">
        <ele>285</ele>
        <time>2018-03-08T11:49:15Z</time>
      </trkpt>
      <trkpt lat="45.90554" lon="5.01585">
        <ele>285</ele>
        <time>2018-03-08T11:49:18Z</time>
      </trkpt>
      <trkpt lat="45.90551" lon="5.01584">
        <ele>285</ele>
        <time>2018-03-08T11:49:19Z</time>
      </trkpt>
      <trkpt lat="45.90544" lon="5.01582">
        <ele>284</ele>
        <time>2018-03-08T11:49:22Z</time>
      </trkpt>
      <trkpt lat="45.90541" lon="5.01582">
        <ele>284</ele>
        <time>2018-03-08T11:49:23Z</time>
      </trkpt>
      <trkpt lat="45.90533" lon="5.01581">
        <ele>284</ele>
        <time>2018-03-08T11:49:26Z</time>
      </trkpt>
      <trkpt lat="45.9053" lon="5.01581">
        <ele>284</ele>
        <time>2018-03-08T11:49:27Z</time>
      </trkpt>
      <trkpt lat="45.90523" lon="5.01581">
        <ele>284</ele>
        <time>2018-03-08T11:49:30Z</time>
      </trkpt>
      <trkpt lat="45.9052" lon="5.01581">
        <ele>284</ele>
        <time>2018-03-08T11:49:31Z</time>
      </trkpt>
      <trkpt lat="45.90512" lon="5.01582">
        <ele>284</ele>
        <time>2018-03-08T11:49:34Z</time>
      </trkpt>
      <trkpt lat="45.9051" lon="5.01582">
        <ele>284</ele>
        <time>2018-03-08T11:49:35Z</time>
      </trkpt>
      <trkpt lat="45.90501" lon="5.01584">
        <ele>285</ele>
        <time>2018-03-08T11:49:38Z</time>
      </trkpt>
      <trkpt lat="45.90498" lon="5.01584">
        <ele>285</ele>
        <time>2018-03-08T11:49:39Z</time>
      </trkpt>
      <trkpt lat="45.9049" lon="5.01587">
        <ele>285</ele>
        <time>2018-03-08T11:49:42Z</time>
      </trkpt>
      <trkpt lat="45.90487" lon="5.01588">
        <ele>285</ele>
        <time>2018-03-08T11:49:43Z</time>
      </trkpt>
      <trkpt lat="45.90478" lon="5.01588">
        <ele>285</ele>
        <time>2018-03-08T11:49:46Z</time>
      </trkpt>
      <trkpt lat="45.9047" lon="5.01583">
        <ele>284</ele>
        <time>2018-03-08T11:49:47Z</time>
      </trkpt>
      <trkpt lat="45.90469" lon="5.01577">
        <ele>284</ele>
        <time>2018-03-08T11:49:48Z</time>
      </trkpt>
      <trkpt lat="45.90472" lon="5.01568">
        <ele>284</ele>
        <time>2018-03-08T11:49:49Z</time>
      </trkpt>
      <trkpt lat="45.90471" lon="5.01555">
        <ele>283</ele>
        <time>2018-03-08T11:49:51Z</time>
      </trkpt>
      <trkpt lat="45.90471" lon="5.01549">
        <ele>283</ele>
        <time>2018-03-08T11:49:52Z</time>
      </trkpt>
      <trkpt lat="45.9047" lon="5.01536">
        <ele>283</ele>
        <time>2018-03-08T11:49:54Z</time>
      </trkpt>
      <trkpt lat="45.9047" lon="5.01531">
        <ele>283</ele>
        <time>2018-03-08T11:49:55Z</time>
      </trkpt>
      <trkpt lat="45.90469" lon="5.01518">
        <ele>283</ele>
        <time>2018-03-08T11:49:57Z</time>
      </trkpt>
      <trkpt lat="45.90469" lon="5.01511">
        <ele>283</ele>
        <time>2018-03-08T11:49:58Z</time>
      </trkpt>
      <trkpt lat="45.90468" lon="5.01499">
        <ele>282</ele>
        <time>2018-03-08T11:50:00Z</time>
      </trkpt>
      <trkpt lat="45.90467" lon="5.01492">
        <ele>282</ele>
        <time>2018-03-08T11:50:01Z</time>
      </trkpt>
      <trkpt lat="45.90467" lon="5.01486">
        <ele>282</ele>
        <time>2018-03-08T11:50:02Z</time>
      </trkpt>
      <trkpt lat="45.90466" lon="5.01479">
        <ele>282</ele>
        <time>2018-03-08T11:50:03Z</time>
      </trkpt>
      <trkpt lat="45.90466" lon="5.01472">
        <ele>282</ele>
        <time>2018-03-08T11:50:04Z</time>
      </trkpt>
      <trkpt lat="45.90465" lon="5.01465">
        <ele>282</ele>
        <time>2018-03-08T11:50:05Z</time>
      </trkpt>
      <trkpt lat="45.90465" lon="5.01458">
        <ele>282</ele>
        <time>2018-03-08T11:50:06Z</time>
      </trkpt>
      <trkpt lat="45.90464" lon="5.0145">
        <ele>282</ele>
        <time>2018-03-08T11:50:07Z</time>
      </trkpt>
      <trkpt lat="45.90463" lon="5.01444">
        <ele>282</ele>
        <time>2018-03-08T11:50:08Z</time>
      </trkpt>
      <trkpt lat="45.90463" lon="5.01437">
        <ele>282</ele>
        <time>2018-03-08T11:50:09Z</time>
      </trkpt>
      <trkpt lat="45.90463" lon="5.01431">
        <ele>282</ele>
        <time>2018-03-08T11:50:10Z</time>
      </trkpt>
      <trkpt lat="45.90463" lon="5.01424">
        <ele>282</ele>
        <time>2018-03-08T11:50:11Z</time>
      </trkpt>
      <trkpt lat="45.90463" lon="5.01417">
        <ele>282</ele>
        <time>2018-03-08T11:50:12Z</time>
      </trkpt>
      <trkpt lat="45.90463" lon="5.01411">
        <ele>281</ele>
        <time>2018-03-08T11:50:13Z</time>
      </trkpt>
      <trkpt lat="45.90462" lon="5.01404">
        <ele>281</ele>
        <time>2018-03-08T11:50:14Z</time>
      </trkpt>
      <trkpt lat="45.90461" lon="5.01397">
        <ele>281</ele>
        <time>2018-03-08T11:50:15Z</time>
      </trkpt>
      <trkpt lat="45.9046" lon="5.01391">
        <ele>281</ele>
        <time>2018-03-08T11:50:16Z</time>
      </trkpt>
      <trkpt lat="45.90458" lon="5.01385">
        <ele>281</ele>
        <time>2018-03-08T11:50:17Z</time>
      </trkpt>
      <trkpt lat="45.90459" lon="5.01372">
        <ele>281</ele>
        <time>2018-03-08T11:50:19Z</time>
      </trkpt>
      <trkpt lat="45.90457" lon="5.01366">
        <ele>281</ele>
        <time>2018-03-08T11:50:20Z</time>
      </trkpt>
      <trkpt lat="45.90457" lon="5.01359">
        <ele>281</ele>
        <time>2018-03-08T11:50:21Z</time>
      </trkpt>
      <trkpt lat="45.90457" lon="5.01351">
        <ele>281</ele>
        <time>2018-03-08T11:50:22Z</time>
      </trkpt>
      <trkpt lat="45.90456" lon="5.01345">
        <ele>281</ele>
        <time>2018-03-08T11:50:23Z</time>
      </trkpt>
      <trkpt lat="45.90455" lon="5.01338">
        <ele>281</ele>
        <time>2018-03-08T11:50:24Z</time>
      </trkpt>
      <trkpt lat="45.90454" lon="5.01331">
        <ele>281</ele>
        <time>2018-03-08T11:50:25Z</time>
      </trkpt>
      <trkpt lat="45.90453" lon="5.01324">
        <ele>281</ele>
        <time>2018-03-08T11:50:26Z</time>
      </trkpt>
      <trkpt lat="45.90452" lon="5.01317">
        <ele>281</ele>
        <time>2018-03-08T11:50:27Z</time>
      </trkpt>
      <trkpt lat="45.90451" lon="5.01311">
        <ele>281</ele>
        <time>2018-03-08T11:50:28Z</time>
      </trkpt>
      <trkpt lat="45.90451" lon="5.01304">
        <ele>281</ele>
        <time>2018-03-08T11:50:29Z</time>
      </trkpt>
      <trkpt lat="45.90452" lon="5.01297">
        <ele>281</ele>
        <time>2018-03-08T11:50:30Z</time>
      </trkpt>
      <trkpt lat="45.90453" lon="5.0129">
        <ele>281</ele>
        <time>2018-03-08T11:50:31Z</time>
      </trkpt>
      <trkpt lat="45.90452" lon="5.01284">
        <ele>281</ele>
        <time>2018-03-08T11:50:32Z</time>
      </trkpt>
      <trkpt lat="45.90451" lon="5.01277">
        <ele>281</ele>
        <time>2018-03-08T11:50:33Z</time>
      </trkpt>
      <trkpt lat="45.90451" lon="5.01271">
        <ele>281</ele>
        <time>2018-03-08T11:50:34Z</time>
      </trkpt>
      <trkpt lat="45.90451" lon="5.01264">
        <ele>281</ele>
        <time>2018-03-08T11:50:35Z</time>
      </trkpt>
      <trkpt lat="45.9045" lon="5.01257">
        <ele>281</ele>
        <time>2018-03-08T11:50:36Z</time>
      </trkpt>
      <trkpt lat="45.90449" lon="5.01245">
        <ele>281</ele>
        <time>2018-03-08T11:50:38Z</time>
      </trkpt>
      <trkpt lat="45.90449" lon="5.01238">
        <ele>281</ele>
        <time>2018-03-08T11:50:39Z</time>
      </trkpt>
      <trkpt lat="45.90448" lon="5.01227">
        <ele>281</ele>
        <time>2018-03-08T11:50:41Z</time>
      </trkpt>
      <trkpt lat="45.90448" lon="5.01222">
        <ele>281</ele>
        <time>2018-03-08T11:50:42Z</time>
      </trkpt>
      <trkpt lat="45.90447" lon="5.01209">
        <ele>281</ele>
        <time>2018-03-08T11:50:44Z</time>
      </trkpt>
      <trkpt lat="45.90446" lon="5.01203">
        <ele>281</ele>
        <time>2018-03-08T11:50:45Z</time>
      </trkpt>
      <trkpt lat="45.90445" lon="5.0119">
        <ele>281</ele>
        <time>2018-03-08T11:50:47Z</time>
      </trkpt>
      <trkpt lat="45.90444" lon="5.01184">
        <ele>281</ele>
        <time>2018-03-08T11:50:48Z</time>
      </trkpt>
      <trkpt lat="45.90443" lon="5.01172">
        <ele>282</ele>
        <time>2018-03-08T11:50:50Z</time>
      </trkpt>
      <trkpt lat="45.90443" lon="5.01165">
        <ele>282</ele>
        <time>2018-03-08T11:50:51Z</time>
      </trkpt>
      <trkpt lat="45.90442" lon="5.01153">
        <ele>282</ele>
        <time>2018-03-08T11:50:53Z</time>
      </trkpt>
      <trkpt lat="45.90442" lon="5.01147">
        <ele>281</ele>
        <time>2018-03-08T11:50:54Z</time>
      </trkpt>
      <trkpt lat="45.9044" lon="5.01135">
        <ele>281</ele>
        <time>2018-03-08T11:50:56Z</time>
      </trkpt>
      <trkpt lat="45.9044" lon="5.01128">
        <ele>281</ele>
        <time>2018-03-08T11:50:57Z</time>
      </trkpt>
      <trkpt lat="45.9044" lon="5.01115">
        <ele>281</ele>
        <time>2018-03-08T11:50:59Z</time>
      </trkpt>
      <trkpt lat="45.9044" lon="5.01109">
        <ele>281</ele>
        <time>2018-03-08T11:51:00Z</time>
      </trkpt>
      <trkpt lat="45.9044" lon="5.01102">
        <ele>282</ele>
        <time>2018-03-08T11:51:01Z</time>
      </trkpt>
      <trkpt lat="45.9044" lon="5.01094">
        <ele>282</ele>
        <time>2018-03-08T11:51:02Z</time>
      </trkpt>
      <trkpt lat="45.90439" lon="5.01087">
        <ele>282</ele>
        <time>2018-03-08T11:51:03Z</time>
      </trkpt>
      <trkpt lat="45.90438" lon="5.01081">
        <ele>282</ele>
        <time>2018-03-08T11:51:04Z</time>
      </trkpt>
      <trkpt lat="45.90437" lon="5.01069">
        <ele>282</ele>
        <time>2018-03-08T11:51:06Z</time>
      </trkpt>
      <trkpt lat="45.90437" lon="5.01063">
        <ele>282</ele>
        <time>2018-03-08T11:51:07Z</time>
      </trkpt>
      <trkpt lat="45.90436" lon="5.01056">
        <ele>282</ele>
        <time>2018-03-08T11:51:08Z</time>
      </trkpt>
      <trkpt lat="45.90435" lon="5.01048">
        <ele>282</ele>
        <time>2018-03-08T11:51:09Z</time>
      </trkpt>
      <trkpt lat="45.90434" lon="5.01042">
        <ele>282</ele>
        <time>2018-03-08T11:51:10Z</time>
      </trkpt>
      <trkpt lat="45.90434" lon="5.01036">
        <ele>282</ele>
        <time>2018-03-08T11:51:11Z</time>
      </trkpt>
      <trkpt lat="45.90433" lon="5.01029">
        <ele>282</ele>
        <time>2018-03-08T11:51:12Z</time>
      </trkpt>
      <trkpt lat="45.90432" lon="5.01023">
        <ele>282</ele>
        <time>2018-03-08T11:51:13Z</time>
      </trkpt>
      <trkpt lat="45.90431" lon="5.01016">
        <ele>282</ele>
        <time>2018-03-08T11:51:14Z</time>
      </trkpt>
      <trkpt lat="45.90431" lon="5.01009">
        <ele>282</ele>
        <time>2018-03-08T11:51:15Z</time>
      </trkpt>
      <trkpt lat="45.9043" lon="5.01003">
        <ele>282</ele>
        <time>2018-03-08T11:51:16Z</time>
      </trkpt>
      <trkpt lat="45.9043" lon="5.00996">
        <ele>282</ele>
        <time>2018-03-08T11:51:17Z</time>
      </trkpt>
      <trkpt lat="45.9043" lon="5.00989">
        <ele>282</ele>
        <time>2018-03-08T11:51:18Z</time>
      </trkpt>
      <trkpt lat="45.9043" lon="5.00983">
        <ele>282</ele>
        <time>2018-03-08T11:51:19Z</time>
      </trkpt>
      <trkpt lat="45.90429" lon="5.00977">
        <ele>282</ele>
        <time>2018-03-08T11:51:20Z</time>
      </trkpt>
      <trkpt lat="45.90428" lon="5.0097">
        <ele>282</ele>
        <time>2018-03-08T11:51:21Z</time>
      </trkpt>
      <trkpt lat="45.90428" lon="5.00963">
        <ele>282</ele>
        <time>2018-03-08T11:51:22Z</time>
      </trkpt>
      <trkpt lat="45.90427" lon="5.00957">
        <ele>282</ele>
        <time>2018-03-08T11:51:23Z</time>
      </trkpt>
      <trkpt lat="45.90427" lon="5.0095">
        <ele>282</ele>
        <time>2018-03-08T11:51:24Z</time>
      </trkpt>
      <trkpt lat="45.90425" lon="5.00943">
        <ele>282</ele>
        <time>2018-03-08T11:51:25Z</time>
      </trkpt>
      <trkpt lat="45.90425" lon="5.00936">
        <ele>283</ele>
        <time>2018-03-08T11:51:26Z</time>
      </trkpt>
      <trkpt lat="45.90425" lon="5.0093">
        <ele>283</ele>
        <time>2018-03-08T11:51:27Z</time>
      </trkpt>
      <trkpt lat="45.90424" lon="5.00922">
        <ele>283</ele>
        <time>2018-03-08T11:51:28Z</time>
      </trkpt>
      <trkpt lat="45.90423" lon="5.00916">
        <ele>283</ele>
        <time>2018-03-08T11:51:29Z</time>
      </trkpt>
      <trkpt lat="45.90421" lon="5.00909">
        <ele>283</ele>
        <time>2018-03-08T11:51:30Z</time>
      </trkpt>
      <trkpt lat="45.90421" lon="5.00902">
        <ele>283</ele>
        <time>2018-03-08T11:51:31Z</time>
      </trkpt>
      <trkpt lat="45.90421" lon="5.00896">
        <ele>283</ele>
        <time>2018-03-08T11:51:32Z</time>
      </trkpt>
      <trkpt lat="45.9042" lon="5.00889">
        <ele>283</ele>
        <time>2018-03-08T11:51:33Z</time>
      </trkpt>
      <trkpt lat="45.9042" lon="5.00882">
        <ele>283</ele>
        <time>2018-03-08T11:51:34Z</time>
      </trkpt>
      <trkpt lat="45.9042" lon="5.00876">
        <ele>283</ele>
        <time>2018-03-08T11:51:35Z</time>
      </trkpt>
      <trkpt lat="45.90419" lon="5.00869">
        <ele>283</ele>
        <time>2018-03-08T11:51:36Z</time>
      </trkpt>
      <trkpt lat="45.90419" lon="5.00862">
        <ele>283</ele>
        <time>2018-03-08T11:51:37Z</time>
      </trkpt>
      <trkpt lat="45.90418" lon="5.00856">
        <ele>283</ele>
        <time>2018-03-08T11:51:38Z</time>
      </trkpt>
      <trkpt lat="45.90419" lon="5.00848">
        <ele>283</ele>
        <time>2018-03-08T11:51:39Z</time>
      </trkpt>
      <trkpt lat="45.90418" lon="5.00841">
        <ele>283</ele>
        <time>2018-03-08T11:51:40Z</time>
      </trkpt>
      <trkpt lat="45.90416" lon="5.00835">
        <ele>283</ele>
        <time>2018-03-08T11:51:41Z</time>
      </trkpt>
      <trkpt lat="45.90415" lon="5.00829">
        <ele>283</ele>
        <time>2018-03-08T11:51:42Z</time>
      </trkpt>
      <trkpt lat="45.90415" lon="5.00822">
        <ele>283</ele>
        <time>2018-03-08T11:51:43Z</time>
      </trkpt>
      <trkpt lat="45.90413" lon="5.0081">
        <ele>283</ele>
        <time>2018-03-08T11:51:45Z</time>
      </trkpt>
      <trkpt lat="45.90412" lon="5.00803">
        <ele>283</ele>
        <time>2018-03-08T11:51:46Z</time>
      </trkpt>
      <trkpt lat="45.90411" lon="5.00797">
        <ele>283</ele>
        <time>2018-03-08T11:51:47Z</time>
      </trkpt>
      <trkpt lat="45.90411" lon="5.0079">
        <ele>283</ele>
        <time>2018-03-08T11:51:48Z</time>
      </trkpt>
      <trkpt lat="45.90412" lon="5.00778">
        <ele>283</ele>
        <time>2018-03-08T11:51:50Z</time>
      </trkpt>
      <trkpt lat="45.90411" lon="5.00771">
        <ele>283</ele>
        <time>2018-03-08T11:51:51Z</time>
      </trkpt>
      <trkpt lat="45.9041" lon="5.00759">
        <ele>283</ele>
        <time>2018-03-08T11:51:53Z</time>
      </trkpt>
      <trkpt lat="45.90409" lon="5.00754">
        <ele>283</ele>
        <time>2018-03-08T11:51:54Z</time>
      </trkpt>
      <trkpt lat="45.90409" lon="5.00747">
        <ele>282</ele>
        <time>2018-03-08T11:51:55Z</time>
      </trkpt>
      <trkpt lat="45.90408" lon="5.0074">
        <ele>282</ele>
        <time>2018-03-08T11:51:56Z</time>
      </trkpt>
      <trkpt lat="45.90407" lon="5.00733">
        <ele>282</ele>
        <time>2018-03-08T11:51:57Z</time>
      </trkpt>
      <trkpt lat="45.90406" lon="5.00726">
        <ele>282</ele>
        <time>2018-03-08T11:51:58Z</time>
      </trkpt>
      <trkpt lat="45.90406" lon="5.00719">
        <ele>282</ele>
        <time>2018-03-08T11:51:59Z</time>
      </trkpt>
      <trkpt lat="45.90406" lon="5.00712">
        <ele>282</ele>
        <time>2018-03-08T11:52:00Z</time>
      </trkpt>
      <trkpt lat="45.90405" lon="5.00705">
        <ele>282</ele>
        <time>2018-03-08T11:52:01Z</time>
      </trkpt>
      <trkpt lat="45.90405" lon="5.00697">
        <ele>282</ele>
        <time>2018-03-08T11:52:02Z</time>
      </trkpt>
      <trkpt lat="45.90404" lon="5.0069">
        <ele>282</ele>
        <time>2018-03-08T11:52:03Z</time>
      </trkpt>
      <trkpt lat="45.90404" lon="5.00682">
        <ele>282</ele>
        <time>2018-03-08T11:52:04Z</time>
      </trkpt>
      <trkpt lat="45.90403" lon="5.00675">
        <ele>282</ele>
        <time>2018-03-08T11:52:05Z</time>
      </trkpt>
      <trkpt lat="45.90403" lon="5.00668">
        <ele>282</ele>
        <time>2018-03-08T11:52:06Z</time>
      </trkpt>
      <trkpt lat="45.90403" lon="5.00661">
        <ele>281</ele>
        <time>2018-03-08T11:52:07Z</time>
      </trkpt>
      <trkpt lat="45.90403" lon="5.00654">
        <ele>282</ele>
        <time>2018-03-08T11:52:08Z</time>
      </trkpt>
      <trkpt lat="45.90401" lon="5.00642">
        <ele>282</ele>
        <time>2018-03-08T11:52:10Z</time>
      </trkpt>
      <trkpt lat="45.90401" lon="5.00636">
        <ele>282</ele>
        <time>2018-03-08T11:52:11Z</time>
      </trkpt>
      <trkpt lat="45.90401" lon="5.0063">
        <ele>282</ele>
        <time>2018-03-08T11:52:12Z</time>
      </trkpt>
      <trkpt lat="45.904" lon="5.00623">
        <ele>282</ele>
        <time>2018-03-08T11:52:13Z</time>
      </trkpt>
      <trkpt lat="45.90399" lon="5.00611">
        <ele>282</ele>
        <time>2018-03-08T11:52:15Z</time>
      </trkpt>
      <trkpt lat="45.90398" lon="5.00605">
        <ele>282</ele>
        <time>2018-03-08T11:52:16Z</time>
      </trkpt>
      <trkpt lat="45.90398" lon="5.00593">
        <ele>282</ele>
        <time>2018-03-08T11:52:18Z</time>
      </trkpt>
      <trkpt lat="45.90398" lon="5.00586">
        <ele>282</ele>
        <time>2018-03-08T11:52:19Z</time>
      </trkpt>
      <trkpt lat="45.90397" lon="5.00579">
        <ele>281</ele>
        <time>2018-03-08T11:52:20Z</time>
      </trkpt>
      <trkpt lat="45.90395" lon="5.00572">
        <ele>281</ele>
        <time>2018-03-08T11:52:21Z</time>
      </trkpt>
      <trkpt lat="45.90394" lon="5.0056">
        <ele>281</ele>
        <time>2018-03-08T11:52:23Z</time>
      </trkpt>
      <trkpt lat="45.90392" lon="5.00554">
        <ele>281</ele>
        <time>2018-03-08T11:52:24Z</time>
      </trkpt>
      <trkpt lat="45.9039" lon="5.00549">
        <ele>281</ele>
        <time>2018-03-08T11:52:25Z</time>
      </trkpt>
      <trkpt lat="45.90387" lon="5.00543">
        <ele>281</ele>
        <time>2018-03-08T11:52:26Z</time>
      </trkpt>
      <trkpt lat="45.9038" lon="5.00535">
        <ele>281</ele>
        <time>2018-03-08T11:52:28Z</time>
      </trkpt>
      <trkpt lat="45.90377" lon="5.00531">
        <ele>281</ele>
        <time>2018-03-08T11:52:29Z</time>
      </trkpt>
      <trkpt lat="45.90371" lon="5.00522">
        <ele>281</ele>
        <time>2018-03-08T11:52:31Z</time>
      </trkpt>
      <trkpt lat="45.90368" lon="5.00518">
        <ele>281</ele>
        <time>2018-03-08T11:52:32Z</time>
      </trkpt>
      <trkpt lat="45.90367" lon="5.00516">
        <ele>281</ele>
        <time>2018-03-08T11:52:33Z</time>
      </trkpt>
      <trkpt lat="45.90361" lon="5.00509">
        <ele>281</ele>
        <time>2018-03-08T11:52:34Z</time>
      </trkpt>
      <trkpt lat="45.90354" lon="5.00502">
        <ele>281</ele>
        <time>2018-03-08T11:52:36Z</time>
      </trkpt>
      <trkpt lat="45.90351" lon="5.00496">
        <ele>280</ele>
        <time>2018-03-08T11:52:37Z</time>
      </trkpt>
      <trkpt lat="45.90347" lon="5.00492">
        <ele>280</ele>
        <time>2018-03-08T11:52:38Z</time>
      </trkpt>
      <trkpt lat="45.90342" lon="5.00487">
        <ele>280</ele>
        <time>2018-03-08T11:52:39Z</time>
      </trkpt>
      <trkpt lat="45.90337" lon="5.00482">
        <ele>280</ele>
        <time>2018-03-08T11:52:40Z</time>
      </trkpt>
      <trkpt lat="45.90334" lon="5.00478">
        <ele>280</ele>
        <time>2018-03-08T11:52:41Z</time>
      </trkpt>
      <trkpt lat="45.9033" lon="5.00472">
        <ele>280</ele>
        <time>2018-03-08T11:52:42Z</time>
      </trkpt>
      <trkpt lat="45.90326" lon="5.00466">
        <ele>280</ele>
        <time>2018-03-08T11:52:43Z</time>
      </trkpt>
      <trkpt lat="45.90322" lon="5.00462">
        <ele>280</ele>
        <time>2018-03-08T11:52:44Z</time>
      </trkpt>
      <trkpt lat="45.90319" lon="5.00457">
        <ele>279</ele>
        <time>2018-03-08T11:52:45Z</time>
      </trkpt>
      <trkpt lat="45.90315" lon="5.00452">
        <ele>279</ele>
        <time>2018-03-08T11:52:46Z</time>
      </trkpt>
      <trkpt lat="45.90311" lon="5.00446">
        <ele>279</ele>
        <time>2018-03-08T11:52:47Z</time>
      </trkpt>
      <trkpt lat="45.90305" lon="5.00437">
        <ele>279</ele>
        <time>2018-03-08T11:52:49Z</time>
      </trkpt>
      <trkpt lat="45.90301" lon="5.00432">
        <ele>279</ele>
        <time>2018-03-08T11:52:50Z</time>
      </trkpt>
      <trkpt lat="45.90295" lon="5.00422">
        <ele>279</ele>
        <time>2018-03-08T11:52:52Z</time>
      </trkpt>
      <trkpt lat="45.90291" lon="5.00417">
        <ele>279</ele>
        <time>2018-03-08T11:52:53Z</time>
      </trkpt>
      <trkpt lat="45.90287" lon="5.00412">
        <ele>279</ele>
        <time>2018-03-08T11:52:54Z</time>
      </trkpt>
      <trkpt lat="45.90284" lon="5.00407">
        <ele>278</ele>
        <time>2018-03-08T11:52:55Z</time>
      </trkpt>
      <trkpt lat="45.9028" lon="5.00403">
        <ele>278</ele>
        <time>2018-03-08T11:52:56Z</time>
      </trkpt>
      <trkpt lat="45.90275" lon="5.00398">
        <ele>278</ele>
        <time>2018-03-08T11:52:57Z</time>
      </trkpt>
      <trkpt lat="45.90271" lon="5.00393">
        <ele>278</ele>
        <time>2018-03-08T11:52:58Z</time>
      </trkpt>
      <trkpt lat="45.90266" lon="5.00389">
        <ele>278</ele>
        <time>2018-03-08T11:52:59Z</time>
      </trkpt>
      <trkpt lat="45.90263" lon="5.00384">
        <ele>278</ele>
        <time>2018-03-08T11:53:00Z</time>
      </trkpt>
      <trkpt lat="45.90259" lon="5.00379">
        <ele>278</ele>
        <time>2018-03-08T11:53:01Z</time>
      </trkpt>
      <trkpt lat="45.90252" lon="5.0037">
        <ele>278</ele>
        <time>2018-03-08T11:53:03Z</time>
      </trkpt>
      <trkpt lat="45.90249" lon="5.00366">
        <ele>277</ele>
        <time>2018-03-08T11:53:04Z</time>
      </trkpt>
      <trkpt lat="45.90246" lon="5.00361">
        <ele>277</ele>
        <time>2018-03-08T11:53:05Z</time>
      </trkpt>
      <trkpt lat="45.90243" lon="5.00356">
        <ele>277</ele>
        <time>2018-03-08T11:53:06Z</time>
      </trkpt>
      <trkpt lat="45.9024" lon="5.00351">
        <ele>277</ele>
        <time>2018-03-08T11:53:07Z</time>
      </trkpt>
      <trkpt lat="45.90237" lon="5.00344">
        <ele>277</ele>
        <time>2018-03-08T11:53:08Z</time>
      </trkpt>
      <trkpt lat="45.90235" lon="5.00337">
        <ele>277</ele>
        <time>2018-03-08T11:53:09Z</time>
      </trkpt>
      <trkpt lat="45.90234" lon="5.0033">
        <ele>277</ele>
        <time>2018-03-08T11:53:10Z</time>
      </trkpt>
      <trkpt lat="45.90233" lon="5.00322">
        <ele>277</ele>
        <time>2018-03-08T11:53:11Z</time>
      </trkpt>
      <trkpt lat="45.90232" lon="5.00314">
        <ele>277</ele>
        <time>2018-03-08T11:53:12Z</time>
      </trkpt>
      <trkpt lat="45.90233" lon="5.00307">
        <ele>277</ele>
        <time>2018-03-08T11:53:13Z</time>
      </trkpt>
      <trkpt lat="45.90233" lon="5.00299">
        <ele>277</ele>
        <time>2018-03-08T11:53:14Z</time>
      </trkpt>
      <trkpt lat="45.90233" lon="5.00292">
        <ele>277</ele>
        <time>2018-03-08T11:53:15Z</time>
      </trkpt>
      <trkpt lat="45.90235" lon="5.00286">
        <ele>277</ele>
        <time>2018-03-08T11:53:16Z</time>
      </trkpt>
      <trkpt lat="45.90235" lon="5.00278">
        <ele>277</ele>
        <time>2018-03-08T11:53:17Z</time>
      </trkpt>
      <trkpt lat="45.90235" lon="5.00271">
        <ele>277</ele>
        <time>2018-03-08T11:53:18Z</time>
      </trkpt>
      <trkpt lat="45.90237" lon="5.00264">
        <ele>277</ele>
        <time>2018-03-08T11:53:19Z</time>
      </trkpt>
      <trkpt lat="45.90237" lon="5.00257">
        <ele>277</ele>
        <time>2018-03-08T11:53:20Z</time>
      </trkpt>
      <trkpt lat="45.90238" lon="5.00244">
        <ele>277</ele>
        <time>2018-03-08T11:53:22Z</time>
      </trkpt>
      <trkpt lat="45.90239" lon="5.00238">
        <ele>277</ele>
        <time>2018-03-08T11:53:23Z</time>
      </trkpt>
      <trkpt lat="45.9024" lon="5.00232">
        <ele>277</ele>
        <time>2018-03-08T11:53:24Z</time>
      </trkpt>
      <trkpt lat="45.90241" lon="5.00225">
        <ele>277</ele>
        <time>2018-03-08T11:53:25Z</time>
      </trkpt>
      <trkpt lat="45.90242" lon="5.00219">
        <ele>277</ele>
        <time>2018-03-08T11:53:26Z</time>
      </trkpt>
      <trkpt lat="45.90241" lon="5.0021">
        <ele>277</ele>
        <time>2018-03-08T11:53:27Z</time>
      </trkpt>
      <trkpt lat="45.90242" lon="5.00199">
        <ele>277</ele>
        <time>2018-03-08T11:53:29Z</time>
      </trkpt>
      <trkpt lat="45.90242" lon="5.00192">
        <ele>277</ele>
        <time>2018-03-08T11:53:30Z</time>
      </trkpt>
      <trkpt lat="45.90243" lon="5.0018">
        <ele>278</ele>
        <time>2018-03-08T11:53:32Z</time>
      </trkpt>
      <trkpt lat="45.90244" lon="5.00173">
        <ele>278</ele>
        <time>2018-03-08T11:53:33Z</time>
      </trkpt>
      <trkpt lat="45.90244" lon="5.00161">
        <ele>278</ele>
        <time>2018-03-08T11:53:35Z</time>
      </trkpt>
      <trkpt lat="45.90245" lon="5.00155">
        <ele>279</ele>
        <time>2018-03-08T11:53:36Z</time>
      </trkpt>
      <trkpt lat="45.90244" lon="5.00147">
        <ele>279</ele>
        <time>2018-03-08T11:53:37Z</time>
      </trkpt>
      <trkpt lat="45.90245" lon="5.00141">
        <ele>279</ele>
        <time>2018-03-08T11:53:38Z</time>
      </trkpt>
      <trkpt lat="45.90245" lon="5.00132">
        <ele>279</ele>
        <time>2018-03-08T11:53:40Z</time>
      </trkpt>
      <trkpt lat="45.90246" lon="5.00125">
        <ele>280</ele>
        <time>2018-03-08T11:53:41Z</time>
      </trkpt>
      <trkpt lat="45.90246" lon="5.00115">
        <ele>280</ele>
        <time>2018-03-08T11:53:43Z</time>
      </trkpt>
      <trkpt lat="45.90246" lon="5.00112">
        <ele>280</ele>
        <time>2018-03-08T11:53:44Z</time>
      </trkpt>
      <trkpt lat="45.90247" lon="5.00102">
        <ele>281</ele>
        <time>2018-03-08T11:53:46Z</time>
      </trkpt>
      <trkpt lat="45.90248" lon="5.00094">
        <ele>281</ele>
        <time>2018-03-08T11:53:47Z</time>
      </trkpt>
      <trkpt lat="45.9025" lon="5.00083">
        <ele>282</ele>
        <time>2018-03-08T11:53:50Z</time>
      </trkpt>
      <trkpt lat="45.9025" lon="5.00074">
        <ele>282</ele>
        <time>2018-03-08T11:53:51Z</time>
      </trkpt>
      <trkpt lat="45.90251" lon="5.00064">
        <ele>282</ele>
        <time>2018-03-08T11:53:54Z</time>
      </trkpt>
      <trkpt lat="45.90251" lon="5.00054">
        <ele>282</ele>
        <time>2018-03-08T11:53:55Z</time>
      </trkpt>
      <trkpt lat="45.90252" lon="5.00045">
        <ele>282</ele>
        <time>2018-03-08T11:53:57Z</time>
      </trkpt>
      <trkpt lat="45.90252" lon="5.0004">
        <ele>282</ele>
        <time>2018-03-08T11:53:58Z</time>
      </trkpt>
      <trkpt lat="45.9025" lon="5.0003">
        <ele>284</ele>
        <time>2018-03-08T11:54:00Z</time>
      </trkpt>
      <trkpt lat="45.90249" lon="5.00025">
        <ele>284</ele>
        <time>2018-03-08T11:54:01Z</time>
      </trkpt>
      <trkpt lat="45.9025" lon="5.00015">
        <ele>284</ele>
        <time>2018-03-08T11:54:03Z</time>
      </trkpt>
      <trkpt lat="45.90251" lon="5.00009">
        <ele>284</ele>
        <time>2018-03-08T11:54:04Z</time>
      </trkpt>
      <trkpt lat="45.90253" lon="4.99998">
        <ele>285</ele>
        <time>2018-03-08T11:54:07Z</time>
      </trkpt>
      <trkpt lat="45.90254" lon="4.99989">
        <ele>284</ele>
        <time>2018-03-08T11:54:08Z</time>
      </trkpt>
      <trkpt lat="45.90254" lon="4.99983">
        <ele>284</ele>
        <time>2018-03-08T11:54:10Z</time>
      </trkpt>
      <trkpt lat="45.90255" lon="4.99973">
        <ele>284</ele>
        <time>2018-03-08T11:54:11Z</time>
      </trkpt>
      <trkpt lat="45.90255" lon="4.99963">
        <ele>284</ele>
        <time>2018-03-08T11:54:14Z</time>
      </trkpt>
      <trkpt lat="45.90256" lon="4.99959">
        <ele>284</ele>
        <time>2018-03-08T11:54:15Z</time>
      </trkpt>
      <trkpt lat="45.90257" lon="4.99951">
        <ele>284</ele>
        <time>2018-03-08T11:54:17Z</time>
      </trkpt>
      <trkpt lat="45.90258" lon="4.99946">
        <ele>284</ele>
        <time>2018-03-08T11:54:18Z</time>
      </trkpt>
      <trkpt lat="45.90259" lon="4.99937">
        <ele>285</ele>
        <time>2018-03-08T11:54:20Z</time>
      </trkpt>
      <trkpt lat="45.90259" lon="4.99932">
        <ele>285</ele>
        <time>2018-03-08T11:54:21Z</time>
      </trkpt>
      <trkpt lat="45.9026" lon="4.99919">
        <ele>286</ele>
        <time>2018-03-08T11:54:22Z</time>
      </trkpt>
      <trkpt lat="45.90261" lon="4.99908">
        <ele>285</ele>
        <time>2018-03-08T11:54:25Z</time>
      </trkpt>
      <trkpt lat="45.90261" lon="4.99904">
        <ele>285</ele>
        <time>2018-03-08T11:54:26Z</time>
      </trkpt>
      <trkpt lat="45.90262" lon="4.99893">
        <ele>285</ele>
        <time>2018-03-08T11:54:27Z</time>
      </trkpt>
      <trkpt lat="45.90262" lon="4.9989">
        <ele>285</ele>
        <time>2018-03-08T11:54:28Z</time>
      </trkpt>
      <trkpt lat="45.90262" lon="4.9988">
        <ele>284</ele>
        <time>2018-03-08T11:54:31Z</time>
      </trkpt>
      <trkpt lat="45.90261" lon="4.99876">
        <ele>284</ele>
        <time>2018-03-08T11:54:32Z</time>
      </trkpt>
      <trkpt lat="45.90257" lon="4.99865">
        <ele>285</ele>
        <time>2018-03-08T11:54:35Z</time>
      </trkpt>
      <trkpt lat="45.90255" lon="4.99862">
        <ele>285</ele>
        <time>2018-03-08T11:54:36Z</time>
      </trkpt>
      <trkpt lat="45.9025" lon="4.99851">
        <ele>287</ele>
        <time>2018-03-08T11:54:39Z</time>
      </trkpt>
      <trkpt lat="45.90248" lon="4.99847">
        <ele>287</ele>
        <time>2018-03-08T11:54:40Z</time>
      </trkpt>
      <trkpt lat="45.90246" lon="4.99839">
        <ele>286</ele>
        <time>2018-03-08T11:54:42Z</time>
      </trkpt>
      <trkpt lat="45.90244" lon="4.99835">
        <ele>286</ele>
        <time>2018-03-08T11:54:43Z</time>
      </trkpt>
      <trkpt lat="45.90243" lon="4.9983">
        <ele>286</ele>
        <time>2018-03-08T11:54:44Z</time>
      </trkpt>
      <trkpt lat="45.90241" lon="4.99817">
        <ele>287</ele>
        <time>2018-03-08T11:54:45Z</time>
      </trkpt>
      <trkpt lat="45.9024" lon="4.99806">
        <ele>287</ele>
        <time>2018-03-08T11:54:48Z</time>
      </trkpt>
      <trkpt lat="45.9024" lon="4.99802">
        <ele>287</ele>
        <time>2018-03-08T11:54:49Z</time>
      </trkpt>
      <trkpt lat="45.9024" lon="4.9979">
        <ele>287</ele>
        <time>2018-03-08T11:54:52Z</time>
      </trkpt>
      <trkpt lat="45.90239" lon="4.99786">
        <ele>287</ele>
        <time>2018-03-08T11:54:53Z</time>
      </trkpt>
      <trkpt lat="45.90238" lon="4.99773">
        <ele>288</ele>
        <time>2018-03-08T11:54:54Z</time>
      </trkpt>
      <trkpt lat="45.90238" lon="4.99771">
        <ele>288</ele>
        <time>2018-03-08T11:54:55Z</time>
      </trkpt>
      <trkpt lat="45.90238" lon="4.99763">
        <ele>288</ele>
        <time>2018-03-08T11:54:56Z</time>
      </trkpt>
      <trkpt lat="45.90237" lon="4.99757">
        <ele>288</ele>
        <time>2018-03-08T11:54:57Z</time>
      </trkpt>
      <trkpt lat="45.90236" lon="4.99746">
        <ele>288</ele>
        <time>2018-03-08T11:54:59Z</time>
      </trkpt>
      <trkpt lat="45.90236" lon="4.99741">
        <ele>288</ele>
        <time>2018-03-08T11:55:00Z</time>
      </trkpt>
      <trkpt lat="45.90236" lon="4.99735">
        <ele>288</ele>
        <time>2018-03-08T11:55:02Z</time>
      </trkpt>
      <trkpt lat="45.90237" lon="4.99726">
        <ele>288</ele>
        <time>2018-03-08T11:55:03Z</time>
      </trkpt>
      <trkpt lat="45.90237" lon="4.99714">
        <ele>288</ele>
        <time>2018-03-08T11:55:05Z</time>
      </trkpt>
      <trkpt lat="45.90237" lon="4.99709">
        <ele>288</ele>
        <time>2018-03-08T11:55:06Z</time>
      </trkpt>
      <trkpt lat="45.90236" lon="4.99698">
        <ele>288</ele>
        <time>2018-03-08T11:55:08Z</time>
      </trkpt>
      <trkpt lat="45.90236" lon="4.99693">
        <ele>288</ele>
        <time>2018-03-08T11:55:09Z</time>
      </trkpt>
      <trkpt lat="45.90234" lon="4.99683">
        <ele>287</ele>
        <time>2018-03-08T11:55:11Z</time>
      </trkpt>
      <trkpt lat="45.90233" lon="4.99678">
        <ele>287</ele>
        <time>2018-03-08T11:55:12Z</time>
      </trkpt>
      <trkpt lat="45.9023" lon="4.99667">
        <ele>287</ele>
        <time>2018-03-08T11:55:14Z</time>
      </trkpt>
      <trkpt lat="45.90229" lon="4.99661">
        <ele>287</ele>
        <time>2018-03-08T11:55:15Z</time>
      </trkpt>
      <trkpt lat="45.90226" lon="4.9965">
        <ele>287</ele>
        <time>2018-03-08T11:55:17Z</time>
      </trkpt>
      <trkpt lat="45.90224" lon="4.99644">
        <ele>287</ele>
        <time>2018-03-08T11:55:18Z</time>
      </trkpt>
      <trkpt lat="45.90221" lon="4.99633">
        <ele>287</ele>
        <time>2018-03-08T11:55:20Z</time>
      </trkpt>
      <trkpt lat="45.9022" lon="4.99627">
        <ele>287</ele>
        <time>2018-03-08T11:55:21Z</time>
      </trkpt>
      <trkpt lat="45.90218" lon="4.99615">
        <ele>287</ele>
        <time>2018-03-08T11:55:23Z</time>
      </trkpt>
      <trkpt lat="45.90217" lon="4.99609">
        <ele>286</ele>
        <time>2018-03-08T11:55:24Z</time>
      </trkpt>
      <trkpt lat="45.90216" lon="4.99602">
        <ele>286</ele>
        <time>2018-03-08T11:55:25Z</time>
      </trkpt>
      <trkpt lat="45.90216" lon="4.99595">
        <ele>286</ele>
        <time>2018-03-08T11:55:26Z</time>
      </trkpt>
      <trkpt lat="45.90215" lon="4.99584">
        <ele>286</ele>
        <time>2018-03-08T11:55:28Z</time>
      </trkpt>
      <trkpt lat="45.90215" lon="4.99577">
        <ele>285</ele>
        <time>2018-03-08T11:55:29Z</time>
      </trkpt>
      <trkpt lat="45.90215" lon="4.99565">
        <ele>285</ele>
        <time>2018-03-08T11:55:31Z</time>
      </trkpt>
      <trkpt lat="45.90216" lon="4.99558">
        <ele>285</ele>
        <time>2018-03-08T11:55:32Z</time>
      </trkpt>
      <trkpt lat="45.90216" lon="4.99552">
        <ele>285</ele>
        <time>2018-03-08T11:55:33Z</time>
      </trkpt>
      <trkpt lat="45.90216" lon="4.99545">
        <ele>285</ele>
        <time>2018-03-08T11:55:34Z</time>
      </trkpt>
      <trkpt lat="45.90216" lon="4.99539">
        <ele>285</ele>
        <time>2018-03-08T11:55:35Z</time>
      </trkpt>
      <trkpt lat="45.90216" lon="4.99531">
        <ele>285</ele>
        <time>2018-03-08T11:55:36Z</time>
      </trkpt>
      <trkpt lat="45.90218" lon="4.99525">
        <ele>285</ele>
        <time>2018-03-08T11:55:37Z</time>
      </trkpt>
      <trkpt lat="45.9022" lon="4.99517">
        <ele>285</ele>
        <time>2018-03-08T11:55:38Z</time>
      </trkpt>
      <trkpt lat="45.90222" lon="4.99509">
        <ele>285</ele>
        <time>2018-03-08T11:55:39Z</time>
      </trkpt>
      <trkpt lat="45.90223" lon="4.99502">
        <ele>285</ele>
        <time>2018-03-08T11:55:40Z</time>
      </trkpt>
      <trkpt lat="45.90225" lon="4.99494">
        <ele>284</ele>
        <time>2018-03-08T11:55:41Z</time>
      </trkpt>
      <trkpt lat="45.90227" lon="4.99486">
        <ele>284</ele>
        <time>2018-03-08T11:55:42Z</time>
      </trkpt>
      <trkpt lat="45.90228" lon="4.99478">
        <ele>284</ele>
        <time>2018-03-08T11:55:43Z</time>
      </trkpt>
      <trkpt lat="45.9023" lon="4.99469">
        <ele>284</ele>
        <time>2018-03-08T11:55:44Z</time>
      </trkpt>
      <trkpt lat="45.90231" lon="4.9946">
        <ele>284</ele>
        <time>2018-03-08T11:55:45Z</time>
      </trkpt>
      <trkpt lat="45.90233" lon="4.99451">
        <ele>284</ele>
        <time>2018-03-08T11:55:46Z</time>
      </trkpt>
      <trkpt lat="45.90234" lon="4.99443">
        <ele>284</ele>
        <time>2018-03-08T11:55:47Z</time>
      </trkpt>
      <trkpt lat="45.90235" lon="4.99434">
        <ele>284</ele>
        <time>2018-03-08T11:55:48Z</time>
      </trkpt>
      <trkpt lat="45.90236" lon="4.99424">
        <ele>283</ele>
        <time>2018-03-08T11:55:49Z</time>
      </trkpt>
      <trkpt lat="45.90236" lon="4.99414">
        <ele>283</ele>
        <time>2018-03-08T11:55:50Z</time>
      </trkpt>
      <trkpt lat="45.90237" lon="4.99405">
        <ele>283</ele>
        <time>2018-03-08T11:55:51Z</time>
      </trkpt>
      <trkpt lat="45.90237" lon="4.99396">
        <ele>283</ele>
        <time>2018-03-08T11:55:52Z</time>
      </trkpt>
      <trkpt lat="45.90238" lon="4.99387">
        <ele>283</ele>
        <time>2018-03-08T11:55:53Z</time>
      </trkpt>
      <trkpt lat="45.90239" lon="4.99377">
        <ele>283</ele>
        <time>2018-03-08T11:55:54Z</time>
      </trkpt>
      <trkpt lat="45.90239" lon="4.99367">
        <ele>282</ele>
        <time>2018-03-08T11:55:55Z</time>
      </trkpt>
      <trkpt lat="45.9024" lon="4.99359">
        <ele>282</ele>
        <time>2018-03-08T11:55:56Z</time>
      </trkpt>
      <trkpt lat="45.90241" lon="4.99349">
        <ele>282</ele>
        <time>2018-03-08T11:55:57Z</time>
      </trkpt>
      <trkpt lat="45.90241" lon="4.99339">
        <ele>282</ele>
        <time>2018-03-08T11:55:58Z</time>
      </trkpt>
      <trkpt lat="45.90241" lon="4.99331">
        <ele>282</ele>
        <time>2018-03-08T11:55:59Z</time>
      </trkpt>
      <trkpt lat="45.9024" lon="4.99322">
        <ele>282</ele>
        <time>2018-03-08T11:56:00Z</time>
      </trkpt>
      <trkpt lat="45.90241" lon="4.99314">
        <ele>281</ele>
        <time>2018-03-08T11:56:01Z</time>
      </trkpt>
      <trkpt lat="45.90241" lon="4.99305">
        <ele>281</ele>
        <time>2018-03-08T11:56:02Z</time>
      </trkpt>
      <trkpt lat="45.90241" lon="4.99297">
        <ele>281</ele>
        <time>2018-03-08T11:56:03Z</time>
      </trkpt>
      <trkpt lat="45.90241" lon="4.99289">
        <ele>281</ele>
        <time>2018-03-08T11:56:04Z</time>
      </trkpt>
      <trkpt lat="45.90241" lon="4.9928">
        <ele>281</ele>
        <time>2018-03-08T11:56:05Z</time>
      </trkpt>
      <trkpt lat="45.90241" lon="4.99272">
        <ele>281</ele>
        <time>2018-03-08T11:56:06Z</time>
      </trkpt>
      <trkpt lat="45.90242" lon="4.99263">
        <ele>282</ele>
        <time>2018-03-08T11:56:07Z</time>
      </trkpt>
      <trkpt lat="45.90241" lon="4.99255">
        <ele>282</ele>
        <time>2018-03-08T11:56:08Z</time>
      </trkpt>
      <trkpt lat="45.90241" lon="4.99248">
        <ele>281</ele>
        <time>2018-03-08T11:56:09Z</time>
      </trkpt>
      <trkpt lat="45.90241" lon="4.9924">
        <ele>281</ele>
        <time>2018-03-08T11:56:10Z</time>
      </trkpt>
      <trkpt lat="45.90241" lon="4.99232">
        <ele>281</ele>
        <time>2018-03-08T11:56:11Z</time>
      </trkpt>
      <trkpt lat="45.9024" lon="4.99225">
        <ele>281</ele>
        <time>2018-03-08T11:56:12Z</time>
      </trkpt>
      <trkpt lat="45.9024" lon="4.99217">
        <ele>281</ele>
        <time>2018-03-08T11:56:13Z</time>
      </trkpt>
      <trkpt lat="45.90239" lon="4.9921">
        <ele>281</ele>
        <time>2018-03-08T11:56:14Z</time>
      </trkpt>
      <trkpt lat="45.90239" lon="4.99202">
        <ele>280</ele>
        <time>2018-03-08T11:56:15Z</time>
      </trkpt>
      <trkpt lat="45.90238" lon="4.99194">
        <ele>280</ele>
        <time>2018-03-08T11:56:16Z</time>
      </trkpt>
      <trkpt lat="45.90238" lon="4.99186">
        <ele>280</ele>
        <time>2018-03-08T11:56:17Z</time>
      </trkpt>
      <trkpt lat="45.90238" lon="4.99178">
        <ele>280</ele>
        <time>2018-03-08T11:56:18Z</time>
      </trkpt>
      <trkpt lat="45.90237" lon="4.9917">
        <ele>280</ele>
        <time>2018-03-08T11:56:19Z</time>
      </trkpt>
      <trkpt lat="45.90237" lon="4.99162">
        <ele>280</ele>
        <time>2018-03-08T11:56:20Z</time>
      </trkpt>
      <trkpt lat="45.90237" lon="4.99153">
        <ele>280</ele>
        <time>2018-03-08T11:56:21Z</time>
      </trkpt>
      <trkpt lat="45.90238" lon="4.99144">
        <ele>280</ele>
        <time>2018-03-08T11:56:22Z</time>
      </trkpt>
      <trkpt lat="45.90237" lon="4.99136">
        <ele>280</ele>
        <time>2018-03-08T11:56:23Z</time>
      </trkpt>
      <trkpt lat="45.90237" lon="4.99128">
        <ele>280</ele>
        <time>2018-03-08T11:56:24Z</time>
      </trkpt>
      <trkpt lat="45.90237" lon="4.9912">
        <ele>281</ele>
        <time>2018-03-08T11:56:25Z</time>
      </trkpt>
      <trkpt lat="45.90237" lon="4.99113">
        <ele>281</ele>
        <time>2018-03-08T11:56:26Z</time>
      </trkpt>
      <trkpt lat="45.90236" lon="4.99105">
        <ele>281</ele>
        <time>2018-03-08T11:56:27Z</time>
      </trkpt>
      <trkpt lat="45.90236" lon="4.99097">
        <ele>281</ele>
        <time>2018-03-08T11:56:28Z</time>
      </trkpt>
      <trkpt lat="45.90236" lon="4.99089">
        <ele>281</ele>
        <time>2018-03-08T11:56:29Z</time>
      </trkpt>
      <trkpt lat="45.90235" lon="4.99082">
        <ele>281</ele>
        <time>2018-03-08T11:56:30Z</time>
      </trkpt>
      <trkpt lat="45.90236" lon="4.99073">
        <ele>281</ele>
        <time>2018-03-08T11:56:31Z</time>
      </trkpt>
      <trkpt lat="45.90235" lon="4.99064">
        <ele>281</ele>
        <time>2018-03-08T11:56:32Z</time>
      </trkpt>
      <trkpt lat="45.90234" lon="4.99057">
        <ele>280</ele>
        <time>2018-03-08T11:56:33Z</time>
      </trkpt>
      <trkpt lat="45.90234" lon="4.9905">
        <ele>280</ele>
        <time>2018-03-08T11:56:34Z</time>
      </trkpt>
      <trkpt lat="45.90234" lon="4.99042">
        <ele>280</ele>
        <time>2018-03-08T11:56:35Z</time>
      </trkpt>
      <trkpt lat="45.90233" lon="4.99036">
        <ele>280</ele>
        <time>2018-03-08T11:56:36Z</time>
      </trkpt>
      <trkpt lat="45.90233" lon="4.99028">
        <ele>280</ele>
        <time>2018-03-08T11:56:37Z</time>
      </trkpt>
      <trkpt lat="45.90233" lon="4.9902">
        <ele>280</ele>
        <time>2018-03-08T11:56:38Z</time>
      </trkpt>
      <trkpt lat="45.90233" lon="4.99012">
        <ele>280</ele>
        <time>2018-03-08T11:56:39Z</time>
      </trkpt>
      <trkpt lat="45.90233" lon="4.99004">
        <ele>280</ele>
        <time>2018-03-08T11:56:40Z</time>
      </trkpt>
      <trkpt lat="45.90233" lon="4.98996">
        <ele>280</ele>
        <time>2018-03-08T11:56:41Z</time>
      </trkpt>
      <trkpt lat="45.90232" lon="4.98988">
        <ele>280</ele>
        <time>2018-03-08T11:56:42Z</time>
      </trkpt>
      <trkpt lat="45.90232" lon="4.9898">
        <ele>280</ele>
        <time>2018-03-08T11:56:43Z</time>
      </trkpt>
      <trkpt lat="45.90231" lon="4.98973">
        <ele>280</ele>
        <time>2018-03-08T11:56:44Z</time>
      </trkpt>
      <trkpt lat="45.90231" lon="4.98965">
        <ele>280</ele>
        <time>2018-03-08T11:56:45Z</time>
      </trkpt>
      <trkpt lat="45.90231" lon="4.98958">
        <ele>280</ele>
        <time>2018-03-08T11:56:46Z</time>
      </trkpt>
      <trkpt lat="45.9023" lon="4.98951">
        <ele>280</ele>
        <time>2018-03-08T11:56:47Z</time>
      </trkpt>
      <trkpt lat="45.9023" lon="4.98944">
        <ele>280</ele>
        <time>2018-03-08T11:56:48Z</time>
      </trkpt>
      <trkpt lat="45.90231" lon="4.98936">
        <ele>280</ele>
        <time>2018-03-08T11:56:49Z</time>
      </trkpt>
      <trkpt lat="45.9023" lon="4.9893">
        <ele>280</ele>
        <time>2018-03-08T11:56:50Z</time>
      </trkpt>
      <trkpt lat="45.9023" lon="4.98923">
        <ele>280</ele>
        <time>2018-03-08T11:56:51Z</time>
      </trkpt>
      <trkpt lat="45.90229" lon="4.98915">
        <ele>281</ele>
        <time>2018-03-08T11:56:52Z</time>
      </trkpt>
      <trkpt lat="45.9023" lon="4.98908">
        <ele>281</ele>
        <time>2018-03-08T11:56:53Z</time>
      </trkpt>
      <trkpt lat="45.9023" lon="4.98901">
        <ele>281</ele>
        <time>2018-03-08T11:56:54Z</time>
      </trkpt>
      <trkpt lat="45.9023" lon="4.98895">
        <ele>281</ele>
        <time>2018-03-08T11:56:55Z</time>
      </trkpt>
      <trkpt lat="45.9023" lon="4.98888">
        <ele>281</ele>
        <time>2018-03-08T11:56:56Z</time>
      </trkpt>
      <trkpt lat="45.9023" lon="4.9888">
        <ele>281</ele>
        <time>2018-03-08T11:56:57Z</time>
      </trkpt>
      <trkpt lat="45.9023" lon="4.98873">
        <ele>281</ele>
        <time>2018-03-08T11:56:58Z</time>
      </trkpt>
      <trkpt lat="45.90228" lon="4.98862">
        <ele>281</ele>
        <time>2018-03-08T11:57:00Z</time>
      </trkpt>
      <trkpt lat="45.90228" lon="4.98855">
        <ele>281</ele>
        <time>2018-03-08T11:57:01Z</time>
      </trkpt>
      <trkpt lat="45.90227" lon="4.98848">
        <ele>281</ele>
        <time>2018-03-08T11:57:02Z</time>
      </trkpt>
      <trkpt lat="45.90226" lon="4.98842">
        <ele>281</ele>
        <time>2018-03-08T11:57:03Z</time>
      </trkpt>
      <trkpt lat="45.90225" lon="4.98836">
        <ele>281</ele>
        <time>2018-03-08T11:57:04Z</time>
      </trkpt>
      <trkpt lat="45.90223" lon="4.9883">
        <ele>281</ele>
        <time>2018-03-08T11:57:05Z</time>
      </trkpt>
      <trkpt lat="45.90221" lon="4.98819">
        <ele>281</ele>
        <time>2018-03-08T11:57:07Z</time>
      </trkpt>
      <trkpt lat="45.9022" lon="4.98813">
        <ele>281</ele>
        <time>2018-03-08T11:57:08Z</time>
      </trkpt>
      <trkpt lat="45.90217" lon="4.98802">
        <ele>281</ele>
        <time>2018-03-08T11:57:10Z</time>
      </trkpt>
      <trkpt lat="45.90215" lon="4.98796">
        <ele>281</ele>
        <time>2018-03-08T11:57:11Z</time>
      </trkpt>
      <trkpt lat="45.90211" lon="4.98787">
        <ele>281</ele>
        <time>2018-03-08T11:57:13Z</time>
      </trkpt>
      <trkpt lat="45.9021" lon="4.98783">
        <ele>281</ele>
        <time>2018-03-08T11:57:14Z</time>
      </trkpt>
      <trkpt lat="45.90207" lon="4.98773">
        <ele>281</ele>
        <time>2018-03-08T11:57:16Z</time>
      </trkpt>
      <trkpt lat="45.90206" lon="4.98768">
        <ele>281</ele>
        <time>2018-03-08T11:57:17Z</time>
      </trkpt>
      <trkpt lat="45.90203" lon="4.98758">
        <ele>281</ele>
        <time>2018-03-08T11:57:19Z</time>
      </trkpt>
      <trkpt lat="45.90202" lon="4.98753">
        <ele>281</ele>
        <time>2018-03-08T11:57:20Z</time>
      </trkpt>
      <trkpt lat="45.90198" lon="4.98744">
        <ele>281</ele>
        <time>2018-03-08T11:57:22Z</time>
      </trkpt>
      <trkpt lat="45.90197" lon="4.98739">
        <ele>281</ele>
        <time>2018-03-08T11:57:23Z</time>
      </trkpt>
      <trkpt lat="45.90195" lon="4.98729">
        <ele>281</ele>
        <time>2018-03-08T11:57:25Z</time>
      </trkpt>
      <trkpt lat="45.90194" lon="4.98724">
        <ele>281</ele>
        <time>2018-03-08T11:57:26Z</time>
      </trkpt>
      <trkpt lat="45.90191" lon="4.98715">
        <ele>281</ele>
        <time>2018-03-08T11:57:29Z</time>
      </trkpt>
      <trkpt lat="45.9019" lon="4.98712">
        <ele>281</ele>
        <time>2018-03-08T11:57:30Z</time>
      </trkpt>
      <trkpt lat="45.90186" lon="4.98702">
        <ele>281</ele>
        <time>2018-03-08T11:57:33Z</time>
      </trkpt>
      <trkpt lat="45.90185" lon="4.98698">
        <ele>281</ele>
        <time>2018-03-08T11:57:34Z</time>
      </trkpt>
      <trkpt lat="45.9018" lon="4.98687">
        <ele>282</ele>
        <time>2018-03-08T11:57:35Z</time>
      </trkpt>
      <trkpt lat="45.9018" lon="4.98685">
        <ele>282</ele>
        <time>2018-03-08T11:57:36Z</time>
      </trkpt>
      <trkpt lat="45.90176" lon="4.98676">
        <ele>282</ele>
        <time>2018-03-08T11:57:39Z</time>
      </trkpt>
      <trkpt lat="45.90174" lon="4.98672">
        <ele>282</ele>
        <time>2018-03-08T11:57:40Z</time>
      </trkpt>
      <trkpt lat="45.90171" lon="4.98665">
        <ele>282</ele>
        <time>2018-03-08T11:57:42Z</time>
      </trkpt>
      <trkpt lat="45.90169" lon="4.98661">
        <ele>282</ele>
        <time>2018-03-08T11:57:43Z</time>
      </trkpt>
      <trkpt lat="45.90166" lon="4.98653">
        <ele>282</ele>
        <time>2018-03-08T11:57:45Z</time>
      </trkpt>
      <trkpt lat="45.90164" lon="4.98649">
        <ele>282</ele>
        <time>2018-03-08T11:57:46Z</time>
      </trkpt>
      <trkpt lat="45.90161" lon="4.98639">
        <ele>282</ele>
        <time>2018-03-08T11:57:48Z</time>
      </trkpt>
      <trkpt lat="45.90157" lon="4.98627">
        <ele>282</ele>
        <time>2018-03-08T11:57:49Z</time>
      </trkpt>
      <trkpt lat="45.90153" lon="4.98617">
        <ele>282</ele>
        <time>2018-03-08T11:57:51Z</time>
      </trkpt>
      <trkpt lat="45.90152" lon="4.98612">
        <ele>282</ele>
        <time>2018-03-08T11:57:52Z</time>
      </trkpt>
      <trkpt lat="45.90148" lon="4.98603">
        <ele>282</ele>
        <time>2018-03-08T11:57:54Z</time>
      </trkpt>
      <trkpt lat="45.90146" lon="4.98598">
        <ele>282</ele>
        <time>2018-03-08T11:57:55Z</time>
      </trkpt>
      <trkpt lat="45.90143" lon="4.98588">
        <ele>282</ele>
        <time>2018-03-08T11:57:58Z</time>
      </trkpt>
      <trkpt lat="45.90139" lon="4.9858">
        <ele>283</ele>
        <time>2018-03-08T11:57:59Z</time>
      </trkpt>
      <trkpt lat="45.90138" lon="4.98574">
        <ele>283</ele>
        <time>2018-03-08T11:58:01Z</time>
      </trkpt>
      <trkpt lat="45.90135" lon="4.98566">
        <ele>282</ele>
        <time>2018-03-08T11:58:02Z</time>
      </trkpt>
      <trkpt lat="45.90131" lon="4.98556">
        <ele>282</ele>
        <time>2018-03-08T11:58:05Z</time>
      </trkpt>
      <trkpt lat="45.9013" lon="4.98552">
        <ele>282</ele>
        <time>2018-03-08T11:58:06Z</time>
      </trkpt>
      <trkpt lat="45.90127" lon="4.98544">
        <ele>283</ele>
        <time>2018-03-08T11:58:08Z</time>
      </trkpt>
      <trkpt lat="45.90123" lon="4.98532">
        <ele>283</ele>
        <time>2018-03-08T11:58:09Z</time>
      </trkpt>
      <trkpt lat="45.90119" lon="4.98523">
        <ele>283</ele>
        <time>2018-03-08T11:58:11Z</time>
      </trkpt>
      <trkpt lat="45.90117" lon="4.98518">
        <ele>283</ele>
        <time>2018-03-08T11:58:12Z</time>
      </trkpt>
      <trkpt lat="45.90113" lon="4.98508">
        <ele>283</ele>
        <time>2018-03-08T11:58:15Z</time>
      </trkpt>
      <trkpt lat="45.90111" lon="4.98505">
        <ele>283</ele>
        <time>2018-03-08T11:58:16Z</time>
      </trkpt>
      <trkpt lat="45.90107" lon="4.98494">
        <ele>283</ele>
        <time>2018-03-08T11:58:19Z</time>
      </trkpt>
      <trkpt lat="45.90106" lon="4.9849">
        <ele>283</ele>
        <time>2018-03-08T11:58:20Z</time>
      </trkpt>
      <trkpt lat="45.90103" lon="4.98482">
        <ele>283</ele>
        <time>2018-03-08T11:58:22Z</time>
      </trkpt>
      <trkpt lat="45.90099" lon="4.9847">
        <ele>283</ele>
        <time>2018-03-08T11:58:23Z</time>
      </trkpt>
      <trkpt lat="45.90095" lon="4.98461">
        <ele>283</ele>
        <time>2018-03-08T11:58:25Z</time>
      </trkpt>
      <trkpt lat="45.90094" lon="4.98456">
        <ele>283</ele>
        <time>2018-03-08T11:58:26Z</time>
      </trkpt>
      <trkpt lat="45.90091" lon="4.98446">
        <ele>283</ele>
        <time>2018-03-08T11:58:28Z</time>
      </trkpt>
      <trkpt lat="45.90089" lon="4.98441">
        <ele>283</ele>
        <time>2018-03-08T11:58:29Z</time>
      </trkpt>
      <trkpt lat="45.90086" lon="4.9843">
        <ele>284</ele>
        <time>2018-03-08T11:58:31Z</time>
      </trkpt>
      <trkpt lat="45.90084" lon="4.98425">
        <ele>284</ele>
        <time>2018-03-08T11:58:32Z</time>
      </trkpt>
      <trkpt lat="45.90081" lon="4.98414">
        <ele>284</ele>
        <time>2018-03-08T11:58:34Z</time>
      </trkpt>
      <trkpt lat="45.90079" lon="4.98408">
        <ele>283</ele>
        <time>2018-03-08T11:58:35Z</time>
      </trkpt>
      <trkpt lat="45.90076" lon="4.98398">
        <ele>283</ele>
        <time>2018-03-08T11:58:37Z</time>
      </trkpt>
      <trkpt lat="45.90075" lon="4.98392">
        <ele>283</ele>
        <time>2018-03-08T11:58:38Z</time>
      </trkpt>
      <trkpt lat="45.90074" lon="4.98384">
        <ele>282</ele>
        <time>2018-03-08T11:58:39Z</time>
      </trkpt>
      <trkpt lat="45.90073" lon="4.98377">
        <ele>282</ele>
        <time>2018-03-08T11:58:40Z</time>
      </trkpt>
      <trkpt lat="45.90072" lon="4.9837">
        <ele>282</ele>
        <time>2018-03-08T11:58:41Z</time>
      </trkpt>
      <trkpt lat="45.90071" lon="4.98363">
        <ele>282</ele>
        <time>2018-03-08T11:58:42Z</time>
      </trkpt>
      <trkpt lat="45.90071" lon="4.9835">
        <ele>282</ele>
        <time>2018-03-08T11:58:44Z</time>
      </trkpt>
      <trkpt lat="45.90071" lon="4.98342">
        <ele>282</ele>
        <time>2018-03-08T11:58:45Z</time>
      </trkpt>
      <trkpt lat="45.9007" lon="4.98335">
        <ele>282</ele>
        <time>2018-03-08T11:58:46Z</time>
      </trkpt>
      <trkpt lat="45.9007" lon="4.98327">
        <ele>281</ele>
        <time>2018-03-08T11:58:47Z</time>
      </trkpt>
      <trkpt lat="45.90069" lon="4.98319">
        <ele>281</ele>
        <time>2018-03-08T11:58:48Z</time>
      </trkpt>
      <trkpt lat="45.90068" lon="4.98312">
        <ele>281</ele>
        <time>2018-03-08T11:58:49Z</time>
      </trkpt>
      <trkpt lat="45.90068" lon="4.98305">
        <ele>281</ele>
        <time>2018-03-08T11:58:50Z</time>
      </trkpt>
      <trkpt lat="45.90068" lon="4.98297">
        <ele>281</ele>
        <time>2018-03-08T11:58:51Z</time>
      </trkpt>
      <trkpt lat="45.90068" lon="4.9829">
        <ele>281</ele>
        <time>2018-03-08T11:58:52Z</time>
      </trkpt>
      <trkpt lat="45.90067" lon="4.98282">
        <ele>281</ele>
        <time>2018-03-08T11:58:53Z</time>
      </trkpt>
      <trkpt lat="45.90067" lon="4.98274">
        <ele>281</ele>
        <time>2018-03-08T11:58:54Z</time>
      </trkpt>
      <trkpt lat="45.90066" lon="4.98265">
        <ele>281</ele>
        <time>2018-03-08T11:58:55Z</time>
      </trkpt>
      <trkpt lat="45.90065" lon="4.98258">
        <ele>281</ele>
        <time>2018-03-08T11:58:56Z</time>
      </trkpt>
      <trkpt lat="45.90064" lon="4.98251">
        <ele>281</ele>
        <time>2018-03-08T11:58:57Z</time>
      </trkpt>
      <trkpt lat="45.90063" lon="4.98245">
        <ele>280</ele>
        <time>2018-03-08T11:58:58Z</time>
      </trkpt>
      <trkpt lat="45.90063" lon="4.98237">
        <ele>280</ele>
        <time>2018-03-08T11:58:59Z</time>
      </trkpt>
      <trkpt lat="45.90062" lon="4.9823">
        <ele>280</ele>
        <time>2018-03-08T11:59:00Z</time>
      </trkpt>
      <trkpt lat="45.90061" lon="4.98224">
        <ele>280</ele>
        <time>2018-03-08T11:59:01Z</time>
      </trkpt>
      <trkpt lat="45.9006" lon="4.98216">
        <ele>280</ele>
        <time>2018-03-08T11:59:02Z</time>
      </trkpt>
      <trkpt lat="45.90059" lon="4.9821">
        <ele>280</ele>
        <time>2018-03-08T11:59:03Z</time>
      </trkpt>
      <trkpt lat="45.90059" lon="4.98202">
        <ele>280</ele>
        <time>2018-03-08T11:59:04Z</time>
      </trkpt>
      <trkpt lat="45.90058" lon="4.98195">
        <ele>280</ele>
        <time>2018-03-08T11:59:05Z</time>
      </trkpt>
      <trkpt lat="45.90059" lon="4.98187">
        <ele>280</ele>
        <time>2018-03-08T11:59:06Z</time>
      </trkpt>
      <trkpt lat="45.90059" lon="4.98179">
        <ele>280</ele>
        <time>2018-03-08T11:59:07Z</time>
      </trkpt>
      <trkpt lat="45.90059" lon="4.98173">
        <ele>280</ele>
        <time>2018-03-08T11:59:08Z</time>
      </trkpt>
      <trkpt lat="45.90058" lon="4.98165">
        <ele>279</ele>
        <time>2018-03-08T11:59:09Z</time>
      </trkpt>
      <trkpt lat="45.90057" lon="4.98158">
        <ele>279</ele>
        <time>2018-03-08T11:59:10Z</time>
      </trkpt>
      <trkpt lat="45.90056" lon="4.98151">
        <ele>279</ele>
        <time>2018-03-08T11:59:11Z</time>
      </trkpt>
      <trkpt lat="45.90055" lon="4.98144">
        <ele>279</ele>
        <time>2018-03-08T11:59:12Z</time>
      </trkpt>
      <trkpt lat="45.90055" lon="4.98136">
        <ele>279</ele>
        <time>2018-03-08T11:59:13Z</time>
      </trkpt>
      <trkpt lat="45.90053" lon="4.9813">
        <ele>279</ele>
        <time>2018-03-08T11:59:14Z</time>
      </trkpt>
      <trkpt lat="45.90053" lon="4.98121">
        <ele>279</ele>
        <time>2018-03-08T11:59:15Z</time>
      </trkpt>
      <trkpt lat="45.90053" lon="4.98114">
        <ele>279</ele>
        <time>2018-03-08T11:59:16Z</time>
      </trkpt>
      <trkpt lat="45.90052" lon="4.98106">
        <ele>279</ele>
        <time>2018-03-08T11:59:17Z</time>
      </trkpt>
      <trkpt lat="45.90052" lon="4.98098">
        <ele>279</ele>
        <time>2018-03-08T11:59:18Z</time>
      </trkpt>
      <trkpt lat="45.90052" lon="4.98091">
        <ele>279</ele>
        <time>2018-03-08T11:59:19Z</time>
      </trkpt>
      <trkpt lat="45.90052" lon="4.98084">
        <ele>279</ele>
        <time>2018-03-08T11:59:20Z</time>
      </trkpt>
      <trkpt lat="45.90052" lon="4.98076">
        <ele>279</ele>
        <time>2018-03-08T11:59:21Z</time>
      </trkpt>
      <trkpt lat="45.90052" lon="4.98063">
        <ele>279</ele>
        <time>2018-03-08T11:59:23Z</time>
      </trkpt>
      <trkpt lat="45.90051" lon="4.98056">
        <ele>279</ele>
        <time>2018-03-08T11:59:24Z</time>
      </trkpt>
      <trkpt lat="45.9005" lon="4.9805">
        <ele>279</ele>
        <time>2018-03-08T11:59:25Z</time>
      </trkpt>
      <trkpt lat="45.9005" lon="4.98043">
        <ele>279</ele>
        <time>2018-03-08T11:59:26Z</time>
      </trkpt>
      <trkpt lat="45.90049" lon="4.98036">
        <ele>278</ele>
        <time>2018-03-08T11:59:27Z</time>
      </trkpt>
      <trkpt lat="45.90048" lon="4.9803">
        <ele>278</ele>
        <time>2018-03-08T11:59:28Z</time>
      </trkpt>
      <trkpt lat="45.90047" lon="4.98024">
        <ele>278</ele>
        <time>2018-03-08T11:59:29Z</time>
      </trkpt>
      <trkpt lat="45.90046" lon="4.98016">
        <ele>278</ele>
        <time>2018-03-08T11:59:30Z</time>
      </trkpt>
      <trkpt lat="45.90045" lon="4.98009">
        <ele>278</ele>
        <time>2018-03-08T11:59:31Z</time>
      </trkpt>
      <trkpt lat="45.90046" lon="4.98002">
        <ele>278</ele>
        <time>2018-03-08T11:59:32Z</time>
      </trkpt>
      <trkpt lat="45.90046" lon="4.97995">
        <ele>278</ele>
        <time>2018-03-08T11:59:33Z</time>
      </trkpt>
      <trkpt lat="45.90045" lon="4.97987">
        <ele>278</ele>
        <time>2018-03-08T11:59:34Z</time>
      </trkpt>
      <trkpt lat="45.90046" lon="4.97979">
        <ele>278</ele>
        <time>2018-03-08T11:59:35Z</time>
      </trkpt>
      <trkpt lat="45.90045" lon="4.97972">
        <ele>278</ele>
        <time>2018-03-08T11:59:36Z</time>
      </trkpt>
      <trkpt lat="45.90044" lon="4.97964">
        <ele>278</ele>
        <time>2018-03-08T11:59:37Z</time>
      </trkpt>
      <trkpt lat="45.90043" lon="4.97957">
        <ele>279</ele>
        <time>2018-03-08T11:59:38Z</time>
      </trkpt>
      <trkpt lat="45.90042" lon="4.9795">
        <ele>279</ele>
        <time>2018-03-08T11:59:39Z</time>
      </trkpt>
      <trkpt lat="45.90043" lon="4.97942">
        <ele>279</ele>
        <time>2018-03-08T11:59:40Z</time>
      </trkpt>
      <trkpt lat="45.90043" lon="4.97935">
        <ele>279</ele>
        <time>2018-03-08T11:59:41Z</time>
      </trkpt>
      <trkpt lat="45.90043" lon="4.97927">
        <ele>279</ele>
        <time>2018-03-08T11:59:42Z</time>
      </trkpt>
      <trkpt lat="45.90042" lon="4.97919">
        <ele>279</ele>
        <time>2018-03-08T11:59:43Z</time>
      </trkpt>
      <trkpt lat="45.9004" lon="4.97914">
        <ele>279</ele>
        <time>2018-03-08T11:59:44Z</time>
      </trkpt>
      <trkpt lat="45.90036" lon="4.97911">
        <ele>279</ele>
        <time>2018-03-08T11:59:45Z</time>
      </trkpt>
      <trkpt lat="45.90031" lon="4.97906">
        <ele>279</ele>
        <time>2018-03-08T11:59:46Z</time>
      </trkpt>
      <trkpt lat="45.90025" lon="4.97904">
        <ele>279</ele>
        <time>2018-03-08T11:59:47Z</time>
      </trkpt>
      <trkpt lat="45.9002" lon="4.97904">
        <ele>279</ele>
        <time>2018-03-08T11:59:48Z</time>
      </trkpt>
      <trkpt lat="45.90016" lon="4.97906">
        <ele>279</ele>
        <time>2018-03-08T11:59:49Z</time>
      </trkpt>
      <trkpt lat="45.90011" lon="4.97908">
        <ele>278</ele>
        <time>2018-03-08T11:59:50Z</time>
      </trkpt>
      <trkpt lat="45.90005" lon="4.97912">
        <ele>278</ele>
        <time>2018-03-08T11:59:52Z</time>
      </trkpt>
      <trkpt lat="45.90001" lon="4.97913">
        <ele>278</ele>
        <time>2018-03-08T11:59:53Z</time>
      </trkpt>
      <trkpt lat="45.89992" lon="4.97917">
        <ele>278</ele>
        <time>2018-03-08T11:59:54Z</time>
      </trkpt>
      <trkpt lat="45.89986" lon="4.97918">
        <ele>278</ele>
        <time>2018-03-08T11:59:55Z</time>
      </trkpt>
      <trkpt lat="45.89982" lon="4.97922">
        <ele>278</ele>
        <time>2018-03-08T11:59:56Z</time>
      </trkpt>
      <trkpt lat="45.89978" lon="4.97923">
        <ele>278</ele>
        <time>2018-03-08T11:59:57Z</time>
      </trkpt>
      <trkpt lat="45.89973" lon="4.97924">
        <ele>278</ele>
        <time>2018-03-08T11:59:58Z</time>
      </trkpt>
      <trkpt lat="45.89965" lon="4.97927">
        <ele>278</ele>
        <time>2018-03-08T12:00:00Z</time>
      </trkpt>
      <trkpt lat="45.89959" lon="4.97929">
        <ele>278</ele>
        <time>2018-03-08T12:00:01Z</time>
      </trkpt>
      <trkpt lat="45.89954" lon="4.9793">
        <ele>278</ele>
        <time>2018-03-08T12:00:02Z</time>
      </trkpt>
      <trkpt lat="45.8995" lon="4.97929">
        <ele>278</ele>
        <time>2018-03-08T12:00:03Z</time>
      </trkpt>
      <trkpt lat="45.89944" lon="4.97928">
        <ele>278</ele>
        <time>2018-03-08T12:00:04Z</time>
      </trkpt>
      <trkpt lat="45.89939" lon="4.97927">
        <ele>278</ele>
        <time>2018-03-08T12:00:05Z</time>
      </trkpt>
      <trkpt lat="45.89934" lon="4.97927">
        <ele>278</ele>
        <time>2018-03-08T12:00:06Z</time>
      </trkpt>
      <trkpt lat="45.89929" lon="4.97925">
        <ele>278</ele>
        <time>2018-03-08T12:00:07Z</time>
      </trkpt>
      <trkpt lat="45.89924" lon="4.97923">
        <ele>278</ele>
        <time>2018-03-08T12:00:08Z</time>
      </trkpt>
      <trkpt lat="45.89919" lon="4.97921">
        <ele>278</ele>
        <time>2018-03-08T12:00:09Z</time>
      </trkpt>
      <trkpt lat="45.89912" lon="4.97918">
        <ele>278</ele>
        <time>2018-03-08T12:00:11Z</time>
      </trkpt>
      <trkpt lat="45.89907" lon="4.97919">
        <ele>278</ele>
        <time>2018-03-08T12:00:12Z</time>
      </trkpt>
      <trkpt lat="45.89902" lon="4.97917">
        <ele>278</ele>
        <time>2018-03-08T12:00:13Z</time>
      </trkpt>
      <trkpt lat="45.89898" lon="4.97915">
        <ele>278</ele>
        <time>2018-03-08T12:00:14Z</time>
      </trkpt>
      <trkpt lat="45.8989" lon="4.97913">
        <ele>278</ele>
        <time>2018-03-08T12:00:16Z</time>
      </trkpt>
      <trkpt lat="45.89885" lon="4.97909">
        <ele>278</ele>
        <time>2018-03-08T12:00:17Z</time>
      </trkpt>
      <trkpt lat="45.89877" lon="4.97906">
        <ele>278</ele>
        <time>2018-03-08T12:00:19Z</time>
      </trkpt>
      <trkpt lat="45.89873" lon="4.97904">
        <ele>278</ele>
        <time>2018-03-08T12:00:20Z</time>
      </trkpt>
      <trkpt lat="45.89865" lon="4.979">
        <ele>278</ele>
        <time>2018-03-08T12:00:22Z</time>
      </trkpt>
      <trkpt lat="45.89861" lon="4.97899">
        <ele>278</ele>
        <time>2018-03-08T12:00:23Z</time>
      </trkpt>
      <trkpt lat="45.89854" lon="4.97895">
        <ele>278</ele>
        <time>2018-03-08T12:00:25Z</time>
      </trkpt>
      <trkpt lat="45.89851" lon="4.97893">
        <ele>278</ele>
        <time>2018-03-08T12:00:26Z</time>
      </trkpt>
      <trkpt lat="45.89844" lon="4.97888">
        <ele>278</ele>
        <time>2018-03-08T12:00:28Z</time>
      </trkpt>
      <trkpt lat="45.89842" lon="4.97887">
        <ele>278</ele>
        <time>2018-03-08T12:00:29Z</time>
      </trkpt>
      <trkpt lat="45.89835" lon="4.97884">
        <ele>278</ele>
        <time>2018-03-08T12:00:32Z</time>
      </trkpt>
      <trkpt lat="45.89833" lon="4.97882">
        <ele>278</ele>
        <time>2018-03-08T12:00:33Z</time>
      </trkpt>
      <trkpt lat="45.89825" lon="4.97877">
        <ele>278</ele>
        <time>2018-03-08T12:00:36Z</time>
      </trkpt>
      <trkpt lat="45.89822" lon="4.97875">
        <ele>278</ele>
        <time>2018-03-08T12:00:37Z</time>
      </trkpt>
      <trkpt lat="45.89815" lon="4.9787">
        <ele>278</ele>
        <time>2018-03-08T12:00:39Z</time>
      </trkpt>
      <trkpt lat="45.89813" lon="4.97868">
        <ele>278</ele>
        <time>2018-03-08T12:00:40Z</time>
      </trkpt>
      <trkpt lat="45.89807" lon="4.97864">
        <ele>278</ele>
        <time>2018-03-08T12:00:42Z</time>
      </trkpt>
      <trkpt lat="45.89804" lon="4.97862">
        <ele>278</ele>
        <time>2018-03-08T12:00:43Z</time>
      </trkpt>
      <trkpt lat="45.89798" lon="4.97858">
        <ele>278</ele>
        <time>2018-03-08T12:00:45Z</time>
      </trkpt>
      <trkpt lat="45.89795" lon="4.97855">
        <ele>278</ele>
        <time>2018-03-08T12:00:46Z</time>
      </trkpt>
      <trkpt lat="45.89789" lon="4.97851">
        <ele>278</ele>
        <time>2018-03-08T12:00:48Z</time>
      </trkpt>
      <trkpt lat="45.89786" lon="4.97848">
        <ele>278</ele>
        <time>2018-03-08T12:00:49Z</time>
      </trkpt>
      <trkpt lat="45.8978" lon="4.97843">
        <ele>278</ele>
        <time>2018-03-08T12:00:51Z</time>
      </trkpt>
      <trkpt lat="45.89771" lon="4.97837">
        <ele>278</ele>
        <time>2018-03-08T12:00:52Z</time>
      </trkpt>
      <trkpt lat="45.89763" lon="4.97832">
        <ele>278</ele>
        <time>2018-03-08T12:00:55Z</time>
      </trkpt>
      <trkpt lat="45.89761" lon="4.9783">
        <ele>278</ele>
        <time>2018-03-08T12:00:56Z</time>
      </trkpt>
      <trkpt lat="45.89754" lon="4.97825">
        <ele>278</ele>
        <time>2018-03-08T12:00:58Z</time>
      </trkpt>
      <trkpt lat="45.89752" lon="4.97824">
        <ele>278</ele>
        <time>2018-03-08T12:00:59Z</time>
      </trkpt>
      <trkpt lat="45.89745" lon="4.97818">
        <ele>279</ele>
        <time>2018-03-08T12:01:02Z</time>
      </trkpt>
      <trkpt lat="45.89743" lon="4.97816">
        <ele>279</ele>
        <time>2018-03-08T12:01:03Z</time>
      </trkpt>
      <trkpt lat="45.89737" lon="4.97812">
        <ele>279</ele>
        <time>2018-03-08T12:01:05Z</time>
      </trkpt>
      <trkpt lat="45.89735" lon="4.9781">
        <ele>279</ele>
        <time>2018-03-08T12:01:06Z</time>
      </trkpt>
      <trkpt lat="45.89729" lon="4.97805">
        <ele>279</ele>
        <time>2018-03-08T12:01:08Z</time>
      </trkpt>
      <trkpt lat="45.89726" lon="4.97803">
        <ele>279</ele>
        <time>2018-03-08T12:01:09Z</time>
      </trkpt>
      <trkpt lat="45.8972" lon="4.97798">
        <ele>279</ele>
        <time>2018-03-08T12:01:11Z</time>
      </trkpt>
      <trkpt lat="45.89717" lon="4.97796">
        <ele>279</ele>
        <time>2018-03-08T12:01:12Z</time>
      </trkpt>
      <trkpt lat="45.89711" lon="4.97792">
        <ele>279</ele>
        <time>2018-03-08T12:01:14Z</time>
      </trkpt>
      <trkpt lat="45.89708" lon="4.97789">
        <ele>280</ele>
        <time>2018-03-08T12:01:15Z</time>
      </trkpt>
      <trkpt lat="45.89702" lon="4.97785">
        <ele>280</ele>
        <time>2018-03-08T12:01:17Z</time>
      </trkpt>
      <trkpt lat="45.897" lon="4.97783">
        <ele>280</ele>
        <time>2018-03-08T12:01:18Z</time>
      </trkpt>
      <trkpt lat="45.89692" lon="4.97777">
        <ele>280</ele>
        <time>2018-03-08T12:01:21Z</time>
      </trkpt>
      <trkpt lat="45.89689" lon="4.97775">
        <ele>280</ele>
        <time>2018-03-08T12:01:22Z</time>
      </trkpt>
      <trkpt lat="45.89681" lon="4.97769">
        <ele>280</ele>
        <time>2018-03-08T12:01:25Z</time>
      </trkpt>
      <trkpt lat="45.89679" lon="4.97766">
        <ele>280</ele>
        <time>2018-03-08T12:01:26Z</time>
      </trkpt>
      <trkpt lat="45.89673" lon="4.97758">
        <ele>280</ele>
        <time>2018-03-08T12:01:29Z</time>
      </trkpt>
      <trkpt lat="45.89672" lon="4.97754">
        <ele>280</ele>
        <time>2018-03-08T12:01:30Z</time>
      </trkpt>
      <trkpt lat="45.89669" lon="4.97743">
        <ele>280</ele>
        <time>2018-03-08T12:01:33Z</time>
      </trkpt>
      <trkpt lat="45.89668" lon="4.97739">
        <ele>280</ele>
        <time>2018-03-08T12:01:34Z</time>
      </trkpt>
      <trkpt lat="45.89668" lon="4.9773">
        <ele>280</ele>
        <time>2018-03-08T12:01:36Z</time>
      </trkpt>
      <trkpt lat="45.89668" lon="4.97725">
        <ele>280</ele>
        <time>2018-03-08T12:01:37Z</time>
      </trkpt>
      <trkpt lat="45.89669" lon="4.97715">
        <ele>280</ele>
        <time>2018-03-08T12:01:39Z</time>
      </trkpt>
      <trkpt lat="45.8967" lon="4.97711">
        <ele>280</ele>
        <time>2018-03-08T12:01:40Z</time>
      </trkpt>
      <trkpt lat="45.89672" lon="4.97702">
        <ele>280</ele>
        <time>2018-03-08T12:01:42Z</time>
      </trkpt>
      <trkpt lat="45.89673" lon="4.97697">
        <ele>280</ele>
        <time>2018-03-08T12:01:43Z</time>
      </trkpt>
      <trkpt lat="45.89675" lon="4.97687">
        <ele>280</ele>
        <time>2018-03-08T12:01:45Z</time>
      </trkpt>
      <trkpt lat="45.89676" lon="4.97683">
        <ele>280</ele>
        <time>2018-03-08T12:01:46Z</time>
      </trkpt>
      <trkpt lat="45.89677" lon="4.97673">
        <ele>280</ele>
        <time>2018-03-08T12:01:48Z</time>
      </trkpt>
      <trkpt lat="45.89678" lon="4.97668">
        <ele>280</ele>
        <time>2018-03-08T12:01:49Z</time>
      </trkpt>
      <trkpt lat="45.89679" lon="4.97659">
        <ele>281</ele>
        <time>2018-03-08T12:01:51Z</time>
      </trkpt>
      <trkpt lat="45.8968" lon="4.97654">
        <ele>281</ele>
        <time>2018-03-08T12:01:52Z</time>
      </trkpt>
      <trkpt lat="45.89681" lon="4.97642">
        <ele>281</ele>
        <time>2018-03-08T12:01:55Z</time>
      </trkpt>
      <trkpt lat="45.89682" lon="4.97638">
        <ele>281</ele>
        <time>2018-03-08T12:01:56Z</time>
      </trkpt>
      <trkpt lat="45.89684" lon="4.97626">
        <ele>281</ele>
        <time>2018-03-08T12:01:59Z</time>
      </trkpt>
      <trkpt lat="45.89685" lon="4.97622">
        <ele>281</ele>
        <time>2018-03-08T12:02:00Z</time>
      </trkpt>
      <trkpt lat="45.89687" lon="4.9761">
        <ele>282</ele>
        <time>2018-03-08T12:02:03Z</time>
      </trkpt>
      <trkpt lat="45.89688" lon="4.97606">
        <ele>282</ele>
        <time>2018-03-08T12:02:04Z</time>
      </trkpt>
      <trkpt lat="45.8969" lon="4.97594">
        <ele>282</ele>
        <time>2018-03-08T12:02:07Z</time>
      </trkpt>
      <trkpt lat="45.89691" lon="4.9759">
        <ele>282</ele>
        <time>2018-03-08T12:02:08Z</time>
      </trkpt>
      <trkpt lat="45.89694" lon="4.9758">
        <ele>284</ele>
        <time>2018-03-08T12:02:11Z</time>
      </trkpt>
      <trkpt lat="45.89694" lon="4.97577">
        <ele>284</ele>
        <time>2018-03-08T12:02:12Z</time>
      </trkpt>
      <trkpt lat="45.89697" lon="4.97565">
        <ele>284</ele>
        <time>2018-03-08T12:02:15Z</time>
      </trkpt>
      <trkpt lat="45.89697" lon="4.97561">
        <ele>284</ele>
        <time>2018-03-08T12:02:16Z</time>
      </trkpt>
      <trkpt lat="45.89698" lon="4.9755">
        <ele>284</ele>
        <time>2018-03-08T12:02:19Z</time>
      </trkpt>
      <trkpt lat="45.89699" lon="4.97546">
        <ele>284</ele>
        <time>2018-03-08T12:02:20Z</time>
      </trkpt>
      <trkpt lat="45.89701" lon="4.97536">
        <ele>284</ele>
        <time>2018-03-08T12:02:23Z</time>
      </trkpt>
      <trkpt lat="45.89702" lon="4.97532">
        <ele>284</ele>
        <time>2018-03-08T12:02:24Z</time>
      </trkpt>
      <trkpt lat="45.89704" lon="4.9752">
        <ele>285</ele>
        <time>2018-03-08T12:02:27Z</time>
      </trkpt>
      <trkpt lat="45.89707" lon="4.97507">
        <ele>285</ele>
        <time>2018-03-08T12:02:28Z</time>
      </trkpt>
      <trkpt lat="45.89708" lon="4.97495">
        <ele>287</ele>
        <time>2018-03-08T12:02:32Z</time>
      </trkpt>
      <trkpt lat="45.89709" lon="4.97492">
        <ele>287</ele>
        <time>2018-03-08T12:02:33Z</time>
      </trkpt>
      <trkpt lat="45.89711" lon="4.9748">
        <ele>287</ele>
        <time>2018-03-08T12:02:36Z</time>
      </trkpt>
      <trkpt lat="45.89712" lon="4.97476">
        <ele>287</ele>
        <time>2018-03-08T12:02:37Z</time>
      </trkpt>
      <trkpt lat="45.89714" lon="4.97463">
        <ele>287</ele>
        <time>2018-03-08T12:02:40Z</time>
      </trkpt>
      <trkpt lat="45.89715" lon="4.97459">
        <ele>287</ele>
        <time>2018-03-08T12:02:41Z</time>
      </trkpt>
      <trkpt lat="45.89717" lon="4.97447">
        <ele>287</ele>
        <time>2018-03-08T12:02:44Z</time>
      </trkpt>
      <trkpt lat="45.89718" lon="4.97433">
        <ele>287</ele>
        <time>2018-03-08T12:02:45Z</time>
      </trkpt>
      <trkpt lat="45.8972" lon="4.97423">
        <ele>287</ele>
        <time>2018-03-08T12:02:47Z</time>
      </trkpt>
      <trkpt lat="45.8972" lon="4.97421">
        <ele>287</ele>
        <time>2018-03-08T12:02:48Z</time>
      </trkpt>
      <trkpt lat="45.89723" lon="4.97411">
        <ele>288</ele>
        <time>2018-03-08T12:02:51Z</time>
      </trkpt>
      <trkpt lat="45.89726" lon="4.97401">
        <ele>288</ele>
        <time>2018-03-08T12:02:52Z</time>
      </trkpt>
      <trkpt lat="45.89728" lon="4.97396">
        <ele>287</ele>
        <time>2018-03-08T12:02:54Z</time>
      </trkpt>
      <trkpt lat="45.89732" lon="4.97388">
        <ele>287</ele>
        <time>2018-03-08T12:02:55Z</time>
      </trkpt>
      <trkpt lat="45.89736" lon="4.97379">
        <ele>287</ele>
        <time>2018-03-08T12:02:57Z</time>
      </trkpt>
      <trkpt lat="45.89738" lon="4.97374">
        <ele>287</ele>
        <time>2018-03-08T12:02:58Z</time>
      </trkpt>
      <trkpt lat="45.89742" lon="4.97365">
        <ele>287</ele>
        <time>2018-03-08T12:03:00Z</time>
      </trkpt>
      <trkpt lat="45.89744" lon="4.97361">
        <ele>287</ele>
        <time>2018-03-08T12:03:01Z</time>
      </trkpt>
      <trkpt lat="45.89748" lon="4.97353">
        <ele>287</ele>
        <time>2018-03-08T12:03:04Z</time>
      </trkpt>
      <trkpt lat="45.89752" lon="4.97344">
        <ele>287</ele>
        <time>2018-03-08T12:03:05Z</time>
      </trkpt>
      <trkpt lat="45.89757" lon="4.97335">
        <ele>287</ele>
        <time>2018-03-08T12:03:07Z</time>
      </trkpt>
      <trkpt lat="45.89759" lon="4.9733">
        <ele>287</ele>
        <time>2018-03-08T12:03:08Z</time>
      </trkpt>
      <trkpt lat="45.89764" lon="4.97321">
        <ele>286</ele>
        <time>2018-03-08T12:03:10Z</time>
      </trkpt>
      <trkpt lat="45.89766" lon="4.97316">
        <ele>286</ele>
        <time>2018-03-08T12:03:11Z</time>
      </trkpt>
      <trkpt lat="45.89771" lon="4.97307">
        <ele>286</ele>
        <time>2018-03-08T12:03:13Z</time>
      </trkpt>
      <trkpt lat="45.89775" lon="4.97302">
        <ele>286</ele>
        <time>2018-03-08T12:03:14Z</time>
      </trkpt>
      <trkpt lat="45.89778" lon="4.97298">
        <ele>286</ele>
        <time>2018-03-08T12:03:15Z</time>
      </trkpt>
      <trkpt lat="45.89781" lon="4.97292">
        <ele>286</ele>
        <time>2018-03-08T12:03:16Z</time>
      </trkpt>
      <trkpt lat="45.89784" lon="4.97286">
        <ele>286</ele>
        <time>2018-03-08T12:03:17Z</time>
      </trkpt>
      <trkpt lat="45.89787" lon="4.9728">
        <ele>286</ele>
        <time>2018-03-08T12:03:18Z</time>
      </trkpt>
      <trkpt lat="45.8979" lon="4.97273">
        <ele>286</ele>
        <time>2018-03-08T12:03:19Z</time>
      </trkpt>
      <trkpt lat="45.89793" lon="4.97268">
        <ele>286</ele>
        <time>2018-03-08T12:03:20Z</time>
      </trkpt>
      <trkpt lat="45.89795" lon="4.97262">
        <ele>286</ele>
        <time>2018-03-08T12:03:21Z</time>
      </trkpt>
      <trkpt lat="45.89798" lon="4.97255">
        <ele>286</ele>
        <time>2018-03-08T12:03:22Z</time>
      </trkpt>
      <trkpt lat="45.898" lon="4.97248">
        <ele>286</ele>
        <time>2018-03-08T12:03:23Z</time>
      </trkpt>
      <trkpt lat="45.89801" lon="4.97241">
        <ele>286</ele>
        <time>2018-03-08T12:03:24Z</time>
      </trkpt>
      <trkpt lat="45.89802" lon="4.97234">
        <ele>286</ele>
        <time>2018-03-08T12:03:25Z</time>
      </trkpt>
      <trkpt lat="45.89801" lon="4.97226">
        <ele>286</ele>
        <time>2018-03-08T12:03:26Z</time>
      </trkpt>
      <trkpt lat="45.898" lon="4.97219">
        <ele>286</ele>
        <time>2018-03-08T12:03:27Z</time>
      </trkpt>
      <trkpt lat="45.89797" lon="4.97212">
        <ele>286</ele>
        <time>2018-03-08T12:03:28Z</time>
      </trkpt>
      <trkpt lat="45.89794" lon="4.97206">
        <ele>286</ele>
        <time>2018-03-08T12:03:29Z</time>
      </trkpt>
      <trkpt lat="45.8979" lon="4.97201">
        <ele>286</ele>
        <time>2018-03-08T12:03:30Z</time>
      </trkpt>
      <trkpt lat="45.89785" lon="4.97191">
        <ele>286</ele>
        <time>2018-03-08T12:03:32Z</time>
      </trkpt>
      <trkpt lat="45.89782" lon="4.97185">
        <ele>286</ele>
        <time>2018-03-08T12:03:33Z</time>
      </trkpt>
      <trkpt lat="45.89779" lon="4.9718">
        <ele>286</ele>
        <time>2018-03-08T12:03:34Z</time>
      </trkpt>
      <trkpt lat="45.89776" lon="4.97174">
        <ele>286</ele>
        <time>2018-03-08T12:03:35Z</time>
      </trkpt>
      <trkpt lat="45.89772" lon="4.97168">
        <ele>286</ele>
        <time>2018-03-08T12:03:36Z</time>
      </trkpt>
      <trkpt lat="45.89769" lon="4.97164">
        <ele>286</ele>
        <time>2018-03-08T12:03:37Z</time>
      </trkpt>
      <trkpt lat="45.89766" lon="4.97158">
        <ele>286</ele>
        <time>2018-03-08T12:03:38Z</time>
      </trkpt>
      <trkpt lat="45.89763" lon="4.97152">
        <ele>286</ele>
        <time>2018-03-08T12:03:39Z</time>
      </trkpt>
      <trkpt lat="45.8976" lon="4.97146">
        <ele>286</ele>
        <time>2018-03-08T12:03:40Z</time>
      </trkpt>
      <trkpt lat="45.89757" lon="4.97141">
        <ele>286</ele>
        <time>2018-03-08T12:03:41Z</time>
      </trkpt>
      <trkpt lat="45.89753" lon="4.97135">
        <ele>286</ele>
        <time>2018-03-08T12:03:42Z</time>
      </trkpt>
      <trkpt lat="45.89751" lon="4.9713">
        <ele>286</ele>
        <time>2018-03-08T12:03:43Z</time>
      </trkpt>
      <trkpt lat="45.89748" lon="4.97123">
        <ele>288</ele>
        <time>2018-03-08T12:03:44Z</time>
      </trkpt>
      <trkpt lat="45.89745" lon="4.97117">
        <ele>288</ele>
        <time>2018-03-08T12:03:45Z</time>
      </trkpt>
      <trkpt lat="45.89741" lon="4.9711">
        <ele>288</ele>
        <time>2018-03-08T12:03:46Z</time>
      </trkpt>
      <trkpt lat="45.89738" lon="4.97104">
        <ele>288</ele>
        <time>2018-03-08T12:03:47Z</time>
      </trkpt>
      <trkpt lat="45.89735" lon="4.97098">
        <ele>288</ele>
        <time>2018-03-08T12:03:48Z</time>
      </trkpt>
      <trkpt lat="45.89732" lon="4.97092">
        <ele>288</ele>
        <time>2018-03-08T12:03:49Z</time>
      </trkpt>
      <trkpt lat="45.89729" lon="4.97086">
        <ele>288</ele>
        <time>2018-03-08T12:03:50Z</time>
      </trkpt>
      <trkpt lat="45.89727" lon="4.9708">
        <ele>288</ele>
        <time>2018-03-08T12:03:51Z</time>
      </trkpt>
      <trkpt lat="45.89721" lon="4.9707">
        <ele>289</ele>
        <time>2018-03-08T12:03:53Z</time>
      </trkpt>
      <trkpt lat="45.89719" lon="4.97066">
        <ele>289</ele>
        <time>2018-03-08T12:03:54Z</time>
      </trkpt>
      <trkpt lat="45.89713" lon="4.97057">
        <ele>290</ele>
        <time>2018-03-08T12:03:56Z</time>
      </trkpt>
      <trkpt lat="45.8971" lon="4.97052">
        <ele>290</ele>
        <time>2018-03-08T12:03:57Z</time>
      </trkpt>
      <trkpt lat="45.89707" lon="4.97046">
        <ele>290</ele>
        <time>2018-03-08T12:03:58Z</time>
      </trkpt>
      <trkpt lat="45.89705" lon="4.97041">
        <ele>290</ele>
        <time>2018-03-08T12:03:59Z</time>
      </trkpt>
      <trkpt lat="45.89699" lon="4.97031">
        <ele>290</ele>
        <time>2018-03-08T12:04:01Z</time>
      </trkpt>
      <trkpt lat="45.89696" lon="4.97025">
        <ele>291</ele>
        <time>2018-03-08T12:04:02Z</time>
      </trkpt>
      <trkpt lat="45.89693" lon="4.97021">
        <ele>291</ele>
        <time>2018-03-08T12:04:03Z</time>
      </trkpt>
      <trkpt lat="45.8969" lon="4.97015">
        <ele>291</ele>
        <time>2018-03-08T12:04:04Z</time>
      </trkpt>
      <trkpt lat="45.89687" lon="4.9701">
        <ele>292</ele>
        <time>2018-03-08T12:04:05Z</time>
      </trkpt>
      <trkpt lat="45.89684" lon="4.97005">
        <ele>292</ele>
        <time>2018-03-08T12:04:06Z</time>
      </trkpt>
      <trkpt lat="45.89679" lon="4.96996">
        <ele>293</ele>
        <time>2018-03-08T12:04:08Z</time>
      </trkpt>
      <trkpt lat="45.89676" lon="4.96992">
        <ele>293</ele>
        <time>2018-03-08T12:04:09Z</time>
      </trkpt>
      <trkpt lat="45.8967" lon="4.96983">
        <ele>293</ele>
        <time>2018-03-08T12:04:11Z</time>
      </trkpt>
      <trkpt lat="45.89667" lon="4.96979">
        <ele>293</ele>
        <time>2018-03-08T12:04:12Z</time>
      </trkpt>
      <trkpt lat="45.89664" lon="4.96974">
        <ele>295</ele>
        <time>2018-03-08T12:04:13Z</time>
      </trkpt>
      <trkpt lat="45.8966" lon="4.96969">
        <ele>295</ele>
        <time>2018-03-08T12:04:14Z</time>
      </trkpt>
      <trkpt lat="45.89654" lon="4.9696">
        <ele>295</ele>
        <time>2018-03-08T12:04:16Z</time>
      </trkpt>
      <trkpt lat="45.89651" lon="4.96955">
        <ele>295</ele>
        <time>2018-03-08T12:04:17Z</time>
      </trkpt>
      <trkpt lat="45.89649" lon="4.96951">
        <ele>295</ele>
        <time>2018-03-08T12:04:19Z</time>
      </trkpt>
      <trkpt lat="45.89645" lon="4.96942">
        <ele>295</ele>
        <time>2018-03-08T12:04:20Z</time>
      </trkpt>
      <trkpt lat="45.8964" lon="4.96933">
        <ele>295</ele>
        <time>2018-03-08T12:04:25Z</time>
      </trkpt>
      <trkpt lat="45.89639" lon="4.96932">
        <ele>295</ele>
        <time>2018-03-08T12:04:26Z</time>
      </trkpt>
      <trkpt lat="45.89634" lon="4.96921">
        <ele>295</ele>
        <time>2018-03-08T12:04:31Z</time>
      </trkpt>
      <trkpt lat="45.89632" lon="4.96919">
        <ele>295</ele>
        <time>2018-03-08T12:04:32Z</time>
      </trkpt>
      <trkpt lat="45.89626" lon="4.96912">
        <ele>294</ele>
        <time>2018-03-08T12:04:33Z</time>
      </trkpt>
      <trkpt lat="45.89625" lon="4.9691">
        <ele>294</ele>
        <time>2018-03-08T12:04:34Z</time>
      </trkpt>
      <trkpt lat="45.89619" lon="4.969">
        <ele>294</ele>
        <time>2018-03-08T12:04:38Z</time>
      </trkpt>
      <trkpt lat="45.89618" lon="4.96897">
        <ele>294</ele>
        <time>2018-03-08T12:04:39Z</time>
      </trkpt>
      <trkpt lat="45.89614" lon="4.96889">
        <ele>294</ele>
        <time>2018-03-08T12:04:41Z</time>
      </trkpt>
      <trkpt lat="45.89612" lon="4.96885">
        <ele>294</ele>
        <time>2018-03-08T12:04:42Z</time>
      </trkpt>
      <trkpt lat="45.89607" lon="4.96876">
        <ele>294</ele>
        <time>2018-03-08T12:04:45Z</time>
      </trkpt>
      <trkpt lat="45.89606" lon="4.96873">
        <ele>294</ele>
        <time>2018-03-08T12:04:46Z</time>
      </trkpt>
      <trkpt lat="45.89603" lon="4.96862">
        <ele>294</ele>
        <time>2018-03-08T12:04:49Z</time>
      </trkpt>
      <trkpt lat="45.89603" lon="4.96858">
        <ele>294</ele>
        <time>2018-03-08T12:04:50Z</time>
      </trkpt>
      <trkpt lat="45.89604" lon="4.96848">
        <ele>294</ele>
        <time>2018-03-08T12:04:53Z</time>
      </trkpt>
      <trkpt lat="45.89605" lon="4.96838">
        <ele>294</ele>
        <time>2018-03-08T12:04:54Z</time>
      </trkpt>
      <trkpt lat="45.89607" lon="4.96829">
        <ele>293</ele>
        <time>2018-03-08T12:04:57Z</time>
      </trkpt>
      <trkpt lat="45.89607" lon="4.96825">
        <ele>293</ele>
        <time>2018-03-08T12:04:58Z</time>
      </trkpt>
      <trkpt lat="45.89609" lon="4.96817">
        <ele>293</ele>
        <time>2018-03-08T12:05:00Z</time>
      </trkpt>
      <trkpt lat="45.89611" lon="4.96813">
        <ele>293</ele>
        <time>2018-03-08T12:05:01Z</time>
      </trkpt>
      <trkpt lat="45.89614" lon="4.96802">
        <ele>293</ele>
        <time>2018-03-08T12:05:02Z</time>
      </trkpt>
      <trkpt lat="45.89616" lon="4.96797">
        <ele>293</ele>
        <time>2018-03-08T12:05:03Z</time>
      </trkpt>
      <trkpt lat="45.89618" lon="4.96785">
        <ele>293</ele>
        <time>2018-03-08T12:05:06Z</time>
      </trkpt>
      <trkpt lat="45.89619" lon="4.96782">
        <ele>293</ele>
        <time>2018-03-08T12:05:07Z</time>
      </trkpt>
      <trkpt lat="45.8962" lon="4.96778">
        <ele>293</ele>
        <time>2018-03-08T12:05:08Z</time>
      </trkpt>
      <trkpt lat="45.89623" lon="4.96767">
        <ele>293</ele>
        <time>2018-03-08T12:05:09Z</time>
      </trkpt>
      <trkpt lat="45.89625" lon="4.96759">
        <ele>293</ele>
        <time>2018-03-08T12:05:11Z</time>
      </trkpt>
      <trkpt lat="45.89628" lon="4.96749">
        <ele>292</ele>
        <time>2018-03-08T12:05:12Z</time>
      </trkpt>
      <trkpt lat="45.89629" lon="4.96742">
        <ele>292</ele>
        <time>2018-03-08T12:05:13Z</time>
      </trkpt>
      <trkpt lat="45.89632" lon="4.96736">
        <ele>292</ele>
        <time>2018-03-08T12:05:14Z</time>
      </trkpt>
      <trkpt lat="45.89633" lon="4.96727">
        <ele>292</ele>
        <time>2018-03-08T12:05:15Z</time>
      </trkpt>
      <trkpt lat="45.89633" lon="4.96718">
        <ele>292</ele>
        <time>2018-03-08T12:05:16Z</time>
      </trkpt>
      <trkpt lat="45.89634" lon="4.9671">
        <ele>292</ele>
        <time>2018-03-08T12:05:17Z</time>
      </trkpt>
      <trkpt lat="45.89636" lon="4.96702">
        <ele>292</ele>
        <time>2018-03-08T12:05:18Z</time>
      </trkpt>
      <trkpt lat="45.89637" lon="4.96694">
        <ele>292</ele>
        <time>2018-03-08T12:05:19Z</time>
      </trkpt>
      <trkpt lat="45.89639" lon="4.96687">
        <ele>292</ele>
        <time>2018-03-08T12:05:20Z</time>
      </trkpt>
      <trkpt lat="45.8964" lon="4.96679">
        <ele>292</ele>
        <time>2018-03-08T12:05:21Z</time>
      </trkpt>
      <trkpt lat="45.89641" lon="4.96672">
        <ele>292</ele>
        <time>2018-03-08T12:05:22Z</time>
      </trkpt>
      <trkpt lat="45.8964" lon="4.96664">
        <ele>291</ele>
        <time>2018-03-08T12:05:23Z</time>
      </trkpt>
      <trkpt lat="45.89639" lon="4.96656">
        <ele>291</ele>
        <time>2018-03-08T12:05:24Z</time>
      </trkpt>
      <trkpt lat="45.89638" lon="4.96649">
        <ele>290</ele>
        <time>2018-03-08T12:05:25Z</time>
      </trkpt>
      <trkpt lat="45.89636" lon="4.96641">
        <ele>290</ele>
        <time>2018-03-08T12:05:26Z</time>
      </trkpt>
      <trkpt lat="45.89634" lon="4.96634">
        <ele>290</ele>
        <time>2018-03-08T12:05:27Z</time>
      </trkpt>
      <trkpt lat="45.89633" lon="4.96627">
        <ele>290</ele>
        <time>2018-03-08T12:05:28Z</time>
      </trkpt>
      <trkpt lat="45.89632" lon="4.9662">
        <ele>290</ele>
        <time>2018-03-08T12:05:29Z</time>
      </trkpt>
      <trkpt lat="45.89631" lon="4.96612">
        <ele>290</ele>
        <time>2018-03-08T12:05:30Z</time>
      </trkpt>
      <trkpt lat="45.89629" lon="4.96604">
        <ele>290</ele>
        <time>2018-03-08T12:05:31Z</time>
      </trkpt>
      <trkpt lat="45.89628" lon="4.96597">
        <ele>289</ele>
        <time>2018-03-08T12:05:32Z</time>
      </trkpt>
      <trkpt lat="45.89626" lon="4.96589">
        <ele>289</ele>
        <time>2018-03-08T12:05:33Z</time>
      </trkpt>
      <trkpt lat="45.89624" lon="4.96582">
        <ele>287</ele>
        <time>2018-03-08T12:05:34Z</time>
      </trkpt>
      <trkpt lat="45.89622" lon="4.96574">
        <ele>287</ele>
        <time>2018-03-08T12:05:35Z</time>
      </trkpt>
      <trkpt lat="45.8962" lon="4.96565">
        <ele>287</ele>
        <time>2018-03-08T12:05:36Z</time>
      </trkpt>
      <trkpt lat="45.89618" lon="4.96557">
        <ele>287</ele>
        <time>2018-03-08T12:05:37Z</time>
      </trkpt>
      <trkpt lat="45.89616" lon="4.96548">
        <ele>287</ele>
        <time>2018-03-08T12:05:38Z</time>
      </trkpt>
      <trkpt lat="45.89613" lon="4.9654">
        <ele>287</ele>
        <time>2018-03-08T12:05:39Z</time>
      </trkpt>
      <trkpt lat="45.8961" lon="4.96532">
        <ele>286</ele>
        <time>2018-03-08T12:05:40Z</time>
      </trkpt>
      <trkpt lat="45.89608" lon="4.96523">
        <ele>286</ele>
        <time>2018-03-08T12:05:41Z</time>
      </trkpt>
      <trkpt lat="45.89605" lon="4.96514">
        <ele>286</ele>
        <time>2018-03-08T12:05:42Z</time>
      </trkpt>
      <trkpt lat="45.89602" lon="4.96505">
        <ele>286</ele>
        <time>2018-03-08T12:05:43Z</time>
      </trkpt>
      <trkpt lat="45.89601" lon="4.96496">
        <ele>285</ele>
        <time>2018-03-08T12:05:44Z</time>
      </trkpt>
      <trkpt lat="45.89598" lon="4.96488">
        <ele>284</ele>
        <time>2018-03-08T12:05:45Z</time>
      </trkpt>
      <trkpt lat="45.89596" lon="4.96479">
        <ele>284</ele>
        <time>2018-03-08T12:05:46Z</time>
      </trkpt>
      <trkpt lat="45.89593" lon="4.9647">
        <ele>284</ele>
        <time>2018-03-08T12:05:47Z</time>
      </trkpt>
      <trkpt lat="45.8959" lon="4.96461">
        <ele>284</ele>
        <time>2018-03-08T12:05:48Z</time>
      </trkpt>
      <trkpt lat="45.89587" lon="4.96452">
        <ele>284</ele>
        <time>2018-03-08T12:05:49Z</time>
      </trkpt>
      <trkpt lat="45.89585" lon="4.96443">
        <ele>284</ele>
        <time>2018-03-08T12:05:50Z</time>
      </trkpt>
      <trkpt lat="45.89582" lon="4.96434">
        <ele>284</ele>
        <time>2018-03-08T12:05:51Z</time>
      </trkpt>
      <trkpt lat="45.8958" lon="4.96427">
        <ele>284</ele>
        <time>2018-03-08T12:05:52Z</time>
      </trkpt>
      <trkpt lat="45.89577" lon="4.96418">
        <ele>284</ele>
        <time>2018-03-08T12:05:53Z</time>
      </trkpt>
      <trkpt lat="45.89574" lon="4.9641">
        <ele>284</ele>
        <time>2018-03-08T12:05:54Z</time>
      </trkpt>
      <trkpt lat="45.8957" lon="4.96401">
        <ele>283</ele>
        <time>2018-03-08T12:05:55Z</time>
      </trkpt>
      <trkpt lat="45.89569" lon="4.96393">
        <ele>283</ele>
        <time>2018-03-08T12:05:56Z</time>
      </trkpt>
      <trkpt lat="45.89567" lon="4.96386">
        <ele>283</ele>
        <time>2018-03-08T12:05:57Z</time>
      </trkpt>
      <trkpt lat="45.89562" lon="4.96378">
        <ele>283</ele>
        <time>2018-03-08T12:05:58Z</time>
      </trkpt>
      <trkpt lat="45.8956" lon="4.96371">
        <ele>283</ele>
        <time>2018-03-08T12:05:59Z</time>
      </trkpt>
      <trkpt lat="45.89558" lon="4.96363">
        <ele>283</ele>
        <time>2018-03-08T12:06:00Z</time>
      </trkpt>
      <trkpt lat="45.89555" lon="4.96354">
        <ele>283</ele>
        <time>2018-03-08T12:06:01Z</time>
      </trkpt>
      <trkpt lat="45.89553" lon="4.96347">
        <ele>283</ele>
        <time>2018-03-08T12:06:02Z</time>
      </trkpt>
      <trkpt lat="45.8955" lon="4.9634">
        <ele>283</ele>
        <time>2018-03-08T12:06:03Z</time>
      </trkpt>
      <trkpt lat="45.89547" lon="4.96333">
        <ele>282</ele>
        <time>2018-03-08T12:06:04Z</time>
      </trkpt>
      <trkpt lat="45.89545" lon="4.96325">
        <ele>282</ele>
        <time>2018-03-08T12:06:05Z</time>
      </trkpt>
      <trkpt lat="45.89541" lon="4.96318">
        <ele>282</ele>
        <time>2018-03-08T12:06:06Z</time>
      </trkpt>
      <trkpt lat="45.89539" lon="4.96311">
        <ele>282</ele>
        <time>2018-03-08T12:06:07Z</time>
      </trkpt>
      <trkpt lat="45.89536" lon="4.96304">
        <ele>282</ele>
        <time>2018-03-08T12:06:08Z</time>
      </trkpt>
      <trkpt lat="45.89533" lon="4.96297">
        <ele>282</ele>
        <time>2018-03-08T12:06:09Z</time>
      </trkpt>
      <trkpt lat="45.89531" lon="4.9629">
        <ele>282</ele>
        <time>2018-03-08T12:06:10Z</time>
      </trkpt>
      <trkpt lat="45.89528" lon="4.96284">
        <ele>282</ele>
        <time>2018-03-08T12:06:11Z</time>
      </trkpt>
      <trkpt lat="45.89526" lon="4.96277">
        <ele>282</ele>
        <time>2018-03-08T12:06:12Z</time>
      </trkpt>
      <trkpt lat="45.89524" lon="4.9627">
        <ele>282</ele>
        <time>2018-03-08T12:06:13Z</time>
      </trkpt>
      <trkpt lat="45.89522" lon="4.96263">
        <ele>282</ele>
        <time>2018-03-08T12:06:14Z</time>
      </trkpt>
      <trkpt lat="45.8952" lon="4.96257">
        <ele>282</ele>
        <time>2018-03-08T12:06:15Z</time>
      </trkpt>
      <trkpt lat="45.89517" lon="4.96251">
        <ele>281</ele>
        <time>2018-03-08T12:06:16Z</time>
      </trkpt>
      <trkpt lat="45.89514" lon="4.96245">
        <ele>281</ele>
        <time>2018-03-08T12:06:17Z</time>
      </trkpt>
      <trkpt lat="45.89512" lon="4.96238">
        <ele>281</ele>
        <time>2018-03-08T12:06:18Z</time>
      </trkpt>
      <trkpt lat="45.8951" lon="4.96232">
        <ele>281</ele>
        <time>2018-03-08T12:06:19Z</time>
      </trkpt>
      <trkpt lat="45.89507" lon="4.96226">
        <ele>281</ele>
        <time>2018-03-08T12:06:20Z</time>
      </trkpt>
      <trkpt lat="45.89504" lon="4.96219">
        <ele>281</ele>
        <time>2018-03-08T12:06:21Z</time>
      </trkpt>
      <trkpt lat="45.89502" lon="4.96211">
        <ele>281</ele>
        <time>2018-03-08T12:06:22Z</time>
      </trkpt>
      <trkpt lat="45.895" lon="4.96202">
        <ele>280</ele>
        <time>2018-03-08T12:06:23Z</time>
      </trkpt>
      <trkpt lat="45.89497" lon="4.96194">
        <ele>280</ele>
        <time>2018-03-08T12:06:24Z</time>
      </trkpt>
      <trkpt lat="45.89495" lon="4.96185">
        <ele>280</ele>
        <time>2018-03-08T12:06:25Z</time>
      </trkpt>
      <trkpt lat="45.89493" lon="4.96176">
        <ele>280</ele>
        <time>2018-03-08T12:06:26Z</time>
      </trkpt>
      <trkpt lat="45.89492" lon="4.96166">
        <ele>280</ele>
        <time>2018-03-08T12:06:27Z</time>
      </trkpt>
      <trkpt lat="45.89491" lon="4.96156">
        <ele>280</ele>
        <time>2018-03-08T12:06:28Z</time>
      </trkpt>
      <trkpt lat="45.8949" lon="4.96146">
        <ele>280</ele>
        <time>2018-03-08T12:06:29Z</time>
      </trkpt>
      <trkpt lat="45.89488" lon="4.96137">
        <ele>279</ele>
        <time>2018-03-08T12:06:30Z</time>
      </trkpt>
      <trkpt lat="45.89487" lon="4.96127">
        <ele>279</ele>
        <time>2018-03-08T12:06:31Z</time>
      </trkpt>
      <trkpt lat="45.89486" lon="4.96117">
        <ele>279</ele>
        <time>2018-03-08T12:06:32Z</time>
      </trkpt>
      <trkpt lat="45.89485" lon="4.96108">
        <ele>279</ele>
        <time>2018-03-08T12:06:33Z</time>
      </trkpt>
      <trkpt lat="45.89485" lon="4.96099">
        <ele>279</ele>
        <time>2018-03-08T12:06:34Z</time>
      </trkpt>
      <trkpt lat="45.89486" lon="4.96087">
        <ele>279</ele>
        <time>2018-03-08T12:06:35Z</time>
      </trkpt>
      <trkpt lat="45.89486" lon="4.96077">
        <ele>279</ele>
        <time>2018-03-08T12:06:36Z</time>
      </trkpt>
      <trkpt lat="45.89487" lon="4.96068">
        <ele>278</ele>
        <time>2018-03-08T12:06:37Z</time>
      </trkpt>
      <trkpt lat="45.89487" lon="4.96058">
        <ele>278</ele>
        <time>2018-03-08T12:06:38Z</time>
      </trkpt>
      <trkpt lat="45.89487" lon="4.96049">
        <ele>278</ele>
        <time>2018-03-08T12:06:39Z</time>
      </trkpt>
      <trkpt lat="45.89487" lon="4.96039">
        <ele>278</ele>
        <time>2018-03-08T12:06:40Z</time>
      </trkpt>
      <trkpt lat="45.89487" lon="4.96031">
        <ele>278</ele>
        <time>2018-03-08T12:06:41Z</time>
      </trkpt>
      <trkpt lat="45.89487" lon="4.96022">
        <ele>278</ele>
        <time>2018-03-08T12:06:42Z</time>
      </trkpt>
      <trkpt lat="45.89487" lon="4.96013">
        <ele>278</ele>
        <time>2018-03-08T12:06:43Z</time>
      </trkpt>
      <trkpt lat="45.89487" lon="4.96003">
        <ele>277</ele>
        <time>2018-03-08T12:06:44Z</time>
      </trkpt>
      <trkpt lat="45.89486" lon="4.95995">
        <ele>277</ele>
        <time>2018-03-08T12:06:45Z</time>
      </trkpt>
      <trkpt lat="45.89486" lon="4.95986">
        <ele>277</ele>
        <time>2018-03-08T12:06:46Z</time>
      </trkpt>
      <trkpt lat="45.89485" lon="4.95976">
        <ele>277</ele>
        <time>2018-03-08T12:06:47Z</time>
      </trkpt>
      <trkpt lat="45.89485" lon="4.95966">
        <ele>278</ele>
        <time>2018-03-08T12:06:48Z</time>
      </trkpt>
      <trkpt lat="45.89483" lon="4.95956">
        <ele>278</ele>
        <time>2018-03-08T12:06:49Z</time>
      </trkpt>
      <trkpt lat="45.89482" lon="4.95948">
        <ele>278</ele>
        <time>2018-03-08T12:06:50Z</time>
      </trkpt>
      <trkpt lat="45.89481" lon="4.95939">
        <ele>278</ele>
        <time>2018-03-08T12:06:51Z</time>
      </trkpt>
      <trkpt lat="45.8948" lon="4.9593">
        <ele>278</ele>
        <time>2018-03-08T12:06:52Z</time>
      </trkpt>
      <trkpt lat="45.89479" lon="4.95923">
        <ele>278</ele>
        <time>2018-03-08T12:06:53Z</time>
      </trkpt>
      <trkpt lat="45.89478" lon="4.95914">
        <ele>278</ele>
        <time>2018-03-08T12:06:54Z</time>
      </trkpt>
      <trkpt lat="45.89476" lon="4.95905">
        <ele>278</ele>
        <time>2018-03-08T12:06:55Z</time>
      </trkpt>
      <trkpt lat="45.89476" lon="4.95898">
        <ele>278</ele>
        <time>2018-03-08T12:06:56Z</time>
      </trkpt>
      <trkpt lat="45.89474" lon="4.9589">
        <ele>278</ele>
        <time>2018-03-08T12:06:57Z</time>
      </trkpt>
      <trkpt lat="45.89473" lon="4.95881">
        <ele>278</ele>
        <time>2018-03-08T12:06:58Z</time>
      </trkpt>
      <trkpt lat="45.89471" lon="4.95873">
        <ele>278</ele>
        <time>2018-03-08T12:06:59Z</time>
      </trkpt>
      <trkpt lat="45.89468" lon="4.95864">
        <ele>278</ele>
        <time>2018-03-08T12:07:00Z</time>
      </trkpt>
      <trkpt lat="45.89466" lon="4.95856">
        <ele>278</ele>
        <time>2018-03-08T12:07:01Z</time>
      </trkpt>
      <trkpt lat="45.89464" lon="4.95848">
        <ele>278</ele>
        <time>2018-03-08T12:07:02Z</time>
      </trkpt>
      <trkpt lat="45.89462" lon="4.95839">
        <ele>278</ele>
        <time>2018-03-08T12:07:03Z</time>
      </trkpt>
      <trkpt lat="45.89461" lon="4.95831">
        <ele>278</ele>
        <time>2018-03-08T12:07:04Z</time>
      </trkpt>
      <trkpt lat="45.8946" lon="4.95823">
        <ele>278</ele>
        <time>2018-03-08T12:07:05Z</time>
      </trkpt>
      <trkpt lat="45.89459" lon="4.95815">
        <ele>278</ele>
        <time>2018-03-08T12:07:06Z</time>
      </trkpt>
      <trkpt lat="45.89457" lon="4.95806">
        <ele>278</ele>
        <time>2018-03-08T12:07:07Z</time>
      </trkpt>
      <trkpt lat="45.89455" lon="4.95797">
        <ele>278</ele>
        <time>2018-03-08T12:07:08Z</time>
      </trkpt>
      <trkpt lat="45.89453" lon="4.95788">
        <ele>278</ele>
        <time>2018-03-08T12:07:09Z</time>
      </trkpt>
      <trkpt lat="45.89452" lon="4.9578">
        <ele>278</ele>
        <time>2018-03-08T12:07:10Z</time>
      </trkpt>
      <trkpt lat="45.89451" lon="4.95772">
        <ele>278</ele>
        <time>2018-03-08T12:07:11Z</time>
      </trkpt>
      <trkpt lat="45.89448" lon="4.95764">
        <ele>278</ele>
        <time>2018-03-08T12:07:12Z</time>
      </trkpt>
      <trkpt lat="45.89447" lon="4.95756">
        <ele>279</ele>
        <time>2018-03-08T12:07:13Z</time>
      </trkpt>
      <trkpt lat="45.89445" lon="4.95748">
        <ele>278</ele>
        <time>2018-03-08T12:07:14Z</time>
      </trkpt>
      <trkpt lat="45.89443" lon="4.9574">
        <ele>278</ele>
        <time>2018-03-08T12:07:15Z</time>
      </trkpt>
      <trkpt lat="45.89441" lon="4.95731">
        <ele>278</ele>
        <time>2018-03-08T12:07:16Z</time>
      </trkpt>
      <trkpt lat="45.89439" lon="4.95722">
        <ele>278</ele>
        <time>2018-03-08T12:07:17Z</time>
      </trkpt>
      <trkpt lat="45.89437" lon="4.95714">
        <ele>278</ele>
        <time>2018-03-08T12:07:18Z</time>
      </trkpt>
      <trkpt lat="45.89435" lon="4.95706">
        <ele>278</ele>
        <time>2018-03-08T12:07:19Z</time>
      </trkpt>
      <trkpt lat="45.89433" lon="4.95696">
        <ele>278</ele>
        <time>2018-03-08T12:07:20Z</time>
      </trkpt>
      <trkpt lat="45.89431" lon="4.95687">
        <ele>278</ele>
        <time>2018-03-08T12:07:21Z</time>
      </trkpt>
      <trkpt lat="45.8943" lon="4.95679">
        <ele>278</ele>
        <time>2018-03-08T12:07:22Z</time>
      </trkpt>
      <trkpt lat="45.89428" lon="4.9567">
        <ele>279</ele>
        <time>2018-03-08T12:07:23Z</time>
      </trkpt>
      <trkpt lat="45.89426" lon="4.95661">
        <ele>278</ele>
        <time>2018-03-08T12:07:24Z</time>
      </trkpt>
      <trkpt lat="45.89423" lon="4.95654">
        <ele>278</ele>
        <time>2018-03-08T12:07:25Z</time>
      </trkpt>
      <trkpt lat="45.89421" lon="4.95646">
        <ele>278</ele>
        <time>2018-03-08T12:07:26Z</time>
      </trkpt>
      <trkpt lat="45.8942" lon="4.95638">
        <ele>278</ele>
        <time>2018-03-08T12:07:27Z</time>
      </trkpt>
      <trkpt lat="45.89418" lon="4.9563">
        <ele>278</ele>
        <time>2018-03-08T12:07:28Z</time>
      </trkpt>
      <trkpt lat="45.89417" lon="4.95622">
        <ele>278</ele>
        <time>2018-03-08T12:07:29Z</time>
      </trkpt>
      <trkpt lat="45.89416" lon="4.95614">
        <ele>278</ele>
        <time>2018-03-08T12:07:30Z</time>
      </trkpt>
      <trkpt lat="45.89414" lon="4.95606">
        <ele>278</ele>
        <time>2018-03-08T12:07:31Z</time>
      </trkpt>
      <trkpt lat="45.89412" lon="4.95599">
        <ele>278</ele>
        <time>2018-03-08T12:07:32Z</time>
      </trkpt>
      <trkpt lat="45.8941" lon="4.95591">
        <ele>278</ele>
        <time>2018-03-08T12:07:33Z</time>
      </trkpt>
      <trkpt lat="45.89409" lon="4.95583">
        <ele>278</ele>
        <time>2018-03-08T12:07:34Z</time>
      </trkpt>
      <trkpt lat="45.89407" lon="4.95575">
        <ele>278</ele>
        <time>2018-03-08T12:07:35Z</time>
      </trkpt>
      <trkpt lat="45.89405" lon="4.95568">
        <ele>277</ele>
        <time>2018-03-08T12:07:36Z</time>
      </trkpt>
      <trkpt lat="45.89404" lon="4.95561">
        <ele>277</ele>
        <time>2018-03-08T12:07:37Z</time>
      </trkpt>
      <trkpt lat="45.89403" lon="4.95555">
        <ele>277</ele>
        <time>2018-03-08T12:07:38Z</time>
      </trkpt>
      <trkpt lat="45.89399" lon="4.95544">
        <ele>277</ele>
        <time>2018-03-08T12:07:40Z</time>
      </trkpt>
      <trkpt lat="45.89397" lon="4.95537">
        <ele>277</ele>
        <time>2018-03-08T12:07:41Z</time>
      </trkpt>
      <trkpt lat="45.89397" lon="4.9553">
        <ele>277</ele>
        <time>2018-03-08T12:07:42Z</time>
      </trkpt>
      <trkpt lat="45.89395" lon="4.95523">
        <ele>277</ele>
        <time>2018-03-08T12:07:43Z</time>
      </trkpt>
      <trkpt lat="45.89393" lon="4.95515">
        <ele>277</ele>
        <time>2018-03-08T12:07:44Z</time>
      </trkpt>
      <trkpt lat="45.89392" lon="4.95508">
        <ele>277</ele>
        <time>2018-03-08T12:07:45Z</time>
      </trkpt>
      <trkpt lat="45.89391" lon="4.955">
        <ele>277</ele>
        <time>2018-03-08T12:07:46Z</time>
      </trkpt>
      <trkpt lat="45.89389" lon="4.95492">
        <ele>276</ele>
        <time>2018-03-08T12:07:47Z</time>
      </trkpt>
      <trkpt lat="45.89387" lon="4.95485">
        <ele>276</ele>
        <time>2018-03-08T12:07:48Z</time>
      </trkpt>
      <trkpt lat="45.89386" lon="4.95479">
        <ele>276</ele>
        <time>2018-03-08T12:07:49Z</time>
      </trkpt>
      <trkpt lat="45.89384" lon="4.95471">
        <ele>276</ele>
        <time>2018-03-08T12:07:50Z</time>
      </trkpt>
      <trkpt lat="45.89382" lon="4.95463">
        <ele>276</ele>
        <time>2018-03-08T12:07:51Z</time>
      </trkpt>
      <trkpt lat="45.89381" lon="4.95455">
        <ele>276</ele>
        <time>2018-03-08T12:07:52Z</time>
      </trkpt>
      <trkpt lat="45.89378" lon="4.95447">
        <ele>275</ele>
        <time>2018-03-08T12:07:53Z</time>
      </trkpt>
      <trkpt lat="45.89377" lon="4.95438">
        <ele>275</ele>
        <time>2018-03-08T12:07:54Z</time>
      </trkpt>
      <trkpt lat="45.89375" lon="4.95429">
        <ele>275</ele>
        <time>2018-03-08T12:07:55Z</time>
      </trkpt>
      <trkpt lat="45.89374" lon="4.9542">
        <ele>275</ele>
        <time>2018-03-08T12:07:56Z</time>
      </trkpt>
      <trkpt lat="45.89372" lon="4.95411">
        <ele>275</ele>
        <time>2018-03-08T12:07:57Z</time>
      </trkpt>
      <trkpt lat="45.8937" lon="4.95401">
        <ele>275</ele>
        <time>2018-03-08T12:07:58Z</time>
      </trkpt>
      <trkpt lat="45.89368" lon="4.95393">
        <ele>275</ele>
        <time>2018-03-08T12:07:59Z</time>
      </trkpt>
      <trkpt lat="45.89366" lon="4.95383">
        <ele>274</ele>
        <time>2018-03-08T12:08:00Z</time>
      </trkpt>
      <trkpt lat="45.89364" lon="4.95375">
        <ele>274</ele>
        <time>2018-03-08T12:08:01Z</time>
      </trkpt>
      <trkpt lat="45.89362" lon="4.95367">
        <ele>274</ele>
        <time>2018-03-08T12:08:02Z</time>
      </trkpt>
      <trkpt lat="45.8936" lon="4.95358">
        <ele>274</ele>
        <time>2018-03-08T12:08:03Z</time>
      </trkpt>
      <trkpt lat="45.89358" lon="4.95349">
        <ele>274</ele>
        <time>2018-03-08T12:08:04Z</time>
      </trkpt>
      <trkpt lat="45.89356" lon="4.95341">
        <ele>274</ele>
        <time>2018-03-08T12:08:05Z</time>
      </trkpt>
      <trkpt lat="45.89354" lon="4.95333">
        <ele>274</ele>
        <time>2018-03-08T12:08:06Z</time>
      </trkpt>
      <trkpt lat="45.89353" lon="4.95325">
        <ele>274</ele>
        <time>2018-03-08T12:08:07Z</time>
      </trkpt>
      <trkpt lat="45.89351" lon="4.95318">
        <ele>274</ele>
        <time>2018-03-08T12:08:08Z</time>
      </trkpt>
      <trkpt lat="45.8935" lon="4.9531">
        <ele>274</ele>
        <time>2018-03-08T12:08:09Z</time>
      </trkpt>
      <trkpt lat="45.89348" lon="4.95302">
        <ele>274</ele>
        <time>2018-03-08T12:08:10Z</time>
      </trkpt>
      <trkpt lat="45.89346" lon="4.95296">
        <ele>274</ele>
        <time>2018-03-08T12:08:11Z</time>
      </trkpt>
      <trkpt lat="45.89345" lon="4.95289">
        <ele>274</ele>
        <time>2018-03-08T12:08:12Z</time>
      </trkpt>
      <trkpt lat="45.89343" lon="4.95281">
        <ele>274</ele>
        <time>2018-03-08T12:08:13Z</time>
      </trkpt>
      <trkpt lat="45.89341" lon="4.95273">
        <ele>274</ele>
        <time>2018-03-08T12:08:14Z</time>
      </trkpt>
      <trkpt lat="45.89338" lon="4.95265">
        <ele>274</ele>
        <time>2018-03-08T12:08:15Z</time>
      </trkpt>
      <trkpt lat="45.89335" lon="4.95258">
        <ele>274</ele>
        <time>2018-03-08T12:08:16Z</time>
      </trkpt>
      <trkpt lat="45.89333" lon="4.95251">
        <ele>274</ele>
        <time>2018-03-08T12:08:17Z</time>
      </trkpt>
      <trkpt lat="45.89331" lon="4.95243">
        <ele>274</ele>
        <time>2018-03-08T12:08:18Z</time>
      </trkpt>
      <trkpt lat="45.89329" lon="4.95235">
        <ele>274</ele>
        <time>2018-03-08T12:08:19Z</time>
      </trkpt>
      <trkpt lat="45.89328" lon="4.95226">
        <ele>275</ele>
        <time>2018-03-08T12:08:20Z</time>
      </trkpt>
      <trkpt lat="45.89327" lon="4.95218">
        <ele>275</ele>
        <time>2018-03-08T12:08:21Z</time>
      </trkpt>
      <trkpt lat="45.89326" lon="4.95211">
        <ele>275</ele>
        <time>2018-03-08T12:08:22Z</time>
      </trkpt>
      <trkpt lat="45.89325" lon="4.95204">
        <ele>275</ele>
        <time>2018-03-08T12:08:23Z</time>
      </trkpt>
      <trkpt lat="45.89322" lon="4.95198">
        <ele>275</ele>
        <time>2018-03-08T12:08:24Z</time>
      </trkpt>
      <trkpt lat="45.8932" lon="4.95192">
        <ele>275</ele>
        <time>2018-03-08T12:08:25Z</time>
      </trkpt>
      <trkpt lat="45.89317" lon="4.95181">
        <ele>275</ele>
        <time>2018-03-08T12:08:27Z</time>
      </trkpt>
      <trkpt lat="45.89316" lon="4.95173">
        <ele>275</ele>
        <time>2018-03-08T12:08:28Z</time>
      </trkpt>
      <trkpt lat="45.89315" lon="4.95165">
        <ele>275</ele>
        <time>2018-03-08T12:08:29Z</time>
      </trkpt>
      <trkpt lat="45.89314" lon="4.95157">
        <ele>275</ele>
        <time>2018-03-08T12:08:30Z</time>
      </trkpt>
      <trkpt lat="45.89313" lon="4.9515">
        <ele>275</ele>
        <time>2018-03-08T12:08:31Z</time>
      </trkpt>
      <trkpt lat="45.89313" lon="4.95142">
        <ele>275</ele>
        <time>2018-03-08T12:08:32Z</time>
      </trkpt>
      <trkpt lat="45.89313" lon="4.95134">
        <ele>275</ele>
        <time>2018-03-08T12:08:33Z</time>
      </trkpt>
      <trkpt lat="45.89314" lon="4.95126">
        <ele>275</ele>
        <time>2018-03-08T12:08:34Z</time>
      </trkpt>
      <trkpt lat="45.89316" lon="4.95118">
        <ele>274</ele>
        <time>2018-03-08T12:08:35Z</time>
      </trkpt>
      <trkpt lat="45.89317" lon="4.9511">
        <ele>274</ele>
        <time>2018-03-08T12:08:36Z</time>
      </trkpt>
      <trkpt lat="45.89319" lon="4.95103">
        <ele>274</ele>
        <time>2018-03-08T12:08:37Z</time>
      </trkpt>
      <trkpt lat="45.89321" lon="4.95096">
        <ele>274</ele>
        <time>2018-03-08T12:08:38Z</time>
      </trkpt>
      <trkpt lat="45.89324" lon="4.9509">
        <ele>274</ele>
        <time>2018-03-08T12:08:39Z</time>
      </trkpt>
      <trkpt lat="45.89326" lon="4.95082">
        <ele>274</ele>
        <time>2018-03-08T12:08:40Z</time>
      </trkpt>
      <trkpt lat="45.89328" lon="4.95075">
        <ele>274</ele>
        <time>2018-03-08T12:08:41Z</time>
      </trkpt>
      <trkpt lat="45.8933" lon="4.95069">
        <ele>273</ele>
        <time>2018-03-08T12:08:42Z</time>
      </trkpt>
      <trkpt lat="45.89332" lon="4.95062">
        <ele>273</ele>
        <time>2018-03-08T12:08:43Z</time>
      </trkpt>
      <trkpt lat="45.89334" lon="4.95055">
        <ele>274</ele>
        <time>2018-03-08T12:08:44Z</time>
      </trkpt>
      <trkpt lat="45.89336" lon="4.95048">
        <ele>274</ele>
        <time>2018-03-08T12:08:45Z</time>
      </trkpt>
      <trkpt lat="45.89338" lon="4.95042">
        <ele>274</ele>
        <time>2018-03-08T12:08:46Z</time>
      </trkpt>
      <trkpt lat="45.8934" lon="4.95036">
        <ele>274</ele>
        <time>2018-03-08T12:08:47Z</time>
      </trkpt>
      <trkpt lat="45.89342" lon="4.95029">
        <ele>274</ele>
        <time>2018-03-08T12:08:48Z</time>
      </trkpt>
      <trkpt lat="45.89344" lon="4.95022">
        <ele>274</ele>
        <time>2018-03-08T12:08:49Z</time>
      </trkpt>
      <trkpt lat="45.89346" lon="4.95016">
        <ele>274</ele>
        <time>2018-03-08T12:08:50Z</time>
      </trkpt>
      <trkpt lat="45.89349" lon="4.9501">
        <ele>274</ele>
        <time>2018-03-08T12:08:51Z</time>
      </trkpt>
      <trkpt lat="45.89351" lon="4.95003">
        <ele>274</ele>
        <time>2018-03-08T12:08:52Z</time>
      </trkpt>
      <trkpt lat="45.89353" lon="4.94997">
        <ele>273</ele>
        <time>2018-03-08T12:08:53Z</time>
      </trkpt>
      <trkpt lat="45.89354" lon="4.9499">
        <ele>273</ele>
        <time>2018-03-08T12:08:54Z</time>
      </trkpt>
      <trkpt lat="45.89356" lon="4.94984">
        <ele>273</ele>
        <time>2018-03-08T12:08:55Z</time>
      </trkpt>
      <trkpt lat="45.89358" lon="4.94978">
        <ele>274</ele>
        <time>2018-03-08T12:08:56Z</time>
      </trkpt>
      <trkpt lat="45.8936" lon="4.94971">
        <ele>274</ele>
        <time>2018-03-08T12:08:57Z</time>
      </trkpt>
      <trkpt lat="45.89363" lon="4.94964">
        <ele>274</ele>
        <time>2018-03-08T12:08:58Z</time>
      </trkpt>
      <trkpt lat="45.89364" lon="4.94958">
        <ele>274</ele>
        <time>2018-03-08T12:08:59Z</time>
      </trkpt>
      <trkpt lat="45.89366" lon="4.94952">
        <ele>274</ele>
        <time>2018-03-08T12:09:00Z</time>
      </trkpt>
      <trkpt lat="45.89368" lon="4.94946">
        <ele>274</ele>
        <time>2018-03-08T12:09:01Z</time>
      </trkpt>
      <trkpt lat="45.89369" lon="4.94939">
        <ele>274</ele>
        <time>2018-03-08T12:09:02Z</time>
      </trkpt>
      <trkpt lat="45.89371" lon="4.94933">
        <ele>274</ele>
        <time>2018-03-08T12:09:03Z</time>
      </trkpt>
      <trkpt lat="45.89373" lon="4.94927">
        <ele>274</ele>
        <time>2018-03-08T12:09:04Z</time>
      </trkpt>
      <trkpt lat="45.89375" lon="4.94921">
        <ele>274</ele>
        <time>2018-03-08T12:09:05Z</time>
      </trkpt>
      <trkpt lat="45.89378" lon="4.94914">
        <ele>273</ele>
        <time>2018-03-08T12:09:06Z</time>
      </trkpt>
      <trkpt lat="45.8938" lon="4.94907">
        <ele>273</ele>
        <time>2018-03-08T12:09:07Z</time>
      </trkpt>
      <trkpt lat="45.89381" lon="4.949">
        <ele>273</ele>
        <time>2018-03-08T12:09:08Z</time>
      </trkpt>
      <trkpt lat="45.89382" lon="4.94889">
        <ele>273</ele>
        <time>2018-03-08T12:09:10Z</time>
      </trkpt>
      <trkpt lat="45.89385" lon="4.9488">
        <ele>273</ele>
        <time>2018-03-08T12:09:11Z</time>
      </trkpt>
      <trkpt lat="45.89389" lon="4.94868">
        <ele>273</ele>
        <time>2018-03-08T12:09:13Z</time>
      </trkpt>
      <trkpt lat="45.89391" lon="4.94861">
        <ele>273</ele>
        <time>2018-03-08T12:09:14Z</time>
      </trkpt>
      <trkpt lat="45.89394" lon="4.94853">
        <ele>273</ele>
        <time>2018-03-08T12:09:15Z</time>
      </trkpt>
      <trkpt lat="45.89395" lon="4.94847">
        <ele>273</ele>
        <time>2018-03-08T12:09:16Z</time>
      </trkpt>
      <trkpt lat="45.89396" lon="4.94842">
        <ele>273</ele>
        <time>2018-03-08T12:09:17Z</time>
      </trkpt>
      <trkpt lat="45.89398" lon="4.94834">
        <ele>273</ele>
        <time>2018-03-08T12:09:18Z</time>
      </trkpt>
      <trkpt lat="45.89399" lon="4.94829">
        <ele>273</ele>
        <time>2018-03-08T12:09:19Z</time>
      </trkpt>
      <trkpt lat="45.89402" lon="4.94823">
        <ele>273</ele>
        <time>2018-03-08T12:09:20Z</time>
      </trkpt>
      <trkpt lat="45.89404" lon="4.94816">
        <ele>273</ele>
        <time>2018-03-08T12:09:21Z</time>
      </trkpt>
      <trkpt lat="45.89407" lon="4.9481">
        <ele>273</ele>
        <time>2018-03-08T12:09:22Z</time>
      </trkpt>
      <trkpt lat="45.8941" lon="4.94803">
        <ele>273</ele>
        <time>2018-03-08T12:09:23Z</time>
      </trkpt>
      <trkpt lat="45.89411" lon="4.94797">
        <ele>273</ele>
        <time>2018-03-08T12:09:24Z</time>
      </trkpt>
      <trkpt lat="45.89413" lon="4.9479">
        <ele>273</ele>
        <time>2018-03-08T12:09:25Z</time>
      </trkpt>
      <trkpt lat="45.89415" lon="4.94784">
        <ele>273</ele>
        <time>2018-03-08T12:09:26Z</time>
      </trkpt>
      <trkpt lat="45.89416" lon="4.94777">
        <ele>273</ele>
        <time>2018-03-08T12:09:27Z</time>
      </trkpt>
      <trkpt lat="45.89418" lon="4.9477">
        <ele>274</ele>
        <time>2018-03-08T12:09:28Z</time>
      </trkpt>
      <trkpt lat="45.8942" lon="4.94763">
        <ele>274</ele>
        <time>2018-03-08T12:09:29Z</time>
      </trkpt>
      <trkpt lat="45.89421" lon="4.94757">
        <ele>274</ele>
        <time>2018-03-08T12:09:30Z</time>
      </trkpt>
      <trkpt lat="45.89424" lon="4.9475">
        <ele>274</ele>
        <time>2018-03-08T12:09:31Z</time>
      </trkpt>
      <trkpt lat="45.89426" lon="4.94744">
        <ele>274</ele>
        <time>2018-03-08T12:09:32Z</time>
      </trkpt>
      <trkpt lat="45.89427" lon="4.94737">
        <ele>274</ele>
        <time>2018-03-08T12:09:33Z</time>
      </trkpt>
      <trkpt lat="45.89429" lon="4.9473">
        <ele>274</ele>
        <time>2018-03-08T12:09:34Z</time>
      </trkpt>
      <trkpt lat="45.89431" lon="4.94724">
        <ele>274</ele>
        <time>2018-03-08T12:09:35Z</time>
      </trkpt>
      <trkpt lat="45.89433" lon="4.94717">
        <ele>274</ele>
        <time>2018-03-08T12:09:36Z</time>
      </trkpt>
      <trkpt lat="45.89436" lon="4.94709">
        <ele>274</ele>
        <time>2018-03-08T12:09:37Z</time>
      </trkpt>
      <trkpt lat="45.89438" lon="4.94702">
        <ele>274</ele>
        <time>2018-03-08T12:09:38Z</time>
      </trkpt>
      <trkpt lat="45.89441" lon="4.94694">
        <ele>274</ele>
        <time>2018-03-08T12:09:39Z</time>
      </trkpt>
      <trkpt lat="45.89443" lon="4.94687">
        <ele>274</ele>
        <time>2018-03-08T12:09:40Z</time>
      </trkpt>
      <trkpt lat="45.89445" lon="4.9468">
        <ele>274</ele>
        <time>2018-03-08T12:09:41Z</time>
      </trkpt>
      <trkpt lat="45.89446" lon="4.94672">
        <ele>274</ele>
        <time>2018-03-08T12:09:42Z</time>
      </trkpt>
      <trkpt lat="45.89448" lon="4.94664">
        <ele>273</ele>
        <time>2018-03-08T12:09:43Z</time>
      </trkpt>
      <trkpt lat="45.89449" lon="4.94656">
        <ele>274</ele>
        <time>2018-03-08T12:09:44Z</time>
      </trkpt>
      <trkpt lat="45.8945" lon="4.94647">
        <ele>274</ele>
        <time>2018-03-08T12:09:45Z</time>
      </trkpt>
      <trkpt lat="45.89453" lon="4.94641">
        <ele>274</ele>
        <time>2018-03-08T12:09:46Z</time>
      </trkpt>
      <trkpt lat="45.89455" lon="4.94633">
        <ele>274</ele>
        <time>2018-03-08T12:09:47Z</time>
      </trkpt>
      <trkpt lat="45.89457" lon="4.94626">
        <ele>274</ele>
        <time>2018-03-08T12:09:48Z</time>
      </trkpt>
      <trkpt lat="45.89459" lon="4.94617">
        <ele>274</ele>
        <time>2018-03-08T12:09:49Z</time>
      </trkpt>
      <trkpt lat="45.8946" lon="4.94609">
        <ele>274</ele>
        <time>2018-03-08T12:09:50Z</time>
      </trkpt>
      <trkpt lat="45.89462" lon="4.946">
        <ele>274</ele>
        <time>2018-03-08T12:09:51Z</time>
      </trkpt>
      <trkpt lat="45.89463" lon="4.94592">
        <ele>274</ele>
        <time>2018-03-08T12:09:52Z</time>
      </trkpt>
      <trkpt lat="45.89464" lon="4.94584">
        <ele>274</ele>
        <time>2018-03-08T12:09:53Z</time>
      </trkpt>
      <trkpt lat="45.89465" lon="4.94576">
        <ele>274</ele>
        <time>2018-03-08T12:09:54Z</time>
      </trkpt>
      <trkpt lat="45.89466" lon="4.94569">
        <ele>274</ele>
        <time>2018-03-08T12:09:55Z</time>
      </trkpt>
      <trkpt lat="45.89467" lon="4.94561">
        <ele>274</ele>
        <time>2018-03-08T12:09:56Z</time>
      </trkpt>
      <trkpt lat="45.89468" lon="4.94553">
        <ele>274</ele>
        <time>2018-03-08T12:09:57Z</time>
      </trkpt>
      <trkpt lat="45.89469" lon="4.94546">
        <ele>274</ele>
        <time>2018-03-08T12:09:58Z</time>
      </trkpt>
      <trkpt lat="45.8947" lon="4.94538">
        <ele>274</ele>
        <time>2018-03-08T12:09:59Z</time>
      </trkpt>
      <trkpt lat="45.8947" lon="4.9453">
        <ele>274</ele>
        <time>2018-03-08T12:10:00Z</time>
      </trkpt>
      <trkpt lat="45.89471" lon="4.94522">
        <ele>274</ele>
        <time>2018-03-08T12:10:01Z</time>
      </trkpt>
      <trkpt lat="45.89471" lon="4.94515">
        <ele>274</ele>
        <time>2018-03-08T12:10:02Z</time>
      </trkpt>
      <trkpt lat="45.89472" lon="4.94507">
        <ele>274</ele>
        <time>2018-03-08T12:10:03Z</time>
      </trkpt>
      <trkpt lat="45.89473" lon="4.94499">
        <ele>274</ele>
        <time>2018-03-08T12:10:04Z</time>
      </trkpt>
      <trkpt lat="45.89474" lon="4.94491">
        <ele>274</ele>
        <time>2018-03-08T12:10:05Z</time>
      </trkpt>
      <trkpt lat="45.89475" lon="4.94483">
        <ele>274</ele>
        <time>2018-03-08T12:10:06Z</time>
      </trkpt>
      <trkpt lat="45.89476" lon="4.94475">
        <ele>274</ele>
        <time>2018-03-08T12:10:07Z</time>
      </trkpt>
      <trkpt lat="45.89477" lon="4.94468">
        <ele>274</ele>
        <time>2018-03-08T12:10:08Z</time>
      </trkpt>
      <trkpt lat="45.89478" lon="4.94461">
        <ele>274</ele>
        <time>2018-03-08T12:10:09Z</time>
      </trkpt>
      <trkpt lat="45.89479" lon="4.94453">
        <ele>274</ele>
        <time>2018-03-08T12:10:10Z</time>
      </trkpt>
      <trkpt lat="45.8948" lon="4.94446">
        <ele>274</ele>
        <time>2018-03-08T12:10:11Z</time>
      </trkpt>
      <trkpt lat="45.89481" lon="4.94438">
        <ele>274</ele>
        <time>2018-03-08T12:10:12Z</time>
      </trkpt>
      <trkpt lat="45.89482" lon="4.94429">
        <ele>274</ele>
        <time>2018-03-08T12:10:13Z</time>
      </trkpt>
      <trkpt lat="45.89483" lon="4.94422">
        <ele>274</ele>
        <time>2018-03-08T12:10:14Z</time>
      </trkpt>
      <trkpt lat="45.89484" lon="4.94414">
        <ele>274</ele>
        <time>2018-03-08T12:10:15Z</time>
      </trkpt>
      <trkpt lat="45.89485" lon="4.94405">
        <ele>274</ele>
        <time>2018-03-08T12:10:16Z</time>
      </trkpt>
      <trkpt lat="45.89485" lon="4.94397">
        <ele>274</ele>
        <time>2018-03-08T12:10:17Z</time>
      </trkpt>
      <trkpt lat="45.89485" lon="4.9439">
        <ele>274</ele>
        <time>2018-03-08T12:10:18Z</time>
      </trkpt>
      <trkpt lat="45.89486" lon="4.94383">
        <ele>274</ele>
        <time>2018-03-08T12:10:19Z</time>
      </trkpt>
      <trkpt lat="45.89488" lon="4.94375">
        <ele>274</ele>
        <time>2018-03-08T12:10:20Z</time>
      </trkpt>
      <trkpt lat="45.89488" lon="4.94368">
        <ele>274</ele>
        <time>2018-03-08T12:10:21Z</time>
      </trkpt>
      <trkpt lat="45.8949" lon="4.9436">
        <ele>274</ele>
        <time>2018-03-08T12:10:22Z</time>
      </trkpt>
      <trkpt lat="45.8949" lon="4.94352">
        <ele>274</ele>
        <time>2018-03-08T12:10:23Z</time>
      </trkpt>
      <trkpt lat="45.8949" lon="4.94345">
        <ele>274</ele>
        <time>2018-03-08T12:10:24Z</time>
      </trkpt>
      <trkpt lat="45.89491" lon="4.94339">
        <ele>274</ele>
        <time>2018-03-08T12:10:25Z</time>
      </trkpt>
      <trkpt lat="45.89491" lon="4.94331">
        <ele>275</ele>
        <time>2018-03-08T12:10:26Z</time>
      </trkpt>
      <trkpt lat="45.89491" lon="4.94325">
        <ele>275</ele>
        <time>2018-03-08T12:10:27Z</time>
      </trkpt>
      <trkpt lat="45.89492" lon="4.94317">
        <ele>275</ele>
        <time>2018-03-08T12:10:28Z</time>
      </trkpt>
      <trkpt lat="45.89492" lon="4.9431">
        <ele>274</ele>
        <time>2018-03-08T12:10:29Z</time>
      </trkpt>
      <trkpt lat="45.89493" lon="4.94303">
        <ele>274</ele>
        <time>2018-03-08T12:10:30Z</time>
      </trkpt>
      <trkpt lat="45.89494" lon="4.94296">
        <ele>274</ele>
        <time>2018-03-08T12:10:31Z</time>
      </trkpt>
      <trkpt lat="45.89495" lon="4.94288">
        <ele>275</ele>
        <time>2018-03-08T12:10:32Z</time>
      </trkpt>
      <trkpt lat="45.89496" lon="4.9428">
        <ele>275</ele>
        <time>2018-03-08T12:10:33Z</time>
      </trkpt>
      <trkpt lat="45.89498" lon="4.94272">
        <ele>275</ele>
        <time>2018-03-08T12:10:34Z</time>
      </trkpt>
      <trkpt lat="45.89499" lon="4.94264">
        <ele>275</ele>
        <time>2018-03-08T12:10:35Z</time>
      </trkpt>
      <trkpt lat="45.895" lon="4.94255">
        <ele>276</ele>
        <time>2018-03-08T12:10:36Z</time>
      </trkpt>
      <trkpt lat="45.895" lon="4.94248">
        <ele>276</ele>
        <time>2018-03-08T12:10:37Z</time>
      </trkpt>
      <trkpt lat="45.89501" lon="4.9424">
        <ele>276</ele>
        <time>2018-03-08T12:10:38Z</time>
      </trkpt>
      <trkpt lat="45.89501" lon="4.94232">
        <ele>276</ele>
        <time>2018-03-08T12:10:39Z</time>
      </trkpt>
      <trkpt lat="45.89502" lon="4.94224">
        <ele>276</ele>
        <time>2018-03-08T12:10:40Z</time>
      </trkpt>
      <trkpt lat="45.89502" lon="4.94216">
        <ele>276</ele>
        <time>2018-03-08T12:10:41Z</time>
      </trkpt>
      <trkpt lat="45.89503" lon="4.9421">
        <ele>276</ele>
        <time>2018-03-08T12:10:42Z</time>
      </trkpt>
      <trkpt lat="45.89504" lon="4.942">
        <ele>276</ele>
        <time>2018-03-08T12:10:43Z</time>
      </trkpt>
      <trkpt lat="45.89504" lon="4.94192">
        <ele>276</ele>
        <time>2018-03-08T12:10:44Z</time>
      </trkpt>
      <trkpt lat="45.89505" lon="4.94183">
        <ele>276</ele>
        <time>2018-03-08T12:10:45Z</time>
      </trkpt>
      <trkpt lat="45.89505" lon="4.94175">
        <ele>275</ele>
        <time>2018-03-08T12:10:46Z</time>
      </trkpt>
      <trkpt lat="45.89506" lon="4.94165">
        <ele>275</ele>
        <time>2018-03-08T12:10:47Z</time>
      </trkpt>
      <trkpt lat="45.89508" lon="4.94157">
        <ele>275</ele>
        <time>2018-03-08T12:10:48Z</time>
      </trkpt>
      <trkpt lat="45.89508" lon="4.94149">
        <ele>275</ele>
        <time>2018-03-08T12:10:49Z</time>
      </trkpt>
      <trkpt lat="45.89508" lon="4.9414">
        <ele>275</ele>
        <time>2018-03-08T12:10:50Z</time>
      </trkpt>
      <trkpt lat="45.89509" lon="4.94131">
        <ele>275</ele>
        <time>2018-03-08T12:10:51Z</time>
      </trkpt>
      <trkpt lat="45.8951" lon="4.94123">
        <ele>276</ele>
        <time>2018-03-08T12:10:52Z</time>
      </trkpt>
      <trkpt lat="45.89511" lon="4.94116">
        <ele>275</ele>
        <time>2018-03-08T12:10:53Z</time>
      </trkpt>
      <trkpt lat="45.89512" lon="4.94108">
        <ele>275</ele>
        <time>2018-03-08T12:10:54Z</time>
      </trkpt>
      <trkpt lat="45.89513" lon="4.94099">
        <ele>275</ele>
        <time>2018-03-08T12:10:55Z</time>
      </trkpt>
      <trkpt lat="45.89513" lon="4.9409">
        <ele>275</ele>
        <time>2018-03-08T12:10:56Z</time>
      </trkpt>
      <trkpt lat="45.89514" lon="4.94082">
        <ele>275</ele>
        <time>2018-03-08T12:10:57Z</time>
      </trkpt>
      <trkpt lat="45.89514" lon="4.94073">
        <ele>275</ele>
        <time>2018-03-08T12:10:58Z</time>
      </trkpt>
      <trkpt lat="45.89515" lon="4.94066">
        <ele>275</ele>
        <time>2018-03-08T12:10:59Z</time>
      </trkpt>
      <trkpt lat="45.89515" lon="4.94057">
        <ele>275</ele>
        <time>2018-03-08T12:11:00Z</time>
      </trkpt>
      <trkpt lat="45.89516" lon="4.94049">
        <ele>275</ele>
        <time>2018-03-08T12:11:01Z</time>
      </trkpt>
      <trkpt lat="45.89517" lon="4.94042">
        <ele>275</ele>
        <time>2018-03-08T12:11:02Z</time>
      </trkpt>
      <trkpt lat="45.89518" lon="4.94034">
        <ele>275</ele>
        <time>2018-03-08T12:11:03Z</time>
      </trkpt>
      <trkpt lat="45.89518" lon="4.94026">
        <ele>275</ele>
        <time>2018-03-08T12:11:04Z</time>
      </trkpt>
      <trkpt lat="45.89518" lon="4.94019">
        <ele>275</ele>
        <time>2018-03-08T12:11:05Z</time>
      </trkpt>
      <trkpt lat="45.89518" lon="4.94013">
        <ele>275</ele>
        <time>2018-03-08T12:11:06Z</time>
      </trkpt>
      <trkpt lat="45.89519" lon="4.94006">
        <ele>275</ele>
        <time>2018-03-08T12:11:07Z</time>
      </trkpt>
      <trkpt lat="45.8952" lon="4.93999">
        <ele>274</ele>
        <time>2018-03-08T12:11:08Z</time>
      </trkpt>
      <trkpt lat="45.8952" lon="4.93992">
        <ele>274</ele>
        <time>2018-03-08T12:11:09Z</time>
      </trkpt>
      <trkpt lat="45.8952" lon="4.93984">
        <ele>274</ele>
        <time>2018-03-08T12:11:10Z</time>
      </trkpt>
      <trkpt lat="45.89519" lon="4.93977">
        <ele>274</ele>
        <time>2018-03-08T12:11:11Z</time>
      </trkpt>
      <trkpt lat="45.89519" lon="4.9397">
        <ele>274</ele>
        <time>2018-03-08T12:11:12Z</time>
      </trkpt>
      <trkpt lat="45.89519" lon="4.93963">
        <ele>274</ele>
        <time>2018-03-08T12:11:13Z</time>
      </trkpt>
      <trkpt lat="45.8952" lon="4.93957">
        <ele>274</ele>
        <time>2018-03-08T12:11:14Z</time>
      </trkpt>
      <trkpt lat="45.89521" lon="4.93949">
        <ele>274</ele>
        <time>2018-03-08T12:11:15Z</time>
      </trkpt>
      <trkpt lat="45.89521" lon="4.9394">
        <ele>274</ele>
        <time>2018-03-08T12:11:16Z</time>
      </trkpt>
      <trkpt lat="45.89521" lon="4.93933">
        <ele>274</ele>
        <time>2018-03-08T12:11:17Z</time>
      </trkpt>
      <trkpt lat="45.89523" lon="4.93925">
        <ele>274</ele>
        <time>2018-03-08T12:11:18Z</time>
      </trkpt>
      <trkpt lat="45.89522" lon="4.93917">
        <ele>274</ele>
        <time>2018-03-08T12:11:19Z</time>
      </trkpt>
      <trkpt lat="45.89522" lon="4.9391">
        <ele>273</ele>
        <time>2018-03-08T12:11:20Z</time>
      </trkpt>
      <trkpt lat="45.89523" lon="4.93903">
        <ele>273</ele>
        <time>2018-03-08T12:11:21Z</time>
      </trkpt>
      <trkpt lat="45.89524" lon="4.93895">
        <ele>274</ele>
        <time>2018-03-08T12:11:22Z</time>
      </trkpt>
      <trkpt lat="45.89524" lon="4.93887">
        <ele>274</ele>
        <time>2018-03-08T12:11:23Z</time>
      </trkpt>
      <trkpt lat="45.89524" lon="4.9388">
        <ele>274</ele>
        <time>2018-03-08T12:11:24Z</time>
      </trkpt>
      <trkpt lat="45.89524" lon="4.93874">
        <ele>274</ele>
        <time>2018-03-08T12:11:25Z</time>
      </trkpt>
      <trkpt lat="45.89524" lon="4.93866">
        <ele>274</ele>
        <time>2018-03-08T12:11:26Z</time>
      </trkpt>
      <trkpt lat="45.89527" lon="4.93854">
        <ele>274</ele>
        <time>2018-03-08T12:11:28Z</time>
      </trkpt>
      <trkpt lat="45.89528" lon="4.93846">
        <ele>274</ele>
        <time>2018-03-08T12:11:29Z</time>
      </trkpt>
      <trkpt lat="45.89529" lon="4.93837">
        <ele>274</ele>
        <time>2018-03-08T12:11:30Z</time>
      </trkpt>
      <trkpt lat="45.89531" lon="4.93829">
        <ele>274</ele>
        <time>2018-03-08T12:11:31Z</time>
      </trkpt>
      <trkpt lat="45.89531" lon="4.93822">
        <ele>274</ele>
        <time>2018-03-08T12:11:32Z</time>
      </trkpt>
      <trkpt lat="45.89533" lon="4.93814">
        <ele>274</ele>
        <time>2018-03-08T12:11:33Z</time>
      </trkpt>
      <trkpt lat="45.89534" lon="4.93806">
        <ele>274</ele>
        <time>2018-03-08T12:11:34Z</time>
      </trkpt>
      <trkpt lat="45.89535" lon="4.93797">
        <ele>274</ele>
        <time>2018-03-08T12:11:35Z</time>
      </trkpt>
      <trkpt lat="45.89535" lon="4.93789">
        <ele>274</ele>
        <time>2018-03-08T12:11:36Z</time>
      </trkpt>
      <trkpt lat="45.89536" lon="4.93781">
        <ele>274</ele>
        <time>2018-03-08T12:11:37Z</time>
      </trkpt>
      <trkpt lat="45.89536" lon="4.93775">
        <ele>275</ele>
        <time>2018-03-08T12:11:38Z</time>
      </trkpt>
      <trkpt lat="45.89537" lon="4.93767">
        <ele>275</ele>
        <time>2018-03-08T12:11:39Z</time>
      </trkpt>
      <trkpt lat="45.89538" lon="4.9376">
        <ele>275</ele>
        <time>2018-03-08T12:11:40Z</time>
      </trkpt>
      <trkpt lat="45.89538" lon="4.93751">
        <ele>275</ele>
        <time>2018-03-08T12:11:41Z</time>
      </trkpt>
      <trkpt lat="45.89538" lon="4.93743">
        <ele>275</ele>
        <time>2018-03-08T12:11:42Z</time>
      </trkpt>
      <trkpt lat="45.89538" lon="4.93736">
        <ele>275</ele>
        <time>2018-03-08T12:11:43Z</time>
      </trkpt>
      <trkpt lat="45.89537" lon="4.93728">
        <ele>275</ele>
        <time>2018-03-08T12:11:44Z</time>
      </trkpt>
      <trkpt lat="45.89537" lon="4.93721">
        <ele>275</ele>
        <time>2018-03-08T12:11:45Z</time>
      </trkpt>
      <trkpt lat="45.89537" lon="4.93713">
        <ele>275</ele>
        <time>2018-03-08T12:11:46Z</time>
      </trkpt>
      <trkpt lat="45.89538" lon="4.93705">
        <ele>275</ele>
        <time>2018-03-08T12:11:47Z</time>
      </trkpt>
      <trkpt lat="45.89538" lon="4.93698">
        <ele>275</ele>
        <time>2018-03-08T12:11:48Z</time>
      </trkpt>
      <trkpt lat="45.89539" lon="4.93691">
        <ele>275</ele>
        <time>2018-03-08T12:11:49Z</time>
      </trkpt>
      <trkpt lat="45.8954" lon="4.93683">
        <ele>275</ele>
        <time>2018-03-08T12:11:50Z</time>
      </trkpt>
      <trkpt lat="45.8954" lon="4.93675">
        <ele>275</ele>
        <time>2018-03-08T12:11:51Z</time>
      </trkpt>
      <trkpt lat="45.89541" lon="4.93668">
        <ele>275</ele>
        <time>2018-03-08T12:11:52Z</time>
      </trkpt>
      <trkpt lat="45.89541" lon="4.9366">
        <ele>276</ele>
        <time>2018-03-08T12:11:53Z</time>
      </trkpt>
      <trkpt lat="45.89541" lon="4.93652">
        <ele>277</ele>
        <time>2018-03-08T12:11:54Z</time>
      </trkpt>
      <trkpt lat="45.89541" lon="4.93644">
        <ele>277</ele>
        <time>2018-03-08T12:11:55Z</time>
      </trkpt>
      <trkpt lat="45.89541" lon="4.93636">
        <ele>277</ele>
        <time>2018-03-08T12:11:56Z</time>
      </trkpt>
      <trkpt lat="45.89542" lon="4.93629">
        <ele>277</ele>
        <time>2018-03-08T12:11:57Z</time>
      </trkpt>
      <trkpt lat="45.89542" lon="4.93622">
        <ele>277</ele>
        <time>2018-03-08T12:11:58Z</time>
      </trkpt>
      <trkpt lat="45.89541" lon="4.93615">
        <ele>277</ele>
        <time>2018-03-08T12:11:59Z</time>
      </trkpt>
      <trkpt lat="45.89542" lon="4.93607">
        <ele>277</ele>
        <time>2018-03-08T12:12:00Z</time>
      </trkpt>
      <trkpt lat="45.89543" lon="4.93601">
        <ele>277</ele>
        <time>2018-03-08T12:12:01Z</time>
      </trkpt>
      <trkpt lat="45.89542" lon="4.93592">
        <ele>278</ele>
        <time>2018-03-08T12:12:02Z</time>
      </trkpt>
      <trkpt lat="45.89541" lon="4.93585">
        <ele>278</ele>
        <time>2018-03-08T12:12:03Z</time>
      </trkpt>
      <trkpt lat="45.89544" lon="4.93577">
        <ele>279</ele>
        <time>2018-03-08T12:12:04Z</time>
      </trkpt>
      <trkpt lat="45.89544" lon="4.93569">
        <ele>279</ele>
        <time>2018-03-08T12:12:05Z</time>
      </trkpt>
      <trkpt lat="45.89545" lon="4.93563">
        <ele>279</ele>
        <time>2018-03-08T12:12:06Z</time>
      </trkpt>
      <trkpt lat="45.89545" lon="4.93555">
        <ele>279</ele>
        <time>2018-03-08T12:12:07Z</time>
      </trkpt>
      <trkpt lat="45.89547" lon="4.93549">
        <ele>279</ele>
        <time>2018-03-08T12:12:08Z</time>
      </trkpt>
      <trkpt lat="45.89547" lon="4.93541">
        <ele>279</ele>
        <time>2018-03-08T12:12:09Z</time>
      </trkpt>
      <trkpt lat="45.89549" lon="4.93534">
        <ele>279</ele>
        <time>2018-03-08T12:12:10Z</time>
      </trkpt>
      <trkpt lat="45.8955" lon="4.93527">
        <ele>279</ele>
        <time>2018-03-08T12:12:11Z</time>
      </trkpt>
      <trkpt lat="45.89552" lon="4.93521">
        <ele>279</ele>
        <time>2018-03-08T12:12:12Z</time>
      </trkpt>
      <trkpt lat="45.89553" lon="4.93514">
        <ele>279</ele>
        <time>2018-03-08T12:12:13Z</time>
      </trkpt>
      <trkpt lat="45.89555" lon="4.93507">
        <ele>279</ele>
        <time>2018-03-08T12:12:14Z</time>
      </trkpt>
      <trkpt lat="45.89556" lon="4.93501">
        <ele>279</ele>
        <time>2018-03-08T12:12:15Z</time>
      </trkpt>
      <trkpt lat="45.89556" lon="4.93494">
        <ele>280</ele>
        <time>2018-03-08T12:12:16Z</time>
      </trkpt>
      <trkpt lat="45.89556" lon="4.93487">
        <ele>280</ele>
        <time>2018-03-08T12:12:17Z</time>
      </trkpt>
      <trkpt lat="45.89557" lon="4.93475">
        <ele>280</ele>
        <time>2018-03-08T12:12:19Z</time>
      </trkpt>
      <trkpt lat="45.89557" lon="4.93469">
        <ele>280</ele>
        <time>2018-03-08T12:12:20Z</time>
      </trkpt>
      <trkpt lat="45.89556" lon="4.93459">
        <ele>280</ele>
        <time>2018-03-08T12:12:23Z</time>
      </trkpt>
      <trkpt lat="45.89555" lon="4.93455">
        <ele>280</ele>
        <time>2018-03-08T12:12:24Z</time>
      </trkpt>
      <trkpt lat="45.89554" lon="4.93443">
        <ele>280</ele>
        <time>2018-03-08T12:12:27Z</time>
      </trkpt>
      <trkpt lat="45.89554" lon="4.93439">
        <ele>280</ele>
        <time>2018-03-08T12:12:28Z</time>
      </trkpt>
      <trkpt lat="45.89553" lon="4.9343">
        <ele>280</ele>
        <time>2018-03-08T12:12:30Z</time>
      </trkpt>
      <trkpt lat="45.89553" lon="4.93426">
        <ele>280</ele>
        <time>2018-03-08T12:12:31Z</time>
      </trkpt>
      <trkpt lat="45.8955" lon="4.93414">
        <ele>282</ele>
        <time>2018-03-08T12:12:34Z</time>
      </trkpt>
      <trkpt lat="45.89549" lon="4.9341">
        <ele>282</ele>
        <time>2018-03-08T12:12:35Z</time>
      </trkpt>
      <trkpt lat="45.89546" lon="4.93398">
        <ele>282</ele>
        <time>2018-03-08T12:12:38Z</time>
      </trkpt>
      <trkpt lat="45.89546" lon="4.93394">
        <ele>282</ele>
        <time>2018-03-08T12:12:39Z</time>
      </trkpt>
      <trkpt lat="45.89545" lon="4.93385">
        <ele>282</ele>
        <time>2018-03-08T12:12:41Z</time>
      </trkpt>
      <trkpt lat="45.89544" lon="4.93372">
        <ele>282</ele>
        <time>2018-03-08T12:12:42Z</time>
      </trkpt>
      <trkpt lat="45.89541" lon="4.93361">
        <ele>283</ele>
        <time>2018-03-08T12:12:46Z</time>
      </trkpt>
      <trkpt lat="45.8954" lon="4.93358">
        <ele>283</ele>
        <time>2018-03-08T12:12:47Z</time>
      </trkpt>
      <trkpt lat="45.89538" lon="4.93348">
        <ele>283</ele>
        <time>2018-03-08T12:12:50Z</time>
      </trkpt>
      <trkpt lat="45.89537" lon="4.93344">
        <ele>283</ele>
        <time>2018-03-08T12:12:51Z</time>
      </trkpt>
      <trkpt lat="45.89535" lon="4.93332">
        <ele>285</ele>
        <time>2018-03-08T12:12:54Z</time>
      </trkpt>
      <trkpt lat="45.89534" lon="4.93328">
        <ele>285</ele>
        <time>2018-03-08T12:12:55Z</time>
      </trkpt>
      <trkpt lat="45.89532" lon="4.93316">
        <ele>285</ele>
        <time>2018-03-08T12:12:58Z</time>
      </trkpt>
      <trkpt lat="45.89532" lon="4.93312">
        <ele>285</ele>
        <time>2018-03-08T12:12:59Z</time>
      </trkpt>
      <trkpt lat="45.89531" lon="4.93301">
        <ele>286</ele>
        <time>2018-03-08T12:13:02Z</time>
      </trkpt>
      <trkpt lat="45.89531" lon="4.93297">
        <ele>286</ele>
        <time>2018-03-08T12:13:03Z</time>
      </trkpt>
      <trkpt lat="45.89532" lon="4.93286">
        <ele>286</ele>
        <time>2018-03-08T12:13:06Z</time>
      </trkpt>
      <trkpt lat="45.89533" lon="4.93282">
        <ele>286</ele>
        <time>2018-03-08T12:13:07Z</time>
      </trkpt>
      <trkpt lat="45.89534" lon="4.93269">
        <ele>287</ele>
        <time>2018-03-08T12:13:10Z</time>
      </trkpt>
      <trkpt lat="45.89535" lon="4.93264">
        <ele>287</ele>
        <time>2018-03-08T12:13:11Z</time>
      </trkpt>
      <trkpt lat="45.89535" lon="4.93249">
        <ele>288</ele>
        <time>2018-03-08T12:13:12Z</time>
      </trkpt>
      <trkpt lat="45.89536" lon="4.93243">
        <ele>288</ele>
        <time>2018-03-08T12:13:13Z</time>
      </trkpt>
      <trkpt lat="45.89534" lon="4.93235">
        <ele>287</ele>
        <time>2018-03-08T12:13:14Z</time>
      </trkpt>
      <trkpt lat="45.89534" lon="4.93229">
        <ele>287</ele>
        <time>2018-03-08T12:13:15Z</time>
      </trkpt>
      <trkpt lat="45.89534" lon="4.93221">
        <ele>287</ele>
        <time>2018-03-08T12:13:16Z</time>
      </trkpt>
      <trkpt lat="45.89532" lon="4.93214">
        <ele>287</ele>
        <time>2018-03-08T12:13:17Z</time>
      </trkpt>
      <trkpt lat="45.89531" lon="4.93207">
        <ele>287</ele>
        <time>2018-03-08T12:13:18Z</time>
      </trkpt>
      <trkpt lat="45.89528" lon="4.93199">
        <ele>287</ele>
        <time>2018-03-08T12:13:19Z</time>
      </trkpt>
      <trkpt lat="45.89526" lon="4.93192">
        <ele>287</ele>
        <time>2018-03-08T12:13:20Z</time>
      </trkpt>
      <trkpt lat="45.89523" lon="4.93185">
        <ele>287</ele>
        <time>2018-03-08T12:13:21Z</time>
      </trkpt>
      <trkpt lat="45.8952" lon="4.93177">
        <ele>286</ele>
        <time>2018-03-08T12:13:22Z</time>
      </trkpt>
      <trkpt lat="45.89518" lon="4.9317">
        <ele>286</ele>
        <time>2018-03-08T12:13:23Z</time>
      </trkpt>
      <trkpt lat="45.89516" lon="4.93163">
        <ele>285</ele>
        <time>2018-03-08T12:13:24Z</time>
      </trkpt>
      <trkpt lat="45.89512" lon="4.93153">
        <ele>285</ele>
        <time>2018-03-08T12:13:26Z</time>
      </trkpt>
      <trkpt lat="45.89511" lon="4.93147">
        <ele>285</ele>
        <time>2018-03-08T12:13:27Z</time>
      </trkpt>
      <trkpt lat="45.89508" lon="4.93137">
        <ele>285</ele>
        <time>2018-03-08T12:13:29Z</time>
      </trkpt>
      <trkpt lat="45.89507" lon="4.93135">
        <ele>285</ele>
        <time>2018-03-08T12:13:30Z</time>
      </trkpt>
      <trkpt lat="45.89505" lon="4.93122">
        <ele>284</ele>
        <time>2018-03-08T12:13:34Z</time>
      </trkpt>
      <trkpt lat="45.89506" lon="4.9312">
        <ele>284</ele>
        <time>2018-03-08T12:13:35Z</time>
      </trkpt>
      <trkpt lat="45.89506" lon="4.93109">
        <ele>284</ele>
        <time>2018-03-08T12:13:43Z</time>
      </trkpt>
      <trkpt lat="45.89504" lon="4.93106">
        <ele>284</ele>
        <time>2018-03-08T12:13:44Z</time>
      </trkpt>
      <trkpt lat="45.89496" lon="4.93103">
        <ele>283</ele>
        <time>2018-03-08T12:13:47Z</time>
      </trkpt>
      <trkpt lat="45.89493" lon="4.93103">
        <ele>283</ele>
        <time>2018-03-08T12:13:48Z</time>
      </trkpt>
      <trkpt lat="45.89485" lon="4.93101">
        <ele>283</ele>
        <time>2018-03-08T12:13:50Z</time>
      </trkpt>
      <trkpt lat="45.89482" lon="4.93099">
        <ele>283</ele>
        <time>2018-03-08T12:13:51Z</time>
      </trkpt>
      <trkpt lat="45.89477" lon="4.93094">
        <ele>283</ele>
        <time>2018-03-08T12:13:53Z</time>
      </trkpt>
      <trkpt lat="45.89475" lon="4.9309">
        <ele>283</ele>
        <time>2018-03-08T12:13:54Z</time>
      </trkpt>
      <trkpt lat="45.89471" lon="4.93081">
        <ele>283</ele>
        <time>2018-03-08T12:13:56Z</time>
      </trkpt>
      <trkpt lat="45.89466" lon="4.93069">
        <ele>283</ele>
        <time>2018-03-08T12:13:57Z</time>
      </trkpt>
      <trkpt lat="45.89464" lon="4.9306">
        <ele>283</ele>
        <time>2018-03-08T12:14:00Z</time>
      </trkpt>
      <trkpt lat="45.89462" lon="4.93057">
        <ele>283</ele>
        <time>2018-03-08T12:14:01Z</time>
      </trkpt>
      <trkpt lat="45.89459" lon="4.93047">
        <ele>283</ele>
        <time>2018-03-08T12:14:02Z</time>
      </trkpt>
      <trkpt lat="45.89457" lon="4.93042">
        <ele>283</ele>
        <time>2018-03-08T12:14:03Z</time>
      </trkpt>
      <trkpt lat="45.89454" lon="4.93034">
        <ele>284</ele>
        <time>2018-03-08T12:14:06Z</time>
      </trkpt>
      <trkpt lat="45.89453" lon="4.93031">
        <ele>284</ele>
        <time>2018-03-08T12:14:07Z</time>
      </trkpt>
      <trkpt lat="45.89449" lon="4.93019">
        <ele>284</ele>
        <time>2018-03-08T12:14:10Z</time>
      </trkpt>
      <trkpt lat="45.89447" lon="4.93016">
        <ele>284</ele>
        <time>2018-03-08T12:14:11Z</time>
      </trkpt>
      <trkpt lat="45.89445" lon="4.93008">
        <ele>284</ele>
        <time>2018-03-08T12:14:13Z</time>
      </trkpt>
      <trkpt lat="45.89443" lon="4.93004">
        <ele>284</ele>
        <time>2018-03-08T12:14:14Z</time>
      </trkpt>
      <trkpt lat="45.8944" lon="4.92996">
        <ele>286</ele>
        <time>2018-03-08T12:14:16Z</time>
      </trkpt>
      <trkpt lat="45.89439" lon="4.92992">
        <ele>286</ele>
        <time>2018-03-08T12:14:17Z</time>
      </trkpt>
      <trkpt lat="45.89436" lon="4.92984">
        <ele>286</ele>
        <time>2018-03-08T12:14:19Z</time>
      </trkpt>
      <trkpt lat="45.89434" lon="4.92981">
        <ele>286</ele>
        <time>2018-03-08T12:14:20Z</time>
      </trkpt>
      <trkpt lat="45.8943" lon="4.9297">
        <ele>286</ele>
        <time>2018-03-08T12:14:23Z</time>
      </trkpt>
      <trkpt lat="45.89428" lon="4.92966">
        <ele>286</ele>
        <time>2018-03-08T12:14:24Z</time>
      </trkpt>
      <trkpt lat="45.89424" lon="4.92955">
        <ele>287</ele>
        <time>2018-03-08T12:14:27Z</time>
      </trkpt>
      <trkpt lat="45.89423" lon="4.92951">
        <ele>287</ele>
        <time>2018-03-08T12:14:28Z</time>
      </trkpt>
      <trkpt lat="45.8942" lon="4.92943">
        <ele>287</ele>
        <time>2018-03-08T12:14:30Z</time>
      </trkpt>
      <trkpt lat="45.89418" lon="4.92939">
        <ele>287</ele>
        <time>2018-03-08T12:14:31Z</time>
      </trkpt>
      <trkpt lat="45.89414" lon="4.92929">
        <ele>287</ele>
        <time>2018-03-08T12:14:34Z</time>
      </trkpt>
      <trkpt lat="45.89413" lon="4.92925">
        <ele>288</ele>
        <time>2018-03-08T12:14:35Z</time>
      </trkpt>
      <trkpt lat="45.89409" lon="4.92916">
        <ele>289</ele>
        <time>2018-03-08T12:14:38Z</time>
      </trkpt>
      <trkpt lat="45.89408" lon="4.92914">
        <ele>289</ele>
        <time>2018-03-08T12:14:39Z</time>
      </trkpt>
      <trkpt lat="45.89404" lon="4.92902">
        <ele>288</ele>
        <time>2018-03-08T12:14:43Z</time>
      </trkpt>
      <trkpt lat="45.89403" lon="4.92899">
        <ele>288</ele>
        <time>2018-03-08T12:14:44Z</time>
      </trkpt>
      <trkpt lat="45.89399" lon="4.92889">
        <ele>288</ele>
        <time>2018-03-08T12:14:48Z</time>
      </trkpt>
      <trkpt lat="45.89398" lon="4.92886">
        <ele>288</ele>
        <time>2018-03-08T12:14:49Z</time>
      </trkpt>
      <trkpt lat="45.89394" lon="4.92876">
        <ele>288</ele>
        <time>2018-03-08T12:14:53Z</time>
      </trkpt>
      <trkpt lat="45.89393" lon="4.92874">
        <ele>288</ele>
        <time>2018-03-08T12:14:54Z</time>
      </trkpt>
      <trkpt lat="45.89389" lon="4.92864">
        <ele>289</ele>
        <time>2018-03-08T12:14:58Z</time>
      </trkpt>
      <trkpt lat="45.89387" lon="4.92861">
        <ele>289</ele>
        <time>2018-03-08T12:14:59Z</time>
      </trkpt>
      <trkpt lat="45.89383" lon="4.92851">
        <ele>289</ele>
        <time>2018-03-08T12:15:03Z</time>
      </trkpt>
      <trkpt lat="45.89382" lon="4.92849">
        <ele>289</ele>
        <time>2018-03-08T12:15:04Z</time>
      </trkpt>
      <trkpt lat="45.8938" lon="4.9284">
        <ele>289</ele>
        <time>2018-03-08T12:15:08Z</time>
      </trkpt>
      <trkpt lat="45.8938" lon="4.92837">
        <ele>289</ele>
        <time>2018-03-08T12:15:09Z</time>
      </trkpt>
      <trkpt lat="45.89378" lon="4.92824">
        <ele>290</ele>
        <time>2018-03-08T12:15:13Z</time>
      </trkpt>
      <trkpt lat="45.89378" lon="4.92821">
        <ele>290</ele>
        <time>2018-03-08T12:15:14Z</time>
      </trkpt>
      <trkpt lat="45.89376" lon="4.92812">
        <ele>290</ele>
        <time>2018-03-08T12:15:17Z</time>
      </trkpt>
      <trkpt lat="45.89375" lon="4.92809">
        <ele>290</ele>
        <time>2018-03-08T12:15:18Z</time>
      </trkpt>
      <trkpt lat="45.89373" lon="4.92799">
        <ele>290</ele>
        <time>2018-03-08T12:15:21Z</time>
      </trkpt>
      <trkpt lat="45.89373" lon="4.92795">
        <ele>290</ele>
        <time>2018-03-08T12:15:22Z</time>
      </trkpt>
      <trkpt lat="45.89371" lon="4.92784">
        <ele>290</ele>
        <time>2018-03-08T12:15:25Z</time>
      </trkpt>
      <trkpt lat="45.8937" lon="4.9278">
        <ele>290</ele>
        <time>2018-03-08T12:15:26Z</time>
      </trkpt>
      <trkpt lat="45.89368" lon="4.92768">
        <ele>290</ele>
        <time>2018-03-08T12:15:29Z</time>
      </trkpt>
      <trkpt lat="45.89368" lon="4.92764">
        <ele>290</ele>
        <time>2018-03-08T12:15:30Z</time>
      </trkpt>
      <trkpt lat="45.89366" lon="4.92755">
        <ele>290</ele>
        <time>2018-03-08T12:15:32Z</time>
      </trkpt>
      <trkpt lat="45.89366" lon="4.92751">
        <ele>290</ele>
        <time>2018-03-08T12:15:33Z</time>
      </trkpt>
      <trkpt lat="45.89364" lon="4.92742">
        <ele>291</ele>
        <time>2018-03-08T12:15:35Z</time>
      </trkpt>
      <trkpt lat="45.89363" lon="4.92738">
        <ele>291</ele>
        <time>2018-03-08T12:15:36Z</time>
      </trkpt>
      <trkpt lat="45.89361" lon="4.92729">
        <ele>291</ele>
        <time>2018-03-08T12:15:38Z</time>
      </trkpt>
      <trkpt lat="45.8936" lon="4.92725">
        <ele>291</ele>
        <time>2018-03-08T12:15:39Z</time>
      </trkpt>
      <trkpt lat="45.89358" lon="4.92716">
        <ele>291</ele>
        <time>2018-03-08T12:15:41Z</time>
      </trkpt>
      <trkpt lat="45.89357" lon="4.92712">
        <ele>291</ele>
        <time>2018-03-08T12:15:42Z</time>
      </trkpt>
      <trkpt lat="45.89355" lon="4.92704">
        <ele>291</ele>
        <time>2018-03-08T12:15:44Z</time>
      </trkpt>
      <trkpt lat="45.89354" lon="4.927">
        <ele>291</ele>
        <time>2018-03-08T12:15:45Z</time>
      </trkpt>
      <trkpt lat="45.89351" lon="4.92686">
        <ele>291</ele>
        <time>2018-03-08T12:15:46Z</time>
      </trkpt>
      <trkpt lat="45.89349" lon="4.92678">
        <ele>291</ele>
        <time>2018-03-08T12:15:48Z</time>
      </trkpt>
      <trkpt lat="45.89348" lon="4.92673">
        <ele>291</ele>
        <time>2018-03-08T12:15:49Z</time>
      </trkpt>
      <trkpt lat="45.89345" lon="4.92663">
        <ele>291</ele>
        <time>2018-03-08T12:15:51Z</time>
      </trkpt>
      <trkpt lat="45.89344" lon="4.92658">
        <ele>291</ele>
        <time>2018-03-08T12:15:52Z</time>
      </trkpt>
      <trkpt lat="45.8934" lon="4.92647">
        <ele>291</ele>
        <time>2018-03-08T12:15:54Z</time>
      </trkpt>
      <trkpt lat="45.89339" lon="4.92642">
        <ele>291</ele>
        <time>2018-03-08T12:15:55Z</time>
      </trkpt>
      <trkpt lat="45.89336" lon="4.92631">
        <ele>291</ele>
        <time>2018-03-08T12:15:57Z</time>
      </trkpt>
      <trkpt lat="45.89336" lon="4.92628">
        <ele>291</ele>
        <time>2018-03-08T12:15:58Z</time>
      </trkpt>
      <trkpt lat="45.89333" lon="4.92619">
        <ele>292</ele>
        <time>2018-03-08T12:16:01Z</time>
      </trkpt>
      <trkpt lat="45.89329" lon="4.92608">
        <ele>292</ele>
        <time>2018-03-08T12:16:02Z</time>
      </trkpt>
      <trkpt lat="45.89326" lon="4.92599">
        <ele>292</ele>
        <time>2018-03-08T12:16:04Z</time>
      </trkpt>
      <trkpt lat="45.89325" lon="4.92596">
        <ele>292</ele>
        <time>2018-03-08T12:16:05Z</time>
      </trkpt>
      <trkpt lat="45.89322" lon="4.92585">
        <ele>293</ele>
        <time>2018-03-08T12:16:07Z</time>
      </trkpt>
      <trkpt lat="45.8932" lon="4.9258">
        <ele>293</ele>
        <time>2018-03-08T12:16:08Z</time>
      </trkpt>
      <trkpt lat="45.89318" lon="4.9257">
        <ele>293</ele>
        <time>2018-03-08T12:16:10Z</time>
      </trkpt>
      <trkpt lat="45.89317" lon="4.92565">
        <ele>293</ele>
        <time>2018-03-08T12:16:11Z</time>
      </trkpt>
      <trkpt lat="45.89315" lon="4.92554">
        <ele>293</ele>
        <time>2018-03-08T12:16:13Z</time>
      </trkpt>
      <trkpt lat="45.89313" lon="4.92549">
        <ele>293</ele>
        <time>2018-03-08T12:16:14Z</time>
      </trkpt>
      <trkpt lat="45.8931" lon="4.92539">
        <ele>293</ele>
        <time>2018-03-08T12:16:16Z</time>
      </trkpt>
      <trkpt lat="45.89308" lon="4.92535">
        <ele>293</ele>
        <time>2018-03-08T12:16:17Z</time>
      </trkpt>
      <trkpt lat="45.89304" lon="4.92526">
        <ele>293</ele>
        <time>2018-03-08T12:16:19Z</time>
      </trkpt>
      <trkpt lat="45.89303" lon="4.92521">
        <ele>293</ele>
        <time>2018-03-08T12:16:20Z</time>
      </trkpt>
      <trkpt lat="45.893" lon="4.92511">
        <ele>294</ele>
        <time>2018-03-08T12:16:22Z</time>
      </trkpt>
      <trkpt lat="45.89299" lon="4.92506">
        <ele>294</ele>
        <time>2018-03-08T12:16:23Z</time>
      </trkpt>
      <trkpt lat="45.89295" lon="4.92497">
        <ele>294</ele>
        <time>2018-03-08T12:16:25Z</time>
      </trkpt>
      <trkpt lat="45.89294" lon="4.92492">
        <ele>294</ele>
        <time>2018-03-08T12:16:26Z</time>
      </trkpt>
      <trkpt lat="45.8929" lon="4.92482">
        <ele>294</ele>
        <time>2018-03-08T12:16:28Z</time>
      </trkpt>
      <trkpt lat="45.89288" lon="4.92477">
        <ele>294</ele>
        <time>2018-03-08T12:16:29Z</time>
      </trkpt>
      <trkpt lat="45.89284" lon="4.92467">
        <ele>294</ele>
        <time>2018-03-08T12:16:31Z</time>
      </trkpt>
      <trkpt lat="45.89283" lon="4.92464">
        <ele>294</ele>
        <time>2018-03-08T12:16:32Z</time>
      </trkpt>
      <trkpt lat="45.89279" lon="4.92453">
        <ele>294</ele>
        <time>2018-03-08T12:16:34Z</time>
      </trkpt>
      <trkpt lat="45.89277" lon="4.92448">
        <ele>294</ele>
        <time>2018-03-08T12:16:35Z</time>
      </trkpt>
      <trkpt lat="45.89274" lon="4.92438">
        <ele>294</ele>
        <time>2018-03-08T12:16:37Z</time>
      </trkpt>
      <trkpt lat="45.89272" lon="4.92433">
        <ele>294</ele>
        <time>2018-03-08T12:16:38Z</time>
      </trkpt>
      <trkpt lat="45.89269" lon="4.92423">
        <ele>294</ele>
        <time>2018-03-08T12:16:40Z</time>
      </trkpt>
      <trkpt lat="45.89267" lon="4.92418">
        <ele>294</ele>
        <time>2018-03-08T12:16:41Z</time>
      </trkpt>
      <trkpt lat="45.89262" lon="4.92408">
        <ele>293</ele>
        <time>2018-03-08T12:16:43Z</time>
      </trkpt>
      <trkpt lat="45.89261" lon="4.92403">
        <ele>293</ele>
        <time>2018-03-08T12:16:44Z</time>
      </trkpt>
      <trkpt lat="45.89258" lon="4.92393">
        <ele>293</ele>
        <time>2018-03-08T12:16:46Z</time>
      </trkpt>
      <trkpt lat="45.89256" lon="4.92387">
        <ele>293</ele>
        <time>2018-03-08T12:16:47Z</time>
      </trkpt>
      <trkpt lat="45.89254" lon="4.92382">
        <ele>293</ele>
        <time>2018-03-08T12:16:48Z</time>
      </trkpt>
      <trkpt lat="45.89252" lon="4.92375">
        <ele>293</ele>
        <time>2018-03-08T12:16:49Z</time>
      </trkpt>
      <trkpt lat="45.89251" lon="4.92368">
        <ele>292</ele>
        <time>2018-03-08T12:16:50Z</time>
      </trkpt>
      <trkpt lat="45.8925" lon="4.92361">
        <ele>293</ele>
        <time>2018-03-08T12:16:51Z</time>
      </trkpt>
      <trkpt lat="45.89248" lon="4.92354">
        <ele>292</ele>
        <time>2018-03-08T12:16:52Z</time>
      </trkpt>
      <trkpt lat="45.89247" lon="4.92346">
        <ele>292</ele>
        <time>2018-03-08T12:16:53Z</time>
      </trkpt>
      <trkpt lat="45.89245" lon="4.9234">
        <ele>292</ele>
        <time>2018-03-08T12:16:54Z</time>
      </trkpt>
      <trkpt lat="45.89245" lon="4.92332">
        <ele>292</ele>
        <time>2018-03-08T12:16:55Z</time>
      </trkpt>
      <trkpt lat="45.89243" lon="4.92324">
        <ele>291</ele>
        <time>2018-03-08T12:16:56Z</time>
      </trkpt>
      <trkpt lat="45.89242" lon="4.92317">
        <ele>291</ele>
        <time>2018-03-08T12:16:57Z</time>
      </trkpt>
      <trkpt lat="45.8924" lon="4.92308">
        <ele>291</ele>
        <time>2018-03-08T12:16:58Z</time>
      </trkpt>
      <trkpt lat="45.89238" lon="4.923">
        <ele>291</ele>
        <time>2018-03-08T12:16:59Z</time>
      </trkpt>
      <trkpt lat="45.89236" lon="4.92292">
        <ele>290</ele>
        <time>2018-03-08T12:17:00Z</time>
      </trkpt>
      <trkpt lat="45.89233" lon="4.92284">
        <ele>290</ele>
        <time>2018-03-08T12:17:01Z</time>
      </trkpt>
      <trkpt lat="45.8923" lon="4.92277">
        <ele>290</ele>
        <time>2018-03-08T12:17:02Z</time>
      </trkpt>
      <trkpt lat="45.89226" lon="4.9227">
        <ele>290</ele>
        <time>2018-03-08T12:17:03Z</time>
      </trkpt>
      <trkpt lat="45.89224" lon="4.92262">
        <ele>290</ele>
        <time>2018-03-08T12:17:04Z</time>
      </trkpt>
      <trkpt lat="45.8922" lon="4.92258">
        <ele>290</ele>
        <time>2018-03-08T12:17:05Z</time>
      </trkpt>
      <trkpt lat="45.89217" lon="4.92252">
        <ele>290</ele>
        <time>2018-03-08T12:17:06Z</time>
      </trkpt>
      <trkpt lat="45.89213" lon="4.92246">
        <ele>288</ele>
        <time>2018-03-08T12:17:07Z</time>
      </trkpt>
      <trkpt lat="45.8921" lon="4.9224">
        <ele>288</ele>
        <time>2018-03-08T12:17:08Z</time>
      </trkpt>
      <trkpt lat="45.89208" lon="4.92234">
        <ele>288</ele>
        <time>2018-03-08T12:17:09Z</time>
      </trkpt>
      <trkpt lat="45.89205" lon="4.92229">
        <ele>288</ele>
        <time>2018-03-08T12:17:10Z</time>
      </trkpt>
      <trkpt lat="45.89202" lon="4.92222">
        <ele>288</ele>
        <time>2018-03-08T12:17:11Z</time>
      </trkpt>
      <trkpt lat="45.89198" lon="4.92215">
        <ele>288</ele>
        <time>2018-03-08T12:17:12Z</time>
      </trkpt>
      <trkpt lat="45.89194" lon="4.92208">
        <ele>288</ele>
        <time>2018-03-08T12:17:13Z</time>
      </trkpt>
      <trkpt lat="45.89191" lon="4.92201">
        <ele>288</ele>
        <time>2018-03-08T12:17:14Z</time>
      </trkpt>
      <trkpt lat="45.89186" lon="4.92195">
        <ele>288</ele>
        <time>2018-03-08T12:17:15Z</time>
      </trkpt>
      <trkpt lat="45.89182" lon="4.9219">
        <ele>289</ele>
        <time>2018-03-08T12:17:16Z</time>
      </trkpt>
      <trkpt lat="45.89178" lon="4.92185">
        <ele>289</ele>
        <time>2018-03-08T12:17:17Z</time>
      </trkpt>
      <trkpt lat="45.89173" lon="4.92179">
        <ele>289</ele>
        <time>2018-03-08T12:17:18Z</time>
      </trkpt>
      <trkpt lat="45.89169" lon="4.92175">
        <ele>289</ele>
        <time>2018-03-08T12:17:19Z</time>
      </trkpt>
      <trkpt lat="45.89165" lon="4.9217">
        <ele>289</ele>
        <time>2018-03-08T12:17:20Z</time>
      </trkpt>
      <trkpt lat="45.89161" lon="4.92167">
        <ele>289</ele>
        <time>2018-03-08T12:17:21Z</time>
      </trkpt>
      <trkpt lat="45.89157" lon="4.92164">
        <ele>288</ele>
        <time>2018-03-08T12:17:22Z</time>
      </trkpt>
      <trkpt lat="45.89152" lon="4.9216">
        <ele>288</ele>
        <time>2018-03-08T12:17:23Z</time>
      </trkpt>
      <trkpt lat="45.89149" lon="4.92155">
        <ele>288</ele>
        <time>2018-03-08T12:17:24Z</time>
      </trkpt>
      <trkpt lat="45.89144" lon="4.9215">
        <ele>288</ele>
        <time>2018-03-08T12:17:25Z</time>
      </trkpt>
      <trkpt lat="45.89137" lon="4.92144">
        <ele>288</ele>
        <time>2018-03-08T12:17:27Z</time>
      </trkpt>
      <trkpt lat="45.89133" lon="4.92141">
        <ele>288</ele>
        <time>2018-03-08T12:17:28Z</time>
      </trkpt>
      <trkpt lat="45.89128" lon="4.92139">
        <ele>288</ele>
        <time>2018-03-08T12:17:29Z</time>
      </trkpt>
      <trkpt lat="45.89124" lon="4.92136">
        <ele>288</ele>
        <time>2018-03-08T12:17:30Z</time>
      </trkpt>
      <trkpt lat="45.8912" lon="4.9213">
        <ele>288</ele>
        <time>2018-03-08T12:17:31Z</time>
      </trkpt>
      <trkpt lat="45.89116" lon="4.92127">
        <ele>288</ele>
        <time>2018-03-08T12:17:32Z</time>
      </trkpt>
      <trkpt lat="45.89109" lon="4.9212">
        <ele>287</ele>
        <time>2018-03-08T12:17:34Z</time>
      </trkpt>
      <trkpt lat="45.89104" lon="4.92117">
        <ele>287</ele>
        <time>2018-03-08T12:17:35Z</time>
      </trkpt>
      <trkpt lat="45.89097" lon="4.9211">
        <ele>287</ele>
        <time>2018-03-08T12:17:37Z</time>
      </trkpt>
      <trkpt lat="45.89093" lon="4.92108">
        <ele>287</ele>
        <time>2018-03-08T12:17:38Z</time>
      </trkpt>
      <trkpt lat="45.89089" lon="4.92103">
        <ele>287</ele>
        <time>2018-03-08T12:17:39Z</time>
      </trkpt>
      <trkpt lat="45.89085" lon="4.92099">
        <ele>287</ele>
        <time>2018-03-08T12:17:40Z</time>
      </trkpt>
      <trkpt lat="45.89081" lon="4.92095">
        <ele>287</ele>
        <time>2018-03-08T12:17:41Z</time>
      </trkpt>
      <trkpt lat="45.89077" lon="4.92092">
        <ele>287</ele>
        <time>2018-03-08T12:17:42Z</time>
      </trkpt>
      <trkpt lat="45.89072" lon="4.92087">
        <ele>287</ele>
        <time>2018-03-08T12:17:43Z</time>
      </trkpt>
      <trkpt lat="45.89069" lon="4.92083">
        <ele>287</ele>
        <time>2018-03-08T12:17:44Z</time>
      </trkpt>
      <trkpt lat="45.89065" lon="4.92079">
        <ele>287</ele>
        <time>2018-03-08T12:17:45Z</time>
      </trkpt>
      <trkpt lat="45.89061" lon="4.92077">
        <ele>287</ele>
        <time>2018-03-08T12:17:46Z</time>
      </trkpt>
      <trkpt lat="45.89054" lon="4.9207">
        <ele>287</ele>
        <time>2018-03-08T12:17:48Z</time>
      </trkpt>
      <trkpt lat="45.8905" lon="4.92068">
        <ele>287</ele>
        <time>2018-03-08T12:17:49Z</time>
      </trkpt>
      <trkpt lat="45.89043" lon="4.92062">
        <ele>287</ele>
        <time>2018-03-08T12:17:51Z</time>
      </trkpt>
      <trkpt lat="45.89039" lon="4.9206">
        <ele>287</ele>
        <time>2018-03-08T12:17:52Z</time>
      </trkpt>
      <trkpt lat="45.89032" lon="4.92053">
        <ele>287</ele>
        <time>2018-03-08T12:17:54Z</time>
      </trkpt>
      <trkpt lat="45.89028" lon="4.9205">
        <ele>287</ele>
        <time>2018-03-08T12:17:55Z</time>
      </trkpt>
      <trkpt lat="45.89022" lon="4.92042">
        <ele>287</ele>
        <time>2018-03-08T12:17:57Z</time>
      </trkpt>
      <trkpt lat="45.89018" lon="4.92038">
        <ele>287</ele>
        <time>2018-03-08T12:17:58Z</time>
      </trkpt>
      <trkpt lat="45.89012" lon="4.92031">
        <ele>287</ele>
        <time>2018-03-08T12:18:00Z</time>
      </trkpt>
      <trkpt lat="45.89009" lon="4.92027">
        <ele>287</ele>
        <time>2018-03-08T12:18:01Z</time>
      </trkpt>
      <trkpt lat="45.89003" lon="4.9202">
        <ele>287</ele>
        <time>2018-03-08T12:18:03Z</time>
      </trkpt>
      <trkpt lat="45.89" lon="4.92015">
        <ele>287</ele>
        <time>2018-03-08T12:18:04Z</time>
      </trkpt>
      <trkpt lat="45.88994" lon="4.92008">
        <ele>287</ele>
        <time>2018-03-08T12:18:06Z</time>
      </trkpt>
      <trkpt lat="45.88991" lon="4.92004">
        <ele>287</ele>
        <time>2018-03-08T12:18:07Z</time>
      </trkpt>
      <trkpt lat="45.88984" lon="4.91996">
        <ele>287</ele>
        <time>2018-03-08T12:18:09Z</time>
      </trkpt>
      <trkpt lat="45.88981" lon="4.91991">
        <ele>287</ele>
        <time>2018-03-08T12:18:10Z</time>
      </trkpt>
      <trkpt lat="45.88978" lon="4.91987">
        <ele>287</ele>
        <time>2018-03-08T12:18:11Z</time>
      </trkpt>
      <trkpt lat="45.88975" lon="4.91982">
        <ele>287</ele>
        <time>2018-03-08T12:18:12Z</time>
      </trkpt>
      <trkpt lat="45.88968" lon="4.91973">
        <ele>287</ele>
        <time>2018-03-08T12:18:14Z</time>
      </trkpt>
      <trkpt lat="45.88965" lon="4.91969">
        <ele>287</ele>
        <time>2018-03-08T12:18:15Z</time>
      </trkpt>
      <trkpt lat="45.88961" lon="4.91962">
        <ele>287</ele>
        <time>2018-03-08T12:18:16Z</time>
      </trkpt>
      <trkpt lat="45.88958" lon="4.91958">
        <ele>287</ele>
        <time>2018-03-08T12:18:17Z</time>
      </trkpt>
      <trkpt lat="45.88955" lon="4.91953">
        <ele>287</ele>
        <time>2018-03-08T12:18:18Z</time>
      </trkpt>
      <trkpt lat="45.88951" lon="4.91948">
        <ele>287</ele>
        <time>2018-03-08T12:18:19Z</time>
      </trkpt>
      <trkpt lat="45.88945" lon="4.9194">
        <ele>287</ele>
        <time>2018-03-08T12:18:21Z</time>
      </trkpt>
      <trkpt lat="45.88942" lon="4.91936">
        <ele>287</ele>
        <time>2018-03-08T12:18:22Z</time>
      </trkpt>
      <trkpt lat="45.88939" lon="4.9193">
        <ele>287</ele>
        <time>2018-03-08T12:18:23Z</time>
      </trkpt>
      <trkpt lat="45.88936" lon="4.91925">
        <ele>288</ele>
        <time>2018-03-08T12:18:24Z</time>
      </trkpt>
      <trkpt lat="45.88932" lon="4.9192">
        <ele>288</ele>
        <time>2018-03-08T12:18:25Z</time>
      </trkpt>
      <trkpt lat="45.8893" lon="4.91914">
        <ele>288</ele>
        <time>2018-03-08T12:18:26Z</time>
      </trkpt>
      <trkpt lat="45.88927" lon="4.91906">
        <ele>288</ele>
        <time>2018-03-08T12:18:28Z</time>
      </trkpt>
      <trkpt lat="45.88922" lon="4.919">
        <ele>288</ele>
        <time>2018-03-08T12:18:29Z</time>
      </trkpt>
      <trkpt lat="45.88918" lon="4.91891">
        <ele>288</ele>
        <time>2018-03-08T12:18:31Z</time>
      </trkpt>
      <trkpt lat="45.88915" lon="4.91886">
        <ele>288</ele>
        <time>2018-03-08T12:18:32Z</time>
      </trkpt>
      <trkpt lat="45.88913" lon="4.91876">
        <ele>288</ele>
        <time>2018-03-08T12:18:34Z</time>
      </trkpt>
      <trkpt lat="45.8891" lon="4.9187">
        <ele>288</ele>
        <time>2018-03-08T12:18:35Z</time>
      </trkpt>
      <trkpt lat="45.88908" lon="4.91859">
        <ele>288</ele>
        <time>2018-03-08T12:18:37Z</time>
      </trkpt>
      <trkpt lat="45.88906" lon="4.91853">
        <ele>288</ele>
        <time>2018-03-08T12:18:38Z</time>
      </trkpt>
      <trkpt lat="45.88904" lon="4.91847">
        <ele>288</ele>
        <time>2018-03-08T12:18:39Z</time>
      </trkpt>
      <trkpt lat="45.88902" lon="4.9184">
        <ele>288</ele>
        <time>2018-03-08T12:18:40Z</time>
      </trkpt>
      <trkpt lat="45.88901" lon="4.91834">
        <ele>288</ele>
        <time>2018-03-08T12:18:41Z</time>
      </trkpt>
      <trkpt lat="45.889" lon="4.91828">
        <ele>288</ele>
        <time>2018-03-08T12:18:42Z</time>
      </trkpt>
      <trkpt lat="45.88897" lon="4.91816">
        <ele>288</ele>
        <time>2018-03-08T12:18:44Z</time>
      </trkpt>
      <trkpt lat="45.88896" lon="4.9181">
        <ele>288</ele>
        <time>2018-03-08T12:18:45Z</time>
      </trkpt>
      <trkpt lat="45.88894" lon="4.91803">
        <ele>288</ele>
        <time>2018-03-08T12:18:46Z</time>
      </trkpt>
      <trkpt lat="45.88892" lon="4.91796">
        <ele>288</ele>
        <time>2018-03-08T12:18:47Z</time>
      </trkpt>
      <trkpt lat="45.8889" lon="4.91785">
        <ele>288</ele>
        <time>2018-03-08T12:18:49Z</time>
      </trkpt>
      <trkpt lat="45.88889" lon="4.9178">
        <ele>288</ele>
        <time>2018-03-08T12:18:50Z</time>
      </trkpt>
      <trkpt lat="45.88887" lon="4.91768">
        <ele>288</ele>
        <time>2018-03-08T12:18:52Z</time>
      </trkpt>
      <trkpt lat="45.88886" lon="4.91762">
        <ele>288</ele>
        <time>2018-03-08T12:18:53Z</time>
      </trkpt>
      <trkpt lat="45.88884" lon="4.91749">
        <ele>288</ele>
        <time>2018-03-08T12:18:55Z</time>
      </trkpt>
      <trkpt lat="45.88884" lon="4.91743">
        <ele>288</ele>
        <time>2018-03-08T12:18:56Z</time>
      </trkpt>
      <trkpt lat="45.88881" lon="4.91731">
        <ele>288</ele>
        <time>2018-03-08T12:18:58Z</time>
      </trkpt>
      <trkpt lat="45.8888" lon="4.91725">
        <ele>288</ele>
        <time>2018-03-08T12:18:59Z</time>
      </trkpt>
      <trkpt lat="45.88878" lon="4.91712">
        <ele>288</ele>
        <time>2018-03-08T12:19:01Z</time>
      </trkpt>
      <trkpt lat="45.88876" lon="4.91706">
        <ele>289</ele>
        <time>2018-03-08T12:19:02Z</time>
      </trkpt>
      <trkpt lat="45.88873" lon="4.91694">
        <ele>289</ele>
        <time>2018-03-08T12:19:04Z</time>
      </trkpt>
      <trkpt lat="45.88872" lon="4.91688">
        <ele>289</ele>
        <time>2018-03-08T12:19:05Z</time>
      </trkpt>
      <trkpt lat="45.88869" lon="4.91677">
        <ele>289</ele>
        <time>2018-03-08T12:19:07Z</time>
      </trkpt>
      <trkpt lat="45.88868" lon="4.91671">
        <ele>289</ele>
        <time>2018-03-08T12:19:08Z</time>
      </trkpt>
      <trkpt lat="45.88864" lon="4.9166">
        <ele>289</ele>
        <time>2018-03-08T12:19:10Z</time>
      </trkpt>
      <trkpt lat="45.88862" lon="4.91654">
        <ele>289</ele>
        <time>2018-03-08T12:19:11Z</time>
      </trkpt>
      <trkpt lat="45.88859" lon="4.91644">
        <ele>289</ele>
        <time>2018-03-08T12:19:13Z</time>
      </trkpt>
      <trkpt lat="45.88857" lon="4.91638">
        <ele>289</ele>
        <time>2018-03-08T12:19:14Z</time>
      </trkpt>
      <trkpt lat="45.88854" lon="4.91627">
        <ele>289</ele>
        <time>2018-03-08T12:19:16Z</time>
      </trkpt>
      <trkpt lat="45.88853" lon="4.91622">
        <ele>289</ele>
        <time>2018-03-08T12:19:17Z</time>
      </trkpt>
      <trkpt lat="45.8885" lon="4.91611">
        <ele>289</ele>
        <time>2018-03-08T12:19:19Z</time>
      </trkpt>
      <trkpt lat="45.88848" lon="4.91606">
        <ele>289</ele>
        <time>2018-03-08T12:19:20Z</time>
      </trkpt>
      <trkpt lat="45.88845" lon="4.91596">
        <ele>289</ele>
        <time>2018-03-08T12:19:22Z</time>
      </trkpt>
      <trkpt lat="45.88844" lon="4.91594">
        <ele>289</ele>
        <time>2018-03-08T12:19:23Z</time>
      </trkpt>
      <trkpt lat="45.88841" lon="4.91584">
        <ele>289</ele>
        <time>2018-03-08T12:19:26Z</time>
      </trkpt>
      <trkpt lat="45.8884" lon="4.9158">
        <ele>289</ele>
        <time>2018-03-08T12:19:27Z</time>
      </trkpt>
      <trkpt lat="45.88836" lon="4.91568">
        <ele>289</ele>
        <time>2018-03-08T12:19:30Z</time>
      </trkpt>
      <trkpt lat="45.88835" lon="4.91564">
        <ele>289</ele>
        <time>2018-03-08T12:19:31Z</time>
      </trkpt>
      <trkpt lat="45.88832" lon="4.91551">
        <ele>288</ele>
        <time>2018-03-08T12:19:32Z</time>
      </trkpt>
      <trkpt lat="45.8883" lon="4.91541">
        <ele>288</ele>
        <time>2018-03-08T12:19:34Z</time>
      </trkpt>
      <trkpt lat="45.88829" lon="4.91536">
        <ele>288</ele>
        <time>2018-03-08T12:19:35Z</time>
      </trkpt>
      <trkpt lat="45.88827" lon="4.91525">
        <ele>288</ele>
        <time>2018-03-08T12:19:37Z</time>
      </trkpt>
      <trkpt lat="45.88827" lon="4.91523">
        <ele>288</ele>
        <time>2018-03-08T12:19:38Z</time>
      </trkpt>
      <trkpt lat="45.88826" lon="4.9152">
        <ele>288</ele>
        <time>2018-03-08T12:19:39Z</time>
      </trkpt>
      <trkpt lat="45.88825" lon="4.9151">
        <ele>288</ele>
        <time>2018-03-08T12:19:40Z</time>
      </trkpt>
      <trkpt lat="45.88824" lon="4.91503">
        <ele>289</ele>
        <time>2018-03-08T12:19:41Z</time>
      </trkpt>
      <trkpt lat="45.88823" lon="4.91497">
        <ele>289</ele>
        <time>2018-03-08T12:19:42Z</time>
      </trkpt>
      <trkpt lat="45.8882" lon="4.91485">
        <ele>288</ele>
        <time>2018-03-08T12:19:44Z</time>
      </trkpt>
      <trkpt lat="45.88819" lon="4.91479">
        <ele>288</ele>
        <time>2018-03-08T12:19:45Z</time>
      </trkpt>
      <trkpt lat="45.88817" lon="4.91469">
        <ele>288</ele>
        <time>2018-03-08T12:19:47Z</time>
      </trkpt>
      <trkpt lat="45.88816" lon="4.91463">
        <ele>288</ele>
        <time>2018-03-08T12:19:48Z</time>
      </trkpt>
      <trkpt lat="45.88815" lon="4.91452">
        <ele>288</ele>
        <time>2018-03-08T12:19:50Z</time>
      </trkpt>
      <trkpt lat="45.88814" lon="4.91445">
        <ele>288</ele>
        <time>2018-03-08T12:19:51Z</time>
      </trkpt>
      <trkpt lat="45.88813" lon="4.91439">
        <ele>288</ele>
        <time>2018-03-08T12:19:52Z</time>
      </trkpt>
      <trkpt lat="45.88811" lon="4.91432">
        <ele>288</ele>
        <time>2018-03-08T12:19:53Z</time>
      </trkpt>
      <trkpt lat="45.8881" lon="4.91426">
        <ele>288</ele>
        <time>2018-03-08T12:19:54Z</time>
      </trkpt>
      <trkpt lat="45.88809" lon="4.91417">
        <ele>289</ele>
        <time>2018-03-08T12:19:55Z</time>
      </trkpt>
      <trkpt lat="45.88808" lon="4.9141">
        <ele>289</ele>
        <time>2018-03-08T12:19:56Z</time>
      </trkpt>
      <trkpt lat="45.88807" lon="4.91403">
        <ele>289</ele>
        <time>2018-03-08T12:19:57Z</time>
      </trkpt>
      <trkpt lat="45.88806" lon="4.91396">
        <ele>289</ele>
        <time>2018-03-08T12:19:58Z</time>
      </trkpt>
      <trkpt lat="45.88804" lon="4.9139">
        <ele>289</ele>
        <time>2018-03-08T12:19:59Z</time>
      </trkpt>
      <trkpt lat="45.88801" lon="4.91382">
        <ele>288</ele>
        <time>2018-03-08T12:20:00Z</time>
      </trkpt>
      <trkpt lat="45.88801" lon="4.91376">
        <ele>288</ele>
        <time>2018-03-08T12:20:01Z</time>
      </trkpt>
      <trkpt lat="45.88799" lon="4.91364">
        <ele>288</ele>
        <time>2018-03-08T12:20:03Z</time>
      </trkpt>
      <trkpt lat="45.88798" lon="4.91358">
        <ele>288</ele>
        <time>2018-03-08T12:20:04Z</time>
      </trkpt>
      <trkpt lat="45.88796" lon="4.91353">
        <ele>288</ele>
        <time>2018-03-08T12:20:05Z</time>
      </trkpt>
      <trkpt lat="45.88796" lon="4.91345">
        <ele>288</ele>
        <time>2018-03-08T12:20:06Z</time>
      </trkpt>
      <trkpt lat="45.88795" lon="4.91338">
        <ele>288</ele>
        <time>2018-03-08T12:20:07Z</time>
      </trkpt>
      <trkpt lat="45.88794" lon="4.91332">
        <ele>289</ele>
        <time>2018-03-08T12:20:08Z</time>
      </trkpt>
      <trkpt lat="45.88794" lon="4.91324">
        <ele>289</ele>
        <time>2018-03-08T12:20:09Z</time>
      </trkpt>
      <trkpt lat="45.88794" lon="4.91317">
        <ele>289</ele>
        <time>2018-03-08T12:20:10Z</time>
      </trkpt>
      <trkpt lat="45.88794" lon="4.9131">
        <ele>289</ele>
        <time>2018-03-08T12:20:11Z</time>
      </trkpt>
      <trkpt lat="45.88794" lon="4.91304">
        <ele>289</ele>
        <time>2018-03-08T12:20:12Z</time>
      </trkpt>
      <trkpt lat="45.88793" lon="4.91292">
        <ele>289</ele>
        <time>2018-03-08T12:20:14Z</time>
      </trkpt>
      <trkpt lat="45.88792" lon="4.91288">
        <ele>289</ele>
        <time>2018-03-08T12:20:15Z</time>
      </trkpt>
      <trkpt lat="45.88793" lon="4.91276">
        <ele>289</ele>
        <time>2018-03-08T12:20:17Z</time>
      </trkpt>
      <trkpt lat="45.88793" lon="4.9127">
        <ele>289</ele>
        <time>2018-03-08T12:20:18Z</time>
      </trkpt>
      <trkpt lat="45.88794" lon="4.91259">
        <ele>289</ele>
        <time>2018-03-08T12:20:20Z</time>
      </trkpt>
      <trkpt lat="45.88793" lon="4.91253">
        <ele>289</ele>
        <time>2018-03-08T12:20:21Z</time>
      </trkpt>
      <trkpt lat="45.88793" lon="4.91241">
        <ele>288</ele>
        <time>2018-03-08T12:20:23Z</time>
      </trkpt>
      <trkpt lat="45.88792" lon="4.91234">
        <ele>288</ele>
        <time>2018-03-08T12:20:24Z</time>
      </trkpt>
      <trkpt lat="45.88792" lon="4.91222">
        <ele>288</ele>
        <time>2018-03-08T12:20:26Z</time>
      </trkpt>
      <trkpt lat="45.88792" lon="4.91217">
        <ele>288</ele>
        <time>2018-03-08T12:20:27Z</time>
      </trkpt>
      <trkpt lat="45.88793" lon="4.91205">
        <ele>288</ele>
        <time>2018-03-08T12:20:29Z</time>
      </trkpt>
      <trkpt lat="45.88793" lon="4.912">
        <ele>288</ele>
        <time>2018-03-08T12:20:30Z</time>
      </trkpt>
      <trkpt lat="45.88793" lon="4.91189">
        <ele>288</ele>
        <time>2018-03-08T12:20:32Z</time>
      </trkpt>
      <trkpt lat="45.88793" lon="4.91183">
        <ele>288</ele>
        <time>2018-03-08T12:20:33Z</time>
      </trkpt>
      <trkpt lat="45.88794" lon="4.91171">
        <ele>288</ele>
        <time>2018-03-08T12:20:35Z</time>
      </trkpt>
      <trkpt lat="45.88794" lon="4.91165">
        <ele>288</ele>
        <time>2018-03-08T12:20:36Z</time>
      </trkpt>
      <trkpt lat="45.88795" lon="4.91158">
        <ele>288</ele>
        <time>2018-03-08T12:20:37Z</time>
      </trkpt>
      <trkpt lat="45.88795" lon="4.91151">
        <ele>288</ele>
        <time>2018-03-08T12:20:38Z</time>
      </trkpt>
      <trkpt lat="45.88797" lon="4.91139">
        <ele>288</ele>
        <time>2018-03-08T12:20:40Z</time>
      </trkpt>
      <trkpt lat="45.88798" lon="4.91136">
        <ele>288</ele>
        <time>2018-03-08T12:20:41Z</time>
      </trkpt>
      <trkpt lat="45.88801" lon="4.91124">
        <ele>288</ele>
        <time>2018-03-08T12:20:46Z</time>
      </trkpt>
      <trkpt lat="45.88801" lon="4.91123">
        <ele>288</ele>
        <time>2018-03-08T12:20:47Z</time>
      </trkpt>
      <trkpt lat="45.88804" lon="4.91114">
        <ele>288</ele>
        <time>2018-03-08T12:20:55Z</time>
      </trkpt>
      <trkpt lat="45.88805" lon="4.91111">
        <ele>288</ele>
        <time>2018-03-08T12:20:56Z</time>
      </trkpt>
      <trkpt lat="45.88807" lon="4.911">
        <ele>288</ele>
        <time>2018-03-08T12:21:00Z</time>
      </trkpt>
      <trkpt lat="45.88808" lon="4.91088">
        <ele>288</ele>
        <time>2018-03-08T12:21:01Z</time>
      </trkpt>
      <trkpt lat="45.88806" lon="4.91079">
        <ele>288</ele>
        <time>2018-03-08T12:21:04Z</time>
      </trkpt>
      <trkpt lat="45.88804" lon="4.91076">
        <ele>288</ele>
        <time>2018-03-08T12:21:05Z</time>
      </trkpt>
      <trkpt lat="45.88802" lon="4.91072">
        <ele>288</ele>
        <time>2018-03-08T12:21:06Z</time>
      </trkpt>
      <trkpt lat="45.88796" lon="4.91064">
        <ele>288</ele>
        <time>2018-03-08T12:21:07Z</time>
      </trkpt>
      <trkpt lat="45.8879" lon="4.91055">
        <ele>288</ele>
        <time>2018-03-08T12:21:11Z</time>
      </trkpt>
      <trkpt lat="45.88788" lon="4.91052">
        <ele>288</ele>
        <time>2018-03-08T12:21:12Z</time>
      </trkpt>
      <trkpt lat="45.88784" lon="4.91042">
        <ele>288</ele>
        <time>2018-03-08T12:21:15Z</time>
      </trkpt>
      <trkpt lat="45.88783" lon="4.91038">
        <ele>288</ele>
        <time>2018-03-08T12:21:16Z</time>
      </trkpt>
      <trkpt lat="45.88779" lon="4.9103">
        <ele>288</ele>
        <time>2018-03-08T12:21:18Z</time>
      </trkpt>
      <trkpt lat="45.88775" lon="4.91017">
        <ele>288</ele>
        <time>2018-03-08T12:21:19Z</time>
      </trkpt>
      <trkpt lat="45.88774" lon="4.91007">
        <ele>288</ele>
        <time>2018-03-08T12:21:22Z</time>
      </trkpt>
      <trkpt lat="45.88774" lon="4.91003">
        <ele>287</ele>
        <time>2018-03-08T12:21:23Z</time>
      </trkpt>
      <trkpt lat="45.88773" lon="4.90994">
        <ele>287</ele>
        <time>2018-03-08T12:21:25Z</time>
      </trkpt>
      <trkpt lat="45.88771" lon="4.90982">
        <ele>288</ele>
        <time>2018-03-08T12:21:26Z</time>
      </trkpt>
      <trkpt lat="45.88769" lon="4.90972">
        <ele>288</ele>
        <time>2018-03-08T12:21:28Z</time>
      </trkpt>
      <trkpt lat="45.88769" lon="4.90967">
        <ele>288</ele>
        <time>2018-03-08T12:21:29Z</time>
      </trkpt>
      <trkpt lat="45.88766" lon="4.90957">
        <ele>288</ele>
        <time>2018-03-08T12:21:31Z</time>
      </trkpt>
      <trkpt lat="45.88765" lon="4.90952">
        <ele>288</ele>
        <time>2018-03-08T12:21:32Z</time>
      </trkpt>
      <trkpt lat="45.88763" lon="4.90941">
        <ele>288</ele>
        <time>2018-03-08T12:21:34Z</time>
      </trkpt>
      <trkpt lat="45.88762" lon="4.90935">
        <ele>288</ele>
        <time>2018-03-08T12:21:35Z</time>
      </trkpt>
      <trkpt lat="45.8876" lon="4.90924">
        <ele>288</ele>
        <time>2018-03-08T12:21:37Z</time>
      </trkpt>
      <trkpt lat="45.8876" lon="4.90922">
        <ele>288</ele>
        <time>2018-03-08T12:21:38Z</time>
      </trkpt>
      <trkpt lat="45.88758" lon="4.90912">
        <ele>288</ele>
        <time>2018-03-08T12:21:39Z</time>
      </trkpt>
      <trkpt lat="45.88757" lon="4.90906">
        <ele>288</ele>
        <time>2018-03-08T12:21:40Z</time>
      </trkpt>
      <trkpt lat="45.88756" lon="4.90899">
        <ele>288</ele>
        <time>2018-03-08T12:21:41Z</time>
      </trkpt>
      <trkpt lat="45.88755" lon="4.90893">
        <ele>288</ele>
        <time>2018-03-08T12:21:42Z</time>
      </trkpt>
      <trkpt lat="45.88754" lon="4.90885">
        <ele>288</ele>
        <time>2018-03-08T12:21:43Z</time>
      </trkpt>
      <trkpt lat="45.88753" lon="4.90879">
        <ele>288</ele>
        <time>2018-03-08T12:21:44Z</time>
      </trkpt>
      <trkpt lat="45.88752" lon="4.9087">
        <ele>288</ele>
        <time>2018-03-08T12:21:46Z</time>
      </trkpt>
      <trkpt lat="45.88749" lon="4.90862">
        <ele>288</ele>
        <time>2018-03-08T12:21:47Z</time>
      </trkpt>
      <trkpt lat="45.88747" lon="4.90857">
        <ele>288</ele>
        <time>2018-03-08T12:21:48Z</time>
      </trkpt>
      <trkpt lat="45.88745" lon="4.90851">
        <ele>288</ele>
        <time>2018-03-08T12:21:49Z</time>
      </trkpt>
      <trkpt lat="45.88742" lon="4.9084">
        <ele>289</ele>
        <time>2018-03-08T12:21:51Z</time>
      </trkpt>
      <trkpt lat="45.88741" lon="4.90834">
        <ele>289</ele>
        <time>2018-03-08T12:21:52Z</time>
      </trkpt>
      <trkpt lat="45.88738" lon="4.90822">
        <ele>289</ele>
        <time>2018-03-08T12:21:54Z</time>
      </trkpt>
      <trkpt lat="45.88736" lon="4.90817">
        <ele>289</ele>
        <time>2018-03-08T12:21:55Z</time>
      </trkpt>
      <trkpt lat="45.88733" lon="4.90805">
        <ele>289</ele>
        <time>2018-03-08T12:21:57Z</time>
      </trkpt>
      <trkpt lat="45.88732" lon="4.908">
        <ele>289</ele>
        <time>2018-03-08T12:21:58Z</time>
      </trkpt>
      <trkpt lat="45.8873" lon="4.90789">
        <ele>289</ele>
        <time>2018-03-08T12:22:00Z</time>
      </trkpt>
      <trkpt lat="45.88729" lon="4.90783">
        <ele>289</ele>
        <time>2018-03-08T12:22:01Z</time>
      </trkpt>
      <trkpt lat="45.88727" lon="4.90773">
        <ele>289</ele>
        <time>2018-03-08T12:22:03Z</time>
      </trkpt>
      <trkpt lat="45.88726" lon="4.90768">
        <ele>289</ele>
        <time>2018-03-08T12:22:04Z</time>
      </trkpt>
      <trkpt lat="45.88723" lon="4.90757">
        <ele>289</ele>
        <time>2018-03-08T12:22:06Z</time>
      </trkpt>
      <trkpt lat="45.88722" lon="4.90751">
        <ele>289</ele>
        <time>2018-03-08T12:22:07Z</time>
      </trkpt>
      <trkpt lat="45.88719" lon="4.9074">
        <ele>290</ele>
        <time>2018-03-08T12:22:09Z</time>
      </trkpt>
      <trkpt lat="45.88718" lon="4.90735">
        <ele>290</ele>
        <time>2018-03-08T12:22:10Z</time>
      </trkpt>
      <trkpt lat="45.88715" lon="4.90724">
        <ele>290</ele>
        <time>2018-03-08T12:22:12Z</time>
      </trkpt>
      <trkpt lat="45.88714" lon="4.90718">
        <ele>290</ele>
        <time>2018-03-08T12:22:13Z</time>
      </trkpt>
      <trkpt lat="45.88712" lon="4.90707">
        <ele>290</ele>
        <time>2018-03-08T12:22:15Z</time>
      </trkpt>
      <trkpt lat="45.88711" lon="4.90701">
        <ele>290</ele>
        <time>2018-03-08T12:22:16Z</time>
      </trkpt>
      <trkpt lat="45.8871" lon="4.90692">
        <ele>290</ele>
        <time>2018-03-08T12:22:18Z</time>
      </trkpt>
      <trkpt lat="45.88709" lon="4.90684">
        <ele>290</ele>
        <time>2018-03-08T12:22:19Z</time>
      </trkpt>
      <trkpt lat="45.88707" lon="4.90673">
        <ele>290</ele>
        <time>2018-03-08T12:22:21Z</time>
      </trkpt>
      <trkpt lat="45.88706" lon="4.90667">
        <ele>290</ele>
        <time>2018-03-08T12:22:22Z</time>
      </trkpt>
      <trkpt lat="45.88705" lon="4.90657">
        <ele>291</ele>
        <time>2018-03-08T12:22:24Z</time>
      </trkpt>
      <trkpt lat="45.88705" lon="4.90652">
        <ele>291</ele>
        <time>2018-03-08T12:22:25Z</time>
      </trkpt>
      <trkpt lat="45.88703" lon="4.90641">
        <ele>291</ele>
        <time>2018-03-08T12:22:27Z</time>
      </trkpt>
      <trkpt lat="45.88701" lon="4.90636">
        <ele>291</ele>
        <time>2018-03-08T12:22:28Z</time>
      </trkpt>
      <trkpt lat="45.887" lon="4.90625">
        <ele>291</ele>
        <time>2018-03-08T12:22:30Z</time>
      </trkpt>
      <trkpt lat="45.88699" lon="4.9062">
        <ele>292</ele>
        <time>2018-03-08T12:22:31Z</time>
      </trkpt>
      <trkpt lat="45.88698" lon="4.90608">
        <ele>292</ele>
        <time>2018-03-08T12:22:33Z</time>
      </trkpt>
      <trkpt lat="45.88697" lon="4.90602">
        <ele>292</ele>
        <time>2018-03-08T12:22:34Z</time>
      </trkpt>
      <trkpt lat="45.88694" lon="4.90591">
        <ele>292</ele>
        <time>2018-03-08T12:22:36Z</time>
      </trkpt>
      <trkpt lat="45.88693" lon="4.90585">
        <ele>292</ele>
        <time>2018-03-08T12:22:37Z</time>
      </trkpt>
      <trkpt lat="45.8869" lon="4.90575">
        <ele>293</ele>
        <time>2018-03-08T12:22:39Z</time>
      </trkpt>
      <trkpt lat="45.88688" lon="4.90569">
        <ele>293</ele>
        <time>2018-03-08T12:22:40Z</time>
      </trkpt>
      <trkpt lat="45.88687" lon="4.90558">
        <ele>293</ele>
        <time>2018-03-08T12:22:42Z</time>
      </trkpt>
      <trkpt lat="45.88686" lon="4.90552">
        <ele>293</ele>
        <time>2018-03-08T12:22:43Z</time>
      </trkpt>
      <trkpt lat="45.88683" lon="4.90539">
        <ele>293</ele>
        <time>2018-03-08T12:22:45Z</time>
      </trkpt>
      <trkpt lat="45.88682" lon="4.90534">
        <ele>293</ele>
        <time>2018-03-08T12:22:46Z</time>
      </trkpt>
      <trkpt lat="45.8868" lon="4.90523">
        <ele>293</ele>
        <time>2018-03-08T12:22:48Z</time>
      </trkpt>
      <trkpt lat="45.88679" lon="4.90518">
        <ele>293</ele>
        <time>2018-03-08T12:22:49Z</time>
      </trkpt>
      <trkpt lat="45.88677" lon="4.90507">
        <ele>293</ele>
        <time>2018-03-08T12:22:51Z</time>
      </trkpt>
      <trkpt lat="45.88676" lon="4.90501">
        <ele>293</ele>
        <time>2018-03-08T12:22:52Z</time>
      </trkpt>
      <trkpt lat="45.88675" lon="4.9049">
        <ele>293</ele>
        <time>2018-03-08T12:22:54Z</time>
      </trkpt>
      <trkpt lat="45.88673" lon="4.90485">
        <ele>293</ele>
        <time>2018-03-08T12:22:55Z</time>
      </trkpt>
      <trkpt lat="45.88671" lon="4.90475">
        <ele>293</ele>
        <time>2018-03-08T12:22:57Z</time>
      </trkpt>
      <trkpt lat="45.8867" lon="4.90469">
        <ele>293</ele>
        <time>2018-03-08T12:22:58Z</time>
      </trkpt>
      <trkpt lat="45.88668" lon="4.90458">
        <ele>293</ele>
        <time>2018-03-08T12:23:00Z</time>
      </trkpt>
      <trkpt lat="45.88668" lon="4.90453">
        <ele>293</ele>
        <time>2018-03-08T12:23:01Z</time>
      </trkpt>
      <trkpt lat="45.88667" lon="4.90442">
        <ele>293</ele>
        <time>2018-03-08T12:23:03Z</time>
      </trkpt>
      <trkpt lat="45.88666" lon="4.90437">
        <ele>293</ele>
        <time>2018-03-08T12:23:04Z</time>
      </trkpt>
      <trkpt lat="45.88665" lon="4.90425">
        <ele>293</ele>
        <time>2018-03-08T12:23:06Z</time>
      </trkpt>
      <trkpt lat="45.88665" lon="4.9042">
        <ele>293</ele>
        <time>2018-03-08T12:23:07Z</time>
      </trkpt>
      <trkpt lat="45.88664" lon="4.90408">
        <ele>293</ele>
        <time>2018-03-08T12:23:09Z</time>
      </trkpt>
      <trkpt lat="45.88663" lon="4.90402">
        <ele>293</ele>
        <time>2018-03-08T12:23:10Z</time>
      </trkpt>
      <trkpt lat="45.88663" lon="4.90391">
        <ele>293</ele>
        <time>2018-03-08T12:23:12Z</time>
      </trkpt>
      <trkpt lat="45.88663" lon="4.90385">
        <ele>293</ele>
        <time>2018-03-08T12:23:13Z</time>
      </trkpt>
      <trkpt lat="45.88663" lon="4.90373">
        <ele>293</ele>
        <time>2018-03-08T12:23:15Z</time>
      </trkpt>
      <trkpt lat="45.88663" lon="4.90368">
        <ele>293</ele>
        <time>2018-03-08T12:23:16Z</time>
      </trkpt>
      <trkpt lat="45.88663" lon="4.90356">
        <ele>293</ele>
        <time>2018-03-08T12:23:18Z</time>
      </trkpt>
      <trkpt lat="45.88663" lon="4.9035">
        <ele>293</ele>
        <time>2018-03-08T12:23:19Z</time>
      </trkpt>
      <trkpt lat="45.88662" lon="4.90337">
        <ele>293</ele>
        <time>2018-03-08T12:23:21Z</time>
      </trkpt>
      <trkpt lat="45.88662" lon="4.90331">
        <ele>293</ele>
        <time>2018-03-08T12:23:22Z</time>
      </trkpt>
      <trkpt lat="45.88662" lon="4.90319">
        <ele>293</ele>
        <time>2018-03-08T12:23:24Z</time>
      </trkpt>
      <trkpt lat="45.88662" lon="4.90313">
        <ele>293</ele>
        <time>2018-03-08T12:23:25Z</time>
      </trkpt>
      <trkpt lat="45.88661" lon="4.90301">
        <ele>293</ele>
        <time>2018-03-08T12:23:27Z</time>
      </trkpt>
      <trkpt lat="45.88661" lon="4.90295">
        <ele>293</ele>
        <time>2018-03-08T12:23:28Z</time>
      </trkpt>
      <trkpt lat="45.88661" lon="4.90282">
        <ele>293</ele>
        <time>2018-03-08T12:23:30Z</time>
      </trkpt>
      <trkpt lat="45.88662" lon="4.90276">
        <ele>293</ele>
        <time>2018-03-08T12:23:31Z</time>
      </trkpt>
      <trkpt lat="45.88662" lon="4.9027">
        <ele>293</ele>
        <time>2018-03-08T12:23:32Z</time>
      </trkpt>
      <trkpt lat="45.88662" lon="4.90263">
        <ele>293</ele>
        <time>2018-03-08T12:23:33Z</time>
      </trkpt>
      <trkpt lat="45.88663" lon="4.9025">
        <ele>293</ele>
        <time>2018-03-08T12:23:35Z</time>
      </trkpt>
      <trkpt lat="45.88663" lon="4.90244">
        <ele>293</ele>
        <time>2018-03-08T12:23:36Z</time>
      </trkpt>
      <trkpt lat="45.88663" lon="4.90236">
        <ele>293</ele>
        <time>2018-03-08T12:23:37Z</time>
      </trkpt>
      <trkpt lat="45.88663" lon="4.9023">
        <ele>294</ele>
        <time>2018-03-08T12:23:38Z</time>
      </trkpt>
      <trkpt lat="45.88663" lon="4.90224">
        <ele>294</ele>
        <time>2018-03-08T12:23:39Z</time>
      </trkpt>
      <trkpt lat="45.88663" lon="4.90217">
        <ele>294</ele>
        <time>2018-03-08T12:23:40Z</time>
      </trkpt>
      <trkpt lat="45.88664" lon="4.90209">
        <ele>294</ele>
        <time>2018-03-08T12:23:41Z</time>
      </trkpt>
      <trkpt lat="45.88664" lon="4.90202">
        <ele>294</ele>
        <time>2018-03-08T12:23:42Z</time>
      </trkpt>
      <trkpt lat="45.88664" lon="4.90194">
        <ele>294</ele>
        <time>2018-03-08T12:23:43Z</time>
      </trkpt>
      <trkpt lat="45.88663" lon="4.90187">
        <ele>294</ele>
        <time>2018-03-08T12:23:44Z</time>
      </trkpt>
      <trkpt lat="45.88662" lon="4.9018">
        <ele>294</ele>
        <time>2018-03-08T12:23:45Z</time>
      </trkpt>
      <trkpt lat="45.88662" lon="4.90173">
        <ele>294</ele>
        <time>2018-03-08T12:23:46Z</time>
      </trkpt>
      <trkpt lat="45.88663" lon="4.90166">
        <ele>294</ele>
        <time>2018-03-08T12:23:47Z</time>
      </trkpt>
      <trkpt lat="45.88662" lon="4.90159">
        <ele>294</ele>
        <time>2018-03-08T12:23:48Z</time>
      </trkpt>
      <trkpt lat="45.88662" lon="4.90152">
        <ele>294</ele>
        <time>2018-03-08T12:23:49Z</time>
      </trkpt>
      <trkpt lat="45.88661" lon="4.90145">
        <ele>294</ele>
        <time>2018-03-08T12:23:50Z</time>
      </trkpt>
      <trkpt lat="45.8866" lon="4.90138">
        <ele>294</ele>
        <time>2018-03-08T12:23:51Z</time>
      </trkpt>
      <trkpt lat="45.88659" lon="4.90132">
        <ele>294</ele>
        <time>2018-03-08T12:23:52Z</time>
      </trkpt>
      <trkpt lat="45.88658" lon="4.90126">
        <ele>294</ele>
        <time>2018-03-08T12:23:53Z</time>
      </trkpt>
      <trkpt lat="45.88657" lon="4.90119">
        <ele>295</ele>
        <time>2018-03-08T12:23:54Z</time>
      </trkpt>
      <trkpt lat="45.88656" lon="4.90112">
        <ele>294</ele>
        <time>2018-03-08T12:23:55Z</time>
      </trkpt>
      <trkpt lat="45.88655" lon="4.90105">
        <ele>294</ele>
        <time>2018-03-08T12:23:56Z</time>
      </trkpt>
      <trkpt lat="45.88654" lon="4.90092">
        <ele>294</ele>
        <time>2018-03-08T12:23:58Z</time>
      </trkpt>
      <trkpt lat="45.88654" lon="4.90086">
        <ele>294</ele>
        <time>2018-03-08T12:23:59Z</time>
      </trkpt>
      <trkpt lat="45.88653" lon="4.90076">
        <ele>294</ele>
        <time>2018-03-08T12:24:01Z</time>
      </trkpt>
      <trkpt lat="45.88652" lon="4.9007">
        <ele>295</ele>
        <time>2018-03-08T12:24:02Z</time>
      </trkpt>
      <trkpt lat="45.8865" lon="4.90058">
        <ele>295</ele>
        <time>2018-03-08T12:24:04Z</time>
      </trkpt>
      <trkpt lat="45.88649" lon="4.90052">
        <ele>295</ele>
        <time>2018-03-08T12:24:05Z</time>
      </trkpt>
      <trkpt lat="45.88647" lon="4.90042">
        <ele>295</ele>
        <time>2018-03-08T12:24:07Z</time>
      </trkpt>
      <trkpt lat="45.88646" lon="4.90036">
        <ele>295</ele>
        <time>2018-03-08T12:24:08Z</time>
      </trkpt>
      <trkpt lat="45.88644" lon="4.90025">
        <ele>295</ele>
        <time>2018-03-08T12:24:10Z</time>
      </trkpt>
      <trkpt lat="45.88643" lon="4.90019">
        <ele>295</ele>
        <time>2018-03-08T12:24:11Z</time>
      </trkpt>
      <trkpt lat="45.88641" lon="4.90008">
        <ele>295</ele>
        <time>2018-03-08T12:24:13Z</time>
      </trkpt>
      <trkpt lat="45.8864" lon="4.90003">
        <ele>295</ele>
        <time>2018-03-08T12:24:14Z</time>
      </trkpt>
      <trkpt lat="45.88638" lon="4.89992">
        <ele>295</ele>
        <time>2018-03-08T12:24:16Z</time>
      </trkpt>
      <trkpt lat="45.88637" lon="4.89986">
        <ele>295</ele>
        <time>2018-03-08T12:24:17Z</time>
      </trkpt>
      <trkpt lat="45.88634" lon="4.89976">
        <ele>295</ele>
        <time>2018-03-08T12:24:19Z</time>
      </trkpt>
      <trkpt lat="45.88633" lon="4.8997">
        <ele>295</ele>
        <time>2018-03-08T12:24:20Z</time>
      </trkpt>
      <trkpt lat="45.88631" lon="4.89959">
        <ele>295</ele>
        <time>2018-03-08T12:24:22Z</time>
      </trkpt>
      <trkpt lat="45.88629" lon="4.89954">
        <ele>295</ele>
        <time>2018-03-08T12:24:23Z</time>
      </trkpt>
      <trkpt lat="45.88626" lon="4.89943">
        <ele>295</ele>
        <time>2018-03-08T12:24:25Z</time>
      </trkpt>
      <trkpt lat="45.88625" lon="4.89938">
        <ele>295</ele>
        <time>2018-03-08T12:24:26Z</time>
      </trkpt>
      <trkpt lat="45.88623" lon="4.89926">
        <ele>295</ele>
        <time>2018-03-08T12:24:28Z</time>
      </trkpt>
      <trkpt lat="45.88622" lon="4.89921">
        <ele>295</ele>
        <time>2018-03-08T12:24:29Z</time>
      </trkpt>
      <trkpt lat="45.88617" lon="4.89911">
        <ele>296</ele>
        <time>2018-03-08T12:24:31Z</time>
      </trkpt>
      <trkpt lat="45.88613" lon="4.89907">
        <ele>296</ele>
        <time>2018-03-08T12:24:32Z</time>
      </trkpt>
      <trkpt lat="45.88605" lon="4.89905">
        <ele>296</ele>
        <time>2018-03-08T12:24:35Z</time>
      </trkpt>
      <trkpt lat="45.88602" lon="4.89906">
        <ele>296</ele>
        <time>2018-03-08T12:24:36Z</time>
      </trkpt>
      <trkpt lat="45.88595" lon="4.89908">
        <ele>296</ele>
        <time>2018-03-08T12:24:39Z</time>
      </trkpt>
      <trkpt lat="45.88592" lon="4.89909">
        <ele>296</ele>
        <time>2018-03-08T12:24:40Z</time>
      </trkpt>
      <trkpt lat="45.88585" lon="4.89912">
        <ele>297</ele>
        <time>2018-03-08T12:24:43Z</time>
      </trkpt>
      <trkpt lat="45.88582" lon="4.89912">
        <ele>297</ele>
        <time>2018-03-08T12:24:44Z</time>
      </trkpt>
      <trkpt lat="45.88575" lon="4.89913">
        <ele>298</ele>
        <time>2018-03-08T12:24:47Z</time>
      </trkpt>
      <trkpt lat="45.88572" lon="4.89913">
        <ele>298</ele>
        <time>2018-03-08T12:24:48Z</time>
      </trkpt>
      <trkpt lat="45.88565" lon="4.89915">
        <ele>298</ele>
        <time>2018-03-08T12:24:51Z</time>
      </trkpt>
      <trkpt lat="45.88563" lon="4.89916">
        <ele>298</ele>
        <time>2018-03-08T12:24:52Z</time>
      </trkpt>
      <trkpt lat="45.88556" lon="4.89919">
        <ele>299</ele>
        <time>2018-03-08T12:24:55Z</time>
      </trkpt>
      <trkpt lat="45.88554" lon="4.89919">
        <ele>299</ele>
        <time>2018-03-08T12:24:56Z</time>
      </trkpt>
      <trkpt lat="45.88547" lon="4.8992">
        <ele>299</ele>
        <time>2018-03-08T12:24:59Z</time>
      </trkpt>
      <trkpt lat="45.88545" lon="4.89921">
        <ele>299</ele>
        <time>2018-03-08T12:25:00Z</time>
      </trkpt>
      <trkpt lat="45.88537" lon="4.89922">
        <ele>300</ele>
        <time>2018-03-08T12:25:04Z</time>
      </trkpt>
      <trkpt lat="45.88535" lon="4.89923">
        <ele>300</ele>
        <time>2018-03-08T12:25:05Z</time>
      </trkpt>
      <trkpt lat="45.88527" lon="4.89925">
        <ele>300</ele>
        <time>2018-03-08T12:25:09Z</time>
      </trkpt>
      <trkpt lat="45.88525" lon="4.89925">
        <ele>300</ele>
        <time>2018-03-08T12:25:10Z</time>
      </trkpt>
      <trkpt lat="45.88517" lon="4.89927">
        <ele>301</ele>
        <time>2018-03-08T12:25:14Z</time>
      </trkpt>
      <trkpt lat="45.88515" lon="4.89927">
        <ele>301</ele>
        <time>2018-03-08T12:25:15Z</time>
      </trkpt>
      <trkpt lat="45.88506" lon="4.89926">
        <ele>302</ele>
        <time>2018-03-08T12:25:20Z</time>
      </trkpt>
      <trkpt lat="45.88505" lon="4.89926">
        <ele>302</ele>
        <time>2018-03-08T12:25:21Z</time>
      </trkpt>
      <trkpt lat="45.88497" lon="4.89929">
        <ele>303</ele>
        <time>2018-03-08T12:25:25Z</time>
      </trkpt>
      <trkpt lat="45.88495" lon="4.8993">
        <ele>303</ele>
        <time>2018-03-08T12:25:26Z</time>
      </trkpt>
      <trkpt lat="45.88487" lon="4.89934">
        <ele>303</ele>
        <time>2018-03-08T12:25:31Z</time>
      </trkpt>
      <trkpt lat="45.88485" lon="4.89935">
        <ele>303</ele>
        <time>2018-03-08T12:25:32Z</time>
      </trkpt>
      <trkpt lat="45.88478" lon="4.89937">
        <ele>303</ele>
        <time>2018-03-08T12:25:36Z</time>
      </trkpt>
      <trkpt lat="45.88476" lon="4.89937">
        <ele>303</ele>
        <time>2018-03-08T12:25:37Z</time>
      </trkpt>
      <trkpt lat="45.88468" lon="4.8994">
        <ele>303</ele>
        <time>2018-03-08T12:25:41Z</time>
      </trkpt>
      <trkpt lat="45.88465" lon="4.89941">
        <ele>303</ele>
        <time>2018-03-08T12:25:42Z</time>
      </trkpt>
      <trkpt lat="45.88457" lon="4.89945">
        <ele>303</ele>
        <time>2018-03-08T12:25:46Z</time>
      </trkpt>
      <trkpt lat="45.88455" lon="4.89945">
        <ele>303</ele>
        <time>2018-03-08T12:25:47Z</time>
      </trkpt>
      <trkpt lat="45.88446" lon="4.89949">
        <ele>303</ele>
        <time>2018-03-08T12:25:51Z</time>
      </trkpt>
      <trkpt lat="45.88444" lon="4.8995">
        <ele>303</ele>
        <time>2018-03-08T12:25:52Z</time>
      </trkpt>
      <trkpt lat="45.88437" lon="4.89953">
        <ele>303</ele>
        <time>2018-03-08T12:25:55Z</time>
      </trkpt>
      <trkpt lat="45.88435" lon="4.89955">
        <ele>303</ele>
        <time>2018-03-08T12:25:56Z</time>
      </trkpt>
      <trkpt lat="45.88428" lon="4.89959">
        <ele>303</ele>
        <time>2018-03-08T12:25:59Z</time>
      </trkpt>
      <trkpt lat="45.88425" lon="4.8996">
        <ele>303</ele>
        <time>2018-03-08T12:26:00Z</time>
      </trkpt>
      <trkpt lat="45.88418" lon="4.89964">
        <ele>303</ele>
        <time>2018-03-08T12:26:03Z</time>
      </trkpt>
      <trkpt lat="45.88416" lon="4.89965">
        <ele>304</ele>
        <time>2018-03-08T12:26:04Z</time>
      </trkpt>
      <trkpt lat="45.88408" lon="4.89969">
        <ele>304</ele>
        <time>2018-03-08T12:26:07Z</time>
      </trkpt>
      <trkpt lat="45.88406" lon="4.8997">
        <ele>304</ele>
        <time>2018-03-08T12:26:08Z</time>
      </trkpt>
      <trkpt lat="45.88399" lon="4.89973">
        <ele>304</ele>
        <time>2018-03-08T12:26:11Z</time>
      </trkpt>
      <trkpt lat="45.88397" lon="4.89974">
        <ele>304</ele>
        <time>2018-03-08T12:26:12Z</time>
      </trkpt>
      <trkpt lat="45.8839" lon="4.89978">
        <ele>304</ele>
        <time>2018-03-08T12:26:15Z</time>
      </trkpt>
      <trkpt lat="45.88388" lon="4.89979">
        <ele>304</ele>
        <time>2018-03-08T12:26:16Z</time>
      </trkpt>
      <trkpt lat="45.88381" lon="4.89984">
        <ele>304</ele>
        <time>2018-03-08T12:26:19Z</time>
      </trkpt>
      <trkpt lat="45.88379" lon="4.89985">
        <ele>304</ele>
        <time>2018-03-08T12:26:20Z</time>
      </trkpt>
      <trkpt lat="45.88371" lon="4.89989">
        <ele>304</ele>
        <time>2018-03-08T12:26:24Z</time>
      </trkpt>
      <trkpt lat="45.88369" lon="4.8999">
        <ele>304</ele>
        <time>2018-03-08T12:26:25Z</time>
      </trkpt>
      <trkpt lat="45.8836" lon="4.89994">
        <ele>304</ele>
        <time>2018-03-08T12:26:29Z</time>
      </trkpt>
      <trkpt lat="45.88358" lon="4.89995">
        <ele>304</ele>
        <time>2018-03-08T12:26:30Z</time>
      </trkpt>
      <trkpt lat="45.88351" lon="4.89998">
        <ele>305</ele>
        <time>2018-03-08T12:26:33Z</time>
      </trkpt>
      <trkpt lat="45.88349" lon="4.89999">
        <ele>305</ele>
        <time>2018-03-08T12:26:34Z</time>
      </trkpt>
      <trkpt lat="45.88341" lon="4.90003">
        <ele>305</ele>
        <time>2018-03-08T12:26:37Z</time>
      </trkpt>
      <trkpt lat="45.88339" lon="4.90004">
        <ele>305</ele>
        <time>2018-03-08T12:26:38Z</time>
      </trkpt>
      <trkpt lat="45.88336" lon="4.90006">
        <ele>305</ele>
        <time>2018-03-08T12:26:39Z</time>
      </trkpt>
      <trkpt lat="45.88327" lon="4.9001">
        <ele>305</ele>
        <time>2018-03-08T12:26:40Z</time>
      </trkpt>
      <trkpt lat="45.88319" lon="4.90012">
        <ele>305</ele>
        <time>2018-03-08T12:26:42Z</time>
      </trkpt>
      <trkpt lat="45.88315" lon="4.90014">
        <ele>305</ele>
        <time>2018-03-08T12:26:43Z</time>
      </trkpt>
      <trkpt lat="45.88308" lon="4.90017">
        <ele>305</ele>
        <time>2018-03-08T12:26:45Z</time>
      </trkpt>
      <trkpt lat="45.88304" lon="4.90019">
        <ele>305</ele>
        <time>2018-03-08T12:26:46Z</time>
      </trkpt>
      <trkpt lat="45.88297" lon="4.90023">
        <ele>305</ele>
        <time>2018-03-08T12:26:48Z</time>
      </trkpt>
      <trkpt lat="45.88293" lon="4.90026">
        <ele>305</ele>
        <time>2018-03-08T12:26:49Z</time>
      </trkpt>
      <trkpt lat="45.88287" lon="4.90031">
        <ele>305</ele>
        <time>2018-03-08T12:26:51Z</time>
      </trkpt>
      <trkpt lat="45.88283" lon="4.90034">
        <ele>305</ele>
        <time>2018-03-08T12:26:52Z</time>
      </trkpt>
      <trkpt lat="45.88277" lon="4.90041">
        <ele>305</ele>
        <time>2018-03-08T12:26:54Z</time>
      </trkpt>
      <trkpt lat="45.88273" lon="4.90044">
        <ele>305</ele>
        <time>2018-03-08T12:26:55Z</time>
      </trkpt>
      <trkpt lat="45.88266" lon="4.9005">
        <ele>305</ele>
        <time>2018-03-08T12:26:57Z</time>
      </trkpt>
      <trkpt lat="45.88262" lon="4.90052">
        <ele>305</ele>
        <time>2018-03-08T12:26:58Z</time>
      </trkpt>
      <trkpt lat="45.88254" lon="4.90052">
        <ele>305</ele>
        <time>2018-03-08T12:27:00Z</time>
      </trkpt>
      <trkpt lat="45.8825" lon="4.90051">
        <ele>305</ele>
        <time>2018-03-08T12:27:01Z</time>
      </trkpt>
      <trkpt lat="45.88242" lon="4.90046">
        <ele>304</ele>
        <time>2018-03-08T12:27:03Z</time>
      </trkpt>
      <trkpt lat="45.88239" lon="4.90042">
        <ele>303</ele>
        <time>2018-03-08T12:27:04Z</time>
      </trkpt>
      <trkpt lat="45.88234" lon="4.90032">
        <ele>303</ele>
        <time>2018-03-08T12:27:06Z</time>
      </trkpt>
      <trkpt lat="45.88232" lon="4.90026">
        <ele>303</ele>
        <time>2018-03-08T12:27:07Z</time>
      </trkpt>
      <trkpt lat="45.88227" lon="4.90016">
        <ele>303</ele>
        <time>2018-03-08T12:27:09Z</time>
      </trkpt>
      <trkpt lat="45.88224" lon="4.90012">
        <ele>303</ele>
        <time>2018-03-08T12:27:10Z</time>
      </trkpt>
      <trkpt lat="45.88217" lon="4.90005">
        <ele>303</ele>
        <time>2018-03-08T12:27:12Z</time>
      </trkpt>
      <trkpt lat="45.88214" lon="4.90002">
        <ele>303</ele>
        <time>2018-03-08T12:27:13Z</time>
      </trkpt>
      <trkpt lat="45.88207" lon="4.89997">
        <ele>302</ele>
        <time>2018-03-08T12:27:15Z</time>
      </trkpt>
      <trkpt lat="45.88204" lon="4.89992">
        <ele>302</ele>
        <time>2018-03-08T12:27:16Z</time>
      </trkpt>
      <trkpt lat="45.88199" lon="4.89982">
        <ele>301</ele>
        <time>2018-03-08T12:27:18Z</time>
      </trkpt>
      <trkpt lat="45.88199" lon="4.89975">
        <ele>301</ele>
        <time>2018-03-08T12:27:19Z</time>
      </trkpt>
      <trkpt lat="45.88198" lon="4.89969">
        <ele>301</ele>
        <time>2018-03-08T12:27:20Z</time>
      </trkpt>
      <trkpt lat="45.88197" lon="4.89962">
        <ele>301</ele>
        <time>2018-03-08T12:27:21Z</time>
      </trkpt>
      <trkpt lat="45.88196" lon="4.89956">
        <ele>301</ele>
        <time>2018-03-08T12:27:22Z</time>
      </trkpt>
      <trkpt lat="45.88196" lon="4.89949">
        <ele>301</ele>
        <time>2018-03-08T12:27:23Z</time>
      </trkpt>
      <trkpt lat="45.88197" lon="4.89942">
        <ele>301</ele>
        <time>2018-03-08T12:27:24Z</time>
      </trkpt>
      <trkpt lat="45.88196" lon="4.89935">
        <ele>301</ele>
        <time>2018-03-08T12:27:25Z</time>
      </trkpt>
      <trkpt lat="45.88196" lon="4.89928">
        <ele>301</ele>
        <time>2018-03-08T12:27:26Z</time>
      </trkpt>
      <trkpt lat="45.88196" lon="4.89921">
        <ele>301</ele>
        <time>2018-03-08T12:27:27Z</time>
      </trkpt>
      <trkpt lat="45.88196" lon="4.89914">
        <ele>301</ele>
        <time>2018-03-08T12:27:28Z</time>
      </trkpt>
      <trkpt lat="45.88196" lon="4.89908">
        <ele>301</ele>
        <time>2018-03-08T12:27:29Z</time>
      </trkpt>
      <trkpt lat="45.88196" lon="4.89901">
        <ele>301</ele>
        <time>2018-03-08T12:27:30Z</time>
      </trkpt>
      <trkpt lat="45.88196" lon="4.89893">
        <ele>301</ele>
        <time>2018-03-08T12:27:31Z</time>
      </trkpt>
      <trkpt lat="45.88197" lon="4.89886">
        <ele>301</ele>
        <time>2018-03-08T12:27:32Z</time>
      </trkpt>
      <trkpt lat="45.88197" lon="4.89878">
        <ele>301</ele>
        <time>2018-03-08T12:27:33Z</time>
      </trkpt>
      <trkpt lat="45.88197" lon="4.89871">
        <ele>301</ele>
        <time>2018-03-08T12:27:34Z</time>
      </trkpt>
      <trkpt lat="45.88197" lon="4.89863">
        <ele>301</ele>
        <time>2018-03-08T12:27:35Z</time>
      </trkpt>
      <trkpt lat="45.88197" lon="4.89857">
        <ele>301</ele>
        <time>2018-03-08T12:27:36Z</time>
      </trkpt>
      <trkpt lat="45.88197" lon="4.8985">
        <ele>301</ele>
        <time>2018-03-08T12:27:37Z</time>
      </trkpt>
      <trkpt lat="45.88197" lon="4.89843">
        <ele>301</ele>
        <time>2018-03-08T12:27:38Z</time>
      </trkpt>
      <trkpt lat="45.88198" lon="4.89835">
        <ele>301</ele>
        <time>2018-03-08T12:27:39Z</time>
      </trkpt>
      <trkpt lat="45.88199" lon="4.89828">
        <ele>300</ele>
        <time>2018-03-08T12:27:40Z</time>
      </trkpt>
      <trkpt lat="45.88199" lon="4.89821">
        <ele>300</ele>
        <time>2018-03-08T12:27:41Z</time>
      </trkpt>
      <trkpt lat="45.882" lon="4.89814">
        <ele>300</ele>
        <time>2018-03-08T12:27:42Z</time>
      </trkpt>
      <trkpt lat="45.882" lon="4.89807">
        <ele>300</ele>
        <time>2018-03-08T12:27:43Z</time>
      </trkpt>
      <trkpt lat="45.882" lon="4.89795">
        <ele>300</ele>
        <time>2018-03-08T12:27:45Z</time>
      </trkpt>
      <trkpt lat="45.882" lon="4.89788">
        <ele>300</ele>
        <time>2018-03-08T12:27:46Z</time>
      </trkpt>
      <trkpt lat="45.882" lon="4.89781">
        <ele>300</ele>
        <time>2018-03-08T12:27:47Z</time>
      </trkpt>
      <trkpt lat="45.882" lon="4.89774">
        <ele>300</ele>
        <time>2018-03-08T12:27:48Z</time>
      </trkpt>
      <trkpt lat="45.882" lon="4.89768">
        <ele>300</ele>
        <time>2018-03-08T12:27:49Z</time>
      </trkpt>
      <trkpt lat="45.88199" lon="4.8976">
        <ele>300</ele>
        <time>2018-03-08T12:27:50Z</time>
      </trkpt>
      <trkpt lat="45.882" lon="4.89754">
        <ele>300</ele>
        <time>2018-03-08T12:27:51Z</time>
      </trkpt>
      <trkpt lat="45.88199" lon="4.89747">
        <ele>299</ele>
        <time>2018-03-08T12:27:52Z</time>
      </trkpt>
      <trkpt lat="45.88199" lon="4.89735">
        <ele>299</ele>
        <time>2018-03-08T12:27:54Z</time>
      </trkpt>
      <trkpt lat="45.882" lon="4.89727">
        <ele>299</ele>
        <time>2018-03-08T12:27:55Z</time>
      </trkpt>
      <trkpt lat="45.88201" lon="4.8972">
        <ele>299</ele>
        <time>2018-03-08T12:27:56Z</time>
      </trkpt>
      <trkpt lat="45.88202" lon="4.89713">
        <ele>299</ele>
        <time>2018-03-08T12:27:57Z</time>
      </trkpt>
      <trkpt lat="45.88201" lon="4.897">
        <ele>299</ele>
        <time>2018-03-08T12:27:59Z</time>
      </trkpt>
      <trkpt lat="45.88201" lon="4.89693">
        <ele>299</ele>
        <time>2018-03-08T12:28:00Z</time>
      </trkpt>
      <trkpt lat="45.88201" lon="4.89686">
        <ele>299</ele>
        <time>2018-03-08T12:28:01Z</time>
      </trkpt>
      <trkpt lat="45.88202" lon="4.89679">
        <ele>299</ele>
        <time>2018-03-08T12:28:02Z</time>
      </trkpt>
      <trkpt lat="45.88202" lon="4.89673">
        <ele>299</ele>
        <time>2018-03-08T12:28:03Z</time>
      </trkpt>
      <trkpt lat="45.88201" lon="4.89666">
        <ele>299</ele>
        <time>2018-03-08T12:28:04Z</time>
      </trkpt>
      <trkpt lat="45.88202" lon="4.89659">
        <ele>299</ele>
        <time>2018-03-08T12:28:05Z</time>
      </trkpt>
      <trkpt lat="45.88202" lon="4.89652">
        <ele>299</ele>
        <time>2018-03-08T12:28:06Z</time>
      </trkpt>
      <trkpt lat="45.88202" lon="4.89645">
        <ele>299</ele>
        <time>2018-03-08T12:28:07Z</time>
      </trkpt>
      <trkpt lat="45.88202" lon="4.89637">
        <ele>299</ele>
        <time>2018-03-08T12:28:08Z</time>
      </trkpt>
      <trkpt lat="45.88202" lon="4.89629">
        <ele>299</ele>
        <time>2018-03-08T12:28:09Z</time>
      </trkpt>
      <trkpt lat="45.88202" lon="4.89621">
        <ele>299</ele>
        <time>2018-03-08T12:28:10Z</time>
      </trkpt>
      <trkpt lat="45.88202" lon="4.89613">
        <ele>299</ele>
        <time>2018-03-08T12:28:11Z</time>
      </trkpt>
      <trkpt lat="45.88202" lon="4.89605">
        <ele>299</ele>
        <time>2018-03-08T12:28:12Z</time>
      </trkpt>
      <trkpt lat="45.88203" lon="4.89595">
        <ele>299</ele>
        <time>2018-03-08T12:28:13Z</time>
      </trkpt>
      <trkpt lat="45.88203" lon="4.89586">
        <ele>299</ele>
        <time>2018-03-08T12:28:14Z</time>
      </trkpt>
      <trkpt lat="45.88203" lon="4.89577">
        <ele>298</ele>
        <time>2018-03-08T12:28:15Z</time>
      </trkpt>
      <trkpt lat="45.88203" lon="4.89568">
        <ele>298</ele>
        <time>2018-03-08T12:28:16Z</time>
      </trkpt>
      <trkpt lat="45.88203" lon="4.89558">
        <ele>298</ele>
        <time>2018-03-08T12:28:17Z</time>
      </trkpt>
      <trkpt lat="45.88203" lon="4.89549">
        <ele>298</ele>
        <time>2018-03-08T12:28:18Z</time>
      </trkpt>
      <trkpt lat="45.88203" lon="4.89539">
        <ele>298</ele>
        <time>2018-03-08T12:28:19Z</time>
      </trkpt>
      <trkpt lat="45.88203" lon="4.89528">
        <ele>298</ele>
        <time>2018-03-08T12:28:20Z</time>
      </trkpt>
      <trkpt lat="45.88203" lon="4.89519">
        <ele>298</ele>
        <time>2018-03-08T12:28:21Z</time>
      </trkpt>
      <trkpt lat="45.88202" lon="4.89508">
        <ele>298</ele>
        <time>2018-03-08T12:28:22Z</time>
      </trkpt>
      <trkpt lat="45.88202" lon="4.89497">
        <ele>297</ele>
        <time>2018-03-08T12:28:23Z</time>
      </trkpt>
      <trkpt lat="45.88202" lon="4.89485">
        <ele>297</ele>
        <time>2018-03-08T12:28:24Z</time>
      </trkpt>
      <trkpt lat="45.88203" lon="4.89474">
        <ele>297</ele>
        <time>2018-03-08T12:28:25Z</time>
      </trkpt>
      <trkpt lat="45.88204" lon="4.89462">
        <ele>297</ele>
        <time>2018-03-08T12:28:26Z</time>
      </trkpt>
      <trkpt lat="45.88204" lon="4.8945">
        <ele>297</ele>
        <time>2018-03-08T12:28:27Z</time>
      </trkpt>
      <trkpt lat="45.88204" lon="4.8944">
        <ele>297</ele>
        <time>2018-03-08T12:28:28Z</time>
      </trkpt>
      <trkpt lat="45.88204" lon="4.89429">
        <ele>297</ele>
        <time>2018-03-08T12:28:29Z</time>
      </trkpt>
      <trkpt lat="45.88205" lon="4.89417">
        <ele>297</ele>
        <time>2018-03-08T12:28:30Z</time>
      </trkpt>
      <trkpt lat="45.88205" lon="4.89406">
        <ele>297</ele>
        <time>2018-03-08T12:28:31Z</time>
      </trkpt>
      <trkpt lat="45.88205" lon="4.89395">
        <ele>297</ele>
        <time>2018-03-08T12:28:32Z</time>
      </trkpt>
      <trkpt lat="45.88207" lon="4.89385">
        <ele>297</ele>
        <time>2018-03-08T12:28:33Z</time>
      </trkpt>
      <trkpt lat="45.88207" lon="4.89375">
        <ele>297</ele>
        <time>2018-03-08T12:28:34Z</time>
      </trkpt>
      <trkpt lat="45.88207" lon="4.89365">
        <ele>297</ele>
        <time>2018-03-08T12:28:35Z</time>
      </trkpt>
      <trkpt lat="45.88208" lon="4.89356">
        <ele>297</ele>
        <time>2018-03-08T12:28:36Z</time>
      </trkpt>
      <trkpt lat="45.88209" lon="4.89347">
        <ele>297</ele>
        <time>2018-03-08T12:28:37Z</time>
      </trkpt>
      <trkpt lat="45.8821" lon="4.89338">
        <ele>297</ele>
        <time>2018-03-08T12:28:38Z</time>
      </trkpt>
      <trkpt lat="45.8821" lon="4.8933">
        <ele>297</ele>
        <time>2018-03-08T12:28:39Z</time>
      </trkpt>
      <trkpt lat="45.88211" lon="4.89321">
        <ele>297</ele>
        <time>2018-03-08T12:28:40Z</time>
      </trkpt>
      <trkpt lat="45.88212" lon="4.89313">
        <ele>297</ele>
        <time>2018-03-08T12:28:41Z</time>
      </trkpt>
      <trkpt lat="45.88212" lon="4.89305">
        <ele>297</ele>
        <time>2018-03-08T12:28:42Z</time>
      </trkpt>
      <trkpt lat="45.88213" lon="4.89295">
        <ele>297</ele>
        <time>2018-03-08T12:28:43Z</time>
      </trkpt>
      <trkpt lat="45.88213" lon="4.89287">
        <ele>297</ele>
        <time>2018-03-08T12:28:44Z</time>
      </trkpt>
      <trkpt lat="45.88212" lon="4.89278">
        <ele>297</ele>
        <time>2018-03-08T12:28:45Z</time>
      </trkpt>
      <trkpt lat="45.88213" lon="4.89269">
        <ele>297</ele>
        <time>2018-03-08T12:28:46Z</time>
      </trkpt>
      <trkpt lat="45.88213" lon="4.89259">
        <ele>297</ele>
        <time>2018-03-08T12:28:47Z</time>
      </trkpt>
      <trkpt lat="45.88214" lon="4.89249">
        <ele>296</ele>
        <time>2018-03-08T12:28:48Z</time>
      </trkpt>
      <trkpt lat="45.88215" lon="4.8924">
        <ele>296</ele>
        <time>2018-03-08T12:28:49Z</time>
      </trkpt>
      <trkpt lat="45.88215" lon="4.89231">
        <ele>296</ele>
        <time>2018-03-08T12:28:50Z</time>
      </trkpt>
      <trkpt lat="45.88216" lon="4.89221">
        <ele>296</ele>
        <time>2018-03-08T12:28:51Z</time>
      </trkpt>
      <trkpt lat="45.88216" lon="4.89212">
        <ele>296</ele>
        <time>2018-03-08T12:28:52Z</time>
      </trkpt>
      <trkpt lat="45.88217" lon="4.89202">
        <ele>296</ele>
        <time>2018-03-08T12:28:53Z</time>
      </trkpt>
      <trkpt lat="45.88217" lon="4.89193">
        <ele>296</ele>
        <time>2018-03-08T12:28:54Z</time>
      </trkpt>
      <trkpt lat="45.88217" lon="4.89184">
        <ele>296</ele>
        <time>2018-03-08T12:28:55Z</time>
      </trkpt>
      <trkpt lat="45.88218" lon="4.89175">
        <ele>296</ele>
        <time>2018-03-08T12:28:56Z</time>
      </trkpt>
      <trkpt lat="45.88219" lon="4.89166">
        <ele>295</ele>
        <time>2018-03-08T12:28:57Z</time>
      </trkpt>
      <trkpt lat="45.88219" lon="4.89156">
        <ele>295</ele>
        <time>2018-03-08T12:28:58Z</time>
      </trkpt>
      <trkpt lat="45.8822" lon="4.89147">
        <ele>295</ele>
        <time>2018-03-08T12:28:59Z</time>
      </trkpt>
      <trkpt lat="45.88221" lon="4.89138">
        <ele>295</ele>
        <time>2018-03-08T12:29:00Z</time>
      </trkpt>
      <trkpt lat="45.88221" lon="4.89129">
        <ele>294</ele>
        <time>2018-03-08T12:29:01Z</time>
      </trkpt>
      <trkpt lat="45.88222" lon="4.8912">
        <ele>294</ele>
        <time>2018-03-08T12:29:02Z</time>
      </trkpt>
      <trkpt lat="45.88222" lon="4.89111">
        <ele>294</ele>
        <time>2018-03-08T12:29:03Z</time>
      </trkpt>
      <trkpt lat="45.88223" lon="4.89102">
        <ele>294</ele>
        <time>2018-03-08T12:29:04Z</time>
      </trkpt>
      <trkpt lat="45.88225" lon="4.89094">
        <ele>294</ele>
        <time>2018-03-08T12:29:05Z</time>
      </trkpt>
      <trkpt lat="45.88225" lon="4.89085">
        <ele>294</ele>
        <time>2018-03-08T12:29:06Z</time>
      </trkpt>
      <trkpt lat="45.88226" lon="4.89077">
        <ele>294</ele>
        <time>2018-03-08T12:29:07Z</time>
      </trkpt>
      <trkpt lat="45.88227" lon="4.89069">
        <ele>293</ele>
        <time>2018-03-08T12:29:08Z</time>
      </trkpt>
      <trkpt lat="45.88227" lon="4.8906">
        <ele>293</ele>
        <time>2018-03-08T12:29:09Z</time>
      </trkpt>
      <trkpt lat="45.88228" lon="4.89051">
        <ele>293</ele>
        <time>2018-03-08T12:29:10Z</time>
      </trkpt>
      <trkpt lat="45.88228" lon="4.89043">
        <ele>293</ele>
        <time>2018-03-08T12:29:11Z</time>
      </trkpt>
      <trkpt lat="45.88229" lon="4.89034">
        <ele>293</ele>
        <time>2018-03-08T12:29:12Z</time>
      </trkpt>
      <trkpt lat="45.8823" lon="4.89025">
        <ele>293</ele>
        <time>2018-03-08T12:29:13Z</time>
      </trkpt>
      <trkpt lat="45.88231" lon="4.89017">
        <ele>293</ele>
        <time>2018-03-08T12:29:14Z</time>
      </trkpt>
      <trkpt lat="45.88232" lon="4.89009">
        <ele>293</ele>
        <time>2018-03-08T12:29:15Z</time>
      </trkpt>
      <trkpt lat="45.88233" lon="4.89001">
        <ele>293</ele>
        <time>2018-03-08T12:29:16Z</time>
      </trkpt>
      <trkpt lat="45.88234" lon="4.88992">
        <ele>293</ele>
        <time>2018-03-08T12:29:17Z</time>
      </trkpt>
      <trkpt lat="45.88234" lon="4.88984">
        <ele>293</ele>
        <time>2018-03-08T12:29:18Z</time>
      </trkpt>
      <trkpt lat="45.88235" lon="4.88976">
        <ele>293</ele>
        <time>2018-03-08T12:29:19Z</time>
      </trkpt>
      <trkpt lat="45.88236" lon="4.88968">
        <ele>293</ele>
        <time>2018-03-08T12:29:20Z</time>
      </trkpt>
      <trkpt lat="45.88236" lon="4.88959">
        <ele>293</ele>
        <time>2018-03-08T12:29:21Z</time>
      </trkpt>
      <trkpt lat="45.88237" lon="4.8895">
        <ele>293</ele>
        <time>2018-03-08T12:29:22Z</time>
      </trkpt>
      <trkpt lat="45.88237" lon="4.88942">
        <ele>293</ele>
        <time>2018-03-08T12:29:23Z</time>
      </trkpt>
      <trkpt lat="45.88238" lon="4.88933">
        <ele>292</ele>
        <time>2018-03-08T12:29:24Z</time>
      </trkpt>
      <trkpt lat="45.88239" lon="4.88923">
        <ele>292</ele>
        <time>2018-03-08T12:29:25Z</time>
      </trkpt>
      <trkpt lat="45.88239" lon="4.88915">
        <ele>293</ele>
        <time>2018-03-08T12:29:26Z</time>
      </trkpt>
      <trkpt lat="45.8824" lon="4.88906">
        <ele>293</ele>
        <time>2018-03-08T12:29:27Z</time>
      </trkpt>
      <trkpt lat="45.88241" lon="4.88897">
        <ele>293</ele>
        <time>2018-03-08T12:29:28Z</time>
      </trkpt>
      <trkpt lat="45.88241" lon="4.88889">
        <ele>293</ele>
        <time>2018-03-08T12:29:29Z</time>
      </trkpt>
      <trkpt lat="45.88243" lon="4.88882">
        <ele>293</ele>
        <time>2018-03-08T12:29:30Z</time>
      </trkpt>
      <trkpt lat="45.88244" lon="4.88874">
        <ele>293</ele>
        <time>2018-03-08T12:29:31Z</time>
      </trkpt>
      <trkpt lat="45.88244" lon="4.88865">
        <ele>293</ele>
        <time>2018-03-08T12:29:32Z</time>
      </trkpt>
      <trkpt lat="45.88245" lon="4.88856">
        <ele>294</ele>
        <time>2018-03-08T12:29:33Z</time>
      </trkpt>
      <trkpt lat="45.88245" lon="4.88847">
        <ele>294</ele>
        <time>2018-03-08T12:29:34Z</time>
      </trkpt>
      <trkpt lat="45.88245" lon="4.88839">
        <ele>294</ele>
        <time>2018-03-08T12:29:35Z</time>
      </trkpt>
      <trkpt lat="45.88246" lon="4.8883">
        <ele>294</ele>
        <time>2018-03-08T12:29:36Z</time>
      </trkpt>
      <trkpt lat="45.88246" lon="4.88822">
        <ele>294</ele>
        <time>2018-03-08T12:29:37Z</time>
      </trkpt>
      <trkpt lat="45.88247" lon="4.88814">
        <ele>294</ele>
        <time>2018-03-08T12:29:38Z</time>
      </trkpt>
      <trkpt lat="45.88248" lon="4.88806">
        <ele>294</ele>
        <time>2018-03-08T12:29:39Z</time>
      </trkpt>
      <trkpt lat="45.88249" lon="4.88798">
        <ele>294</ele>
        <time>2018-03-08T12:29:40Z</time>
      </trkpt>
      <trkpt lat="45.88249" lon="4.88791">
        <ele>294</ele>
        <time>2018-03-08T12:29:41Z</time>
      </trkpt>
      <trkpt lat="45.8825" lon="4.88782">
        <ele>294</ele>
        <time>2018-03-08T12:29:42Z</time>
      </trkpt>
      <trkpt lat="45.88251" lon="4.88773">
        <ele>294</ele>
        <time>2018-03-08T12:29:43Z</time>
      </trkpt>
      <trkpt lat="45.88251" lon="4.88765">
        <ele>294</ele>
        <time>2018-03-08T12:29:44Z</time>
      </trkpt>
      <trkpt lat="45.88251" lon="4.88758">
        <ele>294</ele>
        <time>2018-03-08T12:29:45Z</time>
      </trkpt>
      <trkpt lat="45.88251" lon="4.8875">
        <ele>294</ele>
        <time>2018-03-08T12:29:46Z</time>
      </trkpt>
      <trkpt lat="45.88252" lon="4.88742">
        <ele>294</ele>
        <time>2018-03-08T12:29:47Z</time>
      </trkpt>
      <trkpt lat="45.88253" lon="4.88735">
        <ele>294</ele>
        <time>2018-03-08T12:29:48Z</time>
      </trkpt>
      <trkpt lat="45.88253" lon="4.88727">
        <ele>294</ele>
        <time>2018-03-08T12:29:49Z</time>
      </trkpt>
      <trkpt lat="45.88254" lon="4.8872">
        <ele>294</ele>
        <time>2018-03-08T12:29:50Z</time>
      </trkpt>
      <trkpt lat="45.88255" lon="4.88712">
        <ele>294</ele>
        <time>2018-03-08T12:29:51Z</time>
      </trkpt>
      <trkpt lat="45.88255" lon="4.88704">
        <ele>294</ele>
        <time>2018-03-08T12:29:52Z</time>
      </trkpt>
      <trkpt lat="45.88256" lon="4.88695">
        <ele>294</ele>
        <time>2018-03-08T12:29:53Z</time>
      </trkpt>
      <trkpt lat="45.88256" lon="4.88686">
        <ele>294</ele>
        <time>2018-03-08T12:29:54Z</time>
      </trkpt>
      <trkpt lat="45.88257" lon="4.88679">
        <ele>294</ele>
        <time>2018-03-08T12:29:55Z</time>
      </trkpt>
      <trkpt lat="45.88257" lon="4.88672">
        <ele>295</ele>
        <time>2018-03-08T12:29:56Z</time>
      </trkpt>
      <trkpt lat="45.88257" lon="4.88664">
        <ele>295</ele>
        <time>2018-03-08T12:29:57Z</time>
      </trkpt>
      <trkpt lat="45.88258" lon="4.88656">
        <ele>295</ele>
        <time>2018-03-08T12:29:58Z</time>
      </trkpt>
      <trkpt lat="45.88258" lon="4.88649">
        <ele>294</ele>
        <time>2018-03-08T12:29:59Z</time>
      </trkpt>
      <trkpt lat="45.88258" lon="4.88642">
        <ele>294</ele>
        <time>2018-03-08T12:30:00Z</time>
      </trkpt>
      <trkpt lat="45.88259" lon="4.88635">
        <ele>294</ele>
        <time>2018-03-08T12:30:01Z</time>
      </trkpt>
      <trkpt lat="45.88259" lon="4.88628">
        <ele>294</ele>
        <time>2018-03-08T12:30:02Z</time>
      </trkpt>
      <trkpt lat="45.8826" lon="4.8862">
        <ele>294</ele>
        <time>2018-03-08T12:30:03Z</time>
      </trkpt>
      <trkpt lat="45.8826" lon="4.88613">
        <ele>294</ele>
        <time>2018-03-08T12:30:04Z</time>
      </trkpt>
      <trkpt lat="45.88261" lon="4.88606">
        <ele>294</ele>
        <time>2018-03-08T12:30:05Z</time>
      </trkpt>
      <trkpt lat="45.88262" lon="4.88598">
        <ele>294</ele>
        <time>2018-03-08T12:30:06Z</time>
      </trkpt>
      <trkpt lat="45.88262" lon="4.8859">
        <ele>295</ele>
        <time>2018-03-08T12:30:07Z</time>
      </trkpt>
      <trkpt lat="45.88263" lon="4.88582">
        <ele>295</ele>
        <time>2018-03-08T12:30:08Z</time>
      </trkpt>
      <trkpt lat="45.88263" lon="4.88575">
        <ele>295</ele>
        <time>2018-03-08T12:30:09Z</time>
      </trkpt>
      <trkpt lat="45.88264" lon="4.88568">
        <ele>295</ele>
        <time>2018-03-08T12:30:10Z</time>
      </trkpt>
      <trkpt lat="45.88265" lon="4.8856">
        <ele>295</ele>
        <time>2018-03-08T12:30:11Z</time>
      </trkpt>
      <trkpt lat="45.88265" lon="4.88553">
        <ele>294</ele>
        <time>2018-03-08T12:30:12Z</time>
      </trkpt>
      <trkpt lat="45.88266" lon="4.8854">
        <ele>294</ele>
        <time>2018-03-08T12:30:14Z</time>
      </trkpt>
      <trkpt lat="45.88267" lon="4.88533">
        <ele>294</ele>
        <time>2018-03-08T12:30:15Z</time>
      </trkpt>
      <trkpt lat="45.88267" lon="4.88525">
        <ele>295</ele>
        <time>2018-03-08T12:30:16Z</time>
      </trkpt>
      <trkpt lat="45.88268" lon="4.8852">
        <ele>295</ele>
        <time>2018-03-08T12:30:17Z</time>
      </trkpt>
      <trkpt lat="45.88269" lon="4.88513">
        <ele>295</ele>
        <time>2018-03-08T12:30:18Z</time>
      </trkpt>
      <trkpt lat="45.88268" lon="4.88506">
        <ele>295</ele>
        <time>2018-03-08T12:30:19Z</time>
      </trkpt>
      <trkpt lat="45.88269" lon="4.88493">
        <ele>295</ele>
        <time>2018-03-08T12:30:21Z</time>
      </trkpt>
      <trkpt lat="45.8827" lon="4.88487">
        <ele>295</ele>
        <time>2018-03-08T12:30:22Z</time>
      </trkpt>
      <trkpt lat="45.8827" lon="4.8848">
        <ele>295</ele>
        <time>2018-03-08T12:30:23Z</time>
      </trkpt>
      <trkpt lat="45.88271" lon="4.88473">
        <ele>295</ele>
        <time>2018-03-08T12:30:24Z</time>
      </trkpt>
      <trkpt lat="45.88271" lon="4.88461">
        <ele>295</ele>
        <time>2018-03-08T12:30:26Z</time>
      </trkpt>
      <trkpt lat="45.88272" lon="4.88455">
        <ele>295</ele>
        <time>2018-03-08T12:30:27Z</time>
      </trkpt>
      <trkpt lat="45.88272" lon="4.88443">
        <ele>295</ele>
        <time>2018-03-08T12:30:29Z</time>
      </trkpt>
      <trkpt lat="45.88272" lon="4.88437">
        <ele>295</ele>
        <time>2018-03-08T12:30:30Z</time>
      </trkpt>
      <trkpt lat="45.88272" lon="4.88425">
        <ele>295</ele>
        <time>2018-03-08T12:30:32Z</time>
      </trkpt>
      <trkpt lat="45.88271" lon="4.88419">
        <ele>295</ele>
        <time>2018-03-08T12:30:33Z</time>
      </trkpt>
      <trkpt lat="45.88272" lon="4.88407">
        <ele>296</ele>
        <time>2018-03-08T12:30:35Z</time>
      </trkpt>
      <trkpt lat="45.88272" lon="4.88401">
        <ele>296</ele>
        <time>2018-03-08T12:30:36Z</time>
      </trkpt>
      <trkpt lat="45.88273" lon="4.8839">
        <ele>296</ele>
        <time>2018-03-08T12:30:38Z</time>
      </trkpt>
      <trkpt lat="45.88274" lon="4.88384">
        <ele>296</ele>
        <time>2018-03-08T12:30:39Z</time>
      </trkpt>
      <trkpt lat="45.88279" lon="4.88375">
        <ele>296</ele>
        <time>2018-03-08T12:30:41Z</time>
      </trkpt>
      <trkpt lat="45.88282" lon="4.8837">
        <ele>296</ele>
        <time>2018-03-08T12:30:42Z</time>
      </trkpt>
      <trkpt lat="45.88288" lon="4.88361">
        <ele>296</ele>
        <time>2018-03-08T12:30:44Z</time>
      </trkpt>
      <trkpt lat="45.8829" lon="4.88356">
        <ele>296</ele>
        <time>2018-03-08T12:30:45Z</time>
      </trkpt>
      <trkpt lat="45.88293" lon="4.88344">
        <ele>296</ele>
        <time>2018-03-08T12:30:47Z</time>
      </trkpt>
      <trkpt lat="45.88293" lon="4.88338">
        <ele>296</ele>
        <time>2018-03-08T12:30:48Z</time>
      </trkpt>
      <trkpt lat="45.88289" lon="4.88332">
        <ele>296</ele>
        <time>2018-03-08T12:30:49Z</time>
      </trkpt>
      <trkpt lat="45.88287" lon="4.88326">
        <ele>296</ele>
        <time>2018-03-08T12:30:50Z</time>
      </trkpt>
      <trkpt lat="45.88282" lon="4.88317">
        <ele>296</ele>
        <time>2018-03-08T12:30:52Z</time>
      </trkpt>
      <trkpt lat="45.8828" lon="4.88312">
        <ele>296</ele>
        <time>2018-03-08T12:30:53Z</time>
      </trkpt>
      <trkpt lat="45.88277" lon="4.88302">
        <ele>296</ele>
        <time>2018-03-08T12:30:55Z</time>
      </trkpt>
      <trkpt lat="45.88277" lon="4.88296">
        <ele>296</ele>
        <time>2018-03-08T12:30:56Z</time>
      </trkpt>
      <trkpt lat="45.88276" lon="4.8829">
        <ele>296</ele>
        <time>2018-03-08T12:30:57Z</time>
      </trkpt>
      <trkpt lat="45.88277" lon="4.88283">
        <ele>296</ele>
        <time>2018-03-08T12:30:58Z</time>
      </trkpt>
      <trkpt lat="45.88278" lon="4.88272">
        <ele>296</ele>
        <time>2018-03-08T12:31:00Z</time>
      </trkpt>
      <trkpt lat="45.88278" lon="4.88266">
        <ele>296</ele>
        <time>2018-03-08T12:31:01Z</time>
      </trkpt>
      <trkpt lat="45.88278" lon="4.88255">
        <ele>296</ele>
        <time>2018-03-08T12:31:03Z</time>
      </trkpt>
      <trkpt lat="45.88279" lon="4.88249">
        <ele>296</ele>
        <time>2018-03-08T12:31:04Z</time>
      </trkpt>
      <trkpt lat="45.8828" lon="4.88239">
        <ele>296</ele>
        <time>2018-03-08T12:31:06Z</time>
      </trkpt>
      <trkpt lat="45.8828" lon="4.88234">
        <ele>296</ele>
        <time>2018-03-08T12:31:07Z</time>
      </trkpt>
      <trkpt lat="45.8828" lon="4.88224">
        <ele>296</ele>
        <time>2018-03-08T12:31:09Z</time>
      </trkpt>
      <trkpt lat="45.88281" lon="4.88221">
        <ele>296</ele>
        <time>2018-03-08T12:31:10Z</time>
      </trkpt>
      <trkpt lat="45.88281" lon="4.88208">
        <ele>296</ele>
        <time>2018-03-08T12:31:12Z</time>
      </trkpt>
      <trkpt lat="45.88281" lon="4.88203">
        <ele>296</ele>
        <time>2018-03-08T12:31:13Z</time>
      </trkpt>
      <trkpt lat="45.88281" lon="4.88192">
        <ele>296</ele>
        <time>2018-03-08T12:31:16Z</time>
      </trkpt>
      <trkpt lat="45.88281" lon="4.88188">
        <ele>296</ele>
        <time>2018-03-08T12:31:17Z</time>
      </trkpt>
      <trkpt lat="45.8828" lon="4.88184">
        <ele>296</ele>
        <time>2018-03-08T12:31:18Z</time>
      </trkpt>
      <trkpt lat="45.8828" lon="4.88172">
        <ele>296</ele>
        <time>2018-03-08T12:31:19Z</time>
      </trkpt>
      <trkpt lat="45.8828" lon="4.88161">
        <ele>296</ele>
        <time>2018-03-08T12:31:21Z</time>
      </trkpt>
      <trkpt lat="45.8828" lon="4.88156">
        <ele>296</ele>
        <time>2018-03-08T12:31:22Z</time>
      </trkpt>
      <trkpt lat="45.88279" lon="4.88145">
        <ele>295</ele>
        <time>2018-03-08T12:31:24Z</time>
      </trkpt>
      <trkpt lat="45.88279" lon="4.88139">
        <ele>295</ele>
        <time>2018-03-08T12:31:25Z</time>
      </trkpt>
      <trkpt lat="45.88279" lon="4.88128">
        <ele>295</ele>
        <time>2018-03-08T12:31:27Z</time>
      </trkpt>
      <trkpt lat="45.88278" lon="4.88122">
        <ele>295</ele>
        <time>2018-03-08T12:31:28Z</time>
      </trkpt>
      <trkpt lat="45.88278" lon="4.88109">
        <ele>295</ele>
        <time>2018-03-08T12:31:30Z</time>
      </trkpt>
      <trkpt lat="45.88278" lon="4.88103">
        <ele>295</ele>
        <time>2018-03-08T12:31:31Z</time>
      </trkpt>
      <trkpt lat="45.88277" lon="4.88091">
        <ele>294</ele>
        <time>2018-03-08T12:31:33Z</time>
      </trkpt>
      <trkpt lat="45.88277" lon="4.88085">
        <ele>294</ele>
        <time>2018-03-08T12:31:34Z</time>
      </trkpt>
      <trkpt lat="45.88277" lon="4.88072">
        <ele>293</ele>
        <time>2018-03-08T12:31:36Z</time>
      </trkpt>
      <trkpt lat="45.88277" lon="4.88066">
        <ele>293</ele>
        <time>2018-03-08T12:31:37Z</time>
      </trkpt>
      <trkpt lat="45.88276" lon="4.88054">
        <ele>293</ele>
        <time>2018-03-08T12:31:39Z</time>
      </trkpt>
      <trkpt lat="45.88276" lon="4.88048">
        <ele>293</ele>
        <time>2018-03-08T12:31:40Z</time>
      </trkpt>
      <trkpt lat="45.88275" lon="4.88037">
        <ele>293</ele>
        <time>2018-03-08T12:31:42Z</time>
      </trkpt>
      <trkpt lat="45.88275" lon="4.88031">
        <ele>293</ele>
        <time>2018-03-08T12:31:43Z</time>
      </trkpt>
      <trkpt lat="45.88274" lon="4.88018">
        <ele>293</ele>
        <time>2018-03-08T12:31:45Z</time>
      </trkpt>
      <trkpt lat="45.88274" lon="4.88011">
        <ele>293</ele>
        <time>2018-03-08T12:31:46Z</time>
      </trkpt>
      <trkpt lat="45.88274" lon="4.88004">
        <ele>293</ele>
        <time>2018-03-08T12:31:47Z</time>
      </trkpt>
      <trkpt lat="45.88274" lon="4.87997">
        <ele>293</ele>
        <time>2018-03-08T12:31:48Z</time>
      </trkpt>
      <trkpt lat="45.88274" lon="4.8799">
        <ele>293</ele>
        <time>2018-03-08T12:31:49Z</time>
      </trkpt>
      <trkpt lat="45.88273" lon="4.87983">
        <ele>293</ele>
        <time>2018-03-08T12:31:50Z</time>
      </trkpt>
      <trkpt lat="45.88273" lon="4.87976">
        <ele>293</ele>
        <time>2018-03-08T12:31:51Z</time>
      </trkpt>
      <trkpt lat="45.88272" lon="4.87968">
        <ele>293</ele>
        <time>2018-03-08T12:31:52Z</time>
      </trkpt>
      <trkpt lat="45.88271" lon="4.87961">
        <ele>293</ele>
        <time>2018-03-08T12:31:53Z</time>
      </trkpt>
      <trkpt lat="45.88272" lon="4.87952">
        <ele>293</ele>
        <time>2018-03-08T12:31:54Z</time>
      </trkpt>
      <trkpt lat="45.88271" lon="4.87945">
        <ele>294</ele>
        <time>2018-03-08T12:31:55Z</time>
      </trkpt>
      <trkpt lat="45.88271" lon="4.87937">
        <ele>294</ele>
        <time>2018-03-08T12:31:56Z</time>
      </trkpt>
      <trkpt lat="45.88271" lon="4.87929">
        <ele>294</ele>
        <time>2018-03-08T12:31:57Z</time>
      </trkpt>
      <trkpt lat="45.8827" lon="4.87921">
        <ele>294</ele>
        <time>2018-03-08T12:31:58Z</time>
      </trkpt>
      <trkpt lat="45.88269" lon="4.87914">
        <ele>295</ele>
        <time>2018-03-08T12:31:59Z</time>
      </trkpt>
      <trkpt lat="45.88269" lon="4.87905">
        <ele>295</ele>
        <time>2018-03-08T12:32:00Z</time>
      </trkpt>
      <trkpt lat="45.88267" lon="4.87897">
        <ele>295</ele>
        <time>2018-03-08T12:32:01Z</time>
      </trkpt>
      <trkpt lat="45.88266" lon="4.87888">
        <ele>294</ele>
        <time>2018-03-08T12:32:02Z</time>
      </trkpt>
      <trkpt lat="45.88265" lon="4.87879">
        <ele>294</ele>
        <time>2018-03-08T12:32:03Z</time>
      </trkpt>
      <trkpt lat="45.88264" lon="4.8787">
        <ele>294</ele>
        <time>2018-03-08T12:32:04Z</time>
      </trkpt>
      <trkpt lat="45.88264" lon="4.87861">
        <ele>294</ele>
        <time>2018-03-08T12:32:05Z</time>
      </trkpt>
      <trkpt lat="45.88263" lon="4.8785">
        <ele>294</ele>
        <time>2018-03-08T12:32:06Z</time>
      </trkpt>
      <trkpt lat="45.88261" lon="4.8784">
        <ele>295</ele>
        <time>2018-03-08T12:32:07Z</time>
      </trkpt>
      <trkpt lat="45.88259" lon="4.8783">
        <ele>295</ele>
        <time>2018-03-08T12:32:08Z</time>
      </trkpt>
      <trkpt lat="45.88258" lon="4.87821">
        <ele>295</ele>
        <time>2018-03-08T12:32:09Z</time>
      </trkpt>
      <trkpt lat="45.88258" lon="4.87812">
        <ele>295</ele>
        <time>2018-03-08T12:32:10Z</time>
      </trkpt>
      <trkpt lat="45.88257" lon="4.87804">
        <ele>295</ele>
        <time>2018-03-08T12:32:11Z</time>
      </trkpt>
      <trkpt lat="45.88255" lon="4.87795">
        <ele>295</ele>
        <time>2018-03-08T12:32:12Z</time>
      </trkpt>
      <trkpt lat="45.88254" lon="4.87785">
        <ele>295</ele>
        <time>2018-03-08T12:32:13Z</time>
      </trkpt>
      <trkpt lat="45.88253" lon="4.87776">
        <ele>295</ele>
        <time>2018-03-08T12:32:14Z</time>
      </trkpt>
      <trkpt lat="45.88252" lon="4.87768">
        <ele>295</ele>
        <time>2018-03-08T12:32:15Z</time>
      </trkpt>
      <trkpt lat="45.88251" lon="4.87761">
        <ele>295</ele>
        <time>2018-03-08T12:32:16Z</time>
      </trkpt>
      <trkpt lat="45.8825" lon="4.87753">
        <ele>296</ele>
        <time>2018-03-08T12:32:17Z</time>
      </trkpt>
      <trkpt lat="45.8825" lon="4.87745">
        <ele>296</ele>
        <time>2018-03-08T12:32:18Z</time>
      </trkpt>
      <trkpt lat="45.88249" lon="4.87738">
        <ele>295</ele>
        <time>2018-03-08T12:32:19Z</time>
      </trkpt>
      <trkpt lat="45.88248" lon="4.87731">
        <ele>295</ele>
        <time>2018-03-08T12:32:20Z</time>
      </trkpt>
      <trkpt lat="45.88247" lon="4.87723">
        <ele>295</ele>
        <time>2018-03-08T12:32:21Z</time>
      </trkpt>
      <trkpt lat="45.88246" lon="4.87716">
        <ele>295</ele>
        <time>2018-03-08T12:32:22Z</time>
      </trkpt>
      <trkpt lat="45.88245" lon="4.87709">
        <ele>295</ele>
        <time>2018-03-08T12:32:23Z</time>
      </trkpt>
      <trkpt lat="45.88244" lon="4.87702">
        <ele>295</ele>
        <time>2018-03-08T12:32:24Z</time>
      </trkpt>
      <trkpt lat="45.88243" lon="4.87696">
        <ele>295</ele>
        <time>2018-03-08T12:32:25Z</time>
      </trkpt>
      <trkpt lat="45.88242" lon="4.87689">
        <ele>295</ele>
        <time>2018-03-08T12:32:26Z</time>
      </trkpt>
      <trkpt lat="45.88241" lon="4.87683">
        <ele>295</ele>
        <time>2018-03-08T12:32:27Z</time>
      </trkpt>
      <trkpt lat="45.8824" lon="4.87676">
        <ele>295</ele>
        <time>2018-03-08T12:32:28Z</time>
      </trkpt>
      <trkpt lat="45.8824" lon="4.8767">
        <ele>295</ele>
        <time>2018-03-08T12:32:29Z</time>
      </trkpt>
      <trkpt lat="45.8824" lon="4.87662">
        <ele>295</ele>
        <time>2018-03-08T12:32:30Z</time>
      </trkpt>
      <trkpt lat="45.88239" lon="4.87655">
        <ele>295</ele>
        <time>2018-03-08T12:32:31Z</time>
      </trkpt>
      <trkpt lat="45.88238" lon="4.87648">
        <ele>295</ele>
        <time>2018-03-08T12:32:32Z</time>
      </trkpt>
      <trkpt lat="45.88237" lon="4.87642">
        <ele>295</ele>
        <time>2018-03-08T12:32:33Z</time>
      </trkpt>
      <trkpt lat="45.88237" lon="4.87635">
        <ele>295</ele>
        <time>2018-03-08T12:32:34Z</time>
      </trkpt>
      <trkpt lat="45.88236" lon="4.87628">
        <ele>295</ele>
        <time>2018-03-08T12:32:35Z</time>
      </trkpt>
      <trkpt lat="45.88236" lon="4.87621">
        <ele>295</ele>
        <time>2018-03-08T12:32:36Z</time>
      </trkpt>
      <trkpt lat="45.88235" lon="4.87613">
        <ele>295</ele>
        <time>2018-03-08T12:32:37Z</time>
      </trkpt>
      <trkpt lat="45.88234" lon="4.87606">
        <ele>295</ele>
        <time>2018-03-08T12:32:38Z</time>
      </trkpt>
      <trkpt lat="45.88233" lon="4.876">
        <ele>295</ele>
        <time>2018-03-08T12:32:39Z</time>
      </trkpt>
      <trkpt lat="45.88232" lon="4.87593">
        <ele>295</ele>
        <time>2018-03-08T12:32:40Z</time>
      </trkpt>
      <trkpt lat="45.88231" lon="4.87586">
        <ele>295</ele>
        <time>2018-03-08T12:32:41Z</time>
      </trkpt>
      <trkpt lat="45.88231" lon="4.8758">
        <ele>296</ele>
        <time>2018-03-08T12:32:42Z</time>
      </trkpt>
      <trkpt lat="45.8823" lon="4.87573">
        <ele>296</ele>
        <time>2018-03-08T12:32:43Z</time>
      </trkpt>
      <trkpt lat="45.88229" lon="4.87567">
        <ele>296</ele>
        <time>2018-03-08T12:32:44Z</time>
      </trkpt>
      <trkpt lat="45.88229" lon="4.87554">
        <ele>296</ele>
        <time>2018-03-08T12:32:46Z</time>
      </trkpt>
      <trkpt lat="45.88228" lon="4.87547">
        <ele>296</ele>
        <time>2018-03-08T12:32:47Z</time>
      </trkpt>
      <trkpt lat="45.88226" lon="4.87535">
        <ele>296</ele>
        <time>2018-03-08T12:32:49Z</time>
      </trkpt>
      <trkpt lat="45.88226" lon="4.87528">
        <ele>296</ele>
        <time>2018-03-08T12:32:50Z</time>
      </trkpt>
      <trkpt lat="45.88226" lon="4.87521">
        <ele>296</ele>
        <time>2018-03-08T12:32:51Z</time>
      </trkpt>
      <trkpt lat="45.88225" lon="4.87515">
        <ele>297</ele>
        <time>2018-03-08T12:32:52Z</time>
      </trkpt>
      <trkpt lat="45.88225" lon="4.87502">
        <ele>297</ele>
        <time>2018-03-08T12:32:54Z</time>
      </trkpt>
      <trkpt lat="45.88224" lon="4.87495">
        <ele>297</ele>
        <time>2018-03-08T12:32:55Z</time>
      </trkpt>
      <trkpt lat="45.88223" lon="4.87488">
        <ele>297</ele>
        <time>2018-03-08T12:32:56Z</time>
      </trkpt>
      <trkpt lat="45.88223" lon="4.87482">
        <ele>297</ele>
        <time>2018-03-08T12:32:57Z</time>
      </trkpt>
      <trkpt lat="45.88223" lon="4.87475">
        <ele>297</ele>
        <time>2018-03-08T12:32:58Z</time>
      </trkpt>
      <trkpt lat="45.88223" lon="4.87468">
        <ele>297</ele>
        <time>2018-03-08T12:32:59Z</time>
      </trkpt>
      <trkpt lat="45.88223" lon="4.87462">
        <ele>297</ele>
        <time>2018-03-08T12:33:00Z</time>
      </trkpt>
      <trkpt lat="45.88223" lon="4.87455">
        <ele>297</ele>
        <time>2018-03-08T12:33:01Z</time>
      </trkpt>
      <trkpt lat="45.88222" lon="4.87443">
        <ele>297</ele>
        <time>2018-03-08T12:33:03Z</time>
      </trkpt>
      <trkpt lat="45.88222" lon="4.87436">
        <ele>297</ele>
        <time>2018-03-08T12:33:04Z</time>
      </trkpt>
      <trkpt lat="45.88222" lon="4.87425">
        <ele>297</ele>
        <time>2018-03-08T12:33:06Z</time>
      </trkpt>
      <trkpt lat="45.88222" lon="4.87419">
        <ele>297</ele>
        <time>2018-03-08T12:33:07Z</time>
      </trkpt>
      <trkpt lat="45.88221" lon="4.87406">
        <ele>297</ele>
        <time>2018-03-08T12:33:09Z</time>
      </trkpt>
      <trkpt lat="45.88221" lon="4.874">
        <ele>297</ele>
        <time>2018-03-08T12:33:10Z</time>
      </trkpt>
      <trkpt lat="45.8822" lon="4.87394">
        <ele>297</ele>
        <time>2018-03-08T12:33:11Z</time>
      </trkpt>
      <trkpt lat="45.8822" lon="4.87387">
        <ele>297</ele>
        <time>2018-03-08T12:33:12Z</time>
      </trkpt>
      <trkpt lat="45.8822" lon="4.8738">
        <ele>297</ele>
        <time>2018-03-08T12:33:13Z</time>
      </trkpt>
      <trkpt lat="45.8822" lon="4.87373">
        <ele>297</ele>
        <time>2018-03-08T12:33:14Z</time>
      </trkpt>
      <trkpt lat="45.88221" lon="4.87366">
        <ele>297</ele>
        <time>2018-03-08T12:33:15Z</time>
      </trkpt>
      <trkpt lat="45.88222" lon="4.8736">
        <ele>297</ele>
        <time>2018-03-08T12:33:16Z</time>
      </trkpt>
      <trkpt lat="45.88223" lon="4.87353">
        <ele>297</ele>
        <time>2018-03-08T12:33:17Z</time>
      </trkpt>
      <trkpt lat="45.88222" lon="4.87347">
        <ele>297</ele>
        <time>2018-03-08T12:33:18Z</time>
      </trkpt>
      <trkpt lat="45.88221" lon="4.8734">
        <ele>297</ele>
        <time>2018-03-08T12:33:19Z</time>
      </trkpt>
      <trkpt lat="45.88219" lon="4.87334">
        <ele>297</ele>
        <time>2018-03-08T12:33:20Z</time>
      </trkpt>
      <trkpt lat="45.88218" lon="4.87327">
        <ele>297</ele>
        <time>2018-03-08T12:33:21Z</time>
      </trkpt>
      <trkpt lat="45.88216" lon="4.87321">
        <ele>297</ele>
        <time>2018-03-08T12:33:22Z</time>
      </trkpt>
      <trkpt lat="45.88216" lon="4.87314">
        <ele>297</ele>
        <time>2018-03-08T12:33:23Z</time>
      </trkpt>
      <trkpt lat="45.88216" lon="4.87308">
        <ele>297</ele>
        <time>2018-03-08T12:33:24Z</time>
      </trkpt>
      <trkpt lat="45.88215" lon="4.87301">
        <ele>297</ele>
        <time>2018-03-08T12:33:25Z</time>
      </trkpt>
      <trkpt lat="45.88214" lon="4.87295">
        <ele>297</ele>
        <time>2018-03-08T12:33:26Z</time>
      </trkpt>
      <trkpt lat="45.88213" lon="4.87283">
        <ele>297</ele>
        <time>2018-03-08T12:33:28Z</time>
      </trkpt>
      <trkpt lat="45.88213" lon="4.87277">
        <ele>297</ele>
        <time>2018-03-08T12:33:29Z</time>
      </trkpt>
      <trkpt lat="45.88213" lon="4.87264">
        <ele>297</ele>
        <time>2018-03-08T12:33:31Z</time>
      </trkpt>
      <trkpt lat="45.88213" lon="4.87259">
        <ele>297</ele>
        <time>2018-03-08T12:33:32Z</time>
      </trkpt>
      <trkpt lat="45.88213" lon="4.87248">
        <ele>298</ele>
        <time>2018-03-08T12:33:34Z</time>
      </trkpt>
      <trkpt lat="45.88213" lon="4.87241">
        <ele>298</ele>
        <time>2018-03-08T12:33:35Z</time>
      </trkpt>
      <trkpt lat="45.88213" lon="4.87228">
        <ele>298</ele>
        <time>2018-03-08T12:33:37Z</time>
      </trkpt>
      <trkpt lat="45.88213" lon="4.87223">
        <ele>298</ele>
        <time>2018-03-08T12:33:38Z</time>
      </trkpt>
      <trkpt lat="45.88213" lon="4.87212">
        <ele>298</ele>
        <time>2018-03-08T12:33:40Z</time>
      </trkpt>
      <trkpt lat="45.88212" lon="4.87206">
        <ele>298</ele>
        <time>2018-03-08T12:33:41Z</time>
      </trkpt>
      <trkpt lat="45.88212" lon="4.87195">
        <ele>298</ele>
        <time>2018-03-08T12:33:43Z</time>
      </trkpt>
      <trkpt lat="45.88212" lon="4.87189">
        <ele>298</ele>
        <time>2018-03-08T12:33:44Z</time>
      </trkpt>
      <trkpt lat="45.88212" lon="4.87179">
        <ele>298</ele>
        <time>2018-03-08T12:33:46Z</time>
      </trkpt>
      <trkpt lat="45.88212" lon="4.87173">
        <ele>298</ele>
        <time>2018-03-08T12:33:47Z</time>
      </trkpt>
      <trkpt lat="45.88211" lon="4.87161">
        <ele>298</ele>
        <time>2018-03-08T12:33:49Z</time>
      </trkpt>
      <trkpt lat="45.88211" lon="4.87156">
        <ele>298</ele>
        <time>2018-03-08T12:33:50Z</time>
      </trkpt>
      <trkpt lat="45.8821" lon="4.87145">
        <ele>298</ele>
        <time>2018-03-08T12:33:52Z</time>
      </trkpt>
      <trkpt lat="45.8821" lon="4.87139">
        <ele>298</ele>
        <time>2018-03-08T12:33:53Z</time>
      </trkpt>
      <trkpt lat="45.8821" lon="4.87127">
        <ele>298</ele>
        <time>2018-03-08T12:33:55Z</time>
      </trkpt>
      <trkpt lat="45.8821" lon="4.87121">
        <ele>299</ele>
        <time>2018-03-08T12:33:56Z</time>
      </trkpt>
      <trkpt lat="45.88209" lon="4.8711">
        <ele>299</ele>
        <time>2018-03-08T12:33:58Z</time>
      </trkpt>
      <trkpt lat="45.88208" lon="4.87104">
        <ele>299</ele>
        <time>2018-03-08T12:33:59Z</time>
      </trkpt>
      <trkpt lat="45.88207" lon="4.87092">
        <ele>299</ele>
        <time>2018-03-08T12:34:01Z</time>
      </trkpt>
      <trkpt lat="45.88206" lon="4.87086">
        <ele>299</ele>
        <time>2018-03-08T12:34:02Z</time>
      </trkpt>
      <trkpt lat="45.88205" lon="4.87074">
        <ele>299</ele>
        <time>2018-03-08T12:34:04Z</time>
      </trkpt>
      <trkpt lat="45.88205" lon="4.87068">
        <ele>299</ele>
        <time>2018-03-08T12:34:05Z</time>
      </trkpt>
      <trkpt lat="45.88204" lon="4.87056">
        <ele>299</ele>
        <time>2018-03-08T12:34:07Z</time>
      </trkpt>
      <trkpt lat="45.88203" lon="4.8705">
        <ele>299</ele>
        <time>2018-03-08T12:34:08Z</time>
      </trkpt>
      <trkpt lat="45.88203" lon="4.87037">
        <ele>299</ele>
        <time>2018-03-08T12:34:10Z</time>
      </trkpt>
      <trkpt lat="45.88203" lon="4.87031">
        <ele>299</ele>
        <time>2018-03-08T12:34:11Z</time>
      </trkpt>
      <trkpt lat="45.88202" lon="4.87019">
        <ele>299</ele>
        <time>2018-03-08T12:34:13Z</time>
      </trkpt>
      <trkpt lat="45.88202" lon="4.87014">
        <ele>299</ele>
        <time>2018-03-08T12:34:14Z</time>
      </trkpt>
      <trkpt lat="45.88202" lon="4.87002">
        <ele>299</ele>
        <time>2018-03-08T12:34:16Z</time>
      </trkpt>
      <trkpt lat="45.88201" lon="4.86995">
        <ele>299</ele>
        <time>2018-03-08T12:34:17Z</time>
      </trkpt>
      <trkpt lat="45.88201" lon="4.86984">
        <ele>299</ele>
        <time>2018-03-08T12:34:19Z</time>
      </trkpt>
      <trkpt lat="45.882" lon="4.86978">
        <ele>299</ele>
        <time>2018-03-08T12:34:20Z</time>
      </trkpt>
      <trkpt lat="45.88199" lon="4.86966">
        <ele>299</ele>
        <time>2018-03-08T12:34:22Z</time>
      </trkpt>
      <trkpt lat="45.88199" lon="4.8696">
        <ele>299</ele>
        <time>2018-03-08T12:34:23Z</time>
      </trkpt>
      <trkpt lat="45.88198" lon="4.86948">
        <ele>299</ele>
        <time>2018-03-08T12:34:25Z</time>
      </trkpt>
      <trkpt lat="45.88198" lon="4.86942">
        <ele>300</ele>
        <time>2018-03-08T12:34:26Z</time>
      </trkpt>
      <trkpt lat="45.88197" lon="4.86929">
        <ele>300</ele>
        <time>2018-03-08T12:34:28Z</time>
      </trkpt>
      <trkpt lat="45.88197" lon="4.86923">
        <ele>300</ele>
        <time>2018-03-08T12:34:29Z</time>
      </trkpt>
      <trkpt lat="45.88197" lon="4.8691">
        <ele>300</ele>
        <time>2018-03-08T12:34:31Z</time>
      </trkpt>
      <trkpt lat="45.88197" lon="4.86904">
        <ele>299</ele>
        <time>2018-03-08T12:34:32Z</time>
      </trkpt>
      <trkpt lat="45.88196" lon="4.86897">
        <ele>299</ele>
        <time>2018-03-08T12:34:33Z</time>
      </trkpt>
      <trkpt lat="45.88196" lon="4.86891">
        <ele>299</ele>
        <time>2018-03-08T12:34:34Z</time>
      </trkpt>
      <trkpt lat="45.88195" lon="4.86879">
        <ele>299</ele>
        <time>2018-03-08T12:34:36Z</time>
      </trkpt>
      <trkpt lat="45.88194" lon="4.86873">
        <ele>299</ele>
        <time>2018-03-08T12:34:37Z</time>
      </trkpt>
      <trkpt lat="45.88194" lon="4.86861">
        <ele>299</ele>
        <time>2018-03-08T12:34:39Z</time>
      </trkpt>
      <trkpt lat="45.88193" lon="4.86855">
        <ele>299</ele>
        <time>2018-03-08T12:34:40Z</time>
      </trkpt>
      <trkpt lat="45.88191" lon="4.86844">
        <ele>299</ele>
        <time>2018-03-08T12:34:42Z</time>
      </trkpt>
      <trkpt lat="45.8819" lon="4.86838">
        <ele>299</ele>
        <time>2018-03-08T12:34:43Z</time>
      </trkpt>
      <trkpt lat="45.88189" lon="4.86828">
        <ele>299</ele>
        <time>2018-03-08T12:34:45Z</time>
      </trkpt>
      <trkpt lat="45.88189" lon="4.86822">
        <ele>299</ele>
        <time>2018-03-08T12:34:46Z</time>
      </trkpt>
      <trkpt lat="45.88188" lon="4.8681">
        <ele>299</ele>
        <time>2018-03-08T12:34:48Z</time>
      </trkpt>
      <trkpt lat="45.88187" lon="4.86803">
        <ele>299</ele>
        <time>2018-03-08T12:34:49Z</time>
      </trkpt>
      <trkpt lat="45.88186" lon="4.86797">
        <ele>299</ele>
        <time>2018-03-08T12:34:50Z</time>
      </trkpt>
      <trkpt lat="45.88186" lon="4.8679">
        <ele>299</ele>
        <time>2018-03-08T12:34:51Z</time>
      </trkpt>
      <trkpt lat="45.88186" lon="4.86783">
        <ele>299</ele>
        <time>2018-03-08T12:34:52Z</time>
      </trkpt>
      <trkpt lat="45.88184" lon="4.86776">
        <ele>299</ele>
        <time>2018-03-08T12:34:53Z</time>
      </trkpt>
      <trkpt lat="45.88182" lon="4.86765">
        <ele>299</ele>
        <time>2018-03-08T12:34:55Z</time>
      </trkpt>
      <trkpt lat="45.88181" lon="4.86759">
        <ele>299</ele>
        <time>2018-03-08T12:34:56Z</time>
      </trkpt>
      <trkpt lat="45.88179" lon="4.86746">
        <ele>299</ele>
        <time>2018-03-08T12:34:58Z</time>
      </trkpt>
      <trkpt lat="45.88178" lon="4.86741">
        <ele>299</ele>
        <time>2018-03-08T12:34:59Z</time>
      </trkpt>
      <trkpt lat="45.88176" lon="4.86728">
        <ele>299</ele>
        <time>2018-03-08T12:35:01Z</time>
      </trkpt>
      <trkpt lat="45.88175" lon="4.86722">
        <ele>299</ele>
        <time>2018-03-08T12:35:02Z</time>
      </trkpt>
      <trkpt lat="45.88174" lon="4.86715">
        <ele>299</ele>
        <time>2018-03-08T12:35:03Z</time>
      </trkpt>
      <trkpt lat="45.88173" lon="4.86709">
        <ele>299</ele>
        <time>2018-03-08T12:35:04Z</time>
      </trkpt>
      <trkpt lat="45.88171" lon="4.86697">
        <ele>299</ele>
        <time>2018-03-08T12:35:06Z</time>
      </trkpt>
      <trkpt lat="45.88169" lon="4.86691">
        <ele>299</ele>
        <time>2018-03-08T12:35:07Z</time>
      </trkpt>
      <trkpt lat="45.88168" lon="4.86684">
        <ele>299</ele>
        <time>2018-03-08T12:35:08Z</time>
      </trkpt>
      <trkpt lat="45.88167" lon="4.86678">
        <ele>299</ele>
        <time>2018-03-08T12:35:09Z</time>
      </trkpt>
      <trkpt lat="45.88165" lon="4.86666">
        <ele>299</ele>
        <time>2018-03-08T12:35:11Z</time>
      </trkpt>
      <trkpt lat="45.88163" lon="4.8666">
        <ele>299</ele>
        <time>2018-03-08T12:35:12Z</time>
      </trkpt>
      <trkpt lat="45.88161" lon="4.86653">
        <ele>299</ele>
        <time>2018-03-08T12:35:13Z</time>
      </trkpt>
      <trkpt lat="45.8816" lon="4.86646">
        <ele>300</ele>
        <time>2018-03-08T12:35:14Z</time>
      </trkpt>
      <trkpt lat="45.88157" lon="4.8664">
        <ele>300</ele>
        <time>2018-03-08T12:35:15Z</time>
      </trkpt>
      <trkpt lat="45.88156" lon="4.86633">
        <ele>300</ele>
        <time>2018-03-08T12:35:16Z</time>
      </trkpt>
      <trkpt lat="45.88154" lon="4.86627">
        <ele>300</ele>
        <time>2018-03-08T12:35:17Z</time>
      </trkpt>
      <trkpt lat="45.88152" lon="4.86621">
        <ele>300</ele>
        <time>2018-03-08T12:35:18Z</time>
      </trkpt>
      <trkpt lat="45.88151" lon="4.86614">
        <ele>300</ele>
        <time>2018-03-08T12:35:19Z</time>
      </trkpt>
      <trkpt lat="45.88149" lon="4.86607">
        <ele>300</ele>
        <time>2018-03-08T12:35:20Z</time>
      </trkpt>
      <trkpt lat="45.88147" lon="4.86602">
        <ele>300</ele>
        <time>2018-03-08T12:35:21Z</time>
      </trkpt>
      <trkpt lat="45.88146" lon="4.86595">
        <ele>300</ele>
        <time>2018-03-08T12:35:22Z</time>
      </trkpt>
      <trkpt lat="45.88143" lon="4.86583">
        <ele>301</ele>
        <time>2018-03-08T12:35:24Z</time>
      </trkpt>
      <trkpt lat="45.88141" lon="4.86576">
        <ele>301</ele>
        <time>2018-03-08T12:35:25Z</time>
      </trkpt>
      <trkpt lat="45.88141" lon="4.86569">
        <ele>301</ele>
        <time>2018-03-08T12:35:26Z</time>
      </trkpt>
      <trkpt lat="45.8814" lon="4.86562">
        <ele>301</ele>
        <time>2018-03-08T12:35:27Z</time>
      </trkpt>
      <trkpt lat="45.8814" lon="4.86555">
        <ele>301</ele>
        <time>2018-03-08T12:35:28Z</time>
      </trkpt>
      <trkpt lat="45.8814" lon="4.86548">
        <ele>301</ele>
        <time>2018-03-08T12:35:29Z</time>
      </trkpt>
      <trkpt lat="45.88139" lon="4.86542">
        <ele>301</ele>
        <time>2018-03-08T12:35:30Z</time>
      </trkpt>
      <trkpt lat="45.88138" lon="4.86535">
        <ele>301</ele>
        <time>2018-03-08T12:35:31Z</time>
      </trkpt>
      <trkpt lat="45.88138" lon="4.86523">
        <ele>301</ele>
        <time>2018-03-08T12:35:33Z</time>
      </trkpt>
      <trkpt lat="45.88137" lon="4.86517">
        <ele>301</ele>
        <time>2018-03-08T12:35:34Z</time>
      </trkpt>
      <trkpt lat="45.88136" lon="4.86505">
        <ele>301</ele>
        <time>2018-03-08T12:35:36Z</time>
      </trkpt>
      <trkpt lat="45.88135" lon="4.86502">
        <ele>301</ele>
        <time>2018-03-08T12:35:37Z</time>
      </trkpt>
      <trkpt lat="45.88134" lon="4.86493">
        <ele>302</ele>
        <time>2018-03-08T12:35:38Z</time>
      </trkpt>
      <trkpt lat="45.88133" lon="4.86488">
        <ele>302</ele>
        <time>2018-03-08T12:35:39Z</time>
      </trkpt>
      <trkpt lat="45.8813" lon="4.86476">
        <ele>302</ele>
        <time>2018-03-08T12:35:41Z</time>
      </trkpt>
      <trkpt lat="45.88129" lon="4.86469">
        <ele>302</ele>
        <time>2018-03-08T12:35:42Z</time>
      </trkpt>
      <trkpt lat="45.88128" lon="4.86457">
        <ele>302</ele>
        <time>2018-03-08T12:35:44Z</time>
      </trkpt>
      <trkpt lat="45.88127" lon="4.86451">
        <ele>302</ele>
        <time>2018-03-08T12:35:45Z</time>
      </trkpt>
      <trkpt lat="45.88126" lon="4.86439">
        <ele>302</ele>
        <time>2018-03-08T12:35:47Z</time>
      </trkpt>
      <trkpt lat="45.88125" lon="4.86434">
        <ele>302</ele>
        <time>2018-03-08T12:35:48Z</time>
      </trkpt>
      <trkpt lat="45.88123" lon="4.86422">
        <ele>302</ele>
        <time>2018-03-08T12:35:50Z</time>
      </trkpt>
      <trkpt lat="45.88122" lon="4.86417">
        <ele>302</ele>
        <time>2018-03-08T12:35:51Z</time>
      </trkpt>
      <trkpt lat="45.88121" lon="4.86407">
        <ele>304</ele>
        <time>2018-03-08T12:35:53Z</time>
      </trkpt>
      <trkpt lat="45.8812" lon="4.86402">
        <ele>304</ele>
        <time>2018-03-08T12:35:54Z</time>
      </trkpt>
      <trkpt lat="45.88119" lon="4.86391">
        <ele>304</ele>
        <time>2018-03-08T12:35:56Z</time>
      </trkpt>
      <trkpt lat="45.88119" lon="4.86385">
        <ele>304</ele>
        <time>2018-03-08T12:35:57Z</time>
      </trkpt>
      <trkpt lat="45.88117" lon="4.86374">
        <ele>304</ele>
        <time>2018-03-08T12:35:59Z</time>
      </trkpt>
      <trkpt lat="45.88117" lon="4.86372">
        <ele>304</ele>
        <time>2018-03-08T12:36:00Z</time>
      </trkpt>
      <trkpt lat="45.88115" lon="4.86359">
        <ele>305</ele>
        <time>2018-03-08T12:36:02Z</time>
      </trkpt>
      <trkpt lat="45.88114" lon="4.86357">
        <ele>305</ele>
        <time>2018-03-08T12:36:03Z</time>
      </trkpt>
      <trkpt lat="45.88112" lon="4.86346">
        <ele>305</ele>
        <time>2018-03-08T12:36:06Z</time>
      </trkpt>
      <trkpt lat="45.88112" lon="4.86342">
        <ele>305</ele>
        <time>2018-03-08T12:36:07Z</time>
      </trkpt>
      <trkpt lat="45.8811" lon="4.86332">
        <ele>306</ele>
        <time>2018-03-08T12:36:10Z</time>
      </trkpt>
      <trkpt lat="45.88109" lon="4.86328">
        <ele>306</ele>
        <time>2018-03-08T12:36:11Z</time>
      </trkpt>
      <trkpt lat="45.88107" lon="4.86317">
        <ele>306</ele>
        <time>2018-03-08T12:36:14Z</time>
      </trkpt>
      <trkpt lat="45.88105" lon="4.86313">
        <ele>306</ele>
        <time>2018-03-08T12:36:15Z</time>
      </trkpt>
      <trkpt lat="45.88102" lon="4.86305">
        <ele>306</ele>
        <time>2018-03-08T12:36:17Z</time>
      </trkpt>
      <trkpt lat="45.88101" lon="4.86301">
        <ele>306</ele>
        <time>2018-03-08T12:36:18Z</time>
      </trkpt>
      <trkpt lat="45.881" lon="4.86289">
        <ele>306</ele>
        <time>2018-03-08T12:36:21Z</time>
      </trkpt>
      <trkpt lat="45.88099" lon="4.86285">
        <ele>306</ele>
        <time>2018-03-08T12:36:22Z</time>
      </trkpt>
      <trkpt lat="45.88098" lon="4.86275">
        <ele>306</ele>
        <time>2018-03-08T12:36:24Z</time>
      </trkpt>
      <trkpt lat="45.88097" lon="4.86271">
        <ele>306</ele>
        <time>2018-03-08T12:36:25Z</time>
      </trkpt>
      <trkpt lat="45.88095" lon="4.86262">
        <ele>306</ele>
        <time>2018-03-08T12:36:27Z</time>
      </trkpt>
      <trkpt lat="45.88091" lon="4.86249">
        <ele>306</ele>
        <time>2018-03-08T12:36:28Z</time>
      </trkpt>
      <trkpt lat="45.88088" lon="4.8624">
        <ele>306</ele>
        <time>2018-03-08T12:36:30Z</time>
      </trkpt>
      <trkpt lat="45.88086" lon="4.86235">
        <ele>306</ele>
        <time>2018-03-08T12:36:31Z</time>
      </trkpt>
      <trkpt lat="45.88082" lon="4.86224">
        <ele>306</ele>
        <time>2018-03-08T12:36:33Z</time>
      </trkpt>
      <trkpt lat="45.8808" lon="4.86219">
        <ele>306</ele>
        <time>2018-03-08T12:36:34Z</time>
      </trkpt>
      <trkpt lat="45.88076" lon="4.86207">
        <ele>306</ele>
        <time>2018-03-08T12:36:36Z</time>
      </trkpt>
      <trkpt lat="45.88075" lon="4.86201">
        <ele>306</ele>
        <time>2018-03-08T12:36:37Z</time>
      </trkpt>
      <trkpt lat="45.88072" lon="4.86196">
        <ele>306</ele>
        <time>2018-03-08T12:36:38Z</time>
      </trkpt>
      <trkpt lat="45.8807" lon="4.8619">
        <ele>306</ele>
        <time>2018-03-08T12:36:39Z</time>
      </trkpt>
      <trkpt lat="45.88066" lon="4.86179">
        <ele>305</ele>
        <time>2018-03-08T12:36:41Z</time>
      </trkpt>
      <trkpt lat="45.88064" lon="4.86174">
        <ele>305</ele>
        <time>2018-03-08T12:36:42Z</time>
      </trkpt>
      <trkpt lat="45.88061" lon="4.86167">
        <ele>305</ele>
        <time>2018-03-08T12:36:43Z</time>
      </trkpt>
      <trkpt lat="45.88058" lon="4.8616">
        <ele>304</ele>
        <time>2018-03-08T12:36:44Z</time>
      </trkpt>
      <trkpt lat="45.88056" lon="4.86153">
        <ele>304</ele>
        <time>2018-03-08T12:36:45Z</time>
      </trkpt>
      <trkpt lat="45.88055" lon="4.86146">
        <ele>304</ele>
        <time>2018-03-08T12:36:46Z</time>
      </trkpt>
      <trkpt lat="45.88053" lon="4.86139">
        <ele>304</ele>
        <time>2018-03-08T12:36:47Z</time>
      </trkpt>
      <trkpt lat="45.88051" lon="4.86132">
        <ele>304</ele>
        <time>2018-03-08T12:36:48Z</time>
      </trkpt>
      <trkpt lat="45.88049" lon="4.86126">
        <ele>304</ele>
        <time>2018-03-08T12:36:49Z</time>
      </trkpt>
      <trkpt lat="45.88047" lon="4.86118">
        <ele>304</ele>
        <time>2018-03-08T12:36:50Z</time>
      </trkpt>
      <trkpt lat="45.88045" lon="4.8611">
        <ele>304</ele>
        <time>2018-03-08T12:36:51Z</time>
      </trkpt>
      <trkpt lat="45.88043" lon="4.86104">
        <ele>303</ele>
        <time>2018-03-08T12:36:52Z</time>
      </trkpt>
      <trkpt lat="45.88042" lon="4.86096">
        <ele>303</ele>
        <time>2018-03-08T12:36:53Z</time>
      </trkpt>
      <trkpt lat="45.8804" lon="4.86089">
        <ele>303</ele>
        <time>2018-03-08T12:36:54Z</time>
      </trkpt>
      <trkpt lat="45.88039" lon="4.86081">
        <ele>301</ele>
        <time>2018-03-08T12:36:55Z</time>
      </trkpt>
      <trkpt lat="45.88037" lon="4.86073">
        <ele>301</ele>
        <time>2018-03-08T12:36:56Z</time>
      </trkpt>
      <trkpt lat="45.88036" lon="4.86064">
        <ele>301</ele>
        <time>2018-03-08T12:36:57Z</time>
      </trkpt>
      <trkpt lat="45.88034" lon="4.86056">
        <ele>301</ele>
        <time>2018-03-08T12:36:58Z</time>
      </trkpt>
      <trkpt lat="45.88033" lon="4.86047">
        <ele>301</ele>
        <time>2018-03-08T12:36:59Z</time>
      </trkpt>
      <trkpt lat="45.88031" lon="4.86039">
        <ele>301</ele>
        <time>2018-03-08T12:37:00Z</time>
      </trkpt>
      <trkpt lat="45.88027" lon="4.8603">
        <ele>300</ele>
        <time>2018-03-08T12:37:01Z</time>
      </trkpt>
      <trkpt lat="45.88026" lon="4.86024">
        <ele>300</ele>
        <time>2018-03-08T12:37:02Z</time>
      </trkpt>
      <trkpt lat="45.88023" lon="4.86012">
        <ele>300</ele>
        <time>2018-03-08T12:37:04Z</time>
      </trkpt>
      <trkpt lat="45.8802" lon="4.86007">
        <ele>300</ele>
        <time>2018-03-08T12:37:05Z</time>
      </trkpt>
      <trkpt lat="45.88013" lon="4.86001">
        <ele>300</ele>
        <time>2018-03-08T12:37:07Z</time>
      </trkpt>
      <trkpt lat="45.88008" lon="4.86">
        <ele>300</ele>
        <time>2018-03-08T12:37:08Z</time>
      </trkpt>
      <trkpt lat="45.88003" lon="4.86001">
        <ele>300</ele>
        <time>2018-03-08T12:37:09Z</time>
      </trkpt>
      <trkpt lat="45.87998" lon="4.86002">
        <ele>300</ele>
        <time>2018-03-08T12:37:10Z</time>
      </trkpt>
      <trkpt lat="45.87993" lon="4.86003">
        <ele>300</ele>
        <time>2018-03-08T12:37:11Z</time>
      </trkpt>
      <trkpt lat="45.87987" lon="4.86005">
        <ele>300</ele>
        <time>2018-03-08T12:37:12Z</time>
      </trkpt>
      <trkpt lat="45.87981" lon="4.86007">
        <ele>299</ele>
        <time>2018-03-08T12:37:13Z</time>
      </trkpt>
      <trkpt lat="45.87976" lon="4.86009">
        <ele>299</ele>
        <time>2018-03-08T12:37:14Z</time>
      </trkpt>
      <trkpt lat="45.87971" lon="4.86009">
        <ele>299</ele>
        <time>2018-03-08T12:37:15Z</time>
      </trkpt>
      <trkpt lat="45.87965" lon="4.86007">
        <ele>299</ele>
        <time>2018-03-08T12:37:16Z</time>
      </trkpt>
      <trkpt lat="45.8796" lon="4.86003">
        <ele>299</ele>
        <time>2018-03-08T12:37:17Z</time>
      </trkpt>
      <trkpt lat="45.87954" lon="4.85997">
        <ele>295</ele>
        <time>2018-03-08T12:37:18Z</time>
      </trkpt>
      <trkpt lat="45.8795" lon="4.8599">
        <ele>295</ele>
        <time>2018-03-08T12:37:19Z</time>
      </trkpt>
      <trkpt lat="45.87946" lon="4.85984">
        <ele>295</ele>
        <time>2018-03-08T12:37:20Z</time>
      </trkpt>
      <trkpt lat="45.8794" lon="4.85978">
        <ele>294</ele>
        <time>2018-03-08T12:37:21Z</time>
      </trkpt>
      <trkpt lat="45.87933" lon="4.85976">
        <ele>294</ele>
        <time>2018-03-08T12:37:22Z</time>
      </trkpt>
      <trkpt lat="45.87926" lon="4.85976">
        <ele>294</ele>
        <time>2018-03-08T12:37:23Z</time>
      </trkpt>
      <trkpt lat="45.87919" lon="4.85979">
        <ele>294</ele>
        <time>2018-03-08T12:37:24Z</time>
      </trkpt>
      <trkpt lat="45.87912" lon="4.85981">
        <ele>291</ele>
        <time>2018-03-08T12:37:25Z</time>
      </trkpt>
      <trkpt lat="45.87905" lon="4.85983">
        <ele>291</ele>
        <time>2018-03-08T12:37:26Z</time>
      </trkpt>
      <trkpt lat="45.87897" lon="4.85986">
        <ele>291</ele>
        <time>2018-03-08T12:37:27Z</time>
      </trkpt>
      <trkpt lat="45.8789" lon="4.85989">
        <ele>291</ele>
        <time>2018-03-08T12:37:28Z</time>
      </trkpt>
      <trkpt lat="45.87882" lon="4.85991">
        <ele>290</ele>
        <time>2018-03-08T12:37:29Z</time>
      </trkpt>
      <trkpt lat="45.87873" lon="4.85992">
        <ele>290</ele>
        <time>2018-03-08T12:37:30Z</time>
      </trkpt>
      <trkpt lat="45.87866" lon="4.8599">
        <ele>289</ele>
        <time>2018-03-08T12:37:31Z</time>
      </trkpt>
      <trkpt lat="45.87857" lon="4.85986">
        <ele>289</ele>
        <time>2018-03-08T12:37:32Z</time>
      </trkpt>
      <trkpt lat="45.8785" lon="4.85979">
        <ele>289</ele>
        <time>2018-03-08T12:37:33Z</time>
      </trkpt>
      <trkpt lat="45.87845" lon="4.8597">
        <ele>288</ele>
        <time>2018-03-08T12:37:34Z</time>
      </trkpt>
      <trkpt lat="45.87841" lon="4.85959">
        <ele>288</ele>
        <time>2018-03-08T12:37:35Z</time>
      </trkpt>
      <trkpt lat="45.87838" lon="4.85948">
        <ele>288</ele>
        <time>2018-03-08T12:37:36Z</time>
      </trkpt>
      <trkpt lat="45.87837" lon="4.85937">
        <ele>287</ele>
        <time>2018-03-08T12:37:37Z</time>
      </trkpt>
      <trkpt lat="45.87837" lon="4.85925">
        <ele>286</ele>
        <time>2018-03-08T12:37:38Z</time>
      </trkpt>
      <trkpt lat="45.8784" lon="4.85912">
        <ele>285</ele>
        <time>2018-03-08T12:37:39Z</time>
      </trkpt>
      <trkpt lat="45.87843" lon="4.85902">
        <ele>285</ele>
        <time>2018-03-08T12:37:40Z</time>
      </trkpt>
      <trkpt lat="45.87848" lon="4.85891">
        <ele>285</ele>
        <time>2018-03-08T12:37:41Z</time>
      </trkpt>
      <trkpt lat="45.87855" lon="4.85883">
        <ele>285</ele>
        <time>2018-03-08T12:37:42Z</time>
      </trkpt>
      <trkpt lat="45.87863" lon="4.85876">
        <ele>285</ele>
        <time>2018-03-08T12:37:43Z</time>
      </trkpt>
      <trkpt lat="45.87871" lon="4.8587">
        <ele>284</ele>
        <time>2018-03-08T12:37:44Z</time>
      </trkpt>
      <trkpt lat="45.87879" lon="4.85863">
        <ele>284</ele>
        <time>2018-03-08T12:37:45Z</time>
      </trkpt>
      <trkpt lat="45.87887" lon="4.85855">
        <ele>284</ele>
        <time>2018-03-08T12:37:46Z</time>
      </trkpt>
      <trkpt lat="45.87894" lon="4.85847">
        <ele>284</ele>
        <time>2018-03-08T12:37:47Z</time>
      </trkpt>
      <trkpt lat="45.87902" lon="4.85838">
        <ele>283</ele>
        <time>2018-03-08T12:37:48Z</time>
      </trkpt>
      <trkpt lat="45.8791" lon="4.8583">
        <ele>281</ele>
        <time>2018-03-08T12:37:49Z</time>
      </trkpt>
      <trkpt lat="45.87918" lon="4.85822">
        <ele>281</ele>
        <time>2018-03-08T12:37:50Z</time>
      </trkpt>
      <trkpt lat="45.87926" lon="4.85812">
        <ele>281</ele>
        <time>2018-03-08T12:37:51Z</time>
      </trkpt>
      <trkpt lat="45.87934" lon="4.85802">
        <ele>281</ele>
        <time>2018-03-08T12:37:52Z</time>
      </trkpt>
      <trkpt lat="45.87942" lon="4.85793">
        <ele>280</ele>
        <time>2018-03-08T12:37:53Z</time>
      </trkpt>
      <trkpt lat="45.8795" lon="4.85785">
        <ele>280</ele>
        <time>2018-03-08T12:37:54Z</time>
      </trkpt>
      <trkpt lat="45.87958" lon="4.85775">
        <ele>280</ele>
        <time>2018-03-08T12:37:55Z</time>
      </trkpt>
      <trkpt lat="45.87966" lon="4.85765">
        <ele>280</ele>
        <time>2018-03-08T12:37:56Z</time>
      </trkpt>
      <trkpt lat="45.87972" lon="4.85757">
        <ele>279</ele>
        <time>2018-03-08T12:37:57Z</time>
      </trkpt>
      <trkpt lat="45.87979" lon="4.85749">
        <ele>276</ele>
        <time>2018-03-08T12:37:58Z</time>
      </trkpt>
      <trkpt lat="45.87984" lon="4.85741">
        <ele>276</ele>
        <time>2018-03-08T12:37:59Z</time>
      </trkpt>
      <trkpt lat="45.87987" lon="4.85731">
        <ele>275</ele>
        <time>2018-03-08T12:38:00Z</time>
      </trkpt>
      <trkpt lat="45.87988" lon="4.85719">
        <ele>275</ele>
        <time>2018-03-08T12:38:01Z</time>
      </trkpt>
      <trkpt lat="45.87987" lon="4.85707">
        <ele>274</ele>
        <time>2018-03-08T12:38:02Z</time>
      </trkpt>
      <trkpt lat="45.87984" lon="4.85695">
        <ele>274</ele>
        <time>2018-03-08T12:38:03Z</time>
      </trkpt>
      <trkpt lat="45.8798" lon="4.85684">
        <ele>273</ele>
        <time>2018-03-08T12:38:04Z</time>
      </trkpt>
      <trkpt lat="45.87977" lon="4.85672">
        <ele>273</ele>
        <time>2018-03-08T12:38:05Z</time>
      </trkpt>
      <trkpt lat="45.87974" lon="4.8566">
        <ele>268</ele>
        <time>2018-03-08T12:38:06Z</time>
      </trkpt>
      <trkpt lat="45.87971" lon="4.85647">
        <ele>268</ele>
        <time>2018-03-08T12:38:07Z</time>
      </trkpt>
      <trkpt lat="45.8797" lon="4.85634">
        <ele>267</ele>
        <time>2018-03-08T12:38:08Z</time>
      </trkpt>
      <trkpt lat="45.87969" lon="4.85621">
        <ele>266</ele>
        <time>2018-03-08T12:38:09Z</time>
      </trkpt>
      <trkpt lat="45.87971" lon="4.85606">
        <ele>265</ele>
        <time>2018-03-08T12:38:10Z</time>
      </trkpt>
      <trkpt lat="45.87974" lon="4.85593">
        <ele>265</ele>
        <time>2018-03-08T12:38:11Z</time>
      </trkpt>
      <trkpt lat="45.8798" lon="4.85582">
        <ele>261</ele>
        <time>2018-03-08T12:38:12Z</time>
      </trkpt>
      <trkpt lat="45.87987" lon="4.8557">
        <ele>261</ele>
        <time>2018-03-08T12:38:13Z</time>
      </trkpt>
      <trkpt lat="45.87995" lon="4.85559">
        <ele>260</ele>
        <time>2018-03-08T12:38:14Z</time>
      </trkpt>
      <trkpt lat="45.88004" lon="4.85551">
        <ele>263</ele>
        <time>2018-03-08T12:38:15Z</time>
      </trkpt>
      <trkpt lat="45.88013" lon="4.85541">
        <ele>263</ele>
        <time>2018-03-08T12:38:16Z</time>
      </trkpt>
      <trkpt lat="45.88022" lon="4.85533">
        <ele>262</ele>
        <time>2018-03-08T12:38:17Z</time>
      </trkpt>
      <trkpt lat="45.8803" lon="4.85525">
        <ele>262</ele>
        <time>2018-03-08T12:38:18Z</time>
      </trkpt>
      <trkpt lat="45.8804" lon="4.85517">
        <ele>262</ele>
        <time>2018-03-08T12:38:19Z</time>
      </trkpt>
      <trkpt lat="45.88049" lon="4.85507">
        <ele>262</ele>
        <time>2018-03-08T12:38:20Z</time>
      </trkpt>
      <trkpt lat="45.88059" lon="4.85498">
        <ele>255</ele>
        <time>2018-03-08T12:38:21Z</time>
      </trkpt>
      <trkpt lat="45.88067" lon="4.85488">
        <ele>255</ele>
        <time>2018-03-08T12:38:22Z</time>
      </trkpt>
      <trkpt lat="45.88076" lon="4.85478">
        <ele>254</ele>
        <time>2018-03-08T12:38:23Z</time>
      </trkpt>
      <trkpt lat="45.88085" lon="4.85469">
        <ele>256</ele>
        <time>2018-03-08T12:38:24Z</time>
      </trkpt>
      <trkpt lat="45.88095" lon="4.85461">
        <ele>255</ele>
        <time>2018-03-08T12:38:25Z</time>
      </trkpt>
      <trkpt lat="45.88106" lon="4.85453">
        <ele>254</ele>
        <time>2018-03-08T12:38:26Z</time>
      </trkpt>
      <trkpt lat="45.88116" lon="4.85447">
        <ele>254</ele>
        <time>2018-03-08T12:38:27Z</time>
      </trkpt>
      <trkpt lat="45.88127" lon="4.85441">
        <ele>254</ele>
        <time>2018-03-08T12:38:28Z</time>
      </trkpt>
      <trkpt lat="45.88139" lon="4.85435">
        <ele>254</ele>
        <time>2018-03-08T12:38:29Z</time>
      </trkpt>
      <trkpt lat="45.88148" lon="4.85431">
        <ele>253</ele>
        <time>2018-03-08T12:38:30Z</time>
      </trkpt>
      <trkpt lat="45.88157" lon="4.85426">
        <ele>252</ele>
        <time>2018-03-08T12:38:31Z</time>
      </trkpt>
      <trkpt lat="45.88164" lon="4.85421">
        <ele>251</ele>
        <time>2018-03-08T12:38:32Z</time>
      </trkpt>
      <trkpt lat="45.88169" lon="4.85413">
        <ele>249</ele>
        <time>2018-03-08T12:38:33Z</time>
      </trkpt>
      <trkpt lat="45.88173" lon="4.85405">
        <ele>248</ele>
        <time>2018-03-08T12:38:34Z</time>
      </trkpt>
      <trkpt lat="45.88175" lon="4.85395">
        <ele>247</ele>
        <time>2018-03-08T12:38:35Z</time>
      </trkpt>
      <trkpt lat="45.88173" lon="4.85385">
        <ele>246</ele>
        <time>2018-03-08T12:38:36Z</time>
      </trkpt>
      <trkpt lat="45.88169" lon="4.85377">
        <ele>245</ele>
        <time>2018-03-08T12:38:37Z</time>
      </trkpt>
      <trkpt lat="45.88161" lon="4.85375">
        <ele>240</ele>
        <time>2018-03-08T12:38:38Z</time>
      </trkpt>
      <trkpt lat="45.88154" lon="4.85373">
        <ele>240</ele>
        <time>2018-03-08T12:38:39Z</time>
      </trkpt>
      <trkpt lat="45.88146" lon="4.85376">
        <ele>240</ele>
        <time>2018-03-08T12:38:40Z</time>
      </trkpt>
      <trkpt lat="45.88139" lon="4.85382">
        <ele>240</ele>
        <time>2018-03-08T12:38:41Z</time>
      </trkpt>
      <trkpt lat="45.88131" lon="4.85387">
        <ele>240</ele>
        <time>2018-03-08T12:38:42Z</time>
      </trkpt>
      <trkpt lat="45.88123" lon="4.8539">
        <ele>240</ele>
        <time>2018-03-08T12:38:43Z</time>
      </trkpt>
      <trkpt lat="45.88115" lon="4.85392">
        <ele>240</ele>
        <time>2018-03-08T12:38:44Z</time>
      </trkpt>
      <trkpt lat="45.88106" lon="4.85394">
        <ele>240</ele>
        <time>2018-03-08T12:38:45Z</time>
      </trkpt>
      <trkpt lat="45.88098" lon="4.85396">
        <ele>241</ele>
        <time>2018-03-08T12:38:46Z</time>
      </trkpt>
      <trkpt lat="45.88089" lon="4.85399">
        <ele>241</ele>
        <time>2018-03-08T12:38:47Z</time>
      </trkpt>
      <trkpt lat="45.88081" lon="4.85399">
        <ele>240</ele>
        <time>2018-03-08T12:38:48Z</time>
      </trkpt>
      <trkpt lat="45.88071" lon="4.85401">
        <ele>239</ele>
        <time>2018-03-08T12:38:49Z</time>
      </trkpt>
      <trkpt lat="45.88062" lon="4.85401">
        <ele>239</ele>
        <time>2018-03-08T12:38:50Z</time>
      </trkpt>
      <trkpt lat="45.88054" lon="4.85403">
        <ele>238</ele>
        <time>2018-03-08T12:38:51Z</time>
      </trkpt>
      <trkpt lat="45.88046" lon="4.85403">
        <ele>238</ele>
        <time>2018-03-08T12:38:52Z</time>
      </trkpt>
      <trkpt lat="45.88038" lon="4.85403">
        <ele>238</ele>
        <time>2018-03-08T12:38:53Z</time>
      </trkpt>
      <trkpt lat="45.88029" lon="4.85402">
        <ele>238</ele>
        <time>2018-03-08T12:38:54Z</time>
      </trkpt>
      <trkpt lat="45.8802" lon="4.85398">
        <ele>238</ele>
        <time>2018-03-08T12:38:55Z</time>
      </trkpt>
      <trkpt lat="45.88012" lon="4.85393">
        <ele>237</ele>
        <time>2018-03-08T12:38:56Z</time>
      </trkpt>
      <trkpt lat="45.88004" lon="4.85386">
        <ele>237</ele>
        <time>2018-03-08T12:38:57Z</time>
      </trkpt>
      <trkpt lat="45.87996" lon="4.85377">
        <ele>236</ele>
        <time>2018-03-08T12:38:58Z</time>
      </trkpt>
      <trkpt lat="45.87989" lon="4.85367">
        <ele>236</ele>
        <time>2018-03-08T12:38:59Z</time>
      </trkpt>
      <trkpt lat="45.87984" lon="4.85357">
        <ele>235</ele>
        <time>2018-03-08T12:39:00Z</time>
      </trkpt>
      <trkpt lat="45.87979" lon="4.85349">
        <ele>234</ele>
        <time>2018-03-08T12:39:01Z</time>
      </trkpt>
      <trkpt lat="45.87972" lon="4.8534">
        <ele>234</ele>
        <time>2018-03-08T12:39:02Z</time>
      </trkpt>
      <trkpt lat="45.87966" lon="4.8533">
        <ele>229</ele>
        <time>2018-03-08T12:39:03Z</time>
      </trkpt>
      <trkpt lat="45.87959" lon="4.85321">
        <ele>229</ele>
        <time>2018-03-08T12:39:04Z</time>
      </trkpt>
      <trkpt lat="45.87952" lon="4.85311">
        <ele>229</ele>
        <time>2018-03-08T12:39:05Z</time>
      </trkpt>
      <trkpt lat="45.87946" lon="4.85302">
        <ele>228</ele>
        <time>2018-03-08T12:39:06Z</time>
      </trkpt>
      <trkpt lat="45.87939" lon="4.85293">
        <ele>228</ele>
        <time>2018-03-08T12:39:07Z</time>
      </trkpt>
      <trkpt lat="45.87932" lon="4.85282">
        <ele>228</ele>
        <time>2018-03-08T12:39:08Z</time>
      </trkpt>
      <trkpt lat="45.87926" lon="4.85272">
        <ele>227</ele>
        <time>2018-03-08T12:39:09Z</time>
      </trkpt>
      <trkpt lat="45.8792" lon="4.85262">
        <ele>227</ele>
        <time>2018-03-08T12:39:10Z</time>
      </trkpt>
      <trkpt lat="45.87913" lon="4.85253">
        <ele>227</ele>
        <time>2018-03-08T12:39:11Z</time>
      </trkpt>
      <trkpt lat="45.87907" lon="4.85243">
        <ele>225</ele>
        <time>2018-03-08T12:39:12Z</time>
      </trkpt>
      <trkpt lat="45.87901" lon="4.85233">
        <ele>224</ele>
        <time>2018-03-08T12:39:13Z</time>
      </trkpt>
      <trkpt lat="45.87894" lon="4.85223">
        <ele>224</ele>
        <time>2018-03-08T12:39:14Z</time>
      </trkpt>
      <trkpt lat="45.87888" lon="4.85214">
        <ele>224</ele>
        <time>2018-03-08T12:39:15Z</time>
      </trkpt>
      <trkpt lat="45.8788" lon="4.85203">
        <ele>223</ele>
        <time>2018-03-08T12:39:16Z</time>
      </trkpt>
      <trkpt lat="45.87873" lon="4.85194">
        <ele>223</ele>
        <time>2018-03-08T12:39:17Z</time>
      </trkpt>
      <trkpt lat="45.87866" lon="4.85184">
        <ele>222</ele>
        <time>2018-03-08T12:39:18Z</time>
      </trkpt>
      <trkpt lat="45.87859" lon="4.85174">
        <ele>222</ele>
        <time>2018-03-08T12:39:19Z</time>
      </trkpt>
      <trkpt lat="45.87852" lon="4.85164">
        <ele>218</ele>
        <time>2018-03-08T12:39:20Z</time>
      </trkpt>
      <trkpt lat="45.87845" lon="4.85154">
        <ele>218</ele>
        <time>2018-03-08T12:39:21Z</time>
      </trkpt>
      <trkpt lat="45.87838" lon="4.85144">
        <ele>218</ele>
        <time>2018-03-08T12:39:22Z</time>
      </trkpt>
      <trkpt lat="45.87831" lon="4.85136">
        <ele>219</ele>
        <time>2018-03-08T12:39:23Z</time>
      </trkpt>
      <trkpt lat="45.87825" lon="4.85127">
        <ele>219</ele>
        <time>2018-03-08T12:39:24Z</time>
      </trkpt>
      <trkpt lat="45.87818" lon="4.85117">
        <ele>218</ele>
        <time>2018-03-08T12:39:25Z</time>
      </trkpt>
      <trkpt lat="45.87811" lon="4.85108">
        <ele>218</ele>
        <time>2018-03-08T12:39:26Z</time>
      </trkpt>
      <trkpt lat="45.87805" lon="4.85099">
        <ele>218</ele>
        <time>2018-03-08T12:39:27Z</time>
      </trkpt>
      <trkpt lat="45.87797" lon="4.8509">
        <ele>218</ele>
        <time>2018-03-08T12:39:28Z</time>
      </trkpt>
      <trkpt lat="45.87791" lon="4.85081">
        <ele>214</ele>
        <time>2018-03-08T12:39:29Z</time>
      </trkpt>
      <trkpt lat="45.87784" lon="4.85071">
        <ele>214</ele>
        <time>2018-03-08T12:39:30Z</time>
      </trkpt>
      <trkpt lat="45.87778" lon="4.85062">
        <ele>214</ele>
        <time>2018-03-08T12:39:31Z</time>
      </trkpt>
      <trkpt lat="45.87771" lon="4.85053">
        <ele>213</ele>
        <time>2018-03-08T12:39:32Z</time>
      </trkpt>
      <trkpt lat="45.87765" lon="4.85044">
        <ele>213</ele>
        <time>2018-03-08T12:39:33Z</time>
      </trkpt>
      <trkpt lat="45.87759" lon="4.85035">
        <ele>213</ele>
        <time>2018-03-08T12:39:34Z</time>
      </trkpt>
      <trkpt lat="45.87753" lon="4.85026">
        <ele>212</ele>
        <time>2018-03-08T12:39:35Z</time>
      </trkpt>
      <trkpt lat="45.87747" lon="4.85017">
        <ele>213</ele>
        <time>2018-03-08T12:39:36Z</time>
      </trkpt>
      <trkpt lat="45.87741" lon="4.85009">
        <ele>213</ele>
        <time>2018-03-08T12:39:37Z</time>
      </trkpt>
      <trkpt lat="45.87735" lon="4.85001">
        <ele>213</ele>
        <time>2018-03-08T12:39:38Z</time>
      </trkpt>
      <trkpt lat="45.87729" lon="4.84993">
        <ele>210</ele>
        <time>2018-03-08T12:39:39Z</time>
      </trkpt>
      <trkpt lat="45.87722" lon="4.84984">
        <ele>210</ele>
        <time>2018-03-08T12:39:40Z</time>
      </trkpt>
      <trkpt lat="45.87716" lon="4.84976">
        <ele>210</ele>
        <time>2018-03-08T12:39:41Z</time>
      </trkpt>
      <trkpt lat="45.8771" lon="4.84967">
        <ele>210</ele>
        <time>2018-03-08T12:39:42Z</time>
      </trkpt>
      <trkpt lat="45.87704" lon="4.84958">
        <ele>210</ele>
        <time>2018-03-08T12:39:43Z</time>
      </trkpt>
      <trkpt lat="45.87698" lon="4.8495">
        <ele>210</ele>
        <time>2018-03-08T12:39:44Z</time>
      </trkpt>
      <trkpt lat="45.87692" lon="4.84941">
        <ele>209</ele>
        <time>2018-03-08T12:39:45Z</time>
      </trkpt>
      <trkpt lat="45.87686" lon="4.84933">
        <ele>209</ele>
        <time>2018-03-08T12:39:46Z</time>
      </trkpt>
      <trkpt lat="45.8768" lon="4.84923">
        <ele>209</ele>
        <time>2018-03-08T12:39:47Z</time>
      </trkpt>
      <trkpt lat="45.87674" lon="4.84915">
        <ele>207</ele>
        <time>2018-03-08T12:39:48Z</time>
      </trkpt>
      <trkpt lat="45.87667" lon="4.84906">
        <ele>207</ele>
        <time>2018-03-08T12:39:49Z</time>
      </trkpt>
      <trkpt lat="45.87661" lon="4.84898">
        <ele>206</ele>
        <time>2018-03-08T12:39:50Z</time>
      </trkpt>
      <trkpt lat="45.87656" lon="4.8489">
        <ele>206</ele>
        <time>2018-03-08T12:39:51Z</time>
      </trkpt>
      <trkpt lat="45.87651" lon="4.84883">
        <ele>205</ele>
        <time>2018-03-08T12:39:52Z</time>
      </trkpt>
      <trkpt lat="45.87647" lon="4.84876">
        <ele>205</ele>
        <time>2018-03-08T12:39:53Z</time>
      </trkpt>
      <trkpt lat="45.87645" lon="4.84868">
        <ele>205</ele>
        <time>2018-03-08T12:39:54Z</time>
      </trkpt>
      <trkpt lat="45.87644" lon="4.8486">
        <ele>204</ele>
        <time>2018-03-08T12:39:55Z</time>
      </trkpt>
      <trkpt lat="45.87643" lon="4.84851">
        <ele>204</ele>
        <time>2018-03-08T12:39:56Z</time>
      </trkpt>
      <trkpt lat="45.87641" lon="4.84842">
        <ele>204</ele>
        <time>2018-03-08T12:39:57Z</time>
      </trkpt>
      <trkpt lat="45.87639" lon="4.84832">
        <ele>200</ele>
        <time>2018-03-08T12:39:58Z</time>
      </trkpt>
      <trkpt lat="45.87636" lon="4.84821">
        <ele>200</ele>
        <time>2018-03-08T12:39:59Z</time>
      </trkpt>
      <trkpt lat="45.87636" lon="4.84811">
        <ele>200</ele>
        <time>2018-03-08T12:40:00Z</time>
      </trkpt>
      <trkpt lat="45.87636" lon="4.84798">
        <ele>200</ele>
        <time>2018-03-08T12:40:01Z</time>
      </trkpt>
      <trkpt lat="45.87637" lon="4.84786">
        <ele>199</ele>
        <time>2018-03-08T12:40:02Z</time>
      </trkpt>
      <trkpt lat="45.87638" lon="4.84772">
        <ele>199</ele>
        <time>2018-03-08T12:40:03Z</time>
      </trkpt>
      <trkpt lat="45.87639" lon="4.84759">
        <ele>198</ele>
        <time>2018-03-08T12:40:04Z</time>
      </trkpt>
      <trkpt lat="45.8764" lon="4.84745">
        <ele>195</ele>
        <time>2018-03-08T12:40:05Z</time>
      </trkpt>
      <trkpt lat="45.87642" lon="4.84731">
        <ele>195</ele>
        <time>2018-03-08T12:40:06Z</time>
      </trkpt>
      <trkpt lat="45.87644" lon="4.84718">
        <ele>195</ele>
        <time>2018-03-08T12:40:07Z</time>
      </trkpt>
      <trkpt lat="45.87645" lon="4.84705">
        <ele>194</ele>
        <time>2018-03-08T12:40:08Z</time>
      </trkpt>
      <trkpt lat="45.87647" lon="4.84692">
        <ele>194</ele>
        <time>2018-03-08T12:40:09Z</time>
      </trkpt>
      <trkpt lat="45.87648" lon="4.84679">
        <ele>193</ele>
        <time>2018-03-08T12:40:10Z</time>
      </trkpt>
      <trkpt lat="45.8765" lon="4.84667">
        <ele>191</ele>
        <time>2018-03-08T12:40:11Z</time>
      </trkpt>
      <trkpt lat="45.87651" lon="4.84654">
        <ele>191</ele>
        <time>2018-03-08T12:40:12Z</time>
      </trkpt>
      <trkpt lat="45.87653" lon="4.8464">
        <ele>191</ele>
        <time>2018-03-08T12:40:13Z</time>
      </trkpt>
      <trkpt lat="45.87653" lon="4.84626">
        <ele>191</ele>
        <time>2018-03-08T12:40:14Z</time>
      </trkpt>
      <trkpt lat="45.87655" lon="4.84613">
        <ele>191</ele>
        <time>2018-03-08T12:40:15Z</time>
      </trkpt>
      <trkpt lat="45.87656" lon="4.84599">
        <ele>190</ele>
        <time>2018-03-08T12:40:16Z</time>
      </trkpt>
      <trkpt lat="45.87657" lon="4.84586">
        <ele>190</ele>
        <time>2018-03-08T12:40:17Z</time>
      </trkpt>
      <trkpt lat="45.87658" lon="4.84574">
        <ele>189</ele>
        <time>2018-03-08T12:40:18Z</time>
      </trkpt>
      <trkpt lat="45.8766" lon="4.84564">
        <ele>189</ele>
        <time>2018-03-08T12:40:19Z</time>
      </trkpt>
      <trkpt lat="45.87661" lon="4.84555">
        <ele>189</ele>
        <time>2018-03-08T12:40:20Z</time>
      </trkpt>
      <trkpt lat="45.87661" lon="4.84548">
        <ele>189</ele>
        <time>2018-03-08T12:40:21Z</time>
      </trkpt>
      <trkpt lat="45.87663" lon="4.84541">
        <ele>189</ele>
        <time>2018-03-08T12:40:22Z</time>
      </trkpt>
      <trkpt lat="45.87664" lon="4.84535">
        <ele>189</ele>
        <time>2018-03-08T12:40:23Z</time>
      </trkpt>
      <trkpt lat="45.87665" lon="4.84529">
        <ele>189</ele>
        <time>2018-03-08T12:40:24Z</time>
      </trkpt>
      <trkpt lat="45.87665" lon="4.84521">
        <ele>189</ele>
        <time>2018-03-08T12:40:25Z</time>
      </trkpt>
      <trkpt lat="45.87665" lon="4.84513">
        <ele>188</ele>
        <time>2018-03-08T12:40:26Z</time>
      </trkpt>
      <trkpt lat="45.87664" lon="4.84506">
        <ele>188</ele>
        <time>2018-03-08T12:40:27Z</time>
      </trkpt>
      <trkpt lat="45.87663" lon="4.84497">
        <ele>188</ele>
        <time>2018-03-08T12:40:28Z</time>
      </trkpt>
      <trkpt lat="45.87661" lon="4.84488">
        <ele>188</ele>
        <time>2018-03-08T12:40:29Z</time>
      </trkpt>
      <trkpt lat="45.8766" lon="4.84479">
        <ele>188</ele>
        <time>2018-03-08T12:40:30Z</time>
      </trkpt>
      <trkpt lat="45.87659" lon="4.8447">
        <ele>187</ele>
        <time>2018-03-08T12:40:31Z</time>
      </trkpt>
      <trkpt lat="45.87658" lon="4.84462">
        <ele>187</ele>
        <time>2018-03-08T12:40:32Z</time>
      </trkpt>
      <trkpt lat="45.87658" lon="4.84453">
        <ele>187</ele>
        <time>2018-03-08T12:40:33Z</time>
      </trkpt>
      <trkpt lat="45.87657" lon="4.84444">
        <ele>187</ele>
        <time>2018-03-08T12:40:34Z</time>
      </trkpt>
      <trkpt lat="45.87657" lon="4.84435">
        <ele>187</ele>
        <time>2018-03-08T12:40:35Z</time>
      </trkpt>
      <trkpt lat="45.87656" lon="4.84425">
        <ele>187</ele>
        <time>2018-03-08T12:40:36Z</time>
      </trkpt>
      <trkpt lat="45.87655" lon="4.84416">
        <ele>185</ele>
        <time>2018-03-08T12:40:37Z</time>
      </trkpt>
      <trkpt lat="45.87655" lon="4.84406">
        <ele>185</ele>
        <time>2018-03-08T12:40:38Z</time>
      </trkpt>
      <trkpt lat="45.87654" lon="4.84397">
        <ele>185</ele>
        <time>2018-03-08T12:40:39Z</time>
      </trkpt>
      <trkpt lat="45.87654" lon="4.84386">
        <ele>184</ele>
        <time>2018-03-08T12:40:40Z</time>
      </trkpt>
      <trkpt lat="45.87658" lon="4.84379">
        <ele>184</ele>
        <time>2018-03-08T12:40:41Z</time>
      </trkpt>
      <trkpt lat="45.8766" lon="4.84371">
        <ele>184</ele>
        <time>2018-03-08T12:40:42Z</time>
      </trkpt>
      <trkpt lat="45.87659" lon="4.84359">
        <ele>184</ele>
        <time>2018-03-08T12:40:43Z</time>
      </trkpt>
      <trkpt lat="45.87659" lon="4.8435">
        <ele>184</ele>
        <time>2018-03-08T12:40:44Z</time>
      </trkpt>
      <trkpt lat="45.87656" lon="4.84339">
        <ele>183</ele>
        <time>2018-03-08T12:40:45Z</time>
      </trkpt>
      <trkpt lat="45.87657" lon="4.84331">
        <ele>182</ele>
        <time>2018-03-08T12:40:46Z</time>
      </trkpt>
      <trkpt lat="45.87659" lon="4.84323">
        <ele>182</ele>
        <time>2018-03-08T12:40:47Z</time>
      </trkpt>
      <trkpt lat="45.87659" lon="4.84315">
        <ele>182</ele>
        <time>2018-03-08T12:40:48Z</time>
      </trkpt>
      <trkpt lat="45.87657" lon="4.84307">
        <ele>182</ele>
        <time>2018-03-08T12:40:49Z</time>
      </trkpt>
      <trkpt lat="45.87653" lon="4.84301">
        <ele>181</ele>
        <time>2018-03-08T12:40:50Z</time>
      </trkpt>
      <trkpt lat="45.87648" lon="4.84297">
        <ele>181</ele>
        <time>2018-03-08T12:40:51Z</time>
      </trkpt>
      <trkpt lat="45.87641" lon="4.84293">
        <ele>181</ele>
        <time>2018-03-08T12:40:52Z</time>
      </trkpt>
      <trkpt lat="45.87637" lon="4.84288">
        <ele>181</ele>
        <time>2018-03-08T12:40:53Z</time>
      </trkpt>
      <trkpt lat="45.87633" lon="4.84284">
        <ele>181</ele>
        <time>2018-03-08T12:40:54Z</time>
      </trkpt>
      <trkpt lat="45.87628" lon="4.84279">
        <ele>181</ele>
        <time>2018-03-08T12:40:55Z</time>
      </trkpt>
      <trkpt lat="45.87624" lon="4.84273">
        <ele>180</ele>
        <time>2018-03-08T12:40:56Z</time>
      </trkpt>
      <trkpt lat="45.87618" lon="4.84267">
        <ele>180</ele>
        <time>2018-03-08T12:40:57Z</time>
      </trkpt>
      <trkpt lat="45.87614" lon="4.84262">
        <ele>180</ele>
        <time>2018-03-08T12:40:58Z</time>
      </trkpt>
      <trkpt lat="45.87609" lon="4.84257">
        <ele>180</ele>
        <time>2018-03-08T12:40:59Z</time>
      </trkpt>
      <trkpt lat="45.87604" lon="4.84252">
        <ele>180</ele>
        <time>2018-03-08T12:41:00Z</time>
      </trkpt>
      <trkpt lat="45.87599" lon="4.84247">
        <ele>179</ele>
        <time>2018-03-08T12:41:01Z</time>
      </trkpt>
      <trkpt lat="45.87595" lon="4.84241">
        <ele>179</ele>
        <time>2018-03-08T12:41:02Z</time>
      </trkpt>
      <trkpt lat="45.8759" lon="4.84236">
        <ele>179</ele>
        <time>2018-03-08T12:41:03Z</time>
      </trkpt>
      <trkpt lat="45.87585" lon="4.84231">
        <ele>179</ele>
        <time>2018-03-08T12:41:04Z</time>
      </trkpt>
      <trkpt lat="45.8758" lon="4.84225">
        <ele>179</ele>
        <time>2018-03-08T12:41:05Z</time>
      </trkpt>
      <trkpt lat="45.87575" lon="4.84218">
        <ele>179</ele>
        <time>2018-03-08T12:41:06Z</time>
      </trkpt>
      <trkpt lat="45.8757" lon="4.84213">
        <ele>179</ele>
        <time>2018-03-08T12:41:07Z</time>
      </trkpt>
      <trkpt lat="45.87564" lon="4.84208">
        <ele>179</ele>
        <time>2018-03-08T12:41:08Z</time>
      </trkpt>
      <trkpt lat="45.8756" lon="4.84204">
        <ele>179</ele>
        <time>2018-03-08T12:41:09Z</time>
      </trkpt>
      <trkpt lat="45.87555" lon="4.84198">
        <ele>179</ele>
        <time>2018-03-08T12:41:10Z</time>
      </trkpt>
      <trkpt lat="45.87552" lon="4.84192">
        <ele>179</ele>
        <time>2018-03-08T12:41:11Z</time>
      </trkpt>
      <trkpt lat="45.87548" lon="4.84186">
        <ele>179</ele>
        <time>2018-03-08T12:41:12Z</time>
      </trkpt>
      <trkpt lat="45.87543" lon="4.84181">
        <ele>179</ele>
        <time>2018-03-08T12:41:13Z</time>
      </trkpt>
      <trkpt lat="45.87537" lon="4.84177">
        <ele>179</ele>
        <time>2018-03-08T12:41:14Z</time>
      </trkpt>
      <trkpt lat="45.87532" lon="4.84173">
        <ele>179</ele>
        <time>2018-03-08T12:41:15Z</time>
      </trkpt>
      <trkpt lat="45.87529" lon="4.84169">
        <ele>179</ele>
        <time>2018-03-08T12:41:16Z</time>
      </trkpt>
      <trkpt lat="45.87525" lon="4.84165">
        <ele>178</ele>
        <time>2018-03-08T12:41:17Z</time>
      </trkpt>
      <trkpt lat="45.87522" lon="4.84159">
        <ele>178</ele>
        <time>2018-03-08T12:41:18Z</time>
      </trkpt>
      <trkpt lat="45.8752" lon="4.84153">
        <ele>178</ele>
        <time>2018-03-08T12:41:19Z</time>
      </trkpt>
      <trkpt lat="45.87518" lon="4.84145">
        <ele>178</ele>
        <time>2018-03-08T12:41:20Z</time>
      </trkpt>
      <trkpt lat="45.87517" lon="4.84137">
        <ele>178</ele>
        <time>2018-03-08T12:41:21Z</time>
      </trkpt>
      <trkpt lat="45.87516" lon="4.84127">
        <ele>178</ele>
        <time>2018-03-08T12:41:22Z</time>
      </trkpt>
      <trkpt lat="45.87515" lon="4.84118">
        <ele>178</ele>
        <time>2018-03-08T12:41:23Z</time>
      </trkpt>
      <trkpt lat="45.87515" lon="4.84109">
        <ele>177</ele>
        <time>2018-03-08T12:41:24Z</time>
      </trkpt>
      <trkpt lat="45.87514" lon="4.841">
        <ele>177</ele>
        <time>2018-03-08T12:41:25Z</time>
      </trkpt>
      <trkpt lat="45.87514" lon="4.84091">
        <ele>177</ele>
        <time>2018-03-08T12:41:26Z</time>
      </trkpt>
      <trkpt lat="45.87512" lon="4.84082">
        <ele>176</ele>
        <time>2018-03-08T12:41:27Z</time>
      </trkpt>
      <trkpt lat="45.87513" lon="4.84074">
        <ele>176</ele>
        <time>2018-03-08T12:41:28Z</time>
      </trkpt>
      <trkpt lat="45.87512" lon="4.84065">
        <ele>176</ele>
        <time>2018-03-08T12:41:29Z</time>
      </trkpt>
      <trkpt lat="45.87512" lon="4.84056">
        <ele>176</ele>
        <time>2018-03-08T12:41:30Z</time>
      </trkpt>
      <trkpt lat="45.87512" lon="4.84047">
        <ele>176</ele>
        <time>2018-03-08T12:41:31Z</time>
      </trkpt>
      <trkpt lat="45.87512" lon="4.84038">
        <ele>176</ele>
        <time>2018-03-08T12:41:32Z</time>
      </trkpt>
      <trkpt lat="45.8751" lon="4.84029">
        <ele>176</ele>
        <time>2018-03-08T12:41:33Z</time>
      </trkpt>
      <trkpt lat="45.87509" lon="4.84021">
        <ele>175</ele>
        <time>2018-03-08T12:41:34Z</time>
      </trkpt>
      <trkpt lat="45.87507" lon="4.84014">
        <ele>175</ele>
        <time>2018-03-08T12:41:35Z</time>
      </trkpt>
      <trkpt lat="45.87506" lon="4.84003">
        <ele>175</ele>
        <time>2018-03-08T12:41:39Z</time>
      </trkpt>
      <trkpt lat="45.87506" lon="4.83999">
        <ele>174</ele>
        <time>2018-03-08T12:41:40Z</time>
      </trkpt>
      <trkpt lat="45.87506" lon="4.83991">
        <ele>174</ele>
        <time>2018-03-08T12:41:42Z</time>
      </trkpt>
      <trkpt lat="45.87507" lon="4.83979">
        <ele>174</ele>
        <time>2018-03-08T12:41:43Z</time>
      </trkpt>
      <trkpt lat="45.87507" lon="4.83966">
        <ele>174</ele>
        <time>2018-03-08T12:41:45Z</time>
      </trkpt>
      <trkpt lat="45.8751" lon="4.83959">
        <ele>174</ele>
        <time>2018-03-08T12:41:46Z</time>
      </trkpt>
      <trkpt lat="45.87511" lon="4.83952">
        <ele>174</ele>
        <time>2018-03-08T12:41:47Z</time>
      </trkpt>
      <trkpt lat="45.87512" lon="4.83944">
        <ele>174</ele>
        <time>2018-03-08T12:41:48Z</time>
      </trkpt>
      <trkpt lat="45.87513" lon="4.83936">
        <ele>174</ele>
        <time>2018-03-08T12:41:49Z</time>
      </trkpt>
      <trkpt lat="45.87515" lon="4.83929">
        <ele>174</ele>
        <time>2018-03-08T12:41:50Z</time>
      </trkpt>
      <trkpt lat="45.87516" lon="4.83922">
        <ele>174</ele>
        <time>2018-03-08T12:41:51Z</time>
      </trkpt>
      <trkpt lat="45.87518" lon="4.83914">
        <ele>173</ele>
        <time>2018-03-08T12:41:52Z</time>
      </trkpt>
      <trkpt lat="45.8752" lon="4.83907">
        <ele>173</ele>
        <time>2018-03-08T12:41:53Z</time>
      </trkpt>
      <trkpt lat="45.87523" lon="4.839">
        <ele>173</ele>
        <time>2018-03-08T12:41:54Z</time>
      </trkpt>
      <trkpt lat="45.87526" lon="4.83894">
        <ele>173</ele>
        <time>2018-03-08T12:41:55Z</time>
      </trkpt>
      <trkpt lat="45.8753" lon="4.83889">
        <ele>173</ele>
        <time>2018-03-08T12:41:56Z</time>
      </trkpt>
      <trkpt lat="45.87533" lon="4.83884">
        <ele>173</ele>
        <time>2018-03-08T12:41:57Z</time>
      </trkpt>
      <trkpt lat="45.87539" lon="4.8388">
        <ele>173</ele>
        <time>2018-03-08T12:41:58Z</time>
      </trkpt>
      <trkpt lat="45.87543" lon="4.83877">
        <ele>173</ele>
        <time>2018-03-08T12:41:59Z</time>
      </trkpt>
      <trkpt lat="45.87547" lon="4.83874">
        <ele>173</ele>
        <time>2018-03-08T12:42:00Z</time>
      </trkpt>
      <trkpt lat="45.87552" lon="4.8387">
        <ele>173</ele>
        <time>2018-03-08T12:42:01Z</time>
      </trkpt>
      <trkpt lat="45.87556" lon="4.83868">
        <ele>173</ele>
        <time>2018-03-08T12:42:02Z</time>
      </trkpt>
      <trkpt lat="45.8756" lon="4.83866">
        <ele>173</ele>
        <time>2018-03-08T12:42:03Z</time>
      </trkpt>
      <trkpt lat="45.87566" lon="4.83864">
        <ele>173</ele>
        <time>2018-03-08T12:42:04Z</time>
      </trkpt>
      <trkpt lat="45.87571" lon="4.83862">
        <ele>173</ele>
        <time>2018-03-08T12:42:05Z</time>
      </trkpt>
      <trkpt lat="45.87578" lon="4.83859">
        <ele>173</ele>
        <time>2018-03-08T12:42:06Z</time>
      </trkpt>
      <trkpt lat="45.87585" lon="4.83857">
        <ele>173</ele>
        <time>2018-03-08T12:42:07Z</time>
      </trkpt>
      <trkpt lat="45.8759" lon="4.83855">
        <ele>173</ele>
        <time>2018-03-08T12:42:08Z</time>
      </trkpt>
      <trkpt lat="45.87596" lon="4.83854">
        <ele>173</ele>
        <time>2018-03-08T12:42:09Z</time>
      </trkpt>
      <trkpt lat="45.87605" lon="4.83852">
        <ele>173</ele>
        <time>2018-03-08T12:42:10Z</time>
      </trkpt>
      <trkpt lat="45.87611" lon="4.83851">
        <ele>173</ele>
        <time>2018-03-08T12:42:11Z</time>
      </trkpt>
      <trkpt lat="45.87616" lon="4.83849">
        <ele>173</ele>
        <time>2018-03-08T12:42:12Z</time>
      </trkpt>
      <trkpt lat="45.87621" lon="4.83848">
        <ele>173</ele>
        <time>2018-03-08T12:42:13Z</time>
      </trkpt>
      <trkpt lat="45.87626" lon="4.83847">
        <ele>173</ele>
        <time>2018-03-08T12:42:14Z</time>
      </trkpt>
      <trkpt lat="45.87631" lon="4.83847">
        <ele>173</ele>
        <time>2018-03-08T12:42:15Z</time>
      </trkpt>
      <trkpt lat="45.87636" lon="4.8385">
        <ele>173</ele>
        <time>2018-03-08T12:42:16Z</time>
      </trkpt>
      <trkpt lat="45.87644" lon="4.8385">
        <ele>173</ele>
        <time>2018-03-08T12:42:21Z</time>
      </trkpt>
      <trkpt lat="45.87646" lon="4.8385">
        <ele>173</ele>
        <time>2018-03-08T12:42:22Z</time>
      </trkpt>
      <trkpt lat="45.87653" lon="4.83851">
        <ele>173</ele>
        <time>2018-03-08T12:42:25Z</time>
      </trkpt>
      <trkpt lat="45.87661" lon="4.83851">
        <ele>173</ele>
        <time>2018-03-08T12:42:26Z</time>
      </trkpt>
      <trkpt lat="45.8767" lon="4.83851">
        <ele>172</ele>
        <time>2018-03-08T12:42:28Z</time>
      </trkpt>
      <trkpt lat="45.87672" lon="4.83851">
        <ele>172</ele>
        <time>2018-03-08T12:42:29Z</time>
      </trkpt>
      <trkpt lat="45.87679" lon="4.83851">
        <ele>172</ele>
        <time>2018-03-08T12:42:31Z</time>
      </trkpt>
      <trkpt lat="45.87682" lon="4.83852">
        <ele>172</ele>
        <time>2018-03-08T12:42:32Z</time>
      </trkpt>
      <trkpt lat="45.8769" lon="4.83854">
        <ele>172</ele>
        <time>2018-03-08T12:42:35Z</time>
      </trkpt>
      <trkpt lat="45.87694" lon="4.83855">
        <ele>172</ele>
        <time>2018-03-08T12:42:36Z</time>
      </trkpt>
      <trkpt lat="45.87697" lon="4.83857">
        <ele>172</ele>
        <time>2018-03-08T12:42:37Z</time>
      </trkpt>
      <trkpt lat="45.87706" lon="4.83862">
        <ele>172</ele>
        <time>2018-03-08T12:42:38Z</time>
      </trkpt>
      <trkpt lat="45.87713" lon="4.83864">
        <ele>172</ele>
        <time>2018-03-08T12:42:41Z</time>
      </trkpt>
      <trkpt lat="45.87718" lon="4.8386">
        <ele>172</ele>
        <time>2018-03-08T12:42:42Z</time>
      </trkpt>
      <trkpt lat="45.87721" lon="4.83849">
        <ele>172</ele>
        <time>2018-03-08T12:42:44Z</time>
      </trkpt>
      <trkpt lat="45.8772" lon="4.83842">
        <ele>172</ele>
        <time>2018-03-08T12:42:45Z</time>
      </trkpt>
      <trkpt lat="45.87715" lon="4.83832">
        <ele>169</ele>
        <time>2018-03-08T12:42:47Z</time>
      </trkpt>
      <trkpt lat="45.87711" lon="4.83828">
        <ele>169</ele>
        <time>2018-03-08T12:42:48Z</time>
      </trkpt>
      <trkpt lat="45.87706" lon="4.83819">
        <ele>169</ele>
        <time>2018-03-08T12:42:50Z</time>
      </trkpt>
      <trkpt lat="45.87704" lon="4.83817">
        <ele>169</ele>
        <time>2018-03-08T12:42:51Z</time>
      </trkpt>
      <trkpt lat="45.87703" lon="4.83805">
        <ele>169</ele>
        <time>2018-03-08T12:42:54Z</time>
      </trkpt>
      <trkpt lat="45.87702" lon="4.83801">
        <ele>169</ele>
        <time>2018-03-08T12:42:55Z</time>
      </trkpt>
      <trkpt lat="45.87702" lon="4.83788">
        <ele>168</ele>
        <time>2018-03-08T12:42:56Z</time>
      </trkpt>
      <trkpt lat="45.87702" lon="4.83785">
        <ele>168</ele>
        <time>2018-03-08T12:42:57Z</time>
      </trkpt>
      <trkpt lat="45.87701" lon="4.83778">
        <ele>168</ele>
        <time>2018-03-08T12:42:58Z</time>
      </trkpt>
      <trkpt lat="45.87701" lon="4.83772">
        <ele>168</ele>
        <time>2018-03-08T12:42:59Z</time>
      </trkpt>
      <trkpt lat="45.87701" lon="4.83766">
        <ele>167</ele>
        <time>2018-03-08T12:43:01Z</time>
      </trkpt>
      <trkpt lat="45.877" lon="4.83757">
        <ele>167</ele>
        <time>2018-03-08T12:43:02Z</time>
      </trkpt>
      <trkpt lat="45.87699" lon="4.83747">
        <ele>165</ele>
        <time>2018-03-08T12:43:05Z</time>
      </trkpt>
      <trkpt lat="45.87699" lon="4.83743">
        <ele>165</ele>
        <time>2018-03-08T12:43:06Z</time>
      </trkpt>
      <trkpt lat="45.87698" lon="4.83734">
        <ele>165</ele>
        <time>2018-03-08T12:43:08Z</time>
      </trkpt>
      <trkpt lat="45.87697" lon="4.8373">
        <ele>165</ele>
        <time>2018-03-08T12:43:09Z</time>
      </trkpt>
      <trkpt lat="45.87696" lon="4.8372">
        <ele>165</ele>
        <time>2018-03-08T12:43:11Z</time>
      </trkpt>
      <trkpt lat="45.87696" lon="4.83714">
        <ele>165</ele>
        <time>2018-03-08T12:43:12Z</time>
      </trkpt>
      <trkpt lat="45.87695" lon="4.83709">
        <ele>165</ele>
        <time>2018-03-08T12:43:13Z</time>
      </trkpt>
      <trkpt lat="45.87694" lon="4.83696">
        <ele>165</ele>
        <time>2018-03-08T12:43:14Z</time>
      </trkpt>
      <trkpt lat="45.87692" lon="4.83684">
        <ele>165</ele>
        <time>2018-03-08T12:43:16Z</time>
      </trkpt>
      <trkpt lat="45.87691" lon="4.83678">
        <ele>165</ele>
        <time>2018-03-08T12:43:17Z</time>
      </trkpt>
      <trkpt lat="45.8769" lon="4.83665">
        <ele>165</ele>
        <time>2018-03-08T12:43:19Z</time>
      </trkpt>
      <trkpt lat="45.8769" lon="4.83659">
        <ele>165</ele>
        <time>2018-03-08T12:43:20Z</time>
      </trkpt>
      <trkpt lat="45.87689" lon="4.83652">
        <ele>165</ele>
        <time>2018-03-08T12:43:21Z</time>
      </trkpt>
      <trkpt lat="45.87688" lon="4.83645">
        <ele>165</ele>
        <time>2018-03-08T12:43:22Z</time>
      </trkpt>
      <trkpt lat="45.87688" lon="4.83638">
        <ele>165</ele>
        <time>2018-03-08T12:43:23Z</time>
      </trkpt>
      <trkpt lat="45.87686" lon="4.8363">
        <ele>165</ele>
        <time>2018-03-08T12:43:24Z</time>
      </trkpt>
      <trkpt lat="45.87686" lon="4.83622">
        <ele>165</ele>
        <time>2018-03-08T12:43:25Z</time>
      </trkpt>
      <trkpt lat="45.87686" lon="4.83614">
        <ele>165</ele>
        <time>2018-03-08T12:43:26Z</time>
      </trkpt>
      <trkpt lat="45.87685" lon="4.83606">
        <ele>165</ele>
        <time>2018-03-08T12:43:27Z</time>
      </trkpt>
      <trkpt lat="45.87686" lon="4.83599">
        <ele>165</ele>
        <time>2018-03-08T12:43:28Z</time>
      </trkpt>
      <trkpt lat="45.87686" lon="4.83591">
        <ele>165</ele>
        <time>2018-03-08T12:43:29Z</time>
      </trkpt>
      <trkpt lat="45.87685" lon="4.83583">
        <ele>167</ele>
        <time>2018-03-08T12:43:30Z</time>
      </trkpt>
      <trkpt lat="45.87685" lon="4.83575">
        <ele>167</ele>
        <time>2018-03-08T12:43:31Z</time>
      </trkpt>
      <trkpt lat="45.87685" lon="4.83567">
        <ele>167</ele>
        <time>2018-03-08T12:43:32Z</time>
      </trkpt>
      <trkpt lat="45.87687" lon="4.83561">
        <ele>167</ele>
        <time>2018-03-08T12:43:33Z</time>
      </trkpt>
      <trkpt lat="45.87691" lon="4.83553">
        <ele>168</ele>
        <time>2018-03-08T12:43:34Z</time>
      </trkpt>
      <trkpt lat="45.87695" lon="4.83548">
        <ele>168</ele>
        <time>2018-03-08T12:43:35Z</time>
      </trkpt>
      <trkpt lat="45.87701" lon="4.83543">
        <ele>168</ele>
        <time>2018-03-08T12:43:36Z</time>
      </trkpt>
      <trkpt lat="45.87706" lon="4.83538">
        <ele>169</ele>
        <time>2018-03-08T12:43:37Z</time>
      </trkpt>
      <trkpt lat="45.87712" lon="4.83532">
        <ele>169</ele>
        <time>2018-03-08T12:43:38Z</time>
      </trkpt>
      <trkpt lat="45.87717" lon="4.83525">
        <ele>169</ele>
        <time>2018-03-08T12:43:39Z</time>
      </trkpt>
      <trkpt lat="45.87722" lon="4.83519">
        <ele>170</ele>
        <time>2018-03-08T12:43:40Z</time>
      </trkpt>
      <trkpt lat="45.87728" lon="4.83513">
        <ele>170</ele>
        <time>2018-03-08T12:43:41Z</time>
      </trkpt>
      <trkpt lat="45.87734" lon="4.83506">
        <ele>171</ele>
        <time>2018-03-08T12:43:42Z</time>
      </trkpt>
      <trkpt lat="45.8774" lon="4.83499">
        <ele>173</ele>
        <time>2018-03-08T12:43:43Z</time>
      </trkpt>
      <trkpt lat="45.87746" lon="4.83493">
        <ele>173</ele>
        <time>2018-03-08T12:43:44Z</time>
      </trkpt>
      <trkpt lat="45.87751" lon="4.83487">
        <ele>171</ele>
        <time>2018-03-08T12:43:45Z</time>
      </trkpt>
      <trkpt lat="45.87757" lon="4.83481">
        <ele>171</ele>
        <time>2018-03-08T12:43:46Z</time>
      </trkpt>
      <trkpt lat="45.87762" lon="4.83475">
        <ele>170</ele>
        <time>2018-03-08T12:43:47Z</time>
      </trkpt>
      <trkpt lat="45.87766" lon="4.83469">
        <ele>170</ele>
        <time>2018-03-08T12:43:48Z</time>
      </trkpt>
      <trkpt lat="45.87771" lon="4.83462">
        <ele>170</ele>
        <time>2018-03-08T12:43:49Z</time>
      </trkpt>
      <trkpt lat="45.87776" lon="4.83457">
        <ele>169</ele>
        <time>2018-03-08T12:43:50Z</time>
      </trkpt>
      <trkpt lat="45.8778" lon="4.8345">
        <ele>169</ele>
        <time>2018-03-08T12:43:51Z</time>
      </trkpt>
      <trkpt lat="45.87783" lon="4.83443">
        <ele>169</ele>
        <time>2018-03-08T12:43:52Z</time>
      </trkpt>
      <trkpt lat="45.87786" lon="4.83436">
        <ele>169</ele>
        <time>2018-03-08T12:43:53Z</time>
      </trkpt>
      <trkpt lat="45.87789" lon="4.83428">
        <ele>169</ele>
        <time>2018-03-08T12:43:54Z</time>
      </trkpt>
      <trkpt lat="45.87792" lon="4.83421">
        <ele>169</ele>
        <time>2018-03-08T12:43:55Z</time>
      </trkpt>
      <trkpt lat="45.87795" lon="4.83414">
        <ele>168</ele>
        <time>2018-03-08T12:43:56Z</time>
      </trkpt>
      <trkpt lat="45.87799" lon="4.83407">
        <ele>168</ele>
        <time>2018-03-08T12:43:57Z</time>
      </trkpt>
      <trkpt lat="45.87802" lon="4.83401">
        <ele>168</ele>
        <time>2018-03-08T12:43:58Z</time>
      </trkpt>
      <trkpt lat="45.87805" lon="4.83394">
        <ele>168</ele>
        <time>2018-03-08T12:43:59Z</time>
      </trkpt>
      <trkpt lat="45.87809" lon="4.83388">
        <ele>168</ele>
        <time>2018-03-08T12:44:00Z</time>
      </trkpt>
      <trkpt lat="45.87812" lon="4.83381">
        <ele>168</ele>
        <time>2018-03-08T12:44:01Z</time>
      </trkpt>
      <trkpt lat="45.87815" lon="4.83375">
        <ele>167</ele>
        <time>2018-03-08T12:44:02Z</time>
      </trkpt>
      <trkpt lat="45.87817" lon="4.83368">
        <ele>167</ele>
        <time>2018-03-08T12:44:03Z</time>
      </trkpt>
      <trkpt lat="45.8782" lon="4.83361">
        <ele>167</ele>
        <time>2018-03-08T12:44:04Z</time>
      </trkpt>
      <trkpt lat="45.87822" lon="4.83354">
        <ele>167</ele>
        <time>2018-03-08T12:44:05Z</time>
      </trkpt>
      <trkpt lat="45.87825" lon="4.83347">
        <ele>166</ele>
        <time>2018-03-08T12:44:06Z</time>
      </trkpt>
      <trkpt lat="45.87827" lon="4.83339">
        <ele>166</ele>
        <time>2018-03-08T12:44:07Z</time>
      </trkpt>
      <trkpt lat="45.8783" lon="4.83333">
        <ele>166</ele>
        <time>2018-03-08T12:44:08Z</time>
      </trkpt>
      <trkpt lat="45.87833" lon="4.83326">
        <ele>166</ele>
        <time>2018-03-08T12:44:09Z</time>
      </trkpt>
      <trkpt lat="45.87835" lon="4.83319">
        <ele>166</ele>
        <time>2018-03-08T12:44:10Z</time>
      </trkpt>
      <trkpt lat="45.87837" lon="4.83312">
        <ele>166</ele>
        <time>2018-03-08T12:44:11Z</time>
      </trkpt>
      <trkpt lat="45.87839" lon="4.83304">
        <ele>166</ele>
        <time>2018-03-08T12:44:12Z</time>
      </trkpt>
      <trkpt lat="45.87841" lon="4.83298">
        <ele>167</ele>
        <time>2018-03-08T12:44:13Z</time>
      </trkpt>
      <trkpt lat="45.87843" lon="4.83291">
        <ele>167</ele>
        <time>2018-03-08T12:44:14Z</time>
      </trkpt>
      <trkpt lat="45.87845" lon="4.83283">
        <ele>167</ele>
        <time>2018-03-08T12:44:15Z</time>
      </trkpt>
      <trkpt lat="45.87847" lon="4.83276">
        <ele>168</ele>
        <time>2018-03-08T12:44:16Z</time>
      </trkpt>
      <trkpt lat="45.87849" lon="4.83268">
        <ele>168</ele>
        <time>2018-03-08T12:44:17Z</time>
      </trkpt>
      <trkpt lat="45.8785" lon="4.83261">
        <ele>168</ele>
        <time>2018-03-08T12:44:18Z</time>
      </trkpt>
      <trkpt lat="45.87852" lon="4.83253">
        <ele>169</ele>
        <time>2018-03-08T12:44:19Z</time>
      </trkpt>
      <trkpt lat="45.87854" lon="4.83246">
        <ele>170</ele>
        <time>2018-03-08T12:44:20Z</time>
      </trkpt>
      <trkpt lat="45.87856" lon="4.83238">
        <ele>169</ele>
        <time>2018-03-08T12:44:21Z</time>
      </trkpt>
      <trkpt lat="45.87857" lon="4.83231">
        <ele>169</ele>
        <time>2018-03-08T12:44:22Z</time>
      </trkpt>
      <trkpt lat="45.87859" lon="4.83224">
        <ele>169</ele>
        <time>2018-03-08T12:44:23Z</time>
      </trkpt>
      <trkpt lat="45.87861" lon="4.83216">
        <ele>169</ele>
        <time>2018-03-08T12:44:24Z</time>
      </trkpt>
      <trkpt lat="45.87863" lon="4.83208">
        <ele>169</ele>
        <time>2018-03-08T12:44:25Z</time>
      </trkpt>
      <trkpt lat="45.87864" lon="4.83201">
        <ele>169</ele>
        <time>2018-03-08T12:44:26Z</time>
      </trkpt>
      <trkpt lat="45.87866" lon="4.83194">
        <ele>169</ele>
        <time>2018-03-08T12:44:27Z</time>
      </trkpt>
      <trkpt lat="45.87868" lon="4.83187">
        <ele>169</ele>
        <time>2018-03-08T12:44:28Z</time>
      </trkpt>
      <trkpt lat="45.87869" lon="4.8318">
        <ele>169</ele>
        <time>2018-03-08T12:44:29Z</time>
      </trkpt>
      <trkpt lat="45.8787" lon="4.83173">
        <ele>169</ele>
        <time>2018-03-08T12:44:30Z</time>
      </trkpt>
      <trkpt lat="45.87871" lon="4.83166">
        <ele>170</ele>
        <time>2018-03-08T12:44:31Z</time>
      </trkpt>
      <trkpt lat="45.87873" lon="4.83159">
        <ele>170</ele>
        <time>2018-03-08T12:44:32Z</time>
      </trkpt>
      <trkpt lat="45.87873" lon="4.83152">
        <ele>170</ele>
        <time>2018-03-08T12:44:33Z</time>
      </trkpt>
      <trkpt lat="45.87874" lon="4.83145">
        <ele>170</ele>
        <time>2018-03-08T12:44:34Z</time>
      </trkpt>
      <trkpt lat="45.87876" lon="4.83137">
        <ele>169</ele>
        <time>2018-03-08T12:44:35Z</time>
      </trkpt>
      <trkpt lat="45.87877" lon="4.83129">
        <ele>169</ele>
        <time>2018-03-08T12:44:36Z</time>
      </trkpt>
      <trkpt lat="45.87878" lon="4.83121">
        <ele>169</ele>
        <time>2018-03-08T12:44:37Z</time>
      </trkpt>
      <trkpt lat="45.87878" lon="4.83113">
        <ele>169</ele>
        <time>2018-03-08T12:44:38Z</time>
      </trkpt>
      <trkpt lat="45.87878" lon="4.83105">
        <ele>169</ele>
        <time>2018-03-08T12:44:39Z</time>
      </trkpt>
      <trkpt lat="45.8788" lon="4.83098">
        <ele>169</ele>
        <time>2018-03-08T12:44:40Z</time>
      </trkpt>
      <trkpt lat="45.8788" lon="4.83091">
        <ele>169</ele>
        <time>2018-03-08T12:44:41Z</time>
      </trkpt>
      <trkpt lat="45.87881" lon="4.83083">
        <ele>169</ele>
        <time>2018-03-08T12:44:42Z</time>
      </trkpt>
      <trkpt lat="45.87881" lon="4.83074">
        <ele>169</ele>
        <time>2018-03-08T12:44:43Z</time>
      </trkpt>
      <trkpt lat="45.87882" lon="4.83066">
        <ele>169</ele>
        <time>2018-03-08T12:44:44Z</time>
      </trkpt>
      <trkpt lat="45.87884" lon="4.83058">
        <ele>169</ele>
        <time>2018-03-08T12:44:45Z</time>
      </trkpt>
      <trkpt lat="45.87885" lon="4.8305">
        <ele>169</ele>
        <time>2018-03-08T12:44:46Z</time>
      </trkpt>
      <trkpt lat="45.87887" lon="4.83042">
        <ele>168</ele>
        <time>2018-03-08T12:44:47Z</time>
      </trkpt>
      <trkpt lat="45.87888" lon="4.83034">
        <ele>168</ele>
        <time>2018-03-08T12:44:48Z</time>
      </trkpt>
      <trkpt lat="45.87889" lon="4.83026">
        <ele>168</ele>
        <time>2018-03-08T12:44:49Z</time>
      </trkpt>
      <trkpt lat="45.87891" lon="4.83017">
        <ele>168</ele>
        <time>2018-03-08T12:44:50Z</time>
      </trkpt>
      <trkpt lat="45.87891" lon="4.83009">
        <ele>168</ele>
        <time>2018-03-08T12:44:51Z</time>
      </trkpt>
      <trkpt lat="45.87891" lon="4.83001">
        <ele>168</ele>
        <time>2018-03-08T12:44:52Z</time>
      </trkpt>
      <trkpt lat="45.87893" lon="4.82994">
        <ele>167</ele>
        <time>2018-03-08T12:44:53Z</time>
      </trkpt>
      <trkpt lat="45.87894" lon="4.82986">
        <ele>168</ele>
        <time>2018-03-08T12:44:54Z</time>
      </trkpt>
      <trkpt lat="45.87895" lon="4.82978">
        <ele>168</ele>
        <time>2018-03-08T12:44:55Z</time>
      </trkpt>
      <trkpt lat="45.87896" lon="4.8297">
        <ele>168</ele>
        <time>2018-03-08T12:44:56Z</time>
      </trkpt>
      <trkpt lat="45.87896" lon="4.82962">
        <ele>168</ele>
        <time>2018-03-08T12:44:57Z</time>
      </trkpt>
      <trkpt lat="45.87897" lon="4.82953">
        <ele>168</ele>
        <time>2018-03-08T12:44:58Z</time>
      </trkpt>
      <trkpt lat="45.87898" lon="4.82944">
        <ele>168</ele>
        <time>2018-03-08T12:44:59Z</time>
      </trkpt>
      <trkpt lat="45.87898" lon="4.82937">
        <ele>168</ele>
        <time>2018-03-08T12:45:00Z</time>
      </trkpt>
      <trkpt lat="45.87899" lon="4.8293">
        <ele>167</ele>
        <time>2018-03-08T12:45:01Z</time>
      </trkpt>
      <trkpt lat="45.87899" lon="4.82922">
        <ele>167</ele>
        <time>2018-03-08T12:45:02Z</time>
      </trkpt>
      <trkpt lat="45.87899" lon="4.82915">
        <ele>167</ele>
        <time>2018-03-08T12:45:03Z</time>
      </trkpt>
      <trkpt lat="45.87899" lon="4.82907">
        <ele>167</ele>
        <time>2018-03-08T12:45:04Z</time>
      </trkpt>
      <trkpt lat="45.87898" lon="4.82899">
        <ele>168</ele>
        <time>2018-03-08T12:45:05Z</time>
      </trkpt>
      <trkpt lat="45.87897" lon="4.82892">
        <ele>168</ele>
        <time>2018-03-08T12:45:06Z</time>
      </trkpt>
      <trkpt lat="45.87897" lon="4.82883">
        <ele>168</ele>
        <time>2018-03-08T12:45:07Z</time>
      </trkpt>
      <trkpt lat="45.87896" lon="4.82875">
        <ele>168</ele>
        <time>2018-03-08T12:45:08Z</time>
      </trkpt>
      <trkpt lat="45.87896" lon="4.82866">
        <ele>168</ele>
        <time>2018-03-08T12:45:09Z</time>
      </trkpt>
      <trkpt lat="45.87895" lon="4.82858">
        <ele>168</ele>
        <time>2018-03-08T12:45:10Z</time>
      </trkpt>
      <trkpt lat="45.87893" lon="4.82848">
        <ele>168</ele>
        <time>2018-03-08T12:45:11Z</time>
      </trkpt>
      <trkpt lat="45.87893" lon="4.8284">
        <ele>168</ele>
        <time>2018-03-08T12:45:12Z</time>
      </trkpt>
      <trkpt lat="45.87893" lon="4.82832">
        <ele>168</ele>
        <time>2018-03-08T12:45:13Z</time>
      </trkpt>
      <trkpt lat="45.87892" lon="4.82823">
        <ele>168</ele>
        <time>2018-03-08T12:45:14Z</time>
      </trkpt>
      <trkpt lat="45.87892" lon="4.82815">
        <ele>168</ele>
        <time>2018-03-08T12:45:15Z</time>
      </trkpt>
      <trkpt lat="45.87892" lon="4.82807">
        <ele>169</ele>
        <time>2018-03-08T12:45:16Z</time>
      </trkpt>
      <trkpt lat="45.87891" lon="4.82799">
        <ele>169</ele>
        <time>2018-03-08T12:45:17Z</time>
      </trkpt>
      <trkpt lat="45.8789" lon="4.8279">
        <ele>169</ele>
        <time>2018-03-08T12:45:18Z</time>
      </trkpt>
      <trkpt lat="45.8789" lon="4.82782">
        <ele>169</ele>
        <time>2018-03-08T12:45:19Z</time>
      </trkpt>
      <trkpt lat="45.8789" lon="4.82774">
        <ele>169</ele>
        <time>2018-03-08T12:45:20Z</time>
      </trkpt>
      <trkpt lat="45.87889" lon="4.82766">
        <ele>169</ele>
        <time>2018-03-08T12:45:21Z</time>
      </trkpt>
      <trkpt lat="45.87888" lon="4.82758">
        <ele>168</ele>
        <time>2018-03-08T12:45:22Z</time>
      </trkpt>
      <trkpt lat="45.87888" lon="4.82749">
        <ele>168</ele>
        <time>2018-03-08T12:45:23Z</time>
      </trkpt>
      <trkpt lat="45.87888" lon="4.82741">
        <ele>168</ele>
        <time>2018-03-08T12:45:24Z</time>
      </trkpt>
      <trkpt lat="45.87888" lon="4.82732">
        <ele>168</ele>
        <time>2018-03-08T12:45:25Z</time>
      </trkpt>
      <trkpt lat="45.87888" lon="4.82723">
        <ele>168</ele>
        <time>2018-03-08T12:45:26Z</time>
      </trkpt>
      <trkpt lat="45.87888" lon="4.82715">
        <ele>168</ele>
        <time>2018-03-08T12:45:27Z</time>
      </trkpt>
      <trkpt lat="45.87888" lon="4.82706">
        <ele>168</ele>
        <time>2018-03-08T12:45:28Z</time>
      </trkpt>
      <trkpt lat="45.87889" lon="4.82698">
        <ele>168</ele>
        <time>2018-03-08T12:45:29Z</time>
      </trkpt>
      <trkpt lat="45.87891" lon="4.82691">
        <ele>168</ele>
        <time>2018-03-08T12:45:30Z</time>
      </trkpt>
      <trkpt lat="45.87891" lon="4.82682">
        <ele>168</ele>
        <time>2018-03-08T12:45:31Z</time>
      </trkpt>
      <trkpt lat="45.87892" lon="4.82673">
        <ele>168</ele>
        <time>2018-03-08T12:45:32Z</time>
      </trkpt>
      <trkpt lat="45.87893" lon="4.82665">
        <ele>167</ele>
        <time>2018-03-08T12:45:33Z</time>
      </trkpt>
      <trkpt lat="45.87895" lon="4.82656">
        <ele>167</ele>
        <time>2018-03-08T12:45:34Z</time>
      </trkpt>
      <trkpt lat="45.87895" lon="4.82648">
        <ele>167</ele>
        <time>2018-03-08T12:45:35Z</time>
      </trkpt>
      <trkpt lat="45.87897" lon="4.8264">
        <ele>167</ele>
        <time>2018-03-08T12:45:36Z</time>
      </trkpt>
      <trkpt lat="45.87899" lon="4.82632">
        <ele>167</ele>
        <time>2018-03-08T12:45:37Z</time>
      </trkpt>
      <trkpt lat="45.87902" lon="4.82624">
        <ele>167</ele>
        <time>2018-03-08T12:45:38Z</time>
      </trkpt>
      <trkpt lat="45.87904" lon="4.82617">
        <ele>167</ele>
        <time>2018-03-08T12:45:39Z</time>
      </trkpt>
      <trkpt lat="45.87906" lon="4.82609">
        <ele>167</ele>
        <time>2018-03-08T12:45:40Z</time>
      </trkpt>
      <trkpt lat="45.87909" lon="4.826">
        <ele>166</ele>
        <time>2018-03-08T12:45:41Z</time>
      </trkpt>
      <trkpt lat="45.8791" lon="4.82592">
        <ele>166</ele>
        <time>2018-03-08T12:45:42Z</time>
      </trkpt>
      <trkpt lat="45.87912" lon="4.82583">
        <ele>165</ele>
        <time>2018-03-08T12:45:43Z</time>
      </trkpt>
      <trkpt lat="45.87915" lon="4.82575">
        <ele>166</ele>
        <time>2018-03-08T12:45:44Z</time>
      </trkpt>
      <trkpt lat="45.87916" lon="4.82567">
        <ele>167</ele>
        <time>2018-03-08T12:45:45Z</time>
      </trkpt>
      <trkpt lat="45.87918" lon="4.82558">
        <ele>166</ele>
        <time>2018-03-08T12:45:46Z</time>
      </trkpt>
      <trkpt lat="45.87919" lon="4.82549">
        <ele>166</ele>
        <time>2018-03-08T12:45:47Z</time>
      </trkpt>
      <trkpt lat="45.87922" lon="4.8254">
        <ele>166</ele>
        <time>2018-03-08T12:45:48Z</time>
      </trkpt>
      <trkpt lat="45.87924" lon="4.82531">
        <ele>166</ele>
        <time>2018-03-08T12:45:49Z</time>
      </trkpt>
      <trkpt lat="45.87925" lon="4.82522">
        <ele>167</ele>
        <time>2018-03-08T12:45:50Z</time>
      </trkpt>
      <trkpt lat="45.87927" lon="4.82514">
        <ele>167</ele>
        <time>2018-03-08T12:45:51Z</time>
      </trkpt>
      <trkpt lat="45.87929" lon="4.82506">
        <ele>167</ele>
        <time>2018-03-08T12:45:52Z</time>
      </trkpt>
      <trkpt lat="45.8793" lon="4.82497">
        <ele>167</ele>
        <time>2018-03-08T12:45:53Z</time>
      </trkpt>
      <trkpt lat="45.87932" lon="4.82488">
        <ele>167</ele>
        <time>2018-03-08T12:45:54Z</time>
      </trkpt>
      <trkpt lat="45.87934" lon="4.8248">
        <ele>167</ele>
        <time>2018-03-08T12:45:55Z</time>
      </trkpt>
      <trkpt lat="45.87935" lon="4.82471">
        <ele>167</ele>
        <time>2018-03-08T12:45:56Z</time>
      </trkpt>
      <trkpt lat="45.87937" lon="4.82463">
        <ele>167</ele>
        <time>2018-03-08T12:45:57Z</time>
      </trkpt>
      <trkpt lat="45.87939" lon="4.82455">
        <ele>167</ele>
        <time>2018-03-08T12:45:58Z</time>
      </trkpt>
      <trkpt lat="45.87941" lon="4.82446">
        <ele>166</ele>
        <time>2018-03-08T12:45:59Z</time>
      </trkpt>
      <trkpt lat="45.87943" lon="4.82436">
        <ele>166</ele>
        <time>2018-03-08T12:46:00Z</time>
      </trkpt>
      <trkpt lat="45.87944" lon="4.82428">
        <ele>166</ele>
        <time>2018-03-08T12:46:01Z</time>
      </trkpt>
      <trkpt lat="45.87945" lon="4.82419">
        <ele>166</ele>
        <time>2018-03-08T12:46:02Z</time>
      </trkpt>
      <trkpt lat="45.87946" lon="4.82411">
        <ele>167</ele>
        <time>2018-03-08T12:46:03Z</time>
      </trkpt>
      <trkpt lat="45.87948" lon="4.82402">
        <ele>167</ele>
        <time>2018-03-08T12:46:04Z</time>
      </trkpt>
      <trkpt lat="45.87949" lon="4.82394">
        <ele>167</ele>
        <time>2018-03-08T12:46:05Z</time>
      </trkpt>
      <trkpt lat="45.8795" lon="4.82385">
        <ele>167</ele>
        <time>2018-03-08T12:46:06Z</time>
      </trkpt>
      <trkpt lat="45.87951" lon="4.82376">
        <ele>167</ele>
        <time>2018-03-08T12:46:07Z</time>
      </trkpt>
      <trkpt lat="45.87953" lon="4.82367">
        <ele>167</ele>
        <time>2018-03-08T12:46:08Z</time>
      </trkpt>
      <trkpt lat="45.87953" lon="4.82358">
        <ele>167</ele>
        <time>2018-03-08T12:46:09Z</time>
      </trkpt>
      <trkpt lat="45.87954" lon="4.8235">
        <ele>167</ele>
        <time>2018-03-08T12:46:10Z</time>
      </trkpt>
      <trkpt lat="45.87955" lon="4.82341">
        <ele>167</ele>
        <time>2018-03-08T12:46:11Z</time>
      </trkpt>
      <trkpt lat="45.87956" lon="4.82332">
        <ele>168</ele>
        <time>2018-03-08T12:46:12Z</time>
      </trkpt>
      <trkpt lat="45.87957" lon="4.82324">
        <ele>168</ele>
        <time>2018-03-08T12:46:13Z</time>
      </trkpt>
      <trkpt lat="45.87958" lon="4.82314">
        <ele>168</ele>
        <time>2018-03-08T12:46:14Z</time>
      </trkpt>
      <trkpt lat="45.87958" lon="4.82305">
        <ele>168</ele>
        <time>2018-03-08T12:46:15Z</time>
      </trkpt>
      <trkpt lat="45.87959" lon="4.82297">
        <ele>168</ele>
        <time>2018-03-08T12:46:16Z</time>
      </trkpt>
      <trkpt lat="45.8796" lon="4.82289">
        <ele>168</ele>
        <time>2018-03-08T12:46:17Z</time>
      </trkpt>
      <trkpt lat="45.8796" lon="4.82279">
        <ele>168</ele>
        <time>2018-03-08T12:46:18Z</time>
      </trkpt>
      <trkpt lat="45.87961" lon="4.82271">
        <ele>168</ele>
        <time>2018-03-08T12:46:19Z</time>
      </trkpt>
      <trkpt lat="45.87962" lon="4.82263">
        <ele>168</ele>
        <time>2018-03-08T12:46:20Z</time>
      </trkpt>
      <trkpt lat="45.87963" lon="4.82254">
        <ele>168</ele>
        <time>2018-03-08T12:46:21Z</time>
      </trkpt>
      <trkpt lat="45.87964" lon="4.82246">
        <ele>169</ele>
        <time>2018-03-08T12:46:22Z</time>
      </trkpt>
      <trkpt lat="45.87965" lon="4.82237">
        <ele>169</ele>
        <time>2018-03-08T12:46:23Z</time>
      </trkpt>
      <trkpt lat="45.87965" lon="4.82228">
        <ele>169</ele>
        <time>2018-03-08T12:46:24Z</time>
      </trkpt>
      <trkpt lat="45.87966" lon="4.8222">
        <ele>169</ele>
        <time>2018-03-08T12:46:25Z</time>
      </trkpt>
      <trkpt lat="45.87967" lon="4.82211">
        <ele>169</ele>
        <time>2018-03-08T12:46:26Z</time>
      </trkpt>
      <trkpt lat="45.87968" lon="4.82203">
        <ele>170</ele>
        <time>2018-03-08T12:46:27Z</time>
      </trkpt>
      <trkpt lat="45.87969" lon="4.82194">
        <ele>170</ele>
        <time>2018-03-08T12:46:28Z</time>
      </trkpt>
      <trkpt lat="45.8797" lon="4.82186">
        <ele>170</ele>
        <time>2018-03-08T12:46:29Z</time>
      </trkpt>
      <trkpt lat="45.87971" lon="4.82179">
        <ele>170</ele>
        <time>2018-03-08T12:46:30Z</time>
      </trkpt>
      <trkpt lat="45.87972" lon="4.82171">
        <ele>170</ele>
        <time>2018-03-08T12:46:31Z</time>
      </trkpt>
      <trkpt lat="45.87974" lon="4.82164">
        <ele>171</ele>
        <time>2018-03-08T12:46:32Z</time>
      </trkpt>
      <trkpt lat="45.87975" lon="4.82157">
        <ele>171</ele>
        <time>2018-03-08T12:46:33Z</time>
      </trkpt>
      <trkpt lat="45.87976" lon="4.82149">
        <ele>171</ele>
        <time>2018-03-08T12:46:34Z</time>
      </trkpt>
      <trkpt lat="45.87978" lon="4.82143">
        <ele>171</ele>
        <time>2018-03-08T12:46:35Z</time>
      </trkpt>
      <trkpt lat="45.87981" lon="4.82136">
        <ele>171</ele>
        <time>2018-03-08T12:46:36Z</time>
      </trkpt>
      <trkpt lat="45.87982" lon="4.82129">
        <ele>171</ele>
        <time>2018-03-08T12:46:37Z</time>
      </trkpt>
      <trkpt lat="45.87985" lon="4.82122">
        <ele>171</ele>
        <time>2018-03-08T12:46:38Z</time>
      </trkpt>
      <trkpt lat="45.87987" lon="4.82115">
        <ele>171</ele>
        <time>2018-03-08T12:46:39Z</time>
      </trkpt>
      <trkpt lat="45.87992" lon="4.82111">
        <ele>171</ele>
        <time>2018-03-08T12:46:40Z</time>
      </trkpt>
      <trkpt lat="45.87997" lon="4.82108">
        <ele>171</ele>
        <time>2018-03-08T12:46:41Z</time>
      </trkpt>
      <trkpt lat="45.88002" lon="4.82105">
        <ele>169</ele>
        <time>2018-03-08T12:46:42Z</time>
      </trkpt>
      <trkpt lat="45.88006" lon="4.82102">
        <ele>169</ele>
        <time>2018-03-08T12:46:43Z</time>
      </trkpt>
      <trkpt lat="45.8801" lon="4.82096">
        <ele>169</ele>
        <time>2018-03-08T12:46:44Z</time>
      </trkpt>
      <trkpt lat="45.88013" lon="4.82089">
        <ele>169</ele>
        <time>2018-03-08T12:46:45Z</time>
      </trkpt>
      <trkpt lat="45.88018" lon="4.82082">
        <ele>169</ele>
        <time>2018-03-08T12:46:46Z</time>
      </trkpt>
      <trkpt lat="45.88021" lon="4.82076">
        <ele>169</ele>
        <time>2018-03-08T12:46:47Z</time>
      </trkpt>
      <trkpt lat="45.88025" lon="4.82071">
        <ele>169</ele>
        <time>2018-03-08T12:46:48Z</time>
      </trkpt>
      <trkpt lat="45.88028" lon="4.82066">
        <ele>169</ele>
        <time>2018-03-08T12:46:49Z</time>
      </trkpt>
      <trkpt lat="45.8803" lon="4.82061">
        <ele>169</ele>
        <time>2018-03-08T12:46:50Z</time>
      </trkpt>
      <trkpt lat="45.88034" lon="4.82055">
        <ele>168</ele>
        <time>2018-03-08T12:46:51Z</time>
      </trkpt>
      <trkpt lat="45.88038" lon="4.82049">
        <ele>168</ele>
        <time>2018-03-08T12:46:52Z</time>
      </trkpt>
      <trkpt lat="45.88041" lon="4.82042">
        <ele>168</ele>
        <time>2018-03-08T12:46:53Z</time>
      </trkpt>
      <trkpt lat="45.88043" lon="4.82035">
        <ele>168</ele>
        <time>2018-03-08T12:46:54Z</time>
      </trkpt>
      <trkpt lat="45.88045" lon="4.82028">
        <ele>168</ele>
        <time>2018-03-08T12:46:55Z</time>
      </trkpt>
      <trkpt lat="45.88048" lon="4.82022">
        <ele>168</ele>
        <time>2018-03-08T12:46:56Z</time>
      </trkpt>
      <trkpt lat="45.8805" lon="4.82015">
        <ele>168</ele>
        <time>2018-03-08T12:46:57Z</time>
      </trkpt>
      <trkpt lat="45.88052" lon="4.82008">
        <ele>168</ele>
        <time>2018-03-08T12:46:58Z</time>
      </trkpt>
      <trkpt lat="45.88054" lon="4.82003">
        <ele>168</ele>
        <time>2018-03-08T12:46:59Z</time>
      </trkpt>
      <trkpt lat="45.88056" lon="4.81997">
        <ele>168</ele>
        <time>2018-03-08T12:47:00Z</time>
      </trkpt>
      <trkpt lat="45.88058" lon="4.8199">
        <ele>168</ele>
        <time>2018-03-08T12:47:01Z</time>
      </trkpt>
      <trkpt lat="45.8806" lon="4.81983">
        <ele>168</ele>
        <time>2018-03-08T12:47:02Z</time>
      </trkpt>
      <trkpt lat="45.88061" lon="4.81977">
        <ele>168</ele>
        <time>2018-03-08T12:47:03Z</time>
      </trkpt>
      <trkpt lat="45.88064" lon="4.81972">
        <ele>168</ele>
        <time>2018-03-08T12:47:04Z</time>
      </trkpt>
      <trkpt lat="45.88067" lon="4.81965">
        <ele>168</ele>
        <time>2018-03-08T12:47:05Z</time>
      </trkpt>
      <trkpt lat="45.8807" lon="4.81959">
        <ele>168</ele>
        <time>2018-03-08T12:47:06Z</time>
      </trkpt>
      <trkpt lat="45.88072" lon="4.81952">
        <ele>168</ele>
        <time>2018-03-08T12:47:07Z</time>
      </trkpt>
      <trkpt lat="45.88075" lon="4.81946">
        <ele>167</ele>
        <time>2018-03-08T12:47:08Z</time>
      </trkpt>
      <trkpt lat="45.88077" lon="4.81939">
        <ele>167</ele>
        <time>2018-03-08T12:47:09Z</time>
      </trkpt>
      <trkpt lat="45.88079" lon="4.81932">
        <ele>167</ele>
        <time>2018-03-08T12:47:10Z</time>
      </trkpt>
      <trkpt lat="45.88082" lon="4.81926">
        <ele>166</ele>
        <time>2018-03-08T12:47:11Z</time>
      </trkpt>
      <trkpt lat="45.88085" lon="4.81919">
        <ele>165</ele>
        <time>2018-03-08T12:47:12Z</time>
      </trkpt>
      <trkpt lat="45.88087" lon="4.81913">
        <ele>165</ele>
        <time>2018-03-08T12:47:13Z</time>
      </trkpt>
      <trkpt lat="45.8809" lon="4.81906">
        <ele>165</ele>
        <time>2018-03-08T12:47:14Z</time>
      </trkpt>
      <trkpt lat="45.88093" lon="4.819">
        <ele>165</ele>
        <time>2018-03-08T12:47:15Z</time>
      </trkpt>
      <trkpt lat="45.88095" lon="4.81893">
        <ele>165</ele>
        <time>2018-03-08T12:47:16Z</time>
      </trkpt>
      <trkpt lat="45.88097" lon="4.81886">
        <ele>165</ele>
        <time>2018-03-08T12:47:17Z</time>
      </trkpt>
      <trkpt lat="45.88101" lon="4.8188">
        <ele>166</ele>
        <time>2018-03-08T12:47:18Z</time>
      </trkpt>
      <trkpt lat="45.88103" lon="4.81875">
        <ele>166</ele>
        <time>2018-03-08T12:47:19Z</time>
      </trkpt>
      <trkpt lat="45.88105" lon="4.81868">
        <ele>166</ele>
        <time>2018-03-08T12:47:20Z</time>
      </trkpt>
      <trkpt lat="45.88109" lon="4.81861">
        <ele>166</ele>
        <time>2018-03-08T12:47:21Z</time>
      </trkpt>
      <trkpt lat="45.88112" lon="4.81854">
        <ele>166</ele>
        <time>2018-03-08T12:47:22Z</time>
      </trkpt>
      <trkpt lat="45.88114" lon="4.81847">
        <ele>166</ele>
        <time>2018-03-08T12:47:23Z</time>
      </trkpt>
      <trkpt lat="45.88117" lon="4.8184">
        <ele>166</ele>
        <time>2018-03-08T12:47:24Z</time>
      </trkpt>
      <trkpt lat="45.8812" lon="4.81828">
        <ele>167</ele>
        <time>2018-03-08T12:47:26Z</time>
      </trkpt>
      <trkpt lat="45.88122" lon="4.81823">
        <ele>167</ele>
        <time>2018-03-08T12:47:27Z</time>
      </trkpt>
      <trkpt lat="45.88124" lon="4.81812">
        <ele>167</ele>
        <time>2018-03-08T12:47:29Z</time>
      </trkpt>
      <trkpt lat="45.88126" lon="4.81806">
        <ele>167</ele>
        <time>2018-03-08T12:47:30Z</time>
      </trkpt>
      <trkpt lat="45.88128" lon="4.818">
        <ele>167</ele>
        <time>2018-03-08T12:47:31Z</time>
      </trkpt>
      <trkpt lat="45.88131" lon="4.81793">
        <ele>167</ele>
        <time>2018-03-08T12:47:32Z</time>
      </trkpt>
      <trkpt lat="45.88133" lon="4.81787">
        <ele>167</ele>
        <time>2018-03-08T12:47:33Z</time>
      </trkpt>
      <trkpt lat="45.88135" lon="4.81781">
        <ele>167</ele>
        <time>2018-03-08T12:47:34Z</time>
      </trkpt>
      <trkpt lat="45.88138" lon="4.81775">
        <ele>167</ele>
        <time>2018-03-08T12:47:35Z</time>
      </trkpt>
      <trkpt lat="45.8814" lon="4.81768">
        <ele>167</ele>
        <time>2018-03-08T12:47:36Z</time>
      </trkpt>
      <trkpt lat="45.88142" lon="4.81762">
        <ele>167</ele>
        <time>2018-03-08T12:47:37Z</time>
      </trkpt>
      <trkpt lat="45.88144" lon="4.81755">
        <ele>166</ele>
        <time>2018-03-08T12:47:38Z</time>
      </trkpt>
      <trkpt lat="45.88147" lon="4.81748">
        <ele>168</ele>
        <time>2018-03-08T12:47:39Z</time>
      </trkpt>
      <trkpt lat="45.8815" lon="4.81742">
        <ele>168</ele>
        <time>2018-03-08T12:47:40Z</time>
      </trkpt>
      <trkpt lat="45.88152" lon="4.81734">
        <ele>169</ele>
        <time>2018-03-08T12:47:41Z</time>
      </trkpt>
      <trkpt lat="45.88155" lon="4.81727">
        <ele>169</ele>
        <time>2018-03-08T12:47:42Z</time>
      </trkpt>
      <trkpt lat="45.88158" lon="4.81721">
        <ele>169</ele>
        <time>2018-03-08T12:47:43Z</time>
      </trkpt>
      <trkpt lat="45.8816" lon="4.81714">
        <ele>170</ele>
        <time>2018-03-08T12:47:44Z</time>
      </trkpt>
      <trkpt lat="45.88163" lon="4.81708">
        <ele>170</ele>
        <time>2018-03-08T12:47:45Z</time>
      </trkpt>
      <trkpt lat="45.88165" lon="4.81702">
        <ele>171</ele>
        <time>2018-03-08T12:47:46Z</time>
      </trkpt>
      <trkpt lat="45.88167" lon="4.81696">
        <ele>169</ele>
        <time>2018-03-08T12:47:47Z</time>
      </trkpt>
      <trkpt lat="45.8817" lon="4.8169">
        <ele>169</ele>
        <time>2018-03-08T12:47:48Z</time>
      </trkpt>
      <trkpt lat="45.88172" lon="4.81685">
        <ele>170</ele>
        <time>2018-03-08T12:47:49Z</time>
      </trkpt>
      <trkpt lat="45.88175" lon="4.81678">
        <ele>170</ele>
        <time>2018-03-08T12:47:50Z</time>
      </trkpt>
      <trkpt lat="45.88178" lon="4.81671">
        <ele>171</ele>
        <time>2018-03-08T12:47:51Z</time>
      </trkpt>
      <trkpt lat="45.8818" lon="4.81663">
        <ele>172</ele>
        <time>2018-03-08T12:47:52Z</time>
      </trkpt>
      <trkpt lat="45.88183" lon="4.81657">
        <ele>171</ele>
        <time>2018-03-08T12:47:53Z</time>
      </trkpt>
      <trkpt lat="45.88186" lon="4.81649">
        <ele>171</ele>
        <time>2018-03-08T12:47:54Z</time>
      </trkpt>
      <trkpt lat="45.88189" lon="4.81644">
        <ele>171</ele>
        <time>2018-03-08T12:47:55Z</time>
      </trkpt>
      <trkpt lat="45.88191" lon="4.81638">
        <ele>171</ele>
        <time>2018-03-08T12:47:56Z</time>
      </trkpt>
      <trkpt lat="45.88194" lon="4.81631">
        <ele>170</ele>
        <time>2018-03-08T12:47:57Z</time>
      </trkpt>
      <trkpt lat="45.88197" lon="4.81625">
        <ele>170</ele>
        <time>2018-03-08T12:47:58Z</time>
      </trkpt>
      <trkpt lat="45.882" lon="4.81617">
        <ele>170</ele>
        <time>2018-03-08T12:47:59Z</time>
      </trkpt>
      <trkpt lat="45.88204" lon="4.81611">
        <ele>170</ele>
        <time>2018-03-08T12:48:00Z</time>
      </trkpt>
      <trkpt lat="45.88207" lon="4.81604">
        <ele>170</ele>
        <time>2018-03-08T12:48:01Z</time>
      </trkpt>
      <trkpt lat="45.88211" lon="4.81597">
        <ele>170</ele>
        <time>2018-03-08T12:48:02Z</time>
      </trkpt>
      <trkpt lat="45.88218" lon="4.81588">
        <ele>169</ele>
        <time>2018-03-08T12:48:03Z</time>
      </trkpt>
      <trkpt lat="45.8822" lon="4.8158">
        <ele>170</ele>
        <time>2018-03-08T12:48:04Z</time>
      </trkpt>
      <trkpt lat="45.88224" lon="4.81572">
        <ele>169</ele>
        <time>2018-03-08T12:48:05Z</time>
      </trkpt>
      <trkpt lat="45.88228" lon="4.81564">
        <ele>169</ele>
        <time>2018-03-08T12:48:06Z</time>
      </trkpt>
      <trkpt lat="45.8823" lon="4.81556">
        <ele>170</ele>
        <time>2018-03-08T12:48:07Z</time>
      </trkpt>
      <trkpt lat="45.88233" lon="4.81548">
        <ele>170</ele>
        <time>2018-03-08T12:48:08Z</time>
      </trkpt>
      <trkpt lat="45.88236" lon="4.81541">
        <ele>170</ele>
        <time>2018-03-08T12:48:09Z</time>
      </trkpt>
      <trkpt lat="45.88239" lon="4.81533">
        <ele>170</ele>
        <time>2018-03-08T12:48:10Z</time>
      </trkpt>
      <trkpt lat="45.88243" lon="4.81525">
        <ele>170</ele>
        <time>2018-03-08T12:48:11Z</time>
      </trkpt>
      <trkpt lat="45.88245" lon="4.81518">
        <ele>169</ele>
        <time>2018-03-08T12:48:12Z</time>
      </trkpt>
      <trkpt lat="45.88248" lon="4.81511">
        <ele>169</ele>
        <time>2018-03-08T12:48:13Z</time>
      </trkpt>
      <trkpt lat="45.88252" lon="4.81504">
        <ele>168</ele>
        <time>2018-03-08T12:48:14Z</time>
      </trkpt>
      <trkpt lat="45.88255" lon="4.81497">
        <ele>168</ele>
        <time>2018-03-08T12:48:15Z</time>
      </trkpt>
      <trkpt lat="45.88258" lon="4.8149">
        <ele>167</ele>
        <time>2018-03-08T12:48:16Z</time>
      </trkpt>
      <trkpt lat="45.88262" lon="4.81483">
        <ele>167</ele>
        <time>2018-03-08T12:48:17Z</time>
      </trkpt>
      <trkpt lat="45.88265" lon="4.81477">
        <ele>167</ele>
        <time>2018-03-08T12:48:18Z</time>
      </trkpt>
      <trkpt lat="45.88269" lon="4.81471">
        <ele>166</ele>
        <time>2018-03-08T12:48:19Z</time>
      </trkpt>
      <trkpt lat="45.88271" lon="4.81463">
        <ele>166</ele>
        <time>2018-03-08T12:48:20Z</time>
      </trkpt>
      <trkpt lat="45.88274" lon="4.81456">
        <ele>166</ele>
        <time>2018-03-08T12:48:21Z</time>
      </trkpt>
      <trkpt lat="45.88277" lon="4.81449">
        <ele>166</ele>
        <time>2018-03-08T12:48:22Z</time>
      </trkpt>
      <trkpt lat="45.88281" lon="4.81441">
        <ele>166</ele>
        <time>2018-03-08T12:48:23Z</time>
      </trkpt>
      <trkpt lat="45.88284" lon="4.81434">
        <ele>166</ele>
        <time>2018-03-08T12:48:24Z</time>
      </trkpt>
      <trkpt lat="45.88287" lon="4.81427">
        <ele>166</ele>
        <time>2018-03-08T12:48:25Z</time>
      </trkpt>
      <trkpt lat="45.8829" lon="4.8142">
        <ele>166</ele>
        <time>2018-03-08T12:48:26Z</time>
      </trkpt>
      <trkpt lat="45.88294" lon="4.81413">
        <ele>168</ele>
        <time>2018-03-08T12:48:27Z</time>
      </trkpt>
      <trkpt lat="45.88297" lon="4.81406">
        <ele>168</ele>
        <time>2018-03-08T12:48:28Z</time>
      </trkpt>
      <trkpt lat="45.883" lon="4.81399">
        <ele>168</ele>
        <time>2018-03-08T12:48:29Z</time>
      </trkpt>
      <trkpt lat="45.88304" lon="4.81392">
        <ele>168</ele>
        <time>2018-03-08T12:48:30Z</time>
      </trkpt>
      <trkpt lat="45.88307" lon="4.81385">
        <ele>168</ele>
        <time>2018-03-08T12:48:31Z</time>
      </trkpt>
      <trkpt lat="45.8831" lon="4.81377">
        <ele>169</ele>
        <time>2018-03-08T12:48:32Z</time>
      </trkpt>
      <trkpt lat="45.88314" lon="4.81368">
        <ele>169</ele>
        <time>2018-03-08T12:48:33Z</time>
      </trkpt>
      <trkpt lat="45.88317" lon="4.81361">
        <ele>169</ele>
        <time>2018-03-08T12:48:34Z</time>
      </trkpt>
      <trkpt lat="45.8832" lon="4.81355">
        <ele>170</ele>
        <time>2018-03-08T12:48:35Z</time>
      </trkpt>
      <trkpt lat="45.88323" lon="4.81349">
        <ele>170</ele>
        <time>2018-03-08T12:48:36Z</time>
      </trkpt>
      <trkpt lat="45.88326" lon="4.81341">
        <ele>171</ele>
        <time>2018-03-08T12:48:37Z</time>
      </trkpt>
      <trkpt lat="45.8833" lon="4.81333">
        <ele>173</ele>
        <time>2018-03-08T12:48:38Z</time>
      </trkpt>
      <trkpt lat="45.88333" lon="4.81326">
        <ele>172</ele>
        <time>2018-03-08T12:48:39Z</time>
      </trkpt>
      <trkpt lat="45.88336" lon="4.81319">
        <ele>171</ele>
        <time>2018-03-08T12:48:40Z</time>
      </trkpt>
      <trkpt lat="45.8834" lon="4.81311">
        <ele>171</ele>
        <time>2018-03-08T12:48:41Z</time>
      </trkpt>
      <trkpt lat="45.88344" lon="4.81305">
        <ele>171</ele>
        <time>2018-03-08T12:48:42Z</time>
      </trkpt>
      <trkpt lat="45.88348" lon="4.81297">
        <ele>170</ele>
        <time>2018-03-08T12:48:43Z</time>
      </trkpt>
      <trkpt lat="45.88351" lon="4.8129">
        <ele>170</ele>
        <time>2018-03-08T12:48:44Z</time>
      </trkpt>
      <trkpt lat="45.88355" lon="4.81283">
        <ele>170</ele>
        <time>2018-03-08T12:48:45Z</time>
      </trkpt>
      <trkpt lat="45.88358" lon="4.81276">
        <ele>170</ele>
        <time>2018-03-08T12:48:46Z</time>
      </trkpt>
      <trkpt lat="45.88361" lon="4.81271">
        <ele>170</ele>
        <time>2018-03-08T12:48:47Z</time>
      </trkpt>
      <trkpt lat="45.88364" lon="4.81264">
        <ele>170</ele>
        <time>2018-03-08T12:48:48Z</time>
      </trkpt>
      <trkpt lat="45.88367" lon="4.81257">
        <ele>170</ele>
        <time>2018-03-08T12:48:49Z</time>
      </trkpt>
      <trkpt lat="45.8837" lon="4.81251">
        <ele>170</ele>
        <time>2018-03-08T12:48:50Z</time>
      </trkpt>
      <trkpt lat="45.88374" lon="4.81244">
        <ele>170</ele>
        <time>2018-03-08T12:48:51Z</time>
      </trkpt>
      <trkpt lat="45.88378" lon="4.81237">
        <ele>170</ele>
        <time>2018-03-08T12:48:52Z</time>
      </trkpt>
      <trkpt lat="45.88382" lon="4.81231">
        <ele>170</ele>
        <time>2018-03-08T12:48:53Z</time>
      </trkpt>
      <trkpt lat="45.88386" lon="4.81225">
        <ele>170</ele>
        <time>2018-03-08T12:48:54Z</time>
      </trkpt>
      <trkpt lat="45.88389" lon="4.81219">
        <ele>170</ele>
        <time>2018-03-08T12:48:55Z</time>
      </trkpt>
      <trkpt lat="45.88393" lon="4.81214">
        <ele>170</ele>
        <time>2018-03-08T12:48:56Z</time>
      </trkpt>
      <trkpt lat="45.88396" lon="4.81209">
        <ele>170</ele>
        <time>2018-03-08T12:48:57Z</time>
      </trkpt>
      <trkpt lat="45.884" lon="4.81204">
        <ele>170</ele>
        <time>2018-03-08T12:48:58Z</time>
      </trkpt>
      <trkpt lat="45.88404" lon="4.81198">
        <ele>170</ele>
        <time>2018-03-08T12:48:59Z</time>
      </trkpt>
      <trkpt lat="45.88409" lon="4.81192">
        <ele>170</ele>
        <time>2018-03-08T12:49:00Z</time>
      </trkpt>
      <trkpt lat="45.88412" lon="4.81186">
        <ele>170</ele>
        <time>2018-03-08T12:49:01Z</time>
      </trkpt>
      <trkpt lat="45.88417" lon="4.81179">
        <ele>169</ele>
        <time>2018-03-08T12:49:02Z</time>
      </trkpt>
      <trkpt lat="45.8842" lon="4.81173">
        <ele>169</ele>
        <time>2018-03-08T12:49:03Z</time>
      </trkpt>
      <trkpt lat="45.88423" lon="4.81168">
        <ele>169</ele>
        <time>2018-03-08T12:49:04Z</time>
      </trkpt>
      <trkpt lat="45.88426" lon="4.81162">
        <ele>169</ele>
        <time>2018-03-08T12:49:05Z</time>
      </trkpt>
      <trkpt lat="45.88429" lon="4.81158">
        <ele>169</ele>
        <time>2018-03-08T12:49:06Z</time>
      </trkpt>
      <trkpt lat="45.88431" lon="4.81152">
        <ele>169</ele>
        <time>2018-03-08T12:49:07Z</time>
      </trkpt>
      <trkpt lat="45.88435" lon="4.81147">
        <ele>168</ele>
        <time>2018-03-08T12:49:08Z</time>
      </trkpt>
      <trkpt lat="45.88439" lon="4.81141">
        <ele>168</ele>
        <time>2018-03-08T12:49:09Z</time>
      </trkpt>
      <trkpt lat="45.88443" lon="4.81136">
        <ele>168</ele>
        <time>2018-03-08T12:49:10Z</time>
      </trkpt>
      <trkpt lat="45.88447" lon="4.8113">
        <ele>168</ele>
        <time>2018-03-08T12:49:11Z</time>
      </trkpt>
      <trkpt lat="45.8845" lon="4.81124">
        <ele>168</ele>
        <time>2018-03-08T12:49:12Z</time>
      </trkpt>
      <trkpt lat="45.88453" lon="4.81119">
        <ele>168</ele>
        <time>2018-03-08T12:49:13Z</time>
      </trkpt>
      <trkpt lat="45.88456" lon="4.81114">
        <ele>168</ele>
        <time>2018-03-08T12:49:14Z</time>
      </trkpt>
      <trkpt lat="45.8846" lon="4.81108">
        <ele>168</ele>
        <time>2018-03-08T12:49:15Z</time>
      </trkpt>
      <trkpt lat="45.88464" lon="4.81103">
        <ele>168</ele>
        <time>2018-03-08T12:49:16Z</time>
      </trkpt>
      <trkpt lat="45.88467" lon="4.81097">
        <ele>168</ele>
        <time>2018-03-08T12:49:17Z</time>
      </trkpt>
      <trkpt lat="45.88471" lon="4.81092">
        <ele>168</ele>
        <time>2018-03-08T12:49:18Z</time>
      </trkpt>
      <trkpt lat="45.88476" lon="4.81085">
        <ele>168</ele>
        <time>2018-03-08T12:49:19Z</time>
      </trkpt>
      <trkpt lat="45.88479" lon="4.8108">
        <ele>168</ele>
        <time>2018-03-08T12:49:20Z</time>
      </trkpt>
      <trkpt lat="45.88484" lon="4.81074">
        <ele>168</ele>
        <time>2018-03-08T12:49:21Z</time>
      </trkpt>
      <trkpt lat="45.88489" lon="4.81068">
        <ele>168</ele>
        <time>2018-03-08T12:49:22Z</time>
      </trkpt>
      <trkpt lat="45.88492" lon="4.81062">
        <ele>168</ele>
        <time>2018-03-08T12:49:23Z</time>
      </trkpt>
      <trkpt lat="45.88496" lon="4.81056">
        <ele>168</ele>
        <time>2018-03-08T12:49:24Z</time>
      </trkpt>
      <trkpt lat="45.88501" lon="4.81049">
        <ele>169</ele>
        <time>2018-03-08T12:49:25Z</time>
      </trkpt>
      <trkpt lat="45.88506" lon="4.81042">
        <ele>169</ele>
        <time>2018-03-08T12:49:26Z</time>
      </trkpt>
      <trkpt lat="45.8851" lon="4.81036">
        <ele>169</ele>
        <time>2018-03-08T12:49:27Z</time>
      </trkpt>
      <trkpt lat="45.88515" lon="4.81029">
        <ele>169</ele>
        <time>2018-03-08T12:49:28Z</time>
      </trkpt>
      <trkpt lat="45.8852" lon="4.81023">
        <ele>169</ele>
        <time>2018-03-08T12:49:29Z</time>
      </trkpt>
      <trkpt lat="45.88525" lon="4.81016">
        <ele>169</ele>
        <time>2018-03-08T12:49:30Z</time>
      </trkpt>
      <trkpt lat="45.8853" lon="4.8101">
        <ele>169</ele>
        <time>2018-03-08T12:49:31Z</time>
      </trkpt>
      <trkpt lat="45.88534" lon="4.81004">
        <ele>169</ele>
        <time>2018-03-08T12:49:32Z</time>
      </trkpt>
      <trkpt lat="45.88539" lon="4.80998">
        <ele>169</ele>
        <time>2018-03-08T12:49:33Z</time>
      </trkpt>
      <trkpt lat="45.88542" lon="4.80994">
        <ele>169</ele>
        <time>2018-03-08T12:49:34Z</time>
      </trkpt>
      <trkpt lat="45.88547" lon="4.80988">
        <ele>169</ele>
        <time>2018-03-08T12:49:35Z</time>
      </trkpt>
      <trkpt lat="45.88552" lon="4.80982">
        <ele>169</ele>
        <time>2018-03-08T12:49:36Z</time>
      </trkpt>
      <trkpt lat="45.88556" lon="4.80977">
        <ele>169</ele>
        <time>2018-03-08T12:49:37Z</time>
      </trkpt>
      <trkpt lat="45.8856" lon="4.80973">
        <ele>169</ele>
        <time>2018-03-08T12:49:38Z</time>
      </trkpt>
      <trkpt lat="45.88564" lon="4.80968">
        <ele>169</ele>
        <time>2018-03-08T12:49:39Z</time>
      </trkpt>
      <trkpt lat="45.88569" lon="4.80962">
        <ele>169</ele>
        <time>2018-03-08T12:49:40Z</time>
      </trkpt>
      <trkpt lat="45.88574" lon="4.80958">
        <ele>169</ele>
        <time>2018-03-08T12:49:41Z</time>
      </trkpt>
      <trkpt lat="45.88577" lon="4.80955">
        <ele>169</ele>
        <time>2018-03-08T12:49:42Z</time>
      </trkpt>
      <trkpt lat="45.88582" lon="4.8095">
        <ele>169</ele>
        <time>2018-03-08T12:49:43Z</time>
      </trkpt>
      <trkpt lat="45.88587" lon="4.80945">
        <ele>169</ele>
        <time>2018-03-08T12:49:44Z</time>
      </trkpt>
      <trkpt lat="45.88591" lon="4.8094">
        <ele>169</ele>
        <time>2018-03-08T12:49:45Z</time>
      </trkpt>
      <trkpt lat="45.88596" lon="4.80934">
        <ele>169</ele>
        <time>2018-03-08T12:49:46Z</time>
      </trkpt>
      <trkpt lat="45.886" lon="4.80928">
        <ele>169</ele>
        <time>2018-03-08T12:49:47Z</time>
      </trkpt>
      <trkpt lat="45.88605" lon="4.80922">
        <ele>169</ele>
        <time>2018-03-08T12:49:48Z</time>
      </trkpt>
      <trkpt lat="45.88609" lon="4.80917">
        <ele>169</ele>
        <time>2018-03-08T12:49:49Z</time>
      </trkpt>
      <trkpt lat="45.88613" lon="4.80913">
        <ele>170</ele>
        <time>2018-03-08T12:49:50Z</time>
      </trkpt>
      <trkpt lat="45.88618" lon="4.80907">
        <ele>171</ele>
        <time>2018-03-08T12:49:51Z</time>
      </trkpt>
      <trkpt lat="45.88622" lon="4.80903">
        <ele>171</ele>
        <time>2018-03-08T12:49:52Z</time>
      </trkpt>
      <trkpt lat="45.88627" lon="4.80897">
        <ele>171</ele>
        <time>2018-03-08T12:49:53Z</time>
      </trkpt>
      <trkpt lat="45.88631" lon="4.80891">
        <ele>171</ele>
        <time>2018-03-08T12:49:54Z</time>
      </trkpt>
      <trkpt lat="45.88635" lon="4.80887">
        <ele>171</ele>
        <time>2018-03-08T12:49:55Z</time>
      </trkpt>
      <trkpt lat="45.88641" lon="4.80881">
        <ele>171</ele>
        <time>2018-03-08T12:49:56Z</time>
      </trkpt>
      <trkpt lat="45.88645" lon="4.80876">
        <ele>171</ele>
        <time>2018-03-08T12:49:57Z</time>
      </trkpt>
      <trkpt lat="45.88651" lon="4.8087">
        <ele>171</ele>
        <time>2018-03-08T12:49:58Z</time>
      </trkpt>
      <trkpt lat="45.88656" lon="4.80866">
        <ele>171</ele>
        <time>2018-03-08T12:49:59Z</time>
      </trkpt>
      <trkpt lat="45.88661" lon="4.80861">
        <ele>171</ele>
        <time>2018-03-08T12:50:00Z</time>
      </trkpt>
      <trkpt lat="45.88665" lon="4.80856">
        <ele>171</ele>
        <time>2018-03-08T12:50:01Z</time>
      </trkpt>
      <trkpt lat="45.88668" lon="4.80852">
        <ele>170</ele>
        <time>2018-03-08T12:50:02Z</time>
      </trkpt>
      <trkpt lat="45.88673" lon="4.80847">
        <ele>170</ele>
        <time>2018-03-08T12:50:03Z</time>
      </trkpt>
      <trkpt lat="45.88677" lon="4.80842">
        <ele>170</ele>
        <time>2018-03-08T12:50:04Z</time>
      </trkpt>
      <trkpt lat="45.88681" lon="4.80838">
        <ele>170</ele>
        <time>2018-03-08T12:50:05Z</time>
      </trkpt>
      <trkpt lat="45.88685" lon="4.80833">
        <ele>171</ele>
        <time>2018-03-08T12:50:06Z</time>
      </trkpt>
      <trkpt lat="45.8869" lon="4.80827">
        <ele>171</ele>
        <time>2018-03-08T12:50:07Z</time>
      </trkpt>
      <trkpt lat="45.88694" lon="4.80823">
        <ele>171</ele>
        <time>2018-03-08T12:50:08Z</time>
      </trkpt>
      <trkpt lat="45.88699" lon="4.80818">
        <ele>171</ele>
        <time>2018-03-08T12:50:09Z</time>
      </trkpt>
      <trkpt lat="45.88704" lon="4.80813">
        <ele>170</ele>
        <time>2018-03-08T12:50:10Z</time>
      </trkpt>
      <trkpt lat="45.88708" lon="4.80808">
        <ele>170</ele>
        <time>2018-03-08T12:50:11Z</time>
      </trkpt>
      <trkpt lat="45.88712" lon="4.80803">
        <ele>170</ele>
        <time>2018-03-08T12:50:12Z</time>
      </trkpt>
      <trkpt lat="45.88717" lon="4.80798">
        <ele>170</ele>
        <time>2018-03-08T12:50:13Z</time>
      </trkpt>
      <trkpt lat="45.88722" lon="4.80794">
        <ele>170</ele>
        <time>2018-03-08T12:50:14Z</time>
      </trkpt>
      <trkpt lat="45.88726" lon="4.80788">
        <ele>170</ele>
        <time>2018-03-08T12:50:15Z</time>
      </trkpt>
      <trkpt lat="45.8873" lon="4.80783">
        <ele>170</ele>
        <time>2018-03-08T12:50:16Z</time>
      </trkpt>
      <trkpt lat="45.88735" lon="4.80778">
        <ele>170</ele>
        <time>2018-03-08T12:50:17Z</time>
      </trkpt>
      <trkpt lat="45.8874" lon="4.80773">
        <ele>170</ele>
        <time>2018-03-08T12:50:18Z</time>
      </trkpt>
      <trkpt lat="45.88744" lon="4.80768">
        <ele>170</ele>
        <time>2018-03-08T12:50:19Z</time>
      </trkpt>
      <trkpt lat="45.88748" lon="4.80763">
        <ele>170</ele>
        <time>2018-03-08T12:50:20Z</time>
      </trkpt>
      <trkpt lat="45.88753" lon="4.80758">
        <ele>169</ele>
        <time>2018-03-08T12:50:21Z</time>
      </trkpt>
      <trkpt lat="45.88757" lon="4.80753">
        <ele>169</ele>
        <time>2018-03-08T12:50:22Z</time>
      </trkpt>
      <trkpt lat="45.88762" lon="4.80748">
        <ele>170</ele>
        <time>2018-03-08T12:50:23Z</time>
      </trkpt>
      <trkpt lat="45.88766" lon="4.80743">
        <ele>170</ele>
        <time>2018-03-08T12:50:24Z</time>
      </trkpt>
      <trkpt lat="45.88771" lon="4.80738">
        <ele>171</ele>
        <time>2018-03-08T12:50:25Z</time>
      </trkpt>
      <trkpt lat="45.88775" lon="4.80734">
        <ele>171</ele>
        <time>2018-03-08T12:50:26Z</time>
      </trkpt>
      <trkpt lat="45.8878" lon="4.80729">
        <ele>171</ele>
        <time>2018-03-08T12:50:27Z</time>
      </trkpt>
      <trkpt lat="45.88784" lon="4.80724">
        <ele>171</ele>
        <time>2018-03-08T12:50:28Z</time>
      </trkpt>
      <trkpt lat="45.88788" lon="4.80719">
        <ele>172</ele>
        <time>2018-03-08T12:50:29Z</time>
      </trkpt>
      <trkpt lat="45.88793" lon="4.80714">
        <ele>172</ele>
        <time>2018-03-08T12:50:30Z</time>
      </trkpt>
      <trkpt lat="45.88798" lon="4.80709">
        <ele>172</ele>
        <time>2018-03-08T12:50:31Z</time>
      </trkpt>
      <trkpt lat="45.88803" lon="4.80703">
        <ele>172</ele>
        <time>2018-03-08T12:50:32Z</time>
      </trkpt>
      <trkpt lat="45.88807" lon="4.80698">
        <ele>172</ele>
        <time>2018-03-08T12:50:33Z</time>
      </trkpt>
      <trkpt lat="45.88812" lon="4.80693">
        <ele>172</ele>
        <time>2018-03-08T12:50:34Z</time>
      </trkpt>
      <trkpt lat="45.88816" lon="4.80688">
        <ele>172</ele>
        <time>2018-03-08T12:50:35Z</time>
      </trkpt>
      <trkpt lat="45.88822" lon="4.80682">
        <ele>172</ele>
        <time>2018-03-08T12:50:36Z</time>
      </trkpt>
      <trkpt lat="45.88827" lon="4.80678">
        <ele>173</ele>
        <time>2018-03-08T12:50:37Z</time>
      </trkpt>
      <trkpt lat="45.88831" lon="4.80673">
        <ele>173</ele>
        <time>2018-03-08T12:50:38Z</time>
      </trkpt>
      <trkpt lat="45.88836" lon="4.80669">
        <ele>173</ele>
        <time>2018-03-08T12:50:39Z</time>
      </trkpt>
      <trkpt lat="45.88842" lon="4.80665">
        <ele>173</ele>
        <time>2018-03-08T12:50:40Z</time>
      </trkpt>
      <trkpt lat="45.88847" lon="4.8066">
        <ele>173</ele>
        <time>2018-03-08T12:50:41Z</time>
      </trkpt>
      <trkpt lat="45.88852" lon="4.80654">
        <ele>173</ele>
        <time>2018-03-08T12:50:42Z</time>
      </trkpt>
      <trkpt lat="45.88857" lon="4.80649">
        <ele>172</ele>
        <time>2018-03-08T12:50:43Z</time>
      </trkpt>
      <trkpt lat="45.88862" lon="4.80645">
        <ele>172</ele>
        <time>2018-03-08T12:50:44Z</time>
      </trkpt>
      <trkpt lat="45.88868" lon="4.80642">
        <ele>172</ele>
        <time>2018-03-08T12:50:45Z</time>
      </trkpt>
      <trkpt lat="45.88873" lon="4.80639">
        <ele>172</ele>
        <time>2018-03-08T12:50:46Z</time>
      </trkpt>
      <trkpt lat="45.88877" lon="4.80635">
        <ele>172</ele>
        <time>2018-03-08T12:50:47Z</time>
      </trkpt>
      <trkpt lat="45.88881" lon="4.80632">
        <ele>172</ele>
        <time>2018-03-08T12:50:48Z</time>
      </trkpt>
      <trkpt lat="45.88886" lon="4.80627">
        <ele>172</ele>
        <time>2018-03-08T12:50:49Z</time>
      </trkpt>
      <trkpt lat="45.88891" lon="4.80624">
        <ele>172</ele>
        <time>2018-03-08T12:50:50Z</time>
      </trkpt>
      <trkpt lat="45.88895" lon="4.80622">
        <ele>172</ele>
        <time>2018-03-08T12:50:51Z</time>
      </trkpt>
      <trkpt lat="45.889" lon="4.80619">
        <ele>172</ele>
        <time>2018-03-08T12:50:52Z</time>
      </trkpt>
      <trkpt lat="45.88905" lon="4.80615">
        <ele>172</ele>
        <time>2018-03-08T12:50:53Z</time>
      </trkpt>
      <trkpt lat="45.8891" lon="4.80611">
        <ele>172</ele>
        <time>2018-03-08T12:50:54Z</time>
      </trkpt>
      <trkpt lat="45.88916" lon="4.80608">
        <ele>172</ele>
        <time>2018-03-08T12:50:55Z</time>
      </trkpt>
      <trkpt lat="45.8892" lon="4.80604">
        <ele>170</ele>
        <time>2018-03-08T12:50:56Z</time>
      </trkpt>
      <trkpt lat="45.88925" lon="4.80599">
        <ele>170</ele>
        <time>2018-03-08T12:50:57Z</time>
      </trkpt>
      <trkpt lat="45.8893" lon="4.80595">
        <ele>170</ele>
        <time>2018-03-08T12:50:58Z</time>
      </trkpt>
      <trkpt lat="45.88935" lon="4.80592">
        <ele>170</ele>
        <time>2018-03-08T12:50:59Z</time>
      </trkpt>
      <trkpt lat="45.8894" lon="4.80588">
        <ele>170</ele>
        <time>2018-03-08T12:51:00Z</time>
      </trkpt>
      <trkpt lat="45.88945" lon="4.80586">
        <ele>170</ele>
        <time>2018-03-08T12:51:01Z</time>
      </trkpt>
      <trkpt lat="45.8895" lon="4.80583">
        <ele>170</ele>
        <time>2018-03-08T12:51:02Z</time>
      </trkpt>
      <trkpt lat="45.88956" lon="4.80581">
        <ele>172</ele>
        <time>2018-03-08T12:51:03Z</time>
      </trkpt>
      <trkpt lat="45.88961" lon="4.80578">
        <ele>172</ele>
        <time>2018-03-08T12:51:04Z</time>
      </trkpt>
      <trkpt lat="45.88967" lon="4.80577">
        <ele>172</ele>
        <time>2018-03-08T12:51:05Z</time>
      </trkpt>
      <trkpt lat="45.88971" lon="4.80574">
        <ele>172</ele>
        <time>2018-03-08T12:51:06Z</time>
      </trkpt>
      <trkpt lat="45.88977" lon="4.80573">
        <ele>172</ele>
        <time>2018-03-08T12:51:07Z</time>
      </trkpt>
      <trkpt lat="45.88982" lon="4.80571">
        <ele>172</ele>
        <time>2018-03-08T12:51:08Z</time>
      </trkpt>
      <trkpt lat="45.88988" lon="4.80569">
        <ele>172</ele>
        <time>2018-03-08T12:51:09Z</time>
      </trkpt>
      <trkpt lat="45.88993" lon="4.80568">
        <ele>172</ele>
        <time>2018-03-08T12:51:10Z</time>
      </trkpt>
      <trkpt lat="45.88999" lon="4.80566">
        <ele>172</ele>
        <time>2018-03-08T12:51:11Z</time>
      </trkpt>
      <trkpt lat="45.89004" lon="4.80563">
        <ele>172</ele>
        <time>2018-03-08T12:51:12Z</time>
      </trkpt>
      <trkpt lat="45.8901" lon="4.80561">
        <ele>172</ele>
        <time>2018-03-08T12:51:13Z</time>
      </trkpt>
      <trkpt lat="45.89015" lon="4.8056">
        <ele>172</ele>
        <time>2018-03-08T12:51:14Z</time>
      </trkpt>
      <trkpt lat="45.89021" lon="4.80557">
        <ele>172</ele>
        <time>2018-03-08T12:51:15Z</time>
      </trkpt>
      <trkpt lat="45.89026" lon="4.80555">
        <ele>172</ele>
        <time>2018-03-08T12:51:16Z</time>
      </trkpt>
      <trkpt lat="45.89032" lon="4.80553">
        <ele>173</ele>
        <time>2018-03-08T12:51:17Z</time>
      </trkpt>
      <trkpt lat="45.89038" lon="4.8055">
        <ele>173</ele>
        <time>2018-03-08T12:51:18Z</time>
      </trkpt>
      <trkpt lat="45.89044" lon="4.80548">
        <ele>173</ele>
        <time>2018-03-08T12:51:19Z</time>
      </trkpt>
      <trkpt lat="45.8905" lon="4.80546">
        <ele>173</ele>
        <time>2018-03-08T12:51:20Z</time>
      </trkpt>
      <trkpt lat="45.89056" lon="4.80543">
        <ele>173</ele>
        <time>2018-03-08T12:51:21Z</time>
      </trkpt>
      <trkpt lat="45.89061" lon="4.80542">
        <ele>173</ele>
        <time>2018-03-08T12:51:22Z</time>
      </trkpt>
      <trkpt lat="45.89065" lon="4.80539">
        <ele>173</ele>
        <time>2018-03-08T12:51:23Z</time>
      </trkpt>
      <trkpt lat="45.8907" lon="4.80538">
        <ele>173</ele>
        <time>2018-03-08T12:51:24Z</time>
      </trkpt>
      <trkpt lat="45.89076" lon="4.80537">
        <ele>173</ele>
        <time>2018-03-08T12:51:25Z</time>
      </trkpt>
      <trkpt lat="45.89082" lon="4.80535">
        <ele>173</ele>
        <time>2018-03-08T12:51:26Z</time>
      </trkpt>
      <trkpt lat="45.89087" lon="4.80533">
        <ele>173</ele>
        <time>2018-03-08T12:51:27Z</time>
      </trkpt>
      <trkpt lat="45.89092" lon="4.80531">
        <ele>173</ele>
        <time>2018-03-08T12:51:28Z</time>
      </trkpt>
      <trkpt lat="45.89098" lon="4.8053">
        <ele>173</ele>
        <time>2018-03-08T12:51:29Z</time>
      </trkpt>
      <trkpt lat="45.89103" lon="4.80528">
        <ele>173</ele>
        <time>2018-03-08T12:51:30Z</time>
      </trkpt>
      <trkpt lat="45.89108" lon="4.80528">
        <ele>173</ele>
        <time>2018-03-08T12:51:31Z</time>
      </trkpt>
      <trkpt lat="45.89114" lon="4.80525">
        <ele>173</ele>
        <time>2018-03-08T12:51:32Z</time>
      </trkpt>
      <trkpt lat="45.89119" lon="4.80523">
        <ele>173</ele>
        <time>2018-03-08T12:51:33Z</time>
      </trkpt>
      <trkpt lat="45.89123" lon="4.8052">
        <ele>173</ele>
        <time>2018-03-08T12:51:34Z</time>
      </trkpt>
      <trkpt lat="45.89129" lon="4.80517">
        <ele>173</ele>
        <time>2018-03-08T12:51:35Z</time>
      </trkpt>
      <trkpt lat="45.89135" lon="4.80513">
        <ele>173</ele>
        <time>2018-03-08T12:51:36Z</time>
      </trkpt>
      <trkpt lat="45.8914" lon="4.80511">
        <ele>173</ele>
        <time>2018-03-08T12:51:37Z</time>
      </trkpt>
      <trkpt lat="45.89146" lon="4.80508">
        <ele>173</ele>
        <time>2018-03-08T12:51:38Z</time>
      </trkpt>
      <trkpt lat="45.89153" lon="4.80505">
        <ele>173</ele>
        <time>2018-03-08T12:51:39Z</time>
      </trkpt>
      <trkpt lat="45.89159" lon="4.805">
        <ele>173</ele>
        <time>2018-03-08T12:51:40Z</time>
      </trkpt>
      <trkpt lat="45.89165" lon="4.80497">
        <ele>174</ele>
        <time>2018-03-08T12:51:41Z</time>
      </trkpt>
      <trkpt lat="45.89169" lon="4.80493">
        <ele>173</ele>
        <time>2018-03-08T12:51:42Z</time>
      </trkpt>
      <trkpt lat="45.89174" lon="4.80489">
        <ele>173</ele>
        <time>2018-03-08T12:51:43Z</time>
      </trkpt>
      <trkpt lat="45.89179" lon="4.80485">
        <ele>173</ele>
        <time>2018-03-08T12:51:44Z</time>
      </trkpt>
      <trkpt lat="45.89185" lon="4.80481">
        <ele>173</ele>
        <time>2018-03-08T12:51:45Z</time>
      </trkpt>
      <trkpt lat="45.8919" lon="4.80476">
        <ele>173</ele>
        <time>2018-03-08T12:51:46Z</time>
      </trkpt>
      <trkpt lat="45.89194" lon="4.80472">
        <ele>173</ele>
        <time>2018-03-08T12:51:47Z</time>
      </trkpt>
      <trkpt lat="45.89199" lon="4.80468">
        <ele>173</ele>
        <time>2018-03-08T12:51:48Z</time>
      </trkpt>
      <trkpt lat="45.89203" lon="4.80464">
        <ele>173</ele>
        <time>2018-03-08T12:51:49Z</time>
      </trkpt>
      <trkpt lat="45.89208" lon="4.8046">
        <ele>173</ele>
        <time>2018-03-08T12:51:50Z</time>
      </trkpt>
      <trkpt lat="45.89214" lon="4.80455">
        <ele>173</ele>
        <time>2018-03-08T12:51:51Z</time>
      </trkpt>
      <trkpt lat="45.89218" lon="4.80451">
        <ele>173</ele>
        <time>2018-03-08T12:51:52Z</time>
      </trkpt>
      <trkpt lat="45.89222" lon="4.80446">
        <ele>173</ele>
        <time>2018-03-08T12:51:53Z</time>
      </trkpt>
      <trkpt lat="45.89226" lon="4.80442">
        <ele>173</ele>
        <time>2018-03-08T12:51:54Z</time>
      </trkpt>
      <trkpt lat="45.89231" lon="4.80438">
        <ele>173</ele>
        <time>2018-03-08T12:51:55Z</time>
      </trkpt>
      <trkpt lat="45.89235" lon="4.80433">
        <ele>173</ele>
        <time>2018-03-08T12:51:56Z</time>
      </trkpt>
      <trkpt lat="45.8924" lon="4.80428">
        <ele>173</ele>
        <time>2018-03-08T12:51:57Z</time>
      </trkpt>
      <trkpt lat="45.89246" lon="4.80424">
        <ele>173</ele>
        <time>2018-03-08T12:51:58Z</time>
      </trkpt>
      <trkpt lat="45.89251" lon="4.80419">
        <ele>173</ele>
        <time>2018-03-08T12:51:59Z</time>
      </trkpt>
      <trkpt lat="45.89257" lon="4.80415">
        <ele>173</ele>
        <time>2018-03-08T12:52:00Z</time>
      </trkpt>
      <trkpt lat="45.89263" lon="4.8041">
        <ele>173</ele>
        <time>2018-03-08T12:52:01Z</time>
      </trkpt>
      <trkpt lat="45.89268" lon="4.80405">
        <ele>174</ele>
        <time>2018-03-08T12:52:02Z</time>
      </trkpt>
      <trkpt lat="45.89273" lon="4.80401">
        <ele>174</ele>
        <time>2018-03-08T12:52:03Z</time>
      </trkpt>
      <trkpt lat="45.89278" lon="4.80396">
        <ele>174</ele>
        <time>2018-03-08T12:52:04Z</time>
      </trkpt>
      <trkpt lat="45.89283" lon="4.8039">
        <ele>174</ele>
        <time>2018-03-08T12:52:05Z</time>
      </trkpt>
      <trkpt lat="45.89288" lon="4.80385">
        <ele>174</ele>
        <time>2018-03-08T12:52:06Z</time>
      </trkpt>
      <trkpt lat="45.89295" lon="4.80379">
        <ele>174</ele>
        <time>2018-03-08T12:52:07Z</time>
      </trkpt>
      <trkpt lat="45.893" lon="4.80375">
        <ele>174</ele>
        <time>2018-03-08T12:52:08Z</time>
      </trkpt>
      <trkpt lat="45.89304" lon="4.80371">
        <ele>174</ele>
        <time>2018-03-08T12:52:09Z</time>
      </trkpt>
      <trkpt lat="45.89309" lon="4.80368">
        <ele>174</ele>
        <time>2018-03-08T12:52:10Z</time>
      </trkpt>
      <trkpt lat="45.89313" lon="4.80363">
        <ele>174</ele>
        <time>2018-03-08T12:52:11Z</time>
      </trkpt>
      <trkpt lat="45.89318" lon="4.8036">
        <ele>174</ele>
        <time>2018-03-08T12:52:12Z</time>
      </trkpt>
      <trkpt lat="45.89322" lon="4.80356">
        <ele>174</ele>
        <time>2018-03-08T12:52:13Z</time>
      </trkpt>
      <trkpt lat="45.89327" lon="4.80351">
        <ele>174</ele>
        <time>2018-03-08T12:52:14Z</time>
      </trkpt>
      <trkpt lat="45.89331" lon="4.80347">
        <ele>175</ele>
        <time>2018-03-08T12:52:15Z</time>
      </trkpt>
      <trkpt lat="45.89336" lon="4.80343">
        <ele>174</ele>
        <time>2018-03-08T12:52:16Z</time>
      </trkpt>
      <trkpt lat="45.8934" lon="4.80339">
        <ele>174</ele>
        <time>2018-03-08T12:52:17Z</time>
      </trkpt>
      <trkpt lat="45.89345" lon="4.80334">
        <ele>174</ele>
        <time>2018-03-08T12:52:18Z</time>
      </trkpt>
      <trkpt lat="45.89349" lon="4.8033">
        <ele>176</ele>
        <time>2018-03-08T12:52:19Z</time>
      </trkpt>
      <trkpt lat="45.89354" lon="4.80326">
        <ele>176</ele>
        <time>2018-03-08T12:52:20Z</time>
      </trkpt>
      <trkpt lat="45.89359" lon="4.80322">
        <ele>176</ele>
        <time>2018-03-08T12:52:21Z</time>
      </trkpt>
      <trkpt lat="45.89364" lon="4.80318">
        <ele>176</ele>
        <time>2018-03-08T12:52:22Z</time>
      </trkpt>
      <trkpt lat="45.89373" lon="4.8031">
        <ele>176</ele>
        <time>2018-03-08T12:52:23Z</time>
      </trkpt>
      <trkpt lat="45.89378" lon="4.80306">
        <ele>176</ele>
        <time>2018-03-08T12:52:24Z</time>
      </trkpt>
      <trkpt lat="45.89383" lon="4.80302">
        <ele>176</ele>
        <time>2018-03-08T12:52:25Z</time>
      </trkpt>
      <trkpt lat="45.89388" lon="4.80299">
        <ele>176</ele>
        <time>2018-03-08T12:52:26Z</time>
      </trkpt>
      <trkpt lat="45.89394" lon="4.80295">
        <ele>176</ele>
        <time>2018-03-08T12:52:27Z</time>
      </trkpt>
      <trkpt lat="45.89399" lon="4.80292">
        <ele>176</ele>
        <time>2018-03-08T12:52:28Z</time>
      </trkpt>
      <trkpt lat="45.89404" lon="4.80288">
        <ele>176</ele>
        <time>2018-03-08T12:52:29Z</time>
      </trkpt>
      <trkpt lat="45.89409" lon="4.80285">
        <ele>177</ele>
        <time>2018-03-08T12:52:30Z</time>
      </trkpt>
      <trkpt lat="45.89414" lon="4.80282">
        <ele>177</ele>
        <time>2018-03-08T12:52:31Z</time>
      </trkpt>
      <trkpt lat="45.89419" lon="4.80279">
        <ele>175</ele>
        <time>2018-03-08T12:52:32Z</time>
      </trkpt>
      <trkpt lat="45.89425" lon="4.80276">
        <ele>175</ele>
        <time>2018-03-08T12:52:33Z</time>
      </trkpt>
      <trkpt lat="45.8943" lon="4.80272">
        <ele>175</ele>
        <time>2018-03-08T12:52:34Z</time>
      </trkpt>
      <trkpt lat="45.89436" lon="4.80269">
        <ele>175</ele>
        <time>2018-03-08T12:52:35Z</time>
      </trkpt>
      <trkpt lat="45.8944" lon="4.80266">
        <ele>175</ele>
        <time>2018-03-08T12:52:36Z</time>
      </trkpt>
      <trkpt lat="45.89445" lon="4.80264">
        <ele>175</ele>
        <time>2018-03-08T12:52:37Z</time>
      </trkpt>
      <trkpt lat="45.89451" lon="4.80261">
        <ele>175</ele>
        <time>2018-03-08T12:52:38Z</time>
      </trkpt>
      <trkpt lat="45.89456" lon="4.80257">
        <ele>174</ele>
        <time>2018-03-08T12:52:39Z</time>
      </trkpt>
      <trkpt lat="45.89461" lon="4.80254">
        <ele>174</ele>
        <time>2018-03-08T12:52:40Z</time>
      </trkpt>
      <trkpt lat="45.89467" lon="4.8025">
        <ele>174</ele>
        <time>2018-03-08T12:52:41Z</time>
      </trkpt>
      <trkpt lat="45.89472" lon="4.80247">
        <ele>176</ele>
        <time>2018-03-08T12:52:42Z</time>
      </trkpt>
      <trkpt lat="45.89477" lon="4.80246">
        <ele>175</ele>
        <time>2018-03-08T12:52:43Z</time>
      </trkpt>
      <trkpt lat="45.89482" lon="4.80244">
        <ele>175</ele>
        <time>2018-03-08T12:52:44Z</time>
      </trkpt>
      <trkpt lat="45.89487" lon="4.80242">
        <ele>175</ele>
        <time>2018-03-08T12:52:45Z</time>
      </trkpt>
      <trkpt lat="45.89493" lon="4.80239">
        <ele>174</ele>
        <time>2018-03-08T12:52:46Z</time>
      </trkpt>
      <trkpt lat="45.89498" lon="4.80236">
        <ele>174</ele>
        <time>2018-03-08T12:52:47Z</time>
      </trkpt>
      <trkpt lat="45.89503" lon="4.80234">
        <ele>173</ele>
        <time>2018-03-08T12:52:48Z</time>
      </trkpt>
      <trkpt lat="45.89509" lon="4.80232">
        <ele>173</ele>
        <time>2018-03-08T12:52:49Z</time>
      </trkpt>
      <trkpt lat="45.89515" lon="4.80229">
        <ele>173</ele>
        <time>2018-03-08T12:52:50Z</time>
      </trkpt>
      <trkpt lat="45.89521" lon="4.80227">
        <ele>173</ele>
        <time>2018-03-08T12:52:51Z</time>
      </trkpt>
      <trkpt lat="45.89526" lon="4.80224">
        <ele>173</ele>
        <time>2018-03-08T12:52:52Z</time>
      </trkpt>
      <trkpt lat="45.89532" lon="4.80221">
        <ele>173</ele>
        <time>2018-03-08T12:52:53Z</time>
      </trkpt>
      <trkpt lat="45.89539" lon="4.80219">
        <ele>173</ele>
        <time>2018-03-08T12:52:54Z</time>
      </trkpt>
      <trkpt lat="45.89545" lon="4.80217">
        <ele>173</ele>
        <time>2018-03-08T12:52:55Z</time>
      </trkpt>
      <trkpt lat="45.8955" lon="4.80214">
        <ele>173</ele>
        <time>2018-03-08T12:52:56Z</time>
      </trkpt>
      <trkpt lat="45.89556" lon="4.80211">
        <ele>173</ele>
        <time>2018-03-08T12:52:57Z</time>
      </trkpt>
      <trkpt lat="45.89562" lon="4.80209">
        <ele>173</ele>
        <time>2018-03-08T12:52:58Z</time>
      </trkpt>
      <trkpt lat="45.89568" lon="4.80206">
        <ele>173</ele>
        <time>2018-03-08T12:52:59Z</time>
      </trkpt>
      <trkpt lat="45.89574" lon="4.80205">
        <ele>173</ele>
        <time>2018-03-08T12:53:00Z</time>
      </trkpt>
      <trkpt lat="45.89579" lon="4.80201">
        <ele>173</ele>
        <time>2018-03-08T12:53:01Z</time>
      </trkpt>
      <trkpt lat="45.89585" lon="4.80198">
        <ele>172</ele>
        <time>2018-03-08T12:53:02Z</time>
      </trkpt>
      <trkpt lat="45.8959" lon="4.80197">
        <ele>172</ele>
        <time>2018-03-08T12:53:03Z</time>
      </trkpt>
      <trkpt lat="45.89596" lon="4.80195">
        <ele>172</ele>
        <time>2018-03-08T12:53:04Z</time>
      </trkpt>
      <trkpt lat="45.89602" lon="4.80193">
        <ele>172</ele>
        <time>2018-03-08T12:53:05Z</time>
      </trkpt>
      <trkpt lat="45.89607" lon="4.80191">
        <ele>172</ele>
        <time>2018-03-08T12:53:06Z</time>
      </trkpt>
      <trkpt lat="45.89613" lon="4.80188">
        <ele>172</ele>
        <time>2018-03-08T12:53:07Z</time>
      </trkpt>
      <trkpt lat="45.89619" lon="4.80186">
        <ele>172</ele>
        <time>2018-03-08T12:53:08Z</time>
      </trkpt>
      <trkpt lat="45.89625" lon="4.80184">
        <ele>172</ele>
        <time>2018-03-08T12:53:09Z</time>
      </trkpt>
      <trkpt lat="45.89631" lon="4.80181">
        <ele>172</ele>
        <time>2018-03-08T12:53:10Z</time>
      </trkpt>
      <trkpt lat="45.89636" lon="4.80179">
        <ele>172</ele>
        <time>2018-03-08T12:53:11Z</time>
      </trkpt>
      <trkpt lat="45.89641" lon="4.80176">
        <ele>172</ele>
        <time>2018-03-08T12:53:12Z</time>
      </trkpt>
      <trkpt lat="45.89647" lon="4.80174">
        <ele>172</ele>
        <time>2018-03-08T12:53:13Z</time>
      </trkpt>
      <trkpt lat="45.89652" lon="4.80171">
        <ele>172</ele>
        <time>2018-03-08T12:53:14Z</time>
      </trkpt>
      <trkpt lat="45.89658" lon="4.80169">
        <ele>173</ele>
        <time>2018-03-08T12:53:15Z</time>
      </trkpt>
      <trkpt lat="45.89664" lon="4.80166">
        <ele>173</ele>
        <time>2018-03-08T12:53:16Z</time>
      </trkpt>
      <trkpt lat="45.8967" lon="4.80163">
        <ele>173</ele>
        <time>2018-03-08T12:53:17Z</time>
      </trkpt>
      <trkpt lat="45.89676" lon="4.80161">
        <ele>172</ele>
        <time>2018-03-08T12:53:18Z</time>
      </trkpt>
      <trkpt lat="45.89683" lon="4.80158">
        <ele>172</ele>
        <time>2018-03-08T12:53:19Z</time>
      </trkpt>
      <trkpt lat="45.8969" lon="4.80155">
        <ele>172</ele>
        <time>2018-03-08T12:53:20Z</time>
      </trkpt>
      <trkpt lat="45.89696" lon="4.80152">
        <ele>172</ele>
        <time>2018-03-08T12:53:21Z</time>
      </trkpt>
      <trkpt lat="45.89701" lon="4.80149">
        <ele>171</ele>
        <time>2018-03-08T12:53:22Z</time>
      </trkpt>
      <trkpt lat="45.89708" lon="4.80147">
        <ele>171</ele>
        <time>2018-03-08T12:53:23Z</time>
      </trkpt>
      <trkpt lat="45.89714" lon="4.80144">
        <ele>171</ele>
        <time>2018-03-08T12:53:24Z</time>
      </trkpt>
      <trkpt lat="45.8972" lon="4.80141">
        <ele>171</ele>
        <time>2018-03-08T12:53:25Z</time>
      </trkpt>
      <trkpt lat="45.89726" lon="4.80137">
        <ele>171</ele>
        <time>2018-03-08T12:53:26Z</time>
      </trkpt>
      <trkpt lat="45.89732" lon="4.80135">
        <ele>171</ele>
        <time>2018-03-08T12:53:27Z</time>
      </trkpt>
      <trkpt lat="45.89739" lon="4.80133">
        <ele>171</ele>
        <time>2018-03-08T12:53:28Z</time>
      </trkpt>
      <trkpt lat="45.89744" lon="4.80131">
        <ele>171</ele>
        <time>2018-03-08T12:53:29Z</time>
      </trkpt>
      <trkpt lat="45.89752" lon="4.80129">
        <ele>169</ele>
        <time>2018-03-08T12:53:30Z</time>
      </trkpt>
      <trkpt lat="45.89757" lon="4.80127">
        <ele>169</ele>
        <time>2018-03-08T12:53:31Z</time>
      </trkpt>
      <trkpt lat="45.89762" lon="4.80125">
        <ele>169</ele>
        <time>2018-03-08T12:53:32Z</time>
      </trkpt>
      <trkpt lat="45.89767" lon="4.80123">
        <ele>169</ele>
        <time>2018-03-08T12:53:33Z</time>
      </trkpt>
      <trkpt lat="45.89772" lon="4.80122">
        <ele>169</ele>
        <time>2018-03-08T12:53:34Z</time>
      </trkpt>
      <trkpt lat="45.89777" lon="4.8012">
        <ele>169</ele>
        <time>2018-03-08T12:53:35Z</time>
      </trkpt>
      <trkpt lat="45.89783" lon="4.80117">
        <ele>169</ele>
        <time>2018-03-08T12:53:36Z</time>
      </trkpt>
      <trkpt lat="45.89789" lon="4.80114">
        <ele>169</ele>
        <time>2018-03-08T12:53:37Z</time>
      </trkpt>
      <trkpt lat="45.89795" lon="4.80112">
        <ele>169</ele>
        <time>2018-03-08T12:53:38Z</time>
      </trkpt>
      <trkpt lat="45.89801" lon="4.80109">
        <ele>169</ele>
        <time>2018-03-08T12:53:39Z</time>
      </trkpt>
      <trkpt lat="45.89806" lon="4.80107">
        <ele>169</ele>
        <time>2018-03-08T12:53:40Z</time>
      </trkpt>
      <trkpt lat="45.89812" lon="4.80104">
        <ele>169</ele>
        <time>2018-03-08T12:53:41Z</time>
      </trkpt>
      <trkpt lat="45.89818" lon="4.80101">
        <ele>169</ele>
        <time>2018-03-08T12:53:42Z</time>
      </trkpt>
      <trkpt lat="45.89823" lon="4.80098">
        <ele>170</ele>
        <time>2018-03-08T12:53:43Z</time>
      </trkpt>
      <trkpt lat="45.89829" lon="4.80096">
        <ele>170</ele>
        <time>2018-03-08T12:53:44Z</time>
      </trkpt>
      <trkpt lat="45.89834" lon="4.80094">
        <ele>170</ele>
        <time>2018-03-08T12:53:45Z</time>
      </trkpt>
      <trkpt lat="45.8984" lon="4.80093">
        <ele>170</ele>
        <time>2018-03-08T12:53:46Z</time>
      </trkpt>
      <trkpt lat="45.89846" lon="4.80091">
        <ele>170</ele>
        <time>2018-03-08T12:53:47Z</time>
      </trkpt>
      <trkpt lat="45.89852" lon="4.80088">
        <ele>170</ele>
        <time>2018-03-08T12:53:48Z</time>
      </trkpt>
      <trkpt lat="45.89857" lon="4.80086">
        <ele>170</ele>
        <time>2018-03-08T12:53:49Z</time>
      </trkpt>
      <trkpt lat="45.89862" lon="4.80084">
        <ele>170</ele>
        <time>2018-03-08T12:53:50Z</time>
      </trkpt>
      <trkpt lat="45.89868" lon="4.80081">
        <ele>170</ele>
        <time>2018-03-08T12:53:51Z</time>
      </trkpt>
      <trkpt lat="45.89873" lon="4.80078">
        <ele>170</ele>
        <time>2018-03-08T12:53:52Z</time>
      </trkpt>
      <trkpt lat="45.89878" lon="4.80075">
        <ele>170</ele>
        <time>2018-03-08T12:53:53Z</time>
      </trkpt>
      <trkpt lat="45.89885" lon="4.80072">
        <ele>170</ele>
        <time>2018-03-08T12:53:54Z</time>
      </trkpt>
      <trkpt lat="45.8989" lon="4.80069">
        <ele>170</ele>
        <time>2018-03-08T12:53:55Z</time>
      </trkpt>
      <trkpt lat="45.89896" lon="4.80067">
        <ele>170</ele>
        <time>2018-03-08T12:53:56Z</time>
      </trkpt>
      <trkpt lat="45.89902" lon="4.80065">
        <ele>170</ele>
        <time>2018-03-08T12:53:57Z</time>
      </trkpt>
      <trkpt lat="45.89908" lon="4.80063">
        <ele>170</ele>
        <time>2018-03-08T12:53:58Z</time>
      </trkpt>
      <trkpt lat="45.89914" lon="4.8006">
        <ele>170</ele>
        <time>2018-03-08T12:53:59Z</time>
      </trkpt>
      <trkpt lat="45.89919" lon="4.80058">
        <ele>170</ele>
        <time>2018-03-08T12:54:00Z</time>
      </trkpt>
      <trkpt lat="45.89925" lon="4.80055">
        <ele>170</ele>
        <time>2018-03-08T12:54:01Z</time>
      </trkpt>
      <trkpt lat="45.89931" lon="4.80053">
        <ele>170</ele>
        <time>2018-03-08T12:54:02Z</time>
      </trkpt>
      <trkpt lat="45.89936" lon="4.80051">
        <ele>170</ele>
        <time>2018-03-08T12:54:03Z</time>
      </trkpt>
      <trkpt lat="45.89942" lon="4.80047">
        <ele>170</ele>
        <time>2018-03-08T12:54:04Z</time>
      </trkpt>
      <trkpt lat="45.89948" lon="4.80046">
        <ele>170</ele>
        <time>2018-03-08T12:54:05Z</time>
      </trkpt>
      <trkpt lat="45.89953" lon="4.80043">
        <ele>170</ele>
        <time>2018-03-08T12:54:06Z</time>
      </trkpt>
      <trkpt lat="45.89959" lon="4.80042">
        <ele>170</ele>
        <time>2018-03-08T12:54:07Z</time>
      </trkpt>
      <trkpt lat="45.89964" lon="4.8004">
        <ele>170</ele>
        <time>2018-03-08T12:54:08Z</time>
      </trkpt>
      <trkpt lat="45.8997" lon="4.80038">
        <ele>170</ele>
        <time>2018-03-08T12:54:09Z</time>
      </trkpt>
      <trkpt lat="45.89975" lon="4.80036">
        <ele>170</ele>
        <time>2018-03-08T12:54:10Z</time>
      </trkpt>
      <trkpt lat="45.89982" lon="4.80034">
        <ele>170</ele>
        <time>2018-03-08T12:54:11Z</time>
      </trkpt>
      <trkpt lat="45.89987" lon="4.80031">
        <ele>170</ele>
        <time>2018-03-08T12:54:12Z</time>
      </trkpt>
      <trkpt lat="45.89993" lon="4.80029">
        <ele>170</ele>
        <time>2018-03-08T12:54:13Z</time>
      </trkpt>
      <trkpt lat="45.89999" lon="4.80027">
        <ele>171</ele>
        <time>2018-03-08T12:54:14Z</time>
      </trkpt>
      <trkpt lat="45.90004" lon="4.80025">
        <ele>170</ele>
        <time>2018-03-08T12:54:15Z</time>
      </trkpt>
      <trkpt lat="45.9001" lon="4.80023">
        <ele>170</ele>
        <time>2018-03-08T12:54:16Z</time>
      </trkpt>
      <trkpt lat="45.90016" lon="4.80021">
        <ele>170</ele>
        <time>2018-03-08T12:54:17Z</time>
      </trkpt>
      <trkpt lat="45.90021" lon="4.80018">
        <ele>170</ele>
        <time>2018-03-08T12:54:18Z</time>
      </trkpt>
      <trkpt lat="45.90028" lon="4.80017">
        <ele>170</ele>
        <time>2018-03-08T12:54:19Z</time>
      </trkpt>
      <trkpt lat="45.90034" lon="4.80015">
        <ele>170</ele>
        <time>2018-03-08T12:54:20Z</time>
      </trkpt>
      <trkpt lat="45.9004" lon="4.80012">
        <ele>170</ele>
        <time>2018-03-08T12:54:21Z</time>
      </trkpt>
      <trkpt lat="45.90045" lon="4.80011">
        <ele>170</ele>
        <time>2018-03-08T12:54:22Z</time>
      </trkpt>
      <trkpt lat="45.90051" lon="4.80009">
        <ele>170</ele>
        <time>2018-03-08T12:54:23Z</time>
      </trkpt>
      <trkpt lat="45.90056" lon="4.80007">
        <ele>170</ele>
        <time>2018-03-08T12:54:24Z</time>
      </trkpt>
      <trkpt lat="45.90062" lon="4.80005">
        <ele>170</ele>
        <time>2018-03-08T12:54:25Z</time>
      </trkpt>
      <trkpt lat="45.90067" lon="4.80001">
        <ele>170</ele>
        <time>2018-03-08T12:54:26Z</time>
      </trkpt>
      <trkpt lat="45.90073" lon="4.79998">
        <ele>173</ele>
        <time>2018-03-08T12:54:27Z</time>
      </trkpt>
      <trkpt lat="45.90079" lon="4.79995">
        <ele>172</ele>
        <time>2018-03-08T12:54:28Z</time>
      </trkpt>
      <trkpt lat="45.90085" lon="4.79992">
        <ele>172</ele>
        <time>2018-03-08T12:54:29Z</time>
      </trkpt>
      <trkpt lat="45.90091" lon="4.79989">
        <ele>173</ele>
        <time>2018-03-08T12:54:30Z</time>
      </trkpt>
      <trkpt lat="45.90096" lon="4.79987">
        <ele>173</ele>
        <time>2018-03-08T12:54:31Z</time>
      </trkpt>
      <trkpt lat="45.90101" lon="4.79984">
        <ele>173</ele>
        <time>2018-03-08T12:54:32Z</time>
      </trkpt>
      <trkpt lat="45.90106" lon="4.79982">
        <ele>174</ele>
        <time>2018-03-08T12:54:33Z</time>
      </trkpt>
      <trkpt lat="45.90112" lon="4.7998">
        <ele>174</ele>
        <time>2018-03-08T12:54:34Z</time>
      </trkpt>
      <trkpt lat="45.90117" lon="4.79978">
        <ele>174</ele>
        <time>2018-03-08T12:54:35Z</time>
      </trkpt>
      <trkpt lat="45.90122" lon="4.79976">
        <ele>174</ele>
        <time>2018-03-08T12:54:36Z</time>
      </trkpt>
      <trkpt lat="45.90127" lon="4.79974">
        <ele>174</ele>
        <time>2018-03-08T12:54:37Z</time>
      </trkpt>
      <trkpt lat="45.90133" lon="4.79971">
        <ele>174</ele>
        <time>2018-03-08T12:54:38Z</time>
      </trkpt>
      <trkpt lat="45.90138" lon="4.79969">
        <ele>174</ele>
        <time>2018-03-08T12:54:39Z</time>
      </trkpt>
      <trkpt lat="45.90143" lon="4.79967">
        <ele>174</ele>
        <time>2018-03-08T12:54:40Z</time>
      </trkpt>
      <trkpt lat="45.90148" lon="4.79965">
        <ele>174</ele>
        <time>2018-03-08T12:54:41Z</time>
      </trkpt>
      <trkpt lat="45.90154" lon="4.79963">
        <ele>174</ele>
        <time>2018-03-08T12:54:42Z</time>
      </trkpt>
      <trkpt lat="45.90159" lon="4.79961">
        <ele>174</ele>
        <time>2018-03-08T12:54:43Z</time>
      </trkpt>
      <trkpt lat="45.90165" lon="4.79959">
        <ele>174</ele>
        <time>2018-03-08T12:54:44Z</time>
      </trkpt>
      <trkpt lat="45.9017" lon="4.79957">
        <ele>173</ele>
        <time>2018-03-08T12:54:45Z</time>
      </trkpt>
      <trkpt lat="45.90176" lon="4.79954">
        <ele>173</ele>
        <time>2018-03-08T12:54:46Z</time>
      </trkpt>
      <trkpt lat="45.9018" lon="4.79952">
        <ele>173</ele>
        <time>2018-03-08T12:54:47Z</time>
      </trkpt>
      <trkpt lat="45.90186" lon="4.7995">
        <ele>173</ele>
        <time>2018-03-08T12:54:48Z</time>
      </trkpt>
      <trkpt lat="45.90192" lon="4.79948">
        <ele>173</ele>
        <time>2018-03-08T12:54:49Z</time>
      </trkpt>
      <trkpt lat="45.90197" lon="4.79945">
        <ele>173</ele>
        <time>2018-03-08T12:54:50Z</time>
      </trkpt>
      <trkpt lat="45.90202" lon="4.79942">
        <ele>173</ele>
        <time>2018-03-08T12:54:51Z</time>
      </trkpt>
      <trkpt lat="45.90207" lon="4.79939">
        <ele>173</ele>
        <time>2018-03-08T12:54:52Z</time>
      </trkpt>
      <trkpt lat="45.90212" lon="4.79935">
        <ele>172</ele>
        <time>2018-03-08T12:54:53Z</time>
      </trkpt>
      <trkpt lat="45.90217" lon="4.79932">
        <ele>172</ele>
        <time>2018-03-08T12:54:54Z</time>
      </trkpt>
      <trkpt lat="45.90222" lon="4.79928">
        <ele>172</ele>
        <time>2018-03-08T12:54:55Z</time>
      </trkpt>
      <trkpt lat="45.90228" lon="4.79924">
        <ele>172</ele>
        <time>2018-03-08T12:54:56Z</time>
      </trkpt>
      <trkpt lat="45.90233" lon="4.79921">
        <ele>172</ele>
        <time>2018-03-08T12:54:57Z</time>
      </trkpt>
      <trkpt lat="45.9024" lon="4.79916">
        <ele>174</ele>
        <time>2018-03-08T12:54:58Z</time>
      </trkpt>
      <trkpt lat="45.90245" lon="4.79912">
        <ele>174</ele>
        <time>2018-03-08T12:54:59Z</time>
      </trkpt>
      <trkpt lat="45.9025" lon="4.79907">
        <ele>172</ele>
        <time>2018-03-08T12:55:00Z</time>
      </trkpt>
      <trkpt lat="45.90255" lon="4.79903">
        <ele>172</ele>
        <time>2018-03-08T12:55:01Z</time>
      </trkpt>
      <trkpt lat="45.90261" lon="4.79898">
        <ele>172</ele>
        <time>2018-03-08T12:55:02Z</time>
      </trkpt>
      <trkpt lat="45.90266" lon="4.79894">
        <ele>172</ele>
        <time>2018-03-08T12:55:03Z</time>
      </trkpt>
      <trkpt lat="45.9027" lon="4.7989">
        <ele>173</ele>
        <time>2018-03-08T12:55:04Z</time>
      </trkpt>
      <trkpt lat="45.90275" lon="4.79886">
        <ele>173</ele>
        <time>2018-03-08T12:55:05Z</time>
      </trkpt>
      <trkpt lat="45.9028" lon="4.79882">
        <ele>173</ele>
        <time>2018-03-08T12:55:06Z</time>
      </trkpt>
      <trkpt lat="45.90285" lon="4.79877">
        <ele>172</ele>
        <time>2018-03-08T12:55:07Z</time>
      </trkpt>
      <trkpt lat="45.9029" lon="4.79872">
        <ele>172</ele>
        <time>2018-03-08T12:55:08Z</time>
      </trkpt>
      <trkpt lat="45.90295" lon="4.79866">
        <ele>172</ele>
        <time>2018-03-08T12:55:09Z</time>
      </trkpt>
      <trkpt lat="45.903" lon="4.7986">
        <ele>172</ele>
        <time>2018-03-08T12:55:10Z</time>
      </trkpt>
      <trkpt lat="45.90304" lon="4.79855">
        <ele>172</ele>
        <time>2018-03-08T12:55:11Z</time>
      </trkpt>
      <trkpt lat="45.90309" lon="4.7985">
        <ele>172</ele>
        <time>2018-03-08T12:55:12Z</time>
      </trkpt>
      <trkpt lat="45.90313" lon="4.79845">
        <ele>172</ele>
        <time>2018-03-08T12:55:13Z</time>
      </trkpt>
      <trkpt lat="45.90318" lon="4.79839">
        <ele>171</ele>
        <time>2018-03-08T12:55:14Z</time>
      </trkpt>
      <trkpt lat="45.90323" lon="4.79833">
        <ele>173</ele>
        <time>2018-03-08T12:55:15Z</time>
      </trkpt>
      <trkpt lat="45.90328" lon="4.79826">
        <ele>173</ele>
        <time>2018-03-08T12:55:16Z</time>
      </trkpt>
      <trkpt lat="45.90333" lon="4.7982">
        <ele>173</ele>
        <time>2018-03-08T12:55:17Z</time>
      </trkpt>
      <trkpt lat="45.90338" lon="4.79814">
        <ele>172</ele>
        <time>2018-03-08T12:55:18Z</time>
      </trkpt>
      <trkpt lat="45.90341" lon="4.79808">
        <ele>172</ele>
        <time>2018-03-08T12:55:19Z</time>
      </trkpt>
      <trkpt lat="45.90345" lon="4.79803">
        <ele>172</ele>
        <time>2018-03-08T12:55:20Z</time>
      </trkpt>
      <trkpt lat="45.90349" lon="4.79799">
        <ele>172</ele>
        <time>2018-03-08T12:55:21Z</time>
      </trkpt>
      <trkpt lat="45.90354" lon="4.79793">
        <ele>173</ele>
        <time>2018-03-08T12:55:22Z</time>
      </trkpt>
      <trkpt lat="45.90358" lon="4.79787">
        <ele>173</ele>
        <time>2018-03-08T12:55:23Z</time>
      </trkpt>
      <trkpt lat="45.90362" lon="4.79782">
        <ele>173</ele>
        <time>2018-03-08T12:55:24Z</time>
      </trkpt>
      <trkpt lat="45.90366" lon="4.79776">
        <ele>173</ele>
        <time>2018-03-08T12:55:25Z</time>
      </trkpt>
      <trkpt lat="45.9037" lon="4.79771">
        <ele>173</ele>
        <time>2018-03-08T12:55:26Z</time>
      </trkpt>
      <trkpt lat="45.90374" lon="4.79765">
        <ele>173</ele>
        <time>2018-03-08T12:55:27Z</time>
      </trkpt>
      <trkpt lat="45.90379" lon="4.79759">
        <ele>173</ele>
        <time>2018-03-08T12:55:28Z</time>
      </trkpt>
      <trkpt lat="45.90384" lon="4.79753">
        <ele>173</ele>
        <time>2018-03-08T12:55:29Z</time>
      </trkpt>
      <trkpt lat="45.90389" lon="4.79748">
        <ele>175</ele>
        <time>2018-03-08T12:55:30Z</time>
      </trkpt>
      <trkpt lat="45.90393" lon="4.79742">
        <ele>175</ele>
        <time>2018-03-08T12:55:31Z</time>
      </trkpt>
      <trkpt lat="45.90397" lon="4.79737">
        <ele>175</ele>
        <time>2018-03-08T12:55:32Z</time>
      </trkpt>
      <trkpt lat="45.90402" lon="4.79732">
        <ele>175</ele>
        <time>2018-03-08T12:55:33Z</time>
      </trkpt>
      <trkpt lat="45.90406" lon="4.79726">
        <ele>175</ele>
        <time>2018-03-08T12:55:34Z</time>
      </trkpt>
      <trkpt lat="45.90411" lon="4.7972">
        <ele>175</ele>
        <time>2018-03-08T12:55:35Z</time>
      </trkpt>
      <trkpt lat="45.90415" lon="4.79714">
        <ele>176</ele>
        <time>2018-03-08T12:55:36Z</time>
      </trkpt>
      <trkpt lat="45.90419" lon="4.79709">
        <ele>173</ele>
        <time>2018-03-08T12:55:37Z</time>
      </trkpt>
      <trkpt lat="45.90424" lon="4.79703">
        <ele>173</ele>
        <time>2018-03-08T12:55:38Z</time>
      </trkpt>
      <trkpt lat="45.90428" lon="4.79698">
        <ele>173</ele>
        <time>2018-03-08T12:55:39Z</time>
      </trkpt>
      <trkpt lat="45.90433" lon="4.79692">
        <ele>173</ele>
        <time>2018-03-08T12:55:40Z</time>
      </trkpt>
      <trkpt lat="45.90438" lon="4.79687">
        <ele>173</ele>
        <time>2018-03-08T12:55:41Z</time>
      </trkpt>
      <trkpt lat="45.90442" lon="4.79681">
        <ele>173</ele>
        <time>2018-03-08T12:55:42Z</time>
      </trkpt>
      <trkpt lat="45.90447" lon="4.79675">
        <ele>173</ele>
        <time>2018-03-08T12:55:43Z</time>
      </trkpt>
      <trkpt lat="45.90452" lon="4.79669">
        <ele>173</ele>
        <time>2018-03-08T12:55:44Z</time>
      </trkpt>
      <trkpt lat="45.90457" lon="4.79664">
        <ele>176</ele>
        <time>2018-03-08T12:55:45Z</time>
      </trkpt>
      <trkpt lat="45.90462" lon="4.79659">
        <ele>176</ele>
        <time>2018-03-08T12:55:46Z</time>
      </trkpt>
      <trkpt lat="45.90466" lon="4.79653">
        <ele>175</ele>
        <time>2018-03-08T12:55:47Z</time>
      </trkpt>
      <trkpt lat="45.90472" lon="4.79648">
        <ele>175</ele>
        <time>2018-03-08T12:55:48Z</time>
      </trkpt>
      <trkpt lat="45.90477" lon="4.79642">
        <ele>175</ele>
        <time>2018-03-08T12:55:49Z</time>
      </trkpt>
      <trkpt lat="45.90482" lon="4.79637">
        <ele>175</ele>
        <time>2018-03-08T12:55:50Z</time>
      </trkpt>
      <trkpt lat="45.90487" lon="4.79632">
        <ele>176</ele>
        <time>2018-03-08T12:55:51Z</time>
      </trkpt>
      <trkpt lat="45.90492" lon="4.79627">
        <ele>176</ele>
        <time>2018-03-08T12:55:52Z</time>
      </trkpt>
      <trkpt lat="45.90496" lon="4.79622">
        <ele>176</ele>
        <time>2018-03-08T12:55:53Z</time>
      </trkpt>
      <trkpt lat="45.90501" lon="4.79618">
        <ele>174</ele>
        <time>2018-03-08T12:55:54Z</time>
      </trkpt>
      <trkpt lat="45.90505" lon="4.79614">
        <ele>174</ele>
        <time>2018-03-08T12:55:55Z</time>
      </trkpt>
      <trkpt lat="45.90509" lon="4.7961">
        <ele>174</ele>
        <time>2018-03-08T12:55:56Z</time>
      </trkpt>
      <trkpt lat="45.90514" lon="4.79606">
        <ele>174</ele>
        <time>2018-03-08T12:55:57Z</time>
      </trkpt>
      <trkpt lat="45.90519" lon="4.79601">
        <ele>174</ele>
        <time>2018-03-08T12:55:58Z</time>
      </trkpt>
      <trkpt lat="45.90524" lon="4.79597">
        <ele>174</ele>
        <time>2018-03-08T12:55:59Z</time>
      </trkpt>
      <trkpt lat="45.9053" lon="4.79593">
        <ele>174</ele>
        <time>2018-03-08T12:56:00Z</time>
      </trkpt>
      <trkpt lat="45.90534" lon="4.7959">
        <ele>173</ele>
        <time>2018-03-08T12:56:01Z</time>
      </trkpt>
      <trkpt lat="45.9054" lon="4.79585">
        <ele>173</ele>
        <time>2018-03-08T12:56:02Z</time>
      </trkpt>
      <trkpt lat="45.90543" lon="4.79582">
        <ele>176</ele>
        <time>2018-03-08T12:56:03Z</time>
      </trkpt>
      <trkpt lat="45.90548" lon="4.79578">
        <ele>176</ele>
        <time>2018-03-08T12:56:04Z</time>
      </trkpt>
      <trkpt lat="45.90552" lon="4.79575">
        <ele>176</ele>
        <time>2018-03-08T12:56:05Z</time>
      </trkpt>
      <trkpt lat="45.90556" lon="4.79572">
        <ele>175</ele>
        <time>2018-03-08T12:56:06Z</time>
      </trkpt>
      <trkpt lat="45.90561" lon="4.79568">
        <ele>175</ele>
        <time>2018-03-08T12:56:07Z</time>
      </trkpt>
      <trkpt lat="45.90566" lon="4.79564">
        <ele>175</ele>
        <time>2018-03-08T12:56:08Z</time>
      </trkpt>
      <trkpt lat="45.90571" lon="4.7956">
        <ele>175</ele>
        <time>2018-03-08T12:56:09Z</time>
      </trkpt>
      <trkpt lat="45.90577" lon="4.79556">
        <ele>175</ele>
        <time>2018-03-08T12:56:10Z</time>
      </trkpt>
      <trkpt lat="45.90582" lon="4.79551">
        <ele>176</ele>
        <time>2018-03-08T12:56:11Z</time>
      </trkpt>
      <trkpt lat="45.90587" lon="4.79548">
        <ele>174</ele>
        <time>2018-03-08T12:56:12Z</time>
      </trkpt>
      <trkpt lat="45.90593" lon="4.79543">
        <ele>174</ele>
        <time>2018-03-08T12:56:13Z</time>
      </trkpt>
      <trkpt lat="45.90598" lon="4.7954">
        <ele>174</ele>
        <time>2018-03-08T12:56:14Z</time>
      </trkpt>
      <trkpt lat="45.90603" lon="4.79537">
        <ele>174</ele>
        <time>2018-03-08T12:56:15Z</time>
      </trkpt>
      <trkpt lat="45.90608" lon="4.79534">
        <ele>174</ele>
        <time>2018-03-08T12:56:16Z</time>
      </trkpt>
      <trkpt lat="45.90614" lon="4.79531">
        <ele>174</ele>
        <time>2018-03-08T12:56:17Z</time>
      </trkpt>
      <trkpt lat="45.90619" lon="4.79527">
        <ele>174</ele>
        <time>2018-03-08T12:56:18Z</time>
      </trkpt>
      <trkpt lat="45.90624" lon="4.79524">
        <ele>174</ele>
        <time>2018-03-08T12:56:19Z</time>
      </trkpt>
      <trkpt lat="45.9063" lon="4.79521">
        <ele>174</ele>
        <time>2018-03-08T12:56:20Z</time>
      </trkpt>
      <trkpt lat="45.90635" lon="4.79517">
        <ele>174</ele>
        <time>2018-03-08T12:56:21Z</time>
      </trkpt>
      <trkpt lat="45.90642" lon="4.79514">
        <ele>173</ele>
        <time>2018-03-08T12:56:22Z</time>
      </trkpt>
      <trkpt lat="45.90647" lon="4.79511">
        <ele>173</ele>
        <time>2018-03-08T12:56:23Z</time>
      </trkpt>
      <trkpt lat="45.90653" lon="4.79508">
        <ele>173</ele>
        <time>2018-03-08T12:56:24Z</time>
      </trkpt>
      <trkpt lat="45.90659" lon="4.79504">
        <ele>173</ele>
        <time>2018-03-08T12:56:25Z</time>
      </trkpt>
      <trkpt lat="45.90664" lon="4.79501">
        <ele>173</ele>
        <time>2018-03-08T12:56:26Z</time>
      </trkpt>
      <trkpt lat="45.9067" lon="4.79497">
        <ele>173</ele>
        <time>2018-03-08T12:56:27Z</time>
      </trkpt>
      <trkpt lat="45.90676" lon="4.79493">
        <ele>174</ele>
        <time>2018-03-08T12:56:28Z</time>
      </trkpt>
      <trkpt lat="45.90681" lon="4.7949">
        <ele>174</ele>
        <time>2018-03-08T12:56:29Z</time>
      </trkpt>
      <trkpt lat="45.90686" lon="4.79487">
        <ele>174</ele>
        <time>2018-03-08T12:56:30Z</time>
      </trkpt>
      <trkpt lat="45.90692" lon="4.79484">
        <ele>174</ele>
        <time>2018-03-08T12:56:31Z</time>
      </trkpt>
      <trkpt lat="45.90697" lon="4.79481">
        <ele>174</ele>
        <time>2018-03-08T12:56:32Z</time>
      </trkpt>
      <trkpt lat="45.90703" lon="4.79477">
        <ele>174</ele>
        <time>2018-03-08T12:56:33Z</time>
      </trkpt>
      <trkpt lat="45.90709" lon="4.79475">
        <ele>174</ele>
        <time>2018-03-08T12:56:34Z</time>
      </trkpt>
      <trkpt lat="45.90714" lon="4.79471">
        <ele>174</ele>
        <time>2018-03-08T12:56:35Z</time>
      </trkpt>
      <trkpt lat="45.9072" lon="4.79468">
        <ele>174</ele>
        <time>2018-03-08T12:56:36Z</time>
      </trkpt>
      <trkpt lat="45.90725" lon="4.79465">
        <ele>174</ele>
        <time>2018-03-08T12:56:37Z</time>
      </trkpt>
      <trkpt lat="45.90731" lon="4.79461">
        <ele>174</ele>
        <time>2018-03-08T12:56:38Z</time>
      </trkpt>
      <trkpt lat="45.90738" lon="4.79458">
        <ele>174</ele>
        <time>2018-03-08T12:56:39Z</time>
      </trkpt>
      <trkpt lat="45.90743" lon="4.79454">
        <ele>174</ele>
        <time>2018-03-08T12:56:40Z</time>
      </trkpt>
      <trkpt lat="45.90749" lon="4.79451">
        <ele>174</ele>
        <time>2018-03-08T12:56:41Z</time>
      </trkpt>
      <trkpt lat="45.90754" lon="4.79447">
        <ele>173</ele>
        <time>2018-03-08T12:56:42Z</time>
      </trkpt>
      <trkpt lat="45.9076" lon="4.79444">
        <ele>174</ele>
        <time>2018-03-08T12:56:43Z</time>
      </trkpt>
      <trkpt lat="45.90767" lon="4.79442">
        <ele>174</ele>
        <time>2018-03-08T12:56:44Z</time>
      </trkpt>
      <trkpt lat="45.90773" lon="4.79439">
        <ele>174</ele>
        <time>2018-03-08T12:56:45Z</time>
      </trkpt>
      <trkpt lat="45.90778" lon="4.79435">
        <ele>174</ele>
        <time>2018-03-08T12:56:46Z</time>
      </trkpt>
      <trkpt lat="45.90784" lon="4.79431">
        <ele>174</ele>
        <time>2018-03-08T12:56:47Z</time>
      </trkpt>
      <trkpt lat="45.90789" lon="4.79428">
        <ele>174</ele>
        <time>2018-03-08T12:56:48Z</time>
      </trkpt>
      <trkpt lat="45.90794" lon="4.79425">
        <ele>173</ele>
        <time>2018-03-08T12:56:49Z</time>
      </trkpt>
      <trkpt lat="45.90799" lon="4.79421">
        <ele>173</ele>
        <time>2018-03-08T12:56:50Z</time>
      </trkpt>
      <trkpt lat="45.90805" lon="4.79416">
        <ele>175</ele>
        <time>2018-03-08T12:56:51Z</time>
      </trkpt>
      <trkpt lat="45.9081" lon="4.79411">
        <ele>175</ele>
        <time>2018-03-08T12:56:52Z</time>
      </trkpt>
      <trkpt lat="45.90816" lon="4.79406">
        <ele>175</ele>
        <time>2018-03-08T12:56:53Z</time>
      </trkpt>
      <trkpt lat="45.90821" lon="4.79401">
        <ele>175</ele>
        <time>2018-03-08T12:56:54Z</time>
      </trkpt>
      <trkpt lat="45.90826" lon="4.79397">
        <ele>175</ele>
        <time>2018-03-08T12:56:55Z</time>
      </trkpt>
      <trkpt lat="45.9083" lon="4.79392">
        <ele>175</ele>
        <time>2018-03-08T12:56:56Z</time>
      </trkpt>
      <trkpt lat="45.90834" lon="4.79386">
        <ele>174</ele>
        <time>2018-03-08T12:56:57Z</time>
      </trkpt>
      <trkpt lat="45.90838" lon="4.79382">
        <ele>175</ele>
        <time>2018-03-08T12:56:58Z</time>
      </trkpt>
      <trkpt lat="45.90842" lon="4.79376">
        <ele>175</ele>
        <time>2018-03-08T12:56:59Z</time>
      </trkpt>
      <trkpt lat="45.90846" lon="4.79372">
        <ele>175</ele>
        <time>2018-03-08T12:57:00Z</time>
      </trkpt>
      <trkpt lat="45.90851" lon="4.79366">
        <ele>175</ele>
        <time>2018-03-08T12:57:01Z</time>
      </trkpt>
      <trkpt lat="45.90856" lon="4.79359">
        <ele>175</ele>
        <time>2018-03-08T12:57:02Z</time>
      </trkpt>
      <trkpt lat="45.9086" lon="4.79354">
        <ele>175</ele>
        <time>2018-03-08T12:57:03Z</time>
      </trkpt>
      <trkpt lat="45.90864" lon="4.79348">
        <ele>175</ele>
        <time>2018-03-08T12:57:04Z</time>
      </trkpt>
      <trkpt lat="45.90868" lon="4.79342">
        <ele>175</ele>
        <time>2018-03-08T12:57:05Z</time>
      </trkpt>
      <trkpt lat="45.90872" lon="4.79337">
        <ele>175</ele>
        <time>2018-03-08T12:57:06Z</time>
      </trkpt>
      <trkpt lat="45.90876" lon="4.79331">
        <ele>176</ele>
        <time>2018-03-08T12:57:07Z</time>
      </trkpt>
      <trkpt lat="45.9088" lon="4.79325">
        <ele>176</ele>
        <time>2018-03-08T12:57:08Z</time>
      </trkpt>
      <trkpt lat="45.90884" lon="4.79319">
        <ele>176</ele>
        <time>2018-03-08T12:57:09Z</time>
      </trkpt>
      <trkpt lat="45.90889" lon="4.79313">
        <ele>176</ele>
        <time>2018-03-08T12:57:10Z</time>
      </trkpt>
      <trkpt lat="45.90893" lon="4.79307">
        <ele>176</ele>
        <time>2018-03-08T12:57:11Z</time>
      </trkpt>
      <trkpt lat="45.90896" lon="4.79302">
        <ele>176</ele>
        <time>2018-03-08T12:57:12Z</time>
      </trkpt>
      <trkpt lat="45.90901" lon="4.79295">
        <ele>176</ele>
        <time>2018-03-08T12:57:13Z</time>
      </trkpt>
      <trkpt lat="45.90904" lon="4.79289">
        <ele>176</ele>
        <time>2018-03-08T12:57:14Z</time>
      </trkpt>
      <trkpt lat="45.90909" lon="4.79282">
        <ele>176</ele>
        <time>2018-03-08T12:57:15Z</time>
      </trkpt>
      <trkpt lat="45.90913" lon="4.79276">
        <ele>176</ele>
        <time>2018-03-08T12:57:16Z</time>
      </trkpt>
      <trkpt lat="45.90916" lon="4.7927">
        <ele>176</ele>
        <time>2018-03-08T12:57:17Z</time>
      </trkpt>
      <trkpt lat="45.9092" lon="4.79263">
        <ele>176</ele>
        <time>2018-03-08T12:57:18Z</time>
      </trkpt>
      <trkpt lat="45.90924" lon="4.79256">
        <ele>176</ele>
        <time>2018-03-08T12:57:19Z</time>
      </trkpt>
      <trkpt lat="45.90927" lon="4.79249">
        <ele>176</ele>
        <time>2018-03-08T12:57:20Z</time>
      </trkpt>
      <trkpt lat="45.90931" lon="4.79243">
        <ele>176</ele>
        <time>2018-03-08T12:57:21Z</time>
      </trkpt>
      <trkpt lat="45.90935" lon="4.79235">
        <ele>176</ele>
        <time>2018-03-08T12:57:22Z</time>
      </trkpt>
      <trkpt lat="45.90938" lon="4.79229">
        <ele>176</ele>
        <time>2018-03-08T12:57:23Z</time>
      </trkpt>
      <trkpt lat="45.90941" lon="4.79222">
        <ele>176</ele>
        <time>2018-03-08T12:57:24Z</time>
      </trkpt>
      <trkpt lat="45.90944" lon="4.79215">
        <ele>176</ele>
        <time>2018-03-08T12:57:25Z</time>
      </trkpt>
      <trkpt lat="45.90948" lon="4.79209">
        <ele>176</ele>
        <time>2018-03-08T12:57:26Z</time>
      </trkpt>
      <trkpt lat="45.90951" lon="4.79203">
        <ele>176</ele>
        <time>2018-03-08T12:57:27Z</time>
      </trkpt>
      <trkpt lat="45.90954" lon="4.79197">
        <ele>177</ele>
        <time>2018-03-08T12:57:28Z</time>
      </trkpt>
      <trkpt lat="45.90957" lon="4.7919">
        <ele>177</ele>
        <time>2018-03-08T12:57:29Z</time>
      </trkpt>
      <trkpt lat="45.9096" lon="4.79185">
        <ele>177</ele>
        <time>2018-03-08T12:57:30Z</time>
      </trkpt>
      <trkpt lat="45.90963" lon="4.79179">
        <ele>177</ele>
        <time>2018-03-08T12:57:31Z</time>
      </trkpt>
      <trkpt lat="45.90968" lon="4.79173">
        <ele>177</ele>
        <time>2018-03-08T12:57:32Z</time>
      </trkpt>
      <trkpt lat="45.90971" lon="4.79167">
        <ele>177</ele>
        <time>2018-03-08T12:57:33Z</time>
      </trkpt>
      <trkpt lat="45.90974" lon="4.79162">
        <ele>177</ele>
        <time>2018-03-08T12:57:34Z</time>
      </trkpt>
      <trkpt lat="45.90978" lon="4.79156">
        <ele>177</ele>
        <time>2018-03-08T12:57:35Z</time>
      </trkpt>
      <trkpt lat="45.90981" lon="4.7915">
        <ele>177</ele>
        <time>2018-03-08T12:57:36Z</time>
      </trkpt>
      <trkpt lat="45.90984" lon="4.79145">
        <ele>177</ele>
        <time>2018-03-08T12:57:37Z</time>
      </trkpt>
      <trkpt lat="45.90987" lon="4.79139">
        <ele>177</ele>
        <time>2018-03-08T12:57:38Z</time>
      </trkpt>
      <trkpt lat="45.9099" lon="4.79132">
        <ele>177</ele>
        <time>2018-03-08T12:57:39Z</time>
      </trkpt>
      <trkpt lat="45.90994" lon="4.79126">
        <ele>177</ele>
        <time>2018-03-08T12:57:40Z</time>
      </trkpt>
      <trkpt lat="45.90998" lon="4.7912">
        <ele>177</ele>
        <time>2018-03-08T12:57:41Z</time>
      </trkpt>
      <trkpt lat="45.91001" lon="4.79114">
        <ele>177</ele>
        <time>2018-03-08T12:57:42Z</time>
      </trkpt>
      <trkpt lat="45.91004" lon="4.79107">
        <ele>177</ele>
        <time>2018-03-08T12:57:43Z</time>
      </trkpt>
      <trkpt lat="45.91007" lon="4.79101">
        <ele>177</ele>
        <time>2018-03-08T12:57:44Z</time>
      </trkpt>
      <trkpt lat="45.9101" lon="4.79095">
        <ele>177</ele>
        <time>2018-03-08T12:57:45Z</time>
      </trkpt>
      <trkpt lat="45.91014" lon="4.79089">
        <ele>177</ele>
        <time>2018-03-08T12:57:46Z</time>
      </trkpt>
      <trkpt lat="45.91017" lon="4.79083">
        <ele>177</ele>
        <time>2018-03-08T12:57:47Z</time>
      </trkpt>
      <trkpt lat="45.9102" lon="4.79078">
        <ele>176</ele>
        <time>2018-03-08T12:57:48Z</time>
      </trkpt>
      <trkpt lat="45.91025" lon="4.79071">
        <ele>176</ele>
        <time>2018-03-08T12:57:49Z</time>
      </trkpt>
      <trkpt lat="45.91028" lon="4.79064">
        <ele>176</ele>
        <time>2018-03-08T12:57:50Z</time>
      </trkpt>
      <trkpt lat="45.91032" lon="4.79058">
        <ele>176</ele>
        <time>2018-03-08T12:57:51Z</time>
      </trkpt>
      <trkpt lat="45.91035" lon="4.79052">
        <ele>176</ele>
        <time>2018-03-08T12:57:52Z</time>
      </trkpt>
      <trkpt lat="45.91039" lon="4.79045">
        <ele>176</ele>
        <time>2018-03-08T12:57:53Z</time>
      </trkpt>
      <trkpt lat="45.91042" lon="4.79039">
        <ele>176</ele>
        <time>2018-03-08T12:57:54Z</time>
      </trkpt>
      <trkpt lat="45.91045" lon="4.79033">
        <ele>176</ele>
        <time>2018-03-08T12:57:55Z</time>
      </trkpt>
      <trkpt lat="45.91048" lon="4.79026">
        <ele>176</ele>
        <time>2018-03-08T12:57:56Z</time>
      </trkpt>
      <trkpt lat="45.91052" lon="4.79019">
        <ele>176</ele>
        <time>2018-03-08T12:57:57Z</time>
      </trkpt>
      <trkpt lat="45.91055" lon="4.79013">
        <ele>176</ele>
        <time>2018-03-08T12:57:58Z</time>
      </trkpt>
      <trkpt lat="45.91058" lon="4.79007">
        <ele>177</ele>
        <time>2018-03-08T12:57:59Z</time>
      </trkpt>
      <trkpt lat="45.91061" lon="4.79002">
        <ele>177</ele>
        <time>2018-03-08T12:58:00Z</time>
      </trkpt>
      <trkpt lat="45.91064" lon="4.78995">
        <ele>177</ele>
        <time>2018-03-08T12:58:01Z</time>
      </trkpt>
      <trkpt lat="45.91068" lon="4.78988">
        <ele>177</ele>
        <time>2018-03-08T12:58:02Z</time>
      </trkpt>
      <trkpt lat="45.91072" lon="4.78981">
        <ele>177</ele>
        <time>2018-03-08T12:58:03Z</time>
      </trkpt>
      <trkpt lat="45.91075" lon="4.78974">
        <ele>177</ele>
        <time>2018-03-08T12:58:04Z</time>
      </trkpt>
      <trkpt lat="45.91079" lon="4.78967">
        <ele>177</ele>
        <time>2018-03-08T12:58:05Z</time>
      </trkpt>
      <trkpt lat="45.91082" lon="4.7896">
        <ele>177</ele>
        <time>2018-03-08T12:58:06Z</time>
      </trkpt>
      <trkpt lat="45.91086" lon="4.78953">
        <ele>177</ele>
        <time>2018-03-08T12:58:07Z</time>
      </trkpt>
      <trkpt lat="45.9109" lon="4.78947">
        <ele>177</ele>
        <time>2018-03-08T12:58:08Z</time>
      </trkpt>
      <trkpt lat="45.91093" lon="4.7894">
        <ele>177</ele>
        <time>2018-03-08T12:58:09Z</time>
      </trkpt>
      <trkpt lat="45.91097" lon="4.78933">
        <ele>177</ele>
        <time>2018-03-08T12:58:10Z</time>
      </trkpt>
      <trkpt lat="45.91102" lon="4.78927">
        <ele>177</ele>
        <time>2018-03-08T12:58:11Z</time>
      </trkpt>
      <trkpt lat="45.91105" lon="4.7892">
        <ele>177</ele>
        <time>2018-03-08T12:58:12Z</time>
      </trkpt>
      <trkpt lat="45.91109" lon="4.78914">
        <ele>176</ele>
        <time>2018-03-08T12:58:13Z</time>
      </trkpt>
      <trkpt lat="45.91112" lon="4.78908">
        <ele>176</ele>
        <time>2018-03-08T12:58:14Z</time>
      </trkpt>
      <trkpt lat="45.91116" lon="4.78902">
        <ele>176</ele>
        <time>2018-03-08T12:58:15Z</time>
      </trkpt>
      <trkpt lat="45.9112" lon="4.78895">
        <ele>176</ele>
        <time>2018-03-08T12:58:16Z</time>
      </trkpt>
      <trkpt lat="45.91123" lon="4.78889">
        <ele>176</ele>
        <time>2018-03-08T12:58:17Z</time>
      </trkpt>
      <trkpt lat="45.91127" lon="4.78882">
        <ele>176</ele>
        <time>2018-03-08T12:58:18Z</time>
      </trkpt>
      <trkpt lat="45.91131" lon="4.78875">
        <ele>176</ele>
        <time>2018-03-08T12:58:19Z</time>
      </trkpt>
      <trkpt lat="45.91134" lon="4.78869">
        <ele>176</ele>
        <time>2018-03-08T12:58:20Z</time>
      </trkpt>
      <trkpt lat="45.91137" lon="4.78863">
        <ele>176</ele>
        <time>2018-03-08T12:58:21Z</time>
      </trkpt>
      <trkpt lat="45.9114" lon="4.78855">
        <ele>176</ele>
        <time>2018-03-08T12:58:22Z</time>
      </trkpt>
      <trkpt lat="45.91143" lon="4.78849">
        <ele>176</ele>
        <time>2018-03-08T12:58:23Z</time>
      </trkpt>
      <trkpt lat="45.91146" lon="4.78843">
        <ele>176</ele>
        <time>2018-03-08T12:58:24Z</time>
      </trkpt>
      <trkpt lat="45.9115" lon="4.78837">
        <ele>176</ele>
        <time>2018-03-08T12:58:25Z</time>
      </trkpt>
      <trkpt lat="45.91153" lon="4.78831">
        <ele>176</ele>
        <time>2018-03-08T12:58:26Z</time>
      </trkpt>
      <trkpt lat="45.91156" lon="4.78825">
        <ele>176</ele>
        <time>2018-03-08T12:58:27Z</time>
      </trkpt>
      <trkpt lat="45.9116" lon="4.78819">
        <ele>176</ele>
        <time>2018-03-08T12:58:28Z</time>
      </trkpt>
      <trkpt lat="45.91163" lon="4.78813">
        <ele>176</ele>
        <time>2018-03-08T12:58:29Z</time>
      </trkpt>
      <trkpt lat="45.91167" lon="4.78807">
        <ele>176</ele>
        <time>2018-03-08T12:58:30Z</time>
      </trkpt>
      <trkpt lat="45.91171" lon="4.78802">
        <ele>176</ele>
        <time>2018-03-08T12:58:31Z</time>
      </trkpt>
      <trkpt lat="45.91174" lon="4.78795">
        <ele>176</ele>
        <time>2018-03-08T12:58:32Z</time>
      </trkpt>
      <trkpt lat="45.91178" lon="4.78788">
        <ele>177</ele>
        <time>2018-03-08T12:58:33Z</time>
      </trkpt>
      <trkpt lat="45.91182" lon="4.78781">
        <ele>177</ele>
        <time>2018-03-08T12:58:34Z</time>
      </trkpt>
      <trkpt lat="45.91186" lon="4.78774">
        <ele>177</ele>
        <time>2018-03-08T12:58:35Z</time>
      </trkpt>
      <trkpt lat="45.91189" lon="4.78767">
        <ele>177</ele>
        <time>2018-03-08T12:58:36Z</time>
      </trkpt>
      <trkpt lat="45.91192" lon="4.78761">
        <ele>177</ele>
        <time>2018-03-08T12:58:37Z</time>
      </trkpt>
      <trkpt lat="45.91195" lon="4.78754">
        <ele>177</ele>
        <time>2018-03-08T12:58:38Z</time>
      </trkpt>
      <trkpt lat="45.91199" lon="4.78748">
        <ele>177</ele>
        <time>2018-03-08T12:58:39Z</time>
      </trkpt>
      <trkpt lat="45.91202" lon="4.78741">
        <ele>177</ele>
        <time>2018-03-08T12:58:40Z</time>
      </trkpt>
      <trkpt lat="45.91206" lon="4.78734">
        <ele>177</ele>
        <time>2018-03-08T12:58:41Z</time>
      </trkpt>
      <trkpt lat="45.91209" lon="4.78728">
        <ele>177</ele>
        <time>2018-03-08T12:58:42Z</time>
      </trkpt>
      <trkpt lat="45.91213" lon="4.78721">
        <ele>177</ele>
        <time>2018-03-08T12:58:43Z</time>
      </trkpt>
      <trkpt lat="45.91216" lon="4.78715">
        <ele>177</ele>
        <time>2018-03-08T12:58:44Z</time>
      </trkpt>
      <trkpt lat="45.91221" lon="4.78707">
        <ele>177</ele>
        <time>2018-03-08T12:58:45Z</time>
      </trkpt>
      <trkpt lat="45.91224" lon="4.787">
        <ele>177</ele>
        <time>2018-03-08T12:58:46Z</time>
      </trkpt>
      <trkpt lat="45.91227" lon="4.78692">
        <ele>177</ele>
        <time>2018-03-08T12:58:47Z</time>
      </trkpt>
      <trkpt lat="45.91231" lon="4.78684">
        <ele>177</ele>
        <time>2018-03-08T12:58:48Z</time>
      </trkpt>
      <trkpt lat="45.91235" lon="4.78678">
        <ele>177</ele>
        <time>2018-03-08T12:58:49Z</time>
      </trkpt>
      <trkpt lat="45.91238" lon="4.78671">
        <ele>177</ele>
        <time>2018-03-08T12:58:50Z</time>
      </trkpt>
      <trkpt lat="45.91242" lon="4.78664">
        <ele>177</ele>
        <time>2018-03-08T12:58:51Z</time>
      </trkpt>
      <trkpt lat="45.91246" lon="4.78657">
        <ele>177</ele>
        <time>2018-03-08T12:58:52Z</time>
      </trkpt>
      <trkpt lat="45.91249" lon="4.7865">
        <ele>177</ele>
        <time>2018-03-08T12:58:53Z</time>
      </trkpt>
      <trkpt lat="45.91251" lon="4.78643">
        <ele>176</ele>
        <time>2018-03-08T12:58:54Z</time>
      </trkpt>
      <trkpt lat="45.91255" lon="4.78636">
        <ele>176</ele>
        <time>2018-03-08T12:58:55Z</time>
      </trkpt>
      <trkpt lat="45.91258" lon="4.78629">
        <ele>176</ele>
        <time>2018-03-08T12:58:56Z</time>
      </trkpt>
      <trkpt lat="45.91262" lon="4.78623">
        <ele>176</ele>
        <time>2018-03-08T12:58:57Z</time>
      </trkpt>
      <trkpt lat="45.91265" lon="4.78616">
        <ele>176</ele>
        <time>2018-03-08T12:58:58Z</time>
      </trkpt>
      <trkpt lat="45.91267" lon="4.7861">
        <ele>176</ele>
        <time>2018-03-08T12:58:59Z</time>
      </trkpt>
      <trkpt lat="45.9127" lon="4.78604">
        <ele>176</ele>
        <time>2018-03-08T12:59:00Z</time>
      </trkpt>
      <trkpt lat="45.91273" lon="4.78597">
        <ele>176</ele>
        <time>2018-03-08T12:59:01Z</time>
      </trkpt>
      <trkpt lat="45.91277" lon="4.78589">
        <ele>176</ele>
        <time>2018-03-08T12:59:02Z</time>
      </trkpt>
      <trkpt lat="45.91279" lon="4.78582">
        <ele>176</ele>
        <time>2018-03-08T12:59:03Z</time>
      </trkpt>
      <trkpt lat="45.91282" lon="4.78576">
        <ele>176</ele>
        <time>2018-03-08T12:59:04Z</time>
      </trkpt>
      <trkpt lat="45.91285" lon="4.78569">
        <ele>176</ele>
        <time>2018-03-08T12:59:05Z</time>
      </trkpt>
      <trkpt lat="45.91288" lon="4.78562">
        <ele>176</ele>
        <time>2018-03-08T12:59:06Z</time>
      </trkpt>
      <trkpt lat="45.91292" lon="4.78555">
        <ele>176</ele>
        <time>2018-03-08T12:59:07Z</time>
      </trkpt>
      <trkpt lat="45.91294" lon="4.78549">
        <ele>175</ele>
        <time>2018-03-08T12:59:08Z</time>
      </trkpt>
      <trkpt lat="45.91297" lon="4.78542">
        <ele>175</ele>
        <time>2018-03-08T12:59:09Z</time>
      </trkpt>
      <trkpt lat="45.91299" lon="4.78536">
        <ele>175</ele>
        <time>2018-03-08T12:59:10Z</time>
      </trkpt>
      <trkpt lat="45.91302" lon="4.78529">
        <ele>175</ele>
        <time>2018-03-08T12:59:11Z</time>
      </trkpt>
      <trkpt lat="45.91305" lon="4.78523">
        <ele>175</ele>
        <time>2018-03-08T12:59:12Z</time>
      </trkpt>
      <trkpt lat="45.91308" lon="4.78517">
        <ele>175</ele>
        <time>2018-03-08T12:59:13Z</time>
      </trkpt>
      <trkpt lat="45.91311" lon="4.78511">
        <ele>175</ele>
        <time>2018-03-08T12:59:14Z</time>
      </trkpt>
      <trkpt lat="45.91314" lon="4.78505">
        <ele>175</ele>
        <time>2018-03-08T12:59:15Z</time>
      </trkpt>
      <trkpt lat="45.91317" lon="4.78499">
        <ele>175</ele>
        <time>2018-03-08T12:59:16Z</time>
      </trkpt>
      <trkpt lat="45.9132" lon="4.78493">
        <ele>175</ele>
        <time>2018-03-08T12:59:17Z</time>
      </trkpt>
      <trkpt lat="45.91323" lon="4.78486">
        <ele>175</ele>
        <time>2018-03-08T12:59:18Z</time>
      </trkpt>
      <trkpt lat="45.91327" lon="4.7848">
        <ele>175</ele>
        <time>2018-03-08T12:59:19Z</time>
      </trkpt>
      <trkpt lat="45.9133" lon="4.78473">
        <ele>176</ele>
        <time>2018-03-08T12:59:20Z</time>
      </trkpt>
      <trkpt lat="45.91334" lon="4.78465">
        <ele>175</ele>
        <time>2018-03-08T12:59:21Z</time>
      </trkpt>
      <trkpt lat="45.91337" lon="4.78457">
        <ele>176</ele>
        <time>2018-03-08T12:59:22Z</time>
      </trkpt>
      <trkpt lat="45.91339" lon="4.7845">
        <ele>176</ele>
        <time>2018-03-08T12:59:23Z</time>
      </trkpt>
      <trkpt lat="45.91343" lon="4.78443">
        <ele>176</ele>
        <time>2018-03-08T12:59:24Z</time>
      </trkpt>
      <trkpt lat="45.91346" lon="4.78437">
        <ele>176</ele>
        <time>2018-03-08T12:59:25Z</time>
      </trkpt>
      <trkpt lat="45.9135" lon="4.7843">
        <ele>176</ele>
        <time>2018-03-08T12:59:26Z</time>
      </trkpt>
      <trkpt lat="45.91353" lon="4.78423">
        <ele>176</ele>
        <time>2018-03-08T12:59:27Z</time>
      </trkpt>
      <trkpt lat="45.91356" lon="4.78416">
        <ele>176</ele>
        <time>2018-03-08T12:59:28Z</time>
      </trkpt>
      <trkpt lat="45.91359" lon="4.78409">
        <ele>176</ele>
        <time>2018-03-08T12:59:29Z</time>
      </trkpt>
      <trkpt lat="45.91362" lon="4.78401">
        <ele>176</ele>
        <time>2018-03-08T12:59:30Z</time>
      </trkpt>
      <trkpt lat="45.91365" lon="4.78395">
        <ele>176</ele>
        <time>2018-03-08T12:59:31Z</time>
      </trkpt>
      <trkpt lat="45.91368" lon="4.78388">
        <ele>176</ele>
        <time>2018-03-08T12:59:32Z</time>
      </trkpt>
      <trkpt lat="45.91372" lon="4.78381">
        <ele>176</ele>
        <time>2018-03-08T12:59:33Z</time>
      </trkpt>
      <trkpt lat="45.91374" lon="4.78375">
        <ele>177</ele>
        <time>2018-03-08T12:59:34Z</time>
      </trkpt>
      <trkpt lat="45.91378" lon="4.78368">
        <ele>177</ele>
        <time>2018-03-08T12:59:35Z</time>
      </trkpt>
      <trkpt lat="45.91381" lon="4.78361">
        <ele>177</ele>
        <time>2018-03-08T12:59:36Z</time>
      </trkpt>
      <trkpt lat="45.91385" lon="4.78353">
        <ele>177</ele>
        <time>2018-03-08T12:59:37Z</time>
      </trkpt>
      <trkpt lat="45.91388" lon="4.78345">
        <ele>176</ele>
        <time>2018-03-08T12:59:38Z</time>
      </trkpt>
      <trkpt lat="45.91392" lon="4.78338">
        <ele>176</ele>
        <time>2018-03-08T12:59:39Z</time>
      </trkpt>
      <trkpt lat="45.91395" lon="4.7833">
        <ele>177</ele>
        <time>2018-03-08T12:59:40Z</time>
      </trkpt>
      <trkpt lat="45.91399" lon="4.78321">
        <ele>177</ele>
        <time>2018-03-08T12:59:41Z</time>
      </trkpt>
      <trkpt lat="45.91402" lon="4.78312">
        <ele>177</ele>
        <time>2018-03-08T12:59:42Z</time>
      </trkpt>
      <trkpt lat="45.91406" lon="4.78304">
        <ele>177</ele>
        <time>2018-03-08T12:59:43Z</time>
      </trkpt>
      <trkpt lat="45.91409" lon="4.78296">
        <ele>177</ele>
        <time>2018-03-08T12:59:44Z</time>
      </trkpt>
      <trkpt lat="45.91413" lon="4.78287">
        <ele>177</ele>
        <time>2018-03-08T12:59:45Z</time>
      </trkpt>
      <trkpt lat="45.91418" lon="4.78277">
        <ele>176</ele>
        <time>2018-03-08T12:59:46Z</time>
      </trkpt>
      <trkpt lat="45.91422" lon="4.78268">
        <ele>176</ele>
        <time>2018-03-08T12:59:47Z</time>
      </trkpt>
      <trkpt lat="45.91427" lon="4.78259">
        <ele>176</ele>
        <time>2018-03-08T12:59:48Z</time>
      </trkpt>
      <trkpt lat="45.91431" lon="4.7825">
        <ele>176</ele>
        <time>2018-03-08T12:59:49Z</time>
      </trkpt>
      <trkpt lat="45.91435" lon="4.78241">
        <ele>177</ele>
        <time>2018-03-08T12:59:50Z</time>
      </trkpt>
      <trkpt lat="45.91439" lon="4.78233">
        <ele>177</ele>
        <time>2018-03-08T12:59:51Z</time>
      </trkpt>
      <trkpt lat="45.91443" lon="4.78224">
        <ele>177</ele>
        <time>2018-03-08T12:59:52Z</time>
      </trkpt>
      <trkpt lat="45.91448" lon="4.78216">
        <ele>177</ele>
        <time>2018-03-08T12:59:53Z</time>
      </trkpt>
      <trkpt lat="45.91452" lon="4.78207">
        <ele>177</ele>
        <time>2018-03-08T12:59:54Z</time>
      </trkpt>
      <trkpt lat="45.91456" lon="4.78199">
        <ele>177</ele>
        <time>2018-03-08T12:59:55Z</time>
      </trkpt>
      <trkpt lat="45.9146" lon="4.78191">
        <ele>177</ele>
        <time>2018-03-08T12:59:56Z</time>
      </trkpt>
      <trkpt lat="45.91463" lon="4.78182">
        <ele>177</ele>
        <time>2018-03-08T12:59:57Z</time>
      </trkpt>
      <trkpt lat="45.91467" lon="4.78174">
        <ele>177</ele>
        <time>2018-03-08T12:59:58Z</time>
      </trkpt>
      <trkpt lat="45.91471" lon="4.78166">
        <ele>177</ele>
        <time>2018-03-08T12:59:59Z</time>
      </trkpt>
      <trkpt lat="45.91474" lon="4.78158">
        <ele>177</ele>
        <time>2018-03-08T13:00:00Z</time>
      </trkpt>
      <trkpt lat="45.91479" lon="4.78149">
        <ele>177</ele>
        <time>2018-03-08T13:00:01Z</time>
      </trkpt>
      <trkpt lat="45.91483" lon="4.78142">
        <ele>177</ele>
        <time>2018-03-08T13:00:02Z</time>
      </trkpt>
      <trkpt lat="45.91487" lon="4.78134">
        <ele>177</ele>
        <time>2018-03-08T13:00:03Z</time>
      </trkpt>
      <trkpt lat="45.9149" lon="4.78126">
        <ele>177</ele>
        <time>2018-03-08T13:00:04Z</time>
      </trkpt>
      <trkpt lat="45.91494" lon="4.78118">
        <ele>177</ele>
        <time>2018-03-08T13:00:05Z</time>
      </trkpt>
      <trkpt lat="45.91497" lon="4.78109">
        <ele>177</ele>
        <time>2018-03-08T13:00:06Z</time>
      </trkpt>
      <trkpt lat="45.915" lon="4.78103">
        <ele>177</ele>
        <time>2018-03-08T13:00:07Z</time>
      </trkpt>
      <trkpt lat="45.91503" lon="4.78097">
        <ele>176</ele>
        <time>2018-03-08T13:00:08Z</time>
      </trkpt>
      <trkpt lat="45.91507" lon="4.7809">
        <ele>176</ele>
        <time>2018-03-08T13:00:09Z</time>
      </trkpt>
      <trkpt lat="45.91511" lon="4.78083">
        <ele>176</ele>
        <time>2018-03-08T13:00:10Z</time>
      </trkpt>
      <trkpt lat="45.91514" lon="4.78075">
        <ele>176</ele>
        <time>2018-03-08T13:00:11Z</time>
      </trkpt>
      <trkpt lat="45.91517" lon="4.78068">
        <ele>175</ele>
        <time>2018-03-08T13:00:12Z</time>
      </trkpt>
      <trkpt lat="45.9152" lon="4.7806">
        <ele>175</ele>
        <time>2018-03-08T13:00:13Z</time>
      </trkpt>
      <trkpt lat="45.91523" lon="4.78053">
        <ele>175</ele>
        <time>2018-03-08T13:00:14Z</time>
      </trkpt>
      <trkpt lat="45.91526" lon="4.78045">
        <ele>175</ele>
        <time>2018-03-08T13:00:15Z</time>
      </trkpt>
      <trkpt lat="45.91529" lon="4.78037">
        <ele>175</ele>
        <time>2018-03-08T13:00:16Z</time>
      </trkpt>
      <trkpt lat="45.91533" lon="4.78029">
        <ele>174</ele>
        <time>2018-03-08T13:00:17Z</time>
      </trkpt>
      <trkpt lat="45.91536" lon="4.78021">
        <ele>174</ele>
        <time>2018-03-08T13:00:18Z</time>
      </trkpt>
      <trkpt lat="45.9154" lon="4.78013">
        <ele>174</ele>
        <time>2018-03-08T13:00:19Z</time>
      </trkpt>
      <trkpt lat="45.91544" lon="4.78005">
        <ele>174</ele>
        <time>2018-03-08T13:00:20Z</time>
      </trkpt>
      <trkpt lat="45.91548" lon="4.77997">
        <ele>175</ele>
        <time>2018-03-08T13:00:21Z</time>
      </trkpt>
      <trkpt lat="45.91552" lon="4.77989">
        <ele>175</ele>
        <time>2018-03-08T13:00:22Z</time>
      </trkpt>
      <trkpt lat="45.91556" lon="4.77981">
        <ele>175</ele>
        <time>2018-03-08T13:00:23Z</time>
      </trkpt>
      <trkpt lat="45.91558" lon="4.77974">
        <ele>175</ele>
        <time>2018-03-08T13:00:24Z</time>
      </trkpt>
      <trkpt lat="45.91562" lon="4.77965">
        <ele>175</ele>
        <time>2018-03-08T13:00:25Z</time>
      </trkpt>
      <trkpt lat="45.91566" lon="4.77957">
        <ele>175</ele>
        <time>2018-03-08T13:00:26Z</time>
      </trkpt>
      <trkpt lat="45.9157" lon="4.77949">
        <ele>175</ele>
        <time>2018-03-08T13:00:27Z</time>
      </trkpt>
      <trkpt lat="45.91573" lon="4.77942">
        <ele>175</ele>
        <time>2018-03-08T13:00:28Z</time>
      </trkpt>
      <trkpt lat="45.91577" lon="4.77935">
        <ele>174</ele>
        <time>2018-03-08T13:00:29Z</time>
      </trkpt>
      <trkpt lat="45.91581" lon="4.77928">
        <ele>174</ele>
        <time>2018-03-08T13:00:30Z</time>
      </trkpt>
      <trkpt lat="45.91584" lon="4.7792">
        <ele>173</ele>
        <time>2018-03-08T13:00:31Z</time>
      </trkpt>
      <trkpt lat="45.91587" lon="4.77913">
        <ele>173</ele>
        <time>2018-03-08T13:00:32Z</time>
      </trkpt>
      <trkpt lat="45.9159" lon="4.77905">
        <ele>173</ele>
        <time>2018-03-08T13:00:33Z</time>
      </trkpt>
      <trkpt lat="45.91594" lon="4.77897">
        <ele>173</ele>
        <time>2018-03-08T13:00:34Z</time>
      </trkpt>
      <trkpt lat="45.91597" lon="4.77889">
        <ele>173</ele>
        <time>2018-03-08T13:00:35Z</time>
      </trkpt>
      <trkpt lat="45.91601" lon="4.77882">
        <ele>173</ele>
        <time>2018-03-08T13:00:36Z</time>
      </trkpt>
      <trkpt lat="45.91605" lon="4.77875">
        <ele>173</ele>
        <time>2018-03-08T13:00:37Z</time>
      </trkpt>
      <trkpt lat="45.91608" lon="4.77868">
        <ele>173</ele>
        <time>2018-03-08T13:00:38Z</time>
      </trkpt>
      <trkpt lat="45.91611" lon="4.77861">
        <ele>173</ele>
        <time>2018-03-08T13:00:39Z</time>
      </trkpt>
      <trkpt lat="45.91614" lon="4.77854">
        <ele>173</ele>
        <time>2018-03-08T13:00:40Z</time>
      </trkpt>
      <trkpt lat="45.91617" lon="4.77848">
        <ele>173</ele>
        <time>2018-03-08T13:00:41Z</time>
      </trkpt>
      <trkpt lat="45.9162" lon="4.77841">
        <ele>172</ele>
        <time>2018-03-08T13:00:42Z</time>
      </trkpt>
      <trkpt lat="45.91623" lon="4.77835">
        <ele>172</ele>
        <time>2018-03-08T13:00:43Z</time>
      </trkpt>
      <trkpt lat="45.91626" lon="4.77828">
        <ele>172</ele>
        <time>2018-03-08T13:00:44Z</time>
      </trkpt>
      <trkpt lat="45.91628" lon="4.7782">
        <ele>172</ele>
        <time>2018-03-08T13:00:45Z</time>
      </trkpt>
      <trkpt lat="45.91631" lon="4.77813">
        <ele>172</ele>
        <time>2018-03-08T13:00:46Z</time>
      </trkpt>
      <trkpt lat="45.91634" lon="4.77805">
        <ele>171</ele>
        <time>2018-03-08T13:00:47Z</time>
      </trkpt>
      <trkpt lat="45.91637" lon="4.77798">
        <ele>171</ele>
        <time>2018-03-08T13:00:48Z</time>
      </trkpt>
      <trkpt lat="45.9164" lon="4.7779">
        <ele>171</ele>
        <time>2018-03-08T13:00:49Z</time>
      </trkpt>
      <trkpt lat="45.91643" lon="4.77782">
        <ele>171</ele>
        <time>2018-03-08T13:00:50Z</time>
      </trkpt>
      <trkpt lat="45.91645" lon="4.77774">
        <ele>171</ele>
        <time>2018-03-08T13:00:51Z</time>
      </trkpt>
      <trkpt lat="45.91647" lon="4.77766">
        <ele>170</ele>
        <time>2018-03-08T13:00:52Z</time>
      </trkpt>
      <trkpt lat="45.91649" lon="4.77758">
        <ele>170</ele>
        <time>2018-03-08T13:00:53Z</time>
      </trkpt>
      <trkpt lat="45.91651" lon="4.77751">
        <ele>170</ele>
        <time>2018-03-08T13:00:54Z</time>
      </trkpt>
      <trkpt lat="45.91654" lon="4.77742">
        <ele>169</ele>
        <time>2018-03-08T13:00:55Z</time>
      </trkpt>
      <trkpt lat="45.91656" lon="4.77733">
        <ele>170</ele>
        <time>2018-03-08T13:00:56Z</time>
      </trkpt>
      <trkpt lat="45.91658" lon="4.77724">
        <ele>170</ele>
        <time>2018-03-08T13:00:57Z</time>
      </trkpt>
      <trkpt lat="45.9166" lon="4.77715">
        <ele>170</ele>
        <time>2018-03-08T13:00:58Z</time>
      </trkpt>
      <trkpt lat="45.91661" lon="4.77705">
        <ele>170</ele>
        <time>2018-03-08T13:00:59Z</time>
      </trkpt>
      <trkpt lat="45.91663" lon="4.77696">
        <ele>170</ele>
        <time>2018-03-08T13:01:00Z</time>
      </trkpt>
      <trkpt lat="45.91664" lon="4.77687">
        <ele>170</ele>
        <time>2018-03-08T13:01:01Z</time>
      </trkpt>
      <trkpt lat="45.91666" lon="4.77678">
        <ele>170</ele>
        <time>2018-03-08T13:01:02Z</time>
      </trkpt>
      <trkpt lat="45.91668" lon="4.7767">
        <ele>169</ele>
        <time>2018-03-08T13:01:03Z</time>
      </trkpt>
      <trkpt lat="45.9167" lon="4.77663">
        <ele>169</ele>
        <time>2018-03-08T13:01:04Z</time>
      </trkpt>
      <trkpt lat="45.91672" lon="4.77654">
        <ele>169</ele>
        <time>2018-03-08T13:01:05Z</time>
      </trkpt>
      <trkpt lat="45.91674" lon="4.77647">
        <ele>169</ele>
        <time>2018-03-08T13:01:06Z</time>
      </trkpt>
      <trkpt lat="45.91675" lon="4.77639">
        <ele>169</ele>
        <time>2018-03-08T13:01:07Z</time>
      </trkpt>
      <trkpt lat="45.91677" lon="4.77631">
        <ele>169</ele>
        <time>2018-03-08T13:01:08Z</time>
      </trkpt>
      <trkpt lat="45.91678" lon="4.77623">
        <ele>169</ele>
        <time>2018-03-08T13:01:09Z</time>
      </trkpt>
      <trkpt lat="45.91681" lon="4.77616">
        <ele>169</ele>
        <time>2018-03-08T13:01:10Z</time>
      </trkpt>
      <trkpt lat="45.91682" lon="4.77609">
        <ele>169</ele>
        <time>2018-03-08T13:01:11Z</time>
      </trkpt>
      <trkpt lat="45.91683" lon="4.77601">
        <ele>169</ele>
        <time>2018-03-08T13:01:12Z</time>
      </trkpt>
      <trkpt lat="45.91686" lon="4.77594">
        <ele>169</ele>
        <time>2018-03-08T13:01:13Z</time>
      </trkpt>
      <trkpt lat="45.91687" lon="4.77587">
        <ele>169</ele>
        <time>2018-03-08T13:01:14Z</time>
      </trkpt>
      <trkpt lat="45.91689" lon="4.77579">
        <ele>169</ele>
        <time>2018-03-08T13:01:15Z</time>
      </trkpt>
      <trkpt lat="45.91691" lon="4.77572">
        <ele>169</ele>
        <time>2018-03-08T13:01:16Z</time>
      </trkpt>
      <trkpt lat="45.91692" lon="4.77564">
        <ele>169</ele>
        <time>2018-03-08T13:01:17Z</time>
      </trkpt>
      <trkpt lat="45.91694" lon="4.77556">
        <ele>169</ele>
        <time>2018-03-08T13:01:18Z</time>
      </trkpt>
      <trkpt lat="45.91696" lon="4.77548">
        <ele>169</ele>
        <time>2018-03-08T13:01:19Z</time>
      </trkpt>
      <trkpt lat="45.91698" lon="4.77539">
        <ele>169</ele>
        <time>2018-03-08T13:01:20Z</time>
      </trkpt>
      <trkpt lat="45.91699" lon="4.77531">
        <ele>169</ele>
        <time>2018-03-08T13:01:21Z</time>
      </trkpt>
      <trkpt lat="45.91699" lon="4.77524">
        <ele>169</ele>
        <time>2018-03-08T13:01:22Z</time>
      </trkpt>
      <trkpt lat="45.91701" lon="4.77517">
        <ele>169</ele>
        <time>2018-03-08T13:01:23Z</time>
      </trkpt>
      <trkpt lat="45.91704" lon="4.77512">
        <ele>169</ele>
        <time>2018-03-08T13:01:24Z</time>
      </trkpt>
      <trkpt lat="45.91708" lon="4.77507">
        <ele>170</ele>
        <time>2018-03-08T13:01:25Z</time>
      </trkpt>
      <trkpt lat="45.91711" lon="4.77502">
        <ele>170</ele>
        <time>2018-03-08T13:01:26Z</time>
      </trkpt>
      <trkpt lat="45.91715" lon="4.77496">
        <ele>170</ele>
        <time>2018-03-08T13:01:27Z</time>
      </trkpt>
      <trkpt lat="45.91717" lon="4.77489">
        <ele>170</ele>
        <time>2018-03-08T13:01:28Z</time>
      </trkpt>
      <trkpt lat="45.91717" lon="4.7748">
        <ele>170</ele>
        <time>2018-03-08T13:01:29Z</time>
      </trkpt>
      <trkpt lat="45.91714" lon="4.77474">
        <ele>170</ele>
        <time>2018-03-08T13:01:30Z</time>
      </trkpt>
      <trkpt lat="45.91712" lon="4.77469">
        <ele>170</ele>
        <time>2018-03-08T13:01:31Z</time>
      </trkpt>
      <trkpt lat="45.91709" lon="4.77462">
        <ele>170</ele>
        <time>2018-03-08T13:01:32Z</time>
      </trkpt>
      <trkpt lat="45.91707" lon="4.77456">
        <ele>171</ele>
        <time>2018-03-08T13:01:33Z</time>
      </trkpt>
      <trkpt lat="45.91706" lon="4.77448">
        <ele>171</ele>
        <time>2018-03-08T13:01:34Z</time>
      </trkpt>
      <trkpt lat="45.91706" lon="4.7744">
        <ele>171</ele>
        <time>2018-03-08T13:01:35Z</time>
      </trkpt>
      <trkpt lat="45.91708" lon="4.77433">
        <ele>171</ele>
        <time>2018-03-08T13:01:36Z</time>
      </trkpt>
      <trkpt lat="45.91709" lon="4.77425">
        <ele>171</ele>
        <time>2018-03-08T13:01:37Z</time>
      </trkpt>
      <trkpt lat="45.9171" lon="4.77418">
        <ele>171</ele>
        <time>2018-03-08T13:01:38Z</time>
      </trkpt>
      <trkpt lat="45.91712" lon="4.77411">
        <ele>171</ele>
        <time>2018-03-08T13:01:39Z</time>
      </trkpt>
      <trkpt lat="45.91713" lon="4.77404">
        <ele>171</ele>
        <time>2018-03-08T13:01:40Z</time>
      </trkpt>
      <trkpt lat="45.91714" lon="4.77396">
        <ele>171</ele>
        <time>2018-03-08T13:01:41Z</time>
      </trkpt>
      <trkpt lat="45.91714" lon="4.77388">
        <ele>171</ele>
        <time>2018-03-08T13:01:42Z</time>
      </trkpt>
      <trkpt lat="45.91716" lon="4.7738">
        <ele>171</ele>
        <time>2018-03-08T13:01:43Z</time>
      </trkpt>
      <trkpt lat="45.91717" lon="4.77373">
        <ele>171</ele>
        <time>2018-03-08T13:01:44Z</time>
      </trkpt>
      <trkpt lat="45.91718" lon="4.77366">
        <ele>171</ele>
        <time>2018-03-08T13:01:45Z</time>
      </trkpt>
      <trkpt lat="45.9172" lon="4.77358">
        <ele>170</ele>
        <time>2018-03-08T13:01:46Z</time>
      </trkpt>
      <trkpt lat="45.91721" lon="4.77351">
        <ele>170</ele>
        <time>2018-03-08T13:01:47Z</time>
      </trkpt>
      <trkpt lat="45.91722" lon="4.77344">
        <ele>170</ele>
        <time>2018-03-08T13:01:48Z</time>
      </trkpt>
      <trkpt lat="45.91723" lon="4.77336">
        <ele>170</ele>
        <time>2018-03-08T13:01:49Z</time>
      </trkpt>
      <trkpt lat="45.91724" lon="4.77328">
        <ele>170</ele>
        <time>2018-03-08T13:01:50Z</time>
      </trkpt>
      <trkpt lat="45.91725" lon="4.77321">
        <ele>170</ele>
        <time>2018-03-08T13:01:51Z</time>
      </trkpt>
      <trkpt lat="45.91726" lon="4.77313">
        <ele>170</ele>
        <time>2018-03-08T13:01:52Z</time>
      </trkpt>
      <trkpt lat="45.91728" lon="4.77304">
        <ele>170</ele>
        <time>2018-03-08T13:01:53Z</time>
      </trkpt>
      <trkpt lat="45.91729" lon="4.77297">
        <ele>170</ele>
        <time>2018-03-08T13:01:54Z</time>
      </trkpt>
      <trkpt lat="45.9173" lon="4.77289">
        <ele>170</ele>
        <time>2018-03-08T13:01:55Z</time>
      </trkpt>
      <trkpt lat="45.91732" lon="4.77281">
        <ele>170</ele>
        <time>2018-03-08T13:01:56Z</time>
      </trkpt>
      <trkpt lat="45.91733" lon="4.77272">
        <ele>170</ele>
        <time>2018-03-08T13:01:57Z</time>
      </trkpt>
      <trkpt lat="45.91734" lon="4.77263">
        <ele>170</ele>
        <time>2018-03-08T13:01:58Z</time>
      </trkpt>
      <trkpt lat="45.91735" lon="4.77255">
        <ele>169</ele>
        <time>2018-03-08T13:01:59Z</time>
      </trkpt>
      <trkpt lat="45.91736" lon="4.77247">
        <ele>169</ele>
        <time>2018-03-08T13:02:00Z</time>
      </trkpt>
      <trkpt lat="45.91737" lon="4.77239">
        <ele>169</ele>
        <time>2018-03-08T13:02:01Z</time>
      </trkpt>
      <trkpt lat="45.91739" lon="4.7723">
        <ele>169</ele>
        <time>2018-03-08T13:02:02Z</time>
      </trkpt>
      <trkpt lat="45.9174" lon="4.77221">
        <ele>170</ele>
        <time>2018-03-08T13:02:03Z</time>
      </trkpt>
      <trkpt lat="45.91741" lon="4.77211">
        <ele>170</ele>
        <time>2018-03-08T13:02:04Z</time>
      </trkpt>
      <trkpt lat="45.91742" lon="4.77203">
        <ele>170</ele>
        <time>2018-03-08T13:02:05Z</time>
      </trkpt>
      <trkpt lat="45.91743" lon="4.77194">
        <ele>170</ele>
        <time>2018-03-08T13:02:06Z</time>
      </trkpt>
      <trkpt lat="45.91744" lon="4.77185">
        <ele>170</ele>
        <time>2018-03-08T13:02:07Z</time>
      </trkpt>
      <trkpt lat="45.91746" lon="4.77176">
        <ele>170</ele>
        <time>2018-03-08T13:02:08Z</time>
      </trkpt>
      <trkpt lat="45.91748" lon="4.77168">
        <ele>170</ele>
        <time>2018-03-08T13:02:09Z</time>
      </trkpt>
      <trkpt lat="45.91749" lon="4.77161">
        <ele>170</ele>
        <time>2018-03-08T13:02:10Z</time>
      </trkpt>
      <trkpt lat="45.9175" lon="4.77153">
        <ele>169</ele>
        <time>2018-03-08T13:02:11Z</time>
      </trkpt>
      <trkpt lat="45.91751" lon="4.77146">
        <ele>169</ele>
        <time>2018-03-08T13:02:12Z</time>
      </trkpt>
      <trkpt lat="45.91752" lon="4.77137">
        <ele>169</ele>
        <time>2018-03-08T13:02:13Z</time>
      </trkpt>
      <trkpt lat="45.91753" lon="4.77129">
        <ele>169</ele>
        <time>2018-03-08T13:02:14Z</time>
      </trkpt>
      <trkpt lat="45.91754" lon="4.7712">
        <ele>169</ele>
        <time>2018-03-08T13:02:15Z</time>
      </trkpt>
      <trkpt lat="45.91755" lon="4.77112">
        <ele>169</ele>
        <time>2018-03-08T13:02:16Z</time>
      </trkpt>
      <trkpt lat="45.91755" lon="4.77103">
        <ele>169</ele>
        <time>2018-03-08T13:02:17Z</time>
      </trkpt>
      <trkpt lat="45.91757" lon="4.77095">
        <ele>169</ele>
        <time>2018-03-08T13:02:18Z</time>
      </trkpt>
      <trkpt lat="45.91759" lon="4.77086">
        <ele>169</ele>
        <time>2018-03-08T13:02:19Z</time>
      </trkpt>
      <trkpt lat="45.9176" lon="4.77078">
        <ele>169</ele>
        <time>2018-03-08T13:02:20Z</time>
      </trkpt>
      <trkpt lat="45.91762" lon="4.77069">
        <ele>169</ele>
        <time>2018-03-08T13:02:21Z</time>
      </trkpt>
      <trkpt lat="45.91763" lon="4.7706">
        <ele>169</ele>
        <time>2018-03-08T13:02:22Z</time>
      </trkpt>
      <trkpt lat="45.91764" lon="4.77052">
        <ele>168</ele>
        <time>2018-03-08T13:02:23Z</time>
      </trkpt>
      <trkpt lat="45.91765" lon="4.77043">
        <ele>168</ele>
        <time>2018-03-08T13:02:24Z</time>
      </trkpt>
      <trkpt lat="45.91765" lon="4.77035">
        <ele>168</ele>
        <time>2018-03-08T13:02:25Z</time>
      </trkpt>
      <trkpt lat="45.91766" lon="4.77026">
        <ele>168</ele>
        <time>2018-03-08T13:02:26Z</time>
      </trkpt>
      <trkpt lat="45.91768" lon="4.77018">
        <ele>169</ele>
        <time>2018-03-08T13:02:27Z</time>
      </trkpt>
      <trkpt lat="45.91768" lon="4.77009">
        <ele>169</ele>
        <time>2018-03-08T13:02:28Z</time>
      </trkpt>
      <trkpt lat="45.91769" lon="4.77">
        <ele>169</ele>
        <time>2018-03-08T13:02:29Z</time>
      </trkpt>
      <trkpt lat="45.91771" lon="4.76992">
        <ele>169</ele>
        <time>2018-03-08T13:02:30Z</time>
      </trkpt>
      <trkpt lat="45.91773" lon="4.76984">
        <ele>169</ele>
        <time>2018-03-08T13:02:31Z</time>
      </trkpt>
      <trkpt lat="45.91774" lon="4.76975">
        <ele>169</ele>
        <time>2018-03-08T13:02:32Z</time>
      </trkpt>
      <trkpt lat="45.91775" lon="4.76967">
        <ele>169</ele>
        <time>2018-03-08T13:02:33Z</time>
      </trkpt>
      <trkpt lat="45.91776" lon="4.76959">
        <ele>169</ele>
        <time>2018-03-08T13:02:34Z</time>
      </trkpt>
      <trkpt lat="45.91776" lon="4.7695">
        <ele>169</ele>
        <time>2018-03-08T13:02:35Z</time>
      </trkpt>
      <trkpt lat="45.91778" lon="4.76942">
        <ele>169</ele>
        <time>2018-03-08T13:02:36Z</time>
      </trkpt>
      <trkpt lat="45.91779" lon="4.76933">
        <ele>169</ele>
        <time>2018-03-08T13:02:37Z</time>
      </trkpt>
      <trkpt lat="45.9178" lon="4.76925">
        <ele>169</ele>
        <time>2018-03-08T13:02:38Z</time>
      </trkpt>
      <trkpt lat="45.9178" lon="4.76917">
        <ele>169</ele>
        <time>2018-03-08T13:02:39Z</time>
      </trkpt>
      <trkpt lat="45.91782" lon="4.7691">
        <ele>170</ele>
        <time>2018-03-08T13:02:40Z</time>
      </trkpt>
      <trkpt lat="45.91782" lon="4.76902">
        <ele>170</ele>
        <time>2018-03-08T13:02:41Z</time>
      </trkpt>
      <trkpt lat="45.91783" lon="4.76895">
        <ele>170</ele>
        <time>2018-03-08T13:02:42Z</time>
      </trkpt>
      <trkpt lat="45.91784" lon="4.76887">
        <ele>170</ele>
        <time>2018-03-08T13:02:43Z</time>
      </trkpt>
      <trkpt lat="45.91784" lon="4.76879">
        <ele>170</ele>
        <time>2018-03-08T13:02:44Z</time>
      </trkpt>
      <trkpt lat="45.91784" lon="4.76871">
        <ele>170</ele>
        <time>2018-03-08T13:02:45Z</time>
      </trkpt>
      <trkpt lat="45.91784" lon="4.76864">
        <ele>170</ele>
        <time>2018-03-08T13:02:46Z</time>
      </trkpt>
      <trkpt lat="45.91784" lon="4.76857">
        <ele>170</ele>
        <time>2018-03-08T13:02:47Z</time>
      </trkpt>
      <trkpt lat="45.91784" lon="4.76849">
        <ele>170</ele>
        <time>2018-03-08T13:02:48Z</time>
      </trkpt>
      <trkpt lat="45.91785" lon="4.76842">
        <ele>170</ele>
        <time>2018-03-08T13:02:49Z</time>
      </trkpt>
      <trkpt lat="45.91785" lon="4.76835">
        <ele>170</ele>
        <time>2018-03-08T13:02:50Z</time>
      </trkpt>
      <trkpt lat="45.91785" lon="4.76828">
        <ele>171</ele>
        <time>2018-03-08T13:02:51Z</time>
      </trkpt>
      <trkpt lat="45.91786" lon="4.76815">
        <ele>171</ele>
        <time>2018-03-08T13:02:53Z</time>
      </trkpt>
      <trkpt lat="45.91787" lon="4.76809">
        <ele>171</ele>
        <time>2018-03-08T13:02:54Z</time>
      </trkpt>
      <trkpt lat="45.91787" lon="4.76802">
        <ele>171</ele>
        <time>2018-03-08T13:02:55Z</time>
      </trkpt>
      <trkpt lat="45.91787" lon="4.76795">
        <ele>171</ele>
        <time>2018-03-08T13:02:56Z</time>
      </trkpt>
      <trkpt lat="45.91788" lon="4.76782">
        <ele>171</ele>
        <time>2018-03-08T13:02:58Z</time>
      </trkpt>
      <trkpt lat="45.91788" lon="4.76776">
        <ele>171</ele>
        <time>2018-03-08T13:02:59Z</time>
      </trkpt>
      <trkpt lat="45.91788" lon="4.76763">
        <ele>171</ele>
        <time>2018-03-08T13:03:01Z</time>
      </trkpt>
      <trkpt lat="45.91787" lon="4.76756">
        <ele>171</ele>
        <time>2018-03-08T13:03:02Z</time>
      </trkpt>
      <trkpt lat="45.91788" lon="4.76743">
        <ele>172</ele>
        <time>2018-03-08T13:03:04Z</time>
      </trkpt>
      <trkpt lat="45.91787" lon="4.76737">
        <ele>172</ele>
        <time>2018-03-08T13:03:05Z</time>
      </trkpt>
      <trkpt lat="45.91789" lon="4.76725">
        <ele>172</ele>
        <time>2018-03-08T13:03:07Z</time>
      </trkpt>
      <trkpt lat="45.9179" lon="4.76717">
        <ele>172</ele>
        <time>2018-03-08T13:03:08Z</time>
      </trkpt>
      <trkpt lat="45.9179" lon="4.76705">
        <ele>172</ele>
        <time>2018-03-08T13:03:10Z</time>
      </trkpt>
      <trkpt lat="45.91791" lon="4.76699">
        <ele>172</ele>
        <time>2018-03-08T13:03:11Z</time>
      </trkpt>
      <trkpt lat="45.91791" lon="4.76687">
        <ele>172</ele>
        <time>2018-03-08T13:03:13Z</time>
      </trkpt>
      <trkpt lat="45.91792" lon="4.76681">
        <ele>172</ele>
        <time>2018-03-08T13:03:14Z</time>
      </trkpt>
      <trkpt lat="45.91792" lon="4.76669">
        <ele>172</ele>
        <time>2018-03-08T13:03:16Z</time>
      </trkpt>
      <trkpt lat="45.91793" lon="4.76662">
        <ele>173</ele>
        <time>2018-03-08T13:03:17Z</time>
      </trkpt>
      <trkpt lat="45.91794" lon="4.76651">
        <ele>173</ele>
        <time>2018-03-08T13:03:19Z</time>
      </trkpt>
      <trkpt lat="45.91794" lon="4.76645">
        <ele>173</ele>
        <time>2018-03-08T13:03:20Z</time>
      </trkpt>
      <trkpt lat="45.91795" lon="4.76633">
        <ele>173</ele>
        <time>2018-03-08T13:03:22Z</time>
      </trkpt>
      <trkpt lat="45.91796" lon="4.76627">
        <ele>173</ele>
        <time>2018-03-08T13:03:23Z</time>
      </trkpt>
      <trkpt lat="45.91797" lon="4.76614">
        <ele>173</ele>
        <time>2018-03-08T13:03:25Z</time>
      </trkpt>
      <trkpt lat="45.91797" lon="4.76608">
        <ele>173</ele>
        <time>2018-03-08T13:03:26Z</time>
      </trkpt>
      <trkpt lat="45.91798" lon="4.76595">
        <ele>173</ele>
        <time>2018-03-08T13:03:28Z</time>
      </trkpt>
      <trkpt lat="45.91798" lon="4.76589">
        <ele>173</ele>
        <time>2018-03-08T13:03:29Z</time>
      </trkpt>
      <trkpt lat="45.91798" lon="4.76583">
        <ele>173</ele>
        <time>2018-03-08T13:03:30Z</time>
      </trkpt>
      <trkpt lat="45.91798" lon="4.76576">
        <ele>173</ele>
        <time>2018-03-08T13:03:31Z</time>
      </trkpt>
      <trkpt lat="45.918" lon="4.76564">
        <ele>173</ele>
        <time>2018-03-08T13:03:33Z</time>
      </trkpt>
      <trkpt lat="45.91801" lon="4.76557">
        <ele>173</ele>
        <time>2018-03-08T13:03:34Z</time>
      </trkpt>
      <trkpt lat="45.91803" lon="4.76545">
        <ele>173</ele>
        <time>2018-03-08T13:03:36Z</time>
      </trkpt>
      <trkpt lat="45.91803" lon="4.76538">
        <ele>173</ele>
        <time>2018-03-08T13:03:37Z</time>
      </trkpt>
      <trkpt lat="45.91804" lon="4.76531">
        <ele>173</ele>
        <time>2018-03-08T13:03:38Z</time>
      </trkpt>
      <trkpt lat="45.91804" lon="4.76525">
        <ele>173</ele>
        <time>2018-03-08T13:03:39Z</time>
      </trkpt>
      <trkpt lat="45.91805" lon="4.76518">
        <ele>173</ele>
        <time>2018-03-08T13:03:40Z</time>
      </trkpt>
      <trkpt lat="45.91806" lon="4.76511">
        <ele>173</ele>
        <time>2018-03-08T13:03:41Z</time>
      </trkpt>
      <trkpt lat="45.91806" lon="4.76504">
        <ele>173</ele>
        <time>2018-03-08T13:03:42Z</time>
      </trkpt>
      <trkpt lat="45.91806" lon="4.76497">
        <ele>173</ele>
        <time>2018-03-08T13:03:43Z</time>
      </trkpt>
      <trkpt lat="45.91807" lon="4.76491">
        <ele>173</ele>
        <time>2018-03-08T13:03:44Z</time>
      </trkpt>
      <trkpt lat="45.91808" lon="4.76484">
        <ele>173</ele>
        <time>2018-03-08T13:03:45Z</time>
      </trkpt>
      <trkpt lat="45.91808" lon="4.76477">
        <ele>173</ele>
        <time>2018-03-08T13:03:46Z</time>
      </trkpt>
      <trkpt lat="45.91809" lon="4.7647">
        <ele>173</ele>
        <time>2018-03-08T13:03:47Z</time>
      </trkpt>
      <trkpt lat="45.91809" lon="4.76462">
        <ele>173</ele>
        <time>2018-03-08T13:03:48Z</time>
      </trkpt>
      <trkpt lat="45.91809" lon="4.76454">
        <ele>173</ele>
        <time>2018-03-08T13:03:49Z</time>
      </trkpt>
      <trkpt lat="45.9181" lon="4.76447">
        <ele>173</ele>
        <time>2018-03-08T13:03:50Z</time>
      </trkpt>
      <trkpt lat="45.9181" lon="4.76439">
        <ele>173</ele>
        <time>2018-03-08T13:03:51Z</time>
      </trkpt>
      <trkpt lat="45.91811" lon="4.76432">
        <ele>173</ele>
        <time>2018-03-08T13:03:52Z</time>
      </trkpt>
      <trkpt lat="45.91812" lon="4.76425">
        <ele>173</ele>
        <time>2018-03-08T13:03:53Z</time>
      </trkpt>
      <trkpt lat="45.91813" lon="4.76417">
        <ele>173</ele>
        <time>2018-03-08T13:03:54Z</time>
      </trkpt>
      <trkpt lat="45.91814" lon="4.76408">
        <ele>173</ele>
        <time>2018-03-08T13:03:55Z</time>
      </trkpt>
      <trkpt lat="45.91814" lon="4.764">
        <ele>173</ele>
        <time>2018-03-08T13:03:56Z</time>
      </trkpt>
      <trkpt lat="45.91815" lon="4.76392">
        <ele>173</ele>
        <time>2018-03-08T13:03:57Z</time>
      </trkpt>
      <trkpt lat="45.91816" lon="4.76385">
        <ele>174</ele>
        <time>2018-03-08T13:03:58Z</time>
      </trkpt>
      <trkpt lat="45.91816" lon="4.76377">
        <ele>174</ele>
        <time>2018-03-08T13:03:59Z</time>
      </trkpt>
      <trkpt lat="45.91816" lon="4.7637">
        <ele>174</ele>
        <time>2018-03-08T13:04:00Z</time>
      </trkpt>
      <trkpt lat="45.91816" lon="4.76363">
        <ele>174</ele>
        <time>2018-03-08T13:04:01Z</time>
      </trkpt>
      <trkpt lat="45.91817" lon="4.76356">
        <ele>174</ele>
        <time>2018-03-08T13:04:02Z</time>
      </trkpt>
      <trkpt lat="45.91818" lon="4.76349">
        <ele>174</ele>
        <time>2018-03-08T13:04:03Z</time>
      </trkpt>
      <trkpt lat="45.91819" lon="4.76341">
        <ele>174</ele>
        <time>2018-03-08T13:04:04Z</time>
      </trkpt>
      <trkpt lat="45.91821" lon="4.76334">
        <ele>173</ele>
        <time>2018-03-08T13:04:05Z</time>
      </trkpt>
      <trkpt lat="45.91823" lon="4.76328">
        <ele>174</ele>
        <time>2018-03-08T13:04:06Z</time>
      </trkpt>
      <trkpt lat="45.91825" lon="4.76322">
        <ele>174</ele>
        <time>2018-03-08T13:04:07Z</time>
      </trkpt>
      <trkpt lat="45.91826" lon="4.76315">
        <ele>174</ele>
        <time>2018-03-08T13:04:08Z</time>
      </trkpt>
      <trkpt lat="45.91827" lon="4.76308">
        <ele>174</ele>
        <time>2018-03-08T13:04:09Z</time>
      </trkpt>
      <trkpt lat="45.91828" lon="4.763">
        <ele>174</ele>
        <time>2018-03-08T13:04:10Z</time>
      </trkpt>
      <trkpt lat="45.91829" lon="4.76293">
        <ele>174</ele>
        <time>2018-03-08T13:04:11Z</time>
      </trkpt>
      <trkpt lat="45.91831" lon="4.76285">
        <ele>174</ele>
        <time>2018-03-08T13:04:12Z</time>
      </trkpt>
      <trkpt lat="45.91832" lon="4.76278">
        <ele>174</ele>
        <time>2018-03-08T13:04:13Z</time>
      </trkpt>
      <trkpt lat="45.91834" lon="4.76272">
        <ele>172</ele>
        <time>2018-03-08T13:04:14Z</time>
      </trkpt>
      <trkpt lat="45.91837" lon="4.76266">
        <ele>172</ele>
        <time>2018-03-08T13:04:15Z</time>
      </trkpt>
      <trkpt lat="45.91838" lon="4.76259">
        <ele>173</ele>
        <time>2018-03-08T13:04:16Z</time>
      </trkpt>
      <trkpt lat="45.91841" lon="4.76252">
        <ele>173</ele>
        <time>2018-03-08T13:04:17Z</time>
      </trkpt>
      <trkpt lat="45.91843" lon="4.76244">
        <ele>173</ele>
        <time>2018-03-08T13:04:18Z</time>
      </trkpt>
      <trkpt lat="45.91845" lon="4.76238">
        <ele>173</ele>
        <time>2018-03-08T13:04:19Z</time>
      </trkpt>
      <trkpt lat="45.91847" lon="4.7623">
        <ele>172</ele>
        <time>2018-03-08T13:04:20Z</time>
      </trkpt>
      <trkpt lat="45.91849" lon="4.76223">
        <ele>172</ele>
        <time>2018-03-08T13:04:21Z</time>
      </trkpt>
      <trkpt lat="45.91852" lon="4.76215">
        <ele>172</ele>
        <time>2018-03-08T13:04:22Z</time>
      </trkpt>
      <trkpt lat="45.91854" lon="4.76207">
        <ele>172</ele>
        <time>2018-03-08T13:04:23Z</time>
      </trkpt>
      <trkpt lat="45.91855" lon="4.762">
        <ele>172</ele>
        <time>2018-03-08T13:04:24Z</time>
      </trkpt>
      <trkpt lat="45.91857" lon="4.76193">
        <ele>172</ele>
        <time>2018-03-08T13:04:25Z</time>
      </trkpt>
      <trkpt lat="45.91859" lon="4.76185">
        <ele>172</ele>
        <time>2018-03-08T13:04:26Z</time>
      </trkpt>
      <trkpt lat="45.91862" lon="4.76179">
        <ele>172</ele>
        <time>2018-03-08T13:04:27Z</time>
      </trkpt>
      <trkpt lat="45.91863" lon="4.7617">
        <ele>172</ele>
        <time>2018-03-08T13:04:28Z</time>
      </trkpt>
      <trkpt lat="45.91865" lon="4.76163">
        <ele>173</ele>
        <time>2018-03-08T13:04:29Z</time>
      </trkpt>
      <trkpt lat="45.91866" lon="4.76157">
        <ele>172</ele>
        <time>2018-03-08T13:04:30Z</time>
      </trkpt>
      <trkpt lat="45.91868" lon="4.7615">
        <ele>172</ele>
        <time>2018-03-08T13:04:31Z</time>
      </trkpt>
      <trkpt lat="45.9187" lon="4.76144">
        <ele>172</ele>
        <time>2018-03-08T13:04:32Z</time>
      </trkpt>
      <trkpt lat="45.91871" lon="4.76137">
        <ele>172</ele>
        <time>2018-03-08T13:04:33Z</time>
      </trkpt>
      <trkpt lat="45.91873" lon="4.7613">
        <ele>173</ele>
        <time>2018-03-08T13:04:34Z</time>
      </trkpt>
      <trkpt lat="45.91875" lon="4.76123">
        <ele>173</ele>
        <time>2018-03-08T13:04:35Z</time>
      </trkpt>
      <trkpt lat="45.91877" lon="4.76116">
        <ele>173</ele>
        <time>2018-03-08T13:04:36Z</time>
      </trkpt>
      <trkpt lat="45.91878" lon="4.7611">
        <ele>173</ele>
        <time>2018-03-08T13:04:37Z</time>
      </trkpt>
      <trkpt lat="45.9188" lon="4.76103">
        <ele>172</ele>
        <time>2018-03-08T13:04:38Z</time>
      </trkpt>
      <trkpt lat="45.91882" lon="4.76096">
        <ele>172</ele>
        <time>2018-03-08T13:04:39Z</time>
      </trkpt>
      <trkpt lat="45.91884" lon="4.76089">
        <ele>172</ele>
        <time>2018-03-08T13:04:40Z</time>
      </trkpt>
      <trkpt lat="45.91885" lon="4.76082">
        <ele>173</ele>
        <time>2018-03-08T13:04:41Z</time>
      </trkpt>
      <trkpt lat="45.91887" lon="4.76075">
        <ele>173</ele>
        <time>2018-03-08T13:04:42Z</time>
      </trkpt>
      <trkpt lat="45.91889" lon="4.76068">
        <ele>173</ele>
        <time>2018-03-08T13:04:43Z</time>
      </trkpt>
      <trkpt lat="45.91891" lon="4.7606">
        <ele>173</ele>
        <time>2018-03-08T13:04:44Z</time>
      </trkpt>
      <trkpt lat="45.91893" lon="4.76054">
        <ele>173</ele>
        <time>2018-03-08T13:04:45Z</time>
      </trkpt>
      <trkpt lat="45.91895" lon="4.76047">
        <ele>173</ele>
        <time>2018-03-08T13:04:46Z</time>
      </trkpt>
      <trkpt lat="45.91897" lon="4.76039">
        <ele>173</ele>
        <time>2018-03-08T13:04:47Z</time>
      </trkpt>
      <trkpt lat="45.91899" lon="4.76033">
        <ele>173</ele>
        <time>2018-03-08T13:04:48Z</time>
      </trkpt>
      <trkpt lat="45.91901" lon="4.76025">
        <ele>173</ele>
        <time>2018-03-08T13:04:49Z</time>
      </trkpt>
      <trkpt lat="45.91903" lon="4.76018">
        <ele>173</ele>
        <time>2018-03-08T13:04:50Z</time>
      </trkpt>
      <trkpt lat="45.91905" lon="4.76011">
        <ele>173</ele>
        <time>2018-03-08T13:04:51Z</time>
      </trkpt>
      <trkpt lat="45.91907" lon="4.76004">
        <ele>172</ele>
        <time>2018-03-08T13:04:52Z</time>
      </trkpt>
      <trkpt lat="45.91909" lon="4.75997">
        <ele>173</ele>
        <time>2018-03-08T13:04:53Z</time>
      </trkpt>
      <trkpt lat="45.91911" lon="4.75989">
        <ele>173</ele>
        <time>2018-03-08T13:04:54Z</time>
      </trkpt>
      <trkpt lat="45.91912" lon="4.75982">
        <ele>173</ele>
        <time>2018-03-08T13:04:55Z</time>
      </trkpt>
      <trkpt lat="45.91913" lon="4.75976">
        <ele>173</ele>
        <time>2018-03-08T13:04:56Z</time>
      </trkpt>
      <trkpt lat="45.91915" lon="4.75969">
        <ele>173</ele>
        <time>2018-03-08T13:04:57Z</time>
      </trkpt>
      <trkpt lat="45.91916" lon="4.75962">
        <ele>173</ele>
        <time>2018-03-08T13:04:58Z</time>
      </trkpt>
      <trkpt lat="45.91918" lon="4.75955">
        <ele>172</ele>
        <time>2018-03-08T13:04:59Z</time>
      </trkpt>
      <trkpt lat="45.9192" lon="4.75948">
        <ele>172</ele>
        <time>2018-03-08T13:05:00Z</time>
      </trkpt>
      <trkpt lat="45.91924" lon="4.75941">
        <ele>172</ele>
        <time>2018-03-08T13:05:01Z</time>
      </trkpt>
      <trkpt lat="45.91926" lon="4.75933">
        <ele>172</ele>
        <time>2018-03-08T13:05:02Z</time>
      </trkpt>
      <trkpt lat="45.91928" lon="4.75926">
        <ele>172</ele>
        <time>2018-03-08T13:05:03Z</time>
      </trkpt>
      <trkpt lat="45.91929" lon="4.75917">
        <ele>172</ele>
        <time>2018-03-08T13:05:04Z</time>
      </trkpt>
      <trkpt lat="45.91932" lon="4.7591">
        <ele>172</ele>
        <time>2018-03-08T13:05:05Z</time>
      </trkpt>
      <trkpt lat="45.91934" lon="4.75902">
        <ele>172</ele>
        <time>2018-03-08T13:05:06Z</time>
      </trkpt>
      <trkpt lat="45.91937" lon="4.75895">
        <ele>172</ele>
        <time>2018-03-08T13:05:07Z</time>
      </trkpt>
      <trkpt lat="45.91939" lon="4.75887">
        <ele>172</ele>
        <time>2018-03-08T13:05:08Z</time>
      </trkpt>
      <trkpt lat="45.91942" lon="4.7588">
        <ele>172</ele>
        <time>2018-03-08T13:05:09Z</time>
      </trkpt>
      <trkpt lat="45.91945" lon="4.75873">
        <ele>172</ele>
        <time>2018-03-08T13:05:10Z</time>
      </trkpt>
      <trkpt lat="45.91949" lon="4.75866">
        <ele>172</ele>
        <time>2018-03-08T13:05:11Z</time>
      </trkpt>
      <trkpt lat="45.91953" lon="4.75859">
        <ele>172</ele>
        <time>2018-03-08T13:05:12Z</time>
      </trkpt>
      <trkpt lat="45.91956" lon="4.75852">
        <ele>172</ele>
        <time>2018-03-08T13:05:13Z</time>
      </trkpt>
      <trkpt lat="45.91961" lon="4.75844">
        <ele>172</ele>
        <time>2018-03-08T13:05:14Z</time>
      </trkpt>
      <trkpt lat="45.91965" lon="4.75836">
        <ele>172</ele>
        <time>2018-03-08T13:05:15Z</time>
      </trkpt>
      <trkpt lat="45.91969" lon="4.75829">
        <ele>173</ele>
        <time>2018-03-08T13:05:16Z</time>
      </trkpt>
      <trkpt lat="45.91972" lon="4.75821">
        <ele>173</ele>
        <time>2018-03-08T13:05:17Z</time>
      </trkpt>
      <trkpt lat="45.91977" lon="4.75813">
        <ele>173</ele>
        <time>2018-03-08T13:05:18Z</time>
      </trkpt>
      <trkpt lat="45.91981" lon="4.75806">
        <ele>173</ele>
        <time>2018-03-08T13:05:19Z</time>
      </trkpt>
      <trkpt lat="45.91985" lon="4.75799">
        <ele>173</ele>
        <time>2018-03-08T13:05:20Z</time>
      </trkpt>
      <trkpt lat="45.91988" lon="4.75792">
        <ele>173</ele>
        <time>2018-03-08T13:05:21Z</time>
      </trkpt>
      <trkpt lat="45.91993" lon="4.75785">
        <ele>173</ele>
        <time>2018-03-08T13:05:22Z</time>
      </trkpt>
      <trkpt lat="45.91996" lon="4.75778">
        <ele>174</ele>
        <time>2018-03-08T13:05:23Z</time>
      </trkpt>
      <trkpt lat="45.91999" lon="4.75772">
        <ele>174</ele>
        <time>2018-03-08T13:05:24Z</time>
      </trkpt>
      <trkpt lat="45.92003" lon="4.75765">
        <ele>174</ele>
        <time>2018-03-08T13:05:25Z</time>
      </trkpt>
      <trkpt lat="45.92007" lon="4.75759">
        <ele>174</ele>
        <time>2018-03-08T13:05:26Z</time>
      </trkpt>
      <trkpt lat="45.92011" lon="4.75753">
        <ele>174</ele>
        <time>2018-03-08T13:05:27Z</time>
      </trkpt>
      <trkpt lat="45.92015" lon="4.75747">
        <ele>174</ele>
        <time>2018-03-08T13:05:28Z</time>
      </trkpt>
      <trkpt lat="45.92018" lon="4.7574">
        <ele>174</ele>
        <time>2018-03-08T13:05:29Z</time>
      </trkpt>
      <trkpt lat="45.92022" lon="4.75734">
        <ele>175</ele>
        <time>2018-03-08T13:05:30Z</time>
      </trkpt>
      <trkpt lat="45.92026" lon="4.75727">
        <ele>175</ele>
        <time>2018-03-08T13:05:31Z</time>
      </trkpt>
      <trkpt lat="45.92029" lon="4.75721">
        <ele>175</ele>
        <time>2018-03-08T13:05:32Z</time>
      </trkpt>
      <trkpt lat="45.92033" lon="4.75715">
        <ele>175</ele>
        <time>2018-03-08T13:05:33Z</time>
      </trkpt>
      <trkpt lat="45.92037" lon="4.75707">
        <ele>175</ele>
        <time>2018-03-08T13:05:34Z</time>
      </trkpt>
      <trkpt lat="45.9204" lon="4.757">
        <ele>175</ele>
        <time>2018-03-08T13:05:35Z</time>
      </trkpt>
      <trkpt lat="45.92043" lon="4.75694">
        <ele>175</ele>
        <time>2018-03-08T13:05:36Z</time>
      </trkpt>
      <trkpt lat="45.92047" lon="4.75688">
        <ele>175</ele>
        <time>2018-03-08T13:05:37Z</time>
      </trkpt>
      <trkpt lat="45.9205" lon="4.75682">
        <ele>175</ele>
        <time>2018-03-08T13:05:38Z</time>
      </trkpt>
      <trkpt lat="45.92052" lon="4.75676">
        <ele>175</ele>
        <time>2018-03-08T13:05:39Z</time>
      </trkpt>
      <trkpt lat="45.92056" lon="4.7567">
        <ele>175</ele>
        <time>2018-03-08T13:05:40Z</time>
      </trkpt>
      <trkpt lat="45.9206" lon="4.75664">
        <ele>175</ele>
        <time>2018-03-08T13:05:41Z</time>
      </trkpt>
      <trkpt lat="45.92062" lon="4.75659">
        <ele>175</ele>
        <time>2018-03-08T13:05:42Z</time>
      </trkpt>
      <trkpt lat="45.92065" lon="4.75652">
        <ele>175</ele>
        <time>2018-03-08T13:05:43Z</time>
      </trkpt>
      <trkpt lat="45.92069" lon="4.75646">
        <ele>175</ele>
        <time>2018-03-08T13:05:44Z</time>
      </trkpt>
      <trkpt lat="45.92073" lon="4.75641">
        <ele>175</ele>
        <time>2018-03-08T13:05:45Z</time>
      </trkpt>
      <trkpt lat="45.92076" lon="4.75636">
        <ele>175</ele>
        <time>2018-03-08T13:05:46Z</time>
      </trkpt>
      <trkpt lat="45.92079" lon="4.7563">
        <ele>175</ele>
        <time>2018-03-08T13:05:47Z</time>
      </trkpt>
      <trkpt lat="45.92083" lon="4.75624">
        <ele>175</ele>
        <time>2018-03-08T13:05:48Z</time>
      </trkpt>
      <trkpt lat="45.92086" lon="4.75617">
        <ele>174</ele>
        <time>2018-03-08T13:05:49Z</time>
      </trkpt>
      <trkpt lat="45.92089" lon="4.75612">
        <ele>174</ele>
        <time>2018-03-08T13:05:50Z</time>
      </trkpt>
      <trkpt lat="45.92093" lon="4.75605">
        <ele>174</ele>
        <time>2018-03-08T13:05:51Z</time>
      </trkpt>
      <trkpt lat="45.92095" lon="4.756">
        <ele>174</ele>
        <time>2018-03-08T13:05:52Z</time>
      </trkpt>
      <trkpt lat="45.92099" lon="4.75595">
        <ele>174</ele>
        <time>2018-03-08T13:05:53Z</time>
      </trkpt>
      <trkpt lat="45.92102" lon="4.75589">
        <ele>174</ele>
        <time>2018-03-08T13:05:54Z</time>
      </trkpt>
      <trkpt lat="45.92105" lon="4.75582">
        <ele>174</ele>
        <time>2018-03-08T13:05:55Z</time>
      </trkpt>
      <trkpt lat="45.92108" lon="4.75575">
        <ele>174</ele>
        <time>2018-03-08T13:05:56Z</time>
      </trkpt>
      <trkpt lat="45.92111" lon="4.75569">
        <ele>174</ele>
        <time>2018-03-08T13:05:57Z</time>
      </trkpt>
      <trkpt lat="45.92114" lon="4.75564">
        <ele>174</ele>
        <time>2018-03-08T13:05:58Z</time>
      </trkpt>
      <trkpt lat="45.92117" lon="4.75559">
        <ele>174</ele>
        <time>2018-03-08T13:05:59Z</time>
      </trkpt>
      <trkpt lat="45.92121" lon="4.75553">
        <ele>174</ele>
        <time>2018-03-08T13:06:00Z</time>
      </trkpt>
      <trkpt lat="45.92125" lon="4.75547">
        <ele>174</ele>
        <time>2018-03-08T13:06:01Z</time>
      </trkpt>
      <trkpt lat="45.92129" lon="4.7554">
        <ele>174</ele>
        <time>2018-03-08T13:06:02Z</time>
      </trkpt>
      <trkpt lat="45.92133" lon="4.75534">
        <ele>174</ele>
        <time>2018-03-08T13:06:03Z</time>
      </trkpt>
      <trkpt lat="45.92136" lon="4.75528">
        <ele>174</ele>
        <time>2018-03-08T13:06:04Z</time>
      </trkpt>
      <trkpt lat="45.92139" lon="4.75521">
        <ele>174</ele>
        <time>2018-03-08T13:06:05Z</time>
      </trkpt>
      <trkpt lat="45.92144" lon="4.75514">
        <ele>174</ele>
        <time>2018-03-08T13:06:06Z</time>
      </trkpt>
      <trkpt lat="45.92146" lon="4.75508">
        <ele>175</ele>
        <time>2018-03-08T13:06:07Z</time>
      </trkpt>
      <trkpt lat="45.92148" lon="4.75501">
        <ele>175</ele>
        <time>2018-03-08T13:06:08Z</time>
      </trkpt>
      <trkpt lat="45.92151" lon="4.75493">
        <ele>175</ele>
        <time>2018-03-08T13:06:09Z</time>
      </trkpt>
      <trkpt lat="45.92154" lon="4.75486">
        <ele>176</ele>
        <time>2018-03-08T13:06:10Z</time>
      </trkpt>
      <trkpt lat="45.92157" lon="4.75479">
        <ele>176</ele>
        <time>2018-03-08T13:06:11Z</time>
      </trkpt>
      <trkpt lat="45.9216" lon="4.75472">
        <ele>176</ele>
        <time>2018-03-08T13:06:12Z</time>
      </trkpt>
      <trkpt lat="45.92163" lon="4.75463">
        <ele>176</ele>
        <time>2018-03-08T13:06:13Z</time>
      </trkpt>
      <trkpt lat="45.92166" lon="4.75455">
        <ele>176</ele>
        <time>2018-03-08T13:06:14Z</time>
      </trkpt>
      <trkpt lat="45.92169" lon="4.75448">
        <ele>176</ele>
        <time>2018-03-08T13:06:15Z</time>
      </trkpt>
      <trkpt lat="45.92173" lon="4.75438">
        <ele>177</ele>
        <time>2018-03-08T13:06:16Z</time>
      </trkpt>
      <trkpt lat="45.92176" lon="4.75431">
        <ele>177</ele>
        <time>2018-03-08T13:06:17Z</time>
      </trkpt>
      <trkpt lat="45.92179" lon="4.75423">
        <ele>177</ele>
        <time>2018-03-08T13:06:18Z</time>
      </trkpt>
      <trkpt lat="45.92183" lon="4.75415">
        <ele>177</ele>
        <time>2018-03-08T13:06:19Z</time>
      </trkpt>
      <trkpt lat="45.92185" lon="4.75407">
        <ele>177</ele>
        <time>2018-03-08T13:06:20Z</time>
      </trkpt>
      <trkpt lat="45.92189" lon="4.754">
        <ele>177</ele>
        <time>2018-03-08T13:06:21Z</time>
      </trkpt>
      <trkpt lat="45.92192" lon="4.75393">
        <ele>177</ele>
        <time>2018-03-08T13:06:22Z</time>
      </trkpt>
      <trkpt lat="45.92195" lon="4.75386">
        <ele>177</ele>
        <time>2018-03-08T13:06:23Z</time>
      </trkpt>
      <trkpt lat="45.92197" lon="4.75379">
        <ele>177</ele>
        <time>2018-03-08T13:06:24Z</time>
      </trkpt>
      <trkpt lat="45.922" lon="4.75371">
        <ele>177</ele>
        <time>2018-03-08T13:06:25Z</time>
      </trkpt>
      <trkpt lat="45.92204" lon="4.75364">
        <ele>177</ele>
        <time>2018-03-08T13:06:26Z</time>
      </trkpt>
      <trkpt lat="45.92205" lon="4.75357">
        <ele>177</ele>
        <time>2018-03-08T13:06:27Z</time>
      </trkpt>
      <trkpt lat="45.92208" lon="4.75349">
        <ele>177</ele>
        <time>2018-03-08T13:06:28Z</time>
      </trkpt>
      <trkpt lat="45.9221" lon="4.75341">
        <ele>177</ele>
        <time>2018-03-08T13:06:29Z</time>
      </trkpt>
      <trkpt lat="45.92211" lon="4.75332">
        <ele>176</ele>
        <time>2018-03-08T13:06:30Z</time>
      </trkpt>
      <trkpt lat="45.92212" lon="4.75323">
        <ele>176</ele>
        <time>2018-03-08T13:06:31Z</time>
      </trkpt>
      <trkpt lat="45.92213" lon="4.75314">
        <ele>176</ele>
        <time>2018-03-08T13:06:32Z</time>
      </trkpt>
      <trkpt lat="45.92214" lon="4.75304">
        <ele>176</ele>
        <time>2018-03-08T13:06:33Z</time>
      </trkpt>
      <trkpt lat="45.92215" lon="4.75295">
        <ele>176</ele>
        <time>2018-03-08T13:06:34Z</time>
      </trkpt>
      <trkpt lat="45.92215" lon="4.75285">
        <ele>176</ele>
        <time>2018-03-08T13:06:35Z</time>
      </trkpt>
      <trkpt lat="45.92216" lon="4.75275">
        <ele>176</ele>
        <time>2018-03-08T13:06:36Z</time>
      </trkpt>
      <trkpt lat="45.92216" lon="4.75265">
        <ele>176</ele>
        <time>2018-03-08T13:06:37Z</time>
      </trkpt>
      <trkpt lat="45.92217" lon="4.75254">
        <ele>175</ele>
        <time>2018-03-08T13:06:38Z</time>
      </trkpt>
      <trkpt lat="45.92217" lon="4.75243">
        <ele>175</ele>
        <time>2018-03-08T13:06:39Z</time>
      </trkpt>
      <trkpt lat="45.92217" lon="4.75232">
        <ele>175</ele>
        <time>2018-03-08T13:06:40Z</time>
      </trkpt>
      <trkpt lat="45.92218" lon="4.75222">
        <ele>175</ele>
        <time>2018-03-08T13:06:41Z</time>
      </trkpt>
      <trkpt lat="45.9222" lon="4.75212">
        <ele>175</ele>
        <time>2018-03-08T13:06:42Z</time>
      </trkpt>
      <trkpt lat="45.92222" lon="4.75201">
        <ele>175</ele>
        <time>2018-03-08T13:06:43Z</time>
      </trkpt>
      <trkpt lat="45.92224" lon="4.75191">
        <ele>175</ele>
        <time>2018-03-08T13:06:44Z</time>
      </trkpt>
      <trkpt lat="45.92227" lon="4.75182">
        <ele>175</ele>
        <time>2018-03-08T13:06:45Z</time>
      </trkpt>
      <trkpt lat="45.92231" lon="4.75172">
        <ele>175</ele>
        <time>2018-03-08T13:06:46Z</time>
      </trkpt>
      <trkpt lat="45.92235" lon="4.75164">
        <ele>174</ele>
        <time>2018-03-08T13:06:47Z</time>
      </trkpt>
      <trkpt lat="45.92238" lon="4.75156">
        <ele>174</ele>
        <time>2018-03-08T13:06:48Z</time>
      </trkpt>
      <trkpt lat="45.92241" lon="4.75148">
        <ele>174</ele>
        <time>2018-03-08T13:06:49Z</time>
      </trkpt>
      <trkpt lat="45.92245" lon="4.75141">
        <ele>174</ele>
        <time>2018-03-08T13:06:50Z</time>
      </trkpt>
      <trkpt lat="45.9225" lon="4.75135">
        <ele>174</ele>
        <time>2018-03-08T13:06:51Z</time>
      </trkpt>
      <trkpt lat="45.92255" lon="4.75128">
        <ele>174</ele>
        <time>2018-03-08T13:06:52Z</time>
      </trkpt>
      <trkpt lat="45.92259" lon="4.7512">
        <ele>174</ele>
        <time>2018-03-08T13:06:53Z</time>
      </trkpt>
      <trkpt lat="45.92264" lon="4.75115">
        <ele>174</ele>
        <time>2018-03-08T13:06:54Z</time>
      </trkpt>
      <trkpt lat="45.92269" lon="4.75109">
        <ele>174</ele>
        <time>2018-03-08T13:06:55Z</time>
      </trkpt>
      <trkpt lat="45.92275" lon="4.75103">
        <ele>173</ele>
        <time>2018-03-08T13:06:56Z</time>
      </trkpt>
      <trkpt lat="45.9228" lon="4.75097">
        <ele>173</ele>
        <time>2018-03-08T13:06:57Z</time>
      </trkpt>
      <trkpt lat="45.92286" lon="4.75091">
        <ele>173</ele>
        <time>2018-03-08T13:06:58Z</time>
      </trkpt>
      <trkpt lat="45.92291" lon="4.75086">
        <ele>173</ele>
        <time>2018-03-08T13:06:59Z</time>
      </trkpt>
      <trkpt lat="45.92297" lon="4.75081">
        <ele>172</ele>
        <time>2018-03-08T13:07:00Z</time>
      </trkpt>
      <trkpt lat="45.92303" lon="4.75074">
        <ele>172</ele>
        <time>2018-03-08T13:07:01Z</time>
      </trkpt>
      <trkpt lat="45.92308" lon="4.75067">
        <ele>172</ele>
        <time>2018-03-08T13:07:02Z</time>
      </trkpt>
      <trkpt lat="45.92313" lon="4.7506">
        <ele>172</ele>
        <time>2018-03-08T13:07:03Z</time>
      </trkpt>
      <trkpt lat="45.92318" lon="4.75053">
        <ele>172</ele>
        <time>2018-03-08T13:07:04Z</time>
      </trkpt>
      <trkpt lat="45.92324" lon="4.75045">
        <ele>172</ele>
        <time>2018-03-08T13:07:05Z</time>
      </trkpt>
      <trkpt lat="45.92328" lon="4.75037">
        <ele>171</ele>
        <time>2018-03-08T13:07:06Z</time>
      </trkpt>
      <trkpt lat="45.92332" lon="4.75029">
        <ele>171</ele>
        <time>2018-03-08T13:07:07Z</time>
      </trkpt>
      <trkpt lat="45.92336" lon="4.75021">
        <ele>170</ele>
        <time>2018-03-08T13:07:08Z</time>
      </trkpt>
      <trkpt lat="45.9234" lon="4.75013">
        <ele>170</ele>
        <time>2018-03-08T13:07:09Z</time>
      </trkpt>
      <trkpt lat="45.92344" lon="4.75004">
        <ele>170</ele>
        <time>2018-03-08T13:07:10Z</time>
      </trkpt>
      <trkpt lat="45.92347" lon="4.74995">
        <ele>170</ele>
        <time>2018-03-08T13:07:11Z</time>
      </trkpt>
      <trkpt lat="45.9235" lon="4.74987">
        <ele>170</ele>
        <time>2018-03-08T13:07:12Z</time>
      </trkpt>
      <trkpt lat="45.92354" lon="4.7498">
        <ele>170</ele>
        <time>2018-03-08T13:07:13Z</time>
      </trkpt>
      <trkpt lat="45.92357" lon="4.74972">
        <ele>170</ele>
        <time>2018-03-08T13:07:14Z</time>
      </trkpt>
      <trkpt lat="45.92359" lon="4.74965">
        <ele>170</ele>
        <time>2018-03-08T13:07:15Z</time>
      </trkpt>
      <trkpt lat="45.92362" lon="4.74957">
        <ele>170</ele>
        <time>2018-03-08T13:07:16Z</time>
      </trkpt>
      <trkpt lat="45.92365" lon="4.74949">
        <ele>170</ele>
        <time>2018-03-08T13:07:17Z</time>
      </trkpt>
      <trkpt lat="45.92368" lon="4.7494">
        <ele>170</ele>
        <time>2018-03-08T13:07:18Z</time>
      </trkpt>
      <trkpt lat="45.92371" lon="4.74933">
        <ele>170</ele>
        <time>2018-03-08T13:07:19Z</time>
      </trkpt>
      <trkpt lat="45.92373" lon="4.74925">
        <ele>170</ele>
        <time>2018-03-08T13:07:20Z</time>
      </trkpt>
      <trkpt lat="45.92376" lon="4.74917">
        <ele>170</ele>
        <time>2018-03-08T13:07:21Z</time>
      </trkpt>
      <trkpt lat="45.92379" lon="4.7491">
        <ele>171</ele>
        <time>2018-03-08T13:07:22Z</time>
      </trkpt>
      <trkpt lat="45.92382" lon="4.74902">
        <ele>171</ele>
        <time>2018-03-08T13:07:23Z</time>
      </trkpt>
      <trkpt lat="45.92385" lon="4.74894">
        <ele>171</ele>
        <time>2018-03-08T13:07:24Z</time>
      </trkpt>
      <trkpt lat="45.92388" lon="4.74887">
        <ele>171</ele>
        <time>2018-03-08T13:07:25Z</time>
      </trkpt>
      <trkpt lat="45.92391" lon="4.7488">
        <ele>171</ele>
        <time>2018-03-08T13:07:26Z</time>
      </trkpt>
      <trkpt lat="45.92394" lon="4.74872">
        <ele>171</ele>
        <time>2018-03-08T13:07:27Z</time>
      </trkpt>
      <trkpt lat="45.92397" lon="4.74863">
        <ele>171</ele>
        <time>2018-03-08T13:07:28Z</time>
      </trkpt>
      <trkpt lat="45.924" lon="4.74856">
        <ele>171</ele>
        <time>2018-03-08T13:07:29Z</time>
      </trkpt>
      <trkpt lat="45.92402" lon="4.74848">
        <ele>171</ele>
        <time>2018-03-08T13:07:30Z</time>
      </trkpt>
      <trkpt lat="45.92404" lon="4.7484">
        <ele>171</ele>
        <time>2018-03-08T13:07:31Z</time>
      </trkpt>
      <trkpt lat="45.92405" lon="4.74833">
        <ele>171</ele>
        <time>2018-03-08T13:07:32Z</time>
      </trkpt>
      <trkpt lat="45.92407" lon="4.74825">
        <ele>171</ele>
        <time>2018-03-08T13:07:33Z</time>
      </trkpt>
      <trkpt lat="45.92408" lon="4.74815">
        <ele>171</ele>
        <time>2018-03-08T13:07:34Z</time>
      </trkpt>
      <trkpt lat="45.9241" lon="4.74807">
        <ele>171</ele>
        <time>2018-03-08T13:07:35Z</time>
      </trkpt>
      <trkpt lat="45.92412" lon="4.74799">
        <ele>171</ele>
        <time>2018-03-08T13:07:36Z</time>
      </trkpt>
      <trkpt lat="45.92413" lon="4.74791">
        <ele>171</ele>
        <time>2018-03-08T13:07:37Z</time>
      </trkpt>
      <trkpt lat="45.92415" lon="4.74783">
        <ele>171</ele>
        <time>2018-03-08T13:07:38Z</time>
      </trkpt>
      <trkpt lat="45.92417" lon="4.74776">
        <ele>171</ele>
        <time>2018-03-08T13:07:39Z</time>
      </trkpt>
      <trkpt lat="45.92418" lon="4.74768">
        <ele>171</ele>
        <time>2018-03-08T13:07:40Z</time>
      </trkpt>
      <trkpt lat="45.92421" lon="4.74761">
        <ele>171</ele>
        <time>2018-03-08T13:07:41Z</time>
      </trkpt>
      <trkpt lat="45.92423" lon="4.74753">
        <ele>172</ele>
        <time>2018-03-08T13:07:42Z</time>
      </trkpt>
      <trkpt lat="45.92425" lon="4.74746">
        <ele>172</ele>
        <time>2018-03-08T13:07:43Z</time>
      </trkpt>
      <trkpt lat="45.92428" lon="4.74737">
        <ele>171</ele>
        <time>2018-03-08T13:07:44Z</time>
      </trkpt>
      <trkpt lat="45.92431" lon="4.7473">
        <ele>171</ele>
        <time>2018-03-08T13:07:45Z</time>
      </trkpt>
      <trkpt lat="45.92433" lon="4.74722">
        <ele>171</ele>
        <time>2018-03-08T13:07:46Z</time>
      </trkpt>
      <trkpt lat="45.92436" lon="4.74715">
        <ele>171</ele>
        <time>2018-03-08T13:07:47Z</time>
      </trkpt>
      <trkpt lat="45.92439" lon="4.74707">
        <ele>171</ele>
        <time>2018-03-08T13:07:48Z</time>
      </trkpt>
      <trkpt lat="45.92442" lon="4.747">
        <ele>171</ele>
        <time>2018-03-08T13:07:49Z</time>
      </trkpt>
      <trkpt lat="45.92446" lon="4.74693">
        <ele>171</ele>
        <time>2018-03-08T13:07:50Z</time>
      </trkpt>
      <trkpt lat="45.92449" lon="4.74686">
        <ele>171</ele>
        <time>2018-03-08T13:07:51Z</time>
      </trkpt>
      <trkpt lat="45.92452" lon="4.7468">
        <ele>171</ele>
        <time>2018-03-08T13:07:52Z</time>
      </trkpt>
      <trkpt lat="45.92456" lon="4.74674">
        <ele>171</ele>
        <time>2018-03-08T13:07:53Z</time>
      </trkpt>
      <trkpt lat="45.92459" lon="4.74667">
        <ele>171</ele>
        <time>2018-03-08T13:07:54Z</time>
      </trkpt>
      <trkpt lat="45.92462" lon="4.7466">
        <ele>171</ele>
        <time>2018-03-08T13:07:55Z</time>
      </trkpt>
      <trkpt lat="45.92466" lon="4.74653">
        <ele>171</ele>
        <time>2018-03-08T13:07:56Z</time>
      </trkpt>
      <trkpt lat="45.9247" lon="4.74646">
        <ele>171</ele>
        <time>2018-03-08T13:07:57Z</time>
      </trkpt>
      <trkpt lat="45.92474" lon="4.7464">
        <ele>171</ele>
        <time>2018-03-08T13:07:58Z</time>
      </trkpt>
      <trkpt lat="45.92478" lon="4.74633">
        <ele>171</ele>
        <time>2018-03-08T13:07:59Z</time>
      </trkpt>
      <trkpt lat="45.92482" lon="4.74626">
        <ele>171</ele>
        <time>2018-03-08T13:08:00Z</time>
      </trkpt>
      <trkpt lat="45.92487" lon="4.74619">
        <ele>171</ele>
        <time>2018-03-08T13:08:01Z</time>
      </trkpt>
      <trkpt lat="45.92492" lon="4.74613">
        <ele>171</ele>
        <time>2018-03-08T13:08:02Z</time>
      </trkpt>
      <trkpt lat="45.92498" lon="4.74606">
        <ele>171</ele>
        <time>2018-03-08T13:08:03Z</time>
      </trkpt>
      <trkpt lat="45.92504" lon="4.74599">
        <ele>171</ele>
        <time>2018-03-08T13:08:04Z</time>
      </trkpt>
      <trkpt lat="45.92509" lon="4.74593">
        <ele>171</ele>
        <time>2018-03-08T13:08:05Z</time>
      </trkpt>
      <trkpt lat="45.92514" lon="4.74588">
        <ele>171</ele>
        <time>2018-03-08T13:08:06Z</time>
      </trkpt>
      <trkpt lat="45.92519" lon="4.74582">
        <ele>171</ele>
        <time>2018-03-08T13:08:07Z</time>
      </trkpt>
      <trkpt lat="45.92524" lon="4.74577">
        <ele>171</ele>
        <time>2018-03-08T13:08:08Z</time>
      </trkpt>
      <trkpt lat="45.92529" lon="4.74571">
        <ele>171</ele>
        <time>2018-03-08T13:08:09Z</time>
      </trkpt>
      <trkpt lat="45.92533" lon="4.74564">
        <ele>171</ele>
        <time>2018-03-08T13:08:10Z</time>
      </trkpt>
      <trkpt lat="45.92538" lon="4.74558">
        <ele>171</ele>
        <time>2018-03-08T13:08:11Z</time>
      </trkpt>
      <trkpt lat="45.92542" lon="4.74551">
        <ele>170</ele>
        <time>2018-03-08T13:08:12Z</time>
      </trkpt>
      <trkpt lat="45.92546" lon="4.74545">
        <ele>170</ele>
        <time>2018-03-08T13:08:13Z</time>
      </trkpt>
      <trkpt lat="45.9255" lon="4.74538">
        <ele>170</ele>
        <time>2018-03-08T13:08:14Z</time>
      </trkpt>
      <trkpt lat="45.92554" lon="4.74532">
        <ele>170</ele>
        <time>2018-03-08T13:08:15Z</time>
      </trkpt>
      <trkpt lat="45.92558" lon="4.74524">
        <ele>170</ele>
        <time>2018-03-08T13:08:16Z</time>
      </trkpt>
      <trkpt lat="45.92561" lon="4.74517">
        <ele>170</ele>
        <time>2018-03-08T13:08:17Z</time>
      </trkpt>
      <trkpt lat="45.92566" lon="4.74509">
        <ele>170</ele>
        <time>2018-03-08T13:08:18Z</time>
      </trkpt>
      <trkpt lat="45.92571" lon="4.74501">
        <ele>170</ele>
        <time>2018-03-08T13:08:19Z</time>
      </trkpt>
      <trkpt lat="45.92575" lon="4.74494">
        <ele>170</ele>
        <time>2018-03-08T13:08:20Z</time>
      </trkpt>
      <trkpt lat="45.92578" lon="4.74487">
        <ele>170</ele>
        <time>2018-03-08T13:08:21Z</time>
      </trkpt>
      <trkpt lat="45.92582" lon="4.7448">
        <ele>170</ele>
        <time>2018-03-08T13:08:22Z</time>
      </trkpt>
      <trkpt lat="45.92586" lon="4.74473">
        <ele>170</ele>
        <time>2018-03-08T13:08:23Z</time>
      </trkpt>
      <trkpt lat="45.9259" lon="4.74466">
        <ele>170</ele>
        <time>2018-03-08T13:08:24Z</time>
      </trkpt>
      <trkpt lat="45.92593" lon="4.7446">
        <ele>170</ele>
        <time>2018-03-08T13:08:25Z</time>
      </trkpt>
      <trkpt lat="45.92597" lon="4.74453">
        <ele>170</ele>
        <time>2018-03-08T13:08:26Z</time>
      </trkpt>
      <trkpt lat="45.926" lon="4.74446">
        <ele>170</ele>
        <time>2018-03-08T13:08:27Z</time>
      </trkpt>
      <trkpt lat="45.92604" lon="4.74439">
        <ele>170</ele>
        <time>2018-03-08T13:08:28Z</time>
      </trkpt>
      <trkpt lat="45.92608" lon="4.74432">
        <ele>170</ele>
        <time>2018-03-08T13:08:29Z</time>
      </trkpt>
      <trkpt lat="45.92612" lon="4.74426">
        <ele>170</ele>
        <time>2018-03-08T13:08:30Z</time>
      </trkpt>
      <trkpt lat="45.92615" lon="4.74419">
        <ele>170</ele>
        <time>2018-03-08T13:08:31Z</time>
      </trkpt>
      <trkpt lat="45.92619" lon="4.74413">
        <ele>170</ele>
        <time>2018-03-08T13:08:32Z</time>
      </trkpt>
      <trkpt lat="45.92622" lon="4.74407">
        <ele>170</ele>
        <time>2018-03-08T13:08:33Z</time>
      </trkpt>
      <trkpt lat="45.92625" lon="4.744">
        <ele>170</ele>
        <time>2018-03-08T13:08:34Z</time>
      </trkpt>
      <trkpt lat="45.92628" lon="4.74394">
        <ele>170</ele>
        <time>2018-03-08T13:08:35Z</time>
      </trkpt>
      <trkpt lat="45.92631" lon="4.74388">
        <ele>170</ele>
        <time>2018-03-08T13:08:36Z</time>
      </trkpt>
      <trkpt lat="45.92634" lon="4.74383">
        <ele>170</ele>
        <time>2018-03-08T13:08:37Z</time>
      </trkpt>
      <trkpt lat="45.92637" lon="4.74377">
        <ele>170</ele>
        <time>2018-03-08T13:08:38Z</time>
      </trkpt>
      <trkpt lat="45.9264" lon="4.74371">
        <ele>171</ele>
        <time>2018-03-08T13:08:39Z</time>
      </trkpt>
      <trkpt lat="45.92645" lon="4.74364">
        <ele>171</ele>
        <time>2018-03-08T13:08:40Z</time>
      </trkpt>
      <trkpt lat="45.92649" lon="4.74358">
        <ele>171</ele>
        <time>2018-03-08T13:08:41Z</time>
      </trkpt>
      <trkpt lat="45.92652" lon="4.74352">
        <ele>171</ele>
        <time>2018-03-08T13:08:42Z</time>
      </trkpt>
      <trkpt lat="45.92655" lon="4.74345">
        <ele>171</ele>
        <time>2018-03-08T13:08:43Z</time>
      </trkpt>
      <trkpt lat="45.92659" lon="4.74339">
        <ele>171</ele>
        <time>2018-03-08T13:08:44Z</time>
      </trkpt>
      <trkpt lat="45.92662" lon="4.74333">
        <ele>171</ele>
        <time>2018-03-08T13:08:45Z</time>
      </trkpt>
      <trkpt lat="45.92665" lon="4.74327">
        <ele>171</ele>
        <time>2018-03-08T13:08:46Z</time>
      </trkpt>
      <trkpt lat="45.92668" lon="4.74321">
        <ele>171</ele>
        <time>2018-03-08T13:08:47Z</time>
      </trkpt>
      <trkpt lat="45.92672" lon="4.74314">
        <ele>171</ele>
        <time>2018-03-08T13:08:48Z</time>
      </trkpt>
      <trkpt lat="45.92675" lon="4.74309">
        <ele>171</ele>
        <time>2018-03-08T13:08:49Z</time>
      </trkpt>
      <trkpt lat="45.92679" lon="4.74303">
        <ele>171</ele>
        <time>2018-03-08T13:08:50Z</time>
      </trkpt>
      <trkpt lat="45.92683" lon="4.74297">
        <ele>171</ele>
        <time>2018-03-08T13:08:51Z</time>
      </trkpt>
      <trkpt lat="45.92686" lon="4.74291">
        <ele>171</ele>
        <time>2018-03-08T13:08:52Z</time>
      </trkpt>
      <trkpt lat="45.92689" lon="4.74284">
        <ele>171</ele>
        <time>2018-03-08T13:08:53Z</time>
      </trkpt>
      <trkpt lat="45.92693" lon="4.74278">
        <ele>171</ele>
        <time>2018-03-08T13:08:54Z</time>
      </trkpt>
      <trkpt lat="45.92697" lon="4.74271">
        <ele>171</ele>
        <time>2018-03-08T13:08:55Z</time>
      </trkpt>
      <trkpt lat="45.927" lon="4.74264">
        <ele>171</ele>
        <time>2018-03-08T13:08:56Z</time>
      </trkpt>
      <trkpt lat="45.92704" lon="4.74257">
        <ele>171</ele>
        <time>2018-03-08T13:08:57Z</time>
      </trkpt>
      <trkpt lat="45.92708" lon="4.7425">
        <ele>171</ele>
        <time>2018-03-08T13:08:58Z</time>
      </trkpt>
      <trkpt lat="45.92712" lon="4.74244">
        <ele>171</ele>
        <time>2018-03-08T13:08:59Z</time>
      </trkpt>
      <trkpt lat="45.92716" lon="4.74238">
        <ele>171</ele>
        <time>2018-03-08T13:09:00Z</time>
      </trkpt>
      <trkpt lat="45.92721" lon="4.74231">
        <ele>171</ele>
        <time>2018-03-08T13:09:01Z</time>
      </trkpt>
      <trkpt lat="45.92725" lon="4.74225">
        <ele>171</ele>
        <time>2018-03-08T13:09:02Z</time>
      </trkpt>
      <trkpt lat="45.92729" lon="4.74219">
        <ele>171</ele>
        <time>2018-03-08T13:09:03Z</time>
      </trkpt>
      <trkpt lat="45.92733" lon="4.74213">
        <ele>171</ele>
        <time>2018-03-08T13:09:04Z</time>
      </trkpt>
      <trkpt lat="45.92736" lon="4.74208">
        <ele>171</ele>
        <time>2018-03-08T13:09:05Z</time>
      </trkpt>
      <trkpt lat="45.9274" lon="4.74203">
        <ele>171</ele>
        <time>2018-03-08T13:09:06Z</time>
      </trkpt>
      <trkpt lat="45.92745" lon="4.74197">
        <ele>171</ele>
        <time>2018-03-08T13:09:07Z</time>
      </trkpt>
      <trkpt lat="45.92749" lon="4.74191">
        <ele>172</ele>
        <time>2018-03-08T13:09:08Z</time>
      </trkpt>
      <trkpt lat="45.92754" lon="4.74185">
        <ele>172</ele>
        <time>2018-03-08T13:09:09Z</time>
      </trkpt>
      <trkpt lat="45.92759" lon="4.74181">
        <ele>172</ele>
        <time>2018-03-08T13:09:10Z</time>
      </trkpt>
      <trkpt lat="45.92763" lon="4.74177">
        <ele>172</ele>
        <time>2018-03-08T13:09:11Z</time>
      </trkpt>
      <trkpt lat="45.92767" lon="4.74173">
        <ele>172</ele>
        <time>2018-03-08T13:09:12Z</time>
      </trkpt>
      <trkpt lat="45.92771" lon="4.74168">
        <ele>172</ele>
        <time>2018-03-08T13:09:13Z</time>
      </trkpt>
      <trkpt lat="45.92776" lon="4.74163">
        <ele>172</ele>
        <time>2018-03-08T13:09:14Z</time>
      </trkpt>
      <trkpt lat="45.92781" lon="4.74157">
        <ele>172</ele>
        <time>2018-03-08T13:09:15Z</time>
      </trkpt>
      <trkpt lat="45.92786" lon="4.74152">
        <ele>172</ele>
        <time>2018-03-08T13:09:16Z</time>
      </trkpt>
      <trkpt lat="45.9279" lon="4.74147">
        <ele>172</ele>
        <time>2018-03-08T13:09:17Z</time>
      </trkpt>
      <trkpt lat="45.92795" lon="4.74142">
        <ele>172</ele>
        <time>2018-03-08T13:09:18Z</time>
      </trkpt>
      <trkpt lat="45.928" lon="4.74137">
        <ele>172</ele>
        <time>2018-03-08T13:09:19Z</time>
      </trkpt>
      <trkpt lat="45.92804" lon="4.74131">
        <ele>172</ele>
        <time>2018-03-08T13:09:20Z</time>
      </trkpt>
      <trkpt lat="45.92809" lon="4.74126">
        <ele>172</ele>
        <time>2018-03-08T13:09:21Z</time>
      </trkpt>
      <trkpt lat="45.92813" lon="4.74121">
        <ele>172</ele>
        <time>2018-03-08T13:09:22Z</time>
      </trkpt>
      <trkpt lat="45.92818" lon="4.74115">
        <ele>172</ele>
        <time>2018-03-08T13:09:23Z</time>
      </trkpt>
      <trkpt lat="45.92823" lon="4.7411">
        <ele>171</ele>
        <time>2018-03-08T13:09:24Z</time>
      </trkpt>
      <trkpt lat="45.92827" lon="4.74105">
        <ele>171</ele>
        <time>2018-03-08T13:09:25Z</time>
      </trkpt>
      <trkpt lat="45.92832" lon="4.741">
        <ele>171</ele>
        <time>2018-03-08T13:09:26Z</time>
      </trkpt>
      <trkpt lat="45.92836" lon="4.74095">
        <ele>171</ele>
        <time>2018-03-08T13:09:27Z</time>
      </trkpt>
      <trkpt lat="45.9284" lon="4.7409">
        <ele>171</ele>
        <time>2018-03-08T13:09:28Z</time>
      </trkpt>
      <trkpt lat="45.92844" lon="4.74085">
        <ele>171</ele>
        <time>2018-03-08T13:09:29Z</time>
      </trkpt>
      <trkpt lat="45.92849" lon="4.74081">
        <ele>172</ele>
        <time>2018-03-08T13:09:30Z</time>
      </trkpt>
      <trkpt lat="45.92854" lon="4.74076">
        <ele>172</ele>
        <time>2018-03-08T13:09:31Z</time>
      </trkpt>
      <trkpt lat="45.92859" lon="4.7407">
        <ele>172</ele>
        <time>2018-03-08T13:09:32Z</time>
      </trkpt>
      <trkpt lat="45.92863" lon="4.74065">
        <ele>172</ele>
        <time>2018-03-08T13:09:33Z</time>
      </trkpt>
      <trkpt lat="45.92868" lon="4.7406">
        <ele>172</ele>
        <time>2018-03-08T13:09:34Z</time>
      </trkpt>
      <trkpt lat="45.92872" lon="4.74055">
        <ele>172</ele>
        <time>2018-03-08T13:09:35Z</time>
      </trkpt>
      <trkpt lat="45.92878" lon="4.7405">
        <ele>172</ele>
        <time>2018-03-08T13:09:36Z</time>
      </trkpt>
      <trkpt lat="45.92883" lon="4.74048">
        <ele>172</ele>
        <time>2018-03-08T13:09:37Z</time>
      </trkpt>
      <trkpt lat="45.92888" lon="4.74048">
        <ele>172</ele>
        <time>2018-03-08T13:09:38Z</time>
      </trkpt>
      <trkpt lat="45.92892" lon="4.74049">
        <ele>172</ele>
        <time>2018-03-08T13:09:39Z</time>
      </trkpt>
      <trkpt lat="45.92897" lon="4.7405">
        <ele>172</ele>
        <time>2018-03-08T13:09:40Z</time>
      </trkpt>
      <trkpt lat="45.92902" lon="4.74049">
        <ele>172</ele>
        <time>2018-03-08T13:09:41Z</time>
      </trkpt>
      <trkpt lat="45.92908" lon="4.74048">
        <ele>172</ele>
        <time>2018-03-08T13:09:42Z</time>
      </trkpt>
      <trkpt lat="45.92912" lon="4.74045">
        <ele>172</ele>
        <time>2018-03-08T13:09:43Z</time>
      </trkpt>
      <trkpt lat="45.92915" lon="4.74041">
        <ele>172</ele>
        <time>2018-03-08T13:09:44Z</time>
      </trkpt>
      <trkpt lat="45.92918" lon="4.74034">
        <ele>172</ele>
        <time>2018-03-08T13:09:45Z</time>
      </trkpt>
      <trkpt lat="45.9292" lon="4.74027">
        <ele>172</ele>
        <time>2018-03-08T13:09:46Z</time>
      </trkpt>
      <trkpt lat="45.9292" lon="4.74019">
        <ele>172</ele>
        <time>2018-03-08T13:09:47Z</time>
      </trkpt>
      <trkpt lat="45.92919" lon="4.74013">
        <ele>172</ele>
        <time>2018-03-08T13:09:48Z</time>
      </trkpt>
      <trkpt lat="45.92917" lon="4.74007">
        <ele>172</ele>
        <time>2018-03-08T13:09:49Z</time>
      </trkpt>
      <trkpt lat="45.92914" lon="4.74001">
        <ele>172</ele>
        <time>2018-03-08T13:09:50Z</time>
      </trkpt>
      <trkpt lat="45.92911" lon="4.73996">
        <ele>172</ele>
        <time>2018-03-08T13:09:51Z</time>
      </trkpt>
      <trkpt lat="45.92907" lon="4.73991">
        <ele>172</ele>
        <time>2018-03-08T13:09:52Z</time>
      </trkpt>
      <trkpt lat="45.92903" lon="4.73987">
        <ele>172</ele>
        <time>2018-03-08T13:09:53Z</time>
      </trkpt>
      <trkpt lat="45.92899" lon="4.73983">
        <ele>172</ele>
        <time>2018-03-08T13:09:54Z</time>
      </trkpt>
      <trkpt lat="45.92895" lon="4.73979">
        <ele>172</ele>
        <time>2018-03-08T13:09:55Z</time>
      </trkpt>
      <trkpt lat="45.92891" lon="4.73973">
        <ele>172</ele>
        <time>2018-03-08T13:09:56Z</time>
      </trkpt>
      <trkpt lat="45.92888" lon="4.73966">
        <ele>172</ele>
        <time>2018-03-08T13:09:57Z</time>
      </trkpt>
      <trkpt lat="45.92887" lon="4.73958">
        <ele>172</ele>
        <time>2018-03-08T13:09:58Z</time>
      </trkpt>
      <trkpt lat="45.92886" lon="4.7395">
        <ele>172</ele>
        <time>2018-03-08T13:09:59Z</time>
      </trkpt>
      <trkpt lat="45.92886" lon="4.73942">
        <ele>172</ele>
        <time>2018-03-08T13:10:00Z</time>
      </trkpt>
      <trkpt lat="45.92885" lon="4.73933">
        <ele>172</ele>
        <time>2018-03-08T13:10:01Z</time>
      </trkpt>
      <trkpt lat="45.92884" lon="4.73924">
        <ele>172</ele>
        <time>2018-03-08T13:10:02Z</time>
      </trkpt>
      <trkpt lat="45.92883" lon="4.73914">
        <ele>173</ele>
        <time>2018-03-08T13:10:03Z</time>
      </trkpt>
      <trkpt lat="45.92883" lon="4.73905">
        <ele>173</ele>
        <time>2018-03-08T13:10:04Z</time>
      </trkpt>
      <trkpt lat="45.92881" lon="4.73896">
        <ele>173</ele>
        <time>2018-03-08T13:10:05Z</time>
      </trkpt>
      <trkpt lat="45.9288" lon="4.73887">
        <ele>173</ele>
        <time>2018-03-08T13:10:06Z</time>
      </trkpt>
      <trkpt lat="45.92878" lon="4.73877">
        <ele>173</ele>
        <time>2018-03-08T13:10:07Z</time>
      </trkpt>
      <trkpt lat="45.92876" lon="4.73868">
        <ele>173</ele>
        <time>2018-03-08T13:10:08Z</time>
      </trkpt>
      <trkpt lat="45.92874" lon="4.73859">
        <ele>173</ele>
        <time>2018-03-08T13:10:09Z</time>
      </trkpt>
      <trkpt lat="45.92872" lon="4.73849">
        <ele>173</ele>
        <time>2018-03-08T13:10:10Z</time>
      </trkpt>
      <trkpt lat="45.92869" lon="4.73842">
        <ele>173</ele>
        <time>2018-03-08T13:10:11Z</time>
      </trkpt>
      <trkpt lat="45.92866" lon="4.73836">
        <ele>173</ele>
        <time>2018-03-08T13:10:12Z</time>
      </trkpt>
      <trkpt lat="45.92864" lon="4.73828">
        <ele>173</ele>
        <time>2018-03-08T13:10:13Z</time>
      </trkpt>
      <trkpt lat="45.92863" lon="4.73821">
        <ele>173</ele>
        <time>2018-03-08T13:10:14Z</time>
      </trkpt>
      <trkpt lat="45.9286" lon="4.73813">
        <ele>173</ele>
        <time>2018-03-08T13:10:15Z</time>
      </trkpt>
      <trkpt lat="45.92858" lon="4.73806">
        <ele>173</ele>
        <time>2018-03-08T13:10:16Z</time>
      </trkpt>
      <trkpt lat="45.92856" lon="4.73799">
        <ele>173</ele>
        <time>2018-03-08T13:10:17Z</time>
      </trkpt>
      <trkpt lat="45.92852" lon="4.73793">
        <ele>173</ele>
        <time>2018-03-08T13:10:18Z</time>
      </trkpt>
      <trkpt lat="45.92847" lon="4.73791">
        <ele>173</ele>
        <time>2018-03-08T13:10:19Z</time>
      </trkpt>
      <trkpt lat="45.92843" lon="4.73788">
        <ele>173</ele>
        <time>2018-03-08T13:10:20Z</time>
      </trkpt>
      <trkpt lat="45.92839" lon="4.73786">
        <ele>173</ele>
        <time>2018-03-08T13:10:21Z</time>
      </trkpt>
      <trkpt lat="45.92835" lon="4.73782">
        <ele>173</ele>
        <time>2018-03-08T13:10:22Z</time>
      </trkpt>
      <trkpt lat="45.92831" lon="4.73778">
        <ele>173</ele>
        <time>2018-03-08T13:10:23Z</time>
      </trkpt>
      <trkpt lat="45.92826" lon="4.73775">
        <ele>173</ele>
        <time>2018-03-08T13:10:24Z</time>
      </trkpt>
      <trkpt lat="45.92823" lon="4.73772">
        <ele>173</ele>
        <time>2018-03-08T13:10:25Z</time>
      </trkpt>
      <trkpt lat="45.92815" lon="4.73768">
        <ele>173</ele>
        <time>2018-03-08T13:10:27Z</time>
      </trkpt>
      <trkpt lat="45.92811" lon="4.73767">
        <ele>173</ele>
        <time>2018-03-08T13:10:28Z</time>
      </trkpt>
      <trkpt lat="45.92804" lon="4.73763">
        <ele>173</ele>
        <time>2018-03-08T13:10:30Z</time>
      </trkpt>
      <trkpt lat="45.928" lon="4.73761">
        <ele>173</ele>
        <time>2018-03-08T13:10:31Z</time>
      </trkpt>
      <trkpt lat="45.92794" lon="4.73757">
        <ele>173</ele>
        <time>2018-03-08T13:10:34Z</time>
      </trkpt>
      <trkpt lat="45.92791" lon="4.73756">
        <ele>173</ele>
        <time>2018-03-08T13:10:35Z</time>
      </trkpt>
      <trkpt lat="45.92786" lon="4.73753">
        <ele>173</ele>
        <time>2018-03-08T13:10:37Z</time>
      </trkpt>
      <trkpt lat="45.92779" lon="4.73746">
        <ele>172</ele>
        <time>2018-03-08T13:10:38Z</time>
      </trkpt>
      <trkpt lat="45.92775" lon="4.73737">
        <ele>172</ele>
        <time>2018-03-08T13:10:40Z</time>
      </trkpt>
      <trkpt lat="45.92774" lon="4.73735">
        <ele>172</ele>
        <time>2018-03-08T13:10:41Z</time>
      </trkpt>
      <trkpt lat="45.92768" lon="4.73727">
        <ele>172</ele>
        <time>2018-03-08T13:10:43Z</time>
      </trkpt>
      <trkpt lat="45.92765" lon="4.73726">
        <ele>172</ele>
        <time>2018-03-08T13:10:44Z</time>
      </trkpt>
      <trkpt lat="45.92756" lon="4.73722">
        <ele>172</ele>
        <time>2018-03-08T13:10:48Z</time>
      </trkpt>
      <trkpt lat="45.9275" lon="4.7372">
        <ele>172</ele>
        <time>2018-03-08T13:10:49Z</time>
      </trkpt>
      <trkpt lat="45.92742" lon="4.73717">
        <ele>173</ele>
        <time>2018-03-08T13:10:51Z</time>
      </trkpt>
      <trkpt lat="45.92738" lon="4.73716">
        <ele>173</ele>
        <time>2018-03-08T13:10:52Z</time>
      </trkpt>
      <trkpt lat="45.92732" lon="4.73715">
        <ele>173</ele>
        <time>2018-03-08T13:10:54Z</time>
      </trkpt>
      <trkpt lat="45.92727" lon="4.73715">
        <ele>173</ele>
        <time>2018-03-08T13:10:55Z</time>
      </trkpt>
      <trkpt lat="45.92719" lon="4.73715">
        <ele>173</ele>
        <time>2018-03-08T13:10:57Z</time>
      </trkpt>
      <trkpt lat="45.92714" lon="4.73714">
        <ele>173</ele>
        <time>2018-03-08T13:10:58Z</time>
      </trkpt>
      <trkpt lat="45.92706" lon="4.73712">
        <ele>173</ele>
        <time>2018-03-08T13:11:00Z</time>
      </trkpt>
      <trkpt lat="45.927" lon="4.73711">
        <ele>173</ele>
        <time>2018-03-08T13:11:01Z</time>
      </trkpt>
      <trkpt lat="45.92693" lon="4.73709">
        <ele>173</ele>
        <time>2018-03-08T13:11:03Z</time>
      </trkpt>
      <trkpt lat="45.92689" lon="4.73707">
        <ele>173</ele>
        <time>2018-03-08T13:11:04Z</time>
      </trkpt>
      <trkpt lat="45.92681" lon="4.73705">
        <ele>173</ele>
        <time>2018-03-08T13:11:06Z</time>
      </trkpt>
      <trkpt lat="45.92677" lon="4.73703">
        <ele>173</ele>
        <time>2018-03-08T13:11:07Z</time>
      </trkpt>
      <trkpt lat="45.92668" lon="4.73701">
        <ele>174</ele>
        <time>2018-03-08T13:11:09Z</time>
      </trkpt>
      <trkpt lat="45.92664" lon="4.73699">
        <ele>173</ele>
        <time>2018-03-08T13:11:10Z</time>
      </trkpt>
      <trkpt lat="45.92657" lon="4.73693">
        <ele>173</ele>
        <time>2018-03-08T13:11:12Z</time>
      </trkpt>
      <trkpt lat="45.92654" lon="4.7369">
        <ele>173</ele>
        <time>2018-03-08T13:11:13Z</time>
      </trkpt>
      <trkpt lat="45.92648" lon="4.73681">
        <ele>173</ele>
        <time>2018-03-08T13:11:15Z</time>
      </trkpt>
      <trkpt lat="45.92645" lon="4.73677">
        <ele>173</ele>
        <time>2018-03-08T13:11:16Z</time>
      </trkpt>
      <trkpt lat="45.92639" lon="4.73667">
        <ele>173</ele>
        <time>2018-03-08T13:11:18Z</time>
      </trkpt>
      <trkpt lat="45.92637" lon="4.73663">
        <ele>173</ele>
        <time>2018-03-08T13:11:19Z</time>
      </trkpt>
      <trkpt lat="45.92632" lon="4.73653">
        <ele>173</ele>
        <time>2018-03-08T13:11:21Z</time>
      </trkpt>
      <trkpt lat="45.9263" lon="4.73647">
        <ele>173</ele>
        <time>2018-03-08T13:11:22Z</time>
      </trkpt>
      <trkpt lat="45.92626" lon="4.73636">
        <ele>173</ele>
        <time>2018-03-08T13:11:24Z</time>
      </trkpt>
      <trkpt lat="45.92623" lon="4.73631">
        <ele>173</ele>
        <time>2018-03-08T13:11:25Z</time>
      </trkpt>
      <trkpt lat="45.92619" lon="4.73627">
        <ele>173</ele>
        <time>2018-03-08T13:11:26Z</time>
      </trkpt>
      <trkpt lat="45.92615" lon="4.73623">
        <ele>173</ele>
        <time>2018-03-08T13:11:27Z</time>
      </trkpt>
      <trkpt lat="45.92612" lon="4.73621">
        <ele>173</ele>
        <time>2018-03-08T13:11:28Z</time>
      </trkpt>
      <trkpt lat="45.92606" lon="4.73618">
        <ele>173</ele>
        <time>2018-03-08T13:11:29Z</time>
      </trkpt>
      <trkpt lat="45.92601" lon="4.73618">
        <ele>173</ele>
        <time>2018-03-08T13:11:30Z</time>
      </trkpt>
      <trkpt lat="45.92597" lon="4.73618">
        <ele>173</ele>
        <time>2018-03-08T13:11:31Z</time>
      </trkpt>
      <trkpt lat="45.92588" lon="4.73622">
        <ele>173</ele>
        <time>2018-03-08T13:11:33Z</time>
      </trkpt>
      <trkpt lat="45.92583" lon="4.73623">
        <ele>173</ele>
        <time>2018-03-08T13:11:34Z</time>
      </trkpt>
      <trkpt lat="45.92578" lon="4.73624">
        <ele>173</ele>
        <time>2018-03-08T13:11:36Z</time>
      </trkpt>
      <trkpt lat="45.92572" lon="4.73625">
        <ele>173</ele>
        <time>2018-03-08T13:11:37Z</time>
      </trkpt>
      <trkpt lat="45.92565" lon="4.73626">
        <ele>173</ele>
        <time>2018-03-08T13:11:39Z</time>
      </trkpt>
      <trkpt lat="45.92559" lon="4.73628">
        <ele>173</ele>
        <time>2018-03-08T13:11:40Z</time>
      </trkpt>
      <trkpt lat="45.9255" lon="4.7363">
        <ele>173</ele>
        <time>2018-03-08T13:11:42Z</time>
      </trkpt>
      <trkpt lat="45.92546" lon="4.73632">
        <ele>173</ele>
        <time>2018-03-08T13:11:43Z</time>
      </trkpt>
      <trkpt lat="45.92539" lon="4.73634">
        <ele>173</ele>
        <time>2018-03-08T13:11:45Z</time>
      </trkpt>
      <trkpt lat="45.92535" lon="4.73634">
        <ele>173</ele>
        <time>2018-03-08T13:11:46Z</time>
      </trkpt>
      <trkpt lat="45.92526" lon="4.73637">
        <ele>173</ele>
        <time>2018-03-08T13:11:48Z</time>
      </trkpt>
      <trkpt lat="45.92521" lon="4.73637">
        <ele>173</ele>
        <time>2018-03-08T13:11:49Z</time>
      </trkpt>
      <trkpt lat="45.92513" lon="4.73639">
        <ele>174</ele>
        <time>2018-03-08T13:11:51Z</time>
      </trkpt>
      <trkpt lat="45.92508" lon="4.7364">
        <ele>174</ele>
        <time>2018-03-08T13:11:52Z</time>
      </trkpt>
      <trkpt lat="45.925" lon="4.7364">
        <ele>174</ele>
        <time>2018-03-08T13:11:55Z</time>
      </trkpt>
      <trkpt lat="45.92498" lon="4.73639">
        <ele>174</ele>
        <time>2018-03-08T13:11:56Z</time>
      </trkpt>
      <trkpt lat="45.92492" lon="4.73638">
        <ele>174</ele>
        <time>2018-03-08T13:11:58Z</time>
      </trkpt>
      <trkpt lat="45.92489" lon="4.73638">
        <ele>174</ele>
        <time>2018-03-08T13:11:59Z</time>
      </trkpt>
      <trkpt lat="45.92482" lon="4.73639">
        <ele>174</ele>
        <time>2018-03-08T13:12:01Z</time>
      </trkpt>
      <trkpt lat="45.92474" lon="4.73643">
        <ele>174</ele>
        <time>2018-03-08T13:12:02Z</time>
      </trkpt>
      <trkpt lat="45.92469" lon="4.73649">
        <ele>174</ele>
        <time>2018-03-08T13:12:04Z</time>
      </trkpt>
      <trkpt lat="45.92465" lon="4.73655">
        <ele>174</ele>
        <time>2018-03-08T13:12:05Z</time>
      </trkpt>
      <trkpt lat="45.92464" lon="4.73667">
        <ele>174</ele>
        <time>2018-03-08T13:12:08Z</time>
      </trkpt>
      <trkpt lat="45.92464" lon="4.7367">
        <ele>174</ele>
        <time>2018-03-08T13:12:09Z</time>
      </trkpt>
      <trkpt lat="45.92464" lon="4.73683">
        <ele>174</ele>
        <time>2018-03-08T13:12:12Z</time>
      </trkpt>
      <trkpt lat="45.92464" lon="4.73687">
        <ele>174</ele>
        <time>2018-03-08T13:12:13Z</time>
      </trkpt>
      <trkpt lat="45.92464" lon="4.73698">
        <ele>174</ele>
        <time>2018-03-08T13:12:16Z</time>
      </trkpt>
      <trkpt lat="45.92464" lon="4.73701">
        <ele>174</ele>
        <time>2018-03-08T13:12:17Z</time>
      </trkpt>
      <trkpt lat="45.92459" lon="4.73709">
        <ele>174</ele>
        <time>2018-03-08T13:13:03.194Z</time>
      </trkpt>
    </trkseg>
  </trk>
</gpx>